<?xml version="1.0" encoding="UTF-8" standalone="no" ?>
<gpx xmlns="http://www.topografix.com/GPX/1/1" xmlns:xsi="http://www.w3.org/2001/XMLSchema-instance" xsi:schemaLocation="http://www.topografix.com/GPX/1/1 http://www.topografix.com/GPX/1/1/gpx.xsd" version="1.1" creator="VisuGPX - https://www.visugpx.com">
  <metadata>
    <name>2018-07-03 Bike ride-Amberieux en Dombes O via Toussieux 41k</name>
    <desc><![CDATA[2018-07-03 Bike ride-Amberieux en Dombes O via Toussieux 41k]]></desc>
  </metadata>
  <wpt lat="45.92457" lon="4.7371">
    <ele>174</ele>
    <name><![CDATA[2018-07-03 10:33 (Start)]]></name>
  </wpt>
  <wpt lat="45.92458" lon="4.7371">
    <ele>174</ele>
    <name><![CDATA[2018-07-03 10:33 (End)]]></name>
  </wpt>
  <trk>
    <name><![CDATA[2018-07-03 10:33]]></name>
    <trkseg>
      <trkpt lat="45.92457" lon="4.7371">
        <ele>174</ele>
        <time>2018-07-03T08:33:06.198Z</time>
      </trkpt>
      <trkpt lat="45.92458" lon="4.73704">
        <ele>174</ele>
        <time>2018-07-03T08:33:09.593Z</time>
      </trkpt>
      <trkpt lat="45.92456" lon="4.737">
        <ele>174</ele>
        <time>2018-07-03T08:33:12.661Z</time>
      </trkpt>
      <trkpt lat="45.92456" lon="4.737">
        <ele>174</ele>
        <time>2018-07-03T08:33:12.592Z</time>
      </trkpt>
      <trkpt lat="45.92464" lon="4.73695">
        <ele>174</ele>
        <time>2018-07-03T08:33:33Z</time>
      </trkpt>
      <trkpt lat="45.92465" lon="4.73693">
        <ele>174</ele>
        <time>2018-07-03T08:33:34Z</time>
      </trkpt>
      <trkpt lat="45.92466" lon="4.7368">
        <ele>174</ele>
        <time>2018-07-03T08:33:39Z</time>
      </trkpt>
      <trkpt lat="45.92467" lon="4.73678">
        <ele>174</ele>
        <time>2018-07-03T08:33:40Z</time>
      </trkpt>
      <trkpt lat="45.92469" lon="4.73666">
        <ele>174</ele>
        <time>2018-07-03T08:33:44Z</time>
      </trkpt>
      <trkpt lat="45.9247" lon="4.73663">
        <ele>174</ele>
        <time>2018-07-03T08:33:45Z</time>
      </trkpt>
      <trkpt lat="45.92473" lon="4.73652">
        <ele>174</ele>
        <time>2018-07-03T08:33:46Z</time>
      </trkpt>
      <trkpt lat="45.92474" lon="4.7365">
        <ele>174</ele>
        <time>2018-07-03T08:33:47Z</time>
      </trkpt>
      <trkpt lat="45.92481" lon="4.73642">
        <ele>174</ele>
        <time>2018-07-03T08:33:49Z</time>
      </trkpt>
      <trkpt lat="45.92485" lon="4.73641">
        <ele>174</ele>
        <time>2018-07-03T08:33:50Z</time>
      </trkpt>
      <trkpt lat="45.92492" lon="4.73642">
        <ele>174</ele>
        <time>2018-07-03T08:33:52Z</time>
      </trkpt>
      <trkpt lat="45.92496" lon="4.73642">
        <ele>174</ele>
        <time>2018-07-03T08:33:53Z</time>
      </trkpt>
      <trkpt lat="45.92504" lon="4.73643">
        <ele>174</ele>
        <time>2018-07-03T08:33:55Z</time>
      </trkpt>
      <trkpt lat="45.92508" lon="4.73644">
        <ele>174</ele>
        <time>2018-07-03T08:33:56Z</time>
      </trkpt>
      <trkpt lat="45.92517" lon="4.73642">
        <ele>174</ele>
        <time>2018-07-03T08:33:58Z</time>
      </trkpt>
      <trkpt lat="45.92522" lon="4.73642">
        <ele>173</ele>
        <time>2018-07-03T08:33:59Z</time>
      </trkpt>
      <trkpt lat="45.9253" lon="4.73641">
        <ele>173</ele>
        <time>2018-07-03T08:34:01Z</time>
      </trkpt>
      <trkpt lat="45.92535" lon="4.7364">
        <ele>173</ele>
        <time>2018-07-03T08:34:02Z</time>
      </trkpt>
      <trkpt lat="45.92544" lon="4.73638">
        <ele>173</ele>
        <time>2018-07-03T08:34:04Z</time>
      </trkpt>
      <trkpt lat="45.92549" lon="4.73636">
        <ele>173</ele>
        <time>2018-07-03T08:34:05Z</time>
      </trkpt>
      <trkpt lat="45.92555" lon="4.73634">
        <ele>173</ele>
        <time>2018-07-03T08:34:06Z</time>
      </trkpt>
      <trkpt lat="45.92561" lon="4.73631">
        <ele>173</ele>
        <time>2018-07-03T08:34:07Z</time>
      </trkpt>
      <trkpt lat="45.92567" lon="4.73631">
        <ele>173</ele>
        <time>2018-07-03T08:34:08Z</time>
      </trkpt>
      <trkpt lat="45.9257" lon="4.73631">
        <ele>173</ele>
        <time>2018-07-03T08:34:09Z</time>
      </trkpt>
      <trkpt lat="45.92574" lon="4.7363">
        <ele>173</ele>
        <time>2018-07-03T08:34:10Z</time>
      </trkpt>
      <trkpt lat="45.92581" lon="4.73626">
        <ele>173</ele>
        <time>2018-07-03T08:34:11Z</time>
      </trkpt>
      <trkpt lat="45.92586" lon="4.73626">
        <ele>172</ele>
        <time>2018-07-03T08:34:12Z</time>
      </trkpt>
      <trkpt lat="45.92591" lon="4.73626">
        <ele>172</ele>
        <time>2018-07-03T08:34:13Z</time>
      </trkpt>
      <trkpt lat="45.92599" lon="4.73628">
        <ele>173</ele>
        <time>2018-07-03T08:34:15Z</time>
      </trkpt>
      <trkpt lat="45.92605" lon="4.73628">
        <ele>173</ele>
        <time>2018-07-03T08:34:16Z</time>
      </trkpt>
      <trkpt lat="45.92611" lon="4.73628">
        <ele>173</ele>
        <time>2018-07-03T08:34:17Z</time>
      </trkpt>
      <trkpt lat="45.92616" lon="4.73635">
        <ele>173</ele>
        <time>2018-07-03T08:34:18Z</time>
      </trkpt>
      <trkpt lat="45.92618" lon="4.7364">
        <ele>173</ele>
        <time>2018-07-03T08:34:19Z</time>
      </trkpt>
      <trkpt lat="45.92622" lon="4.73645">
        <ele>173</ele>
        <time>2018-07-03T08:34:20Z</time>
      </trkpt>
      <trkpt lat="45.92625" lon="4.73652">
        <ele>173</ele>
        <time>2018-07-03T08:34:21Z</time>
      </trkpt>
      <trkpt lat="45.92627" lon="4.73658">
        <ele>173</ele>
        <time>2018-07-03T08:34:22Z</time>
      </trkpt>
      <trkpt lat="45.92631" lon="4.73664">
        <ele>173</ele>
        <time>2018-07-03T08:34:23Z</time>
      </trkpt>
      <trkpt lat="45.92635" lon="4.7367">
        <ele>173</ele>
        <time>2018-07-03T08:34:24Z</time>
      </trkpt>
      <trkpt lat="45.92638" lon="4.73676">
        <ele>173</ele>
        <time>2018-07-03T08:34:25Z</time>
      </trkpt>
      <trkpt lat="45.92641" lon="4.73682">
        <ele>173</ele>
        <time>2018-07-03T08:34:26Z</time>
      </trkpt>
      <trkpt lat="45.92645" lon="4.73688">
        <ele>173</ele>
        <time>2018-07-03T08:34:27Z</time>
      </trkpt>
      <trkpt lat="45.9265" lon="4.73692">
        <ele>173</ele>
        <time>2018-07-03T08:34:28Z</time>
      </trkpt>
      <trkpt lat="45.92655" lon="4.73695">
        <ele>173</ele>
        <time>2018-07-03T08:34:29Z</time>
      </trkpt>
      <trkpt lat="45.92658" lon="4.73701">
        <ele>173</ele>
        <time>2018-07-03T08:34:30Z</time>
      </trkpt>
      <trkpt lat="45.92662" lon="4.73702">
        <ele>173</ele>
        <time>2018-07-03T08:34:31Z</time>
      </trkpt>
      <trkpt lat="45.92668" lon="4.73704">
        <ele>174</ele>
        <time>2018-07-03T08:34:32Z</time>
      </trkpt>
      <trkpt lat="45.92672" lon="4.73707">
        <ele>174</ele>
        <time>2018-07-03T08:34:33Z</time>
      </trkpt>
      <trkpt lat="45.92678" lon="4.73707">
        <ele>173</ele>
        <time>2018-07-03T08:34:34Z</time>
      </trkpt>
      <trkpt lat="45.92684" lon="4.73708">
        <ele>173</ele>
        <time>2018-07-03T08:34:35Z</time>
      </trkpt>
      <trkpt lat="45.92689" lon="4.7371">
        <ele>173</ele>
        <time>2018-07-03T08:34:36Z</time>
      </trkpt>
      <trkpt lat="45.92693" lon="4.7371">
        <ele>173</ele>
        <time>2018-07-03T08:34:37Z</time>
      </trkpt>
      <trkpt lat="45.92699" lon="4.7371">
        <ele>173</ele>
        <time>2018-07-03T08:34:38Z</time>
      </trkpt>
      <trkpt lat="45.92706" lon="4.73712">
        <ele>173</ele>
        <time>2018-07-03T08:34:39Z</time>
      </trkpt>
      <trkpt lat="45.92711" lon="4.73714">
        <ele>173</ele>
        <time>2018-07-03T08:34:40Z</time>
      </trkpt>
      <trkpt lat="45.92717" lon="4.73718">
        <ele>173</ele>
        <time>2018-07-03T08:34:42Z</time>
      </trkpt>
      <trkpt lat="45.92723" lon="4.73719">
        <ele>173</ele>
        <time>2018-07-03T08:34:43Z</time>
      </trkpt>
      <trkpt lat="45.92728" lon="4.7372">
        <ele>173</ele>
        <time>2018-07-03T08:34:44Z</time>
      </trkpt>
      <trkpt lat="45.92733" lon="4.73719">
        <ele>173</ele>
        <time>2018-07-03T08:34:45Z</time>
      </trkpt>
      <trkpt lat="45.92738" lon="4.7372">
        <ele>173</ele>
        <time>2018-07-03T08:34:46Z</time>
      </trkpt>
      <trkpt lat="45.92747" lon="4.73719">
        <ele>173</ele>
        <time>2018-07-03T08:34:47Z</time>
      </trkpt>
      <trkpt lat="45.92751" lon="4.7373">
        <ele>172</ele>
        <time>2018-07-03T08:34:50Z</time>
      </trkpt>
      <trkpt lat="45.92756" lon="4.73733">
        <ele>172</ele>
        <time>2018-07-03T08:34:51Z</time>
      </trkpt>
      <trkpt lat="45.92762" lon="4.73731">
        <ele>172</ele>
        <time>2018-07-03T08:34:52Z</time>
      </trkpt>
      <trkpt lat="45.92766" lon="4.73733">
        <ele>172</ele>
        <time>2018-07-03T08:34:53Z</time>
      </trkpt>
      <trkpt lat="45.92767" lon="4.73735">
        <ele>172</ele>
        <time>2018-07-03T08:34:54Z</time>
      </trkpt>
      <trkpt lat="45.92774" lon="4.73741">
        <ele>172</ele>
        <time>2018-07-03T08:34:55Z</time>
      </trkpt>
      <trkpt lat="45.9278" lon="4.7375">
        <ele>172</ele>
        <time>2018-07-03T08:34:58Z</time>
      </trkpt>
      <trkpt lat="45.92782" lon="4.73753">
        <ele>173</ele>
        <time>2018-07-03T08:34:59Z</time>
      </trkpt>
      <trkpt lat="45.92788" lon="4.73757">
        <ele>173</ele>
        <time>2018-07-03T08:35:00Z</time>
      </trkpt>
      <trkpt lat="45.92793" lon="4.7376">
        <ele>173</ele>
        <time>2018-07-03T08:35:01Z</time>
      </trkpt>
      <trkpt lat="45.92797" lon="4.73762">
        <ele>173</ele>
        <time>2018-07-03T08:35:02Z</time>
      </trkpt>
      <trkpt lat="45.92802" lon="4.73763">
        <ele>173</ele>
        <time>2018-07-03T08:35:03Z</time>
      </trkpt>
      <trkpt lat="45.92806" lon="4.73766">
        <ele>173</ele>
        <time>2018-07-03T08:35:04Z</time>
      </trkpt>
      <trkpt lat="45.92811" lon="4.73769">
        <ele>173</ele>
        <time>2018-07-03T08:35:05Z</time>
      </trkpt>
      <trkpt lat="45.92817" lon="4.73773">
        <ele>173</ele>
        <time>2018-07-03T08:35:06Z</time>
      </trkpt>
      <trkpt lat="45.92822" lon="4.73777">
        <ele>173</ele>
        <time>2018-07-03T08:35:07Z</time>
      </trkpt>
      <trkpt lat="45.92827" lon="4.73781">
        <ele>173</ele>
        <time>2018-07-03T08:35:08Z</time>
      </trkpt>
      <trkpt lat="45.92832" lon="4.73785">
        <ele>173</ele>
        <time>2018-07-03T08:35:09Z</time>
      </trkpt>
      <trkpt lat="45.92838" lon="4.73787">
        <ele>173</ele>
        <time>2018-07-03T08:35:10Z</time>
      </trkpt>
      <trkpt lat="45.92844" lon="4.7379">
        <ele>173</ele>
        <time>2018-07-03T08:35:11Z</time>
      </trkpt>
      <trkpt lat="45.92848" lon="4.73793">
        <ele>173</ele>
        <time>2018-07-03T08:35:12Z</time>
      </trkpt>
      <trkpt lat="45.92853" lon="4.73798">
        <ele>173</ele>
        <time>2018-07-03T08:35:13Z</time>
      </trkpt>
      <trkpt lat="45.92859" lon="4.73803">
        <ele>173</ele>
        <time>2018-07-03T08:35:14Z</time>
      </trkpt>
      <trkpt lat="45.92858" lon="4.73813">
        <ele>173</ele>
        <time>2018-07-03T08:35:15Z</time>
      </trkpt>
      <trkpt lat="45.92859" lon="4.73821">
        <ele>173</ele>
        <time>2018-07-03T08:35:16Z</time>
      </trkpt>
      <trkpt lat="45.92861" lon="4.7383">
        <ele>173</ele>
        <time>2018-07-03T08:35:17Z</time>
      </trkpt>
      <trkpt lat="45.92864" lon="4.73838">
        <ele>173</ele>
        <time>2018-07-03T08:35:18Z</time>
      </trkpt>
      <trkpt lat="45.92867" lon="4.73848">
        <ele>173</ele>
        <time>2018-07-03T08:35:19Z</time>
      </trkpt>
      <trkpt lat="45.92869" lon="4.73855">
        <ele>173</ele>
        <time>2018-07-03T08:35:20Z</time>
      </trkpt>
      <trkpt lat="45.9287" lon="4.73863">
        <ele>173</ele>
        <time>2018-07-03T08:35:21Z</time>
      </trkpt>
      <trkpt lat="45.92872" lon="4.73873">
        <ele>173</ele>
        <time>2018-07-03T08:35:22Z</time>
      </trkpt>
      <trkpt lat="45.92874" lon="4.73883">
        <ele>173</ele>
        <time>2018-07-03T08:35:23Z</time>
      </trkpt>
      <trkpt lat="45.92877" lon="4.73891">
        <ele>173</ele>
        <time>2018-07-03T08:35:24Z</time>
      </trkpt>
      <trkpt lat="45.92878" lon="4.73897">
        <ele>173</ele>
        <time>2018-07-03T08:35:25Z</time>
      </trkpt>
      <trkpt lat="45.92877" lon="4.73903">
        <ele>173</ele>
        <time>2018-07-03T08:35:26Z</time>
      </trkpt>
      <trkpt lat="45.9288" lon="4.73913">
        <ele>173</ele>
        <time>2018-07-03T08:35:27Z</time>
      </trkpt>
      <trkpt lat="45.92881" lon="4.73921">
        <ele>172</ele>
        <time>2018-07-03T08:35:28Z</time>
      </trkpt>
      <trkpt lat="45.92881" lon="4.73929">
        <ele>172</ele>
        <time>2018-07-03T08:35:29Z</time>
      </trkpt>
      <trkpt lat="45.92883" lon="4.73939">
        <ele>172</ele>
        <time>2018-07-03T08:35:30Z</time>
      </trkpt>
      <trkpt lat="45.92883" lon="4.73945">
        <ele>172</ele>
        <time>2018-07-03T08:35:31Z</time>
      </trkpt>
      <trkpt lat="45.92883" lon="4.73955">
        <ele>172</ele>
        <time>2018-07-03T08:35:32Z</time>
      </trkpt>
      <trkpt lat="45.92883" lon="4.73961">
        <ele>172</ele>
        <time>2018-07-03T08:35:33Z</time>
      </trkpt>
      <trkpt lat="45.92883" lon="4.73968">
        <ele>172</ele>
        <time>2018-07-03T08:35:34Z</time>
      </trkpt>
      <trkpt lat="45.92882" lon="4.73975">
        <ele>172</ele>
        <time>2018-07-03T08:35:35Z</time>
      </trkpt>
      <trkpt lat="45.92882" lon="4.73983">
        <ele>172</ele>
        <time>2018-07-03T08:35:36Z</time>
      </trkpt>
      <trkpt lat="45.9288" lon="4.73989">
        <ele>172</ele>
        <time>2018-07-03T08:35:37Z</time>
      </trkpt>
      <trkpt lat="45.92878" lon="4.73996">
        <ele>172</ele>
        <time>2018-07-03T08:35:38Z</time>
      </trkpt>
      <trkpt lat="45.92877" lon="4.74004">
        <ele>172</ele>
        <time>2018-07-03T08:35:39Z</time>
      </trkpt>
      <trkpt lat="45.92876" lon="4.7401">
        <ele>172</ele>
        <time>2018-07-03T08:35:40Z</time>
      </trkpt>
      <trkpt lat="45.92875" lon="4.74018">
        <ele>172</ele>
        <time>2018-07-03T08:35:41Z</time>
      </trkpt>
      <trkpt lat="45.92874" lon="4.74024">
        <ele>172</ele>
        <time>2018-07-03T08:35:42Z</time>
      </trkpt>
      <trkpt lat="45.92872" lon="4.74032">
        <ele>172</ele>
        <time>2018-07-03T08:35:43Z</time>
      </trkpt>
      <trkpt lat="45.92871" lon="4.74038">
        <ele>172</ele>
        <time>2018-07-03T08:35:44Z</time>
      </trkpt>
      <trkpt lat="45.92868" lon="4.74045">
        <ele>172</ele>
        <time>2018-07-03T08:35:45Z</time>
      </trkpt>
      <trkpt lat="45.92864" lon="4.74051">
        <ele>172</ele>
        <time>2018-07-03T08:35:46Z</time>
      </trkpt>
      <trkpt lat="45.9286" lon="4.74056">
        <ele>172</ele>
        <time>2018-07-03T08:35:47Z</time>
      </trkpt>
      <trkpt lat="45.92856" lon="4.74059">
        <ele>172</ele>
        <time>2018-07-03T08:35:48Z</time>
      </trkpt>
      <trkpt lat="45.92852" lon="4.74064">
        <ele>172</ele>
        <time>2018-07-03T08:35:49Z</time>
      </trkpt>
      <trkpt lat="45.92847" lon="4.74068">
        <ele>172</ele>
        <time>2018-07-03T08:35:50Z</time>
      </trkpt>
      <trkpt lat="45.92842" lon="4.74073">
        <ele>172</ele>
        <time>2018-07-03T08:35:51Z</time>
      </trkpt>
      <trkpt lat="45.92838" lon="4.74077">
        <ele>171</ele>
        <time>2018-07-03T08:35:52Z</time>
      </trkpt>
      <trkpt lat="45.92834" lon="4.74083">
        <ele>171</ele>
        <time>2018-07-03T08:35:53Z</time>
      </trkpt>
      <trkpt lat="45.9283" lon="4.74087">
        <ele>171</ele>
        <time>2018-07-03T08:35:54Z</time>
      </trkpt>
      <trkpt lat="45.92826" lon="4.74093">
        <ele>171</ele>
        <time>2018-07-03T08:35:55Z</time>
      </trkpt>
      <trkpt lat="45.92822" lon="4.74097">
        <ele>171</ele>
        <time>2018-07-03T08:35:56Z</time>
      </trkpt>
      <trkpt lat="45.92817" lon="4.741">
        <ele>171</ele>
        <time>2018-07-03T08:35:57Z</time>
      </trkpt>
      <trkpt lat="45.92813" lon="4.74104">
        <ele>172</ele>
        <time>2018-07-03T08:35:58Z</time>
      </trkpt>
      <trkpt lat="45.92809" lon="4.74109">
        <ele>172</ele>
        <time>2018-07-03T08:35:59Z</time>
      </trkpt>
      <trkpt lat="45.92804" lon="4.74116">
        <ele>172</ele>
        <time>2018-07-03T08:36:00Z</time>
      </trkpt>
      <trkpt lat="45.92799" lon="4.74122">
        <ele>172</ele>
        <time>2018-07-03T08:36:01Z</time>
      </trkpt>
      <trkpt lat="45.92795" lon="4.74126">
        <ele>172</ele>
        <time>2018-07-03T08:36:02Z</time>
      </trkpt>
      <trkpt lat="45.92791" lon="4.74132">
        <ele>172</ele>
        <time>2018-07-03T08:36:03Z</time>
      </trkpt>
      <trkpt lat="45.92786" lon="4.74136">
        <ele>172</ele>
        <time>2018-07-03T08:36:04Z</time>
      </trkpt>
      <trkpt lat="45.92781" lon="4.7414">
        <ele>172</ele>
        <time>2018-07-03T08:36:05Z</time>
      </trkpt>
      <trkpt lat="45.92777" lon="4.74146">
        <ele>172</ele>
        <time>2018-07-03T08:36:06Z</time>
      </trkpt>
      <trkpt lat="45.92773" lon="4.74151">
        <ele>172</ele>
        <time>2018-07-03T08:36:07Z</time>
      </trkpt>
      <trkpt lat="45.92769" lon="4.74156">
        <ele>172</ele>
        <time>2018-07-03T08:36:08Z</time>
      </trkpt>
      <trkpt lat="45.92765" lon="4.74161">
        <ele>172</ele>
        <time>2018-07-03T08:36:09Z</time>
      </trkpt>
      <trkpt lat="45.92761" lon="4.74166">
        <ele>172</ele>
        <time>2018-07-03T08:36:10Z</time>
      </trkpt>
      <trkpt lat="45.92756" lon="4.74171">
        <ele>172</ele>
        <time>2018-07-03T08:36:11Z</time>
      </trkpt>
      <trkpt lat="45.92751" lon="4.74176">
        <ele>172</ele>
        <time>2018-07-03T08:36:12Z</time>
      </trkpt>
      <trkpt lat="45.92747" lon="4.74181">
        <ele>172</ele>
        <time>2018-07-03T08:36:13Z</time>
      </trkpt>
      <trkpt lat="45.92742" lon="4.74187">
        <ele>172</ele>
        <time>2018-07-03T08:36:14Z</time>
      </trkpt>
      <trkpt lat="45.92738" lon="4.74193">
        <ele>171</ele>
        <time>2018-07-03T08:36:15Z</time>
      </trkpt>
      <trkpt lat="45.92734" lon="4.74198">
        <ele>171</ele>
        <time>2018-07-03T08:36:16Z</time>
      </trkpt>
      <trkpt lat="45.9273" lon="4.74203">
        <ele>171</ele>
        <time>2018-07-03T08:36:17Z</time>
      </trkpt>
      <trkpt lat="45.92727" lon="4.7421">
        <ele>171</ele>
        <time>2018-07-03T08:36:18Z</time>
      </trkpt>
      <trkpt lat="45.92723" lon="4.74214">
        <ele>171</ele>
        <time>2018-07-03T08:36:19Z</time>
      </trkpt>
      <trkpt lat="45.92719" lon="4.74219">
        <ele>171</ele>
        <time>2018-07-03T08:36:20Z</time>
      </trkpt>
      <trkpt lat="45.92715" lon="4.74224">
        <ele>171</ele>
        <time>2018-07-03T08:36:21Z</time>
      </trkpt>
      <trkpt lat="45.92711" lon="4.74229">
        <ele>171</ele>
        <time>2018-07-03T08:36:22Z</time>
      </trkpt>
      <trkpt lat="45.92707" lon="4.74235">
        <ele>171</ele>
        <time>2018-07-03T08:36:23Z</time>
      </trkpt>
      <trkpt lat="45.92704" lon="4.74241">
        <ele>171</ele>
        <time>2018-07-03T08:36:24Z</time>
      </trkpt>
      <trkpt lat="45.927" lon="4.74248">
        <ele>171</ele>
        <time>2018-07-03T08:36:25Z</time>
      </trkpt>
      <trkpt lat="45.92695" lon="4.74253">
        <ele>171</ele>
        <time>2018-07-03T08:36:26Z</time>
      </trkpt>
      <trkpt lat="45.92691" lon="4.74262">
        <ele>171</ele>
        <time>2018-07-03T08:36:27Z</time>
      </trkpt>
      <trkpt lat="45.92686" lon="4.74268">
        <ele>171</ele>
        <time>2018-07-03T08:36:28Z</time>
      </trkpt>
      <trkpt lat="45.92683" lon="4.74273">
        <ele>171</ele>
        <time>2018-07-03T08:36:29Z</time>
      </trkpt>
      <trkpt lat="45.9268" lon="4.74279">
        <ele>171</ele>
        <time>2018-07-03T08:36:30Z</time>
      </trkpt>
      <trkpt lat="45.92677" lon="4.74285">
        <ele>171</ele>
        <time>2018-07-03T08:36:31Z</time>
      </trkpt>
      <trkpt lat="45.92673" lon="4.74291">
        <ele>171</ele>
        <time>2018-07-03T08:36:32Z</time>
      </trkpt>
      <trkpt lat="45.92669" lon="4.74299">
        <ele>171</ele>
        <time>2018-07-03T08:36:33Z</time>
      </trkpt>
      <trkpt lat="45.92663" lon="4.74306">
        <ele>171</ele>
        <time>2018-07-03T08:36:34Z</time>
      </trkpt>
      <trkpt lat="45.92659" lon="4.74313">
        <ele>171</ele>
        <time>2018-07-03T08:36:35Z</time>
      </trkpt>
      <trkpt lat="45.92655" lon="4.74319">
        <ele>171</ele>
        <time>2018-07-03T08:36:36Z</time>
      </trkpt>
      <trkpt lat="45.9265" lon="4.74325">
        <ele>171</ele>
        <time>2018-07-03T08:36:37Z</time>
      </trkpt>
      <trkpt lat="45.92646" lon="4.74333">
        <ele>171</ele>
        <time>2018-07-03T08:36:38Z</time>
      </trkpt>
      <trkpt lat="45.92643" lon="4.74341">
        <ele>171</ele>
        <time>2018-07-03T08:36:39Z</time>
      </trkpt>
      <trkpt lat="45.92642" lon="4.74349">
        <ele>171</ele>
        <time>2018-07-03T08:36:40Z</time>
      </trkpt>
      <trkpt lat="45.92639" lon="4.74355">
        <ele>171</ele>
        <time>2018-07-03T08:36:41Z</time>
      </trkpt>
      <trkpt lat="45.92636" lon="4.74361">
        <ele>171</ele>
        <time>2018-07-03T08:36:42Z</time>
      </trkpt>
      <trkpt lat="45.92632" lon="4.74367">
        <ele>171</ele>
        <time>2018-07-03T08:36:43Z</time>
      </trkpt>
      <trkpt lat="45.92629" lon="4.74374">
        <ele>171</ele>
        <time>2018-07-03T08:36:44Z</time>
      </trkpt>
      <trkpt lat="45.92624" lon="4.7438">
        <ele>170</ele>
        <time>2018-07-03T08:36:45Z</time>
      </trkpt>
      <trkpt lat="45.92621" lon="4.74385">
        <ele>170</ele>
        <time>2018-07-03T08:36:46Z</time>
      </trkpt>
      <trkpt lat="45.92618" lon="4.74392">
        <ele>170</ele>
        <time>2018-07-03T08:36:47Z</time>
      </trkpt>
      <trkpt lat="45.92614" lon="4.74399">
        <ele>170</ele>
        <time>2018-07-03T08:36:48Z</time>
      </trkpt>
      <trkpt lat="45.92609" lon="4.74409">
        <ele>170</ele>
        <time>2018-07-03T08:36:49Z</time>
      </trkpt>
      <trkpt lat="45.92606" lon="4.74417">
        <ele>170</ele>
        <time>2018-07-03T08:36:50Z</time>
      </trkpt>
      <trkpt lat="45.92602" lon="4.74423">
        <ele>170</ele>
        <time>2018-07-03T08:36:51Z</time>
      </trkpt>
      <trkpt lat="45.92597" lon="4.7443">
        <ele>170</ele>
        <time>2018-07-03T08:36:52Z</time>
      </trkpt>
      <trkpt lat="45.92594" lon="4.74436">
        <ele>170</ele>
        <time>2018-07-03T08:36:53Z</time>
      </trkpt>
      <trkpt lat="45.92589" lon="4.74443">
        <ele>170</ele>
        <time>2018-07-03T08:36:54Z</time>
      </trkpt>
      <trkpt lat="45.92586" lon="4.7445">
        <ele>170</ele>
        <time>2018-07-03T08:36:55Z</time>
      </trkpt>
      <trkpt lat="45.92582" lon="4.74457">
        <ele>170</ele>
        <time>2018-07-03T08:36:56Z</time>
      </trkpt>
      <trkpt lat="45.9258" lon="4.74462">
        <ele>170</ele>
        <time>2018-07-03T08:36:57Z</time>
      </trkpt>
      <trkpt lat="45.92577" lon="4.74468">
        <ele>170</ele>
        <time>2018-07-03T08:36:58Z</time>
      </trkpt>
      <trkpt lat="45.92574" lon="4.74474">
        <ele>170</ele>
        <time>2018-07-03T08:36:59Z</time>
      </trkpt>
      <trkpt lat="45.9257" lon="4.7448">
        <ele>170</ele>
        <time>2018-07-03T08:37:00Z</time>
      </trkpt>
      <trkpt lat="45.92568" lon="4.74485">
        <ele>170</ele>
        <time>2018-07-03T08:37:01Z</time>
      </trkpt>
      <trkpt lat="45.92565" lon="4.74492">
        <ele>170</ele>
        <time>2018-07-03T08:37:02Z</time>
      </trkpt>
      <trkpt lat="45.92562" lon="4.74497">
        <ele>170</ele>
        <time>2018-07-03T08:37:03Z</time>
      </trkpt>
      <trkpt lat="45.92558" lon="4.74504">
        <ele>170</ele>
        <time>2018-07-03T08:37:04Z</time>
      </trkpt>
      <trkpt lat="45.92555" lon="4.74509">
        <ele>170</ele>
        <time>2018-07-03T08:37:05Z</time>
      </trkpt>
      <trkpt lat="45.92551" lon="4.74517">
        <ele>170</ele>
        <time>2018-07-03T08:37:06Z</time>
      </trkpt>
      <trkpt lat="45.92547" lon="4.74525">
        <ele>170</ele>
        <time>2018-07-03T08:37:07Z</time>
      </trkpt>
      <trkpt lat="45.92543" lon="4.74531">
        <ele>170</ele>
        <time>2018-07-03T08:37:08Z</time>
      </trkpt>
      <trkpt lat="45.92539" lon="4.74538">
        <ele>171</ele>
        <time>2018-07-03T08:37:09Z</time>
      </trkpt>
      <trkpt lat="45.92535" lon="4.74544">
        <ele>171</ele>
        <time>2018-07-03T08:37:10Z</time>
      </trkpt>
      <trkpt lat="45.92531" lon="4.7455">
        <ele>171</ele>
        <time>2018-07-03T08:37:11Z</time>
      </trkpt>
      <trkpt lat="45.92527" lon="4.74556">
        <ele>171</ele>
        <time>2018-07-03T08:37:12Z</time>
      </trkpt>
      <trkpt lat="45.92522" lon="4.74563">
        <ele>171</ele>
        <time>2018-07-03T08:37:13Z</time>
      </trkpt>
      <trkpt lat="45.92518" lon="4.74568">
        <ele>171</ele>
        <time>2018-07-03T08:37:14Z</time>
      </trkpt>
      <trkpt lat="45.92512" lon="4.74571">
        <ele>171</ele>
        <time>2018-07-03T08:37:15Z</time>
      </trkpt>
      <trkpt lat="45.92508" lon="4.74576">
        <ele>171</ele>
        <time>2018-07-03T08:37:16Z</time>
      </trkpt>
      <trkpt lat="45.92502" lon="4.74582">
        <ele>171</ele>
        <time>2018-07-03T08:37:17Z</time>
      </trkpt>
      <trkpt lat="45.92497" lon="4.74587">
        <ele>171</ele>
        <time>2018-07-03T08:37:18Z</time>
      </trkpt>
      <trkpt lat="45.92492" lon="4.74595">
        <ele>171</ele>
        <time>2018-07-03T08:37:19Z</time>
      </trkpt>
      <trkpt lat="45.92488" lon="4.746">
        <ele>171</ele>
        <time>2018-07-03T08:37:20Z</time>
      </trkpt>
      <trkpt lat="45.92484" lon="4.74606">
        <ele>171</ele>
        <time>2018-07-03T08:37:21Z</time>
      </trkpt>
      <trkpt lat="45.92479" lon="4.74612">
        <ele>171</ele>
        <time>2018-07-03T08:37:22Z</time>
      </trkpt>
      <trkpt lat="45.92475" lon="4.74619">
        <ele>171</ele>
        <time>2018-07-03T08:37:23Z</time>
      </trkpt>
      <trkpt lat="45.92471" lon="4.74625">
        <ele>171</ele>
        <time>2018-07-03T08:37:24Z</time>
      </trkpt>
      <trkpt lat="45.92467" lon="4.7463">
        <ele>171</ele>
        <time>2018-07-03T08:37:25Z</time>
      </trkpt>
      <trkpt lat="45.92463" lon="4.74636">
        <ele>171</ele>
        <time>2018-07-03T08:37:26Z</time>
      </trkpt>
      <trkpt lat="45.9246" lon="4.74642">
        <ele>171</ele>
        <time>2018-07-03T08:37:27Z</time>
      </trkpt>
      <trkpt lat="45.92457" lon="4.74648">
        <ele>171</ele>
        <time>2018-07-03T08:37:28Z</time>
      </trkpt>
      <trkpt lat="45.92453" lon="4.74655">
        <ele>171</ele>
        <time>2018-07-03T08:37:29Z</time>
      </trkpt>
      <trkpt lat="45.9245" lon="4.7466">
        <ele>171</ele>
        <time>2018-07-03T08:37:30Z</time>
      </trkpt>
      <trkpt lat="45.92447" lon="4.74666">
        <ele>171</ele>
        <time>2018-07-03T08:37:31Z</time>
      </trkpt>
      <trkpt lat="45.92443" lon="4.74673">
        <ele>171</ele>
        <time>2018-07-03T08:37:32Z</time>
      </trkpt>
      <trkpt lat="45.92441" lon="4.74681">
        <ele>171</ele>
        <time>2018-07-03T08:37:33Z</time>
      </trkpt>
      <trkpt lat="45.92437" lon="4.74688">
        <ele>171</ele>
        <time>2018-07-03T08:37:34Z</time>
      </trkpt>
      <trkpt lat="45.92432" lon="4.74695">
        <ele>171</ele>
        <time>2018-07-03T08:37:35Z</time>
      </trkpt>
      <trkpt lat="45.9243" lon="4.74704">
        <ele>171</ele>
        <time>2018-07-03T08:37:36Z</time>
      </trkpt>
      <trkpt lat="45.92427" lon="4.74711">
        <ele>171</ele>
        <time>2018-07-03T08:37:37Z</time>
      </trkpt>
      <trkpt lat="45.92425" lon="4.7472">
        <ele>171</ele>
        <time>2018-07-03T08:37:38Z</time>
      </trkpt>
      <trkpt lat="45.92422" lon="4.74727">
        <ele>171</ele>
        <time>2018-07-03T08:37:39Z</time>
      </trkpt>
      <trkpt lat="45.92419" lon="4.74734">
        <ele>171</ele>
        <time>2018-07-03T08:37:40Z</time>
      </trkpt>
      <trkpt lat="45.92418" lon="4.74742">
        <ele>172</ele>
        <time>2018-07-03T08:37:41Z</time>
      </trkpt>
      <trkpt lat="45.92415" lon="4.74748">
        <ele>172</ele>
        <time>2018-07-03T08:37:42Z</time>
      </trkpt>
      <trkpt lat="45.92412" lon="4.74755">
        <ele>172</ele>
        <time>2018-07-03T08:37:43Z</time>
      </trkpt>
      <trkpt lat="45.92409" lon="4.74763">
        <ele>172</ele>
        <time>2018-07-03T08:37:44Z</time>
      </trkpt>
      <trkpt lat="45.92408" lon="4.74772">
        <ele>171</ele>
        <time>2018-07-03T08:37:45Z</time>
      </trkpt>
      <trkpt lat="45.92406" lon="4.74779">
        <ele>171</ele>
        <time>2018-07-03T08:37:46Z</time>
      </trkpt>
      <trkpt lat="45.92405" lon="4.74788">
        <ele>171</ele>
        <time>2018-07-03T08:37:47Z</time>
      </trkpt>
      <trkpt lat="45.92403" lon="4.74797">
        <ele>171</ele>
        <time>2018-07-03T08:37:48Z</time>
      </trkpt>
      <trkpt lat="45.92401" lon="4.74806">
        <ele>171</ele>
        <time>2018-07-03T08:37:49Z</time>
      </trkpt>
      <trkpt lat="45.92399" lon="4.74814">
        <ele>171</ele>
        <time>2018-07-03T08:37:50Z</time>
      </trkpt>
      <trkpt lat="45.92397" lon="4.74821">
        <ele>171</ele>
        <time>2018-07-03T08:37:51Z</time>
      </trkpt>
      <trkpt lat="45.92396" lon="4.7483">
        <ele>171</ele>
        <time>2018-07-03T08:37:52Z</time>
      </trkpt>
      <trkpt lat="45.92394" lon="4.74838">
        <ele>171</ele>
        <time>2018-07-03T08:37:53Z</time>
      </trkpt>
      <trkpt lat="45.92391" lon="4.74846">
        <ele>171</ele>
        <time>2018-07-03T08:37:54Z</time>
      </trkpt>
      <trkpt lat="45.92389" lon="4.74856">
        <ele>171</ele>
        <time>2018-07-03T08:37:55Z</time>
      </trkpt>
      <trkpt lat="45.92387" lon="4.74865">
        <ele>171</ele>
        <time>2018-07-03T08:37:56Z</time>
      </trkpt>
      <trkpt lat="45.92385" lon="4.74874">
        <ele>171</ele>
        <time>2018-07-03T08:37:57Z</time>
      </trkpt>
      <trkpt lat="45.92382" lon="4.74881">
        <ele>171</ele>
        <time>2018-07-03T08:37:58Z</time>
      </trkpt>
      <trkpt lat="45.92379" lon="4.74889">
        <ele>171</ele>
        <time>2018-07-03T08:37:59Z</time>
      </trkpt>
      <trkpt lat="45.92377" lon="4.74897">
        <ele>171</ele>
        <time>2018-07-03T08:38:00Z</time>
      </trkpt>
      <trkpt lat="45.92373" lon="4.74904">
        <ele>171</ele>
        <time>2018-07-03T08:38:01Z</time>
      </trkpt>
      <trkpt lat="45.92371" lon="4.74912">
        <ele>171</ele>
        <time>2018-07-03T08:38:02Z</time>
      </trkpt>
      <trkpt lat="45.92369" lon="4.74919">
        <ele>170</ele>
        <time>2018-07-03T08:38:03Z</time>
      </trkpt>
      <trkpt lat="45.92366" lon="4.74925">
        <ele>170</ele>
        <time>2018-07-03T08:38:04Z</time>
      </trkpt>
      <trkpt lat="45.92363" lon="4.74932">
        <ele>170</ele>
        <time>2018-07-03T08:38:05Z</time>
      </trkpt>
      <trkpt lat="45.9236" lon="4.7494">
        <ele>170</ele>
        <time>2018-07-03T08:38:06Z</time>
      </trkpt>
      <trkpt lat="45.92358" lon="4.74948">
        <ele>170</ele>
        <time>2018-07-03T08:38:07Z</time>
      </trkpt>
      <trkpt lat="45.92354" lon="4.74955">
        <ele>170</ele>
        <time>2018-07-03T08:38:08Z</time>
      </trkpt>
      <trkpt lat="45.92351" lon="4.74962">
        <ele>170</ele>
        <time>2018-07-03T08:38:09Z</time>
      </trkpt>
      <trkpt lat="45.92348" lon="4.7497">
        <ele>170</ele>
        <time>2018-07-03T08:38:10Z</time>
      </trkpt>
      <trkpt lat="45.92345" lon="4.74976">
        <ele>170</ele>
        <time>2018-07-03T08:38:11Z</time>
      </trkpt>
      <trkpt lat="45.92342" lon="4.74984">
        <ele>170</ele>
        <time>2018-07-03T08:38:12Z</time>
      </trkpt>
      <trkpt lat="45.92339" lon="4.74992">
        <ele>170</ele>
        <time>2018-07-03T08:38:13Z</time>
      </trkpt>
      <trkpt lat="45.92336" lon="4.74999">
        <ele>170</ele>
        <time>2018-07-03T08:38:14Z</time>
      </trkpt>
      <trkpt lat="45.92335" lon="4.75007">
        <ele>170</ele>
        <time>2018-07-03T08:38:15Z</time>
      </trkpt>
      <trkpt lat="45.92331" lon="4.75012">
        <ele>171</ele>
        <time>2018-07-03T08:38:16Z</time>
      </trkpt>
      <trkpt lat="45.92327" lon="4.75018">
        <ele>171</ele>
        <time>2018-07-03T08:38:17Z</time>
      </trkpt>
      <trkpt lat="45.92323" lon="4.75024">
        <ele>171</ele>
        <time>2018-07-03T08:38:18Z</time>
      </trkpt>
      <trkpt lat="45.9232" lon="4.75031">
        <ele>171</ele>
        <time>2018-07-03T08:38:19Z</time>
      </trkpt>
      <trkpt lat="45.92316" lon="4.75037">
        <ele>171</ele>
        <time>2018-07-03T08:38:20Z</time>
      </trkpt>
      <trkpt lat="45.92312" lon="4.75044">
        <ele>172</ele>
        <time>2018-07-03T08:38:21Z</time>
      </trkpt>
      <trkpt lat="45.92308" lon="4.75051">
        <ele>172</ele>
        <time>2018-07-03T08:38:22Z</time>
      </trkpt>
      <trkpt lat="45.92305" lon="4.75056">
        <ele>172</ele>
        <time>2018-07-03T08:38:23Z</time>
      </trkpt>
      <trkpt lat="45.923" lon="4.75061">
        <ele>172</ele>
        <time>2018-07-03T08:38:24Z</time>
      </trkpt>
      <trkpt lat="45.92297" lon="4.75069">
        <ele>172</ele>
        <time>2018-07-03T08:38:25Z</time>
      </trkpt>
      <trkpt lat="45.92292" lon="4.75074">
        <ele>172</ele>
        <time>2018-07-03T08:38:26Z</time>
      </trkpt>
      <trkpt lat="45.92287" lon="4.75078">
        <ele>172</ele>
        <time>2018-07-03T08:38:27Z</time>
      </trkpt>
      <trkpt lat="45.92281" lon="4.75084">
        <ele>173</ele>
        <time>2018-07-03T08:38:28Z</time>
      </trkpt>
      <trkpt lat="45.92276" lon="4.7509">
        <ele>173</ele>
        <time>2018-07-03T08:38:29Z</time>
      </trkpt>
      <trkpt lat="45.9227" lon="4.75094">
        <ele>173</ele>
        <time>2018-07-03T08:38:30Z</time>
      </trkpt>
      <trkpt lat="45.92266" lon="4.75101">
        <ele>173</ele>
        <time>2018-07-03T08:38:31Z</time>
      </trkpt>
      <trkpt lat="45.92261" lon="4.75108">
        <ele>174</ele>
        <time>2018-07-03T08:38:32Z</time>
      </trkpt>
      <trkpt lat="45.92256" lon="4.75113">
        <ele>174</ele>
        <time>2018-07-03T08:38:33Z</time>
      </trkpt>
      <trkpt lat="45.92251" lon="4.7512">
        <ele>174</ele>
        <time>2018-07-03T08:38:34Z</time>
      </trkpt>
      <trkpt lat="45.92247" lon="4.75126">
        <ele>174</ele>
        <time>2018-07-03T08:38:35Z</time>
      </trkpt>
      <trkpt lat="45.92243" lon="4.75133">
        <ele>174</ele>
        <time>2018-07-03T08:38:36Z</time>
      </trkpt>
      <trkpt lat="45.92238" lon="4.75138">
        <ele>174</ele>
        <time>2018-07-03T08:38:37Z</time>
      </trkpt>
      <trkpt lat="45.92234" lon="4.75145">
        <ele>174</ele>
        <time>2018-07-03T08:38:38Z</time>
      </trkpt>
      <trkpt lat="45.9223" lon="4.75151">
        <ele>174</ele>
        <time>2018-07-03T08:38:39Z</time>
      </trkpt>
      <trkpt lat="45.92226" lon="4.75159">
        <ele>174</ele>
        <time>2018-07-03T08:38:40Z</time>
      </trkpt>
      <trkpt lat="45.92223" lon="4.75167">
        <ele>175</ele>
        <time>2018-07-03T08:38:41Z</time>
      </trkpt>
      <trkpt lat="45.9222" lon="4.75175">
        <ele>175</ele>
        <time>2018-07-03T08:38:42Z</time>
      </trkpt>
      <trkpt lat="45.92218" lon="4.75182">
        <ele>175</ele>
        <time>2018-07-03T08:38:43Z</time>
      </trkpt>
      <trkpt lat="45.92216" lon="4.7519">
        <ele>175</ele>
        <time>2018-07-03T08:38:44Z</time>
      </trkpt>
      <trkpt lat="45.92214" lon="4.75197">
        <ele>175</ele>
        <time>2018-07-03T08:38:45Z</time>
      </trkpt>
      <trkpt lat="45.92213" lon="4.75205">
        <ele>175</ele>
        <time>2018-07-03T08:38:46Z</time>
      </trkpt>
      <trkpt lat="45.92212" lon="4.75214">
        <ele>175</ele>
        <time>2018-07-03T08:38:47Z</time>
      </trkpt>
      <trkpt lat="45.92212" lon="4.75224">
        <ele>175</ele>
        <time>2018-07-03T08:38:48Z</time>
      </trkpt>
      <trkpt lat="45.92211" lon="4.75231">
        <ele>175</ele>
        <time>2018-07-03T08:38:49Z</time>
      </trkpt>
      <trkpt lat="45.9221" lon="4.7524">
        <ele>175</ele>
        <time>2018-07-03T08:38:50Z</time>
      </trkpt>
      <trkpt lat="45.9221" lon="4.75248">
        <ele>175</ele>
        <time>2018-07-03T08:38:51Z</time>
      </trkpt>
      <trkpt lat="45.9221" lon="4.75257">
        <ele>175</ele>
        <time>2018-07-03T08:38:52Z</time>
      </trkpt>
      <trkpt lat="45.9221" lon="4.75265">
        <ele>176</ele>
        <time>2018-07-03T08:38:53Z</time>
      </trkpt>
      <trkpt lat="45.92207" lon="4.75272">
        <ele>176</ele>
        <time>2018-07-03T08:38:54Z</time>
      </trkpt>
      <trkpt lat="45.92207" lon="4.75282">
        <ele>176</ele>
        <time>2018-07-03T08:38:55Z</time>
      </trkpt>
      <trkpt lat="45.92206" lon="4.7529">
        <ele>176</ele>
        <time>2018-07-03T08:38:56Z</time>
      </trkpt>
      <trkpt lat="45.92204" lon="4.753">
        <ele>176</ele>
        <time>2018-07-03T08:38:57Z</time>
      </trkpt>
      <trkpt lat="45.92203" lon="4.75311">
        <ele>176</ele>
        <time>2018-07-03T08:38:59Z</time>
      </trkpt>
      <trkpt lat="45.92203" lon="4.7532">
        <ele>176</ele>
        <time>2018-07-03T08:39:00Z</time>
      </trkpt>
      <trkpt lat="45.92201" lon="4.75329">
        <ele>176</ele>
        <time>2018-07-03T08:39:01Z</time>
      </trkpt>
      <trkpt lat="45.92201" lon="4.75337">
        <ele>177</ele>
        <time>2018-07-03T08:39:02Z</time>
      </trkpt>
      <trkpt lat="45.922" lon="4.75342">
        <ele>177</ele>
        <time>2018-07-03T08:39:03Z</time>
      </trkpt>
      <trkpt lat="45.92196" lon="4.7535">
        <ele>177</ele>
        <time>2018-07-03T08:39:04Z</time>
      </trkpt>
      <trkpt lat="45.92194" lon="4.75356">
        <ele>177</ele>
        <time>2018-07-03T08:39:05Z</time>
      </trkpt>
      <trkpt lat="45.92193" lon="4.75362">
        <ele>177</ele>
        <time>2018-07-03T08:39:06Z</time>
      </trkpt>
      <trkpt lat="45.92193" lon="4.75365">
        <ele>177</ele>
        <time>2018-07-03T08:39:07Z</time>
      </trkpt>
      <trkpt lat="45.9219" lon="4.75376">
        <ele>177</ele>
        <time>2018-07-03T08:39:08Z</time>
      </trkpt>
      <trkpt lat="45.92188" lon="4.75384">
        <ele>177</ele>
        <time>2018-07-03T08:39:09Z</time>
      </trkpt>
      <trkpt lat="45.92185" lon="4.75388">
        <ele>177</ele>
        <time>2018-07-03T08:39:10Z</time>
      </trkpt>
      <trkpt lat="45.92183" lon="4.75397">
        <ele>177</ele>
        <time>2018-07-03T08:39:11Z</time>
      </trkpt>
      <trkpt lat="45.92181" lon="4.75403">
        <ele>177</ele>
        <time>2018-07-03T08:39:12Z</time>
      </trkpt>
      <trkpt lat="45.92178" lon="4.7541">
        <ele>177</ele>
        <time>2018-07-03T08:39:13Z</time>
      </trkpt>
      <trkpt lat="45.92174" lon="4.75417">
        <ele>177</ele>
        <time>2018-07-03T08:39:14Z</time>
      </trkpt>
      <trkpt lat="45.92171" lon="4.75425">
        <ele>177</ele>
        <time>2018-07-03T08:39:15Z</time>
      </trkpt>
      <trkpt lat="45.92168" lon="4.75432">
        <ele>177</ele>
        <time>2018-07-03T08:39:16Z</time>
      </trkpt>
      <trkpt lat="45.92165" lon="4.75439">
        <ele>177</ele>
        <time>2018-07-03T08:39:17Z</time>
      </trkpt>
      <trkpt lat="45.92161" lon="4.75445">
        <ele>177</ele>
        <time>2018-07-03T08:39:18Z</time>
      </trkpt>
      <trkpt lat="45.92158" lon="4.75452">
        <ele>176</ele>
        <time>2018-07-03T08:39:19Z</time>
      </trkpt>
      <trkpt lat="45.92155" lon="4.75462">
        <ele>176</ele>
        <time>2018-07-03T08:39:20Z</time>
      </trkpt>
      <trkpt lat="45.92152" lon="4.75469">
        <ele>176</ele>
        <time>2018-07-03T08:39:21Z</time>
      </trkpt>
      <trkpt lat="45.92149" lon="4.75476">
        <ele>176</ele>
        <time>2018-07-03T08:39:22Z</time>
      </trkpt>
      <trkpt lat="45.92145" lon="4.75482">
        <ele>176</ele>
        <time>2018-07-03T08:39:23Z</time>
      </trkpt>
      <trkpt lat="45.92142" lon="4.7549">
        <ele>176</ele>
        <time>2018-07-03T08:39:24Z</time>
      </trkpt>
      <trkpt lat="45.92139" lon="4.75499">
        <ele>175</ele>
        <time>2018-07-03T08:39:25Z</time>
      </trkpt>
      <trkpt lat="45.92135" lon="4.75505">
        <ele>174</ele>
        <time>2018-07-03T08:39:26Z</time>
      </trkpt>
      <trkpt lat="45.92133" lon="4.75513">
        <ele>174</ele>
        <time>2018-07-03T08:39:27Z</time>
      </trkpt>
      <trkpt lat="45.9213" lon="4.75519">
        <ele>174</ele>
        <time>2018-07-03T08:39:28Z</time>
      </trkpt>
      <trkpt lat="45.92126" lon="4.75526">
        <ele>174</ele>
        <time>2018-07-03T08:39:29Z</time>
      </trkpt>
      <trkpt lat="45.92123" lon="4.75533">
        <ele>174</ele>
        <time>2018-07-03T08:39:30Z</time>
      </trkpt>
      <trkpt lat="45.9212" lon="4.75541">
        <ele>174</ele>
        <time>2018-07-03T08:39:31Z</time>
      </trkpt>
      <trkpt lat="45.92117" lon="4.75549">
        <ele>174</ele>
        <time>2018-07-03T08:39:32Z</time>
      </trkpt>
      <trkpt lat="45.92114" lon="4.75556">
        <ele>174</ele>
        <time>2018-07-03T08:39:33Z</time>
      </trkpt>
      <trkpt lat="45.92111" lon="4.75563">
        <ele>174</ele>
        <time>2018-07-03T08:39:34Z</time>
      </trkpt>
      <trkpt lat="45.92109" lon="4.7557">
        <ele>174</ele>
        <time>2018-07-03T08:39:35Z</time>
      </trkpt>
      <trkpt lat="45.9211" lon="4.7558">
        <ele>174</ele>
        <time>2018-07-03T08:39:36Z</time>
      </trkpt>
      <trkpt lat="45.92113" lon="4.75586">
        <ele>174</ele>
        <time>2018-07-03T08:39:37Z</time>
      </trkpt>
      <trkpt lat="45.92117" lon="4.75592">
        <ele>174</ele>
        <time>2018-07-03T08:39:38Z</time>
      </trkpt>
      <trkpt lat="45.92121" lon="4.75597">
        <ele>174</ele>
        <time>2018-07-03T08:39:39Z</time>
      </trkpt>
      <trkpt lat="45.92125" lon="4.75601">
        <ele>174</ele>
        <time>2018-07-03T08:39:40Z</time>
      </trkpt>
      <trkpt lat="45.9213" lon="4.75604">
        <ele>174</ele>
        <time>2018-07-03T08:39:41Z</time>
      </trkpt>
      <trkpt lat="45.92135" lon="4.75609">
        <ele>174</ele>
        <time>2018-07-03T08:39:42Z</time>
      </trkpt>
      <trkpt lat="45.92139" lon="4.75613">
        <ele>174</ele>
        <time>2018-07-03T08:39:43Z</time>
      </trkpt>
      <trkpt lat="45.92143" lon="4.75618">
        <ele>174</ele>
        <time>2018-07-03T08:39:44Z</time>
      </trkpt>
      <trkpt lat="45.92149" lon="4.75623">
        <ele>174</ele>
        <time>2018-07-03T08:39:45Z</time>
      </trkpt>
      <trkpt lat="45.92154" lon="4.75627">
        <ele>174</ele>
        <time>2018-07-03T08:39:46Z</time>
      </trkpt>
      <trkpt lat="45.92159" lon="4.75632">
        <ele>174</ele>
        <time>2018-07-03T08:39:47Z</time>
      </trkpt>
      <trkpt lat="45.92163" lon="4.75637">
        <ele>174</ele>
        <time>2018-07-03T08:39:48Z</time>
      </trkpt>
      <trkpt lat="45.92168" lon="4.75642">
        <ele>174</ele>
        <time>2018-07-03T08:39:49Z</time>
      </trkpt>
      <trkpt lat="45.92172" lon="4.75648">
        <ele>174</ele>
        <time>2018-07-03T08:39:50Z</time>
      </trkpt>
      <trkpt lat="45.92179" lon="4.75652">
        <ele>174</ele>
        <time>2018-07-03T08:39:51Z</time>
      </trkpt>
      <trkpt lat="45.92184" lon="4.75658">
        <ele>174</ele>
        <time>2018-07-03T08:39:52Z</time>
      </trkpt>
      <trkpt lat="45.92189" lon="4.75662">
        <ele>174</ele>
        <time>2018-07-03T08:39:53Z</time>
      </trkpt>
      <trkpt lat="45.92194" lon="4.75667">
        <ele>174</ele>
        <time>2018-07-03T08:39:54Z</time>
      </trkpt>
      <trkpt lat="45.92198" lon="4.75673">
        <ele>174</ele>
        <time>2018-07-03T08:39:55Z</time>
      </trkpt>
      <trkpt lat="45.92202" lon="4.75678">
        <ele>174</ele>
        <time>2018-07-03T08:39:56Z</time>
      </trkpt>
      <trkpt lat="45.92209" lon="4.75684">
        <ele>174</ele>
        <time>2018-07-03T08:39:58Z</time>
      </trkpt>
      <trkpt lat="45.92214" lon="4.75688">
        <ele>174</ele>
        <time>2018-07-03T08:39:59Z</time>
      </trkpt>
      <trkpt lat="45.92217" lon="4.75693">
        <ele>174</ele>
        <time>2018-07-03T08:40:00Z</time>
      </trkpt>
      <trkpt lat="45.92222" lon="4.75697">
        <ele>174</ele>
        <time>2018-07-03T08:40:01Z</time>
      </trkpt>
      <trkpt lat="45.92226" lon="4.75701">
        <ele>174</ele>
        <time>2018-07-03T08:40:02Z</time>
      </trkpt>
      <trkpt lat="45.92229" lon="4.75706">
        <ele>174</ele>
        <time>2018-07-03T08:40:03Z</time>
      </trkpt>
      <trkpt lat="45.92233" lon="4.75712">
        <ele>174</ele>
        <time>2018-07-03T08:40:04Z</time>
      </trkpt>
      <trkpt lat="45.92236" lon="4.75719">
        <ele>174</ele>
        <time>2018-07-03T08:40:05Z</time>
      </trkpt>
      <trkpt lat="45.92239" lon="4.75725">
        <ele>174</ele>
        <time>2018-07-03T08:40:06Z</time>
      </trkpt>
      <trkpt lat="45.92242" lon="4.75732">
        <ele>174</ele>
        <time>2018-07-03T08:40:07Z</time>
      </trkpt>
      <trkpt lat="45.92245" lon="4.7574">
        <ele>174</ele>
        <time>2018-07-03T08:40:08Z</time>
      </trkpt>
      <trkpt lat="45.92247" lon="4.75748">
        <ele>174</ele>
        <time>2018-07-03T08:40:09Z</time>
      </trkpt>
      <trkpt lat="45.92249" lon="4.75755">
        <ele>174</ele>
        <time>2018-07-03T08:40:10Z</time>
      </trkpt>
      <trkpt lat="45.9225" lon="4.75762">
        <ele>174</ele>
        <time>2018-07-03T08:40:11Z</time>
      </trkpt>
      <trkpt lat="45.92251" lon="4.75769">
        <ele>174</ele>
        <time>2018-07-03T08:40:12Z</time>
      </trkpt>
      <trkpt lat="45.9225" lon="4.75776">
        <ele>174</ele>
        <time>2018-07-03T08:40:13Z</time>
      </trkpt>
      <trkpt lat="45.92251" lon="4.75783">
        <ele>174</ele>
        <time>2018-07-03T08:40:14Z</time>
      </trkpt>
      <trkpt lat="45.92252" lon="4.75791">
        <ele>174</ele>
        <time>2018-07-03T08:40:15Z</time>
      </trkpt>
      <trkpt lat="45.92255" lon="4.75797">
        <ele>174</ele>
        <time>2018-07-03T08:40:16Z</time>
      </trkpt>
      <trkpt lat="45.92256" lon="4.75805">
        <ele>174</ele>
        <time>2018-07-03T08:40:17Z</time>
      </trkpt>
      <trkpt lat="45.92258" lon="4.75812">
        <ele>174</ele>
        <time>2018-07-03T08:40:18Z</time>
      </trkpt>
      <trkpt lat="45.92261" lon="4.75818">
        <ele>174</ele>
        <time>2018-07-03T08:40:19Z</time>
      </trkpt>
      <trkpt lat="45.92264" lon="4.75823">
        <ele>174</ele>
        <time>2018-07-03T08:40:20Z</time>
      </trkpt>
      <trkpt lat="45.92268" lon="4.75829">
        <ele>174</ele>
        <time>2018-07-03T08:40:21Z</time>
      </trkpt>
      <trkpt lat="45.92273" lon="4.75835">
        <ele>173</ele>
        <time>2018-07-03T08:40:22Z</time>
      </trkpt>
      <trkpt lat="45.92279" lon="4.75838">
        <ele>173</ele>
        <time>2018-07-03T08:40:23Z</time>
      </trkpt>
      <trkpt lat="45.92284" lon="4.7584">
        <ele>173</ele>
        <time>2018-07-03T08:40:24Z</time>
      </trkpt>
      <trkpt lat="45.92289" lon="4.75844">
        <ele>173</ele>
        <time>2018-07-03T08:40:25Z</time>
      </trkpt>
      <trkpt lat="45.92295" lon="4.75847">
        <ele>173</ele>
        <time>2018-07-03T08:40:26Z</time>
      </trkpt>
      <trkpt lat="45.92301" lon="4.75851">
        <ele>173</ele>
        <time>2018-07-03T08:40:27Z</time>
      </trkpt>
      <trkpt lat="45.92305" lon="4.75855">
        <ele>173</ele>
        <time>2018-07-03T08:40:28Z</time>
      </trkpt>
      <trkpt lat="45.92312" lon="4.75857">
        <ele>173</ele>
        <time>2018-07-03T08:40:29Z</time>
      </trkpt>
      <trkpt lat="45.92316" lon="4.75859">
        <ele>173</ele>
        <time>2018-07-03T08:40:30Z</time>
      </trkpt>
      <trkpt lat="45.92322" lon="4.75862">
        <ele>173</ele>
        <time>2018-07-03T08:40:31Z</time>
      </trkpt>
      <trkpt lat="45.92326" lon="4.75865">
        <ele>173</ele>
        <time>2018-07-03T08:40:32Z</time>
      </trkpt>
      <trkpt lat="45.92334" lon="4.75868">
        <ele>173</ele>
        <time>2018-07-03T08:40:33Z</time>
      </trkpt>
      <trkpt lat="45.9234" lon="4.75871">
        <ele>173</ele>
        <time>2018-07-03T08:40:34Z</time>
      </trkpt>
      <trkpt lat="45.92344" lon="4.75875">
        <ele>173</ele>
        <time>2018-07-03T08:40:35Z</time>
      </trkpt>
      <trkpt lat="45.92349" lon="4.75877">
        <ele>173</ele>
        <time>2018-07-03T08:40:36Z</time>
      </trkpt>
      <trkpt lat="45.92353" lon="4.75881">
        <ele>173</ele>
        <time>2018-07-03T08:40:37Z</time>
      </trkpt>
      <trkpt lat="45.92358" lon="4.75885">
        <ele>173</ele>
        <time>2018-07-03T08:40:38Z</time>
      </trkpt>
      <trkpt lat="45.92362" lon="4.75887">
        <ele>173</ele>
        <time>2018-07-03T08:40:39Z</time>
      </trkpt>
      <trkpt lat="45.92368" lon="4.75891">
        <ele>173</ele>
        <time>2018-07-03T08:40:40Z</time>
      </trkpt>
      <trkpt lat="45.92372" lon="4.75895">
        <ele>173</ele>
        <time>2018-07-03T08:40:41Z</time>
      </trkpt>
      <trkpt lat="45.92378" lon="4.75898">
        <ele>173</ele>
        <time>2018-07-03T08:40:42Z</time>
      </trkpt>
      <trkpt lat="45.92382" lon="4.75901">
        <ele>173</ele>
        <time>2018-07-03T08:40:43Z</time>
      </trkpt>
      <trkpt lat="45.92387" lon="4.75905">
        <ele>173</ele>
        <time>2018-07-03T08:40:44Z</time>
      </trkpt>
      <trkpt lat="45.92392" lon="4.75907">
        <ele>173</ele>
        <time>2018-07-03T08:40:45Z</time>
      </trkpt>
      <trkpt lat="45.92396" lon="4.75911">
        <ele>173</ele>
        <time>2018-07-03T08:40:46Z</time>
      </trkpt>
      <trkpt lat="45.924" lon="4.75915">
        <ele>172</ele>
        <time>2018-07-03T08:40:47Z</time>
      </trkpt>
      <trkpt lat="45.92404" lon="4.75918">
        <ele>172</ele>
        <time>2018-07-03T08:40:48Z</time>
      </trkpt>
      <trkpt lat="45.92409" lon="4.75921">
        <ele>172</ele>
        <time>2018-07-03T08:40:49Z</time>
      </trkpt>
      <trkpt lat="45.92415" lon="4.75923">
        <ele>172</ele>
        <time>2018-07-03T08:40:50Z</time>
      </trkpt>
      <trkpt lat="45.9242" lon="4.75926">
        <ele>172</ele>
        <time>2018-07-03T08:40:51Z</time>
      </trkpt>
      <trkpt lat="45.92425" lon="4.7593">
        <ele>172</ele>
        <time>2018-07-03T08:40:52Z</time>
      </trkpt>
      <trkpt lat="45.92429" lon="4.75934">
        <ele>172</ele>
        <time>2018-07-03T08:40:53Z</time>
      </trkpt>
      <trkpt lat="45.92432" lon="4.75938">
        <ele>172</ele>
        <time>2018-07-03T08:40:54Z</time>
      </trkpt>
      <trkpt lat="45.92436" lon="4.75941">
        <ele>172</ele>
        <time>2018-07-03T08:40:55Z</time>
      </trkpt>
      <trkpt lat="45.92442" lon="4.75944">
        <ele>172</ele>
        <time>2018-07-03T08:40:56Z</time>
      </trkpt>
      <trkpt lat="45.92445" lon="4.75948">
        <ele>172</ele>
        <time>2018-07-03T08:40:57Z</time>
      </trkpt>
      <trkpt lat="45.92448" lon="4.75952">
        <ele>172</ele>
        <time>2018-07-03T08:40:58Z</time>
      </trkpt>
      <trkpt lat="45.92453" lon="4.75956">
        <ele>172</ele>
        <time>2018-07-03T08:40:59Z</time>
      </trkpt>
      <trkpt lat="45.92457" lon="4.75959">
        <ele>172</ele>
        <time>2018-07-03T08:41:00Z</time>
      </trkpt>
      <trkpt lat="45.92462" lon="4.75962">
        <ele>172</ele>
        <time>2018-07-03T08:41:01Z</time>
      </trkpt>
      <trkpt lat="45.92466" lon="4.75965">
        <ele>172</ele>
        <time>2018-07-03T08:41:02Z</time>
      </trkpt>
      <trkpt lat="45.9247" lon="4.75968">
        <ele>172</ele>
        <time>2018-07-03T08:41:03Z</time>
      </trkpt>
      <trkpt lat="45.92475" lon="4.75973">
        <ele>172</ele>
        <time>2018-07-03T08:41:04Z</time>
      </trkpt>
      <trkpt lat="45.92479" lon="4.75976">
        <ele>172</ele>
        <time>2018-07-03T08:41:05Z</time>
      </trkpt>
      <trkpt lat="45.92484" lon="4.75978">
        <ele>172</ele>
        <time>2018-07-03T08:41:06Z</time>
      </trkpt>
      <trkpt lat="45.92489" lon="4.75981">
        <ele>172</ele>
        <time>2018-07-03T08:41:07Z</time>
      </trkpt>
      <trkpt lat="45.92494" lon="4.75985">
        <ele>172</ele>
        <time>2018-07-03T08:41:08Z</time>
      </trkpt>
      <trkpt lat="45.92499" lon="4.75988">
        <ele>172</ele>
        <time>2018-07-03T08:41:09Z</time>
      </trkpt>
      <trkpt lat="45.92503" lon="4.75991">
        <ele>172</ele>
        <time>2018-07-03T08:41:10Z</time>
      </trkpt>
      <trkpt lat="45.92508" lon="4.75995">
        <ele>172</ele>
        <time>2018-07-03T08:41:11Z</time>
      </trkpt>
      <trkpt lat="45.92513" lon="4.75997">
        <ele>172</ele>
        <time>2018-07-03T08:41:12Z</time>
      </trkpt>
      <trkpt lat="45.92517" lon="4.76">
        <ele>172</ele>
        <time>2018-07-03T08:41:13Z</time>
      </trkpt>
      <trkpt lat="45.92521" lon="4.76003">
        <ele>172</ele>
        <time>2018-07-03T08:41:14Z</time>
      </trkpt>
      <trkpt lat="45.92525" lon="4.76007">
        <ele>172</ele>
        <time>2018-07-03T08:41:15Z</time>
      </trkpt>
      <trkpt lat="45.92529" lon="4.76009">
        <ele>172</ele>
        <time>2018-07-03T08:41:16Z</time>
      </trkpt>
      <trkpt lat="45.92535" lon="4.76013">
        <ele>172</ele>
        <time>2018-07-03T08:41:17Z</time>
      </trkpt>
      <trkpt lat="45.92539" lon="4.76016">
        <ele>172</ele>
        <time>2018-07-03T08:41:18Z</time>
      </trkpt>
      <trkpt lat="45.92544" lon="4.76018">
        <ele>172</ele>
        <time>2018-07-03T08:41:19Z</time>
      </trkpt>
      <trkpt lat="45.92549" lon="4.76021">
        <ele>172</ele>
        <time>2018-07-03T08:41:20Z</time>
      </trkpt>
      <trkpt lat="45.92553" lon="4.76025">
        <ele>172</ele>
        <time>2018-07-03T08:41:21Z</time>
      </trkpt>
      <trkpt lat="45.92558" lon="4.76028">
        <ele>172</ele>
        <time>2018-07-03T08:41:22Z</time>
      </trkpt>
      <trkpt lat="45.92562" lon="4.76031">
        <ele>172</ele>
        <time>2018-07-03T08:41:23Z</time>
      </trkpt>
      <trkpt lat="45.92566" lon="4.76035">
        <ele>172</ele>
        <time>2018-07-03T08:41:24Z</time>
      </trkpt>
      <trkpt lat="45.9257" lon="4.76038">
        <ele>172</ele>
        <time>2018-07-03T08:41:25Z</time>
      </trkpt>
      <trkpt lat="45.92575" lon="4.76042">
        <ele>172</ele>
        <time>2018-07-03T08:41:26Z</time>
      </trkpt>
      <trkpt lat="45.9258" lon="4.76046">
        <ele>171</ele>
        <time>2018-07-03T08:41:27Z</time>
      </trkpt>
      <trkpt lat="45.92585" lon="4.7605">
        <ele>171</ele>
        <time>2018-07-03T08:41:28Z</time>
      </trkpt>
      <trkpt lat="45.9259" lon="4.76053">
        <ele>171</ele>
        <time>2018-07-03T08:41:29Z</time>
      </trkpt>
      <trkpt lat="45.92595" lon="4.76058">
        <ele>171</ele>
        <time>2018-07-03T08:41:30Z</time>
      </trkpt>
      <trkpt lat="45.92599" lon="4.76062">
        <ele>171</ele>
        <time>2018-07-03T08:41:31Z</time>
      </trkpt>
      <trkpt lat="45.92603" lon="4.76064">
        <ele>171</ele>
        <time>2018-07-03T08:41:32Z</time>
      </trkpt>
      <trkpt lat="45.92609" lon="4.76068">
        <ele>171</ele>
        <time>2018-07-03T08:41:33Z</time>
      </trkpt>
      <trkpt lat="45.92614" lon="4.76071">
        <ele>171</ele>
        <time>2018-07-03T08:41:34Z</time>
      </trkpt>
      <trkpt lat="45.92623" lon="4.76073">
        <ele>171</ele>
        <time>2018-07-03T08:41:35Z</time>
      </trkpt>
      <trkpt lat="45.92629" lon="4.76077">
        <ele>170</ele>
        <time>2018-07-03T08:41:36Z</time>
      </trkpt>
      <trkpt lat="45.92635" lon="4.76079">
        <ele>170</ele>
        <time>2018-07-03T08:41:37Z</time>
      </trkpt>
      <trkpt lat="45.92641" lon="4.76083">
        <ele>170</ele>
        <time>2018-07-03T08:41:38Z</time>
      </trkpt>
      <trkpt lat="45.92649" lon="4.76087">
        <ele>170</ele>
        <time>2018-07-03T08:41:39Z</time>
      </trkpt>
      <trkpt lat="45.92655" lon="4.76092">
        <ele>170</ele>
        <time>2018-07-03T08:41:40Z</time>
      </trkpt>
      <trkpt lat="45.92662" lon="4.76098">
        <ele>170</ele>
        <time>2018-07-03T08:41:41Z</time>
      </trkpt>
      <trkpt lat="45.92669" lon="4.76102">
        <ele>169</ele>
        <time>2018-07-03T08:41:42Z</time>
      </trkpt>
      <trkpt lat="45.92675" lon="4.76106">
        <ele>169</ele>
        <time>2018-07-03T08:41:43Z</time>
      </trkpt>
      <trkpt lat="45.92683" lon="4.76111">
        <ele>169</ele>
        <time>2018-07-03T08:41:44Z</time>
      </trkpt>
      <trkpt lat="45.9269" lon="4.76116">
        <ele>169</ele>
        <time>2018-07-03T08:41:45Z</time>
      </trkpt>
      <trkpt lat="45.92697" lon="4.76121">
        <ele>169</ele>
        <time>2018-07-03T08:41:46Z</time>
      </trkpt>
      <trkpt lat="45.92704" lon="4.76125">
        <ele>169</ele>
        <time>2018-07-03T08:41:47Z</time>
      </trkpt>
      <trkpt lat="45.92712" lon="4.7613">
        <ele>168</ele>
        <time>2018-07-03T08:41:48Z</time>
      </trkpt>
      <trkpt lat="45.92719" lon="4.76135">
        <ele>168</ele>
        <time>2018-07-03T08:41:49Z</time>
      </trkpt>
      <trkpt lat="45.92726" lon="4.76139">
        <ele>168</ele>
        <time>2018-07-03T08:41:50Z</time>
      </trkpt>
      <trkpt lat="45.92733" lon="4.76143">
        <ele>168</ele>
        <time>2018-07-03T08:41:51Z</time>
      </trkpt>
      <trkpt lat="45.92739" lon="4.76149">
        <ele>168</ele>
        <time>2018-07-03T08:41:52Z</time>
      </trkpt>
      <trkpt lat="45.92742" lon="4.76157">
        <ele>168</ele>
        <time>2018-07-03T08:41:53Z</time>
      </trkpt>
      <trkpt lat="45.92748" lon="4.76162">
        <ele>167</ele>
        <time>2018-07-03T08:41:54Z</time>
      </trkpt>
      <trkpt lat="45.92754" lon="4.76167">
        <ele>167</ele>
        <time>2018-07-03T08:41:55Z</time>
      </trkpt>
      <trkpt lat="45.92761" lon="4.76173">
        <ele>167</ele>
        <time>2018-07-03T08:41:56Z</time>
      </trkpt>
      <trkpt lat="45.92768" lon="4.76177">
        <ele>167</ele>
        <time>2018-07-03T08:41:57Z</time>
      </trkpt>
      <trkpt lat="45.92777" lon="4.76181">
        <ele>167</ele>
        <time>2018-07-03T08:41:58Z</time>
      </trkpt>
      <trkpt lat="45.9278" lon="4.76188">
        <ele>168</ele>
        <time>2018-07-03T08:41:59Z</time>
      </trkpt>
      <trkpt lat="45.92789" lon="4.76192">
        <ele>168</ele>
        <time>2018-07-03T08:42:00Z</time>
      </trkpt>
      <trkpt lat="45.92794" lon="4.76202">
        <ele>168</ele>
        <time>2018-07-03T08:42:02Z</time>
      </trkpt>
      <trkpt lat="45.928" lon="4.76207">
        <ele>168</ele>
        <time>2018-07-03T08:42:03Z</time>
      </trkpt>
      <trkpt lat="45.92806" lon="4.76212">
        <ele>168</ele>
        <time>2018-07-03T08:42:04Z</time>
      </trkpt>
      <trkpt lat="45.92811" lon="4.76215">
        <ele>168</ele>
        <time>2018-07-03T08:42:05Z</time>
      </trkpt>
      <trkpt lat="45.92816" lon="4.7622">
        <ele>168</ele>
        <time>2018-07-03T08:42:06Z</time>
      </trkpt>
      <trkpt lat="45.92819" lon="4.76225">
        <ele>168</ele>
        <time>2018-07-03T08:42:07Z</time>
      </trkpt>
      <trkpt lat="45.92825" lon="4.76231">
        <ele>168</ele>
        <time>2018-07-03T08:42:08Z</time>
      </trkpt>
      <trkpt lat="45.9283" lon="4.76236">
        <ele>168</ele>
        <time>2018-07-03T08:42:09Z</time>
      </trkpt>
      <trkpt lat="45.92837" lon="4.76241">
        <ele>169</ele>
        <time>2018-07-03T08:42:10Z</time>
      </trkpt>
      <trkpt lat="45.92841" lon="4.76246">
        <ele>169</ele>
        <time>2018-07-03T08:42:11Z</time>
      </trkpt>
      <trkpt lat="45.92846" lon="4.76251">
        <ele>169</ele>
        <time>2018-07-03T08:42:12Z</time>
      </trkpt>
      <trkpt lat="45.92851" lon="4.76255">
        <ele>169</ele>
        <time>2018-07-03T08:42:13Z</time>
      </trkpt>
      <trkpt lat="45.92856" lon="4.76259">
        <ele>169</ele>
        <time>2018-07-03T08:42:14Z</time>
      </trkpt>
      <trkpt lat="45.9286" lon="4.76266">
        <ele>169</ele>
        <time>2018-07-03T08:42:15Z</time>
      </trkpt>
      <trkpt lat="45.92864" lon="4.76273">
        <ele>169</ele>
        <time>2018-07-03T08:42:16Z</time>
      </trkpt>
      <trkpt lat="45.9287" lon="4.76278">
        <ele>169</ele>
        <time>2018-07-03T08:42:17Z</time>
      </trkpt>
      <trkpt lat="45.92872" lon="4.7628">
        <ele>169</ele>
        <time>2018-07-03T08:42:18Z</time>
      </trkpt>
      <trkpt lat="45.92878" lon="4.76285">
        <ele>169</ele>
        <time>2018-07-03T08:42:19Z</time>
      </trkpt>
      <trkpt lat="45.92883" lon="4.76288">
        <ele>169</ele>
        <time>2018-07-03T08:42:20Z</time>
      </trkpt>
      <trkpt lat="45.92886" lon="4.76294">
        <ele>169</ele>
        <time>2018-07-03T08:42:21Z</time>
      </trkpt>
      <trkpt lat="45.92888" lon="4.76299">
        <ele>169</ele>
        <time>2018-07-03T08:42:22Z</time>
      </trkpt>
      <trkpt lat="45.92892" lon="4.76304">
        <ele>169</ele>
        <time>2018-07-03T08:42:23Z</time>
      </trkpt>
      <trkpt lat="45.92897" lon="4.7631">
        <ele>169</ele>
        <time>2018-07-03T08:42:24Z</time>
      </trkpt>
      <trkpt lat="45.92902" lon="4.76314">
        <ele>169</ele>
        <time>2018-07-03T08:42:25Z</time>
      </trkpt>
      <trkpt lat="45.92907" lon="4.76319">
        <ele>169</ele>
        <time>2018-07-03T08:42:26Z</time>
      </trkpt>
      <trkpt lat="45.92912" lon="4.76322">
        <ele>169</ele>
        <time>2018-07-03T08:42:27Z</time>
      </trkpt>
      <trkpt lat="45.92919" lon="4.76326">
        <ele>169</ele>
        <time>2018-07-03T08:42:28Z</time>
      </trkpt>
      <trkpt lat="45.92921" lon="4.76332">
        <ele>169</ele>
        <time>2018-07-03T08:42:29Z</time>
      </trkpt>
      <trkpt lat="45.92927" lon="4.76337">
        <ele>169</ele>
        <time>2018-07-03T08:42:30Z</time>
      </trkpt>
      <trkpt lat="45.92932" lon="4.76343">
        <ele>169</ele>
        <time>2018-07-03T08:42:31Z</time>
      </trkpt>
      <trkpt lat="45.92936" lon="4.76347">
        <ele>169</ele>
        <time>2018-07-03T08:42:32Z</time>
      </trkpt>
      <trkpt lat="45.92941" lon="4.76352">
        <ele>169</ele>
        <time>2018-07-03T08:42:33Z</time>
      </trkpt>
      <trkpt lat="45.92945" lon="4.76358">
        <ele>169</ele>
        <time>2018-07-03T08:42:34Z</time>
      </trkpt>
      <trkpt lat="45.9295" lon="4.76362">
        <ele>169</ele>
        <time>2018-07-03T08:42:35Z</time>
      </trkpt>
      <trkpt lat="45.92953" lon="4.76368">
        <ele>169</ele>
        <time>2018-07-03T08:42:36Z</time>
      </trkpt>
      <trkpt lat="45.92958" lon="4.76372">
        <ele>169</ele>
        <time>2018-07-03T08:42:37Z</time>
      </trkpt>
      <trkpt lat="45.92964" lon="4.76377">
        <ele>169</ele>
        <time>2018-07-03T08:42:38Z</time>
      </trkpt>
      <trkpt lat="45.9297" lon="4.76382">
        <ele>169</ele>
        <time>2018-07-03T08:42:39Z</time>
      </trkpt>
      <trkpt lat="45.92976" lon="4.76386">
        <ele>169</ele>
        <time>2018-07-03T08:42:40Z</time>
      </trkpt>
      <trkpt lat="45.92981" lon="4.7639">
        <ele>169</ele>
        <time>2018-07-03T08:42:41Z</time>
      </trkpt>
      <trkpt lat="45.92985" lon="4.76396">
        <ele>169</ele>
        <time>2018-07-03T08:42:42Z</time>
      </trkpt>
      <trkpt lat="45.9299" lon="4.764">
        <ele>169</ele>
        <time>2018-07-03T08:42:43Z</time>
      </trkpt>
      <trkpt lat="45.92995" lon="4.76404">
        <ele>169</ele>
        <time>2018-07-03T08:42:44Z</time>
      </trkpt>
      <trkpt lat="45.93" lon="4.76409">
        <ele>169</ele>
        <time>2018-07-03T08:42:45Z</time>
      </trkpt>
      <trkpt lat="45.93006" lon="4.76412">
        <ele>169</ele>
        <time>2018-07-03T08:42:46Z</time>
      </trkpt>
      <trkpt lat="45.9301" lon="4.76416">
        <ele>169</ele>
        <time>2018-07-03T08:42:47Z</time>
      </trkpt>
      <trkpt lat="45.93014" lon="4.7642">
        <ele>169</ele>
        <time>2018-07-03T08:42:48Z</time>
      </trkpt>
      <trkpt lat="45.93019" lon="4.76425">
        <ele>169</ele>
        <time>2018-07-03T08:42:49Z</time>
      </trkpt>
      <trkpt lat="45.93022" lon="4.76428">
        <ele>169</ele>
        <time>2018-07-03T08:42:50Z</time>
      </trkpt>
      <trkpt lat="45.93027" lon="4.76433">
        <ele>169</ele>
        <time>2018-07-03T08:42:51Z</time>
      </trkpt>
      <trkpt lat="45.93032" lon="4.76438">
        <ele>169</ele>
        <time>2018-07-03T08:42:52Z</time>
      </trkpt>
      <trkpt lat="45.93037" lon="4.76441">
        <ele>169</ele>
        <time>2018-07-03T08:42:53Z</time>
      </trkpt>
      <trkpt lat="45.93044" lon="4.76446">
        <ele>169</ele>
        <time>2018-07-03T08:42:54Z</time>
      </trkpt>
      <trkpt lat="45.93049" lon="4.76451">
        <ele>169</ele>
        <time>2018-07-03T08:42:55Z</time>
      </trkpt>
      <trkpt lat="45.93052" lon="4.76457">
        <ele>169</ele>
        <time>2018-07-03T08:42:56Z</time>
      </trkpt>
      <trkpt lat="45.93057" lon="4.76461">
        <ele>169</ele>
        <time>2018-07-03T08:42:57Z</time>
      </trkpt>
      <trkpt lat="45.93063" lon="4.76466">
        <ele>169</ele>
        <time>2018-07-03T08:42:58Z</time>
      </trkpt>
      <trkpt lat="45.93068" lon="4.76469">
        <ele>169</ele>
        <time>2018-07-03T08:42:59Z</time>
      </trkpt>
      <trkpt lat="45.93071" lon="4.76473">
        <ele>169</ele>
        <time>2018-07-03T08:43:00Z</time>
      </trkpt>
      <trkpt lat="45.93075" lon="4.76477">
        <ele>169</ele>
        <time>2018-07-03T08:43:01Z</time>
      </trkpt>
      <trkpt lat="45.93079" lon="4.76484">
        <ele>169</ele>
        <time>2018-07-03T08:43:02Z</time>
      </trkpt>
      <trkpt lat="45.93083" lon="4.76489">
        <ele>170</ele>
        <time>2018-07-03T08:43:03Z</time>
      </trkpt>
      <trkpt lat="45.93087" lon="4.76493">
        <ele>170</ele>
        <time>2018-07-03T08:43:04Z</time>
      </trkpt>
      <trkpt lat="45.93091" lon="4.76498">
        <ele>170</ele>
        <time>2018-07-03T08:43:05Z</time>
      </trkpt>
      <trkpt lat="45.93096" lon="4.76503">
        <ele>170</ele>
        <time>2018-07-03T08:43:06Z</time>
      </trkpt>
      <trkpt lat="45.93101" lon="4.76508">
        <ele>170</ele>
        <time>2018-07-03T08:43:07Z</time>
      </trkpt>
      <trkpt lat="45.93105" lon="4.76513">
        <ele>170</ele>
        <time>2018-07-03T08:43:08Z</time>
      </trkpt>
      <trkpt lat="45.93108" lon="4.76518">
        <ele>170</ele>
        <time>2018-07-03T08:43:09Z</time>
      </trkpt>
      <trkpt lat="45.93114" lon="4.76521">
        <ele>170</ele>
        <time>2018-07-03T08:43:10Z</time>
      </trkpt>
      <trkpt lat="45.93119" lon="4.76526">
        <ele>170</ele>
        <time>2018-07-03T08:43:11Z</time>
      </trkpt>
      <trkpt lat="45.93122" lon="4.7653">
        <ele>170</ele>
        <time>2018-07-03T08:43:12Z</time>
      </trkpt>
      <trkpt lat="45.93128" lon="4.76534">
        <ele>170</ele>
        <time>2018-07-03T08:43:13Z</time>
      </trkpt>
      <trkpt lat="45.9313" lon="4.7654">
        <ele>170</ele>
        <time>2018-07-03T08:43:14Z</time>
      </trkpt>
      <trkpt lat="45.93138" lon="4.76551">
        <ele>170</ele>
        <time>2018-07-03T08:43:16Z</time>
      </trkpt>
      <trkpt lat="45.93144" lon="4.76553">
        <ele>170</ele>
        <time>2018-07-03T08:43:17Z</time>
      </trkpt>
      <trkpt lat="45.93152" lon="4.76559">
        <ele>170</ele>
        <time>2018-07-03T08:43:18Z</time>
      </trkpt>
      <trkpt lat="45.93151" lon="4.76571">
        <ele>170</ele>
        <time>2018-07-03T08:43:20Z</time>
      </trkpt>
      <trkpt lat="45.93158" lon="4.76575">
        <ele>170</ele>
        <time>2018-07-03T08:43:21Z</time>
      </trkpt>
      <trkpt lat="45.93161" lon="4.7658">
        <ele>171</ele>
        <time>2018-07-03T08:43:22Z</time>
      </trkpt>
      <trkpt lat="45.93166" lon="4.76585">
        <ele>171</ele>
        <time>2018-07-03T08:43:23Z</time>
      </trkpt>
      <trkpt lat="45.93174" lon="4.76589">
        <ele>171</ele>
        <time>2018-07-03T08:43:24Z</time>
      </trkpt>
      <trkpt lat="45.93181" lon="4.76593">
        <ele>171</ele>
        <time>2018-07-03T08:43:25Z</time>
      </trkpt>
      <trkpt lat="45.9319" lon="4.76597">
        <ele>170</ele>
        <time>2018-07-03T08:43:26Z</time>
      </trkpt>
      <trkpt lat="45.93195" lon="4.76602">
        <ele>170</ele>
        <time>2018-07-03T08:43:27Z</time>
      </trkpt>
      <trkpt lat="45.932" lon="4.76606">
        <ele>170</ele>
        <time>2018-07-03T08:43:28Z</time>
      </trkpt>
      <trkpt lat="45.93205" lon="4.76611">
        <ele>170</ele>
        <time>2018-07-03T08:43:29Z</time>
      </trkpt>
      <trkpt lat="45.9321" lon="4.76616">
        <ele>170</ele>
        <time>2018-07-03T08:43:30Z</time>
      </trkpt>
      <trkpt lat="45.93214" lon="4.7662">
        <ele>170</ele>
        <time>2018-07-03T08:43:31Z</time>
      </trkpt>
      <trkpt lat="45.93219" lon="4.76625">
        <ele>170</ele>
        <time>2018-07-03T08:43:32Z</time>
      </trkpt>
      <trkpt lat="45.93224" lon="4.76633">
        <ele>171</ele>
        <time>2018-07-03T08:43:34Z</time>
      </trkpt>
      <trkpt lat="45.9323" lon="4.76638">
        <ele>171</ele>
        <time>2018-07-03T08:43:35Z</time>
      </trkpt>
      <trkpt lat="45.93232" lon="4.76642">
        <ele>171</ele>
        <time>2018-07-03T08:43:36Z</time>
      </trkpt>
      <trkpt lat="45.93239" lon="4.76646">
        <ele>171</ele>
        <time>2018-07-03T08:43:37Z</time>
      </trkpt>
      <trkpt lat="45.93245" lon="4.7665">
        <ele>171</ele>
        <time>2018-07-03T08:43:38Z</time>
      </trkpt>
      <trkpt lat="45.93248" lon="4.76657">
        <ele>171</ele>
        <time>2018-07-03T08:43:39Z</time>
      </trkpt>
      <trkpt lat="45.93253" lon="4.76662">
        <ele>171</ele>
        <time>2018-07-03T08:43:40Z</time>
      </trkpt>
      <trkpt lat="45.93259" lon="4.76667">
        <ele>171</ele>
        <time>2018-07-03T08:43:41Z</time>
      </trkpt>
      <trkpt lat="45.93265" lon="4.7667">
        <ele>172</ele>
        <time>2018-07-03T08:43:42Z</time>
      </trkpt>
      <trkpt lat="45.9327" lon="4.76675">
        <ele>172</ele>
        <time>2018-07-03T08:43:43Z</time>
      </trkpt>
      <trkpt lat="45.93274" lon="4.76679">
        <ele>172</ele>
        <time>2018-07-03T08:43:44Z</time>
      </trkpt>
      <trkpt lat="45.93278" lon="4.76685">
        <ele>172</ele>
        <time>2018-07-03T08:43:45Z</time>
      </trkpt>
      <trkpt lat="45.93279" lon="4.76691">
        <ele>172</ele>
        <time>2018-07-03T08:43:46Z</time>
      </trkpt>
      <trkpt lat="45.93285" lon="4.76695">
        <ele>172</ele>
        <time>2018-07-03T08:43:47Z</time>
      </trkpt>
      <trkpt lat="45.93288" lon="4.767">
        <ele>172</ele>
        <time>2018-07-03T08:43:48Z</time>
      </trkpt>
      <trkpt lat="45.93293" lon="4.76704">
        <ele>172</ele>
        <time>2018-07-03T08:43:49Z</time>
      </trkpt>
      <trkpt lat="45.933" lon="4.76706">
        <ele>172</ele>
        <time>2018-07-03T08:43:50Z</time>
      </trkpt>
      <trkpt lat="45.93305" lon="4.76711">
        <ele>172</ele>
        <time>2018-07-03T08:43:51Z</time>
      </trkpt>
      <trkpt lat="45.9331" lon="4.76716">
        <ele>172</ele>
        <time>2018-07-03T08:43:52Z</time>
      </trkpt>
      <trkpt lat="45.93314" lon="4.76722">
        <ele>172</ele>
        <time>2018-07-03T08:43:53Z</time>
      </trkpt>
      <trkpt lat="45.9332" lon="4.76725">
        <ele>172</ele>
        <time>2018-07-03T08:43:54Z</time>
      </trkpt>
      <trkpt lat="45.93324" lon="4.76731">
        <ele>172</ele>
        <time>2018-07-03T08:43:55Z</time>
      </trkpt>
      <trkpt lat="45.93329" lon="4.76736">
        <ele>172</ele>
        <time>2018-07-03T08:43:56Z</time>
      </trkpt>
      <trkpt lat="45.93334" lon="4.76741">
        <ele>173</ele>
        <time>2018-07-03T08:43:57Z</time>
      </trkpt>
      <trkpt lat="45.93342" lon="4.76749">
        <ele>173</ele>
        <time>2018-07-03T08:43:58Z</time>
      </trkpt>
      <trkpt lat="45.93347" lon="4.76753">
        <ele>172</ele>
        <time>2018-07-03T08:43:59Z</time>
      </trkpt>
      <trkpt lat="45.93352" lon="4.76758">
        <ele>172</ele>
        <time>2018-07-03T08:44:00Z</time>
      </trkpt>
      <trkpt lat="45.93357" lon="4.76768">
        <ele>172</ele>
        <time>2018-07-03T08:44:02Z</time>
      </trkpt>
      <trkpt lat="45.93362" lon="4.76773">
        <ele>172</ele>
        <time>2018-07-03T08:44:03Z</time>
      </trkpt>
      <trkpt lat="45.93366" lon="4.76776">
        <ele>172</ele>
        <time>2018-07-03T08:44:04Z</time>
      </trkpt>
      <trkpt lat="45.93372" lon="4.76781">
        <ele>172</ele>
        <time>2018-07-03T08:44:05Z</time>
      </trkpt>
      <trkpt lat="45.9338" lon="4.76786">
        <ele>172</ele>
        <time>2018-07-03T08:44:06Z</time>
      </trkpt>
      <trkpt lat="45.93384" lon="4.7679">
        <ele>172</ele>
        <time>2018-07-03T08:44:07Z</time>
      </trkpt>
      <trkpt lat="45.9339" lon="4.76795">
        <ele>172</ele>
        <time>2018-07-03T08:44:08Z</time>
      </trkpt>
      <trkpt lat="45.93395" lon="4.76801">
        <ele>172</ele>
        <time>2018-07-03T08:44:09Z</time>
      </trkpt>
      <trkpt lat="45.93401" lon="4.76808">
        <ele>172</ele>
        <time>2018-07-03T08:44:10Z</time>
      </trkpt>
      <trkpt lat="45.93404" lon="4.76815">
        <ele>172</ele>
        <time>2018-07-03T08:44:11Z</time>
      </trkpt>
      <trkpt lat="45.93409" lon="4.76821">
        <ele>172</ele>
        <time>2018-07-03T08:44:12Z</time>
      </trkpt>
      <trkpt lat="45.93412" lon="4.76828">
        <ele>172</ele>
        <time>2018-07-03T08:44:13Z</time>
      </trkpt>
      <trkpt lat="45.93417" lon="4.76834">
        <ele>172</ele>
        <time>2018-07-03T08:44:14Z</time>
      </trkpt>
      <trkpt lat="45.93419" lon="4.76843">
        <ele>171</ele>
        <time>2018-07-03T08:44:15Z</time>
      </trkpt>
      <trkpt lat="45.93422" lon="4.76849">
        <ele>171</ele>
        <time>2018-07-03T08:44:16Z</time>
      </trkpt>
      <trkpt lat="45.93425" lon="4.76856">
        <ele>171</ele>
        <time>2018-07-03T08:44:17Z</time>
      </trkpt>
      <trkpt lat="45.93428" lon="4.76863">
        <ele>171</ele>
        <time>2018-07-03T08:44:18Z</time>
      </trkpt>
      <trkpt lat="45.93431" lon="4.7687">
        <ele>171</ele>
        <time>2018-07-03T08:44:19Z</time>
      </trkpt>
      <trkpt lat="45.93435" lon="4.76876">
        <ele>171</ele>
        <time>2018-07-03T08:44:20Z</time>
      </trkpt>
      <trkpt lat="45.93437" lon="4.76885">
        <ele>171</ele>
        <time>2018-07-03T08:44:21Z</time>
      </trkpt>
      <trkpt lat="45.93439" lon="4.76892">
        <ele>170</ele>
        <time>2018-07-03T08:44:22Z</time>
      </trkpt>
      <trkpt lat="45.93441" lon="4.76899">
        <ele>170</ele>
        <time>2018-07-03T08:44:23Z</time>
      </trkpt>
      <trkpt lat="45.93442" lon="4.76907">
        <ele>170</ele>
        <time>2018-07-03T08:44:24Z</time>
      </trkpt>
      <trkpt lat="45.93444" lon="4.76915">
        <ele>170</ele>
        <time>2018-07-03T08:44:25Z</time>
      </trkpt>
      <trkpt lat="45.93447" lon="4.76924">
        <ele>170</ele>
        <time>2018-07-03T08:44:26Z</time>
      </trkpt>
      <trkpt lat="45.93448" lon="4.76932">
        <ele>170</ele>
        <time>2018-07-03T08:44:27Z</time>
      </trkpt>
      <trkpt lat="45.93449" lon="4.76942">
        <ele>170</ele>
        <time>2018-07-03T08:44:28Z</time>
      </trkpt>
      <trkpt lat="45.9345" lon="4.76951">
        <ele>170</ele>
        <time>2018-07-03T08:44:29Z</time>
      </trkpt>
      <trkpt lat="45.93451" lon="4.76958">
        <ele>170</ele>
        <time>2018-07-03T08:44:30Z</time>
      </trkpt>
      <trkpt lat="45.93451" lon="4.76966">
        <ele>170</ele>
        <time>2018-07-03T08:44:31Z</time>
      </trkpt>
      <trkpt lat="45.93452" lon="4.76975">
        <ele>170</ele>
        <time>2018-07-03T08:44:32Z</time>
      </trkpt>
      <trkpt lat="45.93454" lon="4.76983">
        <ele>170</ele>
        <time>2018-07-03T08:44:33Z</time>
      </trkpt>
      <trkpt lat="45.93455" lon="4.76988">
        <ele>170</ele>
        <time>2018-07-03T08:44:34Z</time>
      </trkpt>
      <trkpt lat="45.93456" lon="4.76996">
        <ele>170</ele>
        <time>2018-07-03T08:44:35Z</time>
      </trkpt>
      <trkpt lat="45.93459" lon="4.77004">
        <ele>170</ele>
        <time>2018-07-03T08:44:36Z</time>
      </trkpt>
      <trkpt lat="45.9346" lon="4.77012">
        <ele>170</ele>
        <time>2018-07-03T08:44:37Z</time>
      </trkpt>
      <trkpt lat="45.93459" lon="4.77024">
        <ele>170</ele>
        <time>2018-07-03T08:44:38Z</time>
      </trkpt>
      <trkpt lat="45.93461" lon="4.77033">
        <ele>170</ele>
        <time>2018-07-03T08:44:39Z</time>
      </trkpt>
      <trkpt lat="45.93463" lon="4.77042">
        <ele>170</ele>
        <time>2018-07-03T08:44:40Z</time>
      </trkpt>
      <trkpt lat="45.93465" lon="4.7705">
        <ele>170</ele>
        <time>2018-07-03T08:44:41Z</time>
      </trkpt>
      <trkpt lat="45.93467" lon="4.77059">
        <ele>170</ele>
        <time>2018-07-03T08:44:42Z</time>
      </trkpt>
      <trkpt lat="45.93468" lon="4.77067">
        <ele>170</ele>
        <time>2018-07-03T08:44:43Z</time>
      </trkpt>
      <trkpt lat="45.9347" lon="4.77075">
        <ele>170</ele>
        <time>2018-07-03T08:44:44Z</time>
      </trkpt>
      <trkpt lat="45.93472" lon="4.77083">
        <ele>169</ele>
        <time>2018-07-03T08:44:45Z</time>
      </trkpt>
      <trkpt lat="45.93474" lon="4.77091">
        <ele>169</ele>
        <time>2018-07-03T08:44:46Z</time>
      </trkpt>
      <trkpt lat="45.93475" lon="4.77098">
        <ele>169</ele>
        <time>2018-07-03T08:44:47Z</time>
      </trkpt>
      <trkpt lat="45.93478" lon="4.7711">
        <ele>169</ele>
        <time>2018-07-03T08:44:49Z</time>
      </trkpt>
      <trkpt lat="45.9348" lon="4.77117">
        <ele>169</ele>
        <time>2018-07-03T08:44:50Z</time>
      </trkpt>
      <trkpt lat="45.93481" lon="4.77125">
        <ele>169</ele>
        <time>2018-07-03T08:44:51Z</time>
      </trkpt>
      <trkpt lat="45.93482" lon="4.77132">
        <ele>169</ele>
        <time>2018-07-03T08:44:52Z</time>
      </trkpt>
      <trkpt lat="45.93482" lon="4.77138">
        <ele>169</ele>
        <time>2018-07-03T08:44:53Z</time>
      </trkpt>
      <trkpt lat="45.93484" lon="4.77145">
        <ele>169</ele>
        <time>2018-07-03T08:44:54Z</time>
      </trkpt>
      <trkpt lat="45.93486" lon="4.77154">
        <ele>169</ele>
        <time>2018-07-03T08:44:55Z</time>
      </trkpt>
      <trkpt lat="45.93488" lon="4.77162">
        <ele>169</ele>
        <time>2018-07-03T08:44:56Z</time>
      </trkpt>
      <trkpt lat="45.93489" lon="4.7717">
        <ele>169</ele>
        <time>2018-07-03T08:44:57Z</time>
      </trkpt>
      <trkpt lat="45.93491" lon="4.77177">
        <ele>169</ele>
        <time>2018-07-03T08:44:58Z</time>
      </trkpt>
      <trkpt lat="45.93493" lon="4.77184">
        <ele>169</ele>
        <time>2018-07-03T08:44:59Z</time>
      </trkpt>
      <trkpt lat="45.93495" lon="4.7719">
        <ele>169</ele>
        <time>2018-07-03T08:45:00Z</time>
      </trkpt>
      <trkpt lat="45.93496" lon="4.77196">
        <ele>169</ele>
        <time>2018-07-03T08:45:01Z</time>
      </trkpt>
      <trkpt lat="45.93498" lon="4.77203">
        <ele>169</ele>
        <time>2018-07-03T08:45:02Z</time>
      </trkpt>
      <trkpt lat="45.935" lon="4.77211">
        <ele>169</ele>
        <time>2018-07-03T08:45:03Z</time>
      </trkpt>
      <trkpt lat="45.93503" lon="4.77217">
        <ele>169</ele>
        <time>2018-07-03T08:45:04Z</time>
      </trkpt>
      <trkpt lat="45.93504" lon="4.77226">
        <ele>169</ele>
        <time>2018-07-03T08:45:05Z</time>
      </trkpt>
      <trkpt lat="45.93506" lon="4.77233">
        <ele>169</ele>
        <time>2018-07-03T08:45:06Z</time>
      </trkpt>
      <trkpt lat="45.93508" lon="4.77239">
        <ele>169</ele>
        <time>2018-07-03T08:45:07Z</time>
      </trkpt>
      <trkpt lat="45.9351" lon="4.77247">
        <ele>169</ele>
        <time>2018-07-03T08:45:08Z</time>
      </trkpt>
      <trkpt lat="45.93511" lon="4.77254">
        <ele>170</ele>
        <time>2018-07-03T08:45:09Z</time>
      </trkpt>
      <trkpt lat="45.93513" lon="4.77264">
        <ele>170</ele>
        <time>2018-07-03T08:45:10Z</time>
      </trkpt>
      <trkpt lat="45.93514" lon="4.77273">
        <ele>170</ele>
        <time>2018-07-03T08:45:11Z</time>
      </trkpt>
      <trkpt lat="45.93516" lon="4.77283">
        <ele>170</ele>
        <time>2018-07-03T08:45:12Z</time>
      </trkpt>
      <trkpt lat="45.93517" lon="4.77291">
        <ele>170</ele>
        <time>2018-07-03T08:45:13Z</time>
      </trkpt>
      <trkpt lat="45.93518" lon="4.77298">
        <ele>170</ele>
        <time>2018-07-03T08:45:14Z</time>
      </trkpt>
      <trkpt lat="45.9352" lon="4.77305">
        <ele>170</ele>
        <time>2018-07-03T08:45:15Z</time>
      </trkpt>
      <trkpt lat="45.9352" lon="4.77312">
        <ele>170</ele>
        <time>2018-07-03T08:45:16Z</time>
      </trkpt>
      <trkpt lat="45.93522" lon="4.77319">
        <ele>170</ele>
        <time>2018-07-03T08:45:17Z</time>
      </trkpt>
      <trkpt lat="45.93523" lon="4.77326">
        <ele>170</ele>
        <time>2018-07-03T08:45:18Z</time>
      </trkpt>
      <trkpt lat="45.93525" lon="4.77334">
        <ele>170</ele>
        <time>2018-07-03T08:45:19Z</time>
      </trkpt>
      <trkpt lat="45.93527" lon="4.77341">
        <ele>170</ele>
        <time>2018-07-03T08:45:20Z</time>
      </trkpt>
      <trkpt lat="45.93528" lon="4.77349">
        <ele>170</ele>
        <time>2018-07-03T08:45:21Z</time>
      </trkpt>
      <trkpt lat="45.9353" lon="4.77357">
        <ele>170</ele>
        <time>2018-07-03T08:45:22Z</time>
      </trkpt>
      <trkpt lat="45.93531" lon="4.77366">
        <ele>170</ele>
        <time>2018-07-03T08:45:23Z</time>
      </trkpt>
      <trkpt lat="45.93533" lon="4.77373">
        <ele>170</ele>
        <time>2018-07-03T08:45:24Z</time>
      </trkpt>
      <trkpt lat="45.93535" lon="4.77381">
        <ele>170</ele>
        <time>2018-07-03T08:45:25Z</time>
      </trkpt>
      <trkpt lat="45.93536" lon="4.77389">
        <ele>170</ele>
        <time>2018-07-03T08:45:26Z</time>
      </trkpt>
      <trkpt lat="45.93538" lon="4.77396">
        <ele>170</ele>
        <time>2018-07-03T08:45:27Z</time>
      </trkpt>
      <trkpt lat="45.93538" lon="4.77404">
        <ele>170</ele>
        <time>2018-07-03T08:45:28Z</time>
      </trkpt>
      <trkpt lat="45.9354" lon="4.7741">
        <ele>170</ele>
        <time>2018-07-03T08:45:29Z</time>
      </trkpt>
      <trkpt lat="45.93541" lon="4.77417">
        <ele>170</ele>
        <time>2018-07-03T08:45:30Z</time>
      </trkpt>
      <trkpt lat="45.93543" lon="4.77424">
        <ele>170</ele>
        <time>2018-07-03T08:45:31Z</time>
      </trkpt>
      <trkpt lat="45.93545" lon="4.77431">
        <ele>169</ele>
        <time>2018-07-03T08:45:32Z</time>
      </trkpt>
      <trkpt lat="45.93546" lon="4.77438">
        <ele>169</ele>
        <time>2018-07-03T08:45:33Z</time>
      </trkpt>
      <trkpt lat="45.93546" lon="4.77445">
        <ele>169</ele>
        <time>2018-07-03T08:45:34Z</time>
      </trkpt>
      <trkpt lat="45.93549" lon="4.77452">
        <ele>169</ele>
        <time>2018-07-03T08:45:35Z</time>
      </trkpt>
      <trkpt lat="45.93552" lon="4.77458">
        <ele>169</ele>
        <time>2018-07-03T08:45:36Z</time>
      </trkpt>
      <trkpt lat="45.93554" lon="4.77464">
        <ele>169</ele>
        <time>2018-07-03T08:45:37Z</time>
      </trkpt>
      <trkpt lat="45.93556" lon="4.77472">
        <ele>169</ele>
        <time>2018-07-03T08:45:38Z</time>
      </trkpt>
      <trkpt lat="45.93558" lon="4.7748">
        <ele>169</ele>
        <time>2018-07-03T08:45:39Z</time>
      </trkpt>
      <trkpt lat="45.93562" lon="4.77486">
        <ele>169</ele>
        <time>2018-07-03T08:45:40Z</time>
      </trkpt>
      <trkpt lat="45.93565" lon="4.77492">
        <ele>169</ele>
        <time>2018-07-03T08:45:41Z</time>
      </trkpt>
      <trkpt lat="45.93568" lon="4.775">
        <ele>169</ele>
        <time>2018-07-03T08:45:42Z</time>
      </trkpt>
      <trkpt lat="45.93569" lon="4.77508">
        <ele>169</ele>
        <time>2018-07-03T08:45:43Z</time>
      </trkpt>
      <trkpt lat="45.9357" lon="4.77515">
        <ele>169</ele>
        <time>2018-07-03T08:45:44Z</time>
      </trkpt>
      <trkpt lat="45.93572" lon="4.77523">
        <ele>169</ele>
        <time>2018-07-03T08:45:45Z</time>
      </trkpt>
      <trkpt lat="45.93572" lon="4.77528">
        <ele>169</ele>
        <time>2018-07-03T08:45:46Z</time>
      </trkpt>
      <trkpt lat="45.93574" lon="4.77536">
        <ele>169</ele>
        <time>2018-07-03T08:45:47Z</time>
      </trkpt>
      <trkpt lat="45.93575" lon="4.77546">
        <ele>169</ele>
        <time>2018-07-03T08:45:48Z</time>
      </trkpt>
      <trkpt lat="45.93577" lon="4.77553">
        <ele>169</ele>
        <time>2018-07-03T08:45:49Z</time>
      </trkpt>
      <trkpt lat="45.93578" lon="4.7756">
        <ele>169</ele>
        <time>2018-07-03T08:45:50Z</time>
      </trkpt>
      <trkpt lat="45.9358" lon="4.77567">
        <ele>170</ele>
        <time>2018-07-03T08:45:51Z</time>
      </trkpt>
      <trkpt lat="45.93583" lon="4.77574">
        <ele>170</ele>
        <time>2018-07-03T08:45:52Z</time>
      </trkpt>
      <trkpt lat="45.93585" lon="4.77582">
        <ele>170</ele>
        <time>2018-07-03T08:45:53Z</time>
      </trkpt>
      <trkpt lat="45.93587" lon="4.77588">
        <ele>170</ele>
        <time>2018-07-03T08:45:54Z</time>
      </trkpt>
      <trkpt lat="45.93589" lon="4.77593">
        <ele>170</ele>
        <time>2018-07-03T08:45:55Z</time>
      </trkpt>
      <trkpt lat="45.93592" lon="4.77599">
        <ele>170</ele>
        <time>2018-07-03T08:45:56Z</time>
      </trkpt>
      <trkpt lat="45.93592" lon="4.77605">
        <ele>170</ele>
        <time>2018-07-03T08:45:57Z</time>
      </trkpt>
      <trkpt lat="45.93595" lon="4.77612">
        <ele>170</ele>
        <time>2018-07-03T08:45:58Z</time>
      </trkpt>
      <trkpt lat="45.93597" lon="4.77621">
        <ele>170</ele>
        <time>2018-07-03T08:45:59Z</time>
      </trkpt>
      <trkpt lat="45.93601" lon="4.77626">
        <ele>169</ele>
        <time>2018-07-03T08:46:00Z</time>
      </trkpt>
      <trkpt lat="45.93603" lon="4.77633">
        <ele>169</ele>
        <time>2018-07-03T08:46:01Z</time>
      </trkpt>
      <trkpt lat="45.93606" lon="4.7764">
        <ele>169</ele>
        <time>2018-07-03T08:46:02Z</time>
      </trkpt>
      <trkpt lat="45.93608" lon="4.77646">
        <ele>169</ele>
        <time>2018-07-03T08:46:03Z</time>
      </trkpt>
      <trkpt lat="45.93611" lon="4.77654">
        <ele>169</ele>
        <time>2018-07-03T08:46:04Z</time>
      </trkpt>
      <trkpt lat="45.93614" lon="4.77661">
        <ele>169</ele>
        <time>2018-07-03T08:46:05Z</time>
      </trkpt>
      <trkpt lat="45.93618" lon="4.77668">
        <ele>169</ele>
        <time>2018-07-03T08:46:06Z</time>
      </trkpt>
      <trkpt lat="45.93623" lon="4.77676">
        <ele>169</ele>
        <time>2018-07-03T08:46:07Z</time>
      </trkpt>
      <trkpt lat="45.93627" lon="4.77682">
        <ele>169</ele>
        <time>2018-07-03T08:46:08Z</time>
      </trkpt>
      <trkpt lat="45.93629" lon="4.77689">
        <ele>169</ele>
        <time>2018-07-03T08:46:09Z</time>
      </trkpt>
      <trkpt lat="45.93632" lon="4.77695">
        <ele>169</ele>
        <time>2018-07-03T08:46:10Z</time>
      </trkpt>
      <trkpt lat="45.93633" lon="4.77702">
        <ele>170</ele>
        <time>2018-07-03T08:46:11Z</time>
      </trkpt>
      <trkpt lat="45.93638" lon="4.77708">
        <ele>170</ele>
        <time>2018-07-03T08:46:12Z</time>
      </trkpt>
      <trkpt lat="45.93643" lon="4.77713">
        <ele>170</ele>
        <time>2018-07-03T08:46:13Z</time>
      </trkpt>
      <trkpt lat="45.93647" lon="4.77719">
        <ele>170</ele>
        <time>2018-07-03T08:46:14Z</time>
      </trkpt>
      <trkpt lat="45.9365" lon="4.77724">
        <ele>170</ele>
        <time>2018-07-03T08:46:15Z</time>
      </trkpt>
      <trkpt lat="45.93653" lon="4.77731">
        <ele>170</ele>
        <time>2018-07-03T08:46:16Z</time>
      </trkpt>
      <trkpt lat="45.93657" lon="4.77735">
        <ele>170</ele>
        <time>2018-07-03T08:46:17Z</time>
      </trkpt>
      <trkpt lat="45.93661" lon="4.7774">
        <ele>170</ele>
        <time>2018-07-03T08:46:18Z</time>
      </trkpt>
      <trkpt lat="45.93663" lon="4.77746">
        <ele>171</ele>
        <time>2018-07-03T08:46:19Z</time>
      </trkpt>
      <trkpt lat="45.93666" lon="4.77751">
        <ele>171</ele>
        <time>2018-07-03T08:46:20Z</time>
      </trkpt>
      <trkpt lat="45.93669" lon="4.77756">
        <ele>171</ele>
        <time>2018-07-03T08:46:21Z</time>
      </trkpt>
      <trkpt lat="45.93672" lon="4.77761">
        <ele>170</ele>
        <time>2018-07-03T08:46:22Z</time>
      </trkpt>
      <trkpt lat="45.93678" lon="4.77771">
        <ele>170</ele>
        <time>2018-07-03T08:46:24Z</time>
      </trkpt>
      <trkpt lat="45.9368" lon="4.77777">
        <ele>170</ele>
        <time>2018-07-03T08:46:25Z</time>
      </trkpt>
      <trkpt lat="45.93687" lon="4.77785">
        <ele>170</ele>
        <time>2018-07-03T08:46:27Z</time>
      </trkpt>
      <trkpt lat="45.93691" lon="4.7779">
        <ele>170</ele>
        <time>2018-07-03T08:46:28Z</time>
      </trkpt>
      <trkpt lat="45.93694" lon="4.77794">
        <ele>169</ele>
        <time>2018-07-03T08:46:29Z</time>
      </trkpt>
      <trkpt lat="45.93698" lon="4.77798">
        <ele>169</ele>
        <time>2018-07-03T08:46:30Z</time>
      </trkpt>
      <trkpt lat="45.93704" lon="4.77807">
        <ele>169</ele>
        <time>2018-07-03T08:46:32Z</time>
      </trkpt>
      <trkpt lat="45.93707" lon="4.77811">
        <ele>169</ele>
        <time>2018-07-03T08:46:33Z</time>
      </trkpt>
      <trkpt lat="45.93711" lon="4.77817">
        <ele>169</ele>
        <time>2018-07-03T08:46:34Z</time>
      </trkpt>
      <trkpt lat="45.93714" lon="4.77822">
        <ele>169</ele>
        <time>2018-07-03T08:46:35Z</time>
      </trkpt>
      <trkpt lat="45.93718" lon="4.77826">
        <ele>168</ele>
        <time>2018-07-03T08:46:36Z</time>
      </trkpt>
      <trkpt lat="45.9372" lon="4.77831">
        <ele>168</ele>
        <time>2018-07-03T08:46:37Z</time>
      </trkpt>
      <trkpt lat="45.93726" lon="4.7784">
        <ele>167</ele>
        <time>2018-07-03T08:46:39Z</time>
      </trkpt>
      <trkpt lat="45.93731" lon="4.77844">
        <ele>167</ele>
        <time>2018-07-03T08:46:40Z</time>
      </trkpt>
      <trkpt lat="45.93736" lon="4.77853">
        <ele>167</ele>
        <time>2018-07-03T08:46:42Z</time>
      </trkpt>
      <trkpt lat="45.9374" lon="4.77857">
        <ele>167</ele>
        <time>2018-07-03T08:46:43Z</time>
      </trkpt>
      <trkpt lat="45.93746" lon="4.77866">
        <ele>167</ele>
        <time>2018-07-03T08:46:45Z</time>
      </trkpt>
      <trkpt lat="45.93749" lon="4.7787">
        <ele>167</ele>
        <time>2018-07-03T08:46:46Z</time>
      </trkpt>
      <trkpt lat="45.93757" lon="4.77874">
        <ele>166</ele>
        <time>2018-07-03T08:46:47Z</time>
      </trkpt>
      <trkpt lat="45.93761" lon="4.77877">
        <ele>166</ele>
        <time>2018-07-03T08:46:48Z</time>
      </trkpt>
      <trkpt lat="45.93765" lon="4.77886">
        <ele>166</ele>
        <time>2018-07-03T08:46:50Z</time>
      </trkpt>
      <trkpt lat="45.93768" lon="4.7789">
        <ele>166</ele>
        <time>2018-07-03T08:46:51Z</time>
      </trkpt>
      <trkpt lat="45.93771" lon="4.77895">
        <ele>166</ele>
        <time>2018-07-03T08:46:52Z</time>
      </trkpt>
      <trkpt lat="45.93776" lon="4.779">
        <ele>166</ele>
        <time>2018-07-03T08:46:53Z</time>
      </trkpt>
      <trkpt lat="45.9378" lon="4.77906">
        <ele>166</ele>
        <time>2018-07-03T08:46:54Z</time>
      </trkpt>
      <trkpt lat="45.93783" lon="4.77911">
        <ele>166</ele>
        <time>2018-07-03T08:46:55Z</time>
      </trkpt>
      <trkpt lat="45.9379" lon="4.77919">
        <ele>168</ele>
        <time>2018-07-03T08:46:57Z</time>
      </trkpt>
      <trkpt lat="45.93794" lon="4.77924">
        <ele>168</ele>
        <time>2018-07-03T08:46:58Z</time>
      </trkpt>
      <trkpt lat="45.93798" lon="4.77928">
        <ele>168</ele>
        <time>2018-07-03T08:46:59Z</time>
      </trkpt>
      <trkpt lat="45.93802" lon="4.77933">
        <ele>168</ele>
        <time>2018-07-03T08:47:00Z</time>
      </trkpt>
      <trkpt lat="45.93806" lon="4.77939">
        <ele>169</ele>
        <time>2018-07-03T08:47:01Z</time>
      </trkpt>
      <trkpt lat="45.9381" lon="4.77944">
        <ele>169</ele>
        <time>2018-07-03T08:47:02Z</time>
      </trkpt>
      <trkpt lat="45.93814" lon="4.77949">
        <ele>169</ele>
        <time>2018-07-03T08:47:03Z</time>
      </trkpt>
      <trkpt lat="45.93817" lon="4.77954">
        <ele>170</ele>
        <time>2018-07-03T08:47:04Z</time>
      </trkpt>
      <trkpt lat="45.93821" lon="4.77959">
        <ele>170</ele>
        <time>2018-07-03T08:47:05Z</time>
      </trkpt>
      <trkpt lat="45.93826" lon="4.77965">
        <ele>171</ele>
        <time>2018-07-03T08:47:06Z</time>
      </trkpt>
      <trkpt lat="45.93831" lon="4.77971">
        <ele>172</ele>
        <time>2018-07-03T08:47:07Z</time>
      </trkpt>
      <trkpt lat="45.93834" lon="4.77977">
        <ele>178</ele>
        <time>2018-07-03T08:47:08Z</time>
      </trkpt>
      <trkpt lat="45.93839" lon="4.77986">
        <ele>178</ele>
        <time>2018-07-03T08:47:11Z</time>
      </trkpt>
      <trkpt lat="45.9384" lon="4.77989">
        <ele>179</ele>
        <time>2018-07-03T08:47:12Z</time>
      </trkpt>
      <trkpt lat="45.93841" lon="4.77992">
        <ele>179</ele>
        <time>2018-07-03T08:47:13Z</time>
      </trkpt>
      <trkpt lat="45.93844" lon="4.78005">
        <ele>181</ele>
        <time>2018-07-03T08:47:14Z</time>
      </trkpt>
      <trkpt lat="45.93844" lon="4.78013">
        <ele>181</ele>
        <time>2018-07-03T08:47:15Z</time>
      </trkpt>
      <trkpt lat="45.93844" lon="4.78019">
        <ele>182</ele>
        <time>2018-07-03T08:47:16Z</time>
      </trkpt>
      <trkpt lat="45.93844" lon="4.78022">
        <ele>182</ele>
        <time>2018-07-03T08:47:17Z</time>
      </trkpt>
      <trkpt lat="45.9385" lon="4.7803">
        <ele>182</ele>
        <time>2018-07-03T08:47:18Z</time>
      </trkpt>
      <trkpt lat="45.93857" lon="4.78033">
        <ele>183</ele>
        <time>2018-07-03T08:47:21Z</time>
      </trkpt>
      <trkpt lat="45.93859" lon="4.78033">
        <ele>183</ele>
        <time>2018-07-03T08:47:22Z</time>
      </trkpt>
      <trkpt lat="45.93861" lon="4.78033">
        <ele>183</ele>
        <time>2018-07-03T08:47:23Z</time>
      </trkpt>
      <trkpt lat="45.93869" lon="4.78031">
        <ele>183</ele>
        <time>2018-07-03T08:47:24Z</time>
      </trkpt>
      <trkpt lat="45.93878" lon="4.78028">
        <ele>184</ele>
        <time>2018-07-03T08:47:27Z</time>
      </trkpt>
      <trkpt lat="45.9388" lon="4.78026">
        <ele>184</ele>
        <time>2018-07-03T08:47:28Z</time>
      </trkpt>
      <trkpt lat="45.93886" lon="4.78021">
        <ele>184</ele>
        <time>2018-07-03T08:47:31Z</time>
      </trkpt>
      <trkpt lat="45.93888" lon="4.78018">
        <ele>184</ele>
        <time>2018-07-03T08:47:32Z</time>
      </trkpt>
      <trkpt lat="45.93894" lon="4.7801">
        <ele>184</ele>
        <time>2018-07-03T08:47:35Z</time>
      </trkpt>
      <trkpt lat="45.93895" lon="4.78008">
        <ele>185</ele>
        <time>2018-07-03T08:47:36Z</time>
      </trkpt>
      <trkpt lat="45.93902" lon="4.78001">
        <ele>185</ele>
        <time>2018-07-03T08:47:39Z</time>
      </trkpt>
      <trkpt lat="45.93904" lon="4.77999">
        <ele>183</ele>
        <time>2018-07-03T08:47:40Z</time>
      </trkpt>
      <trkpt lat="45.9391" lon="4.77993">
        <ele>184</ele>
        <time>2018-07-03T08:47:43Z</time>
      </trkpt>
      <trkpt lat="45.93912" lon="4.77991">
        <ele>184</ele>
        <time>2018-07-03T08:47:44Z</time>
      </trkpt>
      <trkpt lat="45.93918" lon="4.77985">
        <ele>188</ele>
        <time>2018-07-03T08:47:47Z</time>
      </trkpt>
      <trkpt lat="45.93919" lon="4.77984">
        <ele>188</ele>
        <time>2018-07-03T08:47:48Z</time>
      </trkpt>
      <trkpt lat="45.93925" lon="4.77978">
        <ele>188</ele>
        <time>2018-07-03T08:47:51Z</time>
      </trkpt>
      <trkpt lat="45.93927" lon="4.77976">
        <ele>188</ele>
        <time>2018-07-03T08:47:52Z</time>
      </trkpt>
      <trkpt lat="45.93933" lon="4.77971">
        <ele>189</ele>
        <time>2018-07-03T08:47:55Z</time>
      </trkpt>
      <trkpt lat="45.93935" lon="4.77969">
        <ele>189</ele>
        <time>2018-07-03T08:47:56Z</time>
      </trkpt>
      <trkpt lat="45.93942" lon="4.77964">
        <ele>189</ele>
        <time>2018-07-03T08:47:59Z</time>
      </trkpt>
      <trkpt lat="45.93944" lon="4.77963">
        <ele>189</ele>
        <time>2018-07-03T08:48:00Z</time>
      </trkpt>
      <trkpt lat="45.93952" lon="4.77958">
        <ele>190</ele>
        <time>2018-07-03T08:48:04Z</time>
      </trkpt>
      <trkpt lat="45.93954" lon="4.77957">
        <ele>190</ele>
        <time>2018-07-03T08:48:05Z</time>
      </trkpt>
      <trkpt lat="45.93961" lon="4.77954">
        <ele>190</ele>
        <time>2018-07-03T08:48:10Z</time>
      </trkpt>
      <trkpt lat="45.93963" lon="4.77952">
        <ele>190</ele>
        <time>2018-07-03T08:48:11Z</time>
      </trkpt>
      <trkpt lat="45.93971" lon="4.77948">
        <ele>191</ele>
        <time>2018-07-03T08:48:15Z</time>
      </trkpt>
      <trkpt lat="45.93973" lon="4.77947">
        <ele>191</ele>
        <time>2018-07-03T08:48:16Z</time>
      </trkpt>
      <trkpt lat="45.9398" lon="4.77943">
        <ele>191</ele>
        <time>2018-07-03T08:48:20Z</time>
      </trkpt>
      <trkpt lat="45.93982" lon="4.77941">
        <ele>191</ele>
        <time>2018-07-03T08:48:21Z</time>
      </trkpt>
      <trkpt lat="45.9399" lon="4.77938">
        <ele>192</ele>
        <time>2018-07-03T08:48:26Z</time>
      </trkpt>
      <trkpt lat="45.93992" lon="4.77937">
        <ele>192</ele>
        <time>2018-07-03T08:48:27Z</time>
      </trkpt>
      <trkpt lat="45.93999" lon="4.77934">
        <ele>192</ele>
        <time>2018-07-03T08:48:30Z</time>
      </trkpt>
      <trkpt lat="45.94001" lon="4.77933">
        <ele>197</ele>
        <time>2018-07-03T08:48:31Z</time>
      </trkpt>
      <trkpt lat="45.94009" lon="4.77934">
        <ele>198</ele>
        <time>2018-07-03T08:48:35Z</time>
      </trkpt>
      <trkpt lat="45.94011" lon="4.77935">
        <ele>198</ele>
        <time>2018-07-03T08:48:36Z</time>
      </trkpt>
      <trkpt lat="45.94017" lon="4.77944">
        <ele>199</ele>
        <time>2018-07-03T08:48:41Z</time>
      </trkpt>
      <trkpt lat="45.94017" lon="4.77946">
        <ele>199</ele>
        <time>2018-07-03T08:48:42Z</time>
      </trkpt>
      <trkpt lat="45.94018" lon="4.77957">
        <ele>200</ele>
        <time>2018-07-03T08:48:51Z</time>
      </trkpt>
      <trkpt lat="45.94018" lon="4.77959">
        <ele>200</ele>
        <time>2018-07-03T08:48:52Z</time>
      </trkpt>
      <trkpt lat="45.94018" lon="4.77968">
        <ele>200</ele>
        <time>2018-07-03T08:48:55Z</time>
      </trkpt>
      <trkpt lat="45.94018" lon="4.77972">
        <ele>200</ele>
        <time>2018-07-03T08:48:56Z</time>
      </trkpt>
      <trkpt lat="45.94015" lon="4.77983">
        <ele>199</ele>
        <time>2018-07-03T08:48:59Z</time>
      </trkpt>
      <trkpt lat="45.94015" lon="4.77987">
        <ele>199</ele>
        <time>2018-07-03T08:49:00Z</time>
      </trkpt>
      <trkpt lat="45.94013" lon="4.77995">
        <ele>198</ele>
        <time>2018-07-03T08:49:02Z</time>
      </trkpt>
      <trkpt lat="45.9401" lon="4.78008">
        <ele>199</ele>
        <time>2018-07-03T08:49:03Z</time>
      </trkpt>
      <trkpt lat="45.94009" lon="4.78018">
        <ele>200</ele>
        <time>2018-07-03T08:49:06Z</time>
      </trkpt>
      <trkpt lat="45.94009" lon="4.78021">
        <ele>200</ele>
        <time>2018-07-03T08:49:07Z</time>
      </trkpt>
      <trkpt lat="45.94007" lon="4.78032">
        <ele>201</ele>
        <time>2018-07-03T08:49:10Z</time>
      </trkpt>
      <trkpt lat="45.94006" lon="4.78036">
        <ele>201</ele>
        <time>2018-07-03T08:49:11Z</time>
      </trkpt>
      <trkpt lat="45.94004" lon="4.78043">
        <ele>201</ele>
        <time>2018-07-03T08:49:13Z</time>
      </trkpt>
      <trkpt lat="45.94" lon="4.78057">
        <ele>201</ele>
        <time>2018-07-03T08:49:14Z</time>
      </trkpt>
      <trkpt lat="45.93999" lon="4.78068">
        <ele>196</ele>
        <time>2018-07-03T08:49:16Z</time>
      </trkpt>
      <trkpt lat="45.93998" lon="4.78074">
        <ele>197</ele>
        <time>2018-07-03T08:49:17Z</time>
      </trkpt>
      <trkpt lat="45.93997" lon="4.78086">
        <ele>199</ele>
        <time>2018-07-03T08:49:19Z</time>
      </trkpt>
      <trkpt lat="45.93997" lon="4.78089">
        <ele>198</ele>
        <time>2018-07-03T08:49:20Z</time>
      </trkpt>
      <trkpt lat="45.93996" lon="4.78098">
        <ele>198</ele>
        <time>2018-07-03T08:49:21Z</time>
      </trkpt>
      <trkpt lat="45.93996" lon="4.78104">
        <ele>197</ele>
        <time>2018-07-03T08:49:22Z</time>
      </trkpt>
      <trkpt lat="45.93994" lon="4.78116">
        <ele>197</ele>
        <time>2018-07-03T08:49:24Z</time>
      </trkpt>
      <trkpt lat="45.93994" lon="4.78122">
        <ele>197</ele>
        <time>2018-07-03T08:49:25Z</time>
      </trkpt>
      <trkpt lat="45.93993" lon="4.78128">
        <ele>197</ele>
        <time>2018-07-03T08:49:27Z</time>
      </trkpt>
      <trkpt lat="45.93991" lon="4.78138">
        <ele>198</ele>
        <time>2018-07-03T08:49:28Z</time>
      </trkpt>
      <trkpt lat="45.93989" lon="4.78146">
        <ele>198</ele>
        <time>2018-07-03T08:49:30Z</time>
      </trkpt>
      <trkpt lat="45.93988" lon="4.78153">
        <ele>198</ele>
        <time>2018-07-03T08:49:31Z</time>
      </trkpt>
      <trkpt lat="45.93991" lon="4.78161">
        <ele>199</ele>
        <time>2018-07-03T08:49:34Z</time>
      </trkpt>
      <trkpt lat="45.93997" lon="4.78167">
        <ele>200</ele>
        <time>2018-07-03T08:49:35Z</time>
      </trkpt>
      <trkpt lat="45.94005" lon="4.78171">
        <ele>202</ele>
        <time>2018-07-03T08:49:39Z</time>
      </trkpt>
      <trkpt lat="45.94008" lon="4.78172">
        <ele>202</ele>
        <time>2018-07-03T08:49:40Z</time>
      </trkpt>
      <trkpt lat="45.94016" lon="4.78175">
        <ele>203</ele>
        <time>2018-07-03T08:49:44Z</time>
      </trkpt>
      <trkpt lat="45.94018" lon="4.78175">
        <ele>203</ele>
        <time>2018-07-03T08:49:45Z</time>
      </trkpt>
      <trkpt lat="45.94027" lon="4.78179">
        <ele>204</ele>
        <time>2018-07-03T08:49:49Z</time>
      </trkpt>
      <trkpt lat="45.94029" lon="4.78181">
        <ele>204</ele>
        <time>2018-07-03T08:49:50Z</time>
      </trkpt>
      <trkpt lat="45.94035" lon="4.78187">
        <ele>205</ele>
        <time>2018-07-03T08:49:53Z</time>
      </trkpt>
      <trkpt lat="45.94037" lon="4.78189">
        <ele>205</ele>
        <time>2018-07-03T08:49:54Z</time>
      </trkpt>
      <trkpt lat="45.94043" lon="4.78198">
        <ele>205</ele>
        <time>2018-07-03T08:49:58Z</time>
      </trkpt>
      <trkpt lat="45.94044" lon="4.782">
        <ele>205</ele>
        <time>2018-07-03T08:49:59Z</time>
      </trkpt>
      <trkpt lat="45.9405" lon="4.78207">
        <ele>205</ele>
        <time>2018-07-03T08:50:03Z</time>
      </trkpt>
      <trkpt lat="45.94051" lon="4.78209">
        <ele>205</ele>
        <time>2018-07-03T08:50:04Z</time>
      </trkpt>
      <trkpt lat="45.94058" lon="4.78214">
        <ele>206</ele>
        <time>2018-07-03T08:50:07Z</time>
      </trkpt>
      <trkpt lat="45.9406" lon="4.78216">
        <ele>206</ele>
        <time>2018-07-03T08:50:08Z</time>
      </trkpt>
      <trkpt lat="45.94067" lon="4.78221">
        <ele>206</ele>
        <time>2018-07-03T08:50:11Z</time>
      </trkpt>
      <trkpt lat="45.94069" lon="4.78222">
        <ele>206</ele>
        <time>2018-07-03T08:50:12Z</time>
      </trkpt>
      <trkpt lat="45.94076" lon="4.78224">
        <ele>206</ele>
        <time>2018-07-03T08:50:15Z</time>
      </trkpt>
      <trkpt lat="45.94078" lon="4.78225">
        <ele>206</ele>
        <time>2018-07-03T08:50:16Z</time>
      </trkpt>
      <trkpt lat="45.94085" lon="4.78227">
        <ele>212</ele>
        <time>2018-07-03T08:50:19Z</time>
      </trkpt>
      <trkpt lat="45.94088" lon="4.78229">
        <ele>212</ele>
        <time>2018-07-03T08:50:20Z</time>
      </trkpt>
      <trkpt lat="45.94095" lon="4.78233">
        <ele>212</ele>
        <time>2018-07-03T08:50:23Z</time>
      </trkpt>
      <trkpt lat="45.94097" lon="4.78234">
        <ele>212</ele>
        <time>2018-07-03T08:50:24Z</time>
      </trkpt>
      <trkpt lat="45.94103" lon="4.78239">
        <ele>212</ele>
        <time>2018-07-03T08:50:27Z</time>
      </trkpt>
      <trkpt lat="45.94105" lon="4.7824">
        <ele>213</ele>
        <time>2018-07-03T08:50:28Z</time>
      </trkpt>
      <trkpt lat="45.94111" lon="4.78246">
        <ele>213</ele>
        <time>2018-07-03T08:50:31Z</time>
      </trkpt>
      <trkpt lat="45.94113" lon="4.78248">
        <ele>213</ele>
        <time>2018-07-03T08:50:32Z</time>
      </trkpt>
      <trkpt lat="45.94119" lon="4.78255">
        <ele>213</ele>
        <time>2018-07-03T08:50:36Z</time>
      </trkpt>
      <trkpt lat="45.94121" lon="4.78256">
        <ele>213</ele>
        <time>2018-07-03T08:50:37Z</time>
      </trkpt>
      <trkpt lat="45.94129" lon="4.78261">
        <ele>214</ele>
        <time>2018-07-03T08:50:41Z</time>
      </trkpt>
      <trkpt lat="45.94131" lon="4.78262">
        <ele>214</ele>
        <time>2018-07-03T08:50:42Z</time>
      </trkpt>
      <trkpt lat="45.94139" lon="4.78265">
        <ele>215</ele>
        <time>2018-07-03T08:50:45Z</time>
      </trkpt>
      <trkpt lat="45.94141" lon="4.78266">
        <ele>215</ele>
        <time>2018-07-03T08:50:46Z</time>
      </trkpt>
      <trkpt lat="45.9415" lon="4.7827">
        <ele>216</ele>
        <time>2018-07-03T08:50:49Z</time>
      </trkpt>
      <trkpt lat="45.94152" lon="4.78271">
        <ele>216</ele>
        <time>2018-07-03T08:50:50Z</time>
      </trkpt>
      <trkpt lat="45.94159" lon="4.78274">
        <ele>216</ele>
        <time>2018-07-03T08:50:53Z</time>
      </trkpt>
      <trkpt lat="45.94161" lon="4.78275">
        <ele>216</ele>
        <time>2018-07-03T08:50:54Z</time>
      </trkpt>
      <trkpt lat="45.94168" lon="4.78278">
        <ele>220</ele>
        <time>2018-07-03T08:50:57Z</time>
      </trkpt>
      <trkpt lat="45.94171" lon="4.7828">
        <ele>220</ele>
        <time>2018-07-03T08:50:58Z</time>
      </trkpt>
      <trkpt lat="45.94178" lon="4.78285">
        <ele>221</ele>
        <time>2018-07-03T08:51:01Z</time>
      </trkpt>
      <trkpt lat="45.9418" lon="4.78287">
        <ele>221</ele>
        <time>2018-07-03T08:51:02Z</time>
      </trkpt>
      <trkpt lat="45.94187" lon="4.78291">
        <ele>221</ele>
        <time>2018-07-03T08:51:05Z</time>
      </trkpt>
      <trkpt lat="45.9419" lon="4.78292">
        <ele>221</ele>
        <time>2018-07-03T08:51:06Z</time>
      </trkpt>
      <trkpt lat="45.94198" lon="4.78296">
        <ele>221</ele>
        <time>2018-07-03T08:51:09Z</time>
      </trkpt>
      <trkpt lat="45.94201" lon="4.78297">
        <ele>221</ele>
        <time>2018-07-03T08:51:10Z</time>
      </trkpt>
      <trkpt lat="45.94208" lon="4.78298">
        <ele>221</ele>
        <time>2018-07-03T08:51:13Z</time>
      </trkpt>
      <trkpt lat="45.94211" lon="4.78299">
        <ele>221</ele>
        <time>2018-07-03T08:51:14Z</time>
      </trkpt>
      <trkpt lat="45.94217" lon="4.78299">
        <ele>222</ele>
        <time>2018-07-03T08:51:16Z</time>
      </trkpt>
      <trkpt lat="45.9422" lon="4.78299">
        <ele>222</ele>
        <time>2018-07-03T08:51:17Z</time>
      </trkpt>
      <trkpt lat="45.94227" lon="4.783">
        <ele>222</ele>
        <time>2018-07-03T08:51:19Z</time>
      </trkpt>
      <trkpt lat="45.94229" lon="4.78301">
        <ele>222</ele>
        <time>2018-07-03T08:51:20Z</time>
      </trkpt>
      <trkpt lat="45.94237" lon="4.78303">
        <ele>222</ele>
        <time>2018-07-03T08:51:23Z</time>
      </trkpt>
      <trkpt lat="45.9424" lon="4.78303">
        <ele>222</ele>
        <time>2018-07-03T08:51:24Z</time>
      </trkpt>
      <trkpt lat="45.94247" lon="4.78306">
        <ele>222</ele>
        <time>2018-07-03T08:51:27Z</time>
      </trkpt>
      <trkpt lat="45.94249" lon="4.78307">
        <ele>222</ele>
        <time>2018-07-03T08:51:28Z</time>
      </trkpt>
      <trkpt lat="45.94257" lon="4.78309">
        <ele>227</ele>
        <time>2018-07-03T08:51:31Z</time>
      </trkpt>
      <trkpt lat="45.9426" lon="4.7831">
        <ele>227</ele>
        <time>2018-07-03T08:51:32Z</time>
      </trkpt>
      <trkpt lat="45.94268" lon="4.78315">
        <ele>227</ele>
        <time>2018-07-03T08:51:35Z</time>
      </trkpt>
      <trkpt lat="45.9427" lon="4.78318">
        <ele>227</ele>
        <time>2018-07-03T08:51:36Z</time>
      </trkpt>
      <trkpt lat="45.94275" lon="4.78323">
        <ele>227</ele>
        <time>2018-07-03T08:51:38Z</time>
      </trkpt>
      <trkpt lat="45.94277" lon="4.78326">
        <ele>227</ele>
        <time>2018-07-03T08:51:39Z</time>
      </trkpt>
      <trkpt lat="45.94284" lon="4.78335">
        <ele>227</ele>
        <time>2018-07-03T08:51:42Z</time>
      </trkpt>
      <trkpt lat="45.94286" lon="4.78337">
        <ele>227</ele>
        <time>2018-07-03T08:51:43Z</time>
      </trkpt>
      <trkpt lat="45.94291" lon="4.78342">
        <ele>228</ele>
        <time>2018-07-03T08:51:45Z</time>
      </trkpt>
      <trkpt lat="45.94293" lon="4.78345">
        <ele>228</ele>
        <time>2018-07-03T08:51:46Z</time>
      </trkpt>
      <trkpt lat="45.94298" lon="4.78351">
        <ele>229</ele>
        <time>2018-07-03T08:51:48Z</time>
      </trkpt>
      <trkpt lat="45.94299" lon="4.78354">
        <ele>229</ele>
        <time>2018-07-03T08:51:49Z</time>
      </trkpt>
      <trkpt lat="45.94303" lon="4.78364">
        <ele>229</ele>
        <time>2018-07-03T08:51:52Z</time>
      </trkpt>
      <trkpt lat="45.94304" lon="4.78367">
        <ele>229</ele>
        <time>2018-07-03T08:51:53Z</time>
      </trkpt>
      <trkpt lat="45.94307" lon="4.78376">
        <ele>230</ele>
        <time>2018-07-03T08:51:56Z</time>
      </trkpt>
      <trkpt lat="45.94309" lon="4.78379">
        <ele>230</ele>
        <time>2018-07-03T08:51:57Z</time>
      </trkpt>
      <trkpt lat="45.94313" lon="4.78389">
        <ele>230</ele>
        <time>2018-07-03T08:52:00Z</time>
      </trkpt>
      <trkpt lat="45.94315" lon="4.78392">
        <ele>230</ele>
        <time>2018-07-03T08:52:01Z</time>
      </trkpt>
      <trkpt lat="45.94319" lon="4.784">
        <ele>230</ele>
        <time>2018-07-03T08:52:04Z</time>
      </trkpt>
      <trkpt lat="45.9432" lon="4.78404">
        <ele>230</ele>
        <time>2018-07-03T08:52:05Z</time>
      </trkpt>
      <trkpt lat="45.94324" lon="4.78413">
        <ele>229</ele>
        <time>2018-07-03T08:52:08Z</time>
      </trkpt>
      <trkpt lat="45.94326" lon="4.78416">
        <ele>229</ele>
        <time>2018-07-03T08:52:09Z</time>
      </trkpt>
      <trkpt lat="45.9433" lon="4.78425">
        <ele>232</ele>
        <time>2018-07-03T08:52:12Z</time>
      </trkpt>
      <trkpt lat="45.94331" lon="4.78428">
        <ele>233</ele>
        <time>2018-07-03T08:52:13Z</time>
      </trkpt>
      <trkpt lat="45.94336" lon="4.78437">
        <ele>233</ele>
        <time>2018-07-03T08:52:16Z</time>
      </trkpt>
      <trkpt lat="45.94338" lon="4.7844">
        <ele>234</ele>
        <time>2018-07-03T08:52:17Z</time>
      </trkpt>
      <trkpt lat="45.94343" lon="4.78448">
        <ele>235</ele>
        <time>2018-07-03T08:52:20Z</time>
      </trkpt>
      <trkpt lat="45.94345" lon="4.78451">
        <ele>235</ele>
        <time>2018-07-03T08:52:21Z</time>
      </trkpt>
      <trkpt lat="45.94351" lon="4.78459">
        <ele>235</ele>
        <time>2018-07-03T08:52:24Z</time>
      </trkpt>
      <trkpt lat="45.94353" lon="4.78461">
        <ele>236</ele>
        <time>2018-07-03T08:52:25Z</time>
      </trkpt>
      <trkpt lat="45.94359" lon="4.78469">
        <ele>236</ele>
        <time>2018-07-03T08:52:28Z</time>
      </trkpt>
      <trkpt lat="45.94361" lon="4.78471">
        <ele>236</ele>
        <time>2018-07-03T08:52:29Z</time>
      </trkpt>
      <trkpt lat="45.94367" lon="4.78478">
        <ele>236</ele>
        <time>2018-07-03T08:52:32Z</time>
      </trkpt>
      <trkpt lat="45.94369" lon="4.78481">
        <ele>236</ele>
        <time>2018-07-03T08:52:33Z</time>
      </trkpt>
      <trkpt lat="45.94374" lon="4.78489">
        <ele>236</ele>
        <time>2018-07-03T08:52:36Z</time>
      </trkpt>
      <trkpt lat="45.94376" lon="4.78491">
        <ele>236</ele>
        <time>2018-07-03T08:52:37Z</time>
      </trkpt>
      <trkpt lat="45.94381" lon="4.78498">
        <ele>236</ele>
        <time>2018-07-03T08:52:40Z</time>
      </trkpt>
      <trkpt lat="45.94383" lon="4.78501">
        <ele>238</ele>
        <time>2018-07-03T08:52:41Z</time>
      </trkpt>
      <trkpt lat="45.94389" lon="4.78507">
        <ele>237</ele>
        <time>2018-07-03T08:52:44Z</time>
      </trkpt>
      <trkpt lat="45.94392" lon="4.78509">
        <ele>237</ele>
        <time>2018-07-03T08:52:45Z</time>
      </trkpt>
      <trkpt lat="45.94398" lon="4.78515">
        <ele>237</ele>
        <time>2018-07-03T08:52:48Z</time>
      </trkpt>
      <trkpt lat="45.94401" lon="4.78517">
        <ele>237</ele>
        <time>2018-07-03T08:52:49Z</time>
      </trkpt>
      <trkpt lat="45.94407" lon="4.78525">
        <ele>237</ele>
        <time>2018-07-03T08:52:52Z</time>
      </trkpt>
      <trkpt lat="45.94409" lon="4.78528">
        <ele>237</ele>
        <time>2018-07-03T08:52:53Z</time>
      </trkpt>
      <trkpt lat="45.94414" lon="4.78536">
        <ele>238</ele>
        <time>2018-07-03T08:52:56Z</time>
      </trkpt>
      <trkpt lat="45.94416" lon="4.78538">
        <ele>238</ele>
        <time>2018-07-03T08:52:57Z</time>
      </trkpt>
      <trkpt lat="45.94421" lon="4.78548">
        <ele>238</ele>
        <time>2018-07-03T08:53:00Z</time>
      </trkpt>
      <trkpt lat="45.94423" lon="4.7855">
        <ele>238</ele>
        <time>2018-07-03T08:53:01Z</time>
      </trkpt>
      <trkpt lat="45.94429" lon="4.78558">
        <ele>238</ele>
        <time>2018-07-03T08:53:04Z</time>
      </trkpt>
      <trkpt lat="45.94432" lon="4.78561">
        <ele>238</ele>
        <time>2018-07-03T08:53:05Z</time>
      </trkpt>
      <trkpt lat="45.94438" lon="4.78569">
        <ele>239</ele>
        <time>2018-07-03T08:53:08Z</time>
      </trkpt>
      <trkpt lat="45.9444" lon="4.78571">
        <ele>239</ele>
        <time>2018-07-03T08:53:09Z</time>
      </trkpt>
      <trkpt lat="45.94446" lon="4.7858">
        <ele>239</ele>
        <time>2018-07-03T08:53:12Z</time>
      </trkpt>
      <trkpt lat="45.94448" lon="4.78583">
        <ele>239</ele>
        <time>2018-07-03T08:53:13Z</time>
      </trkpt>
      <trkpt lat="45.94452" lon="4.78592">
        <ele>240</ele>
        <time>2018-07-03T08:53:16Z</time>
      </trkpt>
      <trkpt lat="45.94454" lon="4.78595">
        <ele>240</ele>
        <time>2018-07-03T08:53:17Z</time>
      </trkpt>
      <trkpt lat="45.94458" lon="4.78603">
        <ele>240</ele>
        <time>2018-07-03T08:53:20Z</time>
      </trkpt>
      <trkpt lat="45.9446" lon="4.78605">
        <ele>241</ele>
        <time>2018-07-03T08:53:21Z</time>
      </trkpt>
      <trkpt lat="45.94464" lon="4.78614">
        <ele>241</ele>
        <time>2018-07-03T08:53:24Z</time>
      </trkpt>
      <trkpt lat="45.94465" lon="4.78617">
        <ele>241</ele>
        <time>2018-07-03T08:53:25Z</time>
      </trkpt>
      <trkpt lat="45.94468" lon="4.78626">
        <ele>241</ele>
        <time>2018-07-03T08:53:28Z</time>
      </trkpt>
      <trkpt lat="45.94469" lon="4.78629">
        <ele>241</ele>
        <time>2018-07-03T08:53:29Z</time>
      </trkpt>
      <trkpt lat="45.9447" lon="4.78639">
        <ele>241</ele>
        <time>2018-07-03T08:53:32Z</time>
      </trkpt>
      <trkpt lat="45.9447" lon="4.78642">
        <ele>241</ele>
        <time>2018-07-03T08:53:33Z</time>
      </trkpt>
      <trkpt lat="45.94471" lon="4.78654">
        <ele>241</ele>
        <time>2018-07-03T08:53:37Z</time>
      </trkpt>
      <trkpt lat="45.94472" lon="4.78657">
        <ele>241</ele>
        <time>2018-07-03T08:53:38Z</time>
      </trkpt>
      <trkpt lat="45.94474" lon="4.78669">
        <ele>244</ele>
        <time>2018-07-03T08:53:42Z</time>
      </trkpt>
      <trkpt lat="45.94474" lon="4.78671">
        <ele>244</ele>
        <time>2018-07-03T08:53:43Z</time>
      </trkpt>
      <trkpt lat="45.94475" lon="4.78683">
        <ele>244</ele>
        <time>2018-07-03T08:53:48Z</time>
      </trkpt>
      <trkpt lat="45.94475" lon="4.78686">
        <ele>244</ele>
        <time>2018-07-03T08:53:49Z</time>
      </trkpt>
      <trkpt lat="45.94476" lon="4.78697">
        <ele>244</ele>
        <time>2018-07-03T08:53:54Z</time>
      </trkpt>
      <trkpt lat="45.94477" lon="4.787">
        <ele>245</ele>
        <time>2018-07-03T08:53:55Z</time>
      </trkpt>
      <trkpt lat="45.94476" lon="4.7871">
        <ele>245</ele>
        <time>2018-07-03T08:53:59Z</time>
      </trkpt>
      <trkpt lat="45.94476" lon="4.78714">
        <ele>245</ele>
        <time>2018-07-03T08:54:00Z</time>
      </trkpt>
      <trkpt lat="45.94477" lon="4.78724">
        <ele>246</ele>
        <time>2018-07-03T08:54:03Z</time>
      </trkpt>
      <trkpt lat="45.94477" lon="4.78727">
        <ele>246</ele>
        <time>2018-07-03T08:54:04Z</time>
      </trkpt>
      <trkpt lat="45.94479" lon="4.78738">
        <ele>246</ele>
        <time>2018-07-03T08:54:07Z</time>
      </trkpt>
      <trkpt lat="45.94479" lon="4.78742">
        <ele>246</ele>
        <time>2018-07-03T08:54:08Z</time>
      </trkpt>
      <trkpt lat="45.94481" lon="4.78752">
        <ele>249</ele>
        <time>2018-07-03T08:54:11Z</time>
      </trkpt>
      <trkpt lat="45.94481" lon="4.78755">
        <ele>249</ele>
        <time>2018-07-03T08:54:12Z</time>
      </trkpt>
      <trkpt lat="45.94479" lon="4.78766">
        <ele>249</ele>
        <time>2018-07-03T08:54:16Z</time>
      </trkpt>
      <trkpt lat="45.94479" lon="4.78769">
        <ele>249</ele>
        <time>2018-07-03T08:54:17Z</time>
      </trkpt>
      <trkpt lat="45.94475" lon="4.78779">
        <ele>250</ele>
        <time>2018-07-03T08:54:21Z</time>
      </trkpt>
      <trkpt lat="45.94474" lon="4.78782">
        <ele>250</ele>
        <time>2018-07-03T08:54:22Z</time>
      </trkpt>
      <trkpt lat="45.94471" lon="4.78792">
        <ele>250</ele>
        <time>2018-07-03T08:54:26Z</time>
      </trkpt>
      <trkpt lat="45.9447" lon="4.78794">
        <ele>250</ele>
        <time>2018-07-03T08:54:27Z</time>
      </trkpt>
      <trkpt lat="45.94467" lon="4.78803">
        <ele>251</ele>
        <time>2018-07-03T08:54:32Z</time>
      </trkpt>
      <trkpt lat="45.94466" lon="4.78806">
        <ele>251</ele>
        <time>2018-07-03T08:54:33Z</time>
      </trkpt>
      <trkpt lat="45.94464" lon="4.78815">
        <ele>251</ele>
        <time>2018-07-03T08:54:36Z</time>
      </trkpt>
      <trkpt lat="45.94463" lon="4.78819">
        <ele>251</ele>
        <time>2018-07-03T08:54:37Z</time>
      </trkpt>
      <trkpt lat="45.94462" lon="4.7883">
        <ele>251</ele>
        <time>2018-07-03T08:54:40Z</time>
      </trkpt>
      <trkpt lat="45.94462" lon="4.78833">
        <ele>251</ele>
        <time>2018-07-03T08:54:41Z</time>
      </trkpt>
      <trkpt lat="45.94462" lon="4.78846">
        <ele>253</ele>
        <time>2018-07-03T08:54:46Z</time>
      </trkpt>
      <trkpt lat="45.94462" lon="4.78848">
        <ele>253</ele>
        <time>2018-07-03T08:54:47Z</time>
      </trkpt>
      <trkpt lat="45.94459" lon="4.78857">
        <ele>253</ele>
        <time>2018-07-03T08:54:51Z</time>
      </trkpt>
      <trkpt lat="45.94457" lon="4.7886">
        <ele>253</ele>
        <time>2018-07-03T08:54:52Z</time>
      </trkpt>
      <trkpt lat="45.94454" lon="4.78869">
        <ele>253</ele>
        <time>2018-07-03T08:54:55Z</time>
      </trkpt>
      <trkpt lat="45.94454" lon="4.78873">
        <ele>253</ele>
        <time>2018-07-03T08:54:56Z</time>
      </trkpt>
      <trkpt lat="45.94453" lon="4.78886">
        <ele>253</ele>
        <time>2018-07-03T08:55:02Z</time>
      </trkpt>
      <trkpt lat="45.94454" lon="4.78888">
        <ele>253</ele>
        <time>2018-07-03T08:55:03Z</time>
      </trkpt>
      <trkpt lat="45.94456" lon="4.78899">
        <ele>253</ele>
        <time>2018-07-03T08:55:07Z</time>
      </trkpt>
      <trkpt lat="45.94456" lon="4.78902">
        <ele>253</ele>
        <time>2018-07-03T08:55:08Z</time>
      </trkpt>
      <trkpt lat="45.94457" lon="4.78911">
        <ele>253</ele>
        <time>2018-07-03T08:55:11Z</time>
      </trkpt>
      <trkpt lat="45.94457" lon="4.78915">
        <ele>253</ele>
        <time>2018-07-03T08:55:12Z</time>
      </trkpt>
      <trkpt lat="45.94459" lon="4.78926">
        <ele>254</ele>
        <time>2018-07-03T08:55:15Z</time>
      </trkpt>
      <trkpt lat="45.94459" lon="4.78929">
        <ele>254</ele>
        <time>2018-07-03T08:55:16Z</time>
      </trkpt>
      <trkpt lat="45.94461" lon="4.78939">
        <ele>254</ele>
        <time>2018-07-03T08:55:19Z</time>
      </trkpt>
      <trkpt lat="45.94461" lon="4.78943">
        <ele>254</ele>
        <time>2018-07-03T08:55:20Z</time>
      </trkpt>
      <trkpt lat="45.94464" lon="4.78953">
        <ele>254</ele>
        <time>2018-07-03T08:55:23Z</time>
      </trkpt>
      <trkpt lat="45.94465" lon="4.78955">
        <ele>254</ele>
        <time>2018-07-03T08:55:24Z</time>
      </trkpt>
      <trkpt lat="45.94469" lon="4.78964">
        <ele>254</ele>
        <time>2018-07-03T08:55:27Z</time>
      </trkpt>
      <trkpt lat="45.9447" lon="4.78967">
        <ele>254</ele>
        <time>2018-07-03T08:55:28Z</time>
      </trkpt>
      <trkpt lat="45.94474" lon="4.78976">
        <ele>254</ele>
        <time>2018-07-03T08:55:31Z</time>
      </trkpt>
      <trkpt lat="45.94475" lon="4.78979">
        <ele>254</ele>
        <time>2018-07-03T08:55:32Z</time>
      </trkpt>
      <trkpt lat="45.9448" lon="4.78986">
        <ele>254</ele>
        <time>2018-07-03T08:55:35Z</time>
      </trkpt>
      <trkpt lat="45.94482" lon="4.78989">
        <ele>254</ele>
        <time>2018-07-03T08:55:36Z</time>
      </trkpt>
      <trkpt lat="45.94487" lon="4.78998">
        <ele>254</ele>
        <time>2018-07-03T08:55:39Z</time>
      </trkpt>
      <trkpt lat="45.94489" lon="4.79001">
        <ele>254</ele>
        <time>2018-07-03T08:55:40Z</time>
      </trkpt>
      <trkpt lat="45.94492" lon="4.79007">
        <ele>254</ele>
        <time>2018-07-03T08:55:42Z</time>
      </trkpt>
      <trkpt lat="45.94498" lon="4.79018">
        <ele>254</ele>
        <time>2018-07-03T08:55:43Z</time>
      </trkpt>
      <trkpt lat="45.94503" lon="4.79026">
        <ele>255</ele>
        <time>2018-07-03T08:55:47Z</time>
      </trkpt>
      <trkpt lat="45.94504" lon="4.79029">
        <ele>255</ele>
        <time>2018-07-03T08:55:48Z</time>
      </trkpt>
      <trkpt lat="45.94508" lon="4.79038">
        <ele>255</ele>
        <time>2018-07-03T08:55:52Z</time>
      </trkpt>
      <trkpt lat="45.9451" lon="4.7904">
        <ele>255</ele>
        <time>2018-07-03T08:55:53Z</time>
      </trkpt>
      <trkpt lat="45.94514" lon="4.79048">
        <ele>255</ele>
        <time>2018-07-03T08:55:56Z</time>
      </trkpt>
      <trkpt lat="45.94515" lon="4.79051">
        <ele>255</ele>
        <time>2018-07-03T08:55:57Z</time>
      </trkpt>
      <trkpt lat="45.9452" lon="4.7906">
        <ele>255</ele>
        <time>2018-07-03T08:56:00Z</time>
      </trkpt>
      <trkpt lat="45.94521" lon="4.79063">
        <ele>255</ele>
        <time>2018-07-03T08:56:01Z</time>
      </trkpt>
      <trkpt lat="45.94525" lon="4.79071">
        <ele>255</ele>
        <time>2018-07-03T08:56:03Z</time>
      </trkpt>
      <trkpt lat="45.94527" lon="4.79075">
        <ele>255</ele>
        <time>2018-07-03T08:56:04Z</time>
      </trkpt>
      <trkpt lat="45.9453" lon="4.79083">
        <ele>255</ele>
        <time>2018-07-03T08:56:06Z</time>
      </trkpt>
      <trkpt lat="45.94536" lon="4.79096">
        <ele>256</ele>
        <time>2018-07-03T08:56:07Z</time>
      </trkpt>
      <trkpt lat="45.94542" lon="4.79104">
        <ele>256</ele>
        <time>2018-07-03T08:56:09Z</time>
      </trkpt>
      <trkpt lat="45.94544" lon="4.79108">
        <ele>256</ele>
        <time>2018-07-03T08:56:10Z</time>
      </trkpt>
      <trkpt lat="45.94549" lon="4.79117">
        <ele>256</ele>
        <time>2018-07-03T08:56:12Z</time>
      </trkpt>
      <trkpt lat="45.94552" lon="4.79121">
        <ele>256</ele>
        <time>2018-07-03T08:56:13Z</time>
      </trkpt>
      <trkpt lat="45.94555" lon="4.7913">
        <ele>257</ele>
        <time>2018-07-03T08:56:15Z</time>
      </trkpt>
      <trkpt lat="45.94557" lon="4.79135">
        <ele>257</ele>
        <time>2018-07-03T08:56:16Z</time>
      </trkpt>
      <trkpt lat="45.9456" lon="4.79145">
        <ele>257</ele>
        <time>2018-07-03T08:56:18Z</time>
      </trkpt>
      <trkpt lat="45.94562" lon="4.79151">
        <ele>257</ele>
        <time>2018-07-03T08:56:19Z</time>
      </trkpt>
      <trkpt lat="45.94565" lon="4.79161">
        <ele>257</ele>
        <time>2018-07-03T08:56:21Z</time>
      </trkpt>
      <trkpt lat="45.94568" lon="4.79166">
        <ele>258</ele>
        <time>2018-07-03T08:56:22Z</time>
      </trkpt>
      <trkpt lat="45.94572" lon="4.79173">
        <ele>257</ele>
        <time>2018-07-03T08:56:23Z</time>
      </trkpt>
      <trkpt lat="45.94573" lon="4.79179">
        <ele>257</ele>
        <time>2018-07-03T08:56:24Z</time>
      </trkpt>
      <trkpt lat="45.94576" lon="4.79191">
        <ele>257</ele>
        <time>2018-07-03T08:56:26Z</time>
      </trkpt>
      <trkpt lat="45.94579" lon="4.79194">
        <ele>256</ele>
        <time>2018-07-03T08:56:27Z</time>
      </trkpt>
      <trkpt lat="45.94586" lon="4.79202">
        <ele>257</ele>
        <time>2018-07-03T08:56:29Z</time>
      </trkpt>
      <trkpt lat="45.94591" lon="4.79205">
        <ele>257</ele>
        <time>2018-07-03T08:56:30Z</time>
      </trkpt>
      <trkpt lat="45.94593" lon="4.79212">
        <ele>257</ele>
        <time>2018-07-03T08:56:31Z</time>
      </trkpt>
      <trkpt lat="45.94596" lon="4.79217">
        <ele>257</ele>
        <time>2018-07-03T08:56:32Z</time>
      </trkpt>
      <trkpt lat="45.94599" lon="4.79222">
        <ele>256</ele>
        <time>2018-07-03T08:56:33Z</time>
      </trkpt>
      <trkpt lat="45.94602" lon="4.79228">
        <ele>256</ele>
        <time>2018-07-03T08:56:34Z</time>
      </trkpt>
      <trkpt lat="45.94609" lon="4.79236">
        <ele>256</ele>
        <time>2018-07-03T08:56:36Z</time>
      </trkpt>
      <trkpt lat="45.94609" lon="4.79238">
        <ele>256</ele>
        <time>2018-07-03T08:56:37Z</time>
      </trkpt>
      <trkpt lat="45.94612" lon="4.7925">
        <ele>256</ele>
        <time>2018-07-03T08:56:39Z</time>
      </trkpt>
      <trkpt lat="45.94615" lon="4.79254">
        <ele>255</ele>
        <time>2018-07-03T08:56:40Z</time>
      </trkpt>
      <trkpt lat="45.94618" lon="4.79261">
        <ele>255</ele>
        <time>2018-07-03T08:56:41Z</time>
      </trkpt>
      <trkpt lat="45.94623" lon="4.79265">
        <ele>255</ele>
        <time>2018-07-03T08:56:42Z</time>
      </trkpt>
      <trkpt lat="45.94628" lon="4.79276">
        <ele>254</ele>
        <time>2018-07-03T08:56:44Z</time>
      </trkpt>
      <trkpt lat="45.94631" lon="4.79279">
        <ele>254</ele>
        <time>2018-07-03T08:56:45Z</time>
      </trkpt>
      <trkpt lat="45.94633" lon="4.79284">
        <ele>254</ele>
        <time>2018-07-03T08:56:47Z</time>
      </trkpt>
      <trkpt lat="45.94636" lon="4.79292">
        <ele>254</ele>
        <time>2018-07-03T08:56:48Z</time>
      </trkpt>
      <trkpt lat="45.94641" lon="4.79302">
        <ele>254</ele>
        <time>2018-07-03T08:56:50Z</time>
      </trkpt>
      <trkpt lat="45.94644" lon="4.79307">
        <ele>254</ele>
        <time>2018-07-03T08:56:51Z</time>
      </trkpt>
      <trkpt lat="45.9465" lon="4.79315">
        <ele>254</ele>
        <time>2018-07-03T08:56:53Z</time>
      </trkpt>
      <trkpt lat="45.94652" lon="4.7932">
        <ele>254</ele>
        <time>2018-07-03T08:56:54Z</time>
      </trkpt>
      <trkpt lat="45.94657" lon="4.7933">
        <ele>254</ele>
        <time>2018-07-03T08:56:56Z</time>
      </trkpt>
      <trkpt lat="45.94659" lon="4.79335">
        <ele>254</ele>
        <time>2018-07-03T08:56:57Z</time>
      </trkpt>
      <trkpt lat="45.94664" lon="4.79344">
        <ele>254</ele>
        <time>2018-07-03T08:56:59Z</time>
      </trkpt>
      <trkpt lat="45.94668" lon="4.79351">
        <ele>253</ele>
        <time>2018-07-03T08:57:00Z</time>
      </trkpt>
      <trkpt lat="45.94671" lon="4.79357">
        <ele>253</ele>
        <time>2018-07-03T08:57:01Z</time>
      </trkpt>
      <trkpt lat="45.94674" lon="4.79361">
        <ele>253</ele>
        <time>2018-07-03T08:57:02Z</time>
      </trkpt>
      <trkpt lat="45.94679" lon="4.79371">
        <ele>253</ele>
        <time>2018-07-03T08:57:04Z</time>
      </trkpt>
      <trkpt lat="45.94681" lon="4.79377">
        <ele>253</ele>
        <time>2018-07-03T08:57:05Z</time>
      </trkpt>
      <trkpt lat="45.94686" lon="4.79387">
        <ele>253</ele>
        <time>2018-07-03T08:57:07Z</time>
      </trkpt>
      <trkpt lat="45.94688" lon="4.79392">
        <ele>253</ele>
        <time>2018-07-03T08:57:08Z</time>
      </trkpt>
      <trkpt lat="45.94693" lon="4.79402">
        <ele>253</ele>
        <time>2018-07-03T08:57:10Z</time>
      </trkpt>
      <trkpt lat="45.94696" lon="4.79407">
        <ele>253</ele>
        <time>2018-07-03T08:57:11Z</time>
      </trkpt>
      <trkpt lat="45.94701" lon="4.79416">
        <ele>253</ele>
        <time>2018-07-03T08:57:13Z</time>
      </trkpt>
      <trkpt lat="45.94703" lon="4.79421">
        <ele>253</ele>
        <time>2018-07-03T08:57:14Z</time>
      </trkpt>
      <trkpt lat="45.94708" lon="4.79432">
        <ele>253</ele>
        <time>2018-07-03T08:57:16Z</time>
      </trkpt>
      <trkpt lat="45.94711" lon="4.79438">
        <ele>253</ele>
        <time>2018-07-03T08:57:17Z</time>
      </trkpt>
      <trkpt lat="45.94714" lon="4.79444">
        <ele>253</ele>
        <time>2018-07-03T08:57:18Z</time>
      </trkpt>
      <trkpt lat="45.94717" lon="4.79451">
        <ele>253</ele>
        <time>2018-07-03T08:57:19Z</time>
      </trkpt>
      <trkpt lat="45.94719" lon="4.79458">
        <ele>253</ele>
        <time>2018-07-03T08:57:20Z</time>
      </trkpt>
      <trkpt lat="45.94723" lon="4.79464">
        <ele>253</ele>
        <time>2018-07-03T08:57:21Z</time>
      </trkpt>
      <trkpt lat="45.94725" lon="4.79471">
        <ele>253</ele>
        <time>2018-07-03T08:57:22Z</time>
      </trkpt>
      <trkpt lat="45.94728" lon="4.79478">
        <ele>253</ele>
        <time>2018-07-03T08:57:23Z</time>
      </trkpt>
      <trkpt lat="45.94731" lon="4.79485">
        <ele>253</ele>
        <time>2018-07-03T08:57:24Z</time>
      </trkpt>
      <trkpt lat="45.94734" lon="4.79491">
        <ele>253</ele>
        <time>2018-07-03T08:57:25Z</time>
      </trkpt>
      <trkpt lat="45.94737" lon="4.79498">
        <ele>252</ele>
        <time>2018-07-03T08:57:26Z</time>
      </trkpt>
      <trkpt lat="45.9474" lon="4.79505">
        <ele>252</ele>
        <time>2018-07-03T08:57:27Z</time>
      </trkpt>
      <trkpt lat="45.94742" lon="4.79512">
        <ele>252</ele>
        <time>2018-07-03T08:57:28Z</time>
      </trkpt>
      <trkpt lat="45.94744" lon="4.79518">
        <ele>252</ele>
        <time>2018-07-03T08:57:29Z</time>
      </trkpt>
      <trkpt lat="45.94747" lon="4.79525">
        <ele>253</ele>
        <time>2018-07-03T08:57:30Z</time>
      </trkpt>
      <trkpt lat="45.94748" lon="4.79531">
        <ele>253</ele>
        <time>2018-07-03T08:57:31Z</time>
      </trkpt>
      <trkpt lat="45.94751" lon="4.79537">
        <ele>252</ele>
        <time>2018-07-03T08:57:32Z</time>
      </trkpt>
      <trkpt lat="45.94753" lon="4.79542">
        <ele>252</ele>
        <time>2018-07-03T08:57:33Z</time>
      </trkpt>
      <trkpt lat="45.94759" lon="4.79552">
        <ele>252</ele>
        <time>2018-07-03T08:57:35Z</time>
      </trkpt>
      <trkpt lat="45.9476" lon="4.79558">
        <ele>252</ele>
        <time>2018-07-03T08:57:36Z</time>
      </trkpt>
      <trkpt lat="45.94762" lon="4.79571">
        <ele>252</ele>
        <time>2018-07-03T08:57:38Z</time>
      </trkpt>
      <trkpt lat="45.94762" lon="4.79576">
        <ele>252</ele>
        <time>2018-07-03T08:57:39Z</time>
      </trkpt>
      <trkpt lat="45.94763" lon="4.79583">
        <ele>252</ele>
        <time>2018-07-03T08:57:40Z</time>
      </trkpt>
      <trkpt lat="45.94763" lon="4.79592">
        <ele>253</ele>
        <time>2018-07-03T08:57:41Z</time>
      </trkpt>
      <trkpt lat="45.94766" lon="4.79603">
        <ele>253</ele>
        <time>2018-07-03T08:57:43Z</time>
      </trkpt>
      <trkpt lat="45.94766" lon="4.79609">
        <ele>253</ele>
        <time>2018-07-03T08:57:44Z</time>
      </trkpt>
      <trkpt lat="45.94768" lon="4.7962">
        <ele>253</ele>
        <time>2018-07-03T08:57:46Z</time>
      </trkpt>
      <trkpt lat="45.9477" lon="4.79626">
        <ele>253</ele>
        <time>2018-07-03T08:57:47Z</time>
      </trkpt>
      <trkpt lat="45.94772" lon="4.79638">
        <ele>254</ele>
        <time>2018-07-03T08:57:49Z</time>
      </trkpt>
      <trkpt lat="45.94773" lon="4.79643">
        <ele>254</ele>
        <time>2018-07-03T08:57:50Z</time>
      </trkpt>
      <trkpt lat="45.94774" lon="4.79656">
        <ele>254</ele>
        <time>2018-07-03T08:57:52Z</time>
      </trkpt>
      <trkpt lat="45.94777" lon="4.79661">
        <ele>254</ele>
        <time>2018-07-03T08:57:53Z</time>
      </trkpt>
      <trkpt lat="45.94781" lon="4.79671">
        <ele>254</ele>
        <time>2018-07-03T08:57:55Z</time>
      </trkpt>
      <trkpt lat="45.94784" lon="4.79678">
        <ele>254</ele>
        <time>2018-07-03T08:57:56Z</time>
      </trkpt>
      <trkpt lat="45.94785" lon="4.79689">
        <ele>254</ele>
        <time>2018-07-03T08:57:59Z</time>
      </trkpt>
      <trkpt lat="45.94789" lon="4.797">
        <ele>254</ele>
        <time>2018-07-03T08:58:00Z</time>
      </trkpt>
      <trkpt lat="45.94793" lon="4.79709">
        <ele>254</ele>
        <time>2018-07-03T08:58:02Z</time>
      </trkpt>
      <trkpt lat="45.94794" lon="4.79715">
        <ele>254</ele>
        <time>2018-07-03T08:58:03Z</time>
      </trkpt>
      <trkpt lat="45.94796" lon="4.79727">
        <ele>254</ele>
        <time>2018-07-03T08:58:05Z</time>
      </trkpt>
      <trkpt lat="45.94797" lon="4.79734">
        <ele>254</ele>
        <time>2018-07-03T08:58:06Z</time>
      </trkpt>
      <trkpt lat="45.94799" lon="4.79741">
        <ele>254</ele>
        <time>2018-07-03T08:58:07Z</time>
      </trkpt>
      <trkpt lat="45.94801" lon="4.79749">
        <ele>254</ele>
        <time>2018-07-03T08:58:08Z</time>
      </trkpt>
      <trkpt lat="45.94804" lon="4.79756">
        <ele>254</ele>
        <time>2018-07-03T08:58:09Z</time>
      </trkpt>
      <trkpt lat="45.94805" lon="4.79762">
        <ele>254</ele>
        <time>2018-07-03T08:58:10Z</time>
      </trkpt>
      <trkpt lat="45.94807" lon="4.79769">
        <ele>254</ele>
        <time>2018-07-03T08:58:11Z</time>
      </trkpt>
      <trkpt lat="45.94809" lon="4.79776">
        <ele>254</ele>
        <time>2018-07-03T08:58:12Z</time>
      </trkpt>
      <trkpt lat="45.94811" lon="4.79785">
        <ele>254</ele>
        <time>2018-07-03T08:58:13Z</time>
      </trkpt>
      <trkpt lat="45.94813" lon="4.79792">
        <ele>254</ele>
        <time>2018-07-03T08:58:14Z</time>
      </trkpt>
      <trkpt lat="45.94815" lon="4.79799">
        <ele>254</ele>
        <time>2018-07-03T08:58:15Z</time>
      </trkpt>
      <trkpt lat="45.94815" lon="4.79806">
        <ele>254</ele>
        <time>2018-07-03T08:58:16Z</time>
      </trkpt>
      <trkpt lat="45.94818" lon="4.79818">
        <ele>254</ele>
        <time>2018-07-03T08:58:18Z</time>
      </trkpt>
      <trkpt lat="45.9482" lon="4.79824">
        <ele>254</ele>
        <time>2018-07-03T08:58:19Z</time>
      </trkpt>
      <trkpt lat="45.94822" lon="4.79831">
        <ele>254</ele>
        <time>2018-07-03T08:58:20Z</time>
      </trkpt>
      <trkpt lat="45.94824" lon="4.79839">
        <ele>254</ele>
        <time>2018-07-03T08:58:21Z</time>
      </trkpt>
      <trkpt lat="45.94827" lon="4.79846">
        <ele>254</ele>
        <time>2018-07-03T08:58:22Z</time>
      </trkpt>
      <trkpt lat="45.94829" lon="4.79854">
        <ele>254</ele>
        <time>2018-07-03T08:58:23Z</time>
      </trkpt>
      <trkpt lat="45.94831" lon="4.79861">
        <ele>255</ele>
        <time>2018-07-03T08:58:24Z</time>
      </trkpt>
      <trkpt lat="45.94834" lon="4.79869">
        <ele>255</ele>
        <time>2018-07-03T08:58:25Z</time>
      </trkpt>
      <trkpt lat="45.94835" lon="4.79877">
        <ele>255</ele>
        <time>2018-07-03T08:58:26Z</time>
      </trkpt>
      <trkpt lat="45.94836" lon="4.79883">
        <ele>255</ele>
        <time>2018-07-03T08:58:27Z</time>
      </trkpt>
      <trkpt lat="45.94839" lon="4.79894">
        <ele>255</ele>
        <time>2018-07-03T08:58:29Z</time>
      </trkpt>
      <trkpt lat="45.94842" lon="4.79899">
        <ele>255</ele>
        <time>2018-07-03T08:58:30Z</time>
      </trkpt>
      <trkpt lat="45.94845" lon="4.79909">
        <ele>256</ele>
        <time>2018-07-03T08:58:32Z</time>
      </trkpt>
      <trkpt lat="45.94846" lon="4.79911">
        <ele>256</ele>
        <time>2018-07-03T08:58:33Z</time>
      </trkpt>
      <trkpt lat="45.94849" lon="4.79918">
        <ele>256</ele>
        <time>2018-07-03T08:58:34Z</time>
      </trkpt>
      <trkpt lat="45.94851" lon="4.79923">
        <ele>256</ele>
        <time>2018-07-03T08:58:35Z</time>
      </trkpt>
      <trkpt lat="45.94855" lon="4.79927">
        <ele>256</ele>
        <time>2018-07-03T08:58:36Z</time>
      </trkpt>
      <trkpt lat="45.94857" lon="4.79933">
        <ele>256</ele>
        <time>2018-07-03T08:58:37Z</time>
      </trkpt>
      <trkpt lat="45.94861" lon="4.79938">
        <ele>256</ele>
        <time>2018-07-03T08:58:38Z</time>
      </trkpt>
      <trkpt lat="45.94862" lon="4.79944">
        <ele>256</ele>
        <time>2018-07-03T08:58:39Z</time>
      </trkpt>
      <trkpt lat="45.94866" lon="4.79949">
        <ele>256</ele>
        <time>2018-07-03T08:58:40Z</time>
      </trkpt>
      <trkpt lat="45.94869" lon="4.79955">
        <ele>256</ele>
        <time>2018-07-03T08:58:41Z</time>
      </trkpt>
      <trkpt lat="45.94871" lon="4.79961">
        <ele>256</ele>
        <time>2018-07-03T08:58:42Z</time>
      </trkpt>
      <trkpt lat="45.94874" lon="4.79967">
        <ele>256</ele>
        <time>2018-07-03T08:58:43Z</time>
      </trkpt>
      <trkpt lat="45.94876" lon="4.79973">
        <ele>256</ele>
        <time>2018-07-03T08:58:44Z</time>
      </trkpt>
      <trkpt lat="45.94878" lon="4.79979">
        <ele>256</ele>
        <time>2018-07-03T08:58:45Z</time>
      </trkpt>
      <trkpt lat="45.94882" lon="4.79991">
        <ele>256</ele>
        <time>2018-07-03T08:58:47Z</time>
      </trkpt>
      <trkpt lat="45.94884" lon="4.79996">
        <ele>256</ele>
        <time>2018-07-03T08:58:48Z</time>
      </trkpt>
      <trkpt lat="45.94886" lon="4.80002">
        <ele>256</ele>
        <time>2018-07-03T08:58:49Z</time>
      </trkpt>
      <trkpt lat="45.94887" lon="4.80009">
        <ele>256</ele>
        <time>2018-07-03T08:58:50Z</time>
      </trkpt>
      <trkpt lat="45.9489" lon="4.80015">
        <ele>256</ele>
        <time>2018-07-03T08:58:51Z</time>
      </trkpt>
      <trkpt lat="45.94892" lon="4.80021">
        <ele>256</ele>
        <time>2018-07-03T08:58:52Z</time>
      </trkpt>
      <trkpt lat="45.94894" lon="4.80028">
        <ele>256</ele>
        <time>2018-07-03T08:58:53Z</time>
      </trkpt>
      <trkpt lat="45.94895" lon="4.80033">
        <ele>256</ele>
        <time>2018-07-03T08:58:54Z</time>
      </trkpt>
      <trkpt lat="45.94896" lon="4.80039">
        <ele>256</ele>
        <time>2018-07-03T08:58:55Z</time>
      </trkpt>
      <trkpt lat="45.94899" lon="4.80046">
        <ele>256</ele>
        <time>2018-07-03T08:58:56Z</time>
      </trkpt>
      <trkpt lat="45.94902" lon="4.80058">
        <ele>256</ele>
        <time>2018-07-03T08:58:58Z</time>
      </trkpt>
      <trkpt lat="45.94904" lon="4.80065">
        <ele>256</ele>
        <time>2018-07-03T08:58:59Z</time>
      </trkpt>
      <trkpt lat="45.94906" lon="4.80071">
        <ele>256</ele>
        <time>2018-07-03T08:59:00Z</time>
      </trkpt>
      <trkpt lat="45.94908" lon="4.80078">
        <ele>257</ele>
        <time>2018-07-03T08:59:01Z</time>
      </trkpt>
      <trkpt lat="45.94911" lon="4.80083">
        <ele>257</ele>
        <time>2018-07-03T08:59:02Z</time>
      </trkpt>
      <trkpt lat="45.94912" lon="4.80089">
        <ele>257</ele>
        <time>2018-07-03T08:59:03Z</time>
      </trkpt>
      <trkpt lat="45.94915" lon="4.801">
        <ele>256</ele>
        <time>2018-07-03T08:59:05Z</time>
      </trkpt>
      <trkpt lat="45.94917" lon="4.80106">
        <ele>256</ele>
        <time>2018-07-03T08:59:06Z</time>
      </trkpt>
      <trkpt lat="45.94919" lon="4.80112">
        <ele>256</ele>
        <time>2018-07-03T08:59:07Z</time>
      </trkpt>
      <trkpt lat="45.94919" lon="4.80119">
        <ele>256</ele>
        <time>2018-07-03T08:59:08Z</time>
      </trkpt>
      <trkpt lat="45.94923" lon="4.8013">
        <ele>256</ele>
        <time>2018-07-03T08:59:10Z</time>
      </trkpt>
      <trkpt lat="45.94923" lon="4.80135">
        <ele>256</ele>
        <time>2018-07-03T08:59:11Z</time>
      </trkpt>
      <trkpt lat="45.94927" lon="4.80145">
        <ele>256</ele>
        <time>2018-07-03T08:59:13Z</time>
      </trkpt>
      <trkpt lat="45.94927" lon="4.80151">
        <ele>255</ele>
        <time>2018-07-03T08:59:14Z</time>
      </trkpt>
      <trkpt lat="45.94928" lon="4.80158">
        <ele>255</ele>
        <time>2018-07-03T08:59:15Z</time>
      </trkpt>
      <trkpt lat="45.94929" lon="4.80164">
        <ele>255</ele>
        <time>2018-07-03T08:59:16Z</time>
      </trkpt>
      <trkpt lat="45.9493" lon="4.80171">
        <ele>255</ele>
        <time>2018-07-03T08:59:17Z</time>
      </trkpt>
      <trkpt lat="45.94932" lon="4.80179">
        <ele>256</ele>
        <time>2018-07-03T08:59:18Z</time>
      </trkpt>
      <trkpt lat="45.94933" lon="4.80187">
        <ele>256</ele>
        <time>2018-07-03T08:59:19Z</time>
      </trkpt>
      <trkpt lat="45.94935" lon="4.80194">
        <ele>256</ele>
        <time>2018-07-03T08:59:20Z</time>
      </trkpt>
      <trkpt lat="45.94936" lon="4.80201">
        <ele>256</ele>
        <time>2018-07-03T08:59:21Z</time>
      </trkpt>
      <trkpt lat="45.94937" lon="4.80208">
        <ele>256</ele>
        <time>2018-07-03T08:59:22Z</time>
      </trkpt>
      <trkpt lat="45.94938" lon="4.80215">
        <ele>256</ele>
        <time>2018-07-03T08:59:23Z</time>
      </trkpt>
      <trkpt lat="45.94939" lon="4.80223">
        <ele>256</ele>
        <time>2018-07-03T08:59:24Z</time>
      </trkpt>
      <trkpt lat="45.9494" lon="4.80235">
        <ele>256</ele>
        <time>2018-07-03T08:59:26Z</time>
      </trkpt>
      <trkpt lat="45.94941" lon="4.80241">
        <ele>256</ele>
        <time>2018-07-03T08:59:27Z</time>
      </trkpt>
      <trkpt lat="45.94941" lon="4.80247">
        <ele>256</ele>
        <time>2018-07-03T08:59:28Z</time>
      </trkpt>
      <trkpt lat="45.9494" lon="4.80256">
        <ele>257</ele>
        <time>2018-07-03T08:59:29Z</time>
      </trkpt>
      <trkpt lat="45.94941" lon="4.80262">
        <ele>257</ele>
        <time>2018-07-03T08:59:30Z</time>
      </trkpt>
      <trkpt lat="45.94942" lon="4.8027">
        <ele>257</ele>
        <time>2018-07-03T08:59:31Z</time>
      </trkpt>
      <trkpt lat="45.94942" lon="4.80278">
        <ele>257</ele>
        <time>2018-07-03T08:59:32Z</time>
      </trkpt>
      <trkpt lat="45.94942" lon="4.80284">
        <ele>257</ele>
        <time>2018-07-03T08:59:33Z</time>
      </trkpt>
      <trkpt lat="45.94942" lon="4.80291">
        <ele>257</ele>
        <time>2018-07-03T08:59:34Z</time>
      </trkpt>
      <trkpt lat="45.94942" lon="4.80297">
        <ele>257</ele>
        <time>2018-07-03T08:59:35Z</time>
      </trkpt>
      <trkpt lat="45.94943" lon="4.80307">
        <ele>257</ele>
        <time>2018-07-03T08:59:36Z</time>
      </trkpt>
      <trkpt lat="45.94944" lon="4.80315">
        <ele>257</ele>
        <time>2018-07-03T08:59:37Z</time>
      </trkpt>
      <trkpt lat="45.94943" lon="4.80323">
        <ele>257</ele>
        <time>2018-07-03T08:59:38Z</time>
      </trkpt>
      <trkpt lat="45.94944" lon="4.80329">
        <ele>257</ele>
        <time>2018-07-03T08:59:39Z</time>
      </trkpt>
      <trkpt lat="45.94944" lon="4.80336">
        <ele>258</ele>
        <time>2018-07-03T08:59:40Z</time>
      </trkpt>
      <trkpt lat="45.94944" lon="4.80344">
        <ele>258</ele>
        <time>2018-07-03T08:59:41Z</time>
      </trkpt>
      <trkpt lat="45.94945" lon="4.80351">
        <ele>258</ele>
        <time>2018-07-03T08:59:42Z</time>
      </trkpt>
      <trkpt lat="45.94946" lon="4.80358">
        <ele>258</ele>
        <time>2018-07-03T08:59:43Z</time>
      </trkpt>
      <trkpt lat="45.94946" lon="4.80364">
        <ele>258</ele>
        <time>2018-07-03T08:59:44Z</time>
      </trkpt>
      <trkpt lat="45.94947" lon="4.80371">
        <ele>258</ele>
        <time>2018-07-03T08:59:45Z</time>
      </trkpt>
      <trkpt lat="45.94947" lon="4.80382">
        <ele>258</ele>
        <time>2018-07-03T08:59:47Z</time>
      </trkpt>
      <trkpt lat="45.94947" lon="4.80388">
        <ele>258</ele>
        <time>2018-07-03T08:59:48Z</time>
      </trkpt>
      <trkpt lat="45.94946" lon="4.80401">
        <ele>258</ele>
        <time>2018-07-03T08:59:50Z</time>
      </trkpt>
      <trkpt lat="45.94946" lon="4.80407">
        <ele>258</ele>
        <time>2018-07-03T08:59:51Z</time>
      </trkpt>
      <trkpt lat="45.94947" lon="4.80418">
        <ele>259</ele>
        <time>2018-07-03T08:59:53Z</time>
      </trkpt>
      <trkpt lat="45.94948" lon="4.80425">
        <ele>259</ele>
        <time>2018-07-03T08:59:54Z</time>
      </trkpt>
      <trkpt lat="45.94948" lon="4.80432">
        <ele>259</ele>
        <time>2018-07-03T08:59:55Z</time>
      </trkpt>
      <trkpt lat="45.94947" lon="4.80438">
        <ele>259</ele>
        <time>2018-07-03T08:59:56Z</time>
      </trkpt>
      <trkpt lat="45.94947" lon="4.80446">
        <ele>259</ele>
        <time>2018-07-03T08:59:57Z</time>
      </trkpt>
      <trkpt lat="45.94946" lon="4.80453">
        <ele>258</ele>
        <time>2018-07-03T08:59:58Z</time>
      </trkpt>
      <trkpt lat="45.94946" lon="4.80457">
        <ele>258</ele>
        <time>2018-07-03T08:59:59Z</time>
      </trkpt>
      <trkpt lat="45.94947" lon="4.80468">
        <ele>258</ele>
        <time>2018-07-03T09:00:00Z</time>
      </trkpt>
      <trkpt lat="45.94947" lon="4.80479">
        <ele>258</ele>
        <time>2018-07-03T09:00:02Z</time>
      </trkpt>
      <trkpt lat="45.94947" lon="4.80484">
        <ele>258</ele>
        <time>2018-07-03T09:00:03Z</time>
      </trkpt>
      <trkpt lat="45.94947" lon="4.80495">
        <ele>258</ele>
        <time>2018-07-03T09:00:05Z</time>
      </trkpt>
      <trkpt lat="45.94946" lon="4.80503">
        <ele>258</ele>
        <time>2018-07-03T09:00:06Z</time>
      </trkpt>
      <trkpt lat="45.94947" lon="4.8051">
        <ele>258</ele>
        <time>2018-07-03T09:00:07Z</time>
      </trkpt>
      <trkpt lat="45.94947" lon="4.80515">
        <ele>258</ele>
        <time>2018-07-03T09:00:08Z</time>
      </trkpt>
      <trkpt lat="45.94947" lon="4.80524">
        <ele>258</ele>
        <time>2018-07-03T09:00:09Z</time>
      </trkpt>
      <trkpt lat="45.94947" lon="4.80529">
        <ele>258</ele>
        <time>2018-07-03T09:00:10Z</time>
      </trkpt>
      <trkpt lat="45.94947" lon="4.80542">
        <ele>258</ele>
        <time>2018-07-03T09:00:12Z</time>
      </trkpt>
      <trkpt lat="45.94948" lon="4.80549">
        <ele>258</ele>
        <time>2018-07-03T09:00:13Z</time>
      </trkpt>
      <trkpt lat="45.94949" lon="4.80557">
        <ele>258</ele>
        <time>2018-07-03T09:00:14Z</time>
      </trkpt>
      <trkpt lat="45.94949" lon="4.80563">
        <ele>257</ele>
        <time>2018-07-03T09:00:15Z</time>
      </trkpt>
      <trkpt lat="45.94949" lon="4.80576">
        <ele>257</ele>
        <time>2018-07-03T09:00:17Z</time>
      </trkpt>
      <trkpt lat="45.94949" lon="4.80582">
        <ele>257</ele>
        <time>2018-07-03T09:00:18Z</time>
      </trkpt>
      <trkpt lat="45.94949" lon="4.80594">
        <ele>258</ele>
        <time>2018-07-03T09:00:20Z</time>
      </trkpt>
      <trkpt lat="45.94949" lon="4.80599">
        <ele>258</ele>
        <time>2018-07-03T09:00:21Z</time>
      </trkpt>
      <trkpt lat="45.94949" lon="4.80605">
        <ele>258</ele>
        <time>2018-07-03T09:00:22Z</time>
      </trkpt>
      <trkpt lat="45.94949" lon="4.80612">
        <ele>258</ele>
        <time>2018-07-03T09:00:23Z</time>
      </trkpt>
      <trkpt lat="45.9495" lon="4.80621">
        <ele>258</ele>
        <time>2018-07-03T09:00:25Z</time>
      </trkpt>
      <trkpt lat="45.94951" lon="4.80628">
        <ele>258</ele>
        <time>2018-07-03T09:00:26Z</time>
      </trkpt>
      <trkpt lat="45.94951" lon="4.80635">
        <ele>258</ele>
        <time>2018-07-03T09:00:27Z</time>
      </trkpt>
      <trkpt lat="45.94952" lon="4.80642">
        <ele>258</ele>
        <time>2018-07-03T09:00:28Z</time>
      </trkpt>
      <trkpt lat="45.94952" lon="4.8065">
        <ele>259</ele>
        <time>2018-07-03T09:00:29Z</time>
      </trkpt>
      <trkpt lat="45.94953" lon="4.80657">
        <ele>259</ele>
        <time>2018-07-03T09:00:30Z</time>
      </trkpt>
      <trkpt lat="45.94953" lon="4.80664">
        <ele>259</ele>
        <time>2018-07-03T09:00:31Z</time>
      </trkpt>
      <trkpt lat="45.94953" lon="4.8067">
        <ele>259</ele>
        <time>2018-07-03T09:00:32Z</time>
      </trkpt>
      <trkpt lat="45.94953" lon="4.80682">
        <ele>259</ele>
        <time>2018-07-03T09:00:34Z</time>
      </trkpt>
      <trkpt lat="45.94953" lon="4.80688">
        <ele>259</ele>
        <time>2018-07-03T09:00:35Z</time>
      </trkpt>
      <trkpt lat="45.94952" lon="4.807">
        <ele>259</ele>
        <time>2018-07-03T09:00:37Z</time>
      </trkpt>
      <trkpt lat="45.94953" lon="4.80706">
        <ele>259</ele>
        <time>2018-07-03T09:00:38Z</time>
      </trkpt>
      <trkpt lat="45.94953" lon="4.80714">
        <ele>259</ele>
        <time>2018-07-03T09:00:39Z</time>
      </trkpt>
      <trkpt lat="45.94953" lon="4.8072">
        <ele>259</ele>
        <time>2018-07-03T09:00:40Z</time>
      </trkpt>
      <trkpt lat="45.94953" lon="4.80732">
        <ele>259</ele>
        <time>2018-07-03T09:00:42Z</time>
      </trkpt>
      <trkpt lat="45.94953" lon="4.80735">
        <ele>259</ele>
        <time>2018-07-03T09:00:43Z</time>
      </trkpt>
      <trkpt lat="45.94952" lon="4.80743">
        <ele>259</ele>
        <time>2018-07-03T09:00:44Z</time>
      </trkpt>
      <trkpt lat="45.94951" lon="4.80749">
        <ele>259</ele>
        <time>2018-07-03T09:00:45Z</time>
      </trkpt>
      <trkpt lat="45.9495" lon="4.80761">
        <ele>259</ele>
        <time>2018-07-03T09:00:47Z</time>
      </trkpt>
      <trkpt lat="45.94949" lon="4.80766">
        <ele>259</ele>
        <time>2018-07-03T09:00:48Z</time>
      </trkpt>
      <trkpt lat="45.94946" lon="4.80777">
        <ele>259</ele>
        <time>2018-07-03T09:00:51Z</time>
      </trkpt>
      <trkpt lat="45.94946" lon="4.80781">
        <ele>259</ele>
        <time>2018-07-03T09:00:52Z</time>
      </trkpt>
      <trkpt lat="45.94944" lon="4.80793">
        <ele>259</ele>
        <time>2018-07-03T09:00:56Z</time>
      </trkpt>
      <trkpt lat="45.94943" lon="4.80796">
        <ele>259</ele>
        <time>2018-07-03T09:00:57Z</time>
      </trkpt>
      <trkpt lat="45.94943" lon="4.80808">
        <ele>258</ele>
        <time>2018-07-03T09:01:02Z</time>
      </trkpt>
      <trkpt lat="45.9495" lon="4.80817">
        <ele>258</ele>
        <time>2018-07-03T09:01:03Z</time>
      </trkpt>
      <trkpt lat="45.94956" lon="4.80822">
        <ele>258</ele>
        <time>2018-07-03T09:01:04Z</time>
      </trkpt>
      <trkpt lat="45.94958" lon="4.80827">
        <ele>258</ele>
        <time>2018-07-03T09:01:05Z</time>
      </trkpt>
      <trkpt lat="45.94959" lon="4.80834">
        <ele>259</ele>
        <time>2018-07-03T09:01:06Z</time>
      </trkpt>
      <trkpt lat="45.9496" lon="4.80841">
        <ele>259</ele>
        <time>2018-07-03T09:01:07Z</time>
      </trkpt>
      <trkpt lat="45.94964" lon="4.80853">
        <ele>259</ele>
        <time>2018-07-03T09:01:09Z</time>
      </trkpt>
      <trkpt lat="45.94965" lon="4.80859">
        <ele>259</ele>
        <time>2018-07-03T09:01:10Z</time>
      </trkpt>
      <trkpt lat="45.94966" lon="4.80865">
        <ele>259</ele>
        <time>2018-07-03T09:01:11Z</time>
      </trkpt>
      <trkpt lat="45.94967" lon="4.80872">
        <ele>259</ele>
        <time>2018-07-03T09:01:12Z</time>
      </trkpt>
      <trkpt lat="45.94967" lon="4.80879">
        <ele>258</ele>
        <time>2018-07-03T09:01:13Z</time>
      </trkpt>
      <trkpt lat="45.94969" lon="4.80887">
        <ele>258</ele>
        <time>2018-07-03T09:01:14Z</time>
      </trkpt>
      <trkpt lat="45.94971" lon="4.80893">
        <ele>258</ele>
        <time>2018-07-03T09:01:15Z</time>
      </trkpt>
      <trkpt lat="45.94972" lon="4.80899">
        <ele>258</ele>
        <time>2018-07-03T09:01:16Z</time>
      </trkpt>
      <trkpt lat="45.94973" lon="4.80906">
        <ele>258</ele>
        <time>2018-07-03T09:01:17Z</time>
      </trkpt>
      <trkpt lat="45.94974" lon="4.80912">
        <ele>258</ele>
        <time>2018-07-03T09:01:18Z</time>
      </trkpt>
      <trkpt lat="45.94976" lon="4.80925">
        <ele>258</ele>
        <time>2018-07-03T09:01:20Z</time>
      </trkpt>
      <trkpt lat="45.94976" lon="4.8093">
        <ele>258</ele>
        <time>2018-07-03T09:01:21Z</time>
      </trkpt>
      <trkpt lat="45.94977" lon="4.80937">
        <ele>258</ele>
        <time>2018-07-03T09:01:22Z</time>
      </trkpt>
      <trkpt lat="45.94978" lon="4.80944">
        <ele>258</ele>
        <time>2018-07-03T09:01:23Z</time>
      </trkpt>
      <trkpt lat="45.9498" lon="4.80951">
        <ele>258</ele>
        <time>2018-07-03T09:01:24Z</time>
      </trkpt>
      <trkpt lat="45.94981" lon="4.80958">
        <ele>258</ele>
        <time>2018-07-03T09:01:25Z</time>
      </trkpt>
      <trkpt lat="45.94983" lon="4.80964">
        <ele>258</ele>
        <time>2018-07-03T09:01:26Z</time>
      </trkpt>
      <trkpt lat="45.94984" lon="4.80971">
        <ele>258</ele>
        <time>2018-07-03T09:01:27Z</time>
      </trkpt>
      <trkpt lat="45.94985" lon="4.80979">
        <ele>258</ele>
        <time>2018-07-03T09:01:28Z</time>
      </trkpt>
      <trkpt lat="45.94986" lon="4.80986">
        <ele>258</ele>
        <time>2018-07-03T09:01:29Z</time>
      </trkpt>
      <trkpt lat="45.94986" lon="4.80993">
        <ele>257</ele>
        <time>2018-07-03T09:01:30Z</time>
      </trkpt>
      <trkpt lat="45.94987" lon="4.81">
        <ele>257</ele>
        <time>2018-07-03T09:01:31Z</time>
      </trkpt>
      <trkpt lat="45.94988" lon="4.81006">
        <ele>257</ele>
        <time>2018-07-03T09:01:32Z</time>
      </trkpt>
      <trkpt lat="45.94989" lon="4.81013">
        <ele>257</ele>
        <time>2018-07-03T09:01:33Z</time>
      </trkpt>
      <trkpt lat="45.94989" lon="4.8102">
        <ele>257</ele>
        <time>2018-07-03T09:01:34Z</time>
      </trkpt>
      <trkpt lat="45.9499" lon="4.81028">
        <ele>257</ele>
        <time>2018-07-03T09:01:35Z</time>
      </trkpt>
      <trkpt lat="45.9499" lon="4.81037">
        <ele>257</ele>
        <time>2018-07-03T09:01:36Z</time>
      </trkpt>
      <trkpt lat="45.9499" lon="4.81045">
        <ele>257</ele>
        <time>2018-07-03T09:01:37Z</time>
      </trkpt>
      <trkpt lat="45.94991" lon="4.81053">
        <ele>257</ele>
        <time>2018-07-03T09:01:38Z</time>
      </trkpt>
      <trkpt lat="45.94991" lon="4.81059">
        <ele>257</ele>
        <time>2018-07-03T09:01:39Z</time>
      </trkpt>
      <trkpt lat="45.94991" lon="4.81066">
        <ele>257</ele>
        <time>2018-07-03T09:01:40Z</time>
      </trkpt>
      <trkpt lat="45.94992" lon="4.81073">
        <ele>257</ele>
        <time>2018-07-03T09:01:41Z</time>
      </trkpt>
      <trkpt lat="45.94992" lon="4.8108">
        <ele>257</ele>
        <time>2018-07-03T09:01:42Z</time>
      </trkpt>
      <trkpt lat="45.94992" lon="4.81087">
        <ele>257</ele>
        <time>2018-07-03T09:01:43Z</time>
      </trkpt>
      <trkpt lat="45.94993" lon="4.81099">
        <ele>257</ele>
        <time>2018-07-03T09:01:45Z</time>
      </trkpt>
      <trkpt lat="45.94994" lon="4.81105">
        <ele>257</ele>
        <time>2018-07-03T09:01:46Z</time>
      </trkpt>
      <trkpt lat="45.94995" lon="4.81116">
        <ele>257</ele>
        <time>2018-07-03T09:01:48Z</time>
      </trkpt>
      <trkpt lat="45.94996" lon="4.81122">
        <ele>257</ele>
        <time>2018-07-03T09:01:49Z</time>
      </trkpt>
      <trkpt lat="45.94997" lon="4.81128">
        <ele>256</ele>
        <time>2018-07-03T09:01:50Z</time>
      </trkpt>
      <trkpt lat="45.94998" lon="4.81136">
        <ele>256</ele>
        <time>2018-07-03T09:01:51Z</time>
      </trkpt>
      <trkpt lat="45.95" lon="4.81143">
        <ele>256</ele>
        <time>2018-07-03T09:01:52Z</time>
      </trkpt>
      <trkpt lat="45.95001" lon="4.81149">
        <ele>256</ele>
        <time>2018-07-03T09:01:53Z</time>
      </trkpt>
      <trkpt lat="45.95002" lon="4.81156">
        <ele>256</ele>
        <time>2018-07-03T09:01:54Z</time>
      </trkpt>
      <trkpt lat="45.95003" lon="4.81165">
        <ele>256</ele>
        <time>2018-07-03T09:01:55Z</time>
      </trkpt>
      <trkpt lat="45.95004" lon="4.81173">
        <ele>256</ele>
        <time>2018-07-03T09:01:56Z</time>
      </trkpt>
      <trkpt lat="45.95006" lon="4.81182">
        <ele>256</ele>
        <time>2018-07-03T09:01:57Z</time>
      </trkpt>
      <trkpt lat="45.95007" lon="4.8119">
        <ele>256</ele>
        <time>2018-07-03T09:01:58Z</time>
      </trkpt>
      <trkpt lat="45.95007" lon="4.81199">
        <ele>256</ele>
        <time>2018-07-03T09:01:59Z</time>
      </trkpt>
      <trkpt lat="45.95009" lon="4.81208">
        <ele>256</ele>
        <time>2018-07-03T09:02:00Z</time>
      </trkpt>
      <trkpt lat="45.95009" lon="4.81216">
        <ele>256</ele>
        <time>2018-07-03T09:02:01Z</time>
      </trkpt>
      <trkpt lat="45.9501" lon="4.81225">
        <ele>256</ele>
        <time>2018-07-03T09:02:02Z</time>
      </trkpt>
      <trkpt lat="45.95013" lon="4.81235">
        <ele>256</ele>
        <time>2018-07-03T09:02:03Z</time>
      </trkpt>
      <trkpt lat="45.95014" lon="4.81241">
        <ele>256</ele>
        <time>2018-07-03T09:02:04Z</time>
      </trkpt>
      <trkpt lat="45.95015" lon="4.81248">
        <ele>256</ele>
        <time>2018-07-03T09:02:05Z</time>
      </trkpt>
      <trkpt lat="45.95018" lon="4.81256">
        <ele>256</ele>
        <time>2018-07-03T09:02:06Z</time>
      </trkpt>
      <trkpt lat="45.95019" lon="4.81265">
        <ele>255</ele>
        <time>2018-07-03T09:02:07Z</time>
      </trkpt>
      <trkpt lat="45.9502" lon="4.81272">
        <ele>255</ele>
        <time>2018-07-03T09:02:08Z</time>
      </trkpt>
      <trkpt lat="45.95021" lon="4.81279">
        <ele>255</ele>
        <time>2018-07-03T09:02:09Z</time>
      </trkpt>
      <trkpt lat="45.95023" lon="4.81287">
        <ele>255</ele>
        <time>2018-07-03T09:02:10Z</time>
      </trkpt>
      <trkpt lat="45.95024" lon="4.81295">
        <ele>255</ele>
        <time>2018-07-03T09:02:11Z</time>
      </trkpt>
      <trkpt lat="45.95026" lon="4.81301">
        <ele>255</ele>
        <time>2018-07-03T09:02:12Z</time>
      </trkpt>
      <trkpt lat="45.95028" lon="4.81307">
        <ele>255</ele>
        <time>2018-07-03T09:02:13Z</time>
      </trkpt>
      <trkpt lat="45.95031" lon="4.81318">
        <ele>255</ele>
        <time>2018-07-03T09:02:15Z</time>
      </trkpt>
      <trkpt lat="45.95033" lon="4.81324">
        <ele>255</ele>
        <time>2018-07-03T09:02:16Z</time>
      </trkpt>
      <trkpt lat="45.95034" lon="4.81331">
        <ele>255</ele>
        <time>2018-07-03T09:02:17Z</time>
      </trkpt>
      <trkpt lat="45.95036" lon="4.81339">
        <ele>254</ele>
        <time>2018-07-03T09:02:18Z</time>
      </trkpt>
      <trkpt lat="45.95039" lon="4.81347">
        <ele>254</ele>
        <time>2018-07-03T09:02:19Z</time>
      </trkpt>
      <trkpt lat="45.95041" lon="4.81355">
        <ele>254</ele>
        <time>2018-07-03T09:02:20Z</time>
      </trkpt>
      <trkpt lat="45.95043" lon="4.81362">
        <ele>254</ele>
        <time>2018-07-03T09:02:21Z</time>
      </trkpt>
      <trkpt lat="45.95046" lon="4.8137">
        <ele>254</ele>
        <time>2018-07-03T09:02:22Z</time>
      </trkpt>
      <trkpt lat="45.95048" lon="4.81381">
        <ele>254</ele>
        <time>2018-07-03T09:02:23Z</time>
      </trkpt>
      <trkpt lat="45.95049" lon="4.81388">
        <ele>253</ele>
        <time>2018-07-03T09:02:24Z</time>
      </trkpt>
      <trkpt lat="45.95052" lon="4.81396">
        <ele>253</ele>
        <time>2018-07-03T09:02:25Z</time>
      </trkpt>
      <trkpt lat="45.95054" lon="4.81404">
        <ele>253</ele>
        <time>2018-07-03T09:02:26Z</time>
      </trkpt>
      <trkpt lat="45.95058" lon="4.81413">
        <ele>253</ele>
        <time>2018-07-03T09:02:27Z</time>
      </trkpt>
      <trkpt lat="45.95062" lon="4.81421">
        <ele>252</ele>
        <time>2018-07-03T09:02:28Z</time>
      </trkpt>
      <trkpt lat="45.95065" lon="4.8143">
        <ele>252</ele>
        <time>2018-07-03T09:02:29Z</time>
      </trkpt>
      <trkpt lat="45.95069" lon="4.81439">
        <ele>252</ele>
        <time>2018-07-03T09:02:30Z</time>
      </trkpt>
      <trkpt lat="45.95071" lon="4.81447">
        <ele>253</ele>
        <time>2018-07-03T09:02:31Z</time>
      </trkpt>
      <trkpt lat="45.95074" lon="4.81456">
        <ele>253</ele>
        <time>2018-07-03T09:02:32Z</time>
      </trkpt>
      <trkpt lat="45.95076" lon="4.81465">
        <ele>253</ele>
        <time>2018-07-03T09:02:33Z</time>
      </trkpt>
      <trkpt lat="45.9508" lon="4.81473">
        <ele>253</ele>
        <time>2018-07-03T09:02:34Z</time>
      </trkpt>
      <trkpt lat="45.95081" lon="4.81481">
        <ele>253</ele>
        <time>2018-07-03T09:02:35Z</time>
      </trkpt>
      <trkpt lat="45.95084" lon="4.81491">
        <ele>251</ele>
        <time>2018-07-03T09:02:36Z</time>
      </trkpt>
      <trkpt lat="45.95088" lon="4.815">
        <ele>252</ele>
        <time>2018-07-03T09:02:37Z</time>
      </trkpt>
      <trkpt lat="45.95091" lon="4.81509">
        <ele>252</ele>
        <time>2018-07-03T09:02:38Z</time>
      </trkpt>
      <trkpt lat="45.95094" lon="4.81518">
        <ele>251</ele>
        <time>2018-07-03T09:02:39Z</time>
      </trkpt>
      <trkpt lat="45.95097" lon="4.81529">
        <ele>251</ele>
        <time>2018-07-03T09:02:40Z</time>
      </trkpt>
      <trkpt lat="45.95101" lon="4.81539">
        <ele>251</ele>
        <time>2018-07-03T09:02:41Z</time>
      </trkpt>
      <trkpt lat="45.95104" lon="4.81548">
        <ele>251</ele>
        <time>2018-07-03T09:02:42Z</time>
      </trkpt>
      <trkpt lat="45.95106" lon="4.81556">
        <ele>251</ele>
        <time>2018-07-03T09:02:43Z</time>
      </trkpt>
      <trkpt lat="45.9511" lon="4.81566">
        <ele>251</ele>
        <time>2018-07-03T09:02:44Z</time>
      </trkpt>
      <trkpt lat="45.95114" lon="4.81575">
        <ele>251</ele>
        <time>2018-07-03T09:02:45Z</time>
      </trkpt>
      <trkpt lat="45.95116" lon="4.81584">
        <ele>252</ele>
        <time>2018-07-03T09:02:46Z</time>
      </trkpt>
      <trkpt lat="45.95119" lon="4.81592">
        <ele>252</ele>
        <time>2018-07-03T09:02:47Z</time>
      </trkpt>
      <trkpt lat="45.95123" lon="4.81599">
        <ele>252</ele>
        <time>2018-07-03T09:02:48Z</time>
      </trkpt>
      <trkpt lat="45.95125" lon="4.81605">
        <ele>252</ele>
        <time>2018-07-03T09:02:49Z</time>
      </trkpt>
      <trkpt lat="45.95128" lon="4.81613">
        <ele>252</ele>
        <time>2018-07-03T09:02:50Z</time>
      </trkpt>
      <trkpt lat="45.95132" lon="4.81618">
        <ele>252</ele>
        <time>2018-07-03T09:02:51Z</time>
      </trkpt>
      <trkpt lat="45.95134" lon="4.81625">
        <ele>253</ele>
        <time>2018-07-03T09:02:52Z</time>
      </trkpt>
      <trkpt lat="45.95135" lon="4.81632">
        <ele>253</ele>
        <time>2018-07-03T09:02:53Z</time>
      </trkpt>
      <trkpt lat="45.95137" lon="4.81637">
        <ele>253</ele>
        <time>2018-07-03T09:02:54Z</time>
      </trkpt>
      <trkpt lat="45.9514" lon="4.81648">
        <ele>253</ele>
        <time>2018-07-03T09:02:56Z</time>
      </trkpt>
      <trkpt lat="45.95144" lon="4.81653">
        <ele>253</ele>
        <time>2018-07-03T09:02:57Z</time>
      </trkpt>
      <trkpt lat="45.95148" lon="4.81663">
        <ele>253</ele>
        <time>2018-07-03T09:02:59Z</time>
      </trkpt>
      <trkpt lat="45.95149" lon="4.81668">
        <ele>255</ele>
        <time>2018-07-03T09:03:00Z</time>
      </trkpt>
      <trkpt lat="45.95151" lon="4.81679">
        <ele>255</ele>
        <time>2018-07-03T09:03:02Z</time>
      </trkpt>
      <trkpt lat="45.95155" lon="4.81685">
        <ele>255</ele>
        <time>2018-07-03T09:03:03Z</time>
      </trkpt>
      <trkpt lat="45.95158" lon="4.81694">
        <ele>255</ele>
        <time>2018-07-03T09:03:06Z</time>
      </trkpt>
      <trkpt lat="45.95159" lon="4.81698">
        <ele>255</ele>
        <time>2018-07-03T09:03:07Z</time>
      </trkpt>
      <trkpt lat="45.95162" lon="4.81708">
        <ele>255</ele>
        <time>2018-07-03T09:03:10Z</time>
      </trkpt>
      <trkpt lat="45.95163" lon="4.81711">
        <ele>256</ele>
        <time>2018-07-03T09:03:11Z</time>
      </trkpt>
      <trkpt lat="45.95166" lon="4.81723">
        <ele>256</ele>
        <time>2018-07-03T09:03:14Z</time>
      </trkpt>
      <trkpt lat="45.95168" lon="4.81726">
        <ele>257</ele>
        <time>2018-07-03T09:03:15Z</time>
      </trkpt>
      <trkpt lat="45.95171" lon="4.81738">
        <ele>257</ele>
        <time>2018-07-03T09:03:18Z</time>
      </trkpt>
      <trkpt lat="45.95173" lon="4.81742">
        <ele>257</ele>
        <time>2018-07-03T09:03:19Z</time>
      </trkpt>
      <trkpt lat="45.95176" lon="4.81749">
        <ele>258</ele>
        <time>2018-07-03T09:03:21Z</time>
      </trkpt>
      <trkpt lat="45.95178" lon="4.81753">
        <ele>258</ele>
        <time>2018-07-03T09:03:22Z</time>
      </trkpt>
      <trkpt lat="45.95182" lon="4.8176">
        <ele>258</ele>
        <time>2018-07-03T09:03:24Z</time>
      </trkpt>
      <trkpt lat="45.95184" lon="4.81764">
        <ele>258</ele>
        <time>2018-07-03T09:03:25Z</time>
      </trkpt>
      <trkpt lat="45.95188" lon="4.81771">
        <ele>258</ele>
        <time>2018-07-03T09:03:27Z</time>
      </trkpt>
      <trkpt lat="45.95191" lon="4.81774">
        <ele>258</ele>
        <time>2018-07-03T09:03:28Z</time>
      </trkpt>
      <trkpt lat="45.95196" lon="4.81781">
        <ele>258</ele>
        <time>2018-07-03T09:03:30Z</time>
      </trkpt>
      <trkpt lat="45.95198" lon="4.81784">
        <ele>258</ele>
        <time>2018-07-03T09:03:31Z</time>
      </trkpt>
      <trkpt lat="45.95205" lon="4.81794">
        <ele>259</ele>
        <time>2018-07-03T09:03:32Z</time>
      </trkpt>
      <trkpt lat="45.95209" lon="4.81801">
        <ele>259</ele>
        <time>2018-07-03T09:03:35Z</time>
      </trkpt>
      <trkpt lat="45.95211" lon="4.81804">
        <ele>259</ele>
        <time>2018-07-03T09:03:36Z</time>
      </trkpt>
      <trkpt lat="45.95215" lon="4.8181">
        <ele>259</ele>
        <time>2018-07-03T09:03:38Z</time>
      </trkpt>
      <trkpt lat="45.95222" lon="4.81819">
        <ele>259</ele>
        <time>2018-07-03T09:03:39Z</time>
      </trkpt>
      <trkpt lat="45.95228" lon="4.81826">
        <ele>259</ele>
        <time>2018-07-03T09:03:41Z</time>
      </trkpt>
      <trkpt lat="45.9523" lon="4.81828">
        <ele>259</ele>
        <time>2018-07-03T09:03:42Z</time>
      </trkpt>
      <trkpt lat="45.95234" lon="4.81832">
        <ele>259</ele>
        <time>2018-07-03T09:03:44Z</time>
      </trkpt>
      <trkpt lat="45.95239" lon="4.81839">
        <ele>259</ele>
        <time>2018-07-03T09:03:45Z</time>
      </trkpt>
      <trkpt lat="45.95245" lon="4.81847">
        <ele>260</ele>
        <time>2018-07-03T09:03:47Z</time>
      </trkpt>
      <trkpt lat="45.95248" lon="4.81851">
        <ele>260</ele>
        <time>2018-07-03T09:03:48Z</time>
      </trkpt>
      <trkpt lat="45.95254" lon="4.81861">
        <ele>260</ele>
        <time>2018-07-03T09:03:52Z</time>
      </trkpt>
      <trkpt lat="45.95256" lon="4.81864">
        <ele>260</ele>
        <time>2018-07-03T09:03:53Z</time>
      </trkpt>
      <trkpt lat="45.95261" lon="4.81872">
        <ele>260</ele>
        <time>2018-07-03T09:03:54Z</time>
      </trkpt>
      <trkpt lat="45.95264" lon="4.81876">
        <ele>260</ele>
        <time>2018-07-03T09:03:55Z</time>
      </trkpt>
      <trkpt lat="45.95269" lon="4.81884">
        <ele>260</ele>
        <time>2018-07-03T09:03:57Z</time>
      </trkpt>
      <trkpt lat="45.95272" lon="4.81887">
        <ele>260</ele>
        <time>2018-07-03T09:03:58Z</time>
      </trkpt>
      <trkpt lat="45.95278" lon="4.81895">
        <ele>260</ele>
        <time>2018-07-03T09:04:00Z</time>
      </trkpt>
      <trkpt lat="45.95281" lon="4.81899">
        <ele>260</ele>
        <time>2018-07-03T09:04:01Z</time>
      </trkpt>
      <trkpt lat="45.95285" lon="4.81903">
        <ele>260</ele>
        <time>2018-07-03T09:04:02Z</time>
      </trkpt>
      <trkpt lat="45.95288" lon="4.81907">
        <ele>260</ele>
        <time>2018-07-03T09:04:03Z</time>
      </trkpt>
      <trkpt lat="45.95295" lon="4.81915">
        <ele>260</ele>
        <time>2018-07-03T09:04:05Z</time>
      </trkpt>
      <trkpt lat="45.95298" lon="4.81919">
        <ele>261</ele>
        <time>2018-07-03T09:04:06Z</time>
      </trkpt>
      <trkpt lat="45.95303" lon="4.81928">
        <ele>261</ele>
        <time>2018-07-03T09:04:08Z</time>
      </trkpt>
      <trkpt lat="45.95305" lon="4.81932">
        <ele>261</ele>
        <time>2018-07-03T09:04:09Z</time>
      </trkpt>
      <trkpt lat="45.95311" lon="4.8194">
        <ele>261</ele>
        <time>2018-07-03T09:04:11Z</time>
      </trkpt>
      <trkpt lat="45.95314" lon="4.81944">
        <ele>261</ele>
        <time>2018-07-03T09:04:12Z</time>
      </trkpt>
      <trkpt lat="45.9532" lon="4.81952">
        <ele>262</ele>
        <time>2018-07-03T09:04:14Z</time>
      </trkpt>
      <trkpt lat="45.95323" lon="4.81956">
        <ele>262</ele>
        <time>2018-07-03T09:04:15Z</time>
      </trkpt>
      <trkpt lat="45.9533" lon="4.81964">
        <ele>262</ele>
        <time>2018-07-03T09:04:17Z</time>
      </trkpt>
      <trkpt lat="45.95333" lon="4.81967">
        <ele>262</ele>
        <time>2018-07-03T09:04:18Z</time>
      </trkpt>
      <trkpt lat="45.95336" lon="4.81971">
        <ele>261</ele>
        <time>2018-07-03T09:04:19Z</time>
      </trkpt>
      <trkpt lat="45.9534" lon="4.81975">
        <ele>262</ele>
        <time>2018-07-03T09:04:20Z</time>
      </trkpt>
      <trkpt lat="45.95344" lon="4.81979">
        <ele>262</ele>
        <time>2018-07-03T09:04:21Z</time>
      </trkpt>
      <trkpt lat="45.95348" lon="4.81984">
        <ele>262</ele>
        <time>2018-07-03T09:04:22Z</time>
      </trkpt>
      <trkpt lat="45.95352" lon="4.81988">
        <ele>262</ele>
        <time>2018-07-03T09:04:23Z</time>
      </trkpt>
      <trkpt lat="45.95356" lon="4.8199">
        <ele>262</ele>
        <time>2018-07-03T09:04:24Z</time>
      </trkpt>
      <trkpt lat="45.95362" lon="4.81994">
        <ele>261</ele>
        <time>2018-07-03T09:04:25Z</time>
      </trkpt>
      <trkpt lat="45.95369" lon="4.81997">
        <ele>261</ele>
        <time>2018-07-03T09:04:26Z</time>
      </trkpt>
      <trkpt lat="45.95373" lon="4.82001">
        <ele>262</ele>
        <time>2018-07-03T09:04:27Z</time>
      </trkpt>
      <trkpt lat="45.95378" lon="4.82005">
        <ele>262</ele>
        <time>2018-07-03T09:04:28Z</time>
      </trkpt>
      <trkpt lat="45.95384" lon="4.82014">
        <ele>261</ele>
        <time>2018-07-03T09:04:30Z</time>
      </trkpt>
      <trkpt lat="45.95386" lon="4.82017">
        <ele>261</ele>
        <time>2018-07-03T09:04:31Z</time>
      </trkpt>
      <trkpt lat="45.95389" lon="4.82022">
        <ele>261</ele>
        <time>2018-07-03T09:04:32Z</time>
      </trkpt>
      <trkpt lat="45.95393" lon="4.82025">
        <ele>261</ele>
        <time>2018-07-03T09:04:33Z</time>
      </trkpt>
      <trkpt lat="45.95398" lon="4.8203">
        <ele>261</ele>
        <time>2018-07-03T09:04:34Z</time>
      </trkpt>
      <trkpt lat="45.95402" lon="4.82035">
        <ele>261</ele>
        <time>2018-07-03T09:04:35Z</time>
      </trkpt>
      <trkpt lat="45.95406" lon="4.8204">
        <ele>261</ele>
        <time>2018-07-03T09:04:36Z</time>
      </trkpt>
      <trkpt lat="45.9541" lon="4.82044">
        <ele>261</ele>
        <time>2018-07-03T09:04:37Z</time>
      </trkpt>
      <trkpt lat="45.95415" lon="4.82048">
        <ele>261</ele>
        <time>2018-07-03T09:04:38Z</time>
      </trkpt>
      <trkpt lat="45.95417" lon="4.82052">
        <ele>260</ele>
        <time>2018-07-03T09:04:39Z</time>
      </trkpt>
      <trkpt lat="45.95421" lon="4.82056">
        <ele>260</ele>
        <time>2018-07-03T09:04:40Z</time>
      </trkpt>
      <trkpt lat="45.95426" lon="4.82059">
        <ele>260</ele>
        <time>2018-07-03T09:04:41Z</time>
      </trkpt>
      <trkpt lat="45.9543" lon="4.82063">
        <ele>260</ele>
        <time>2018-07-03T09:04:42Z</time>
      </trkpt>
      <trkpt lat="45.95432" lon="4.82069">
        <ele>260</ele>
        <time>2018-07-03T09:04:43Z</time>
      </trkpt>
      <trkpt lat="45.95436" lon="4.82072">
        <ele>260</ele>
        <time>2018-07-03T09:04:44Z</time>
      </trkpt>
      <trkpt lat="45.9544" lon="4.82076">
        <ele>260</ele>
        <time>2018-07-03T09:04:45Z</time>
      </trkpt>
      <trkpt lat="45.95445" lon="4.82082">
        <ele>260</ele>
        <time>2018-07-03T09:04:46Z</time>
      </trkpt>
      <trkpt lat="45.95449" lon="4.82086">
        <ele>260</ele>
        <time>2018-07-03T09:04:47Z</time>
      </trkpt>
      <trkpt lat="45.95454" lon="4.8209">
        <ele>260</ele>
        <time>2018-07-03T09:04:48Z</time>
      </trkpt>
      <trkpt lat="45.95458" lon="4.82095">
        <ele>260</ele>
        <time>2018-07-03T09:04:49Z</time>
      </trkpt>
      <trkpt lat="45.95463" lon="4.82101">
        <ele>260</ele>
        <time>2018-07-03T09:04:50Z</time>
      </trkpt>
      <trkpt lat="45.95466" lon="4.82104">
        <ele>260</ele>
        <time>2018-07-03T09:04:51Z</time>
      </trkpt>
      <trkpt lat="45.9547" lon="4.8211">
        <ele>260</ele>
        <time>2018-07-03T09:04:52Z</time>
      </trkpt>
      <trkpt lat="45.95473" lon="4.82114">
        <ele>260</ele>
        <time>2018-07-03T09:04:53Z</time>
      </trkpt>
      <trkpt lat="45.95475" lon="4.82119">
        <ele>260</ele>
        <time>2018-07-03T09:04:54Z</time>
      </trkpt>
      <trkpt lat="45.9548" lon="4.82123">
        <ele>260</ele>
        <time>2018-07-03T09:04:55Z</time>
      </trkpt>
      <trkpt lat="45.95484" lon="4.82127">
        <ele>260</ele>
        <time>2018-07-03T09:04:56Z</time>
      </trkpt>
      <trkpt lat="45.95489" lon="4.8213">
        <ele>260</ele>
        <time>2018-07-03T09:04:57Z</time>
      </trkpt>
      <trkpt lat="45.95493" lon="4.82135">
        <ele>260</ele>
        <time>2018-07-03T09:04:58Z</time>
      </trkpt>
      <trkpt lat="45.95496" lon="4.8214">
        <ele>260</ele>
        <time>2018-07-03T09:04:59Z</time>
      </trkpt>
      <trkpt lat="45.95502" lon="4.82143">
        <ele>259</ele>
        <time>2018-07-03T09:05:00Z</time>
      </trkpt>
      <trkpt lat="45.95506" lon="4.82148">
        <ele>259</ele>
        <time>2018-07-03T09:05:01Z</time>
      </trkpt>
      <trkpt lat="45.9551" lon="4.82152">
        <ele>259</ele>
        <time>2018-07-03T09:05:02Z</time>
      </trkpt>
      <trkpt lat="45.95515" lon="4.82157">
        <ele>259</ele>
        <time>2018-07-03T09:05:03Z</time>
      </trkpt>
      <trkpt lat="45.95519" lon="4.82161">
        <ele>259</ele>
        <time>2018-07-03T09:05:04Z</time>
      </trkpt>
      <trkpt lat="45.95523" lon="4.82166">
        <ele>259</ele>
        <time>2018-07-03T09:05:05Z</time>
      </trkpt>
      <trkpt lat="45.95528" lon="4.82171">
        <ele>259</ele>
        <time>2018-07-03T09:05:06Z</time>
      </trkpt>
      <trkpt lat="45.95534" lon="4.82175">
        <ele>259</ele>
        <time>2018-07-03T09:05:07Z</time>
      </trkpt>
      <trkpt lat="45.95539" lon="4.82179">
        <ele>259</ele>
        <time>2018-07-03T09:05:08Z</time>
      </trkpt>
      <trkpt lat="45.95543" lon="4.82184">
        <ele>259</ele>
        <time>2018-07-03T09:05:09Z</time>
      </trkpt>
      <trkpt lat="45.95548" lon="4.82187">
        <ele>259</ele>
        <time>2018-07-03T09:05:10Z</time>
      </trkpt>
      <trkpt lat="45.9555" lon="4.82191">
        <ele>259</ele>
        <time>2018-07-03T09:05:11Z</time>
      </trkpt>
      <trkpt lat="45.95555" lon="4.82195">
        <ele>259</ele>
        <time>2018-07-03T09:05:12Z</time>
      </trkpt>
      <trkpt lat="45.95561" lon="4.822">
        <ele>259</ele>
        <time>2018-07-03T09:05:13Z</time>
      </trkpt>
      <trkpt lat="45.95566" lon="4.82204">
        <ele>258</ele>
        <time>2018-07-03T09:05:14Z</time>
      </trkpt>
      <trkpt lat="45.9557" lon="4.82208">
        <ele>258</ele>
        <time>2018-07-03T09:05:15Z</time>
      </trkpt>
      <trkpt lat="45.95575" lon="4.82212">
        <ele>258</ele>
        <time>2018-07-03T09:05:16Z</time>
      </trkpt>
      <trkpt lat="45.9558" lon="4.82216">
        <ele>258</ele>
        <time>2018-07-03T09:05:17Z</time>
      </trkpt>
      <trkpt lat="45.95587" lon="4.82219">
        <ele>257</ele>
        <time>2018-07-03T09:05:18Z</time>
      </trkpt>
      <trkpt lat="45.95593" lon="4.82222">
        <ele>257</ele>
        <time>2018-07-03T09:05:19Z</time>
      </trkpt>
      <trkpt lat="45.95599" lon="4.82225">
        <ele>257</ele>
        <time>2018-07-03T09:05:20Z</time>
      </trkpt>
      <trkpt lat="45.95604" lon="4.82228">
        <ele>257</ele>
        <time>2018-07-03T09:05:21Z</time>
      </trkpt>
      <trkpt lat="45.95609" lon="4.82227">
        <ele>257</ele>
        <time>2018-07-03T09:05:22Z</time>
      </trkpt>
      <trkpt lat="45.95615" lon="4.82227">
        <ele>257</ele>
        <time>2018-07-03T09:05:23Z</time>
      </trkpt>
      <trkpt lat="45.95623" lon="4.82228">
        <ele>257</ele>
        <time>2018-07-03T09:05:24Z</time>
      </trkpt>
      <trkpt lat="45.95629" lon="4.82226">
        <ele>257</ele>
        <time>2018-07-03T09:05:25Z</time>
      </trkpt>
      <trkpt lat="45.95637" lon="4.82227">
        <ele>257</ele>
        <time>2018-07-03T09:05:26Z</time>
      </trkpt>
      <trkpt lat="45.95643" lon="4.82228">
        <ele>257</ele>
        <time>2018-07-03T09:05:27Z</time>
      </trkpt>
      <trkpt lat="45.95654" lon="4.82228">
        <ele>257</ele>
        <time>2018-07-03T09:05:28Z</time>
      </trkpt>
      <trkpt lat="45.95661" lon="4.82229">
        <ele>257</ele>
        <time>2018-07-03T09:05:29Z</time>
      </trkpt>
      <trkpt lat="45.95668" lon="4.8223">
        <ele>255</ele>
        <time>2018-07-03T09:05:30Z</time>
      </trkpt>
      <trkpt lat="45.95674" lon="4.82233">
        <ele>255</ele>
        <time>2018-07-03T09:05:31Z</time>
      </trkpt>
      <trkpt lat="45.9568" lon="4.82237">
        <ele>255</ele>
        <time>2018-07-03T09:05:32Z</time>
      </trkpt>
      <trkpt lat="45.95686" lon="4.82243">
        <ele>255</ele>
        <time>2018-07-03T09:05:33Z</time>
      </trkpt>
      <trkpt lat="45.95692" lon="4.82248">
        <ele>254</ele>
        <time>2018-07-03T09:05:34Z</time>
      </trkpt>
      <trkpt lat="45.95696" lon="4.82254">
        <ele>255</ele>
        <time>2018-07-03T09:05:35Z</time>
      </trkpt>
      <trkpt lat="45.95701" lon="4.8226">
        <ele>255</ele>
        <time>2018-07-03T09:05:36Z</time>
      </trkpt>
      <trkpt lat="45.95704" lon="4.82265">
        <ele>255</ele>
        <time>2018-07-03T09:05:37Z</time>
      </trkpt>
      <trkpt lat="45.95708" lon="4.82272">
        <ele>255</ele>
        <time>2018-07-03T09:05:38Z</time>
      </trkpt>
      <trkpt lat="45.95713" lon="4.82275">
        <ele>255</ele>
        <time>2018-07-03T09:05:39Z</time>
      </trkpt>
      <trkpt lat="45.95717" lon="4.82279">
        <ele>255</ele>
        <time>2018-07-03T09:05:40Z</time>
      </trkpt>
      <trkpt lat="45.95725" lon="4.82285">
        <ele>255</ele>
        <time>2018-07-03T09:05:41Z</time>
      </trkpt>
      <trkpt lat="45.95731" lon="4.82291">
        <ele>255</ele>
        <time>2018-07-03T09:05:42Z</time>
      </trkpt>
      <trkpt lat="45.95736" lon="4.82298">
        <ele>255</ele>
        <time>2018-07-03T09:05:43Z</time>
      </trkpt>
      <trkpt lat="45.9574" lon="4.82304">
        <ele>255</ele>
        <time>2018-07-03T09:05:44Z</time>
      </trkpt>
      <trkpt lat="45.95746" lon="4.8231">
        <ele>255</ele>
        <time>2018-07-03T09:05:45Z</time>
      </trkpt>
      <trkpt lat="45.95751" lon="4.82317">
        <ele>253</ele>
        <time>2018-07-03T09:05:46Z</time>
      </trkpt>
      <trkpt lat="45.95757" lon="4.82321">
        <ele>253</ele>
        <time>2018-07-03T09:05:47Z</time>
      </trkpt>
      <trkpt lat="45.95762" lon="4.82328">
        <ele>253</ele>
        <time>2018-07-03T09:05:48Z</time>
      </trkpt>
      <trkpt lat="45.95767" lon="4.82334">
        <ele>254</ele>
        <time>2018-07-03T09:05:49Z</time>
      </trkpt>
      <trkpt lat="45.95772" lon="4.82339">
        <ele>254</ele>
        <time>2018-07-03T09:05:50Z</time>
      </trkpt>
      <trkpt lat="45.95779" lon="4.82346">
        <ele>253</ele>
        <time>2018-07-03T09:05:51Z</time>
      </trkpt>
      <trkpt lat="45.95788" lon="4.82351">
        <ele>253</ele>
        <time>2018-07-03T09:05:52Z</time>
      </trkpt>
      <trkpt lat="45.95795" lon="4.82355">
        <ele>252</ele>
        <time>2018-07-03T09:05:53Z</time>
      </trkpt>
      <trkpt lat="45.95802" lon="4.82358">
        <ele>252</ele>
        <time>2018-07-03T09:05:54Z</time>
      </trkpt>
      <trkpt lat="45.95808" lon="4.82361">
        <ele>252</ele>
        <time>2018-07-03T09:05:55Z</time>
      </trkpt>
      <trkpt lat="45.95815" lon="4.82363">
        <ele>251</ele>
        <time>2018-07-03T09:05:56Z</time>
      </trkpt>
      <trkpt lat="45.95824" lon="4.82366">
        <ele>251</ele>
        <time>2018-07-03T09:05:57Z</time>
      </trkpt>
      <trkpt lat="45.95833" lon="4.82368">
        <ele>251</ele>
        <time>2018-07-03T09:05:58Z</time>
      </trkpt>
      <trkpt lat="45.95842" lon="4.82369">
        <ele>246</ele>
        <time>2018-07-03T09:05:59Z</time>
      </trkpt>
      <trkpt lat="45.95851" lon="4.82372">
        <ele>246</ele>
        <time>2018-07-03T09:06:00Z</time>
      </trkpt>
      <trkpt lat="45.9586" lon="4.82371">
        <ele>245</ele>
        <time>2018-07-03T09:06:01Z</time>
      </trkpt>
      <trkpt lat="45.95871" lon="4.82373">
        <ele>244</ele>
        <time>2018-07-03T09:06:02Z</time>
      </trkpt>
      <trkpt lat="45.95881" lon="4.82373">
        <ele>244</ele>
        <time>2018-07-03T09:06:03Z</time>
      </trkpt>
      <trkpt lat="45.95891" lon="4.82372">
        <ele>243</ele>
        <time>2018-07-03T09:06:04Z</time>
      </trkpt>
      <trkpt lat="45.95901" lon="4.8237">
        <ele>243</ele>
        <time>2018-07-03T09:06:05Z</time>
      </trkpt>
      <trkpt lat="45.95912" lon="4.82368">
        <ele>242</ele>
        <time>2018-07-03T09:06:06Z</time>
      </trkpt>
      <trkpt lat="45.95923" lon="4.82368">
        <ele>238</ele>
        <time>2018-07-03T09:06:07Z</time>
      </trkpt>
      <trkpt lat="45.95934" lon="4.82366">
        <ele>238</ele>
        <time>2018-07-03T09:06:08Z</time>
      </trkpt>
      <trkpt lat="45.95945" lon="4.82364">
        <ele>237</ele>
        <time>2018-07-03T09:06:09Z</time>
      </trkpt>
      <trkpt lat="45.95957" lon="4.82363">
        <ele>237</ele>
        <time>2018-07-03T09:06:10Z</time>
      </trkpt>
      <trkpt lat="45.9597" lon="4.8236">
        <ele>237</ele>
        <time>2018-07-03T09:06:11Z</time>
      </trkpt>
      <trkpt lat="45.9598" lon="4.82358">
        <ele>237</ele>
        <time>2018-07-03T09:06:12Z</time>
      </trkpt>
      <trkpt lat="45.95989" lon="4.82357">
        <ele>236</ele>
        <time>2018-07-03T09:06:13Z</time>
      </trkpt>
      <trkpt lat="45.95998" lon="4.82356">
        <ele>236</ele>
        <time>2018-07-03T09:06:14Z</time>
      </trkpt>
      <trkpt lat="45.96005" lon="4.82357">
        <ele>235</ele>
        <time>2018-07-03T09:06:15Z</time>
      </trkpt>
      <trkpt lat="45.96009" lon="4.82359">
        <ele>235</ele>
        <time>2018-07-03T09:06:16Z</time>
      </trkpt>
      <trkpt lat="45.96015" lon="4.82362">
        <ele>235</ele>
        <time>2018-07-03T09:06:17Z</time>
      </trkpt>
      <trkpt lat="45.96019" lon="4.82367">
        <ele>235</ele>
        <time>2018-07-03T09:06:18Z</time>
      </trkpt>
      <trkpt lat="45.96023" lon="4.82372">
        <ele>235</ele>
        <time>2018-07-03T09:06:19Z</time>
      </trkpt>
      <trkpt lat="45.96024" lon="4.82379">
        <ele>235</ele>
        <time>2018-07-03T09:06:20Z</time>
      </trkpt>
      <trkpt lat="45.96025" lon="4.82386">
        <ele>235</ele>
        <time>2018-07-03T09:06:21Z</time>
      </trkpt>
      <trkpt lat="45.96024" lon="4.82398">
        <ele>235</ele>
        <time>2018-07-03T09:06:23Z</time>
      </trkpt>
      <trkpt lat="45.96023" lon="4.82406">
        <ele>235</ele>
        <time>2018-07-03T09:06:24Z</time>
      </trkpt>
      <trkpt lat="45.96023" lon="4.82413">
        <ele>235</ele>
        <time>2018-07-03T09:06:25Z</time>
      </trkpt>
      <trkpt lat="45.96023" lon="4.82421">
        <ele>235</ele>
        <time>2018-07-03T09:06:26Z</time>
      </trkpt>
      <trkpt lat="45.96022" lon="4.82429">
        <ele>235</ele>
        <time>2018-07-03T09:06:27Z</time>
      </trkpt>
      <trkpt lat="45.9602" lon="4.82436">
        <ele>235</ele>
        <time>2018-07-03T09:06:28Z</time>
      </trkpt>
      <trkpt lat="45.9602" lon="4.82444">
        <ele>235</ele>
        <time>2018-07-03T09:06:29Z</time>
      </trkpt>
      <trkpt lat="45.96019" lon="4.82451">
        <ele>235</ele>
        <time>2018-07-03T09:06:30Z</time>
      </trkpt>
      <trkpt lat="45.96017" lon="4.82459">
        <ele>235</ele>
        <time>2018-07-03T09:06:31Z</time>
      </trkpt>
      <trkpt lat="45.96016" lon="4.82466">
        <ele>235</ele>
        <time>2018-07-03T09:06:32Z</time>
      </trkpt>
      <trkpt lat="45.96015" lon="4.82473">
        <ele>235</ele>
        <time>2018-07-03T09:06:33Z</time>
      </trkpt>
      <trkpt lat="45.96014" lon="4.82479">
        <ele>235</ele>
        <time>2018-07-03T09:06:34Z</time>
      </trkpt>
      <trkpt lat="45.96013" lon="4.82491">
        <ele>235</ele>
        <time>2018-07-03T09:06:36Z</time>
      </trkpt>
      <trkpt lat="45.96012" lon="4.82497">
        <ele>235</ele>
        <time>2018-07-03T09:06:37Z</time>
      </trkpt>
      <trkpt lat="45.96011" lon="4.82509">
        <ele>235</ele>
        <time>2018-07-03T09:06:39Z</time>
      </trkpt>
      <trkpt lat="45.96011" lon="4.82516">
        <ele>235</ele>
        <time>2018-07-03T09:06:40Z</time>
      </trkpt>
      <trkpt lat="45.96012" lon="4.82525">
        <ele>235</ele>
        <time>2018-07-03T09:06:41Z</time>
      </trkpt>
      <trkpt lat="45.96011" lon="4.82532">
        <ele>235</ele>
        <time>2018-07-03T09:06:42Z</time>
      </trkpt>
      <trkpt lat="45.96011" lon="4.82544">
        <ele>235</ele>
        <time>2018-07-03T09:06:44Z</time>
      </trkpt>
      <trkpt lat="45.96011" lon="4.8255">
        <ele>235</ele>
        <time>2018-07-03T09:06:45Z</time>
      </trkpt>
      <trkpt lat="45.96011" lon="4.82556">
        <ele>235</ele>
        <time>2018-07-03T09:06:46Z</time>
      </trkpt>
      <trkpt lat="45.96012" lon="4.82564">
        <ele>235</ele>
        <time>2018-07-03T09:06:47Z</time>
      </trkpt>
      <trkpt lat="45.96012" lon="4.82571">
        <ele>234</ele>
        <time>2018-07-03T09:06:48Z</time>
      </trkpt>
      <trkpt lat="45.96014" lon="4.82578">
        <ele>234</ele>
        <time>2018-07-03T09:06:49Z</time>
      </trkpt>
      <trkpt lat="45.96016" lon="4.82585">
        <ele>235</ele>
        <time>2018-07-03T09:06:50Z</time>
      </trkpt>
      <trkpt lat="45.96018" lon="4.82591">
        <ele>235</ele>
        <time>2018-07-03T09:06:51Z</time>
      </trkpt>
      <trkpt lat="45.9602" lon="4.82598">
        <ele>235</ele>
        <time>2018-07-03T09:06:52Z</time>
      </trkpt>
      <trkpt lat="45.96022" lon="4.82604">
        <ele>235</ele>
        <time>2018-07-03T09:06:53Z</time>
      </trkpt>
      <trkpt lat="45.96024" lon="4.82611">
        <ele>235</ele>
        <time>2018-07-03T09:06:54Z</time>
      </trkpt>
      <trkpt lat="45.96028" lon="4.82615">
        <ele>235</ele>
        <time>2018-07-03T09:06:55Z</time>
      </trkpt>
      <trkpt lat="45.9603" lon="4.82625">
        <ele>235</ele>
        <time>2018-07-03T09:06:57Z</time>
      </trkpt>
      <trkpt lat="45.96033" lon="4.82632">
        <ele>235</ele>
        <time>2018-07-03T09:06:58Z</time>
      </trkpt>
      <trkpt lat="45.96036" lon="4.82641">
        <ele>235</ele>
        <time>2018-07-03T09:07:00Z</time>
      </trkpt>
      <trkpt lat="45.9604" lon="4.82646">
        <ele>235</ele>
        <time>2018-07-03T09:07:01Z</time>
      </trkpt>
      <trkpt lat="45.96043" lon="4.82658">
        <ele>235</ele>
        <time>2018-07-03T09:07:03Z</time>
      </trkpt>
      <trkpt lat="45.96046" lon="4.82664">
        <ele>235</ele>
        <time>2018-07-03T09:07:04Z</time>
      </trkpt>
      <trkpt lat="45.96049" lon="4.82675">
        <ele>236</ele>
        <time>2018-07-03T09:07:06Z</time>
      </trkpt>
      <trkpt lat="45.96052" lon="4.8268">
        <ele>236</ele>
        <time>2018-07-03T09:07:07Z</time>
      </trkpt>
      <trkpt lat="45.96054" lon="4.82687">
        <ele>236</ele>
        <time>2018-07-03T09:07:08Z</time>
      </trkpt>
      <trkpt lat="45.96057" lon="4.82693">
        <ele>237</ele>
        <time>2018-07-03T09:07:09Z</time>
      </trkpt>
      <trkpt lat="45.96061" lon="4.82703">
        <ele>237</ele>
        <time>2018-07-03T09:07:11Z</time>
      </trkpt>
      <trkpt lat="45.96063" lon="4.82709">
        <ele>237</ele>
        <time>2018-07-03T09:07:12Z</time>
      </trkpt>
      <trkpt lat="45.96065" lon="4.82713">
        <ele>237</ele>
        <time>2018-07-03T09:07:13Z</time>
      </trkpt>
      <trkpt lat="45.96069" lon="4.82719">
        <ele>237</ele>
        <time>2018-07-03T09:07:14Z</time>
      </trkpt>
      <trkpt lat="45.96071" lon="4.82725">
        <ele>237</ele>
        <time>2018-07-03T09:07:15Z</time>
      </trkpt>
      <trkpt lat="45.96073" lon="4.82732">
        <ele>237</ele>
        <time>2018-07-03T09:07:16Z</time>
      </trkpt>
      <trkpt lat="45.96073" lon="4.82744">
        <ele>237</ele>
        <time>2018-07-03T09:07:18Z</time>
      </trkpt>
      <trkpt lat="45.96074" lon="4.8275">
        <ele>237</ele>
        <time>2018-07-03T09:07:19Z</time>
      </trkpt>
      <trkpt lat="45.96075" lon="4.82756">
        <ele>237</ele>
        <time>2018-07-03T09:07:20Z</time>
      </trkpt>
      <trkpt lat="45.96077" lon="4.82763">
        <ele>238</ele>
        <time>2018-07-03T09:07:21Z</time>
      </trkpt>
      <trkpt lat="45.96079" lon="4.82769">
        <ele>238</ele>
        <time>2018-07-03T09:07:22Z</time>
      </trkpt>
      <trkpt lat="45.96083" lon="4.82776">
        <ele>238</ele>
        <time>2018-07-03T09:07:23Z</time>
      </trkpt>
      <trkpt lat="45.96084" lon="4.82782">
        <ele>237</ele>
        <time>2018-07-03T09:07:24Z</time>
      </trkpt>
      <trkpt lat="45.96085" lon="4.82789">
        <ele>237</ele>
        <time>2018-07-03T09:07:25Z</time>
      </trkpt>
      <trkpt lat="45.96087" lon="4.82795">
        <ele>237</ele>
        <time>2018-07-03T09:07:26Z</time>
      </trkpt>
      <trkpt lat="45.96089" lon="4.82801">
        <ele>237</ele>
        <time>2018-07-03T09:07:27Z</time>
      </trkpt>
      <trkpt lat="45.9609" lon="4.82808">
        <ele>237</ele>
        <time>2018-07-03T09:07:28Z</time>
      </trkpt>
      <trkpt lat="45.9609" lon="4.82814">
        <ele>237</ele>
        <time>2018-07-03T09:07:29Z</time>
      </trkpt>
      <trkpt lat="45.96091" lon="4.82827">
        <ele>237</ele>
        <time>2018-07-03T09:07:31Z</time>
      </trkpt>
      <trkpt lat="45.96092" lon="4.82833">
        <ele>237</ele>
        <time>2018-07-03T09:07:32Z</time>
      </trkpt>
      <trkpt lat="45.96094" lon="4.82841">
        <ele>237</ele>
        <time>2018-07-03T09:07:33Z</time>
      </trkpt>
      <trkpt lat="45.96094" lon="4.82846">
        <ele>237</ele>
        <time>2018-07-03T09:07:34Z</time>
      </trkpt>
      <trkpt lat="45.96095" lon="4.82858">
        <ele>237</ele>
        <time>2018-07-03T09:07:36Z</time>
      </trkpt>
      <trkpt lat="45.96094" lon="4.82863">
        <ele>237</ele>
        <time>2018-07-03T09:07:37Z</time>
      </trkpt>
      <trkpt lat="45.96091" lon="4.82872">
        <ele>237</ele>
        <time>2018-07-03T09:07:39Z</time>
      </trkpt>
      <trkpt lat="45.96089" lon="4.82879">
        <ele>237</ele>
        <time>2018-07-03T09:07:40Z</time>
      </trkpt>
      <trkpt lat="45.96087" lon="4.82886">
        <ele>237</ele>
        <time>2018-07-03T09:07:41Z</time>
      </trkpt>
      <trkpt lat="45.96087" lon="4.82892">
        <ele>237</ele>
        <time>2018-07-03T09:07:42Z</time>
      </trkpt>
      <trkpt lat="45.96086" lon="4.82899">
        <ele>238</ele>
        <time>2018-07-03T09:07:43Z</time>
      </trkpt>
      <trkpt lat="45.96085" lon="4.82906">
        <ele>238</ele>
        <time>2018-07-03T09:07:44Z</time>
      </trkpt>
      <trkpt lat="45.96083" lon="4.82913">
        <ele>238</ele>
        <time>2018-07-03T09:07:45Z</time>
      </trkpt>
      <trkpt lat="45.96081" lon="4.8292">
        <ele>239</ele>
        <time>2018-07-03T09:07:46Z</time>
      </trkpt>
      <trkpt lat="45.96077" lon="4.82927">
        <ele>240</ele>
        <time>2018-07-03T09:07:47Z</time>
      </trkpt>
      <trkpt lat="45.96077" lon="4.82932">
        <ele>240</ele>
        <time>2018-07-03T09:07:48Z</time>
      </trkpt>
      <trkpt lat="45.96076" lon="4.8294">
        <ele>240</ele>
        <time>2018-07-03T09:07:49Z</time>
      </trkpt>
      <trkpt lat="45.96074" lon="4.82945">
        <ele>241</ele>
        <time>2018-07-03T09:07:50Z</time>
      </trkpt>
      <trkpt lat="45.96074" lon="4.82957">
        <ele>241</ele>
        <time>2018-07-03T09:07:52Z</time>
      </trkpt>
      <trkpt lat="45.96073" lon="4.82965">
        <ele>241</ele>
        <time>2018-07-03T09:07:53Z</time>
      </trkpt>
      <trkpt lat="45.96071" lon="4.82976">
        <ele>241</ele>
        <time>2018-07-03T09:07:55Z</time>
      </trkpt>
      <trkpt lat="45.96071" lon="4.82984">
        <ele>241</ele>
        <time>2018-07-03T09:07:56Z</time>
      </trkpt>
      <trkpt lat="45.96064" lon="4.82992">
        <ele>241</ele>
        <time>2018-07-03T09:07:58Z</time>
      </trkpt>
      <trkpt lat="45.96066" lon="4.82999">
        <ele>241</ele>
        <time>2018-07-03T09:07:59Z</time>
      </trkpt>
      <trkpt lat="45.96065" lon="4.83011">
        <ele>242</ele>
        <time>2018-07-03T09:08:01Z</time>
      </trkpt>
      <trkpt lat="45.96066" lon="4.83017">
        <ele>242</ele>
        <time>2018-07-03T09:08:02Z</time>
      </trkpt>
      <trkpt lat="45.96067" lon="4.83024">
        <ele>242</ele>
        <time>2018-07-03T09:08:03Z</time>
      </trkpt>
      <trkpt lat="45.96067" lon="4.83031">
        <ele>243</ele>
        <time>2018-07-03T09:08:04Z</time>
      </trkpt>
      <trkpt lat="45.96071" lon="4.83042">
        <ele>243</ele>
        <time>2018-07-03T09:08:06Z</time>
      </trkpt>
      <trkpt lat="45.96071" lon="4.83049">
        <ele>243</ele>
        <time>2018-07-03T09:08:07Z</time>
      </trkpt>
      <trkpt lat="45.96076" lon="4.83055">
        <ele>242</ele>
        <time>2018-07-03T09:08:08Z</time>
      </trkpt>
      <trkpt lat="45.96077" lon="4.83061">
        <ele>242</ele>
        <time>2018-07-03T09:08:09Z</time>
      </trkpt>
      <trkpt lat="45.96079" lon="4.83067">
        <ele>242</ele>
        <time>2018-07-03T09:08:10Z</time>
      </trkpt>
      <trkpt lat="45.96081" lon="4.83074">
        <ele>241</ele>
        <time>2018-07-03T09:08:11Z</time>
      </trkpt>
      <trkpt lat="45.96083" lon="4.83081">
        <ele>240</ele>
        <time>2018-07-03T09:08:12Z</time>
      </trkpt>
      <trkpt lat="45.96085" lon="4.83087">
        <ele>240</ele>
        <time>2018-07-03T09:08:13Z</time>
      </trkpt>
      <trkpt lat="45.96085" lon="4.83094">
        <ele>240</ele>
        <time>2018-07-03T09:08:14Z</time>
      </trkpt>
      <trkpt lat="45.96085" lon="4.83101">
        <ele>240</ele>
        <time>2018-07-03T09:08:15Z</time>
      </trkpt>
      <trkpt lat="45.96085" lon="4.83107">
        <ele>240</ele>
        <time>2018-07-03T09:08:16Z</time>
      </trkpt>
      <trkpt lat="45.96086" lon="4.83114">
        <ele>240</ele>
        <time>2018-07-03T09:08:17Z</time>
      </trkpt>
      <trkpt lat="45.96083" lon="4.83121">
        <ele>242</ele>
        <time>2018-07-03T09:08:18Z</time>
      </trkpt>
      <trkpt lat="45.96084" lon="4.83128">
        <ele>240</ele>
        <time>2018-07-03T09:08:19Z</time>
      </trkpt>
      <trkpt lat="45.96085" lon="4.83136">
        <ele>240</ele>
        <time>2018-07-03T09:08:20Z</time>
      </trkpt>
      <trkpt lat="45.96085" lon="4.83142">
        <ele>240</ele>
        <time>2018-07-03T09:08:21Z</time>
      </trkpt>
      <trkpt lat="45.96086" lon="4.8315">
        <ele>240</ele>
        <time>2018-07-03T09:08:22Z</time>
      </trkpt>
      <trkpt lat="45.96087" lon="4.83156">
        <ele>240</ele>
        <time>2018-07-03T09:08:23Z</time>
      </trkpt>
      <trkpt lat="45.96088" lon="4.83164">
        <ele>240</ele>
        <time>2018-07-03T09:08:24Z</time>
      </trkpt>
      <trkpt lat="45.96089" lon="4.83172">
        <ele>240</ele>
        <time>2018-07-03T09:08:25Z</time>
      </trkpt>
      <trkpt lat="45.96089" lon="4.83184">
        <ele>240</ele>
        <time>2018-07-03T09:08:27Z</time>
      </trkpt>
      <trkpt lat="45.96089" lon="4.8319">
        <ele>240</ele>
        <time>2018-07-03T09:08:28Z</time>
      </trkpt>
      <trkpt lat="45.9609" lon="4.83197">
        <ele>240</ele>
        <time>2018-07-03T09:08:29Z</time>
      </trkpt>
      <trkpt lat="45.9609" lon="4.83205">
        <ele>240</ele>
        <time>2018-07-03T09:08:30Z</time>
      </trkpt>
      <trkpt lat="45.9609" lon="4.83213">
        <ele>240</ele>
        <time>2018-07-03T09:08:31Z</time>
      </trkpt>
      <trkpt lat="45.9609" lon="4.83222">
        <ele>240</ele>
        <time>2018-07-03T09:08:32Z</time>
      </trkpt>
      <trkpt lat="45.96091" lon="4.83229">
        <ele>240</ele>
        <time>2018-07-03T09:08:33Z</time>
      </trkpt>
      <trkpt lat="45.96092" lon="4.83236">
        <ele>240</ele>
        <time>2018-07-03T09:08:34Z</time>
      </trkpt>
      <trkpt lat="45.96092" lon="4.83243">
        <ele>240</ele>
        <time>2018-07-03T09:08:35Z</time>
      </trkpt>
      <trkpt lat="45.9609" lon="4.83251">
        <ele>240</ele>
        <time>2018-07-03T09:08:36Z</time>
      </trkpt>
      <trkpt lat="45.96091" lon="4.83257">
        <ele>241</ele>
        <time>2018-07-03T09:08:37Z</time>
      </trkpt>
      <trkpt lat="45.9609" lon="4.83265">
        <ele>241</ele>
        <time>2018-07-03T09:08:38Z</time>
      </trkpt>
      <trkpt lat="45.96091" lon="4.83273">
        <ele>241</ele>
        <time>2018-07-03T09:08:39Z</time>
      </trkpt>
      <trkpt lat="45.96092" lon="4.83279">
        <ele>241</ele>
        <time>2018-07-03T09:08:40Z</time>
      </trkpt>
      <trkpt lat="45.96092" lon="4.8329">
        <ele>241</ele>
        <time>2018-07-03T09:08:42Z</time>
      </trkpt>
      <trkpt lat="45.96093" lon="4.83297">
        <ele>241</ele>
        <time>2018-07-03T09:08:43Z</time>
      </trkpt>
      <trkpt lat="45.96094" lon="4.83306">
        <ele>241</ele>
        <time>2018-07-03T09:08:45Z</time>
      </trkpt>
      <trkpt lat="45.96094" lon="4.83314">
        <ele>241</ele>
        <time>2018-07-03T09:08:46Z</time>
      </trkpt>
      <trkpt lat="45.96097" lon="4.83321">
        <ele>241</ele>
        <time>2018-07-03T09:08:47Z</time>
      </trkpt>
      <trkpt lat="45.96097" lon="4.83328">
        <ele>241</ele>
        <time>2018-07-03T09:08:48Z</time>
      </trkpt>
      <trkpt lat="45.96098" lon="4.83335">
        <ele>242</ele>
        <time>2018-07-03T09:08:49Z</time>
      </trkpt>
      <trkpt lat="45.961" lon="4.83342">
        <ele>242</ele>
        <time>2018-07-03T09:08:50Z</time>
      </trkpt>
      <trkpt lat="45.96103" lon="4.83349">
        <ele>242</ele>
        <time>2018-07-03T09:08:51Z</time>
      </trkpt>
      <trkpt lat="45.96104" lon="4.83355">
        <ele>242</ele>
        <time>2018-07-03T09:08:52Z</time>
      </trkpt>
      <trkpt lat="45.96105" lon="4.83361">
        <ele>242</ele>
        <time>2018-07-03T09:08:53Z</time>
      </trkpt>
      <trkpt lat="45.96107" lon="4.83368">
        <ele>242</ele>
        <time>2018-07-03T09:08:54Z</time>
      </trkpt>
      <trkpt lat="45.96108" lon="4.8338">
        <ele>242</ele>
        <time>2018-07-03T09:08:56Z</time>
      </trkpt>
      <trkpt lat="45.9611" lon="4.83386">
        <ele>243</ele>
        <time>2018-07-03T09:08:57Z</time>
      </trkpt>
      <trkpt lat="45.96111" lon="4.83392">
        <ele>243</ele>
        <time>2018-07-03T09:08:58Z</time>
      </trkpt>
      <trkpt lat="45.96112" lon="4.83399">
        <ele>243</ele>
        <time>2018-07-03T09:08:59Z</time>
      </trkpt>
      <trkpt lat="45.96114" lon="4.83405">
        <ele>243</ele>
        <time>2018-07-03T09:09:00Z</time>
      </trkpt>
      <trkpt lat="45.96115" lon="4.83412">
        <ele>243</ele>
        <time>2018-07-03T09:09:01Z</time>
      </trkpt>
      <trkpt lat="45.96115" lon="4.83419">
        <ele>243</ele>
        <time>2018-07-03T09:09:02Z</time>
      </trkpt>
      <trkpt lat="45.96116" lon="4.83425">
        <ele>243</ele>
        <time>2018-07-03T09:09:03Z</time>
      </trkpt>
      <trkpt lat="45.96119" lon="4.83437">
        <ele>242</ele>
        <time>2018-07-03T09:09:05Z</time>
      </trkpt>
      <trkpt lat="45.96119" lon="4.83444">
        <ele>242</ele>
        <time>2018-07-03T09:09:06Z</time>
      </trkpt>
      <trkpt lat="45.96121" lon="4.83455">
        <ele>242</ele>
        <time>2018-07-03T09:09:08Z</time>
      </trkpt>
      <trkpt lat="45.96123" lon="4.83461">
        <ele>242</ele>
        <time>2018-07-03T09:09:09Z</time>
      </trkpt>
      <trkpt lat="45.96125" lon="4.83473">
        <ele>242</ele>
        <time>2018-07-03T09:09:11Z</time>
      </trkpt>
      <trkpt lat="45.96126" lon="4.83478">
        <ele>242</ele>
        <time>2018-07-03T09:09:12Z</time>
      </trkpt>
      <trkpt lat="45.96129" lon="4.8349">
        <ele>242</ele>
        <time>2018-07-03T09:09:14Z</time>
      </trkpt>
      <trkpt lat="45.96131" lon="4.83495">
        <ele>242</ele>
        <time>2018-07-03T09:09:15Z</time>
      </trkpt>
      <trkpt lat="45.96133" lon="4.83507">
        <ele>242</ele>
        <time>2018-07-03T09:09:17Z</time>
      </trkpt>
      <trkpt lat="45.96136" lon="4.83511">
        <ele>242</ele>
        <time>2018-07-03T09:09:18Z</time>
      </trkpt>
      <trkpt lat="45.96138" lon="4.83521">
        <ele>242</ele>
        <time>2018-07-03T09:09:20Z</time>
      </trkpt>
      <trkpt lat="45.96138" lon="4.83526">
        <ele>242</ele>
        <time>2018-07-03T09:09:21Z</time>
      </trkpt>
      <trkpt lat="45.9614" lon="4.83537">
        <ele>242</ele>
        <time>2018-07-03T09:09:23Z</time>
      </trkpt>
      <trkpt lat="45.9614" lon="4.83539">
        <ele>242</ele>
        <time>2018-07-03T09:09:24Z</time>
      </trkpt>
      <trkpt lat="45.96141" lon="4.83547">
        <ele>242</ele>
        <time>2018-07-03T09:09:25Z</time>
      </trkpt>
      <trkpt lat="45.96142" lon="4.83552">
        <ele>242</ele>
        <time>2018-07-03T09:09:26Z</time>
      </trkpt>
      <trkpt lat="45.96145" lon="4.83563">
        <ele>241</ele>
        <time>2018-07-03T09:09:28Z</time>
      </trkpt>
      <trkpt lat="45.96145" lon="4.83566">
        <ele>241</ele>
        <time>2018-07-03T09:09:29Z</time>
      </trkpt>
      <trkpt lat="45.96147" lon="4.83573">
        <ele>241</ele>
        <time>2018-07-03T09:09:30Z</time>
      </trkpt>
      <trkpt lat="45.96148" lon="4.83578">
        <ele>241</ele>
        <time>2018-07-03T09:09:31Z</time>
      </trkpt>
      <trkpt lat="45.96151" lon="4.8359">
        <ele>242</ele>
        <time>2018-07-03T09:09:33Z</time>
      </trkpt>
      <trkpt lat="45.96152" lon="4.83595">
        <ele>242</ele>
        <time>2018-07-03T09:09:34Z</time>
      </trkpt>
      <trkpt lat="45.96154" lon="4.83607">
        <ele>242</ele>
        <time>2018-07-03T09:09:36Z</time>
      </trkpt>
      <trkpt lat="45.96156" lon="4.83613">
        <ele>242</ele>
        <time>2018-07-03T09:09:37Z</time>
      </trkpt>
      <trkpt lat="45.96158" lon="4.8362">
        <ele>242</ele>
        <time>2018-07-03T09:09:38Z</time>
      </trkpt>
      <trkpt lat="45.9616" lon="4.83627">
        <ele>242</ele>
        <time>2018-07-03T09:09:39Z</time>
      </trkpt>
      <trkpt lat="45.96161" lon="4.83633">
        <ele>243</ele>
        <time>2018-07-03T09:09:40Z</time>
      </trkpt>
      <trkpt lat="45.96163" lon="4.83639">
        <ele>243</ele>
        <time>2018-07-03T09:09:41Z</time>
      </trkpt>
      <trkpt lat="45.96168" lon="4.83649">
        <ele>242</ele>
        <time>2018-07-03T09:09:43Z</time>
      </trkpt>
      <trkpt lat="45.96171" lon="4.83653">
        <ele>242</ele>
        <time>2018-07-03T09:09:44Z</time>
      </trkpt>
      <trkpt lat="45.96174" lon="4.83657">
        <ele>242</ele>
        <time>2018-07-03T09:09:45Z</time>
      </trkpt>
      <trkpt lat="45.96178" lon="4.83661">
        <ele>242</ele>
        <time>2018-07-03T09:09:46Z</time>
      </trkpt>
      <trkpt lat="45.96181" lon="4.83665">
        <ele>242</ele>
        <time>2018-07-03T09:09:47Z</time>
      </trkpt>
      <trkpt lat="45.96185" lon="4.8367">
        <ele>243</ele>
        <time>2018-07-03T09:09:48Z</time>
      </trkpt>
      <trkpt lat="45.96189" lon="4.83675">
        <ele>243</ele>
        <time>2018-07-03T09:09:49Z</time>
      </trkpt>
      <trkpt lat="45.96194" lon="4.83679">
        <ele>243</ele>
        <time>2018-07-03T09:09:50Z</time>
      </trkpt>
      <trkpt lat="45.96197" lon="4.83684">
        <ele>243</ele>
        <time>2018-07-03T09:09:51Z</time>
      </trkpt>
      <trkpt lat="45.96201" lon="4.83688">
        <ele>243</ele>
        <time>2018-07-03T09:09:52Z</time>
      </trkpt>
      <trkpt lat="45.96205" lon="4.83693">
        <ele>243</ele>
        <time>2018-07-03T09:09:53Z</time>
      </trkpt>
      <trkpt lat="45.96208" lon="4.83696">
        <ele>243</ele>
        <time>2018-07-03T09:09:54Z</time>
      </trkpt>
      <trkpt lat="45.96214" lon="4.83703">
        <ele>244</ele>
        <time>2018-07-03T09:09:56Z</time>
      </trkpt>
      <trkpt lat="45.96219" lon="4.83707">
        <ele>244</ele>
        <time>2018-07-03T09:09:57Z</time>
      </trkpt>
      <trkpt lat="45.96222" lon="4.83713">
        <ele>244</ele>
        <time>2018-07-03T09:09:58Z</time>
      </trkpt>
      <trkpt lat="45.96226" lon="4.83717">
        <ele>244</ele>
        <time>2018-07-03T09:09:59Z</time>
      </trkpt>
      <trkpt lat="45.96231" lon="4.8372">
        <ele>244</ele>
        <time>2018-07-03T09:10:00Z</time>
      </trkpt>
      <trkpt lat="45.96233" lon="4.83724">
        <ele>244</ele>
        <time>2018-07-03T09:10:01Z</time>
      </trkpt>
      <trkpt lat="45.96238" lon="4.83729">
        <ele>244</ele>
        <time>2018-07-03T09:10:02Z</time>
      </trkpt>
      <trkpt lat="45.96241" lon="4.83732">
        <ele>244</ele>
        <time>2018-07-03T09:10:03Z</time>
      </trkpt>
      <trkpt lat="45.96246" lon="4.83736">
        <ele>244</ele>
        <time>2018-07-03T09:10:04Z</time>
      </trkpt>
      <trkpt lat="45.9625" lon="4.83741">
        <ele>244</ele>
        <time>2018-07-03T09:10:05Z</time>
      </trkpt>
      <trkpt lat="45.96253" lon="4.83744">
        <ele>245</ele>
        <time>2018-07-03T09:10:06Z</time>
      </trkpt>
      <trkpt lat="45.96258" lon="4.83748">
        <ele>245</ele>
        <time>2018-07-03T09:10:07Z</time>
      </trkpt>
      <trkpt lat="45.96262" lon="4.83753">
        <ele>244</ele>
        <time>2018-07-03T09:10:08Z</time>
      </trkpt>
      <trkpt lat="45.96265" lon="4.83756">
        <ele>245</ele>
        <time>2018-07-03T09:10:09Z</time>
      </trkpt>
      <trkpt lat="45.96272" lon="4.83764">
        <ele>245</ele>
        <time>2018-07-03T09:10:11Z</time>
      </trkpt>
      <trkpt lat="45.96275" lon="4.83769">
        <ele>245</ele>
        <time>2018-07-03T09:10:12Z</time>
      </trkpt>
      <trkpt lat="45.96279" lon="4.83772">
        <ele>245</ele>
        <time>2018-07-03T09:10:13Z</time>
      </trkpt>
      <trkpt lat="45.96284" lon="4.83776">
        <ele>245</ele>
        <time>2018-07-03T09:10:14Z</time>
      </trkpt>
      <trkpt lat="45.96289" lon="4.8378">
        <ele>245</ele>
        <time>2018-07-03T09:10:15Z</time>
      </trkpt>
      <trkpt lat="45.96293" lon="4.83784">
        <ele>245</ele>
        <time>2018-07-03T09:10:16Z</time>
      </trkpt>
      <trkpt lat="45.96301" lon="4.8379">
        <ele>245</ele>
        <time>2018-07-03T09:10:18Z</time>
      </trkpt>
      <trkpt lat="45.96304" lon="4.83793">
        <ele>245</ele>
        <time>2018-07-03T09:10:19Z</time>
      </trkpt>
      <trkpt lat="45.96308" lon="4.83798">
        <ele>245</ele>
        <time>2018-07-03T09:10:20Z</time>
      </trkpt>
      <trkpt lat="45.96316" lon="4.83801">
        <ele>245</ele>
        <time>2018-07-03T09:10:21Z</time>
      </trkpt>
      <trkpt lat="45.96321" lon="4.83804">
        <ele>245</ele>
        <time>2018-07-03T09:10:22Z</time>
      </trkpt>
      <trkpt lat="45.96326" lon="4.83807">
        <ele>245</ele>
        <time>2018-07-03T09:10:23Z</time>
      </trkpt>
      <trkpt lat="45.96333" lon="4.83814">
        <ele>244</ele>
        <time>2018-07-03T09:10:25Z</time>
      </trkpt>
      <trkpt lat="45.96336" lon="4.83818">
        <ele>245</ele>
        <time>2018-07-03T09:10:26Z</time>
      </trkpt>
      <trkpt lat="45.9634" lon="4.83822">
        <ele>245</ele>
        <time>2018-07-03T09:10:27Z</time>
      </trkpt>
      <trkpt lat="45.96343" lon="4.83827">
        <ele>245</ele>
        <time>2018-07-03T09:10:28Z</time>
      </trkpt>
      <trkpt lat="45.96346" lon="4.83832">
        <ele>245</ele>
        <time>2018-07-03T09:10:29Z</time>
      </trkpt>
      <trkpt lat="45.9635" lon="4.83837">
        <ele>245</ele>
        <time>2018-07-03T09:10:30Z</time>
      </trkpt>
      <trkpt lat="45.96354" lon="4.83842">
        <ele>246</ele>
        <time>2018-07-03T09:10:31Z</time>
      </trkpt>
      <trkpt lat="45.96357" lon="4.83846">
        <ele>246</ele>
        <time>2018-07-03T09:10:32Z</time>
      </trkpt>
      <trkpt lat="45.96362" lon="4.83855">
        <ele>246</ele>
        <time>2018-07-03T09:10:34Z</time>
      </trkpt>
      <trkpt lat="45.96363" lon="4.8386">
        <ele>247</ele>
        <time>2018-07-03T09:10:35Z</time>
      </trkpt>
      <trkpt lat="45.96367" lon="4.83869">
        <ele>247</ele>
        <time>2018-07-03T09:10:37Z</time>
      </trkpt>
      <trkpt lat="45.96368" lon="4.83872">
        <ele>247</ele>
        <time>2018-07-03T09:10:38Z</time>
      </trkpt>
      <trkpt lat="45.96369" lon="4.83875">
        <ele>247</ele>
        <time>2018-07-03T09:10:39Z</time>
      </trkpt>
      <trkpt lat="45.96374" lon="4.83884">
        <ele>248</ele>
        <time>2018-07-03T09:10:40Z</time>
      </trkpt>
      <trkpt lat="45.96377" lon="4.83891">
        <ele>248</ele>
        <time>2018-07-03T09:10:42Z</time>
      </trkpt>
      <trkpt lat="45.9638" lon="4.83899">
        <ele>248</ele>
        <time>2018-07-03T09:10:43Z</time>
      </trkpt>
      <trkpt lat="45.96384" lon="4.8391">
        <ele>248</ele>
        <time>2018-07-03T09:10:45Z</time>
      </trkpt>
      <trkpt lat="45.96386" lon="4.83914">
        <ele>248</ele>
        <time>2018-07-03T09:10:46Z</time>
      </trkpt>
      <trkpt lat="45.96391" lon="4.83922">
        <ele>251</ele>
        <time>2018-07-03T09:10:48Z</time>
      </trkpt>
      <trkpt lat="45.96394" lon="4.83927">
        <ele>251</ele>
        <time>2018-07-03T09:10:49Z</time>
      </trkpt>
      <trkpt lat="45.96398" lon="4.83936">
        <ele>251</ele>
        <time>2018-07-03T09:10:51Z</time>
      </trkpt>
      <trkpt lat="45.96398" lon="4.83941">
        <ele>251</ele>
        <time>2018-07-03T09:10:52Z</time>
      </trkpt>
      <trkpt lat="45.96403" lon="4.83951">
        <ele>252</ele>
        <time>2018-07-03T09:10:54Z</time>
      </trkpt>
      <trkpt lat="45.96406" lon="4.83957">
        <ele>252</ele>
        <time>2018-07-03T09:10:55Z</time>
      </trkpt>
      <trkpt lat="45.96411" lon="4.83965">
        <ele>252</ele>
        <time>2018-07-03T09:10:57Z</time>
      </trkpt>
      <trkpt lat="45.96412" lon="4.83971">
        <ele>253</ele>
        <time>2018-07-03T09:10:58Z</time>
      </trkpt>
      <trkpt lat="45.96416" lon="4.83981">
        <ele>253</ele>
        <time>2018-07-03T09:11:01Z</time>
      </trkpt>
      <trkpt lat="45.96417" lon="4.83984">
        <ele>251</ele>
        <time>2018-07-03T09:11:02Z</time>
      </trkpt>
      <trkpt lat="45.96421" lon="4.83992">
        <ele>252</ele>
        <time>2018-07-03T09:11:03Z</time>
      </trkpt>
      <trkpt lat="45.96423" lon="4.83994">
        <ele>252</ele>
        <time>2018-07-03T09:11:04Z</time>
      </trkpt>
      <trkpt lat="45.96427" lon="4.84003">
        <ele>252</ele>
        <time>2018-07-03T09:11:06Z</time>
      </trkpt>
      <trkpt lat="45.9643" lon="4.84009">
        <ele>252</ele>
        <time>2018-07-03T09:11:07Z</time>
      </trkpt>
      <trkpt lat="45.96433" lon="4.84016">
        <ele>252</ele>
        <time>2018-07-03T09:11:09Z</time>
      </trkpt>
      <trkpt lat="45.96435" lon="4.84022">
        <ele>251</ele>
        <time>2018-07-03T09:11:10Z</time>
      </trkpt>
      <trkpt lat="45.96441" lon="4.84031">
        <ele>251</ele>
        <time>2018-07-03T09:11:12Z</time>
      </trkpt>
      <trkpt lat="45.96443" lon="4.84035">
        <ele>251</ele>
        <time>2018-07-03T09:11:13Z</time>
      </trkpt>
      <trkpt lat="45.96446" lon="4.84045">
        <ele>251</ele>
        <time>2018-07-03T09:11:15Z</time>
      </trkpt>
      <trkpt lat="45.96448" lon="4.8405">
        <ele>251</ele>
        <time>2018-07-03T09:11:16Z</time>
      </trkpt>
      <trkpt lat="45.96453" lon="4.8406">
        <ele>251</ele>
        <time>2018-07-03T09:11:18Z</time>
      </trkpt>
      <trkpt lat="45.96455" lon="4.84065">
        <ele>251</ele>
        <time>2018-07-03T09:11:19Z</time>
      </trkpt>
      <trkpt lat="45.96458" lon="4.84075">
        <ele>251</ele>
        <time>2018-07-03T09:11:21Z</time>
      </trkpt>
      <trkpt lat="45.9646" lon="4.8408">
        <ele>251</ele>
        <time>2018-07-03T09:11:22Z</time>
      </trkpt>
      <trkpt lat="45.96463" lon="4.84091">
        <ele>251</ele>
        <time>2018-07-03T09:11:24Z</time>
      </trkpt>
      <trkpt lat="45.96465" lon="4.84096">
        <ele>251</ele>
        <time>2018-07-03T09:11:25Z</time>
      </trkpt>
      <trkpt lat="45.96469" lon="4.84106">
        <ele>251</ele>
        <time>2018-07-03T09:11:27Z</time>
      </trkpt>
      <trkpt lat="45.9647" lon="4.84108">
        <ele>251</ele>
        <time>2018-07-03T09:11:28Z</time>
      </trkpt>
      <trkpt lat="45.96473" lon="4.84118">
        <ele>251</ele>
        <time>2018-07-03T09:11:30Z</time>
      </trkpt>
      <trkpt lat="45.96474" lon="4.84121">
        <ele>251</ele>
        <time>2018-07-03T09:11:31Z</time>
      </trkpt>
      <trkpt lat="45.96475" lon="4.84124">
        <ele>251</ele>
        <time>2018-07-03T09:11:32Z</time>
      </trkpt>
      <trkpt lat="45.96478" lon="4.84134">
        <ele>251</ele>
        <time>2018-07-03T09:11:33Z</time>
      </trkpt>
      <trkpt lat="45.96481" lon="4.84143">
        <ele>251</ele>
        <time>2018-07-03T09:11:35Z</time>
      </trkpt>
      <trkpt lat="45.96482" lon="4.84147">
        <ele>251</ele>
        <time>2018-07-03T09:11:36Z</time>
      </trkpt>
      <trkpt lat="45.96483" lon="4.84158">
        <ele>251</ele>
        <time>2018-07-03T09:11:38Z</time>
      </trkpt>
      <trkpt lat="45.96484" lon="4.84163">
        <ele>250</ele>
        <time>2018-07-03T09:11:39Z</time>
      </trkpt>
      <trkpt lat="45.96487" lon="4.84173">
        <ele>251</ele>
        <time>2018-07-03T09:11:41Z</time>
      </trkpt>
      <trkpt lat="45.96488" lon="4.84179">
        <ele>251</ele>
        <time>2018-07-03T09:11:42Z</time>
      </trkpt>
      <trkpt lat="45.96491" lon="4.8419">
        <ele>251</ele>
        <time>2018-07-03T09:11:44Z</time>
      </trkpt>
      <trkpt lat="45.96492" lon="4.84196">
        <ele>251</ele>
        <time>2018-07-03T09:11:45Z</time>
      </trkpt>
      <trkpt lat="45.96494" lon="4.84208">
        <ele>251</ele>
        <time>2018-07-03T09:11:47Z</time>
      </trkpt>
      <trkpt lat="45.96496" lon="4.84214">
        <ele>252</ele>
        <time>2018-07-03T09:11:48Z</time>
      </trkpt>
      <trkpt lat="45.96497" lon="4.84221">
        <ele>252</ele>
        <time>2018-07-03T09:11:49Z</time>
      </trkpt>
      <trkpt lat="45.96498" lon="4.84227">
        <ele>252</ele>
        <time>2018-07-03T09:11:50Z</time>
      </trkpt>
      <trkpt lat="45.965" lon="4.84234">
        <ele>250</ele>
        <time>2018-07-03T09:11:51Z</time>
      </trkpt>
      <trkpt lat="45.96503" lon="4.84241">
        <ele>250</ele>
        <time>2018-07-03T09:11:52Z</time>
      </trkpt>
      <trkpt lat="45.96505" lon="4.84248">
        <ele>251</ele>
        <time>2018-07-03T09:11:53Z</time>
      </trkpt>
      <trkpt lat="45.96506" lon="4.84254">
        <ele>251</ele>
        <time>2018-07-03T09:11:54Z</time>
      </trkpt>
      <trkpt lat="45.96508" lon="4.8426">
        <ele>251</ele>
        <time>2018-07-03T09:11:55Z</time>
      </trkpt>
      <trkpt lat="45.96509" lon="4.84267">
        <ele>250</ele>
        <time>2018-07-03T09:11:56Z</time>
      </trkpt>
      <trkpt lat="45.96511" lon="4.84274">
        <ele>250</ele>
        <time>2018-07-03T09:11:57Z</time>
      </trkpt>
      <trkpt lat="45.96513" lon="4.84281">
        <ele>250</ele>
        <time>2018-07-03T09:11:58Z</time>
      </trkpt>
      <trkpt lat="45.96514" lon="4.84288">
        <ele>250</ele>
        <time>2018-07-03T09:11:59Z</time>
      </trkpt>
      <trkpt lat="45.96516" lon="4.84295">
        <ele>250</ele>
        <time>2018-07-03T09:12:00Z</time>
      </trkpt>
      <trkpt lat="45.96518" lon="4.84303">
        <ele>250</ele>
        <time>2018-07-03T09:12:01Z</time>
      </trkpt>
      <trkpt lat="45.96521" lon="4.84312">
        <ele>250</ele>
        <time>2018-07-03T09:12:02Z</time>
      </trkpt>
      <trkpt lat="45.96521" lon="4.84319">
        <ele>250</ele>
        <time>2018-07-03T09:12:03Z</time>
      </trkpt>
      <trkpt lat="45.96521" lon="4.84327">
        <ele>250</ele>
        <time>2018-07-03T09:12:04Z</time>
      </trkpt>
      <trkpt lat="45.96522" lon="4.84332">
        <ele>250</ele>
        <time>2018-07-03T09:12:05Z</time>
      </trkpt>
      <trkpt lat="45.96523" lon="4.84341">
        <ele>251</ele>
        <time>2018-07-03T09:12:06Z</time>
      </trkpt>
      <trkpt lat="45.96527" lon="4.84349">
        <ele>251</ele>
        <time>2018-07-03T09:12:07Z</time>
      </trkpt>
      <trkpt lat="45.9653" lon="4.84357">
        <ele>251</ele>
        <time>2018-07-03T09:12:08Z</time>
      </trkpt>
      <trkpt lat="45.96531" lon="4.84365">
        <ele>251</ele>
        <time>2018-07-03T09:12:09Z</time>
      </trkpt>
      <trkpt lat="45.96531" lon="4.84374">
        <ele>251</ele>
        <time>2018-07-03T09:12:10Z</time>
      </trkpt>
      <trkpt lat="45.96531" lon="4.84381">
        <ele>251</ele>
        <time>2018-07-03T09:12:11Z</time>
      </trkpt>
      <trkpt lat="45.96532" lon="4.84388">
        <ele>252</ele>
        <time>2018-07-03T09:12:12Z</time>
      </trkpt>
      <trkpt lat="45.96533" lon="4.84395">
        <ele>252</ele>
        <time>2018-07-03T09:12:13Z</time>
      </trkpt>
      <trkpt lat="45.96532" lon="4.84401">
        <ele>252</ele>
        <time>2018-07-03T09:12:14Z</time>
      </trkpt>
      <trkpt lat="45.9653" lon="4.84413">
        <ele>252</ele>
        <time>2018-07-03T09:12:16Z</time>
      </trkpt>
      <trkpt lat="45.96531" lon="4.84422">
        <ele>253</ele>
        <time>2018-07-03T09:12:17Z</time>
      </trkpt>
      <trkpt lat="45.9653" lon="4.84428">
        <ele>253</ele>
        <time>2018-07-03T09:12:18Z</time>
      </trkpt>
      <trkpt lat="45.9653" lon="4.84435">
        <ele>253</ele>
        <time>2018-07-03T09:12:19Z</time>
      </trkpt>
      <trkpt lat="45.96528" lon="4.84443">
        <ele>253</ele>
        <time>2018-07-03T09:12:20Z</time>
      </trkpt>
      <trkpt lat="45.96527" lon="4.84449">
        <ele>253</ele>
        <time>2018-07-03T09:12:21Z</time>
      </trkpt>
      <trkpt lat="45.96527" lon="4.84456">
        <ele>253</ele>
        <time>2018-07-03T09:12:22Z</time>
      </trkpt>
      <trkpt lat="45.96527" lon="4.84462">
        <ele>253</ele>
        <time>2018-07-03T09:12:23Z</time>
      </trkpt>
      <trkpt lat="45.96526" lon="4.84469">
        <ele>253</ele>
        <time>2018-07-03T09:12:24Z</time>
      </trkpt>
      <trkpt lat="45.96526" lon="4.84477">
        <ele>253</ele>
        <time>2018-07-03T09:12:25Z</time>
      </trkpt>
      <trkpt lat="45.96525" lon="4.84487">
        <ele>253</ele>
        <time>2018-07-03T09:12:27Z</time>
      </trkpt>
      <trkpt lat="45.96524" lon="4.84493">
        <ele>253</ele>
        <time>2018-07-03T09:12:28Z</time>
      </trkpt>
      <trkpt lat="45.96525" lon="4.845">
        <ele>253</ele>
        <time>2018-07-03T09:12:29Z</time>
      </trkpt>
      <trkpt lat="45.96525" lon="4.84507">
        <ele>253</ele>
        <time>2018-07-03T09:12:30Z</time>
      </trkpt>
      <trkpt lat="45.96524" lon="4.84514">
        <ele>253</ele>
        <time>2018-07-03T09:12:31Z</time>
      </trkpt>
      <trkpt lat="45.96523" lon="4.8452">
        <ele>253</ele>
        <time>2018-07-03T09:12:32Z</time>
      </trkpt>
      <trkpt lat="45.96523" lon="4.84528">
        <ele>253</ele>
        <time>2018-07-03T09:12:33Z</time>
      </trkpt>
      <trkpt lat="45.96523" lon="4.84535">
        <ele>253</ele>
        <time>2018-07-03T09:12:34Z</time>
      </trkpt>
      <trkpt lat="45.96523" lon="4.84543">
        <ele>253</ele>
        <time>2018-07-03T09:12:35Z</time>
      </trkpt>
      <trkpt lat="45.96523" lon="4.84552">
        <ele>253</ele>
        <time>2018-07-03T09:12:36Z</time>
      </trkpt>
      <trkpt lat="45.96523" lon="4.84559">
        <ele>253</ele>
        <time>2018-07-03T09:12:37Z</time>
      </trkpt>
      <trkpt lat="45.96523" lon="4.84566">
        <ele>253</ele>
        <time>2018-07-03T09:12:38Z</time>
      </trkpt>
      <trkpt lat="45.96522" lon="4.84577">
        <ele>253</ele>
        <time>2018-07-03T09:12:40Z</time>
      </trkpt>
      <trkpt lat="45.96521" lon="4.84584">
        <ele>252</ele>
        <time>2018-07-03T09:12:41Z</time>
      </trkpt>
      <trkpt lat="45.9652" lon="4.84595">
        <ele>252</ele>
        <time>2018-07-03T09:12:43Z</time>
      </trkpt>
      <trkpt lat="45.9652" lon="4.84602">
        <ele>252</ele>
        <time>2018-07-03T09:12:44Z</time>
      </trkpt>
      <trkpt lat="45.96519" lon="4.84614">
        <ele>252</ele>
        <time>2018-07-03T09:12:46Z</time>
      </trkpt>
      <trkpt lat="45.96519" lon="4.84621">
        <ele>252</ele>
        <time>2018-07-03T09:12:47Z</time>
      </trkpt>
      <trkpt lat="45.96519" lon="4.84633">
        <ele>252</ele>
        <time>2018-07-03T09:12:49Z</time>
      </trkpt>
      <trkpt lat="45.96518" lon="4.8464">
        <ele>252</ele>
        <time>2018-07-03T09:12:50Z</time>
      </trkpt>
      <trkpt lat="45.9652" lon="4.84648">
        <ele>252</ele>
        <time>2018-07-03T09:12:51Z</time>
      </trkpt>
      <trkpt lat="45.96519" lon="4.84655">
        <ele>252</ele>
        <time>2018-07-03T09:12:52Z</time>
      </trkpt>
      <trkpt lat="45.9652" lon="4.84661">
        <ele>252</ele>
        <time>2018-07-03T09:12:53Z</time>
      </trkpt>
      <trkpt lat="45.96522" lon="4.84667">
        <ele>252</ele>
        <time>2018-07-03T09:12:54Z</time>
      </trkpt>
      <trkpt lat="45.96524" lon="4.84674">
        <ele>252</ele>
        <time>2018-07-03T09:12:55Z</time>
      </trkpt>
      <trkpt lat="45.96525" lon="4.84681">
        <ele>252</ele>
        <time>2018-07-03T09:12:56Z</time>
      </trkpt>
      <trkpt lat="45.96528" lon="4.84693">
        <ele>253</ele>
        <time>2018-07-03T09:12:58Z</time>
      </trkpt>
      <trkpt lat="45.96529" lon="4.84699">
        <ele>253</ele>
        <time>2018-07-03T09:12:59Z</time>
      </trkpt>
      <trkpt lat="45.9653" lon="4.84706">
        <ele>253</ele>
        <time>2018-07-03T09:13:01Z</time>
      </trkpt>
      <trkpt lat="45.9653" lon="4.84714">
        <ele>253</ele>
        <time>2018-07-03T09:13:02Z</time>
      </trkpt>
      <trkpt lat="45.96529" lon="4.84722">
        <ele>253</ele>
        <time>2018-07-03T09:13:03Z</time>
      </trkpt>
      <trkpt lat="45.96529" lon="4.84727">
        <ele>253</ele>
        <time>2018-07-03T09:13:04Z</time>
      </trkpt>
      <trkpt lat="45.9653" lon="4.84734">
        <ele>253</ele>
        <time>2018-07-03T09:13:05Z</time>
      </trkpt>
      <trkpt lat="45.96528" lon="4.84742">
        <ele>253</ele>
        <time>2018-07-03T09:13:06Z</time>
      </trkpt>
      <trkpt lat="45.96526" lon="4.84748">
        <ele>253</ele>
        <time>2018-07-03T09:13:07Z</time>
      </trkpt>
      <trkpt lat="45.96525" lon="4.84755">
        <ele>253</ele>
        <time>2018-07-03T09:13:08Z</time>
      </trkpt>
      <trkpt lat="45.96521" lon="4.84766">
        <ele>253</ele>
        <time>2018-07-03T09:13:10Z</time>
      </trkpt>
      <trkpt lat="45.9652" lon="4.84771">
        <ele>253</ele>
        <time>2018-07-03T09:13:11Z</time>
      </trkpt>
      <trkpt lat="45.96517" lon="4.84783">
        <ele>254</ele>
        <time>2018-07-03T09:13:13Z</time>
      </trkpt>
      <trkpt lat="45.96517" lon="4.84788">
        <ele>254</ele>
        <time>2018-07-03T09:13:14Z</time>
      </trkpt>
      <trkpt lat="45.96514" lon="4.84799">
        <ele>254</ele>
        <time>2018-07-03T09:13:16Z</time>
      </trkpt>
      <trkpt lat="45.96513" lon="4.84805">
        <ele>254</ele>
        <time>2018-07-03T09:13:17Z</time>
      </trkpt>
      <trkpt lat="45.96511" lon="4.84816">
        <ele>254</ele>
        <time>2018-07-03T09:13:19Z</time>
      </trkpt>
      <trkpt lat="45.96511" lon="4.84819">
        <ele>254</ele>
        <time>2018-07-03T09:13:20Z</time>
      </trkpt>
      <trkpt lat="45.96509" lon="4.84829">
        <ele>253</ele>
        <time>2018-07-03T09:13:23Z</time>
      </trkpt>
      <trkpt lat="45.96508" lon="4.84833">
        <ele>253</ele>
        <time>2018-07-03T09:13:24Z</time>
      </trkpt>
      <trkpt lat="45.96504" lon="4.84844">
        <ele>255</ele>
        <time>2018-07-03T09:13:25Z</time>
      </trkpt>
      <trkpt lat="45.96504" lon="4.84846">
        <ele>255</ele>
        <time>2018-07-03T09:13:26Z</time>
      </trkpt>
      <trkpt lat="45.96501" lon="4.84857">
        <ele>256</ele>
        <time>2018-07-03T09:13:30Z</time>
      </trkpt>
      <trkpt lat="45.965" lon="4.84861">
        <ele>257</ele>
        <time>2018-07-03T09:13:31Z</time>
      </trkpt>
      <trkpt lat="45.96498" lon="4.84873">
        <ele>255</ele>
        <time>2018-07-03T09:13:34Z</time>
      </trkpt>
      <trkpt lat="45.96497" lon="4.84878">
        <ele>255</ele>
        <time>2018-07-03T09:13:35Z</time>
      </trkpt>
      <trkpt lat="45.96495" lon="4.84886">
        <ele>255</ele>
        <time>2018-07-03T09:13:37Z</time>
      </trkpt>
      <trkpt lat="45.96494" lon="4.8489">
        <ele>256</ele>
        <time>2018-07-03T09:13:38Z</time>
      </trkpt>
      <trkpt lat="45.96491" lon="4.84902">
        <ele>256</ele>
        <time>2018-07-03T09:13:41Z</time>
      </trkpt>
      <trkpt lat="45.9649" lon="4.84906">
        <ele>256</ele>
        <time>2018-07-03T09:13:42Z</time>
      </trkpt>
      <trkpt lat="45.96487" lon="4.84918">
        <ele>259</ele>
        <time>2018-07-03T09:13:45Z</time>
      </trkpt>
      <trkpt lat="45.96486" lon="4.84922">
        <ele>259</ele>
        <time>2018-07-03T09:13:46Z</time>
      </trkpt>
      <trkpt lat="45.96484" lon="4.84933">
        <ele>259</ele>
        <time>2018-07-03T09:13:49Z</time>
      </trkpt>
      <trkpt lat="45.96484" lon="4.84936">
        <ele>260</ele>
        <time>2018-07-03T09:13:50Z</time>
      </trkpt>
      <trkpt lat="45.96481" lon="4.84948">
        <ele>260</ele>
        <time>2018-07-03T09:13:53Z</time>
      </trkpt>
      <trkpt lat="45.9648" lon="4.84952">
        <ele>261</ele>
        <time>2018-07-03T09:13:54Z</time>
      </trkpt>
      <trkpt lat="45.96477" lon="4.84963">
        <ele>261</ele>
        <time>2018-07-03T09:13:57Z</time>
      </trkpt>
      <trkpt lat="45.96476" lon="4.84966">
        <ele>261</ele>
        <time>2018-07-03T09:13:58Z</time>
      </trkpt>
      <trkpt lat="45.96474" lon="4.84977">
        <ele>262</ele>
        <time>2018-07-03T09:14:01Z</time>
      </trkpt>
      <trkpt lat="45.96473" lon="4.84981">
        <ele>262</ele>
        <time>2018-07-03T09:14:02Z</time>
      </trkpt>
      <trkpt lat="45.96471" lon="4.84992">
        <ele>263</ele>
        <time>2018-07-03T09:14:05Z</time>
      </trkpt>
      <trkpt lat="45.9647" lon="4.84996">
        <ele>263</ele>
        <time>2018-07-03T09:14:06Z</time>
      </trkpt>
      <trkpt lat="45.9647" lon="4.85007">
        <ele>266</ele>
        <time>2018-07-03T09:14:09Z</time>
      </trkpt>
      <trkpt lat="45.96469" lon="4.85011">
        <ele>266</ele>
        <time>2018-07-03T09:14:10Z</time>
      </trkpt>
      <trkpt lat="45.96468" lon="4.85023">
        <ele>266</ele>
        <time>2018-07-03T09:14:13Z</time>
      </trkpt>
      <trkpt lat="45.96468" lon="4.85026">
        <ele>266</ele>
        <time>2018-07-03T09:14:14Z</time>
      </trkpt>
      <trkpt lat="45.96467" lon="4.85039">
        <ele>266</ele>
        <time>2018-07-03T09:14:17Z</time>
      </trkpt>
      <trkpt lat="45.96467" lon="4.85043">
        <ele>266</ele>
        <time>2018-07-03T09:14:18Z</time>
      </trkpt>
      <trkpt lat="45.96467" lon="4.85054">
        <ele>266</ele>
        <time>2018-07-03T09:14:21Z</time>
      </trkpt>
      <trkpt lat="45.96467" lon="4.85058">
        <ele>266</ele>
        <time>2018-07-03T09:14:22Z</time>
      </trkpt>
      <trkpt lat="45.96467" lon="4.8507">
        <ele>266</ele>
        <time>2018-07-03T09:14:25Z</time>
      </trkpt>
      <trkpt lat="45.96467" lon="4.85074">
        <ele>266</ele>
        <time>2018-07-03T09:14:26Z</time>
      </trkpt>
      <trkpt lat="45.96467" lon="4.85085">
        <ele>268</ele>
        <time>2018-07-03T09:14:29Z</time>
      </trkpt>
      <trkpt lat="45.96467" lon="4.85089">
        <ele>268</ele>
        <time>2018-07-03T09:14:30Z</time>
      </trkpt>
      <trkpt lat="45.96467" lon="4.851">
        <ele>268</ele>
        <time>2018-07-03T09:14:33Z</time>
      </trkpt>
      <trkpt lat="45.96467" lon="4.85104">
        <ele>268</ele>
        <time>2018-07-03T09:14:34Z</time>
      </trkpt>
      <trkpt lat="45.96467" lon="4.85115">
        <ele>268</ele>
        <time>2018-07-03T09:14:37Z</time>
      </trkpt>
      <trkpt lat="45.96466" lon="4.85119">
        <ele>268</ele>
        <time>2018-07-03T09:14:38Z</time>
      </trkpt>
      <trkpt lat="45.96465" lon="4.85129">
        <ele>268</ele>
        <time>2018-07-03T09:14:41Z</time>
      </trkpt>
      <trkpt lat="45.96464" lon="4.85133">
        <ele>268</ele>
        <time>2018-07-03T09:14:42Z</time>
      </trkpt>
      <trkpt lat="45.96461" lon="4.85144">
        <ele>268</ele>
        <time>2018-07-03T09:14:45Z</time>
      </trkpt>
      <trkpt lat="45.9646" lon="4.85147">
        <ele>268</ele>
        <time>2018-07-03T09:14:46Z</time>
      </trkpt>
      <trkpt lat="45.96458" lon="4.85159">
        <ele>268</ele>
        <time>2018-07-03T09:14:49Z</time>
      </trkpt>
      <trkpt lat="45.96457" lon="4.85162">
        <ele>268</ele>
        <time>2018-07-03T09:14:50Z</time>
      </trkpt>
      <trkpt lat="45.96455" lon="4.85174">
        <ele>269</ele>
        <time>2018-07-03T09:14:53Z</time>
      </trkpt>
      <trkpt lat="45.96455" lon="4.85178">
        <ele>269</ele>
        <time>2018-07-03T09:14:54Z</time>
      </trkpt>
      <trkpt lat="45.96454" lon="4.8519">
        <ele>269</ele>
        <time>2018-07-03T09:14:57Z</time>
      </trkpt>
      <trkpt lat="45.96453" lon="4.85194">
        <ele>269</ele>
        <time>2018-07-03T09:14:58Z</time>
      </trkpt>
      <trkpt lat="45.96453" lon="4.85206">
        <ele>269</ele>
        <time>2018-07-03T09:15:01Z</time>
      </trkpt>
      <trkpt lat="45.96453" lon="4.8521">
        <ele>269</ele>
        <time>2018-07-03T09:15:02Z</time>
      </trkpt>
      <trkpt lat="45.96452" lon="4.85219">
        <ele>269</ele>
        <time>2018-07-03T09:15:04Z</time>
      </trkpt>
      <trkpt lat="45.96452" lon="4.85223">
        <ele>269</ele>
        <time>2018-07-03T09:15:05Z</time>
      </trkpt>
      <trkpt lat="45.96452" lon="4.85233">
        <ele>269</ele>
        <time>2018-07-03T09:15:07Z</time>
      </trkpt>
      <trkpt lat="45.96452" lon="4.85237">
        <ele>269</ele>
        <time>2018-07-03T09:15:08Z</time>
      </trkpt>
      <trkpt lat="45.96452" lon="4.85247">
        <ele>269</ele>
        <time>2018-07-03T09:15:10Z</time>
      </trkpt>
      <trkpt lat="45.96452" lon="4.85252">
        <ele>270</ele>
        <time>2018-07-03T09:15:11Z</time>
      </trkpt>
      <trkpt lat="45.96452" lon="4.85267">
        <ele>270</ele>
        <time>2018-07-03T09:15:12Z</time>
      </trkpt>
      <trkpt lat="45.96453" lon="4.85276">
        <ele>270</ele>
        <time>2018-07-03T09:15:15Z</time>
      </trkpt>
      <trkpt lat="45.96454" lon="4.85288">
        <ele>270</ele>
        <time>2018-07-03T09:15:16Z</time>
      </trkpt>
      <trkpt lat="45.96454" lon="4.85299">
        <ele>271</ele>
        <time>2018-07-03T09:15:18Z</time>
      </trkpt>
      <trkpt lat="45.96454" lon="4.85302">
        <ele>271</ele>
        <time>2018-07-03T09:15:19Z</time>
      </trkpt>
      <trkpt lat="45.96455" lon="4.85313">
        <ele>271</ele>
        <time>2018-07-03T09:15:21Z</time>
      </trkpt>
      <trkpt lat="45.96455" lon="4.85316">
        <ele>271</ele>
        <time>2018-07-03T09:15:22Z</time>
      </trkpt>
      <trkpt lat="45.96456" lon="4.85327">
        <ele>271</ele>
        <time>2018-07-03T09:15:24Z</time>
      </trkpt>
      <trkpt lat="45.96456" lon="4.8533">
        <ele>271</ele>
        <time>2018-07-03T09:15:25Z</time>
      </trkpt>
      <trkpt lat="45.96457" lon="4.85339">
        <ele>272</ele>
        <time>2018-07-03T09:15:26Z</time>
      </trkpt>
      <trkpt lat="45.96457" lon="4.85345">
        <ele>272</ele>
        <time>2018-07-03T09:15:27Z</time>
      </trkpt>
      <trkpt lat="45.96457" lon="4.85354">
        <ele>272</ele>
        <time>2018-07-03T09:15:29Z</time>
      </trkpt>
      <trkpt lat="45.96457" lon="4.85363">
        <ele>272</ele>
        <time>2018-07-03T09:15:30Z</time>
      </trkpt>
      <trkpt lat="45.96457" lon="4.85373">
        <ele>272</ele>
        <time>2018-07-03T09:15:33Z</time>
      </trkpt>
      <trkpt lat="45.96458" lon="4.85376">
        <ele>272</ele>
        <time>2018-07-03T09:15:34Z</time>
      </trkpt>
      <trkpt lat="45.96459" lon="4.85389">
        <ele>272</ele>
        <time>2018-07-03T09:15:37Z</time>
      </trkpt>
      <trkpt lat="45.9646" lon="4.85393">
        <ele>272</ele>
        <time>2018-07-03T09:15:38Z</time>
      </trkpt>
      <trkpt lat="45.9646" lon="4.85403">
        <ele>272</ele>
        <time>2018-07-03T09:15:40Z</time>
      </trkpt>
      <trkpt lat="45.96461" lon="4.85407">
        <ele>272</ele>
        <time>2018-07-03T09:15:41Z</time>
      </trkpt>
      <trkpt lat="45.96461" lon="4.85411">
        <ele>272</ele>
        <time>2018-07-03T09:15:42Z</time>
      </trkpt>
      <trkpt lat="45.96462" lon="4.85427">
        <ele>272</ele>
        <time>2018-07-03T09:15:43Z</time>
      </trkpt>
      <trkpt lat="45.96463" lon="4.85432">
        <ele>272</ele>
        <time>2018-07-03T09:15:45Z</time>
      </trkpt>
      <trkpt lat="45.96464" lon="4.85442">
        <ele>272</ele>
        <time>2018-07-03T09:15:46Z</time>
      </trkpt>
      <trkpt lat="45.96465" lon="4.85454">
        <ele>272</ele>
        <time>2018-07-03T09:15:48Z</time>
      </trkpt>
      <trkpt lat="45.96465" lon="4.8546">
        <ele>272</ele>
        <time>2018-07-03T09:15:49Z</time>
      </trkpt>
      <trkpt lat="45.96465" lon="4.85473">
        <ele>272</ele>
        <time>2018-07-03T09:15:51Z</time>
      </trkpt>
      <trkpt lat="45.96466" lon="4.85479">
        <ele>272</ele>
        <time>2018-07-03T09:15:52Z</time>
      </trkpt>
      <trkpt lat="45.96465" lon="4.85488">
        <ele>272</ele>
        <time>2018-07-03T09:15:54Z</time>
      </trkpt>
      <trkpt lat="45.96465" lon="4.85495">
        <ele>272</ele>
        <time>2018-07-03T09:15:55Z</time>
      </trkpt>
      <trkpt lat="45.96466" lon="4.85507">
        <ele>272</ele>
        <time>2018-07-03T09:15:57Z</time>
      </trkpt>
      <trkpt lat="45.96466" lon="4.85512">
        <ele>272</ele>
        <time>2018-07-03T09:15:58Z</time>
      </trkpt>
      <trkpt lat="45.96466" lon="4.8552">
        <ele>272</ele>
        <time>2018-07-03T09:16:00Z</time>
      </trkpt>
      <trkpt lat="45.96466" lon="4.85528">
        <ele>272</ele>
        <time>2018-07-03T09:16:01Z</time>
      </trkpt>
      <trkpt lat="45.96467" lon="4.85535">
        <ele>272</ele>
        <time>2018-07-03T09:16:02Z</time>
      </trkpt>
      <trkpt lat="45.96467" lon="4.85542">
        <ele>272</ele>
        <time>2018-07-03T09:16:03Z</time>
      </trkpt>
      <trkpt lat="45.96468" lon="4.85554">
        <ele>272</ele>
        <time>2018-07-03T09:16:05Z</time>
      </trkpt>
      <trkpt lat="45.96468" lon="4.8556">
        <ele>272</ele>
        <time>2018-07-03T09:16:06Z</time>
      </trkpt>
      <trkpt lat="45.96468" lon="4.85569">
        <ele>272</ele>
        <time>2018-07-03T09:16:09Z</time>
      </trkpt>
      <trkpt lat="45.96469" lon="4.85573">
        <ele>272</ele>
        <time>2018-07-03T09:16:10Z</time>
      </trkpt>
      <trkpt lat="45.96469" lon="4.85577">
        <ele>272</ele>
        <time>2018-07-03T09:16:11Z</time>
      </trkpt>
      <trkpt lat="45.96471" lon="4.8559">
        <ele>271</ele>
        <time>2018-07-03T09:16:12Z</time>
      </trkpt>
      <trkpt lat="45.96471" lon="4.856">
        <ele>271</ele>
        <time>2018-07-03T09:16:14Z</time>
      </trkpt>
      <trkpt lat="45.96472" lon="4.85605">
        <ele>271</ele>
        <time>2018-07-03T09:16:15Z</time>
      </trkpt>
      <trkpt lat="45.96473" lon="4.85616">
        <ele>271</ele>
        <time>2018-07-03T09:16:17Z</time>
      </trkpt>
      <trkpt lat="45.96473" lon="4.85622">
        <ele>271</ele>
        <time>2018-07-03T09:16:18Z</time>
      </trkpt>
      <trkpt lat="45.96475" lon="4.85633">
        <ele>271</ele>
        <time>2018-07-03T09:16:20Z</time>
      </trkpt>
      <trkpt lat="45.96475" lon="4.85639">
        <ele>271</ele>
        <time>2018-07-03T09:16:21Z</time>
      </trkpt>
      <trkpt lat="45.96476" lon="4.85649">
        <ele>271</ele>
        <time>2018-07-03T09:16:23Z</time>
      </trkpt>
      <trkpt lat="45.96476" lon="4.85656">
        <ele>271</ele>
        <time>2018-07-03T09:16:24Z</time>
      </trkpt>
      <trkpt lat="45.96479" lon="4.85667">
        <ele>272</ele>
        <time>2018-07-03T09:16:26Z</time>
      </trkpt>
      <trkpt lat="45.96479" lon="4.85669">
        <ele>272</ele>
        <time>2018-07-03T09:16:27Z</time>
      </trkpt>
      <trkpt lat="45.96482" lon="4.85678">
        <ele>272</ele>
        <time>2018-07-03T09:16:29Z</time>
      </trkpt>
      <trkpt lat="45.96482" lon="4.85681">
        <ele>272</ele>
        <time>2018-07-03T09:16:30Z</time>
      </trkpt>
      <trkpt lat="45.96482" lon="4.85689">
        <ele>272</ele>
        <time>2018-07-03T09:16:31Z</time>
      </trkpt>
      <trkpt lat="45.96482" lon="4.85695">
        <ele>272</ele>
        <time>2018-07-03T09:16:32Z</time>
      </trkpt>
      <trkpt lat="45.96483" lon="4.85707">
        <ele>272</ele>
        <time>2018-07-03T09:16:35Z</time>
      </trkpt>
      <trkpt lat="45.96484" lon="4.8571">
        <ele>272</ele>
        <time>2018-07-03T09:16:36Z</time>
      </trkpt>
      <trkpt lat="45.96485" lon="4.85721">
        <ele>272</ele>
        <time>2018-07-03T09:16:39Z</time>
      </trkpt>
      <trkpt lat="45.96485" lon="4.85725">
        <ele>273</ele>
        <time>2018-07-03T09:16:40Z</time>
      </trkpt>
      <trkpt lat="45.96487" lon="4.85737">
        <ele>273</ele>
        <time>2018-07-03T09:16:43Z</time>
      </trkpt>
      <trkpt lat="45.96488" lon="4.85741">
        <ele>273</ele>
        <time>2018-07-03T09:16:44Z</time>
      </trkpt>
      <trkpt lat="45.96489" lon="4.85745">
        <ele>273</ele>
        <time>2018-07-03T09:16:45Z</time>
      </trkpt>
      <trkpt lat="45.96492" lon="4.85759">
        <ele>274</ele>
        <time>2018-07-03T09:16:46Z</time>
      </trkpt>
      <trkpt lat="45.96493" lon="4.85771">
        <ele>274</ele>
        <time>2018-07-03T09:16:48Z</time>
      </trkpt>
      <trkpt lat="45.96494" lon="4.85777">
        <ele>274</ele>
        <time>2018-07-03T09:16:49Z</time>
      </trkpt>
      <trkpt lat="45.96496" lon="4.85788">
        <ele>274</ele>
        <time>2018-07-03T09:16:51Z</time>
      </trkpt>
      <trkpt lat="45.96497" lon="4.85794">
        <ele>274</ele>
        <time>2018-07-03T09:16:52Z</time>
      </trkpt>
      <trkpt lat="45.96496" lon="4.85807">
        <ele>274</ele>
        <time>2018-07-03T09:16:54Z</time>
      </trkpt>
      <trkpt lat="45.96496" lon="4.85812">
        <ele>274</ele>
        <time>2018-07-03T09:16:55Z</time>
      </trkpt>
      <trkpt lat="45.96497" lon="4.85823">
        <ele>274</ele>
        <time>2018-07-03T09:16:57Z</time>
      </trkpt>
      <trkpt lat="45.96498" lon="4.85829">
        <ele>275</ele>
        <time>2018-07-03T09:16:58Z</time>
      </trkpt>
      <trkpt lat="45.96499" lon="4.85838">
        <ele>275</ele>
        <time>2018-07-03T09:17:00Z</time>
      </trkpt>
      <trkpt lat="45.965" lon="4.85844">
        <ele>275</ele>
        <time>2018-07-03T09:17:01Z</time>
      </trkpt>
      <trkpt lat="45.96501" lon="4.85854">
        <ele>275</ele>
        <time>2018-07-03T09:17:03Z</time>
      </trkpt>
      <trkpt lat="45.96501" lon="4.85859">
        <ele>275</ele>
        <time>2018-07-03T09:17:04Z</time>
      </trkpt>
      <trkpt lat="45.965" lon="4.8587">
        <ele>275</ele>
        <time>2018-07-03T09:17:06Z</time>
      </trkpt>
      <trkpt lat="45.96502" lon="4.85877">
        <ele>275</ele>
        <time>2018-07-03T09:17:07Z</time>
      </trkpt>
      <trkpt lat="45.96503" lon="4.85888">
        <ele>275</ele>
        <time>2018-07-03T09:17:09Z</time>
      </trkpt>
      <trkpt lat="45.96505" lon="4.85894">
        <ele>275</ele>
        <time>2018-07-03T09:17:10Z</time>
      </trkpt>
      <trkpt lat="45.96508" lon="4.85906">
        <ele>275</ele>
        <time>2018-07-03T09:17:13Z</time>
      </trkpt>
      <trkpt lat="45.96511" lon="4.85914">
        <ele>274</ele>
        <time>2018-07-03T09:17:14Z</time>
      </trkpt>
      <trkpt lat="45.96515" lon="4.85924">
        <ele>275</ele>
        <time>2018-07-03T09:17:16Z</time>
      </trkpt>
      <trkpt lat="45.96517" lon="4.85929">
        <ele>275</ele>
        <time>2018-07-03T09:17:17Z</time>
      </trkpt>
      <trkpt lat="45.96521" lon="4.8594">
        <ele>275</ele>
        <time>2018-07-03T09:17:19Z</time>
      </trkpt>
      <trkpt lat="45.96525" lon="4.85945">
        <ele>275</ele>
        <time>2018-07-03T09:17:20Z</time>
      </trkpt>
      <trkpt lat="45.96529" lon="4.85956">
        <ele>275</ele>
        <time>2018-07-03T09:17:22Z</time>
      </trkpt>
      <trkpt lat="45.96531" lon="4.8596">
        <ele>275</ele>
        <time>2018-07-03T09:17:23Z</time>
      </trkpt>
      <trkpt lat="45.96537" lon="4.85966">
        <ele>275</ele>
        <time>2018-07-03T09:17:25Z</time>
      </trkpt>
      <trkpt lat="45.9654" lon="4.85971">
        <ele>275</ele>
        <time>2018-07-03T09:17:26Z</time>
      </trkpt>
      <trkpt lat="45.96545" lon="4.85979">
        <ele>275</ele>
        <time>2018-07-03T09:17:28Z</time>
      </trkpt>
      <trkpt lat="45.96548" lon="4.85985">
        <ele>275</ele>
        <time>2018-07-03T09:17:29Z</time>
      </trkpt>
      <trkpt lat="45.96553" lon="4.85993">
        <ele>276</ele>
        <time>2018-07-03T09:17:32Z</time>
      </trkpt>
      <trkpt lat="45.96554" lon="4.85996">
        <ele>276</ele>
        <time>2018-07-03T09:17:33Z</time>
      </trkpt>
      <trkpt lat="45.96558" lon="4.86005">
        <ele>276</ele>
        <time>2018-07-03T09:17:34Z</time>
      </trkpt>
      <trkpt lat="45.96559" lon="4.86008">
        <ele>276</ele>
        <time>2018-07-03T09:17:35Z</time>
      </trkpt>
      <trkpt lat="45.96564" lon="4.86016">
        <ele>276</ele>
        <time>2018-07-03T09:17:38Z</time>
      </trkpt>
      <trkpt lat="45.96565" lon="4.8602">
        <ele>276</ele>
        <time>2018-07-03T09:17:39Z</time>
      </trkpt>
      <trkpt lat="45.96571" lon="4.8603">
        <ele>276</ele>
        <time>2018-07-03T09:17:40Z</time>
      </trkpt>
      <trkpt lat="45.96572" lon="4.86032">
        <ele>276</ele>
        <time>2018-07-03T09:17:41Z</time>
      </trkpt>
      <trkpt lat="45.96577" lon="4.86042">
        <ele>276</ele>
        <time>2018-07-03T09:17:43Z</time>
      </trkpt>
      <trkpt lat="45.96578" lon="4.86044">
        <ele>276</ele>
        <time>2018-07-03T09:17:44Z</time>
      </trkpt>
      <trkpt lat="45.96581" lon="4.86052">
        <ele>277</ele>
        <time>2018-07-03T09:17:46Z</time>
      </trkpt>
      <trkpt lat="45.96584" lon="4.86059">
        <ele>280</ele>
        <time>2018-07-03T09:17:47Z</time>
      </trkpt>
      <trkpt lat="45.96587" lon="4.86066">
        <ele>279</ele>
        <time>2018-07-03T09:17:50Z</time>
      </trkpt>
      <trkpt lat="45.96589" lon="4.86069">
        <ele>279</ele>
        <time>2018-07-03T09:17:51Z</time>
      </trkpt>
      <trkpt lat="45.96592" lon="4.86077">
        <ele>279</ele>
        <time>2018-07-03T09:17:53Z</time>
      </trkpt>
      <trkpt lat="45.96593" lon="4.86081">
        <ele>279</ele>
        <time>2018-07-03T09:17:54Z</time>
      </trkpt>
      <trkpt lat="45.96595" lon="4.8609">
        <ele>280</ele>
        <time>2018-07-03T09:17:56Z</time>
      </trkpt>
      <trkpt lat="45.96595" lon="4.86095">
        <ele>280</ele>
        <time>2018-07-03T09:17:57Z</time>
      </trkpt>
      <trkpt lat="45.96596" lon="4.86104">
        <ele>280</ele>
        <time>2018-07-03T09:17:59Z</time>
      </trkpt>
      <trkpt lat="45.96596" lon="4.86108">
        <ele>281</ele>
        <time>2018-07-03T09:18:00Z</time>
      </trkpt>
      <trkpt lat="45.96597" lon="4.86118">
        <ele>281</ele>
        <time>2018-07-03T09:18:02Z</time>
      </trkpt>
      <trkpt lat="45.96597" lon="4.86123">
        <ele>281</ele>
        <time>2018-07-03T09:18:03Z</time>
      </trkpt>
      <trkpt lat="45.96596" lon="4.86132">
        <ele>281</ele>
        <time>2018-07-03T09:18:05Z</time>
      </trkpt>
      <trkpt lat="45.96596" lon="4.86136">
        <ele>281</ele>
        <time>2018-07-03T09:18:06Z</time>
      </trkpt>
      <trkpt lat="45.96595" lon="4.86145">
        <ele>281</ele>
        <time>2018-07-03T09:18:08Z</time>
      </trkpt>
      <trkpt lat="45.96595" lon="4.86149">
        <ele>281</ele>
        <time>2018-07-03T09:18:09Z</time>
      </trkpt>
      <trkpt lat="45.96593" lon="4.86158">
        <ele>281</ele>
        <time>2018-07-03T09:18:11Z</time>
      </trkpt>
      <trkpt lat="45.96593" lon="4.86163">
        <ele>281</ele>
        <time>2018-07-03T09:18:12Z</time>
      </trkpt>
      <trkpt lat="45.96592" lon="4.86173">
        <ele>281</ele>
        <time>2018-07-03T09:18:14Z</time>
      </trkpt>
      <trkpt lat="45.96592" lon="4.86178">
        <ele>281</ele>
        <time>2018-07-03T09:18:15Z</time>
      </trkpt>
      <trkpt lat="45.96592" lon="4.86187">
        <ele>282</ele>
        <time>2018-07-03T09:18:17Z</time>
      </trkpt>
      <trkpt lat="45.96591" lon="4.86192">
        <ele>282</ele>
        <time>2018-07-03T09:18:18Z</time>
      </trkpt>
      <trkpt lat="45.96591" lon="4.86201">
        <ele>282</ele>
        <time>2018-07-03T09:18:20Z</time>
      </trkpt>
      <trkpt lat="45.96591" lon="4.86205">
        <ele>282</ele>
        <time>2018-07-03T09:18:21Z</time>
      </trkpt>
      <trkpt lat="45.96589" lon="4.86216">
        <ele>282</ele>
        <time>2018-07-03T09:18:24Z</time>
      </trkpt>
      <trkpt lat="45.96589" lon="4.8622">
        <ele>282</ele>
        <time>2018-07-03T09:18:25Z</time>
      </trkpt>
      <trkpt lat="45.96587" lon="4.8623">
        <ele>282</ele>
        <time>2018-07-03T09:18:28Z</time>
      </trkpt>
      <trkpt lat="45.96587" lon="4.86233">
        <ele>282</ele>
        <time>2018-07-03T09:18:29Z</time>
      </trkpt>
      <trkpt lat="45.96585" lon="4.86244">
        <ele>281</ele>
        <time>2018-07-03T09:18:32Z</time>
      </trkpt>
      <trkpt lat="45.96585" lon="4.86247">
        <ele>281</ele>
        <time>2018-07-03T09:18:33Z</time>
      </trkpt>
      <trkpt lat="45.96584" lon="4.86258">
        <ele>282</ele>
        <time>2018-07-03T09:18:36Z</time>
      </trkpt>
      <trkpt lat="45.96584" lon="4.86261">
        <ele>282</ele>
        <time>2018-07-03T09:18:37Z</time>
      </trkpt>
      <trkpt lat="45.96585" lon="4.86271">
        <ele>283</ele>
        <time>2018-07-03T09:18:40Z</time>
      </trkpt>
      <trkpt lat="45.96585" lon="4.86275">
        <ele>283</ele>
        <time>2018-07-03T09:18:41Z</time>
      </trkpt>
      <trkpt lat="45.96584" lon="4.86285">
        <ele>284</ele>
        <time>2018-07-03T09:18:44Z</time>
      </trkpt>
      <trkpt lat="45.96584" lon="4.86289">
        <ele>284</ele>
        <time>2018-07-03T09:18:45Z</time>
      </trkpt>
      <trkpt lat="45.96583" lon="4.863">
        <ele>283</ele>
        <time>2018-07-03T09:18:48Z</time>
      </trkpt>
      <trkpt lat="45.96583" lon="4.86303">
        <ele>283</ele>
        <time>2018-07-03T09:18:49Z</time>
      </trkpt>
      <trkpt lat="45.96581" lon="4.86315">
        <ele>283</ele>
        <time>2018-07-03T09:18:52Z</time>
      </trkpt>
      <trkpt lat="45.9658" lon="4.86319">
        <ele>284</ele>
        <time>2018-07-03T09:18:53Z</time>
      </trkpt>
      <trkpt lat="45.96579" lon="4.8633">
        <ele>284</ele>
        <time>2018-07-03T09:18:56Z</time>
      </trkpt>
      <trkpt lat="45.96578" lon="4.86334">
        <ele>285</ele>
        <time>2018-07-03T09:18:57Z</time>
      </trkpt>
      <trkpt lat="45.96577" lon="4.86343">
        <ele>285</ele>
        <time>2018-07-03T09:18:59Z</time>
      </trkpt>
      <trkpt lat="45.96577" lon="4.86347">
        <ele>285</ele>
        <time>2018-07-03T09:19:00Z</time>
      </trkpt>
      <trkpt lat="45.96577" lon="4.86358">
        <ele>285</ele>
        <time>2018-07-03T09:19:03Z</time>
      </trkpt>
      <trkpt lat="45.96577" lon="4.86363">
        <ele>286</ele>
        <time>2018-07-03T09:19:04Z</time>
      </trkpt>
      <trkpt lat="45.96577" lon="4.86372">
        <ele>286</ele>
        <time>2018-07-03T09:19:06Z</time>
      </trkpt>
      <trkpt lat="45.96577" lon="4.86377">
        <ele>286</ele>
        <time>2018-07-03T09:19:07Z</time>
      </trkpt>
      <trkpt lat="45.96577" lon="4.86382">
        <ele>286</ele>
        <time>2018-07-03T09:19:08Z</time>
      </trkpt>
      <trkpt lat="45.96578" lon="4.86399">
        <ele>288</ele>
        <time>2018-07-03T09:19:09Z</time>
      </trkpt>
      <trkpt lat="45.96578" lon="4.86411">
        <ele>289</ele>
        <time>2018-07-03T09:19:13Z</time>
      </trkpt>
      <trkpt lat="45.96579" lon="4.86415">
        <ele>289</ele>
        <time>2018-07-03T09:19:14Z</time>
      </trkpt>
      <trkpt lat="45.9658" lon="4.86427">
        <ele>289</ele>
        <time>2018-07-03T09:19:17Z</time>
      </trkpt>
      <trkpt lat="45.9658" lon="4.86431">
        <ele>289</ele>
        <time>2018-07-03T09:19:18Z</time>
      </trkpt>
      <trkpt lat="45.9658" lon="4.86442">
        <ele>289</ele>
        <time>2018-07-03T09:19:21Z</time>
      </trkpt>
      <trkpt lat="45.96579" lon="4.86445">
        <ele>289</ele>
        <time>2018-07-03T09:19:22Z</time>
      </trkpt>
      <trkpt lat="45.96579" lon="4.86457">
        <ele>289</ele>
        <time>2018-07-03T09:19:25Z</time>
      </trkpt>
      <trkpt lat="45.96579" lon="4.86461">
        <ele>289</ele>
        <time>2018-07-03T09:19:26Z</time>
      </trkpt>
      <trkpt lat="45.96579" lon="4.86473">
        <ele>290</ele>
        <time>2018-07-03T09:19:29Z</time>
      </trkpt>
      <trkpt lat="45.9658" lon="4.86478">
        <ele>290</ele>
        <time>2018-07-03T09:19:30Z</time>
      </trkpt>
      <trkpt lat="45.96582" lon="4.86489">
        <ele>291</ele>
        <time>2018-07-03T09:19:33Z</time>
      </trkpt>
      <trkpt lat="45.96588" lon="4.86501">
        <ele>292</ele>
        <time>2018-07-03T09:19:34Z</time>
      </trkpt>
      <trkpt lat="45.96593" lon="4.86507">
        <ele>292</ele>
        <time>2018-07-03T09:19:37Z</time>
      </trkpt>
      <trkpt lat="45.96599" lon="4.86514">
        <ele>291</ele>
        <time>2018-07-03T09:19:38Z</time>
      </trkpt>
      <trkpt lat="45.96605" lon="4.86521">
        <ele>291</ele>
        <time>2018-07-03T09:19:41Z</time>
      </trkpt>
      <trkpt lat="45.96608" lon="4.86522">
        <ele>291</ele>
        <time>2018-07-03T09:19:42Z</time>
      </trkpt>
      <trkpt lat="45.96614" lon="4.86529">
        <ele>291</ele>
        <time>2018-07-03T09:19:45Z</time>
      </trkpt>
      <trkpt lat="45.96623" lon="4.86536">
        <ele>291</ele>
        <time>2018-07-03T09:19:46Z</time>
      </trkpt>
      <trkpt lat="45.9663" lon="4.86542">
        <ele>291</ele>
        <time>2018-07-03T09:19:48Z</time>
      </trkpt>
      <trkpt lat="45.96633" lon="4.86544">
        <ele>291</ele>
        <time>2018-07-03T09:19:49Z</time>
      </trkpt>
      <trkpt lat="45.9664" lon="4.86551">
        <ele>291</ele>
        <time>2018-07-03T09:19:52Z</time>
      </trkpt>
      <trkpt lat="45.96645" lon="4.86556">
        <ele>291</ele>
        <time>2018-07-03T09:19:53Z</time>
      </trkpt>
      <trkpt lat="45.96651" lon="4.86563">
        <ele>290</ele>
        <time>2018-07-03T09:19:55Z</time>
      </trkpt>
      <trkpt lat="45.96654" lon="4.86566">
        <ele>290</ele>
        <time>2018-07-03T09:19:56Z</time>
      </trkpt>
      <trkpt lat="45.96656" lon="4.86569">
        <ele>290</ele>
        <time>2018-07-03T09:19:58Z</time>
      </trkpt>
      <trkpt lat="45.9666" lon="4.86575">
        <ele>290</ele>
        <time>2018-07-03T09:19:59Z</time>
      </trkpt>
      <trkpt lat="45.96667" lon="4.86584">
        <ele>290</ele>
        <time>2018-07-03T09:20:03Z</time>
      </trkpt>
      <trkpt lat="45.96672" lon="4.86592">
        <ele>290</ele>
        <time>2018-07-03T09:20:04Z</time>
      </trkpt>
      <trkpt lat="45.96677" lon="4.86602">
        <ele>290</ele>
        <time>2018-07-03T09:20:06Z</time>
      </trkpt>
      <trkpt lat="45.96681" lon="4.86604">
        <ele>290</ele>
        <time>2018-07-03T09:20:07Z</time>
      </trkpt>
      <trkpt lat="45.96689" lon="4.86609">
        <ele>290</ele>
        <time>2018-07-03T09:20:09Z</time>
      </trkpt>
      <trkpt lat="45.96693" lon="4.86612">
        <ele>290</ele>
        <time>2018-07-03T09:20:10Z</time>
      </trkpt>
      <trkpt lat="45.96697" lon="4.86615">
        <ele>290</ele>
        <time>2018-07-03T09:20:11Z</time>
      </trkpt>
      <trkpt lat="45.96705" lon="4.86617">
        <ele>290</ele>
        <time>2018-07-03T09:20:12Z</time>
      </trkpt>
      <trkpt lat="45.9671" lon="4.86619">
        <ele>290</ele>
        <time>2018-07-03T09:20:13Z</time>
      </trkpt>
      <trkpt lat="45.96714" lon="4.86621">
        <ele>290</ele>
        <time>2018-07-03T09:20:14Z</time>
      </trkpt>
      <trkpt lat="45.9672" lon="4.86626">
        <ele>290</ele>
        <time>2018-07-03T09:20:16Z</time>
      </trkpt>
      <trkpt lat="45.96724" lon="4.86629">
        <ele>290</ele>
        <time>2018-07-03T09:20:17Z</time>
      </trkpt>
      <trkpt lat="45.96728" lon="4.86631">
        <ele>290</ele>
        <time>2018-07-03T09:20:18Z</time>
      </trkpt>
      <trkpt lat="45.96732" lon="4.86634">
        <ele>290</ele>
        <time>2018-07-03T09:20:19Z</time>
      </trkpt>
      <trkpt lat="45.96735" lon="4.86638">
        <ele>290</ele>
        <time>2018-07-03T09:20:20Z</time>
      </trkpt>
      <trkpt lat="45.96738" lon="4.86644">
        <ele>290</ele>
        <time>2018-07-03T09:20:21Z</time>
      </trkpt>
      <trkpt lat="45.96737" lon="4.86656">
        <ele>290</ele>
        <time>2018-07-03T09:20:23Z</time>
      </trkpt>
      <trkpt lat="45.96736" lon="4.86662">
        <ele>290</ele>
        <time>2018-07-03T09:20:24Z</time>
      </trkpt>
      <trkpt lat="45.96736" lon="4.86666">
        <ele>290</ele>
        <time>2018-07-03T09:20:25Z</time>
      </trkpt>
      <trkpt lat="45.96731" lon="4.86673">
        <ele>290</ele>
        <time>2018-07-03T09:20:26Z</time>
      </trkpt>
      <trkpt lat="45.96727" lon="4.86678">
        <ele>289</ele>
        <time>2018-07-03T09:20:27Z</time>
      </trkpt>
      <trkpt lat="45.96724" lon="4.86684">
        <ele>289</ele>
        <time>2018-07-03T09:20:28Z</time>
      </trkpt>
      <trkpt lat="45.96721" lon="4.86692">
        <ele>289</ele>
        <time>2018-07-03T09:20:29Z</time>
      </trkpt>
      <trkpt lat="45.96717" lon="4.86697">
        <ele>289</ele>
        <time>2018-07-03T09:20:30Z</time>
      </trkpt>
      <trkpt lat="45.96713" lon="4.86703">
        <ele>289</ele>
        <time>2018-07-03T09:20:31Z</time>
      </trkpt>
      <trkpt lat="45.9671" lon="4.86708">
        <ele>289</ele>
        <time>2018-07-03T09:20:32Z</time>
      </trkpt>
      <trkpt lat="45.96706" lon="4.86714">
        <ele>289</ele>
        <time>2018-07-03T09:20:33Z</time>
      </trkpt>
      <trkpt lat="45.96702" lon="4.8672">
        <ele>289</ele>
        <time>2018-07-03T09:20:34Z</time>
      </trkpt>
      <trkpt lat="45.96699" lon="4.86725">
        <ele>289</ele>
        <time>2018-07-03T09:20:35Z</time>
      </trkpt>
      <trkpt lat="45.96695" lon="4.86732">
        <ele>289</ele>
        <time>2018-07-03T09:20:36Z</time>
      </trkpt>
      <trkpt lat="45.96691" lon="4.86737">
        <ele>289</ele>
        <time>2018-07-03T09:20:37Z</time>
      </trkpt>
      <trkpt lat="45.96688" lon="4.86743">
        <ele>289</ele>
        <time>2018-07-03T09:20:38Z</time>
      </trkpt>
      <trkpt lat="45.96685" lon="4.86748">
        <ele>289</ele>
        <time>2018-07-03T09:20:39Z</time>
      </trkpt>
      <trkpt lat="45.96682" lon="4.86754">
        <ele>289</ele>
        <time>2018-07-03T09:20:40Z</time>
      </trkpt>
      <trkpt lat="45.96679" lon="4.86762">
        <ele>289</ele>
        <time>2018-07-03T09:20:41Z</time>
      </trkpt>
      <trkpt lat="45.96677" lon="4.86769">
        <ele>289</ele>
        <time>2018-07-03T09:20:42Z</time>
      </trkpt>
      <trkpt lat="45.96672" lon="4.86779">
        <ele>289</ele>
        <time>2018-07-03T09:20:44Z</time>
      </trkpt>
      <trkpt lat="45.96669" lon="4.86783">
        <ele>289</ele>
        <time>2018-07-03T09:20:45Z</time>
      </trkpt>
      <trkpt lat="45.96666" lon="4.8679">
        <ele>288</ele>
        <time>2018-07-03T09:20:46Z</time>
      </trkpt>
      <trkpt lat="45.96663" lon="4.86795">
        <ele>288</ele>
        <time>2018-07-03T09:20:47Z</time>
      </trkpt>
      <trkpt lat="45.9666" lon="4.868">
        <ele>288</ele>
        <time>2018-07-03T09:20:48Z</time>
      </trkpt>
      <trkpt lat="45.96656" lon="4.86805">
        <ele>288</ele>
        <time>2018-07-03T09:20:49Z</time>
      </trkpt>
      <trkpt lat="45.96654" lon="4.8681">
        <ele>288</ele>
        <time>2018-07-03T09:20:50Z</time>
      </trkpt>
      <trkpt lat="45.96651" lon="4.86818">
        <ele>288</ele>
        <time>2018-07-03T09:20:51Z</time>
      </trkpt>
      <trkpt lat="45.96648" lon="4.86823">
        <ele>288</ele>
        <time>2018-07-03T09:20:52Z</time>
      </trkpt>
      <trkpt lat="45.96645" lon="4.86828">
        <ele>288</ele>
        <time>2018-07-03T09:20:53Z</time>
      </trkpt>
      <trkpt lat="45.96641" lon="4.86834">
        <ele>287</ele>
        <time>2018-07-03T09:20:54Z</time>
      </trkpt>
      <trkpt lat="45.96638" lon="4.86841">
        <ele>287</ele>
        <time>2018-07-03T09:20:55Z</time>
      </trkpt>
      <trkpt lat="45.96633" lon="4.86851">
        <ele>287</ele>
        <time>2018-07-03T09:20:57Z</time>
      </trkpt>
      <trkpt lat="45.96629" lon="4.86855">
        <ele>287</ele>
        <time>2018-07-03T09:20:58Z</time>
      </trkpt>
      <trkpt lat="45.96623" lon="4.86862">
        <ele>287</ele>
        <time>2018-07-03T09:21:00Z</time>
      </trkpt>
      <trkpt lat="45.9662" lon="4.86868">
        <ele>287</ele>
        <time>2018-07-03T09:21:01Z</time>
      </trkpt>
      <trkpt lat="45.96618" lon="4.86874">
        <ele>287</ele>
        <time>2018-07-03T09:21:02Z</time>
      </trkpt>
      <trkpt lat="45.96614" lon="4.86881">
        <ele>287</ele>
        <time>2018-07-03T09:21:03Z</time>
      </trkpt>
      <trkpt lat="45.9661" lon="4.86885">
        <ele>287</ele>
        <time>2018-07-03T09:21:04Z</time>
      </trkpt>
      <trkpt lat="45.96607" lon="4.8689">
        <ele>287</ele>
        <time>2018-07-03T09:21:05Z</time>
      </trkpt>
      <trkpt lat="45.96601" lon="4.86899">
        <ele>286</ele>
        <time>2018-07-03T09:21:07Z</time>
      </trkpt>
      <trkpt lat="45.96596" lon="4.86904">
        <ele>286</ele>
        <time>2018-07-03T09:21:08Z</time>
      </trkpt>
      <trkpt lat="45.96593" lon="4.86911">
        <ele>286</ele>
        <time>2018-07-03T09:21:09Z</time>
      </trkpt>
      <trkpt lat="45.96589" lon="4.86916">
        <ele>285</ele>
        <time>2018-07-03T09:21:10Z</time>
      </trkpt>
      <trkpt lat="45.96586" lon="4.86922">
        <ele>285</ele>
        <time>2018-07-03T09:21:11Z</time>
      </trkpt>
      <trkpt lat="45.96582" lon="4.86928">
        <ele>284</ele>
        <time>2018-07-03T09:21:12Z</time>
      </trkpt>
      <trkpt lat="45.96577" lon="4.86932">
        <ele>284</ele>
        <time>2018-07-03T09:21:13Z</time>
      </trkpt>
      <trkpt lat="45.96573" lon="4.86938">
        <ele>284</ele>
        <time>2018-07-03T09:21:14Z</time>
      </trkpt>
      <trkpt lat="45.96569" lon="4.86943">
        <ele>284</ele>
        <time>2018-07-03T09:21:15Z</time>
      </trkpt>
      <trkpt lat="45.96565" lon="4.86951">
        <ele>284</ele>
        <time>2018-07-03T09:21:16Z</time>
      </trkpt>
      <trkpt lat="45.96562" lon="4.86959">
        <ele>283</ele>
        <time>2018-07-03T09:21:17Z</time>
      </trkpt>
      <trkpt lat="45.96562" lon="4.86967">
        <ele>283</ele>
        <time>2018-07-03T09:21:18Z</time>
      </trkpt>
      <trkpt lat="45.96556" lon="4.86972">
        <ele>283</ele>
        <time>2018-07-03T09:21:19Z</time>
      </trkpt>
      <trkpt lat="45.96551" lon="4.86975">
        <ele>283</ele>
        <time>2018-07-03T09:21:20Z</time>
      </trkpt>
      <trkpt lat="45.96545" lon="4.86978">
        <ele>283</ele>
        <time>2018-07-03T09:21:22Z</time>
      </trkpt>
      <trkpt lat="45.96542" lon="4.86987">
        <ele>283</ele>
        <time>2018-07-03T09:21:23Z</time>
      </trkpt>
      <trkpt lat="45.9654" lon="4.86994">
        <ele>283</ele>
        <time>2018-07-03T09:21:26Z</time>
      </trkpt>
      <trkpt lat="45.9654" lon="4.87007">
        <ele>283</ele>
        <time>2018-07-03T09:21:27Z</time>
      </trkpt>
      <trkpt lat="45.96543" lon="4.87018">
        <ele>283</ele>
        <time>2018-07-03T09:21:33Z</time>
      </trkpt>
      <trkpt lat="45.96544" lon="4.8702">
        <ele>283</ele>
        <time>2018-07-03T09:21:34Z</time>
      </trkpt>
      <trkpt lat="45.96549" lon="4.87029">
        <ele>283</ele>
        <time>2018-07-03T09:21:54Z</time>
      </trkpt>
      <trkpt lat="45.96549" lon="4.87029">
        <ele>283</ele>
        <time>2018-07-03T09:21:55Z</time>
      </trkpt>
      <trkpt lat="45.96551" lon="4.87028">
        <ele>283</ele>
        <time>2018-07-03T09:22:13Z</time>
      </trkpt>
      <trkpt lat="45.9655" lon="4.87028">
        <ele>283</ele>
        <time>2018-07-03T09:22:14Z</time>
      </trkpt>
      <trkpt lat="45.96542" lon="4.87026">
        <ele>283</ele>
        <time>2018-07-03T09:28:52Z</time>
      </trkpt>
      <trkpt lat="45.96541" lon="4.87026">
        <ele>283</ele>
        <time>2018-07-03T09:28:53Z</time>
      </trkpt>
      <trkpt lat="45.96549" lon="4.87031">
        <ele>283</ele>
        <time>2018-07-03T09:30:56Z</time>
      </trkpt>
      <trkpt lat="45.96549" lon="4.87031">
        <ele>283</ele>
        <time>2018-07-03T09:30:57Z</time>
      </trkpt>
      <trkpt lat="45.96548" lon="4.87033">
        <ele>283</ele>
        <time>2018-07-03T09:31:18Z</time>
      </trkpt>
      <trkpt lat="45.96548" lon="4.87033">
        <ele>283</ele>
        <time>2018-07-03T09:31:19Z</time>
      </trkpt>
      <trkpt lat="45.96556" lon="4.87035">
        <ele>283</ele>
        <time>2018-07-03T09:32:33Z</time>
      </trkpt>
      <trkpt lat="45.96557" lon="4.87038">
        <ele>283</ele>
        <time>2018-07-03T09:32:34Z</time>
      </trkpt>
      <trkpt lat="45.96559" lon="4.87049">
        <ele>283</ele>
        <time>2018-07-03T09:32:37Z</time>
      </trkpt>
      <trkpt lat="45.96559" lon="4.87053">
        <ele>283</ele>
        <time>2018-07-03T09:32:38Z</time>
      </trkpt>
      <trkpt lat="45.96559" lon="4.87065">
        <ele>283</ele>
        <time>2018-07-03T09:32:41Z</time>
      </trkpt>
      <trkpt lat="45.96559" lon="4.87068">
        <ele>283</ele>
        <time>2018-07-03T09:32:42Z</time>
      </trkpt>
      <trkpt lat="45.96556" lon="4.87075">
        <ele>283</ele>
        <time>2018-07-03T09:32:46Z</time>
      </trkpt>
      <trkpt lat="45.9654" lon="4.87044">
        <ele>283</ele>
        <time>2018-07-03T09:32:57.702Z</time>
      </trkpt>
      <trkpt lat="45.96541" lon="4.87039">
        <ele>283</ele>
        <time>2018-07-03T09:32:59Z</time>
      </trkpt>
      <trkpt lat="45.96541" lon="4.87029">
        <ele>283</ele>
        <time>2018-07-03T09:33:00Z</time>
      </trkpt>
      <trkpt lat="45.96541" lon="4.87017">
        <ele>283</ele>
        <time>2018-07-03T09:33:04Z</time>
      </trkpt>
      <trkpt lat="45.96541" lon="4.87013">
        <ele>283</ele>
        <time>2018-07-03T09:33:05Z</time>
      </trkpt>
      <trkpt lat="45.96541" lon="4.87001">
        <ele>283</ele>
        <time>2018-07-03T09:33:08Z</time>
      </trkpt>
      <trkpt lat="45.96541" lon="4.86998">
        <ele>283</ele>
        <time>2018-07-03T09:33:09Z</time>
      </trkpt>
      <trkpt lat="45.9655" lon="4.86996">
        <ele>283</ele>
        <time>2018-07-03T09:33:15Z</time>
      </trkpt>
      <trkpt lat="45.96561" lon="4.86997">
        <ele>284</ele>
        <time>2018-07-03T09:33:16Z</time>
      </trkpt>
      <trkpt lat="45.96568" lon="4.86997">
        <ele>284</ele>
        <time>2018-07-03T09:33:18Z</time>
      </trkpt>
      <trkpt lat="45.9657" lon="4.86997">
        <ele>284</ele>
        <time>2018-07-03T09:33:19Z</time>
      </trkpt>
      <trkpt lat="45.96573" lon="4.86997">
        <ele>284</ele>
        <time>2018-07-03T09:33:20Z</time>
      </trkpt>
      <trkpt lat="45.96581" lon="4.86994">
        <ele>285</ele>
        <time>2018-07-03T09:33:21Z</time>
      </trkpt>
      <trkpt lat="45.96591" lon="4.86987">
        <ele>286</ele>
        <time>2018-07-03T09:33:22Z</time>
      </trkpt>
      <trkpt lat="45.96592" lon="4.86988">
        <ele>286</ele>
        <time>2018-07-03T09:33:23Z</time>
      </trkpt>
      <trkpt lat="45.96601" lon="4.86987">
        <ele>286</ele>
        <time>2018-07-03T09:33:24Z</time>
      </trkpt>
      <trkpt lat="45.96608" lon="4.86984">
        <ele>286</ele>
        <time>2018-07-03T09:33:26Z</time>
      </trkpt>
      <trkpt lat="45.96614" lon="4.86982">
        <ele>286</ele>
        <time>2018-07-03T09:33:27Z</time>
      </trkpt>
      <trkpt lat="45.96622" lon="4.86979">
        <ele>286</ele>
        <time>2018-07-03T09:33:30Z</time>
      </trkpt>
      <trkpt lat="45.96624" lon="4.86978">
        <ele>286</ele>
        <time>2018-07-03T09:33:31Z</time>
      </trkpt>
      <trkpt lat="45.96627" lon="4.86978">
        <ele>286</ele>
        <time>2018-07-03T09:33:32Z</time>
      </trkpt>
      <trkpt lat="45.96634" lon="4.86977">
        <ele>286</ele>
        <time>2018-07-03T09:33:33Z</time>
      </trkpt>
      <trkpt lat="45.96641" lon="4.86978">
        <ele>286</ele>
        <time>2018-07-03T09:33:35Z</time>
      </trkpt>
      <trkpt lat="45.96645" lon="4.8698">
        <ele>286</ele>
        <time>2018-07-03T09:33:36Z</time>
      </trkpt>
      <trkpt lat="45.96651" lon="4.86986">
        <ele>287</ele>
        <time>2018-07-03T09:33:38Z</time>
      </trkpt>
      <trkpt lat="45.96653" lon="4.86989">
        <ele>287</ele>
        <time>2018-07-03T09:33:39Z</time>
      </trkpt>
      <trkpt lat="45.96659" lon="4.86999">
        <ele>287</ele>
        <time>2018-07-03T09:33:41Z</time>
      </trkpt>
      <trkpt lat="45.96662" lon="4.87004">
        <ele>287</ele>
        <time>2018-07-03T09:33:42Z</time>
      </trkpt>
      <trkpt lat="45.96665" lon="4.8701">
        <ele>286</ele>
        <time>2018-07-03T09:33:43Z</time>
      </trkpt>
      <trkpt lat="45.96667" lon="4.87014">
        <ele>287</ele>
        <time>2018-07-03T09:33:44Z</time>
      </trkpt>
      <trkpt lat="45.96673" lon="4.87022">
        <ele>287</ele>
        <time>2018-07-03T09:33:46Z</time>
      </trkpt>
      <trkpt lat="45.96676" lon="4.87026">
        <ele>287</ele>
        <time>2018-07-03T09:33:47Z</time>
      </trkpt>
      <trkpt lat="45.96683" lon="4.87032">
        <ele>287</ele>
        <time>2018-07-03T09:33:49Z</time>
      </trkpt>
      <trkpt lat="45.96688" lon="4.87035">
        <ele>287</ele>
        <time>2018-07-03T09:33:50Z</time>
      </trkpt>
      <trkpt lat="45.96694" lon="4.87042">
        <ele>287</ele>
        <time>2018-07-03T09:33:52Z</time>
      </trkpt>
      <trkpt lat="45.96699" lon="4.87045">
        <ele>287</ele>
        <time>2018-07-03T09:33:53Z</time>
      </trkpt>
      <trkpt lat="45.96707" lon="4.87051">
        <ele>287</ele>
        <time>2018-07-03T09:33:55Z</time>
      </trkpt>
      <trkpt lat="45.9671" lon="4.87055">
        <ele>287</ele>
        <time>2018-07-03T09:33:56Z</time>
      </trkpt>
      <trkpt lat="45.96713" lon="4.87059">
        <ele>287</ele>
        <time>2018-07-03T09:33:57Z</time>
      </trkpt>
      <trkpt lat="45.9672" lon="4.87061">
        <ele>287</ele>
        <time>2018-07-03T09:33:58Z</time>
      </trkpt>
      <trkpt lat="45.96724" lon="4.87064">
        <ele>287</ele>
        <time>2018-07-03T09:33:59Z</time>
      </trkpt>
      <trkpt lat="45.96729" lon="4.87067">
        <ele>287</ele>
        <time>2018-07-03T09:34:00Z</time>
      </trkpt>
      <trkpt lat="45.96733" lon="4.87071">
        <ele>287</ele>
        <time>2018-07-03T09:34:02Z</time>
      </trkpt>
      <trkpt lat="45.96738" lon="4.87074">
        <ele>287</ele>
        <time>2018-07-03T09:34:03Z</time>
      </trkpt>
      <trkpt lat="45.96743" lon="4.87078">
        <ele>287</ele>
        <time>2018-07-03T09:34:04Z</time>
      </trkpt>
      <trkpt lat="45.96748" lon="4.87083">
        <ele>287</ele>
        <time>2018-07-03T09:34:05Z</time>
      </trkpt>
      <trkpt lat="45.96752" lon="4.87087">
        <ele>287</ele>
        <time>2018-07-03T09:34:06Z</time>
      </trkpt>
      <trkpt lat="45.96755" lon="4.87091">
        <ele>287</ele>
        <time>2018-07-03T09:34:07Z</time>
      </trkpt>
      <trkpt lat="45.9676" lon="4.871">
        <ele>287</ele>
        <time>2018-07-03T09:34:09Z</time>
      </trkpt>
      <trkpt lat="45.96765" lon="4.87105">
        <ele>286</ele>
        <time>2018-07-03T09:34:10Z</time>
      </trkpt>
      <trkpt lat="45.96767" lon="4.8711">
        <ele>286</ele>
        <time>2018-07-03T09:34:11Z</time>
      </trkpt>
      <trkpt lat="45.96769" lon="4.87116">
        <ele>286</ele>
        <time>2018-07-03T09:34:12Z</time>
      </trkpt>
      <trkpt lat="45.96772" lon="4.87122">
        <ele>286</ele>
        <time>2018-07-03T09:34:13Z</time>
      </trkpt>
      <trkpt lat="45.96775" lon="4.87127">
        <ele>286</ele>
        <time>2018-07-03T09:34:14Z</time>
      </trkpt>
      <trkpt lat="45.96778" lon="4.87132">
        <ele>286</ele>
        <time>2018-07-03T09:34:15Z</time>
      </trkpt>
      <trkpt lat="45.96785" lon="4.87136">
        <ele>286</ele>
        <time>2018-07-03T09:34:16Z</time>
      </trkpt>
      <trkpt lat="45.96791" lon="4.87143">
        <ele>286</ele>
        <time>2018-07-03T09:34:18Z</time>
      </trkpt>
      <trkpt lat="45.96795" lon="4.87147">
        <ele>286</ele>
        <time>2018-07-03T09:34:19Z</time>
      </trkpt>
      <trkpt lat="45.96802" lon="4.87145">
        <ele>286</ele>
        <time>2018-07-03T09:34:22Z</time>
      </trkpt>
      <trkpt lat="45.96804" lon="4.87133">
        <ele>286</ele>
        <time>2018-07-03T09:34:23Z</time>
      </trkpt>
      <trkpt lat="45.96808" lon="4.87126">
        <ele>286</ele>
        <time>2018-07-03T09:34:24Z</time>
      </trkpt>
      <trkpt lat="45.96809" lon="4.87118">
        <ele>286</ele>
        <time>2018-07-03T09:34:25Z</time>
      </trkpt>
      <trkpt lat="45.96811" lon="4.87112">
        <ele>286</ele>
        <time>2018-07-03T09:34:26Z</time>
      </trkpt>
      <trkpt lat="45.96813" lon="4.87107">
        <ele>286</ele>
        <time>2018-07-03T09:34:27Z</time>
      </trkpt>
      <trkpt lat="45.96819" lon="4.87097">
        <ele>287</ele>
        <time>2018-07-03T09:34:29Z</time>
      </trkpt>
      <trkpt lat="45.96823" lon="4.87093">
        <ele>287</ele>
        <time>2018-07-03T09:34:30Z</time>
      </trkpt>
      <trkpt lat="45.96824" lon="4.87088">
        <ele>287</ele>
        <time>2018-07-03T09:34:32Z</time>
      </trkpt>
      <trkpt lat="45.96825" lon="4.87081">
        <ele>287</ele>
        <time>2018-07-03T09:34:33Z</time>
      </trkpt>
      <trkpt lat="45.96828" lon="4.87069">
        <ele>287</ele>
        <time>2018-07-03T09:34:35Z</time>
      </trkpt>
      <trkpt lat="45.96829" lon="4.87062">
        <ele>287</ele>
        <time>2018-07-03T09:34:36Z</time>
      </trkpt>
      <trkpt lat="45.96832" lon="4.8705">
        <ele>287</ele>
        <time>2018-07-03T09:34:38Z</time>
      </trkpt>
      <trkpt lat="45.96833" lon="4.87045">
        <ele>287</ele>
        <time>2018-07-03T09:34:39Z</time>
      </trkpt>
      <trkpt lat="45.96837" lon="4.87035">
        <ele>287</ele>
        <time>2018-07-03T09:34:41Z</time>
      </trkpt>
      <trkpt lat="45.96838" lon="4.8703">
        <ele>287</ele>
        <time>2018-07-03T09:34:42Z</time>
      </trkpt>
      <trkpt lat="45.96841" lon="4.87019">
        <ele>287</ele>
        <time>2018-07-03T09:34:44Z</time>
      </trkpt>
      <trkpt lat="45.96842" lon="4.87012">
        <ele>288</ele>
        <time>2018-07-03T09:34:45Z</time>
      </trkpt>
      <trkpt lat="45.96846" lon="4.87001">
        <ele>288</ele>
        <time>2018-07-03T09:34:47Z</time>
      </trkpt>
      <trkpt lat="45.96848" lon="4.86996">
        <ele>288</ele>
        <time>2018-07-03T09:34:48Z</time>
      </trkpt>
      <trkpt lat="45.96852" lon="4.86986">
        <ele>288</ele>
        <time>2018-07-03T09:34:50Z</time>
      </trkpt>
      <trkpt lat="45.96854" lon="4.8698">
        <ele>288</ele>
        <time>2018-07-03T09:34:51Z</time>
      </trkpt>
      <trkpt lat="45.96858" lon="4.86969">
        <ele>288</ele>
        <time>2018-07-03T09:34:53Z</time>
      </trkpt>
      <trkpt lat="45.96859" lon="4.86964">
        <ele>288</ele>
        <time>2018-07-03T09:34:54Z</time>
      </trkpt>
      <trkpt lat="45.96862" lon="4.86953">
        <ele>288</ele>
        <time>2018-07-03T09:34:56Z</time>
      </trkpt>
      <trkpt lat="45.96864" lon="4.86947">
        <ele>288</ele>
        <time>2018-07-03T09:34:57Z</time>
      </trkpt>
      <trkpt lat="45.96865" lon="4.8694">
        <ele>288</ele>
        <time>2018-07-03T09:34:58Z</time>
      </trkpt>
      <trkpt lat="45.96869" lon="4.86933">
        <ele>288</ele>
        <time>2018-07-03T09:34:59Z</time>
      </trkpt>
      <trkpt lat="45.96871" lon="4.86922">
        <ele>288</ele>
        <time>2018-07-03T09:35:01Z</time>
      </trkpt>
      <trkpt lat="45.96873" lon="4.86916">
        <ele>289</ele>
        <time>2018-07-03T09:35:02Z</time>
      </trkpt>
      <trkpt lat="45.96877" lon="4.86907">
        <ele>289</ele>
        <time>2018-07-03T09:35:04Z</time>
      </trkpt>
      <trkpt lat="45.96878" lon="4.86901">
        <ele>289</ele>
        <time>2018-07-03T09:35:05Z</time>
      </trkpt>
      <trkpt lat="45.96881" lon="4.86891">
        <ele>289</ele>
        <time>2018-07-03T09:35:07Z</time>
      </trkpt>
      <trkpt lat="45.96883" lon="4.86886">
        <ele>289</ele>
        <time>2018-07-03T09:35:08Z</time>
      </trkpt>
      <trkpt lat="45.96884" lon="4.86878">
        <ele>289</ele>
        <time>2018-07-03T09:35:10Z</time>
      </trkpt>
      <trkpt lat="45.96885" lon="4.8687">
        <ele>289</ele>
        <time>2018-07-03T09:35:11Z</time>
      </trkpt>
      <trkpt lat="45.96886" lon="4.86865">
        <ele>289</ele>
        <time>2018-07-03T09:35:12Z</time>
      </trkpt>
      <trkpt lat="45.96889" lon="4.86859">
        <ele>289</ele>
        <time>2018-07-03T09:35:13Z</time>
      </trkpt>
      <trkpt lat="45.96892" lon="4.86851">
        <ele>289</ele>
        <time>2018-07-03T09:35:14Z</time>
      </trkpt>
      <trkpt lat="45.96894" lon="4.86845">
        <ele>289</ele>
        <time>2018-07-03T09:35:15Z</time>
      </trkpt>
      <trkpt lat="45.96898" lon="4.86834">
        <ele>288</ele>
        <time>2018-07-03T09:35:17Z</time>
      </trkpt>
      <trkpt lat="45.96899" lon="4.86831">
        <ele>288</ele>
        <time>2018-07-03T09:35:18Z</time>
      </trkpt>
      <trkpt lat="45.96903" lon="4.86821">
        <ele>288</ele>
        <time>2018-07-03T09:35:20Z</time>
      </trkpt>
      <trkpt lat="45.96906" lon="4.86816">
        <ele>288</ele>
        <time>2018-07-03T09:35:21Z</time>
      </trkpt>
      <trkpt lat="45.96913" lon="4.86813">
        <ele>288</ele>
        <time>2018-07-03T09:35:26Z</time>
      </trkpt>
      <trkpt lat="45.96921" lon="4.86813">
        <ele>287</ele>
        <time>2018-07-03T09:35:27Z</time>
      </trkpt>
      <trkpt lat="45.96925" lon="4.86815">
        <ele>287</ele>
        <time>2018-07-03T09:35:28Z</time>
      </trkpt>
      <trkpt lat="45.9693" lon="4.86818">
        <ele>287</ele>
        <time>2018-07-03T09:35:29Z</time>
      </trkpt>
      <trkpt lat="45.96938" lon="4.86825">
        <ele>287</ele>
        <time>2018-07-03T09:35:31Z</time>
      </trkpt>
      <trkpt lat="45.96942" lon="4.86828">
        <ele>287</ele>
        <time>2018-07-03T09:35:32Z</time>
      </trkpt>
      <trkpt lat="45.96947" lon="4.8683">
        <ele>287</ele>
        <time>2018-07-03T09:35:33Z</time>
      </trkpt>
      <trkpt lat="45.96952" lon="4.86835">
        <ele>287</ele>
        <time>2018-07-03T09:35:34Z</time>
      </trkpt>
      <trkpt lat="45.96958" lon="4.86837">
        <ele>287</ele>
        <time>2018-07-03T09:35:35Z</time>
      </trkpt>
      <trkpt lat="45.96962" lon="4.86839">
        <ele>287</ele>
        <time>2018-07-03T09:35:36Z</time>
      </trkpt>
      <trkpt lat="45.96969" lon="4.86841">
        <ele>286</ele>
        <time>2018-07-03T09:35:37Z</time>
      </trkpt>
      <trkpt lat="45.96976" lon="4.86842">
        <ele>286</ele>
        <time>2018-07-03T09:35:38Z</time>
      </trkpt>
      <trkpt lat="45.96982" lon="4.86843">
        <ele>286</ele>
        <time>2018-07-03T09:35:39Z</time>
      </trkpt>
      <trkpt lat="45.96987" lon="4.86844">
        <ele>286</ele>
        <time>2018-07-03T09:35:40Z</time>
      </trkpt>
      <trkpt lat="45.96993" lon="4.86845">
        <ele>286</ele>
        <time>2018-07-03T09:35:41Z</time>
      </trkpt>
      <trkpt lat="45.96999" lon="4.86846">
        <ele>286</ele>
        <time>2018-07-03T09:35:42Z</time>
      </trkpt>
      <trkpt lat="45.97004" lon="4.86847">
        <ele>285</ele>
        <time>2018-07-03T09:35:43Z</time>
      </trkpt>
      <trkpt lat="45.97008" lon="4.86848">
        <ele>285</ele>
        <time>2018-07-03T09:35:44Z</time>
      </trkpt>
      <trkpt lat="45.97015" lon="4.86847">
        <ele>285</ele>
        <time>2018-07-03T09:35:45Z</time>
      </trkpt>
      <trkpt lat="45.97021" lon="4.86847">
        <ele>285</ele>
        <time>2018-07-03T09:35:46Z</time>
      </trkpt>
      <trkpt lat="45.97027" lon="4.86846">
        <ele>285</ele>
        <time>2018-07-03T09:35:47Z</time>
      </trkpt>
      <trkpt lat="45.97031" lon="4.86845">
        <ele>285</ele>
        <time>2018-07-03T09:35:48Z</time>
      </trkpt>
      <trkpt lat="45.97037" lon="4.86844">
        <ele>285</ele>
        <time>2018-07-03T09:35:49Z</time>
      </trkpt>
      <trkpt lat="45.97042" lon="4.86844">
        <ele>285</ele>
        <time>2018-07-03T09:35:50Z</time>
      </trkpt>
      <trkpt lat="45.97048" lon="4.86843">
        <ele>285</ele>
        <time>2018-07-03T09:35:51Z</time>
      </trkpt>
      <trkpt lat="45.97054" lon="4.86842">
        <ele>285</ele>
        <time>2018-07-03T09:35:52Z</time>
      </trkpt>
      <trkpt lat="45.9706" lon="4.86841">
        <ele>284</ele>
        <time>2018-07-03T09:35:53Z</time>
      </trkpt>
      <trkpt lat="45.97066" lon="4.86841">
        <ele>284</ele>
        <time>2018-07-03T09:35:54Z</time>
      </trkpt>
      <trkpt lat="45.97071" lon="4.8684">
        <ele>284</ele>
        <time>2018-07-03T09:35:55Z</time>
      </trkpt>
      <trkpt lat="45.97078" lon="4.86839">
        <ele>284</ele>
        <time>2018-07-03T09:35:56Z</time>
      </trkpt>
      <trkpt lat="45.97084" lon="4.86837">
        <ele>284</ele>
        <time>2018-07-03T09:35:57Z</time>
      </trkpt>
      <trkpt lat="45.97089" lon="4.86836">
        <ele>284</ele>
        <time>2018-07-03T09:35:58Z</time>
      </trkpt>
      <trkpt lat="45.97095" lon="4.86836">
        <ele>284</ele>
        <time>2018-07-03T09:35:59Z</time>
      </trkpt>
      <trkpt lat="45.97101" lon="4.86835">
        <ele>284</ele>
        <time>2018-07-03T09:36:00Z</time>
      </trkpt>
      <trkpt lat="45.97107" lon="4.86834">
        <ele>284</ele>
        <time>2018-07-03T09:36:01Z</time>
      </trkpt>
      <trkpt lat="45.97113" lon="4.86833">
        <ele>283</ele>
        <time>2018-07-03T09:36:02Z</time>
      </trkpt>
      <trkpt lat="45.97118" lon="4.86828">
        <ele>283</ele>
        <time>2018-07-03T09:36:03Z</time>
      </trkpt>
      <trkpt lat="45.97124" lon="4.86828">
        <ele>283</ele>
        <time>2018-07-03T09:36:04Z</time>
      </trkpt>
      <trkpt lat="45.97129" lon="4.86826">
        <ele>283</ele>
        <time>2018-07-03T09:36:05Z</time>
      </trkpt>
      <trkpt lat="45.97136" lon="4.86823">
        <ele>283</ele>
        <time>2018-07-03T09:36:06Z</time>
      </trkpt>
      <trkpt lat="45.97142" lon="4.86821">
        <ele>283</ele>
        <time>2018-07-03T09:36:07Z</time>
      </trkpt>
      <trkpt lat="45.97147" lon="4.86818">
        <ele>283</ele>
        <time>2018-07-03T09:36:08Z</time>
      </trkpt>
      <trkpt lat="45.97153" lon="4.86815">
        <ele>283</ele>
        <time>2018-07-03T09:36:09Z</time>
      </trkpt>
      <trkpt lat="45.97159" lon="4.86812">
        <ele>283</ele>
        <time>2018-07-03T09:36:10Z</time>
      </trkpt>
      <trkpt lat="45.97164" lon="4.8681">
        <ele>283</ele>
        <time>2018-07-03T09:36:11Z</time>
      </trkpt>
      <trkpt lat="45.97171" lon="4.86807">
        <ele>283</ele>
        <time>2018-07-03T09:36:12Z</time>
      </trkpt>
      <trkpt lat="45.97176" lon="4.86805">
        <ele>283</ele>
        <time>2018-07-03T09:36:13Z</time>
      </trkpt>
      <trkpt lat="45.97182" lon="4.86802">
        <ele>284</ele>
        <time>2018-07-03T09:36:14Z</time>
      </trkpt>
      <trkpt lat="45.97187" lon="4.86799">
        <ele>284</ele>
        <time>2018-07-03T09:36:15Z</time>
      </trkpt>
      <trkpt lat="45.97191" lon="4.86798">
        <ele>284</ele>
        <time>2018-07-03T09:36:16Z</time>
      </trkpt>
      <trkpt lat="45.97197" lon="4.86796">
        <ele>284</ele>
        <time>2018-07-03T09:36:17Z</time>
      </trkpt>
      <trkpt lat="45.97202" lon="4.86796">
        <ele>284</ele>
        <time>2018-07-03T09:36:18Z</time>
      </trkpt>
      <trkpt lat="45.97207" lon="4.86793">
        <ele>284</ele>
        <time>2018-07-03T09:36:19Z</time>
      </trkpt>
      <trkpt lat="45.97213" lon="4.86792">
        <ele>284</ele>
        <time>2018-07-03T09:36:20Z</time>
      </trkpt>
      <trkpt lat="45.9722" lon="4.86792">
        <ele>284</ele>
        <time>2018-07-03T09:36:21Z</time>
      </trkpt>
      <trkpt lat="45.97226" lon="4.86792">
        <ele>284</ele>
        <time>2018-07-03T09:36:22Z</time>
      </trkpt>
      <trkpt lat="45.97231" lon="4.86793">
        <ele>284</ele>
        <time>2018-07-03T09:36:23Z</time>
      </trkpt>
      <trkpt lat="45.97236" lon="4.86795">
        <ele>284</ele>
        <time>2018-07-03T09:36:24Z</time>
      </trkpt>
      <trkpt lat="45.97241" lon="4.86797">
        <ele>284</ele>
        <time>2018-07-03T09:36:25Z</time>
      </trkpt>
      <trkpt lat="45.97245" lon="4.86802">
        <ele>284</ele>
        <time>2018-07-03T09:36:26Z</time>
      </trkpt>
      <trkpt lat="45.9725" lon="4.86807">
        <ele>284</ele>
        <time>2018-07-03T09:36:27Z</time>
      </trkpt>
      <trkpt lat="45.97254" lon="4.86811">
        <ele>285</ele>
        <time>2018-07-03T09:36:28Z</time>
      </trkpt>
      <trkpt lat="45.97257" lon="4.86817">
        <ele>285</ele>
        <time>2018-07-03T09:36:29Z</time>
      </trkpt>
      <trkpt lat="45.97261" lon="4.86824">
        <ele>285</ele>
        <time>2018-07-03T09:36:30Z</time>
      </trkpt>
      <trkpt lat="45.97265" lon="4.86831">
        <ele>285</ele>
        <time>2018-07-03T09:36:31Z</time>
      </trkpt>
      <trkpt lat="45.9727" lon="4.86838">
        <ele>285</ele>
        <time>2018-07-03T09:36:32Z</time>
      </trkpt>
      <trkpt lat="45.97273" lon="4.86844">
        <ele>285</ele>
        <time>2018-07-03T09:36:33Z</time>
      </trkpt>
      <trkpt lat="45.97277" lon="4.8685">
        <ele>285</ele>
        <time>2018-07-03T09:36:34Z</time>
      </trkpt>
      <trkpt lat="45.97282" lon="4.86855">
        <ele>285</ele>
        <time>2018-07-03T09:36:35Z</time>
      </trkpt>
      <trkpt lat="45.97285" lon="4.86861">
        <ele>285</ele>
        <time>2018-07-03T09:36:36Z</time>
      </trkpt>
      <trkpt lat="45.9729" lon="4.86868">
        <ele>285</ele>
        <time>2018-07-03T09:36:37Z</time>
      </trkpt>
      <trkpt lat="45.97292" lon="4.86874">
        <ele>284</ele>
        <time>2018-07-03T09:36:38Z</time>
      </trkpt>
      <trkpt lat="45.97295" lon="4.8688">
        <ele>284</ele>
        <time>2018-07-03T09:36:39Z</time>
      </trkpt>
      <trkpt lat="45.97298" lon="4.86887">
        <ele>284</ele>
        <time>2018-07-03T09:36:40Z</time>
      </trkpt>
      <trkpt lat="45.97301" lon="4.86894">
        <ele>284</ele>
        <time>2018-07-03T09:36:41Z</time>
      </trkpt>
      <trkpt lat="45.97305" lon="4.869">
        <ele>284</ele>
        <time>2018-07-03T09:36:42Z</time>
      </trkpt>
      <trkpt lat="45.97313" lon="4.86904">
        <ele>284</ele>
        <time>2018-07-03T09:36:43Z</time>
      </trkpt>
      <trkpt lat="45.97319" lon="4.8691">
        <ele>284</ele>
        <time>2018-07-03T09:36:44Z</time>
      </trkpt>
      <trkpt lat="45.97325" lon="4.86914">
        <ele>284</ele>
        <time>2018-07-03T09:36:45Z</time>
      </trkpt>
      <trkpt lat="45.97326" lon="4.86922">
        <ele>284</ele>
        <time>2018-07-03T09:36:46Z</time>
      </trkpt>
      <trkpt lat="45.97329" lon="4.86927">
        <ele>284</ele>
        <time>2018-07-03T09:36:47Z</time>
      </trkpt>
      <trkpt lat="45.97338" lon="4.86931">
        <ele>284</ele>
        <time>2018-07-03T09:36:48Z</time>
      </trkpt>
      <trkpt lat="45.9734" lon="4.86937">
        <ele>284</ele>
        <time>2018-07-03T09:36:49Z</time>
      </trkpt>
      <trkpt lat="45.97342" lon="4.86945">
        <ele>284</ele>
        <time>2018-07-03T09:36:50Z</time>
      </trkpt>
      <trkpt lat="45.97347" lon="4.86949">
        <ele>284</ele>
        <time>2018-07-03T09:36:51Z</time>
      </trkpt>
      <trkpt lat="45.9735" lon="4.86953">
        <ele>284</ele>
        <time>2018-07-03T09:36:52Z</time>
      </trkpt>
      <trkpt lat="45.97355" lon="4.86958">
        <ele>284</ele>
        <time>2018-07-03T09:36:53Z</time>
      </trkpt>
      <trkpt lat="45.97358" lon="4.86962">
        <ele>285</ele>
        <time>2018-07-03T09:36:54Z</time>
      </trkpt>
      <trkpt lat="45.97362" lon="4.86968">
        <ele>285</ele>
        <time>2018-07-03T09:36:55Z</time>
      </trkpt>
      <trkpt lat="45.97367" lon="4.86973">
        <ele>285</ele>
        <time>2018-07-03T09:36:56Z</time>
      </trkpt>
      <trkpt lat="45.97373" lon="4.86978">
        <ele>285</ele>
        <time>2018-07-03T09:36:57Z</time>
      </trkpt>
      <trkpt lat="45.97379" lon="4.86984">
        <ele>285</ele>
        <time>2018-07-03T09:36:58Z</time>
      </trkpt>
      <trkpt lat="45.97385" lon="4.86993">
        <ele>285</ele>
        <time>2018-07-03T09:37:00Z</time>
      </trkpt>
      <trkpt lat="45.97391" lon="4.86998">
        <ele>285</ele>
        <time>2018-07-03T09:37:01Z</time>
      </trkpt>
      <trkpt lat="45.97395" lon="4.87003">
        <ele>285</ele>
        <time>2018-07-03T09:37:02Z</time>
      </trkpt>
      <trkpt lat="45.974" lon="4.87006">
        <ele>285</ele>
        <time>2018-07-03T09:37:03Z</time>
      </trkpt>
      <trkpt lat="45.97404" lon="4.8701">
        <ele>285</ele>
        <time>2018-07-03T09:37:04Z</time>
      </trkpt>
      <trkpt lat="45.9741" lon="4.87012">
        <ele>285</ele>
        <time>2018-07-03T09:37:05Z</time>
      </trkpt>
      <trkpt lat="45.97416" lon="4.87017">
        <ele>285</ele>
        <time>2018-07-03T09:37:06Z</time>
      </trkpt>
      <trkpt lat="45.97418" lon="4.87021">
        <ele>284</ele>
        <time>2018-07-03T09:37:07Z</time>
      </trkpt>
      <trkpt lat="45.97422" lon="4.87027">
        <ele>284</ele>
        <time>2018-07-03T09:37:08Z</time>
      </trkpt>
      <trkpt lat="45.97428" lon="4.87032">
        <ele>284</ele>
        <time>2018-07-03T09:37:09Z</time>
      </trkpt>
      <trkpt lat="45.97433" lon="4.87037">
        <ele>284</ele>
        <time>2018-07-03T09:37:10Z</time>
      </trkpt>
      <trkpt lat="45.97436" lon="4.87044">
        <ele>284</ele>
        <time>2018-07-03T09:37:11Z</time>
      </trkpt>
      <trkpt lat="45.97439" lon="4.87047">
        <ele>284</ele>
        <time>2018-07-03T09:37:12Z</time>
      </trkpt>
      <trkpt lat="45.97445" lon="4.87053">
        <ele>284</ele>
        <time>2018-07-03T09:37:13Z</time>
      </trkpt>
      <trkpt lat="45.97448" lon="4.87058">
        <ele>284</ele>
        <time>2018-07-03T09:37:14Z</time>
      </trkpt>
      <trkpt lat="45.9745" lon="4.87064">
        <ele>284</ele>
        <time>2018-07-03T09:37:15Z</time>
      </trkpt>
      <trkpt lat="45.97455" lon="4.87069">
        <ele>284</ele>
        <time>2018-07-03T09:37:16Z</time>
      </trkpt>
      <trkpt lat="45.97459" lon="4.87073">
        <ele>284</ele>
        <time>2018-07-03T09:37:17Z</time>
      </trkpt>
      <trkpt lat="45.97464" lon="4.87077">
        <ele>284</ele>
        <time>2018-07-03T09:37:18Z</time>
      </trkpt>
      <trkpt lat="45.97471" lon="4.87081">
        <ele>284</ele>
        <time>2018-07-03T09:37:19Z</time>
      </trkpt>
      <trkpt lat="45.97475" lon="4.87087">
        <ele>283</ele>
        <time>2018-07-03T09:37:20Z</time>
      </trkpt>
      <trkpt lat="45.97477" lon="4.87094">
        <ele>283</ele>
        <time>2018-07-03T09:37:21Z</time>
      </trkpt>
      <trkpt lat="45.97482" lon="4.87098">
        <ele>283</ele>
        <time>2018-07-03T09:37:22Z</time>
      </trkpt>
      <trkpt lat="45.97488" lon="4.87101">
        <ele>283</ele>
        <time>2018-07-03T09:37:23Z</time>
      </trkpt>
      <trkpt lat="45.97492" lon="4.87106">
        <ele>283</ele>
        <time>2018-07-03T09:37:24Z</time>
      </trkpt>
      <trkpt lat="45.97497" lon="4.8711">
        <ele>283</ele>
        <time>2018-07-03T09:37:25Z</time>
      </trkpt>
      <trkpt lat="45.97501" lon="4.87115">
        <ele>283</ele>
        <time>2018-07-03T09:37:26Z</time>
      </trkpt>
      <trkpt lat="45.97505" lon="4.8712">
        <ele>283</ele>
        <time>2018-07-03T09:37:27Z</time>
      </trkpt>
      <trkpt lat="45.97508" lon="4.87124">
        <ele>283</ele>
        <time>2018-07-03T09:37:28Z</time>
      </trkpt>
      <trkpt lat="45.97513" lon="4.87128">
        <ele>283</ele>
        <time>2018-07-03T09:37:29Z</time>
      </trkpt>
      <trkpt lat="45.97518" lon="4.87133">
        <ele>283</ele>
        <time>2018-07-03T09:37:30Z</time>
      </trkpt>
      <trkpt lat="45.97524" lon="4.87136">
        <ele>283</ele>
        <time>2018-07-03T09:37:31Z</time>
      </trkpt>
      <trkpt lat="45.97527" lon="4.87142">
        <ele>283</ele>
        <time>2018-07-03T09:37:32Z</time>
      </trkpt>
      <trkpt lat="45.97532" lon="4.87146">
        <ele>283</ele>
        <time>2018-07-03T09:37:33Z</time>
      </trkpt>
      <trkpt lat="45.97536" lon="4.87149">
        <ele>283</ele>
        <time>2018-07-03T09:37:34Z</time>
      </trkpt>
      <trkpt lat="45.97541" lon="4.87153">
        <ele>283</ele>
        <time>2018-07-03T09:37:35Z</time>
      </trkpt>
      <trkpt lat="45.97546" lon="4.87157">
        <ele>283</ele>
        <time>2018-07-03T09:37:36Z</time>
      </trkpt>
      <trkpt lat="45.9755" lon="4.87161">
        <ele>283</ele>
        <time>2018-07-03T09:37:37Z</time>
      </trkpt>
      <trkpt lat="45.97557" lon="4.87167">
        <ele>283</ele>
        <time>2018-07-03T09:37:38Z</time>
      </trkpt>
      <trkpt lat="45.97564" lon="4.87172">
        <ele>283</ele>
        <time>2018-07-03T09:37:39Z</time>
      </trkpt>
      <trkpt lat="45.97568" lon="4.87178">
        <ele>283</ele>
        <time>2018-07-03T09:37:40Z</time>
      </trkpt>
      <trkpt lat="45.97573" lon="4.87184">
        <ele>283</ele>
        <time>2018-07-03T09:37:41Z</time>
      </trkpt>
      <trkpt lat="45.97578" lon="4.87189">
        <ele>283</ele>
        <time>2018-07-03T09:37:42Z</time>
      </trkpt>
      <trkpt lat="45.97583" lon="4.87196">
        <ele>283</ele>
        <time>2018-07-03T09:37:43Z</time>
      </trkpt>
      <trkpt lat="45.97586" lon="4.87199">
        <ele>283</ele>
        <time>2018-07-03T09:37:44Z</time>
      </trkpt>
      <trkpt lat="45.97594" lon="4.87204">
        <ele>283</ele>
        <time>2018-07-03T09:37:45Z</time>
      </trkpt>
      <trkpt lat="45.976" lon="4.87212">
        <ele>284</ele>
        <time>2018-07-03T09:37:47Z</time>
      </trkpt>
      <trkpt lat="45.97608" lon="4.87216">
        <ele>284</ele>
        <time>2018-07-03T09:37:48Z</time>
      </trkpt>
      <trkpt lat="45.97613" lon="4.87221">
        <ele>284</ele>
        <time>2018-07-03T09:37:49Z</time>
      </trkpt>
      <trkpt lat="45.97621" lon="4.87225">
        <ele>284</ele>
        <time>2018-07-03T09:37:50Z</time>
      </trkpt>
      <trkpt lat="45.97623" lon="4.87229">
        <ele>284</ele>
        <time>2018-07-03T09:37:51Z</time>
      </trkpt>
      <trkpt lat="45.9763" lon="4.87233">
        <ele>284</ele>
        <time>2018-07-03T09:37:52Z</time>
      </trkpt>
      <trkpt lat="45.97634" lon="4.87238">
        <ele>284</ele>
        <time>2018-07-03T09:37:53Z</time>
      </trkpt>
      <trkpt lat="45.97639" lon="4.87243">
        <ele>284</ele>
        <time>2018-07-03T09:37:54Z</time>
      </trkpt>
      <trkpt lat="45.97642" lon="4.87246">
        <ele>285</ele>
        <time>2018-07-03T09:37:55Z</time>
      </trkpt>
      <trkpt lat="45.97647" lon="4.87249">
        <ele>285</ele>
        <time>2018-07-03T09:37:56Z</time>
      </trkpt>
      <trkpt lat="45.97654" lon="4.87258">
        <ele>285</ele>
        <time>2018-07-03T09:37:59Z</time>
      </trkpt>
      <trkpt lat="45.97657" lon="4.87264">
        <ele>285</ele>
        <time>2018-07-03T09:38:00Z</time>
      </trkpt>
      <trkpt lat="45.9766" lon="4.87269">
        <ele>285</ele>
        <time>2018-07-03T09:38:01Z</time>
      </trkpt>
      <trkpt lat="45.97666" lon="4.87275">
        <ele>285</ele>
        <time>2018-07-03T09:38:02Z</time>
      </trkpt>
      <trkpt lat="45.97671" lon="4.87281">
        <ele>286</ele>
        <time>2018-07-03T09:38:03Z</time>
      </trkpt>
      <trkpt lat="45.9768" lon="4.87286">
        <ele>286</ele>
        <time>2018-07-03T09:38:04Z</time>
      </trkpt>
      <trkpt lat="45.97685" lon="4.87291">
        <ele>286</ele>
        <time>2018-07-03T09:38:05Z</time>
      </trkpt>
      <trkpt lat="45.9769" lon="4.87296">
        <ele>286</ele>
        <time>2018-07-03T09:38:06Z</time>
      </trkpt>
      <trkpt lat="45.97695" lon="4.87301">
        <ele>286</ele>
        <time>2018-07-03T09:38:07Z</time>
      </trkpt>
      <trkpt lat="45.97701" lon="4.87307">
        <ele>286</ele>
        <time>2018-07-03T09:38:08Z</time>
      </trkpt>
      <trkpt lat="45.97706" lon="4.87316">
        <ele>286</ele>
        <time>2018-07-03T09:38:10Z</time>
      </trkpt>
      <trkpt lat="45.97712" lon="4.8732">
        <ele>286</ele>
        <time>2018-07-03T09:38:11Z</time>
      </trkpt>
      <trkpt lat="45.97718" lon="4.87329">
        <ele>286</ele>
        <time>2018-07-03T09:38:13Z</time>
      </trkpt>
      <trkpt lat="45.97722" lon="4.87335">
        <ele>285</ele>
        <time>2018-07-03T09:38:14Z</time>
      </trkpt>
      <trkpt lat="45.97724" lon="4.87339">
        <ele>285</ele>
        <time>2018-07-03T09:38:15Z</time>
      </trkpt>
      <trkpt lat="45.9773" lon="4.87346">
        <ele>286</ele>
        <time>2018-07-03T09:38:16Z</time>
      </trkpt>
      <trkpt lat="45.97738" lon="4.87353">
        <ele>286</ele>
        <time>2018-07-03T09:38:18Z</time>
      </trkpt>
      <trkpt lat="45.97744" lon="4.87358">
        <ele>285</ele>
        <time>2018-07-03T09:38:19Z</time>
      </trkpt>
      <trkpt lat="45.97749" lon="4.87361">
        <ele>285</ele>
        <time>2018-07-03T09:38:20Z</time>
      </trkpt>
      <trkpt lat="45.97752" lon="4.87369">
        <ele>285</ele>
        <time>2018-07-03T09:38:21Z</time>
      </trkpt>
      <trkpt lat="45.97756" lon="4.87374">
        <ele>285</ele>
        <time>2018-07-03T09:38:22Z</time>
      </trkpt>
      <trkpt lat="45.97762" lon="4.87379">
        <ele>284</ele>
        <time>2018-07-03T09:38:23Z</time>
      </trkpt>
      <trkpt lat="45.97765" lon="4.87384">
        <ele>284</ele>
        <time>2018-07-03T09:38:24Z</time>
      </trkpt>
      <trkpt lat="45.97771" lon="4.87387">
        <ele>284</ele>
        <time>2018-07-03T09:38:25Z</time>
      </trkpt>
      <trkpt lat="45.97775" lon="4.87394">
        <ele>284</ele>
        <time>2018-07-03T09:38:26Z</time>
      </trkpt>
      <trkpt lat="45.97781" lon="4.87401">
        <ele>284</ele>
        <time>2018-07-03T09:38:27Z</time>
      </trkpt>
      <trkpt lat="45.97781" lon="4.87406">
        <ele>284</ele>
        <time>2018-07-03T09:38:28Z</time>
      </trkpt>
      <trkpt lat="45.97786" lon="4.87412">
        <ele>284</ele>
        <time>2018-07-03T09:38:29Z</time>
      </trkpt>
      <trkpt lat="45.9779" lon="4.87418">
        <ele>283</ele>
        <time>2018-07-03T09:38:30Z</time>
      </trkpt>
      <trkpt lat="45.97796" lon="4.87424">
        <ele>283</ele>
        <time>2018-07-03T09:38:31Z</time>
      </trkpt>
      <trkpt lat="45.97801" lon="4.87425">
        <ele>283</ele>
        <time>2018-07-03T09:38:32Z</time>
      </trkpt>
      <trkpt lat="45.97804" lon="4.87432">
        <ele>283</ele>
        <time>2018-07-03T09:38:33Z</time>
      </trkpt>
      <trkpt lat="45.97808" lon="4.87439">
        <ele>282</ele>
        <time>2018-07-03T09:38:34Z</time>
      </trkpt>
      <trkpt lat="45.97813" lon="4.87444">
        <ele>282</ele>
        <time>2018-07-03T09:38:35Z</time>
      </trkpt>
      <trkpt lat="45.97817" lon="4.8745">
        <ele>282</ele>
        <time>2018-07-03T09:38:36Z</time>
      </trkpt>
      <trkpt lat="45.97822" lon="4.87455">
        <ele>282</ele>
        <time>2018-07-03T09:38:37Z</time>
      </trkpt>
      <trkpt lat="45.97829" lon="4.87462">
        <ele>282</ele>
        <time>2018-07-03T09:38:38Z</time>
      </trkpt>
      <trkpt lat="45.97833" lon="4.87469">
        <ele>282</ele>
        <time>2018-07-03T09:38:39Z</time>
      </trkpt>
      <trkpt lat="45.97834" lon="4.87473">
        <ele>281</ele>
        <time>2018-07-03T09:38:40Z</time>
      </trkpt>
      <trkpt lat="45.97841" lon="4.87479">
        <ele>281</ele>
        <time>2018-07-03T09:38:41Z</time>
      </trkpt>
      <trkpt lat="45.97849" lon="4.87486">
        <ele>281</ele>
        <time>2018-07-03T09:38:42Z</time>
      </trkpt>
      <trkpt lat="45.97856" lon="4.87493">
        <ele>281</ele>
        <time>2018-07-03T09:38:43Z</time>
      </trkpt>
      <trkpt lat="45.97862" lon="4.87499">
        <ele>281</ele>
        <time>2018-07-03T09:38:44Z</time>
      </trkpt>
      <trkpt lat="45.9787" lon="4.87505">
        <ele>281</ele>
        <time>2018-07-03T09:38:45Z</time>
      </trkpt>
      <trkpt lat="45.97875" lon="4.87511">
        <ele>281</ele>
        <time>2018-07-03T09:38:46Z</time>
      </trkpt>
      <trkpt lat="45.97884" lon="4.87516">
        <ele>281</ele>
        <time>2018-07-03T09:38:47Z</time>
      </trkpt>
      <trkpt lat="45.9789" lon="4.87518">
        <ele>281</ele>
        <time>2018-07-03T09:38:48Z</time>
      </trkpt>
      <trkpt lat="45.97899" lon="4.8752">
        <ele>280</ele>
        <time>2018-07-03T09:38:49Z</time>
      </trkpt>
      <trkpt lat="45.97906" lon="4.87522">
        <ele>280</ele>
        <time>2018-07-03T09:38:50Z</time>
      </trkpt>
      <trkpt lat="45.97913" lon="4.87524">
        <ele>280</ele>
        <time>2018-07-03T09:38:51Z</time>
      </trkpt>
      <trkpt lat="45.97922" lon="4.87527">
        <ele>279</ele>
        <time>2018-07-03T09:38:52Z</time>
      </trkpt>
      <trkpt lat="45.97926" lon="4.87529">
        <ele>279</ele>
        <time>2018-07-03T09:38:53Z</time>
      </trkpt>
      <trkpt lat="45.97933" lon="4.87531">
        <ele>279</ele>
        <time>2018-07-03T09:38:54Z</time>
      </trkpt>
      <trkpt lat="45.97936" lon="4.87532">
        <ele>279</ele>
        <time>2018-07-03T09:38:55Z</time>
      </trkpt>
      <trkpt lat="45.97943" lon="4.87535">
        <ele>279</ele>
        <time>2018-07-03T09:38:56Z</time>
      </trkpt>
      <trkpt lat="45.97949" lon="4.87538">
        <ele>279</ele>
        <time>2018-07-03T09:38:57Z</time>
      </trkpt>
      <trkpt lat="45.97956" lon="4.87542">
        <ele>279</ele>
        <time>2018-07-03T09:38:58Z</time>
      </trkpt>
      <trkpt lat="45.9796" lon="4.87547">
        <ele>279</ele>
        <time>2018-07-03T09:38:59Z</time>
      </trkpt>
      <trkpt lat="45.97966" lon="4.87551">
        <ele>279</ele>
        <time>2018-07-03T09:39:00Z</time>
      </trkpt>
      <trkpt lat="45.97971" lon="4.87558">
        <ele>279</ele>
        <time>2018-07-03T09:39:01Z</time>
      </trkpt>
      <trkpt lat="45.97973" lon="4.87563">
        <ele>279</ele>
        <time>2018-07-03T09:39:02Z</time>
      </trkpt>
      <trkpt lat="45.97979" lon="4.8757">
        <ele>279</ele>
        <time>2018-07-03T09:39:03Z</time>
      </trkpt>
      <trkpt lat="45.97984" lon="4.87572">
        <ele>280</ele>
        <time>2018-07-03T09:39:04Z</time>
      </trkpt>
      <trkpt lat="45.97988" lon="4.8758">
        <ele>280</ele>
        <time>2018-07-03T09:39:05Z</time>
      </trkpt>
      <trkpt lat="45.97993" lon="4.87588">
        <ele>280</ele>
        <time>2018-07-03T09:39:06Z</time>
      </trkpt>
      <trkpt lat="45.97997" lon="4.87595">
        <ele>280</ele>
        <time>2018-07-03T09:39:07Z</time>
      </trkpt>
      <trkpt lat="45.98" lon="4.87602">
        <ele>280</ele>
        <time>2018-07-03T09:39:08Z</time>
      </trkpt>
      <trkpt lat="45.98003" lon="4.8761">
        <ele>280</ele>
        <time>2018-07-03T09:39:09Z</time>
      </trkpt>
      <trkpt lat="45.98006" lon="4.87616">
        <ele>280</ele>
        <time>2018-07-03T09:39:10Z</time>
      </trkpt>
      <trkpt lat="45.98009" lon="4.87622">
        <ele>280</ele>
        <time>2018-07-03T09:39:11Z</time>
      </trkpt>
      <trkpt lat="45.9801" lon="4.87628">
        <ele>280</ele>
        <time>2018-07-03T09:39:12Z</time>
      </trkpt>
      <trkpt lat="45.98013" lon="4.8764">
        <ele>280</ele>
        <time>2018-07-03T09:39:14Z</time>
      </trkpt>
      <trkpt lat="45.98016" lon="4.87647">
        <ele>280</ele>
        <time>2018-07-03T09:39:15Z</time>
      </trkpt>
      <trkpt lat="45.98019" lon="4.87654">
        <ele>280</ele>
        <time>2018-07-03T09:39:16Z</time>
      </trkpt>
      <trkpt lat="45.98021" lon="4.87661">
        <ele>280</ele>
        <time>2018-07-03T09:39:17Z</time>
      </trkpt>
      <trkpt lat="45.98023" lon="4.87669">
        <ele>280</ele>
        <time>2018-07-03T09:39:18Z</time>
      </trkpt>
      <trkpt lat="45.98026" lon="4.87677">
        <ele>280</ele>
        <time>2018-07-03T09:39:19Z</time>
      </trkpt>
      <trkpt lat="45.98029" lon="4.87686">
        <ele>280</ele>
        <time>2018-07-03T09:39:20Z</time>
      </trkpt>
      <trkpt lat="45.98031" lon="4.87694">
        <ele>280</ele>
        <time>2018-07-03T09:39:21Z</time>
      </trkpt>
      <trkpt lat="45.98034" lon="4.87701">
        <ele>280</ele>
        <time>2018-07-03T09:39:22Z</time>
      </trkpt>
      <trkpt lat="45.98036" lon="4.87709">
        <ele>279</ele>
        <time>2018-07-03T09:39:23Z</time>
      </trkpt>
      <trkpt lat="45.98039" lon="4.87717">
        <ele>279</ele>
        <time>2018-07-03T09:39:24Z</time>
      </trkpt>
      <trkpt lat="45.98042" lon="4.87725">
        <ele>279</ele>
        <time>2018-07-03T09:39:25Z</time>
      </trkpt>
      <trkpt lat="45.98043" lon="4.87732">
        <ele>280</ele>
        <time>2018-07-03T09:39:26Z</time>
      </trkpt>
      <trkpt lat="45.98043" lon="4.87741">
        <ele>280</ele>
        <time>2018-07-03T09:39:27Z</time>
      </trkpt>
      <trkpt lat="45.98047" lon="4.87746">
        <ele>280</ele>
        <time>2018-07-03T09:39:28Z</time>
      </trkpt>
      <trkpt lat="45.98049" lon="4.87754">
        <ele>280</ele>
        <time>2018-07-03T09:39:29Z</time>
      </trkpt>
      <trkpt lat="45.9805" lon="4.87762">
        <ele>280</ele>
        <time>2018-07-03T09:39:30Z</time>
      </trkpt>
      <trkpt lat="45.98051" lon="4.8777">
        <ele>280</ele>
        <time>2018-07-03T09:39:31Z</time>
      </trkpt>
      <trkpt lat="45.98053" lon="4.87778">
        <ele>280</ele>
        <time>2018-07-03T09:39:32Z</time>
      </trkpt>
      <trkpt lat="45.98055" lon="4.87785">
        <ele>280</ele>
        <time>2018-07-03T09:39:33Z</time>
      </trkpt>
      <trkpt lat="45.98058" lon="4.87792">
        <ele>280</ele>
        <time>2018-07-03T09:39:34Z</time>
      </trkpt>
      <trkpt lat="45.9806" lon="4.87801">
        <ele>280</ele>
        <time>2018-07-03T09:39:35Z</time>
      </trkpt>
      <trkpt lat="45.98062" lon="4.87809">
        <ele>280</ele>
        <time>2018-07-03T09:39:36Z</time>
      </trkpt>
      <trkpt lat="45.98068" lon="4.87816">
        <ele>280</ele>
        <time>2018-07-03T09:39:37Z</time>
      </trkpt>
      <trkpt lat="45.9807" lon="4.87824">
        <ele>279</ele>
        <time>2018-07-03T09:39:38Z</time>
      </trkpt>
      <trkpt lat="45.98073" lon="4.87832">
        <ele>279</ele>
        <time>2018-07-03T09:39:39Z</time>
      </trkpt>
      <trkpt lat="45.98074" lon="4.8784">
        <ele>279</ele>
        <time>2018-07-03T09:39:40Z</time>
      </trkpt>
      <trkpt lat="45.98077" lon="4.87848">
        <ele>280</ele>
        <time>2018-07-03T09:39:41Z</time>
      </trkpt>
      <trkpt lat="45.98081" lon="4.87855">
        <ele>280</ele>
        <time>2018-07-03T09:39:42Z</time>
      </trkpt>
      <trkpt lat="45.98082" lon="4.87862">
        <ele>280</ele>
        <time>2018-07-03T09:39:43Z</time>
      </trkpt>
      <trkpt lat="45.98086" lon="4.8787">
        <ele>278</ele>
        <time>2018-07-03T09:39:44Z</time>
      </trkpt>
      <trkpt lat="45.98089" lon="4.87878">
        <ele>278</ele>
        <time>2018-07-03T09:39:45Z</time>
      </trkpt>
      <trkpt lat="45.98091" lon="4.87886">
        <ele>278</ele>
        <time>2018-07-03T09:39:46Z</time>
      </trkpt>
      <trkpt lat="45.98092" lon="4.87895">
        <ele>278</ele>
        <time>2018-07-03T09:39:47Z</time>
      </trkpt>
      <trkpt lat="45.98095" lon="4.87903">
        <ele>278</ele>
        <time>2018-07-03T09:39:48Z</time>
      </trkpt>
      <trkpt lat="45.98096" lon="4.87911">
        <ele>278</ele>
        <time>2018-07-03T09:39:49Z</time>
      </trkpt>
      <trkpt lat="45.98098" lon="4.87919">
        <ele>278</ele>
        <time>2018-07-03T09:39:50Z</time>
      </trkpt>
      <trkpt lat="45.98099" lon="4.87927">
        <ele>278</ele>
        <time>2018-07-03T09:39:51Z</time>
      </trkpt>
      <trkpt lat="45.98102" lon="4.87935">
        <ele>277</ele>
        <time>2018-07-03T09:39:52Z</time>
      </trkpt>
      <trkpt lat="45.98103" lon="4.87944">
        <ele>277</ele>
        <time>2018-07-03T09:39:53Z</time>
      </trkpt>
      <trkpt lat="45.98105" lon="4.87953">
        <ele>277</ele>
        <time>2018-07-03T09:39:54Z</time>
      </trkpt>
      <trkpt lat="45.98112" lon="4.87962">
        <ele>277</ele>
        <time>2018-07-03T09:39:55Z</time>
      </trkpt>
      <trkpt lat="45.98113" lon="4.8797">
        <ele>277</ele>
        <time>2018-07-03T09:39:56Z</time>
      </trkpt>
      <trkpt lat="45.98115" lon="4.87977">
        <ele>277</ele>
        <time>2018-07-03T09:39:57Z</time>
      </trkpt>
      <trkpt lat="45.98118" lon="4.87986">
        <ele>277</ele>
        <time>2018-07-03T09:39:58Z</time>
      </trkpt>
      <trkpt lat="45.98118" lon="4.87994">
        <ele>277</ele>
        <time>2018-07-03T09:39:59Z</time>
      </trkpt>
      <trkpt lat="45.98121" lon="4.88004">
        <ele>276</ele>
        <time>2018-07-03T09:40:00Z</time>
      </trkpt>
      <trkpt lat="45.98126" lon="4.88011">
        <ele>276</ele>
        <time>2018-07-03T09:40:01Z</time>
      </trkpt>
      <trkpt lat="45.98125" lon="4.8802">
        <ele>276</ele>
        <time>2018-07-03T09:40:02Z</time>
      </trkpt>
      <trkpt lat="45.98128" lon="4.88029">
        <ele>276</ele>
        <time>2018-07-03T09:40:03Z</time>
      </trkpt>
      <trkpt lat="45.9813" lon="4.88037">
        <ele>276</ele>
        <time>2018-07-03T09:40:04Z</time>
      </trkpt>
      <trkpt lat="45.98132" lon="4.88046">
        <ele>276</ele>
        <time>2018-07-03T09:40:05Z</time>
      </trkpt>
      <trkpt lat="45.98136" lon="4.88054">
        <ele>275</ele>
        <time>2018-07-03T09:40:06Z</time>
      </trkpt>
      <trkpt lat="45.98138" lon="4.88063">
        <ele>275</ele>
        <time>2018-07-03T09:40:07Z</time>
      </trkpt>
      <trkpt lat="45.98145" lon="4.88072">
        <ele>275</ele>
        <time>2018-07-03T09:40:08Z</time>
      </trkpt>
      <trkpt lat="45.98144" lon="4.8808">
        <ele>275</ele>
        <time>2018-07-03T09:40:09Z</time>
      </trkpt>
      <trkpt lat="45.98146" lon="4.88088">
        <ele>274</ele>
        <time>2018-07-03T09:40:10Z</time>
      </trkpt>
      <trkpt lat="45.9815" lon="4.88098">
        <ele>274</ele>
        <time>2018-07-03T09:40:11Z</time>
      </trkpt>
      <trkpt lat="45.98153" lon="4.88107">
        <ele>274</ele>
        <time>2018-07-03T09:40:12Z</time>
      </trkpt>
      <trkpt lat="45.98155" lon="4.88115">
        <ele>274</ele>
        <time>2018-07-03T09:40:13Z</time>
      </trkpt>
      <trkpt lat="45.98158" lon="4.88124">
        <ele>274</ele>
        <time>2018-07-03T09:40:14Z</time>
      </trkpt>
      <trkpt lat="45.98162" lon="4.88133">
        <ele>274</ele>
        <time>2018-07-03T09:40:15Z</time>
      </trkpt>
      <trkpt lat="45.98163" lon="4.88141">
        <ele>274</ele>
        <time>2018-07-03T09:40:16Z</time>
      </trkpt>
      <trkpt lat="45.98166" lon="4.8815">
        <ele>274</ele>
        <time>2018-07-03T09:40:17Z</time>
      </trkpt>
      <trkpt lat="45.98169" lon="4.88158">
        <ele>273</ele>
        <time>2018-07-03T09:40:18Z</time>
      </trkpt>
      <trkpt lat="45.98172" lon="4.88167">
        <ele>273</ele>
        <time>2018-07-03T09:40:19Z</time>
      </trkpt>
      <trkpt lat="45.98174" lon="4.88175">
        <ele>273</ele>
        <time>2018-07-03T09:40:20Z</time>
      </trkpt>
      <trkpt lat="45.98176" lon="4.88183">
        <ele>273</ele>
        <time>2018-07-03T09:40:21Z</time>
      </trkpt>
      <trkpt lat="45.98177" lon="4.88191">
        <ele>273</ele>
        <time>2018-07-03T09:40:22Z</time>
      </trkpt>
      <trkpt lat="45.98179" lon="4.882">
        <ele>273</ele>
        <time>2018-07-03T09:40:23Z</time>
      </trkpt>
      <trkpt lat="45.98179" lon="4.88208">
        <ele>273</ele>
        <time>2018-07-03T09:40:24Z</time>
      </trkpt>
      <trkpt lat="45.98182" lon="4.88214">
        <ele>273</ele>
        <time>2018-07-03T09:40:25Z</time>
      </trkpt>
      <trkpt lat="45.98182" lon="4.88222">
        <ele>273</ele>
        <time>2018-07-03T09:40:26Z</time>
      </trkpt>
      <trkpt lat="45.98186" lon="4.8823">
        <ele>273</ele>
        <time>2018-07-03T09:40:27Z</time>
      </trkpt>
      <trkpt lat="45.98187" lon="4.88237">
        <ele>273</ele>
        <time>2018-07-03T09:40:28Z</time>
      </trkpt>
      <trkpt lat="45.9819" lon="4.88246">
        <ele>273</ele>
        <time>2018-07-03T09:40:29Z</time>
      </trkpt>
      <trkpt lat="45.98191" lon="4.88253">
        <ele>274</ele>
        <time>2018-07-03T09:40:30Z</time>
      </trkpt>
      <trkpt lat="45.98193" lon="4.88261">
        <ele>274</ele>
        <time>2018-07-03T09:40:31Z</time>
      </trkpt>
      <trkpt lat="45.98198" lon="4.8827">
        <ele>274</ele>
        <time>2018-07-03T09:40:32Z</time>
      </trkpt>
      <trkpt lat="45.98199" lon="4.88278">
        <ele>274</ele>
        <time>2018-07-03T09:40:33Z</time>
      </trkpt>
      <trkpt lat="45.982" lon="4.88286">
        <ele>274</ele>
        <time>2018-07-03T09:40:34Z</time>
      </trkpt>
      <trkpt lat="45.98202" lon="4.88295">
        <ele>274</ele>
        <time>2018-07-03T09:40:35Z</time>
      </trkpt>
      <trkpt lat="45.98204" lon="4.88303">
        <ele>274</ele>
        <time>2018-07-03T09:40:36Z</time>
      </trkpt>
      <trkpt lat="45.98205" lon="4.88311">
        <ele>274</ele>
        <time>2018-07-03T09:40:37Z</time>
      </trkpt>
      <trkpt lat="45.98206" lon="4.88319">
        <ele>274</ele>
        <time>2018-07-03T09:40:38Z</time>
      </trkpt>
      <trkpt lat="45.98208" lon="4.88326">
        <ele>274</ele>
        <time>2018-07-03T09:40:39Z</time>
      </trkpt>
      <trkpt lat="45.98208" lon="4.88335">
        <ele>275</ele>
        <time>2018-07-03T09:40:40Z</time>
      </trkpt>
      <trkpt lat="45.98207" lon="4.88342">
        <ele>275</ele>
        <time>2018-07-03T09:40:41Z</time>
      </trkpt>
      <trkpt lat="45.98208" lon="4.8835">
        <ele>275</ele>
        <time>2018-07-03T09:40:42Z</time>
      </trkpt>
      <trkpt lat="45.98209" lon="4.88359">
        <ele>275</ele>
        <time>2018-07-03T09:40:43Z</time>
      </trkpt>
      <trkpt lat="45.98208" lon="4.88367">
        <ele>275</ele>
        <time>2018-07-03T09:40:44Z</time>
      </trkpt>
      <trkpt lat="45.9821" lon="4.88375">
        <ele>275</ele>
        <time>2018-07-03T09:40:45Z</time>
      </trkpt>
      <trkpt lat="45.98211" lon="4.88382">
        <ele>275</ele>
        <time>2018-07-03T09:40:46Z</time>
      </trkpt>
      <trkpt lat="45.98212" lon="4.88389">
        <ele>275</ele>
        <time>2018-07-03T09:40:47Z</time>
      </trkpt>
      <trkpt lat="45.98214" lon="4.88396">
        <ele>275</ele>
        <time>2018-07-03T09:40:48Z</time>
      </trkpt>
      <trkpt lat="45.98215" lon="4.88402">
        <ele>275</ele>
        <time>2018-07-03T09:40:49Z</time>
      </trkpt>
      <trkpt lat="45.98219" lon="4.8841">
        <ele>275</ele>
        <time>2018-07-03T09:40:50Z</time>
      </trkpt>
      <trkpt lat="45.98223" lon="4.88422">
        <ele>276</ele>
        <time>2018-07-03T09:40:52Z</time>
      </trkpt>
      <trkpt lat="45.98225" lon="4.88427">
        <ele>276</ele>
        <time>2018-07-03T09:40:53Z</time>
      </trkpt>
      <trkpt lat="45.98228" lon="4.88433">
        <ele>276</ele>
        <time>2018-07-03T09:40:54Z</time>
      </trkpt>
      <trkpt lat="45.98229" lon="4.88439">
        <ele>276</ele>
        <time>2018-07-03T09:40:55Z</time>
      </trkpt>
      <trkpt lat="45.9823" lon="4.88446">
        <ele>276</ele>
        <time>2018-07-03T09:40:56Z</time>
      </trkpt>
      <trkpt lat="45.98232" lon="4.88453">
        <ele>276</ele>
        <time>2018-07-03T09:40:57Z</time>
      </trkpt>
      <trkpt lat="45.98232" lon="4.88459">
        <ele>276</ele>
        <time>2018-07-03T09:40:58Z</time>
      </trkpt>
      <trkpt lat="45.98233" lon="4.88466">
        <ele>276</ele>
        <time>2018-07-03T09:40:59Z</time>
      </trkpt>
      <trkpt lat="45.98234" lon="4.88474">
        <ele>276</ele>
        <time>2018-07-03T09:41:00Z</time>
      </trkpt>
      <trkpt lat="45.98235" lon="4.88482">
        <ele>276</ele>
        <time>2018-07-03T09:41:01Z</time>
      </trkpt>
      <trkpt lat="45.98237" lon="4.88489">
        <ele>276</ele>
        <time>2018-07-03T09:41:02Z</time>
      </trkpt>
      <trkpt lat="45.98238" lon="4.88495">
        <ele>276</ele>
        <time>2018-07-03T09:41:03Z</time>
      </trkpt>
      <trkpt lat="45.98241" lon="4.88503">
        <ele>277</ele>
        <time>2018-07-03T09:41:04Z</time>
      </trkpt>
      <trkpt lat="45.98244" lon="4.88511">
        <ele>276</ele>
        <time>2018-07-03T09:41:05Z</time>
      </trkpt>
      <trkpt lat="45.98244" lon="4.88519">
        <ele>276</ele>
        <time>2018-07-03T09:41:06Z</time>
      </trkpt>
      <trkpt lat="45.98247" lon="4.88525">
        <ele>276</ele>
        <time>2018-07-03T09:41:07Z</time>
      </trkpt>
      <trkpt lat="45.98247" lon="4.88536">
        <ele>276</ele>
        <time>2018-07-03T09:41:09Z</time>
      </trkpt>
      <trkpt lat="45.9825" lon="4.88544">
        <ele>276</ele>
        <time>2018-07-03T09:41:10Z</time>
      </trkpt>
      <trkpt lat="45.98252" lon="4.88555">
        <ele>276</ele>
        <time>2018-07-03T09:41:12Z</time>
      </trkpt>
      <trkpt lat="45.98254" lon="4.88562">
        <ele>276</ele>
        <time>2018-07-03T09:41:13Z</time>
      </trkpt>
      <trkpt lat="45.98258" lon="4.88568">
        <ele>276</ele>
        <time>2018-07-03T09:41:14Z</time>
      </trkpt>
      <trkpt lat="45.98259" lon="4.88575">
        <ele>276</ele>
        <time>2018-07-03T09:41:15Z</time>
      </trkpt>
      <trkpt lat="45.9826" lon="4.88584">
        <ele>275</ele>
        <time>2018-07-03T09:41:16Z</time>
      </trkpt>
      <trkpt lat="45.98262" lon="4.88591">
        <ele>275</ele>
        <time>2018-07-03T09:41:17Z</time>
      </trkpt>
      <trkpt lat="45.98263" lon="4.88596">
        <ele>275</ele>
        <time>2018-07-03T09:41:18Z</time>
      </trkpt>
      <trkpt lat="45.98265" lon="4.88604">
        <ele>275</ele>
        <time>2018-07-03T09:41:19Z</time>
      </trkpt>
      <trkpt lat="45.98268" lon="4.88611">
        <ele>276</ele>
        <time>2018-07-03T09:41:20Z</time>
      </trkpt>
      <trkpt lat="45.98271" lon="4.88619">
        <ele>276</ele>
        <time>2018-07-03T09:41:21Z</time>
      </trkpt>
      <trkpt lat="45.98273" lon="4.88626">
        <ele>276</ele>
        <time>2018-07-03T09:41:22Z</time>
      </trkpt>
      <trkpt lat="45.98276" lon="4.88634">
        <ele>276</ele>
        <time>2018-07-03T09:41:23Z</time>
      </trkpt>
      <trkpt lat="45.98278" lon="4.88642">
        <ele>276</ele>
        <time>2018-07-03T09:41:24Z</time>
      </trkpt>
      <trkpt lat="45.98278" lon="4.88649">
        <ele>276</ele>
        <time>2018-07-03T09:41:25Z</time>
      </trkpt>
      <trkpt lat="45.98279" lon="4.88656">
        <ele>276</ele>
        <time>2018-07-03T09:41:26Z</time>
      </trkpt>
      <trkpt lat="45.98282" lon="4.88663">
        <ele>276</ele>
        <time>2018-07-03T09:41:27Z</time>
      </trkpt>
      <trkpt lat="45.98284" lon="4.88674">
        <ele>276</ele>
        <time>2018-07-03T09:41:29Z</time>
      </trkpt>
      <trkpt lat="45.98287" lon="4.8868">
        <ele>276</ele>
        <time>2018-07-03T09:41:30Z</time>
      </trkpt>
      <trkpt lat="45.9829" lon="4.88686">
        <ele>276</ele>
        <time>2018-07-03T09:41:31Z</time>
      </trkpt>
      <trkpt lat="45.98291" lon="4.88692">
        <ele>276</ele>
        <time>2018-07-03T09:41:32Z</time>
      </trkpt>
      <trkpt lat="45.98292" lon="4.88698">
        <ele>276</ele>
        <time>2018-07-03T09:41:33Z</time>
      </trkpt>
      <trkpt lat="45.98293" lon="4.88705">
        <ele>276</ele>
        <time>2018-07-03T09:41:34Z</time>
      </trkpt>
      <trkpt lat="45.98295" lon="4.88711">
        <ele>276</ele>
        <time>2018-07-03T09:41:35Z</time>
      </trkpt>
      <trkpt lat="45.98297" lon="4.88719">
        <ele>276</ele>
        <time>2018-07-03T09:41:36Z</time>
      </trkpt>
      <trkpt lat="45.98298" lon="4.88725">
        <ele>276</ele>
        <time>2018-07-03T09:41:37Z</time>
      </trkpt>
      <trkpt lat="45.983" lon="4.88732">
        <ele>276</ele>
        <time>2018-07-03T09:41:38Z</time>
      </trkpt>
      <trkpt lat="45.98303" lon="4.88744">
        <ele>276</ele>
        <time>2018-07-03T09:41:40Z</time>
      </trkpt>
      <trkpt lat="45.98304" lon="4.88749">
        <ele>276</ele>
        <time>2018-07-03T09:41:41Z</time>
      </trkpt>
      <trkpt lat="45.98306" lon="4.88755">
        <ele>276</ele>
        <time>2018-07-03T09:41:42Z</time>
      </trkpt>
      <trkpt lat="45.98307" lon="4.88762">
        <ele>276</ele>
        <time>2018-07-03T09:41:43Z</time>
      </trkpt>
      <trkpt lat="45.9831" lon="4.88773">
        <ele>277</ele>
        <time>2018-07-03T09:41:45Z</time>
      </trkpt>
      <trkpt lat="45.98311" lon="4.88781">
        <ele>277</ele>
        <time>2018-07-03T09:41:46Z</time>
      </trkpt>
      <trkpt lat="45.98312" lon="4.88788">
        <ele>277</ele>
        <time>2018-07-03T09:41:47Z</time>
      </trkpt>
      <trkpt lat="45.98313" lon="4.88795">
        <ele>277</ele>
        <time>2018-07-03T09:41:48Z</time>
      </trkpt>
      <trkpt lat="45.98315" lon="4.88801">
        <ele>277</ele>
        <time>2018-07-03T09:41:49Z</time>
      </trkpt>
      <trkpt lat="45.98317" lon="4.88808">
        <ele>277</ele>
        <time>2018-07-03T09:41:50Z</time>
      </trkpt>
      <trkpt lat="45.98318" lon="4.88815">
        <ele>277</ele>
        <time>2018-07-03T09:41:51Z</time>
      </trkpt>
      <trkpt lat="45.98319" lon="4.88821">
        <ele>277</ele>
        <time>2018-07-03T09:41:52Z</time>
      </trkpt>
      <trkpt lat="45.98321" lon="4.88827">
        <ele>277</ele>
        <time>2018-07-03T09:41:53Z</time>
      </trkpt>
      <trkpt lat="45.98322" lon="4.88833">
        <ele>278</ele>
        <time>2018-07-03T09:41:54Z</time>
      </trkpt>
      <trkpt lat="45.98324" lon="4.8884">
        <ele>278</ele>
        <time>2018-07-03T09:41:55Z</time>
      </trkpt>
      <trkpt lat="45.98325" lon="4.88846">
        <ele>278</ele>
        <time>2018-07-03T09:41:56Z</time>
      </trkpt>
      <trkpt lat="45.98327" lon="4.88854">
        <ele>278</ele>
        <time>2018-07-03T09:41:57Z</time>
      </trkpt>
      <trkpt lat="45.98329" lon="4.88861">
        <ele>278</ele>
        <time>2018-07-03T09:41:58Z</time>
      </trkpt>
      <trkpt lat="45.98331" lon="4.88867">
        <ele>278</ele>
        <time>2018-07-03T09:41:59Z</time>
      </trkpt>
      <trkpt lat="45.98332" lon="4.88873">
        <ele>278</ele>
        <time>2018-07-03T09:42:00Z</time>
      </trkpt>
      <trkpt lat="45.98334" lon="4.8888">
        <ele>280</ele>
        <time>2018-07-03T09:42:01Z</time>
      </trkpt>
      <trkpt lat="45.98336" lon="4.88886">
        <ele>280</ele>
        <time>2018-07-03T09:42:02Z</time>
      </trkpt>
      <trkpt lat="45.98338" lon="4.88894">
        <ele>280</ele>
        <time>2018-07-03T09:42:03Z</time>
      </trkpt>
      <trkpt lat="45.9834" lon="4.88901">
        <ele>280</ele>
        <time>2018-07-03T09:42:04Z</time>
      </trkpt>
      <trkpt lat="45.98341" lon="4.88908">
        <ele>280</ele>
        <time>2018-07-03T09:42:05Z</time>
      </trkpt>
      <trkpt lat="45.98343" lon="4.88916">
        <ele>280</ele>
        <time>2018-07-03T09:42:06Z</time>
      </trkpt>
      <trkpt lat="45.98345" lon="4.88923">
        <ele>280</ele>
        <time>2018-07-03T09:42:07Z</time>
      </trkpt>
      <trkpt lat="45.98347" lon="4.88929">
        <ele>281</ele>
        <time>2018-07-03T09:42:08Z</time>
      </trkpt>
      <trkpt lat="45.98348" lon="4.88935">
        <ele>281</ele>
        <time>2018-07-03T09:42:09Z</time>
      </trkpt>
      <trkpt lat="45.98351" lon="4.88942">
        <ele>282</ele>
        <time>2018-07-03T09:42:10Z</time>
      </trkpt>
      <trkpt lat="45.98352" lon="4.88954">
        <ele>282</ele>
        <time>2018-07-03T09:42:12Z</time>
      </trkpt>
      <trkpt lat="45.98353" lon="4.88961">
        <ele>282</ele>
        <time>2018-07-03T09:42:13Z</time>
      </trkpt>
      <trkpt lat="45.98355" lon="4.88973">
        <ele>282</ele>
        <time>2018-07-03T09:42:15Z</time>
      </trkpt>
      <trkpt lat="45.98357" lon="4.88979">
        <ele>282</ele>
        <time>2018-07-03T09:42:16Z</time>
      </trkpt>
      <trkpt lat="45.98359" lon="4.88985">
        <ele>282</ele>
        <time>2018-07-03T09:42:17Z</time>
      </trkpt>
      <trkpt lat="45.98361" lon="4.88991">
        <ele>282</ele>
        <time>2018-07-03T09:42:18Z</time>
      </trkpt>
      <trkpt lat="45.98362" lon="4.88997">
        <ele>282</ele>
        <time>2018-07-03T09:42:19Z</time>
      </trkpt>
      <trkpt lat="45.98364" lon="4.89004">
        <ele>283</ele>
        <time>2018-07-03T09:42:20Z</time>
      </trkpt>
      <trkpt lat="45.98366" lon="4.89016">
        <ele>283</ele>
        <time>2018-07-03T09:42:22Z</time>
      </trkpt>
      <trkpt lat="45.98367" lon="4.89022">
        <ele>284</ele>
        <time>2018-07-03T09:42:23Z</time>
      </trkpt>
      <trkpt lat="45.98368" lon="4.89029">
        <ele>284</ele>
        <time>2018-07-03T09:42:24Z</time>
      </trkpt>
      <trkpt lat="45.9837" lon="4.89037">
        <ele>284</ele>
        <time>2018-07-03T09:42:25Z</time>
      </trkpt>
      <trkpt lat="45.98372" lon="4.89048">
        <ele>284</ele>
        <time>2018-07-03T09:42:27Z</time>
      </trkpt>
      <trkpt lat="45.98375" lon="4.89053">
        <ele>284</ele>
        <time>2018-07-03T09:42:28Z</time>
      </trkpt>
      <trkpt lat="45.98378" lon="4.89065">
        <ele>284</ele>
        <time>2018-07-03T09:42:30Z</time>
      </trkpt>
      <trkpt lat="45.9838" lon="4.8907">
        <ele>284</ele>
        <time>2018-07-03T09:42:31Z</time>
      </trkpt>
      <trkpt lat="45.98383" lon="4.8908">
        <ele>285</ele>
        <time>2018-07-03T09:42:33Z</time>
      </trkpt>
      <trkpt lat="45.98385" lon="4.89085">
        <ele>285</ele>
        <time>2018-07-03T09:42:34Z</time>
      </trkpt>
      <trkpt lat="45.98389" lon="4.89094">
        <ele>285</ele>
        <time>2018-07-03T09:42:36Z</time>
      </trkpt>
      <trkpt lat="45.98391" lon="4.89099">
        <ele>285</ele>
        <time>2018-07-03T09:42:37Z</time>
      </trkpt>
      <trkpt lat="45.98397" lon="4.89107">
        <ele>285</ele>
        <time>2018-07-03T09:42:39Z</time>
      </trkpt>
      <trkpt lat="45.984" lon="4.89111">
        <ele>285</ele>
        <time>2018-07-03T09:42:40Z</time>
      </trkpt>
      <trkpt lat="45.98404" lon="4.8912">
        <ele>285</ele>
        <time>2018-07-03T09:42:42Z</time>
      </trkpt>
      <trkpt lat="45.98407" lon="4.89125">
        <ele>285</ele>
        <time>2018-07-03T09:42:43Z</time>
      </trkpt>
      <trkpt lat="45.98413" lon="4.89133">
        <ele>285</ele>
        <time>2018-07-03T09:42:45Z</time>
      </trkpt>
      <trkpt lat="45.98416" lon="4.89137">
        <ele>286</ele>
        <time>2018-07-03T09:42:46Z</time>
      </trkpt>
      <trkpt lat="45.98422" lon="4.89145">
        <ele>288</ele>
        <time>2018-07-03T09:42:48Z</time>
      </trkpt>
      <trkpt lat="45.98424" lon="4.89149">
        <ele>288</ele>
        <time>2018-07-03T09:42:49Z</time>
      </trkpt>
      <trkpt lat="45.98429" lon="4.89158">
        <ele>288</ele>
        <time>2018-07-03T09:42:51Z</time>
      </trkpt>
      <trkpt lat="45.98432" lon="4.89162">
        <ele>288</ele>
        <time>2018-07-03T09:42:52Z</time>
      </trkpt>
      <trkpt lat="45.98436" lon="4.8917">
        <ele>288</ele>
        <time>2018-07-03T09:42:54Z</time>
      </trkpt>
      <trkpt lat="45.98437" lon="4.89172">
        <ele>288</ele>
        <time>2018-07-03T09:42:55Z</time>
      </trkpt>
      <trkpt lat="45.98442" lon="4.8918">
        <ele>288</ele>
        <time>2018-07-03T09:42:57Z</time>
      </trkpt>
      <trkpt lat="45.98443" lon="4.89182">
        <ele>288</ele>
        <time>2018-07-03T09:42:58Z</time>
      </trkpt>
      <trkpt lat="45.98447" lon="4.89192">
        <ele>288</ele>
        <time>2018-07-03T09:43:01Z</time>
      </trkpt>
      <trkpt lat="45.98448" lon="4.89195">
        <ele>289</ele>
        <time>2018-07-03T09:43:02Z</time>
      </trkpt>
      <trkpt lat="45.9845" lon="4.89199">
        <ele>289</ele>
        <time>2018-07-03T09:43:03Z</time>
      </trkpt>
      <trkpt lat="45.98455" lon="4.89211">
        <ele>289</ele>
        <time>2018-07-03T09:43:04Z</time>
      </trkpt>
      <trkpt lat="45.98458" lon="4.8922">
        <ele>289</ele>
        <time>2018-07-03T09:43:07Z</time>
      </trkpt>
      <trkpt lat="45.98459" lon="4.89222">
        <ele>289</ele>
        <time>2018-07-03T09:43:08Z</time>
      </trkpt>
      <trkpt lat="45.9846" lon="4.89224">
        <ele>289</ele>
        <time>2018-07-03T09:43:09Z</time>
      </trkpt>
      <trkpt lat="45.98464" lon="4.89233">
        <ele>289</ele>
        <time>2018-07-03T09:43:10Z</time>
      </trkpt>
      <trkpt lat="45.9847" lon="4.89242">
        <ele>289</ele>
        <time>2018-07-03T09:43:14Z</time>
      </trkpt>
      <trkpt lat="45.98472" lon="4.89244">
        <ele>289</ele>
        <time>2018-07-03T09:43:15Z</time>
      </trkpt>
      <trkpt lat="45.98477" lon="4.89252">
        <ele>291</ele>
        <time>2018-07-03T09:43:18Z</time>
      </trkpt>
      <trkpt lat="45.98478" lon="4.89254">
        <ele>291</ele>
        <time>2018-07-03T09:43:19Z</time>
      </trkpt>
      <trkpt lat="45.9848" lon="4.89256">
        <ele>291</ele>
        <time>2018-07-03T09:43:20Z</time>
      </trkpt>
      <trkpt lat="45.98486" lon="4.89267">
        <ele>291</ele>
        <time>2018-07-03T09:43:21Z</time>
      </trkpt>
      <trkpt lat="45.98487" lon="4.89269">
        <ele>292</ele>
        <time>2018-07-03T09:43:22Z</time>
      </trkpt>
      <trkpt lat="45.98493" lon="4.89278">
        <ele>292</ele>
        <time>2018-07-03T09:43:23Z</time>
      </trkpt>
      <trkpt lat="45.98495" lon="4.89285">
        <ele>292</ele>
        <time>2018-07-03T09:43:24Z</time>
      </trkpt>
      <trkpt lat="45.98497" lon="4.89294">
        <ele>293</ele>
        <time>2018-07-03T09:43:25Z</time>
      </trkpt>
      <trkpt lat="45.98504" lon="4.89295">
        <ele>293</ele>
        <time>2018-07-03T09:43:26Z</time>
      </trkpt>
      <trkpt lat="45.98508" lon="4.89298">
        <ele>293</ele>
        <time>2018-07-03T09:43:27Z</time>
      </trkpt>
      <trkpt lat="45.98508" lon="4.89308">
        <ele>293</ele>
        <time>2018-07-03T09:43:30Z</time>
      </trkpt>
      <trkpt lat="45.98512" lon="4.89318">
        <ele>294</ele>
        <time>2018-07-03T09:43:31Z</time>
      </trkpt>
      <trkpt lat="45.98517" lon="4.89327">
        <ele>294</ele>
        <time>2018-07-03T09:43:33Z</time>
      </trkpt>
      <trkpt lat="45.98518" lon="4.89329">
        <ele>294</ele>
        <time>2018-07-03T09:43:34Z</time>
      </trkpt>
      <trkpt lat="45.98521" lon="4.89333">
        <ele>294</ele>
        <time>2018-07-03T09:43:36Z</time>
      </trkpt>
      <trkpt lat="45.98527" lon="4.8934">
        <ele>295</ele>
        <time>2018-07-03T09:43:37Z</time>
      </trkpt>
      <trkpt lat="45.98533" lon="4.89347">
        <ele>295</ele>
        <time>2018-07-03T09:43:39Z</time>
      </trkpt>
      <trkpt lat="45.98534" lon="4.89348">
        <ele>295</ele>
        <time>2018-07-03T09:43:40Z</time>
      </trkpt>
      <trkpt lat="45.98538" lon="4.89353">
        <ele>295</ele>
        <time>2018-07-03T09:43:41Z</time>
      </trkpt>
      <trkpt lat="45.98541" lon="4.89357">
        <ele>295</ele>
        <time>2018-07-03T09:43:42Z</time>
      </trkpt>
      <trkpt lat="45.98545" lon="4.89362">
        <ele>295</ele>
        <time>2018-07-03T09:43:43Z</time>
      </trkpt>
      <trkpt lat="45.98551" lon="4.89364">
        <ele>295</ele>
        <time>2018-07-03T09:43:44Z</time>
      </trkpt>
      <trkpt lat="45.98553" lon="4.8937">
        <ele>295</ele>
        <time>2018-07-03T09:43:45Z</time>
      </trkpt>
      <trkpt lat="45.98558" lon="4.89374">
        <ele>295</ele>
        <time>2018-07-03T09:43:46Z</time>
      </trkpt>
      <trkpt lat="45.98564" lon="4.89383">
        <ele>295</ele>
        <time>2018-07-03T09:43:48Z</time>
      </trkpt>
      <trkpt lat="45.98563" lon="4.89386">
        <ele>295</ele>
        <time>2018-07-03T09:43:49Z</time>
      </trkpt>
      <trkpt lat="45.98568" lon="4.89387">
        <ele>295</ele>
        <time>2018-07-03T09:43:50Z</time>
      </trkpt>
      <trkpt lat="45.98572" lon="4.89392">
        <ele>295</ele>
        <time>2018-07-03T09:43:51Z</time>
      </trkpt>
      <trkpt lat="45.98577" lon="4.894">
        <ele>295</ele>
        <time>2018-07-03T09:43:53Z</time>
      </trkpt>
      <trkpt lat="45.98581" lon="4.89407">
        <ele>294</ele>
        <time>2018-07-03T09:43:54Z</time>
      </trkpt>
      <trkpt lat="45.98588" lon="4.8941">
        <ele>293</ele>
        <time>2018-07-03T09:43:56Z</time>
      </trkpt>
      <trkpt lat="45.98594" lon="4.8941">
        <ele>293</ele>
        <time>2018-07-03T09:43:57Z</time>
      </trkpt>
      <trkpt lat="45.98603" lon="4.89412">
        <ele>292</ele>
        <time>2018-07-03T09:43:58Z</time>
      </trkpt>
      <trkpt lat="45.98607" lon="4.8942">
        <ele>292</ele>
        <time>2018-07-03T09:43:59Z</time>
      </trkpt>
      <trkpt lat="45.98612" lon="4.89425">
        <ele>292</ele>
        <time>2018-07-03T09:44:00Z</time>
      </trkpt>
      <trkpt lat="45.98615" lon="4.89436">
        <ele>292</ele>
        <time>2018-07-03T09:44:02Z</time>
      </trkpt>
      <trkpt lat="45.98618" lon="4.8944">
        <ele>291</ele>
        <time>2018-07-03T09:44:03Z</time>
      </trkpt>
      <trkpt lat="45.98624" lon="4.89442">
        <ele>291</ele>
        <time>2018-07-03T09:44:04Z</time>
      </trkpt>
      <trkpt lat="45.9863" lon="4.89445">
        <ele>291</ele>
        <time>2018-07-03T09:44:05Z</time>
      </trkpt>
      <trkpt lat="45.98634" lon="4.8945">
        <ele>291</ele>
        <time>2018-07-03T09:44:06Z</time>
      </trkpt>
      <trkpt lat="45.98638" lon="4.89456">
        <ele>291</ele>
        <time>2018-07-03T09:44:07Z</time>
      </trkpt>
      <trkpt lat="45.98643" lon="4.89464">
        <ele>291</ele>
        <time>2018-07-03T09:44:09Z</time>
      </trkpt>
      <trkpt lat="45.98649" lon="4.89468">
        <ele>291</ele>
        <time>2018-07-03T09:44:10Z</time>
      </trkpt>
      <trkpt lat="45.98656" lon="4.89477">
        <ele>290</ele>
        <time>2018-07-03T09:44:12Z</time>
      </trkpt>
      <trkpt lat="45.98661" lon="4.89481">
        <ele>290</ele>
        <time>2018-07-03T09:44:13Z</time>
      </trkpt>
      <trkpt lat="45.98664" lon="4.89485">
        <ele>290</ele>
        <time>2018-07-03T09:44:14Z</time>
      </trkpt>
      <trkpt lat="45.98668" lon="4.89489">
        <ele>289</ele>
        <time>2018-07-03T09:44:15Z</time>
      </trkpt>
      <trkpt lat="45.98674" lon="4.89497">
        <ele>289</ele>
        <time>2018-07-03T09:44:17Z</time>
      </trkpt>
      <trkpt lat="45.98677" lon="4.89501">
        <ele>289</ele>
        <time>2018-07-03T09:44:18Z</time>
      </trkpt>
      <trkpt lat="45.98682" lon="4.8951">
        <ele>289</ele>
        <time>2018-07-03T09:44:20Z</time>
      </trkpt>
      <trkpt lat="45.98684" lon="4.89514">
        <ele>289</ele>
        <time>2018-07-03T09:44:21Z</time>
      </trkpt>
      <trkpt lat="45.98689" lon="4.8952">
        <ele>289</ele>
        <time>2018-07-03T09:44:22Z</time>
      </trkpt>
      <trkpt lat="45.98694" lon="4.89524">
        <ele>289</ele>
        <time>2018-07-03T09:44:23Z</time>
      </trkpt>
      <trkpt lat="45.98696" lon="4.89529">
        <ele>289</ele>
        <time>2018-07-03T09:44:24Z</time>
      </trkpt>
      <trkpt lat="45.98698" lon="4.89535">
        <ele>289</ele>
        <time>2018-07-03T09:44:25Z</time>
      </trkpt>
      <trkpt lat="45.98702" lon="4.8954">
        <ele>289</ele>
        <time>2018-07-03T09:44:26Z</time>
      </trkpt>
      <trkpt lat="45.98706" lon="4.89546">
        <ele>290</ele>
        <time>2018-07-03T09:44:27Z</time>
      </trkpt>
      <trkpt lat="45.9871" lon="4.89551">
        <ele>290</ele>
        <time>2018-07-03T09:44:28Z</time>
      </trkpt>
      <trkpt lat="45.98713" lon="4.89555">
        <ele>290</ele>
        <time>2018-07-03T09:44:29Z</time>
      </trkpt>
      <trkpt lat="45.98719" lon="4.89558">
        <ele>290</ele>
        <time>2018-07-03T09:44:30Z</time>
      </trkpt>
      <trkpt lat="45.98721" lon="4.89562">
        <ele>290</ele>
        <time>2018-07-03T09:44:31Z</time>
      </trkpt>
      <trkpt lat="45.98725" lon="4.89568">
        <ele>290</ele>
        <time>2018-07-03T09:44:32Z</time>
      </trkpt>
      <trkpt lat="45.98732" lon="4.89573">
        <ele>290</ele>
        <time>2018-07-03T09:44:33Z</time>
      </trkpt>
      <trkpt lat="45.98735" lon="4.89577">
        <ele>290</ele>
        <time>2018-07-03T09:44:34Z</time>
      </trkpt>
      <trkpt lat="45.98739" lon="4.89582">
        <ele>290</ele>
        <time>2018-07-03T09:44:35Z</time>
      </trkpt>
      <trkpt lat="45.98743" lon="4.89588">
        <ele>291</ele>
        <time>2018-07-03T09:44:36Z</time>
      </trkpt>
      <trkpt lat="45.98746" lon="4.89593">
        <ele>291</ele>
        <time>2018-07-03T09:44:37Z</time>
      </trkpt>
      <trkpt lat="45.9875" lon="4.89598">
        <ele>291</ele>
        <time>2018-07-03T09:44:38Z</time>
      </trkpt>
      <trkpt lat="45.98752" lon="4.89602">
        <ele>291</ele>
        <time>2018-07-03T09:44:39Z</time>
      </trkpt>
      <trkpt lat="45.98757" lon="4.89607">
        <ele>291</ele>
        <time>2018-07-03T09:44:40Z</time>
      </trkpt>
      <trkpt lat="45.9876" lon="4.89612">
        <ele>291</ele>
        <time>2018-07-03T09:44:41Z</time>
      </trkpt>
      <trkpt lat="45.98764" lon="4.89616">
        <ele>291</ele>
        <time>2018-07-03T09:44:42Z</time>
      </trkpt>
      <trkpt lat="45.98768" lon="4.89621">
        <ele>291</ele>
        <time>2018-07-03T09:44:43Z</time>
      </trkpt>
      <trkpt lat="45.98772" lon="4.89626">
        <ele>291</ele>
        <time>2018-07-03T09:44:44Z</time>
      </trkpt>
      <trkpt lat="45.98776" lon="4.89631">
        <ele>291</ele>
        <time>2018-07-03T09:44:45Z</time>
      </trkpt>
      <trkpt lat="45.98779" lon="4.89636">
        <ele>291</ele>
        <time>2018-07-03T09:44:46Z</time>
      </trkpt>
      <trkpt lat="45.98782" lon="4.89641">
        <ele>291</ele>
        <time>2018-07-03T09:44:47Z</time>
      </trkpt>
      <trkpt lat="45.98789" lon="4.89649">
        <ele>291</ele>
        <time>2018-07-03T09:44:49Z</time>
      </trkpt>
      <trkpt lat="45.98791" lon="4.89653">
        <ele>291</ele>
        <time>2018-07-03T09:44:50Z</time>
      </trkpt>
      <trkpt lat="45.98797" lon="4.8966">
        <ele>291</ele>
        <time>2018-07-03T09:44:53Z</time>
      </trkpt>
      <trkpt lat="45.988" lon="4.89665">
        <ele>291</ele>
        <time>2018-07-03T09:44:54Z</time>
      </trkpt>
      <trkpt lat="45.98806" lon="4.89672">
        <ele>292</ele>
        <time>2018-07-03T09:44:56Z</time>
      </trkpt>
      <trkpt lat="45.9881" lon="4.89675">
        <ele>292</ele>
        <time>2018-07-03T09:44:57Z</time>
      </trkpt>
      <trkpt lat="45.98816" lon="4.89681">
        <ele>292</ele>
        <time>2018-07-03T09:44:59Z</time>
      </trkpt>
      <trkpt lat="45.98819" lon="4.89684">
        <ele>292</ele>
        <time>2018-07-03T09:45:00Z</time>
      </trkpt>
      <trkpt lat="45.98824" lon="4.89689">
        <ele>292</ele>
        <time>2018-07-03T09:45:02Z</time>
      </trkpt>
      <trkpt lat="45.98828" lon="4.89693">
        <ele>292</ele>
        <time>2018-07-03T09:45:03Z</time>
      </trkpt>
      <trkpt lat="45.98833" lon="4.897">
        <ele>292</ele>
        <time>2018-07-03T09:45:05Z</time>
      </trkpt>
      <trkpt lat="45.98836" lon="4.89703">
        <ele>292</ele>
        <time>2018-07-03T09:45:06Z</time>
      </trkpt>
      <trkpt lat="45.98843" lon="4.8971">
        <ele>293</ele>
        <time>2018-07-03T09:45:08Z</time>
      </trkpt>
      <trkpt lat="45.98847" lon="4.89712">
        <ele>293</ele>
        <time>2018-07-03T09:45:09Z</time>
      </trkpt>
      <trkpt lat="45.98855" lon="4.89718">
        <ele>293</ele>
        <time>2018-07-03T09:45:12Z</time>
      </trkpt>
      <trkpt lat="45.9886" lon="4.89722">
        <ele>293</ele>
        <time>2018-07-03T09:45:13Z</time>
      </trkpt>
      <trkpt lat="45.98868" lon="4.89726">
        <ele>293</ele>
        <time>2018-07-03T09:45:15Z</time>
      </trkpt>
      <trkpt lat="45.98872" lon="4.89729">
        <ele>293</ele>
        <time>2018-07-03T09:45:16Z</time>
      </trkpt>
      <trkpt lat="45.98878" lon="4.89734">
        <ele>293</ele>
        <time>2018-07-03T09:45:18Z</time>
      </trkpt>
      <trkpt lat="45.98881" lon="4.89737">
        <ele>293</ele>
        <time>2018-07-03T09:45:19Z</time>
      </trkpt>
      <trkpt lat="45.98884" lon="4.89741">
        <ele>293</ele>
        <time>2018-07-03T09:45:21Z</time>
      </trkpt>
      <trkpt lat="45.98889" lon="4.89747">
        <ele>293</ele>
        <time>2018-07-03T09:45:22Z</time>
      </trkpt>
      <trkpt lat="45.98895" lon="4.89753">
        <ele>293</ele>
        <time>2018-07-03T09:45:24Z</time>
      </trkpt>
      <trkpt lat="45.989" lon="4.89756">
        <ele>293</ele>
        <time>2018-07-03T09:45:25Z</time>
      </trkpt>
      <trkpt lat="45.98907" lon="4.8976">
        <ele>293</ele>
        <time>2018-07-03T09:45:27Z</time>
      </trkpt>
      <trkpt lat="45.98913" lon="4.89763">
        <ele>293</ele>
        <time>2018-07-03T09:45:28Z</time>
      </trkpt>
      <trkpt lat="45.98919" lon="4.89766">
        <ele>293</ele>
        <time>2018-07-03T09:45:29Z</time>
      </trkpt>
      <trkpt lat="45.98925" lon="4.89767">
        <ele>293</ele>
        <time>2018-07-03T09:45:30Z</time>
      </trkpt>
      <trkpt lat="45.9893" lon="4.8977">
        <ele>293</ele>
        <time>2018-07-03T09:45:31Z</time>
      </trkpt>
      <trkpt lat="45.98935" lon="4.89773">
        <ele>293</ele>
        <time>2018-07-03T09:45:32Z</time>
      </trkpt>
      <trkpt lat="45.98942" lon="4.89777">
        <ele>293</ele>
        <time>2018-07-03T09:45:34Z</time>
      </trkpt>
      <trkpt lat="45.98947" lon="4.8978">
        <ele>293</ele>
        <time>2018-07-03T09:45:35Z</time>
      </trkpt>
      <trkpt lat="45.98954" lon="4.89787">
        <ele>293</ele>
        <time>2018-07-03T09:45:37Z</time>
      </trkpt>
      <trkpt lat="45.98958" lon="4.89789">
        <ele>293</ele>
        <time>2018-07-03T09:45:38Z</time>
      </trkpt>
      <trkpt lat="45.98966" lon="4.89796">
        <ele>293</ele>
        <time>2018-07-03T09:45:40Z</time>
      </trkpt>
      <trkpt lat="45.9897" lon="4.898">
        <ele>293</ele>
        <time>2018-07-03T09:45:41Z</time>
      </trkpt>
      <trkpt lat="45.98973" lon="4.89808">
        <ele>293</ele>
        <time>2018-07-03T09:45:43Z</time>
      </trkpt>
      <trkpt lat="45.98976" lon="4.89814">
        <ele>293</ele>
        <time>2018-07-03T09:45:44Z</time>
      </trkpt>
      <trkpt lat="45.9898" lon="4.89819">
        <ele>293</ele>
        <time>2018-07-03T09:45:45Z</time>
      </trkpt>
      <trkpt lat="45.98983" lon="4.89824">
        <ele>293</ele>
        <time>2018-07-03T09:45:46Z</time>
      </trkpt>
      <trkpt lat="45.98989" lon="4.89832">
        <ele>293</ele>
        <time>2018-07-03T09:45:48Z</time>
      </trkpt>
      <trkpt lat="45.98991" lon="4.89836">
        <ele>293</ele>
        <time>2018-07-03T09:45:49Z</time>
      </trkpt>
      <trkpt lat="45.98997" lon="4.89844">
        <ele>293</ele>
        <time>2018-07-03T09:45:51Z</time>
      </trkpt>
      <trkpt lat="45.99" lon="4.89849">
        <ele>293</ele>
        <time>2018-07-03T09:45:52Z</time>
      </trkpt>
      <trkpt lat="45.99004" lon="4.89852">
        <ele>293</ele>
        <time>2018-07-03T09:45:53Z</time>
      </trkpt>
      <trkpt lat="45.99009" lon="4.89857">
        <ele>293</ele>
        <time>2018-07-03T09:45:54Z</time>
      </trkpt>
      <trkpt lat="45.99015" lon="4.89862">
        <ele>293</ele>
        <time>2018-07-03T09:45:55Z</time>
      </trkpt>
      <trkpt lat="45.99018" lon="4.89868">
        <ele>293</ele>
        <time>2018-07-03T09:45:56Z</time>
      </trkpt>
      <trkpt lat="45.99022" lon="4.89874">
        <ele>293</ele>
        <time>2018-07-03T09:45:57Z</time>
      </trkpt>
      <trkpt lat="45.99025" lon="4.89878">
        <ele>293</ele>
        <time>2018-07-03T09:45:58Z</time>
      </trkpt>
      <trkpt lat="45.99032" lon="4.89886">
        <ele>293</ele>
        <time>2018-07-03T09:46:00Z</time>
      </trkpt>
      <trkpt lat="45.99034" lon="4.89888">
        <ele>293</ele>
        <time>2018-07-03T09:46:01Z</time>
      </trkpt>
      <trkpt lat="45.9904" lon="4.89897">
        <ele>293</ele>
        <time>2018-07-03T09:46:03Z</time>
      </trkpt>
      <trkpt lat="45.99044" lon="4.89901">
        <ele>293</ele>
        <time>2018-07-03T09:46:04Z</time>
      </trkpt>
      <trkpt lat="45.99047" lon="4.89906">
        <ele>293</ele>
        <time>2018-07-03T09:46:05Z</time>
      </trkpt>
      <trkpt lat="45.9905" lon="4.89911">
        <ele>293</ele>
        <time>2018-07-03T09:46:06Z</time>
      </trkpt>
      <trkpt lat="45.99057" lon="4.89918">
        <ele>294</ele>
        <time>2018-07-03T09:46:08Z</time>
      </trkpt>
      <trkpt lat="45.99061" lon="4.89923">
        <ele>294</ele>
        <time>2018-07-03T09:46:09Z</time>
      </trkpt>
      <trkpt lat="45.99065" lon="4.89931">
        <ele>294</ele>
        <time>2018-07-03T09:46:11Z</time>
      </trkpt>
      <trkpt lat="45.99068" lon="4.89936">
        <ele>294</ele>
        <time>2018-07-03T09:46:12Z</time>
      </trkpt>
      <trkpt lat="45.99073" lon="4.89943">
        <ele>294</ele>
        <time>2018-07-03T09:46:13Z</time>
      </trkpt>
      <trkpt lat="45.99077" lon="4.89949">
        <ele>294</ele>
        <time>2018-07-03T09:46:14Z</time>
      </trkpt>
      <trkpt lat="45.99081" lon="4.89959">
        <ele>294</ele>
        <time>2018-07-03T09:46:16Z</time>
      </trkpt>
      <trkpt lat="45.99085" lon="4.89964">
        <ele>295</ele>
        <time>2018-07-03T09:46:17Z</time>
      </trkpt>
      <trkpt lat="45.99088" lon="4.89968">
        <ele>295</ele>
        <time>2018-07-03T09:46:18Z</time>
      </trkpt>
      <trkpt lat="45.99092" lon="4.89974">
        <ele>295</ele>
        <time>2018-07-03T09:46:19Z</time>
      </trkpt>
      <trkpt lat="45.99099" lon="4.8998">
        <ele>295</ele>
        <time>2018-07-03T09:46:21Z</time>
      </trkpt>
      <trkpt lat="45.99103" lon="4.89985">
        <ele>295</ele>
        <time>2018-07-03T09:46:22Z</time>
      </trkpt>
      <trkpt lat="45.99107" lon="4.89993">
        <ele>295</ele>
        <time>2018-07-03T09:46:24Z</time>
      </trkpt>
      <trkpt lat="45.99113" lon="4.89996">
        <ele>295</ele>
        <time>2018-07-03T09:46:25Z</time>
      </trkpt>
      <trkpt lat="45.99116" lon="4.90001">
        <ele>296</ele>
        <time>2018-07-03T09:46:26Z</time>
      </trkpt>
      <trkpt lat="45.99121" lon="4.90004">
        <ele>296</ele>
        <time>2018-07-03T09:46:27Z</time>
      </trkpt>
      <trkpt lat="45.99125" lon="4.90008">
        <ele>296</ele>
        <time>2018-07-03T09:46:28Z</time>
      </trkpt>
      <trkpt lat="45.99129" lon="4.90013">
        <ele>296</ele>
        <time>2018-07-03T09:46:29Z</time>
      </trkpt>
      <trkpt lat="45.99132" lon="4.90017">
        <ele>296</ele>
        <time>2018-07-03T09:46:30Z</time>
      </trkpt>
      <trkpt lat="45.99136" lon="4.90022">
        <ele>297</ele>
        <time>2018-07-03T09:46:31Z</time>
      </trkpt>
      <trkpt lat="45.9914" lon="4.90027">
        <ele>297</ele>
        <time>2018-07-03T09:46:32Z</time>
      </trkpt>
      <trkpt lat="45.99144" lon="4.90033">
        <ele>297</ele>
        <time>2018-07-03T09:46:33Z</time>
      </trkpt>
      <trkpt lat="45.99151" lon="4.90042">
        <ele>297</ele>
        <time>2018-07-03T09:46:35Z</time>
      </trkpt>
      <trkpt lat="45.99155" lon="4.90047">
        <ele>297</ele>
        <time>2018-07-03T09:46:36Z</time>
      </trkpt>
      <trkpt lat="45.99162" lon="4.90056">
        <ele>297</ele>
        <time>2018-07-03T09:46:38Z</time>
      </trkpt>
      <trkpt lat="45.99165" lon="4.9006">
        <ele>297</ele>
        <time>2018-07-03T09:46:39Z</time>
      </trkpt>
      <trkpt lat="45.99168" lon="4.90064">
        <ele>297</ele>
        <time>2018-07-03T09:46:40Z</time>
      </trkpt>
      <trkpt lat="45.99173" lon="4.90069">
        <ele>297</ele>
        <time>2018-07-03T09:46:41Z</time>
      </trkpt>
      <trkpt lat="45.99178" lon="4.90077">
        <ele>297</ele>
        <time>2018-07-03T09:46:43Z</time>
      </trkpt>
      <trkpt lat="45.9918" lon="4.90083">
        <ele>297</ele>
        <time>2018-07-03T09:46:44Z</time>
      </trkpt>
      <trkpt lat="45.99185" lon="4.90093">
        <ele>297</ele>
        <time>2018-07-03T09:46:46Z</time>
      </trkpt>
      <trkpt lat="45.99187" lon="4.90097">
        <ele>297</ele>
        <time>2018-07-03T09:46:47Z</time>
      </trkpt>
      <trkpt lat="45.99191" lon="4.90107">
        <ele>297</ele>
        <time>2018-07-03T09:46:49Z</time>
      </trkpt>
      <trkpt lat="45.99193" lon="4.90112">
        <ele>297</ele>
        <time>2018-07-03T09:46:50Z</time>
      </trkpt>
      <trkpt lat="45.99196" lon="4.90115">
        <ele>297</ele>
        <time>2018-07-03T09:46:51Z</time>
      </trkpt>
      <trkpt lat="45.992" lon="4.90121">
        <ele>297</ele>
        <time>2018-07-03T09:46:52Z</time>
      </trkpt>
      <trkpt lat="45.99205" lon="4.9013">
        <ele>297</ele>
        <time>2018-07-03T09:46:54Z</time>
      </trkpt>
      <trkpt lat="45.9921" lon="4.90135">
        <ele>297</ele>
        <time>2018-07-03T09:46:55Z</time>
      </trkpt>
      <trkpt lat="45.99217" lon="4.90138">
        <ele>297</ele>
        <time>2018-07-03T09:46:56Z</time>
      </trkpt>
      <trkpt lat="45.99221" lon="4.90143">
        <ele>297</ele>
        <time>2018-07-03T09:46:57Z</time>
      </trkpt>
      <trkpt lat="45.99226" lon="4.90148">
        <ele>297</ele>
        <time>2018-07-03T09:46:58Z</time>
      </trkpt>
      <trkpt lat="45.99229" lon="4.90152">
        <ele>297</ele>
        <time>2018-07-03T09:46:59Z</time>
      </trkpt>
      <trkpt lat="45.99234" lon="4.9016">
        <ele>297</ele>
        <time>2018-07-03T09:47:01Z</time>
      </trkpt>
      <trkpt lat="45.99236" lon="4.90166">
        <ele>297</ele>
        <time>2018-07-03T09:47:02Z</time>
      </trkpt>
      <trkpt lat="45.99242" lon="4.90173">
        <ele>297</ele>
        <time>2018-07-03T09:47:04Z</time>
      </trkpt>
      <trkpt lat="45.99246" lon="4.90178">
        <ele>297</ele>
        <time>2018-07-03T09:47:05Z</time>
      </trkpt>
      <trkpt lat="45.9925" lon="4.90184">
        <ele>297</ele>
        <time>2018-07-03T09:47:06Z</time>
      </trkpt>
      <trkpt lat="45.99253" lon="4.90188">
        <ele>298</ele>
        <time>2018-07-03T09:47:07Z</time>
      </trkpt>
      <trkpt lat="45.99257" lon="4.90196">
        <ele>298</ele>
        <time>2018-07-03T09:47:09Z</time>
      </trkpt>
      <trkpt lat="45.99262" lon="4.90201">
        <ele>298</ele>
        <time>2018-07-03T09:47:10Z</time>
      </trkpt>
      <trkpt lat="45.99267" lon="4.9021">
        <ele>298</ele>
        <time>2018-07-03T09:47:12Z</time>
      </trkpt>
      <trkpt lat="45.99272" lon="4.90213">
        <ele>298</ele>
        <time>2018-07-03T09:47:13Z</time>
      </trkpt>
      <trkpt lat="45.99277" lon="4.90223">
        <ele>298</ele>
        <time>2018-07-03T09:47:15Z</time>
      </trkpt>
      <trkpt lat="45.9928" lon="4.90227">
        <ele>298</ele>
        <time>2018-07-03T09:47:16Z</time>
      </trkpt>
      <trkpt lat="45.99285" lon="4.90233">
        <ele>298</ele>
        <time>2018-07-03T09:47:17Z</time>
      </trkpt>
      <trkpt lat="45.99293" lon="4.90237">
        <ele>298</ele>
        <time>2018-07-03T09:47:18Z</time>
      </trkpt>
      <trkpt lat="45.99299" lon="4.90245">
        <ele>298</ele>
        <time>2018-07-03T09:47:20Z</time>
      </trkpt>
      <trkpt lat="45.99302" lon="4.90249">
        <ele>298</ele>
        <time>2018-07-03T09:47:21Z</time>
      </trkpt>
      <trkpt lat="45.99304" lon="4.90257">
        <ele>299</ele>
        <time>2018-07-03T09:47:24Z</time>
      </trkpt>
      <trkpt lat="45.99307" lon="4.90267">
        <ele>299</ele>
        <time>2018-07-03T09:47:25Z</time>
      </trkpt>
      <trkpt lat="45.99308" lon="4.90279">
        <ele>299</ele>
        <time>2018-07-03T09:47:31Z</time>
      </trkpt>
      <trkpt lat="45.99308" lon="4.90282">
        <ele>299</ele>
        <time>2018-07-03T09:47:32Z</time>
      </trkpt>
      <trkpt lat="45.99309" lon="4.90288">
        <ele>299</ele>
        <time>2018-07-03T09:47:34Z</time>
      </trkpt>
      <trkpt lat="45.99314" lon="4.90296">
        <ele>299</ele>
        <time>2018-07-03T09:47:35Z</time>
      </trkpt>
      <trkpt lat="45.99318" lon="4.90297">
        <ele>299</ele>
        <time>2018-07-03T09:47:36Z</time>
      </trkpt>
      <trkpt lat="45.99324" lon="4.90297">
        <ele>299</ele>
        <time>2018-07-03T09:47:37Z</time>
      </trkpt>
      <trkpt lat="45.99331" lon="4.90292">
        <ele>299</ele>
        <time>2018-07-03T09:47:38Z</time>
      </trkpt>
      <trkpt lat="45.99337" lon="4.90293">
        <ele>300</ele>
        <time>2018-07-03T09:47:39Z</time>
      </trkpt>
      <trkpt lat="45.99341" lon="4.90293">
        <ele>300</ele>
        <time>2018-07-03T09:47:40Z</time>
      </trkpt>
      <trkpt lat="45.99346" lon="4.90293">
        <ele>300</ele>
        <time>2018-07-03T09:47:41Z</time>
      </trkpt>
      <trkpt lat="45.99351" lon="4.90295">
        <ele>300</ele>
        <time>2018-07-03T09:47:42Z</time>
      </trkpt>
      <trkpt lat="45.99356" lon="4.90294">
        <ele>300</ele>
        <time>2018-07-03T09:47:43Z</time>
      </trkpt>
      <trkpt lat="45.99361" lon="4.90296">
        <ele>300</ele>
        <time>2018-07-03T09:47:44Z</time>
      </trkpt>
      <trkpt lat="45.99367" lon="4.90299">
        <ele>300</ele>
        <time>2018-07-03T09:47:45Z</time>
      </trkpt>
      <trkpt lat="45.99375" lon="4.90299">
        <ele>300</ele>
        <time>2018-07-03T09:47:47Z</time>
      </trkpt>
      <trkpt lat="45.9938" lon="4.90299">
        <ele>300</ele>
        <time>2018-07-03T09:47:48Z</time>
      </trkpt>
      <trkpt lat="45.99388" lon="4.90301">
        <ele>300</ele>
        <time>2018-07-03T09:47:50Z</time>
      </trkpt>
      <trkpt lat="45.99393" lon="4.90302">
        <ele>300</ele>
        <time>2018-07-03T09:47:51Z</time>
      </trkpt>
      <trkpt lat="45.99397" lon="4.90304">
        <ele>300</ele>
        <time>2018-07-03T09:47:52Z</time>
      </trkpt>
      <trkpt lat="45.99402" lon="4.90304">
        <ele>300</ele>
        <time>2018-07-03T09:47:53Z</time>
      </trkpt>
      <trkpt lat="45.99411" lon="4.90306">
        <ele>300</ele>
        <time>2018-07-03T09:47:55Z</time>
      </trkpt>
      <trkpt lat="45.99419" lon="4.90305">
        <ele>300</ele>
        <time>2018-07-03T09:47:56Z</time>
      </trkpt>
      <trkpt lat="45.99424" lon="4.90305">
        <ele>300</ele>
        <time>2018-07-03T09:47:57Z</time>
      </trkpt>
      <trkpt lat="45.99429" lon="4.90306">
        <ele>300</ele>
        <time>2018-07-03T09:47:58Z</time>
      </trkpt>
      <trkpt lat="45.99434" lon="4.90306">
        <ele>300</ele>
        <time>2018-07-03T09:47:59Z</time>
      </trkpt>
      <trkpt lat="45.99441" lon="4.90307">
        <ele>300</ele>
        <time>2018-07-03T09:48:00Z</time>
      </trkpt>
      <trkpt lat="45.99445" lon="4.90308">
        <ele>300</ele>
        <time>2018-07-03T09:48:01Z</time>
      </trkpt>
      <trkpt lat="45.9945" lon="4.90306">
        <ele>300</ele>
        <time>2018-07-03T09:48:02Z</time>
      </trkpt>
      <trkpt lat="45.99458" lon="4.90307">
        <ele>300</ele>
        <time>2018-07-03T09:48:04Z</time>
      </trkpt>
      <trkpt lat="45.99462" lon="4.90308">
        <ele>300</ele>
        <time>2018-07-03T09:48:05Z</time>
      </trkpt>
      <trkpt lat="45.9947" lon="4.90309">
        <ele>300</ele>
        <time>2018-07-03T09:48:07Z</time>
      </trkpt>
      <trkpt lat="45.99475" lon="4.90309">
        <ele>300</ele>
        <time>2018-07-03T09:48:08Z</time>
      </trkpt>
      <trkpt lat="45.99481" lon="4.90309">
        <ele>300</ele>
        <time>2018-07-03T09:48:09Z</time>
      </trkpt>
      <trkpt lat="45.99485" lon="4.9031">
        <ele>300</ele>
        <time>2018-07-03T09:48:10Z</time>
      </trkpt>
      <trkpt lat="45.99492" lon="4.90314">
        <ele>300</ele>
        <time>2018-07-03T09:48:12Z</time>
      </trkpt>
      <trkpt lat="45.99494" lon="4.90314">
        <ele>300</ele>
        <time>2018-07-03T09:48:13Z</time>
      </trkpt>
      <trkpt lat="45.995" lon="4.90313">
        <ele>301</ele>
        <time>2018-07-03T09:48:14Z</time>
      </trkpt>
      <trkpt lat="45.99504" lon="4.90314">
        <ele>301</ele>
        <time>2018-07-03T09:48:15Z</time>
      </trkpt>
      <trkpt lat="45.99512" lon="4.90317">
        <ele>301</ele>
        <time>2018-07-03T09:48:17Z</time>
      </trkpt>
      <trkpt lat="45.99513" lon="4.90317">
        <ele>301</ele>
        <time>2018-07-03T09:48:18Z</time>
      </trkpt>
      <trkpt lat="45.99522" lon="4.90317">
        <ele>300</ele>
        <time>2018-07-03T09:48:20Z</time>
      </trkpt>
      <trkpt lat="45.99525" lon="4.90319">
        <ele>300</ele>
        <time>2018-07-03T09:48:21Z</time>
      </trkpt>
      <trkpt lat="45.99533" lon="4.90319">
        <ele>300</ele>
        <time>2018-07-03T09:48:23Z</time>
      </trkpt>
      <trkpt lat="45.99539" lon="4.90318">
        <ele>300</ele>
        <time>2018-07-03T09:48:24Z</time>
      </trkpt>
      <trkpt lat="45.99547" lon="4.90319">
        <ele>300</ele>
        <time>2018-07-03T09:48:26Z</time>
      </trkpt>
      <trkpt lat="45.99551" lon="4.90321">
        <ele>301</ele>
        <time>2018-07-03T09:48:27Z</time>
      </trkpt>
      <trkpt lat="45.99558" lon="4.90324">
        <ele>301</ele>
        <time>2018-07-03T09:48:29Z</time>
      </trkpt>
      <trkpt lat="45.99562" lon="4.90324">
        <ele>301</ele>
        <time>2018-07-03T09:48:30Z</time>
      </trkpt>
      <trkpt lat="45.9957" lon="4.90327">
        <ele>301</ele>
        <time>2018-07-03T09:48:32Z</time>
      </trkpt>
      <trkpt lat="45.99574" lon="4.90326">
        <ele>301</ele>
        <time>2018-07-03T09:48:33Z</time>
      </trkpt>
      <trkpt lat="45.99582" lon="4.90327">
        <ele>301</ele>
        <time>2018-07-03T09:48:35Z</time>
      </trkpt>
      <trkpt lat="45.99587" lon="4.90328">
        <ele>301</ele>
        <time>2018-07-03T09:48:36Z</time>
      </trkpt>
      <trkpt lat="45.99591" lon="4.90329">
        <ele>301</ele>
        <time>2018-07-03T09:48:37Z</time>
      </trkpt>
      <trkpt lat="45.99596" lon="4.90328">
        <ele>301</ele>
        <time>2018-07-03T09:48:38Z</time>
      </trkpt>
      <trkpt lat="45.99605" lon="4.90329">
        <ele>301</ele>
        <time>2018-07-03T09:48:40Z</time>
      </trkpt>
      <trkpt lat="45.99609" lon="4.90329">
        <ele>301</ele>
        <time>2018-07-03T09:48:41Z</time>
      </trkpt>
      <trkpt lat="45.99617" lon="4.9033">
        <ele>302</ele>
        <time>2018-07-03T09:48:44Z</time>
      </trkpt>
      <trkpt lat="45.99619" lon="4.9033">
        <ele>302</ele>
        <time>2018-07-03T09:48:45Z</time>
      </trkpt>
      <trkpt lat="45.99624" lon="4.9033">
        <ele>302</ele>
        <time>2018-07-03T09:48:47Z</time>
      </trkpt>
      <trkpt lat="45.99635" lon="4.9033">
        <ele>302</ele>
        <time>2018-07-03T09:48:48Z</time>
      </trkpt>
      <trkpt lat="45.99639" lon="4.90333">
        <ele>302</ele>
        <time>2018-07-03T09:48:51Z</time>
      </trkpt>
      <trkpt lat="45.99649" lon="4.90333">
        <ele>302</ele>
        <time>2018-07-03T09:48:52Z</time>
      </trkpt>
      <trkpt lat="45.99651" lon="4.90334">
        <ele>302</ele>
        <time>2018-07-03T09:48:53Z</time>
      </trkpt>
      <trkpt lat="45.99658" lon="4.90333">
        <ele>302</ele>
        <time>2018-07-03T09:48:54Z</time>
      </trkpt>
      <trkpt lat="45.99664" lon="4.90324">
        <ele>302</ele>
        <time>2018-07-03T09:49:00Z</time>
      </trkpt>
      <trkpt lat="45.99665" lon="4.90321">
        <ele>302</ele>
        <time>2018-07-03T09:49:01Z</time>
      </trkpt>
      <trkpt lat="45.99668" lon="4.9031">
        <ele>304</ele>
        <time>2018-07-03T09:49:04Z</time>
      </trkpt>
      <trkpt lat="45.99669" lon="4.90305">
        <ele>304</ele>
        <time>2018-07-03T09:49:05Z</time>
      </trkpt>
      <trkpt lat="45.99671" lon="4.90291">
        <ele>304</ele>
        <time>2018-07-03T09:49:06Z</time>
      </trkpt>
      <trkpt lat="45.99674" lon="4.9028">
        <ele>304</ele>
        <time>2018-07-03T09:49:08Z</time>
      </trkpt>
      <trkpt lat="45.99676" lon="4.90274">
        <ele>304</ele>
        <time>2018-07-03T09:49:09Z</time>
      </trkpt>
      <trkpt lat="45.99679" lon="4.90262">
        <ele>304</ele>
        <time>2018-07-03T09:49:11Z</time>
      </trkpt>
      <trkpt lat="45.9968" lon="4.90255">
        <ele>304</ele>
        <time>2018-07-03T09:49:12Z</time>
      </trkpt>
      <trkpt lat="45.99682" lon="4.90249">
        <ele>304</ele>
        <time>2018-07-03T09:49:13Z</time>
      </trkpt>
      <trkpt lat="45.99683" lon="4.90243">
        <ele>304</ele>
        <time>2018-07-03T09:49:14Z</time>
      </trkpt>
      <trkpt lat="45.99683" lon="4.90236">
        <ele>304</ele>
        <time>2018-07-03T09:49:15Z</time>
      </trkpt>
      <trkpt lat="45.99683" lon="4.90229">
        <ele>304</ele>
        <time>2018-07-03T09:49:16Z</time>
      </trkpt>
      <trkpt lat="45.99681" lon="4.90222">
        <ele>304</ele>
        <time>2018-07-03T09:49:17Z</time>
      </trkpt>
      <trkpt lat="45.99679" lon="4.90215">
        <ele>303</ele>
        <time>2018-07-03T09:49:18Z</time>
      </trkpt>
      <trkpt lat="45.99676" lon="4.90208">
        <ele>303</ele>
        <time>2018-07-03T09:49:19Z</time>
      </trkpt>
      <trkpt lat="45.99674" lon="4.902">
        <ele>303</ele>
        <time>2018-07-03T09:49:20Z</time>
      </trkpt>
      <trkpt lat="45.99674" lon="4.90193">
        <ele>303</ele>
        <time>2018-07-03T09:49:21Z</time>
      </trkpt>
      <trkpt lat="45.99672" lon="4.90184">
        <ele>302</ele>
        <time>2018-07-03T09:49:22Z</time>
      </trkpt>
      <trkpt lat="45.99668" lon="4.90175">
        <ele>302</ele>
        <time>2018-07-03T09:49:23Z</time>
      </trkpt>
      <trkpt lat="45.99666" lon="4.90166">
        <ele>301</ele>
        <time>2018-07-03T09:49:24Z</time>
      </trkpt>
      <trkpt lat="45.99661" lon="4.90158">
        <ele>300</ele>
        <time>2018-07-03T09:49:25Z</time>
      </trkpt>
      <trkpt lat="45.99656" lon="4.90148">
        <ele>300</ele>
        <time>2018-07-03T09:49:26Z</time>
      </trkpt>
      <trkpt lat="45.99653" lon="4.90139">
        <ele>300</ele>
        <time>2018-07-03T09:49:27Z</time>
      </trkpt>
      <trkpt lat="45.99653" lon="4.9013">
        <ele>299</ele>
        <time>2018-07-03T09:49:28Z</time>
      </trkpt>
      <trkpt lat="45.9965" lon="4.90122">
        <ele>299</ele>
        <time>2018-07-03T09:49:29Z</time>
      </trkpt>
      <trkpt lat="45.99651" lon="4.90113">
        <ele>299</ele>
        <time>2018-07-03T09:49:30Z</time>
      </trkpt>
      <trkpt lat="45.99646" lon="4.90104">
        <ele>299</ele>
        <time>2018-07-03T09:49:31Z</time>
      </trkpt>
      <trkpt lat="45.9964" lon="4.90096">
        <ele>299</ele>
        <time>2018-07-03T09:49:32Z</time>
      </trkpt>
      <trkpt lat="45.99634" lon="4.90085">
        <ele>298</ele>
        <time>2018-07-03T09:49:33Z</time>
      </trkpt>
      <trkpt lat="45.99631" lon="4.90078">
        <ele>297</ele>
        <time>2018-07-03T09:49:34Z</time>
      </trkpt>
      <trkpt lat="45.99629" lon="4.90072">
        <ele>297</ele>
        <time>2018-07-03T09:49:35Z</time>
      </trkpt>
      <trkpt lat="45.99626" lon="4.90066">
        <ele>297</ele>
        <time>2018-07-03T09:49:36Z</time>
      </trkpt>
      <trkpt lat="45.99622" lon="4.90059">
        <ele>297</ele>
        <time>2018-07-03T09:49:37Z</time>
      </trkpt>
      <trkpt lat="45.9962" lon="4.90054">
        <ele>297</ele>
        <time>2018-07-03T09:49:38Z</time>
      </trkpt>
      <trkpt lat="45.99615" lon="4.90048">
        <ele>297</ele>
        <time>2018-07-03T09:49:39Z</time>
      </trkpt>
      <trkpt lat="45.99615" lon="4.90042">
        <ele>296</ele>
        <time>2018-07-03T09:49:41Z</time>
      </trkpt>
      <trkpt lat="45.99614" lon="4.90033">
        <ele>296</ele>
        <time>2018-07-03T09:49:42Z</time>
      </trkpt>
      <trkpt lat="45.9961" lon="4.90021">
        <ele>296</ele>
        <time>2018-07-03T09:49:44Z</time>
      </trkpt>
      <trkpt lat="45.99606" lon="4.90015">
        <ele>296</ele>
        <time>2018-07-03T09:49:45Z</time>
      </trkpt>
      <trkpt lat="45.99604" lon="4.90005">
        <ele>296</ele>
        <time>2018-07-03T09:49:47Z</time>
      </trkpt>
      <trkpt lat="45.99605" lon="4.89999">
        <ele>295</ele>
        <time>2018-07-03T09:49:48Z</time>
      </trkpt>
      <trkpt lat="45.99603" lon="4.89988">
        <ele>294</ele>
        <time>2018-07-03T09:49:50Z</time>
      </trkpt>
      <trkpt lat="45.99603" lon="4.89982">
        <ele>294</ele>
        <time>2018-07-03T09:49:51Z</time>
      </trkpt>
      <trkpt lat="45.99601" lon="4.89971">
        <ele>294</ele>
        <time>2018-07-03T09:49:53Z</time>
      </trkpt>
      <trkpt lat="45.99601" lon="4.89965">
        <ele>294</ele>
        <time>2018-07-03T09:49:54Z</time>
      </trkpt>
      <trkpt lat="45.996" lon="4.89957">
        <ele>294</ele>
        <time>2018-07-03T09:49:55Z</time>
      </trkpt>
      <trkpt lat="45.99598" lon="4.8995">
        <ele>294</ele>
        <time>2018-07-03T09:49:56Z</time>
      </trkpt>
      <trkpt lat="45.99597" lon="4.89943">
        <ele>293</ele>
        <time>2018-07-03T09:49:57Z</time>
      </trkpt>
      <trkpt lat="45.99598" lon="4.89936">
        <ele>293</ele>
        <time>2018-07-03T09:49:58Z</time>
      </trkpt>
      <trkpt lat="45.99596" lon="4.89927">
        <ele>293</ele>
        <time>2018-07-03T09:49:59Z</time>
      </trkpt>
      <trkpt lat="45.99593" lon="4.89918">
        <ele>293</ele>
        <time>2018-07-03T09:50:00Z</time>
      </trkpt>
      <trkpt lat="45.99598" lon="4.89912">
        <ele>292</ele>
        <time>2018-07-03T09:50:01Z</time>
      </trkpt>
      <trkpt lat="45.99599" lon="4.89903">
        <ele>292</ele>
        <time>2018-07-03T09:50:02Z</time>
      </trkpt>
      <trkpt lat="45.996" lon="4.89896">
        <ele>292</ele>
        <time>2018-07-03T09:50:03Z</time>
      </trkpt>
      <trkpt lat="45.99603" lon="4.89887">
        <ele>292</ele>
        <time>2018-07-03T09:50:04Z</time>
      </trkpt>
      <trkpt lat="45.99604" lon="4.89879">
        <ele>292</ele>
        <time>2018-07-03T09:50:05Z</time>
      </trkpt>
      <trkpt lat="45.99606" lon="4.8987">
        <ele>293</ele>
        <time>2018-07-03T09:50:06Z</time>
      </trkpt>
      <trkpt lat="45.99604" lon="4.89861">
        <ele>293</ele>
        <time>2018-07-03T09:50:07Z</time>
      </trkpt>
      <trkpt lat="45.99605" lon="4.89853">
        <ele>293</ele>
        <time>2018-07-03T09:50:08Z</time>
      </trkpt>
      <trkpt lat="45.99604" lon="4.89845">
        <ele>293</ele>
        <time>2018-07-03T09:50:09Z</time>
      </trkpt>
      <trkpt lat="45.99608" lon="4.89838">
        <ele>293</ele>
        <time>2018-07-03T09:50:10Z</time>
      </trkpt>
      <trkpt lat="45.99608" lon="4.8983">
        <ele>292</ele>
        <time>2018-07-03T09:50:11Z</time>
      </trkpt>
      <trkpt lat="45.9961" lon="4.89823">
        <ele>292</ele>
        <time>2018-07-03T09:50:12Z</time>
      </trkpt>
      <trkpt lat="45.99607" lon="4.89815">
        <ele>292</ele>
        <time>2018-07-03T09:50:13Z</time>
      </trkpt>
      <trkpt lat="45.99608" lon="4.89808">
        <ele>292</ele>
        <time>2018-07-03T09:50:14Z</time>
      </trkpt>
      <trkpt lat="45.99609" lon="4.89799">
        <ele>292</ele>
        <time>2018-07-03T09:50:15Z</time>
      </trkpt>
      <trkpt lat="45.99607" lon="4.89792">
        <ele>292</ele>
        <time>2018-07-03T09:50:16Z</time>
      </trkpt>
      <trkpt lat="45.99606" lon="4.89781">
        <ele>292</ele>
        <time>2018-07-03T09:50:17Z</time>
      </trkpt>
      <trkpt lat="45.99608" lon="4.89771">
        <ele>292</ele>
        <time>2018-07-03T09:50:18Z</time>
      </trkpt>
      <trkpt lat="45.99609" lon="4.89761">
        <ele>292</ele>
        <time>2018-07-03T09:50:19Z</time>
      </trkpt>
      <trkpt lat="45.99605" lon="4.89751">
        <ele>292</ele>
        <time>2018-07-03T09:50:20Z</time>
      </trkpt>
      <trkpt lat="45.99606" lon="4.89742">
        <ele>292</ele>
        <time>2018-07-03T09:50:21Z</time>
      </trkpt>
      <trkpt lat="45.99607" lon="4.89732">
        <ele>292</ele>
        <time>2018-07-03T09:50:22Z</time>
      </trkpt>
      <trkpt lat="45.99608" lon="4.89724">
        <ele>292</ele>
        <time>2018-07-03T09:50:23Z</time>
      </trkpt>
      <trkpt lat="45.99609" lon="4.89716">
        <ele>292</ele>
        <time>2018-07-03T09:50:24Z</time>
      </trkpt>
      <trkpt lat="45.99608" lon="4.89708">
        <ele>291</ele>
        <time>2018-07-03T09:50:25Z</time>
      </trkpt>
      <trkpt lat="45.99609" lon="4.897">
        <ele>291</ele>
        <time>2018-07-03T09:50:26Z</time>
      </trkpt>
      <trkpt lat="45.99609" lon="4.89695">
        <ele>291</ele>
        <time>2018-07-03T09:50:27Z</time>
      </trkpt>
      <trkpt lat="45.99607" lon="4.89687">
        <ele>291</ele>
        <time>2018-07-03T09:50:28Z</time>
      </trkpt>
      <trkpt lat="45.99606" lon="4.89676">
        <ele>292</ele>
        <time>2018-07-03T09:50:29Z</time>
      </trkpt>
      <trkpt lat="45.99603" lon="4.89667">
        <ele>292</ele>
        <time>2018-07-03T09:50:30Z</time>
      </trkpt>
      <trkpt lat="45.99603" lon="4.89659">
        <ele>292</ele>
        <time>2018-07-03T09:50:31Z</time>
      </trkpt>
      <trkpt lat="45.99603" lon="4.89651">
        <ele>291</ele>
        <time>2018-07-03T09:50:32Z</time>
      </trkpt>
      <trkpt lat="45.99603" lon="4.89643">
        <ele>291</ele>
        <time>2018-07-03T09:50:33Z</time>
      </trkpt>
      <trkpt lat="45.99603" lon="4.89635">
        <ele>291</ele>
        <time>2018-07-03T09:50:34Z</time>
      </trkpt>
      <trkpt lat="45.99603" lon="4.89627">
        <ele>291</ele>
        <time>2018-07-03T09:50:35Z</time>
      </trkpt>
      <trkpt lat="45.99603" lon="4.89619">
        <ele>291</ele>
        <time>2018-07-03T09:50:36Z</time>
      </trkpt>
      <trkpt lat="45.99604" lon="4.89611">
        <ele>291</ele>
        <time>2018-07-03T09:50:37Z</time>
      </trkpt>
      <trkpt lat="45.99605" lon="4.89604">
        <ele>291</ele>
        <time>2018-07-03T09:50:38Z</time>
      </trkpt>
      <trkpt lat="45.99603" lon="4.89597">
        <ele>292</ele>
        <time>2018-07-03T09:50:39Z</time>
      </trkpt>
      <trkpt lat="45.99604" lon="4.89589">
        <ele>292</ele>
        <time>2018-07-03T09:50:40Z</time>
      </trkpt>
      <trkpt lat="45.99601" lon="4.89581">
        <ele>291</ele>
        <time>2018-07-03T09:50:41Z</time>
      </trkpt>
      <trkpt lat="45.99601" lon="4.89572">
        <ele>291</ele>
        <time>2018-07-03T09:50:42Z</time>
      </trkpt>
      <trkpt lat="45.99601" lon="4.89563">
        <ele>291</ele>
        <time>2018-07-03T09:50:43Z</time>
      </trkpt>
      <trkpt lat="45.996" lon="4.89554">
        <ele>291</ele>
        <time>2018-07-03T09:50:44Z</time>
      </trkpt>
      <trkpt lat="45.99599" lon="4.89545">
        <ele>291</ele>
        <time>2018-07-03T09:50:45Z</time>
      </trkpt>
      <trkpt lat="45.99599" lon="4.89537">
        <ele>291</ele>
        <time>2018-07-03T09:50:46Z</time>
      </trkpt>
      <trkpt lat="45.99598" lon="4.8953">
        <ele>291</ele>
        <time>2018-07-03T09:50:47Z</time>
      </trkpt>
      <trkpt lat="45.99598" lon="4.89522">
        <ele>291</ele>
        <time>2018-07-03T09:50:48Z</time>
      </trkpt>
      <trkpt lat="45.99598" lon="4.89514">
        <ele>290</ele>
        <time>2018-07-03T09:50:49Z</time>
      </trkpt>
      <trkpt lat="45.99596" lon="4.89507">
        <ele>290</ele>
        <time>2018-07-03T09:50:50Z</time>
      </trkpt>
      <trkpt lat="45.99596" lon="4.895">
        <ele>290</ele>
        <time>2018-07-03T09:50:51Z</time>
      </trkpt>
      <trkpt lat="45.99596" lon="4.89492">
        <ele>290</ele>
        <time>2018-07-03T09:50:52Z</time>
      </trkpt>
      <trkpt lat="45.99595" lon="4.89485">
        <ele>290</ele>
        <time>2018-07-03T09:50:53Z</time>
      </trkpt>
      <trkpt lat="45.99595" lon="4.89478">
        <ele>290</ele>
        <time>2018-07-03T09:50:54Z</time>
      </trkpt>
      <trkpt lat="45.99594" lon="4.8947">
        <ele>290</ele>
        <time>2018-07-03T09:50:55Z</time>
      </trkpt>
      <trkpt lat="45.99592" lon="4.89462">
        <ele>290</ele>
        <time>2018-07-03T09:50:56Z</time>
      </trkpt>
      <trkpt lat="45.99593" lon="4.89454">
        <ele>290</ele>
        <time>2018-07-03T09:50:57Z</time>
      </trkpt>
      <trkpt lat="45.99595" lon="4.89446">
        <ele>290</ele>
        <time>2018-07-03T09:50:58Z</time>
      </trkpt>
      <trkpt lat="45.99595" lon="4.89438">
        <ele>290</ele>
        <time>2018-07-03T09:50:59Z</time>
      </trkpt>
      <trkpt lat="45.99595" lon="4.8943">
        <ele>290</ele>
        <time>2018-07-03T09:51:00Z</time>
      </trkpt>
      <trkpt lat="45.99594" lon="4.89423">
        <ele>290</ele>
        <time>2018-07-03T09:51:01Z</time>
      </trkpt>
      <trkpt lat="45.99594" lon="4.89416">
        <ele>290</ele>
        <time>2018-07-03T09:51:02Z</time>
      </trkpt>
      <trkpt lat="45.99594" lon="4.89407">
        <ele>290</ele>
        <time>2018-07-03T09:51:03Z</time>
      </trkpt>
      <trkpt lat="45.99593" lon="4.89399">
        <ele>290</ele>
        <time>2018-07-03T09:51:04Z</time>
      </trkpt>
      <trkpt lat="45.99592" lon="4.89391">
        <ele>290</ele>
        <time>2018-07-03T09:51:05Z</time>
      </trkpt>
      <trkpt lat="45.99592" lon="4.89385">
        <ele>290</ele>
        <time>2018-07-03T09:51:06Z</time>
      </trkpt>
      <trkpt lat="45.9959" lon="4.89377">
        <ele>290</ele>
        <time>2018-07-03T09:51:07Z</time>
      </trkpt>
      <trkpt lat="45.9959" lon="4.89369">
        <ele>289</ele>
        <time>2018-07-03T09:51:08Z</time>
      </trkpt>
      <trkpt lat="45.99589" lon="4.89362">
        <ele>289</ele>
        <time>2018-07-03T09:51:09Z</time>
      </trkpt>
      <trkpt lat="45.99589" lon="4.89355">
        <ele>289</ele>
        <time>2018-07-03T09:51:10Z</time>
      </trkpt>
      <trkpt lat="45.99588" lon="4.89348">
        <ele>289</ele>
        <time>2018-07-03T09:51:11Z</time>
      </trkpt>
      <trkpt lat="45.99589" lon="4.89339">
        <ele>289</ele>
        <time>2018-07-03T09:51:12Z</time>
      </trkpt>
      <trkpt lat="45.99588" lon="4.89332">
        <ele>289</ele>
        <time>2018-07-03T09:51:13Z</time>
      </trkpt>
      <trkpt lat="45.99588" lon="4.89323">
        <ele>289</ele>
        <time>2018-07-03T09:51:14Z</time>
      </trkpt>
      <trkpt lat="45.99589" lon="4.89315">
        <ele>289</ele>
        <time>2018-07-03T09:51:15Z</time>
      </trkpt>
      <trkpt lat="45.99587" lon="4.89307">
        <ele>289</ele>
        <time>2018-07-03T09:51:16Z</time>
      </trkpt>
      <trkpt lat="45.99586" lon="4.893">
        <ele>289</ele>
        <time>2018-07-03T09:51:17Z</time>
      </trkpt>
      <trkpt lat="45.99585" lon="4.89292">
        <ele>289</ele>
        <time>2018-07-03T09:51:18Z</time>
      </trkpt>
      <trkpt lat="45.99584" lon="4.89285">
        <ele>289</ele>
        <time>2018-07-03T09:51:19Z</time>
      </trkpt>
      <trkpt lat="45.99585" lon="4.89278">
        <ele>289</ele>
        <time>2018-07-03T09:51:20Z</time>
      </trkpt>
      <trkpt lat="45.99584" lon="4.8927">
        <ele>288</ele>
        <time>2018-07-03T09:51:21Z</time>
      </trkpt>
      <trkpt lat="45.99583" lon="4.89262">
        <ele>288</ele>
        <time>2018-07-03T09:51:22Z</time>
      </trkpt>
      <trkpt lat="45.99584" lon="4.89254">
        <ele>288</ele>
        <time>2018-07-03T09:51:23Z</time>
      </trkpt>
      <trkpt lat="45.99583" lon="4.89246">
        <ele>288</ele>
        <time>2018-07-03T09:51:24Z</time>
      </trkpt>
      <trkpt lat="45.99583" lon="4.89237">
        <ele>288</ele>
        <time>2018-07-03T09:51:25Z</time>
      </trkpt>
      <trkpt lat="45.99582" lon="4.89229">
        <ele>288</ele>
        <time>2018-07-03T09:51:26Z</time>
      </trkpt>
      <trkpt lat="45.9958" lon="4.8922">
        <ele>288</ele>
        <time>2018-07-03T09:51:27Z</time>
      </trkpt>
      <trkpt lat="45.99579" lon="4.89212">
        <ele>288</ele>
        <time>2018-07-03T09:51:28Z</time>
      </trkpt>
      <trkpt lat="45.99578" lon="4.89205">
        <ele>288</ele>
        <time>2018-07-03T09:51:29Z</time>
      </trkpt>
      <trkpt lat="45.99577" lon="4.89197">
        <ele>288</ele>
        <time>2018-07-03T09:51:30Z</time>
      </trkpt>
      <trkpt lat="45.99576" lon="4.89189">
        <ele>288</ele>
        <time>2018-07-03T09:51:31Z</time>
      </trkpt>
      <trkpt lat="45.99576" lon="4.89182">
        <ele>288</ele>
        <time>2018-07-03T09:51:32Z</time>
      </trkpt>
      <trkpt lat="45.99575" lon="4.89175">
        <ele>288</ele>
        <time>2018-07-03T09:51:33Z</time>
      </trkpt>
      <trkpt lat="45.99574" lon="4.89167">
        <ele>288</ele>
        <time>2018-07-03T09:51:34Z</time>
      </trkpt>
      <trkpt lat="45.99574" lon="4.89159">
        <ele>288</ele>
        <time>2018-07-03T09:51:35Z</time>
      </trkpt>
      <trkpt lat="45.99574" lon="4.89152">
        <ele>289</ele>
        <time>2018-07-03T09:51:36Z</time>
      </trkpt>
      <trkpt lat="45.99575" lon="4.89145">
        <ele>289</ele>
        <time>2018-07-03T09:51:37Z</time>
      </trkpt>
      <trkpt lat="45.99576" lon="4.89139">
        <ele>289</ele>
        <time>2018-07-03T09:51:38Z</time>
      </trkpt>
      <trkpt lat="45.99575" lon="4.89132">
        <ele>289</ele>
        <time>2018-07-03T09:51:39Z</time>
      </trkpt>
      <trkpt lat="45.99574" lon="4.89125">
        <ele>289</ele>
        <time>2018-07-03T09:51:40Z</time>
      </trkpt>
      <trkpt lat="45.99573" lon="4.89117">
        <ele>289</ele>
        <time>2018-07-03T09:51:41Z</time>
      </trkpt>
      <trkpt lat="45.99572" lon="4.8911">
        <ele>289</ele>
        <time>2018-07-03T09:51:42Z</time>
      </trkpt>
      <trkpt lat="45.99574" lon="4.89098">
        <ele>289</ele>
        <time>2018-07-03T09:51:46Z</time>
      </trkpt>
      <trkpt lat="45.99575" lon="4.89096">
        <ele>289</ele>
        <time>2018-07-03T09:51:47Z</time>
      </trkpt>
      <trkpt lat="45.99577" lon="4.89091">
        <ele>289</ele>
        <time>2018-07-03T09:51:57Z</time>
      </trkpt>
      <trkpt lat="45.99577" lon="4.89091">
        <ele>289</ele>
        <time>2018-07-03T09:51:58Z</time>
      </trkpt>
      <trkpt lat="45.99575" lon="4.89094">
        <ele>289</ele>
        <time>2018-07-03T09:52:56Z</time>
      </trkpt>
      <trkpt lat="45.99575" lon="4.89093">
        <ele>289</ele>
        <time>2018-07-03T09:52:57Z</time>
      </trkpt>
      <trkpt lat="45.99576" lon="4.89083">
        <ele>289</ele>
        <time>2018-07-03T09:53:01Z</time>
      </trkpt>
      <trkpt lat="45.99578" lon="4.89072">
        <ele>289</ele>
        <time>2018-07-03T09:53:02Z</time>
      </trkpt>
      <trkpt lat="45.99579" lon="4.89066">
        <ele>289</ele>
        <time>2018-07-03T09:53:04Z</time>
      </trkpt>
      <trkpt lat="45.99579" lon="4.89051">
        <ele>288</ele>
        <time>2018-07-03T09:53:05Z</time>
      </trkpt>
      <trkpt lat="45.99581" lon="4.89044">
        <ele>288</ele>
        <time>2018-07-03T09:53:06Z</time>
      </trkpt>
      <trkpt lat="45.99581" lon="4.89037">
        <ele>288</ele>
        <time>2018-07-03T09:53:07Z</time>
      </trkpt>
      <trkpt lat="45.99581" lon="4.89028">
        <ele>288</ele>
        <time>2018-07-03T09:53:08Z</time>
      </trkpt>
      <trkpt lat="45.99581" lon="4.89022">
        <ele>288</ele>
        <time>2018-07-03T09:53:09Z</time>
      </trkpt>
      <trkpt lat="45.99581" lon="4.89015">
        <ele>288</ele>
        <time>2018-07-03T09:53:10Z</time>
      </trkpt>
      <trkpt lat="45.99581" lon="4.89006">
        <ele>288</ele>
        <time>2018-07-03T09:53:11Z</time>
      </trkpt>
      <trkpt lat="45.99582" lon="4.88994">
        <ele>288</ele>
        <time>2018-07-03T09:53:13Z</time>
      </trkpt>
      <trkpt lat="45.99585" lon="4.88988">
        <ele>288</ele>
        <time>2018-07-03T09:53:14Z</time>
      </trkpt>
      <trkpt lat="45.99585" lon="4.88979">
        <ele>288</ele>
        <time>2018-07-03T09:53:15Z</time>
      </trkpt>
      <trkpt lat="45.99586" lon="4.88972">
        <ele>288</ele>
        <time>2018-07-03T09:53:16Z</time>
      </trkpt>
      <trkpt lat="45.99586" lon="4.88964">
        <ele>288</ele>
        <time>2018-07-03T09:53:17Z</time>
      </trkpt>
      <trkpt lat="45.99585" lon="4.88956">
        <ele>287</ele>
        <time>2018-07-03T09:53:18Z</time>
      </trkpt>
      <trkpt lat="45.99584" lon="4.88947">
        <ele>287</ele>
        <time>2018-07-03T09:53:19Z</time>
      </trkpt>
      <trkpt lat="45.99584" lon="4.8894">
        <ele>287</ele>
        <time>2018-07-03T09:53:20Z</time>
      </trkpt>
      <trkpt lat="45.99584" lon="4.88932">
        <ele>287</ele>
        <time>2018-07-03T09:53:21Z</time>
      </trkpt>
      <trkpt lat="45.99583" lon="4.88927">
        <ele>287</ele>
        <time>2018-07-03T09:53:22Z</time>
      </trkpt>
      <trkpt lat="45.99583" lon="4.8892">
        <ele>287</ele>
        <time>2018-07-03T09:53:23Z</time>
      </trkpt>
      <trkpt lat="45.99583" lon="4.88913">
        <ele>287</ele>
        <time>2018-07-03T09:53:24Z</time>
      </trkpt>
      <trkpt lat="45.99582" lon="4.88904">
        <ele>287</ele>
        <time>2018-07-03T09:53:25Z</time>
      </trkpt>
      <trkpt lat="45.99581" lon="4.88897">
        <ele>287</ele>
        <time>2018-07-03T09:53:26Z</time>
      </trkpt>
      <trkpt lat="45.99581" lon="4.88889">
        <ele>287</ele>
        <time>2018-07-03T09:53:27Z</time>
      </trkpt>
      <trkpt lat="45.9958" lon="4.88878">
        <ele>287</ele>
        <time>2018-07-03T09:53:28Z</time>
      </trkpt>
      <trkpt lat="45.9958" lon="4.8887">
        <ele>287</ele>
        <time>2018-07-03T09:53:29Z</time>
      </trkpt>
      <trkpt lat="45.99581" lon="4.88861">
        <ele>287</ele>
        <time>2018-07-03T09:53:30Z</time>
      </trkpt>
      <trkpt lat="45.99579" lon="4.88852">
        <ele>287</ele>
        <time>2018-07-03T09:53:31Z</time>
      </trkpt>
      <trkpt lat="45.99577" lon="4.88842">
        <ele>287</ele>
        <time>2018-07-03T09:53:32Z</time>
      </trkpt>
      <trkpt lat="45.99575" lon="4.88833">
        <ele>287</ele>
        <time>2018-07-03T09:53:33Z</time>
      </trkpt>
      <trkpt lat="45.99574" lon="4.88826">
        <ele>287</ele>
        <time>2018-07-03T09:53:34Z</time>
      </trkpt>
      <trkpt lat="45.99574" lon="4.88816">
        <ele>287</ele>
        <time>2018-07-03T09:53:35Z</time>
      </trkpt>
      <trkpt lat="45.99573" lon="4.88808">
        <ele>287</ele>
        <time>2018-07-03T09:53:36Z</time>
      </trkpt>
      <trkpt lat="45.99573" lon="4.888">
        <ele>287</ele>
        <time>2018-07-03T09:53:37Z</time>
      </trkpt>
      <trkpt lat="45.99572" lon="4.88793">
        <ele>287</ele>
        <time>2018-07-03T09:53:38Z</time>
      </trkpt>
      <trkpt lat="45.99571" lon="4.88785">
        <ele>287</ele>
        <time>2018-07-03T09:53:39Z</time>
      </trkpt>
      <trkpt lat="45.9957" lon="4.88777">
        <ele>287</ele>
        <time>2018-07-03T09:53:40Z</time>
      </trkpt>
      <trkpt lat="45.9957" lon="4.88768">
        <ele>287</ele>
        <time>2018-07-03T09:53:41Z</time>
      </trkpt>
      <trkpt lat="45.99566" lon="4.88759">
        <ele>287</ele>
        <time>2018-07-03T09:53:42Z</time>
      </trkpt>
      <trkpt lat="45.99563" lon="4.88749">
        <ele>287</ele>
        <time>2018-07-03T09:53:43Z</time>
      </trkpt>
      <trkpt lat="45.99563" lon="4.88741">
        <ele>287</ele>
        <time>2018-07-03T09:53:44Z</time>
      </trkpt>
      <trkpt lat="45.99561" lon="4.88734">
        <ele>287</ele>
        <time>2018-07-03T09:53:45Z</time>
      </trkpt>
      <trkpt lat="45.9956" lon="4.88726">
        <ele>286</ele>
        <time>2018-07-03T09:53:46Z</time>
      </trkpt>
      <trkpt lat="45.99557" lon="4.88718">
        <ele>286</ele>
        <time>2018-07-03T09:53:47Z</time>
      </trkpt>
      <trkpt lat="45.99556" lon="4.8871">
        <ele>286</ele>
        <time>2018-07-03T09:53:48Z</time>
      </trkpt>
      <trkpt lat="45.99555" lon="4.88698">
        <ele>286</ele>
        <time>2018-07-03T09:53:50Z</time>
      </trkpt>
      <trkpt lat="45.99555" lon="4.8869">
        <ele>286</ele>
        <time>2018-07-03T09:53:51Z</time>
      </trkpt>
      <trkpt lat="45.99554" lon="4.88682">
        <ele>286</ele>
        <time>2018-07-03T09:53:52Z</time>
      </trkpt>
      <trkpt lat="45.99552" lon="4.88674">
        <ele>286</ele>
        <time>2018-07-03T09:53:53Z</time>
      </trkpt>
      <trkpt lat="45.9955" lon="4.88669">
        <ele>286</ele>
        <time>2018-07-03T09:53:54Z</time>
      </trkpt>
      <trkpt lat="45.99548" lon="4.88659">
        <ele>286</ele>
        <time>2018-07-03T09:53:55Z</time>
      </trkpt>
      <trkpt lat="45.99549" lon="4.88651">
        <ele>286</ele>
        <time>2018-07-03T09:53:56Z</time>
      </trkpt>
      <trkpt lat="45.99547" lon="4.88641">
        <ele>286</ele>
        <time>2018-07-03T09:53:57Z</time>
      </trkpt>
      <trkpt lat="45.99549" lon="4.88631">
        <ele>286</ele>
        <time>2018-07-03T09:53:58Z</time>
      </trkpt>
      <trkpt lat="45.99544" lon="4.88621">
        <ele>286</ele>
        <time>2018-07-03T09:53:59Z</time>
      </trkpt>
      <trkpt lat="45.99543" lon="4.88612">
        <ele>286</ele>
        <time>2018-07-03T09:54:00Z</time>
      </trkpt>
      <trkpt lat="45.99544" lon="4.88603">
        <ele>286</ele>
        <time>2018-07-03T09:54:01Z</time>
      </trkpt>
      <trkpt lat="45.99545" lon="4.88594">
        <ele>286</ele>
        <time>2018-07-03T09:54:02Z</time>
      </trkpt>
      <trkpt lat="45.99544" lon="4.88586">
        <ele>286</ele>
        <time>2018-07-03T09:54:03Z</time>
      </trkpt>
      <trkpt lat="45.99543" lon="4.88579">
        <ele>286</ele>
        <time>2018-07-03T09:54:04Z</time>
      </trkpt>
      <trkpt lat="45.9954" lon="4.8857">
        <ele>285</ele>
        <time>2018-07-03T09:54:05Z</time>
      </trkpt>
      <trkpt lat="45.99538" lon="4.88562">
        <ele>285</ele>
        <time>2018-07-03T09:54:06Z</time>
      </trkpt>
      <trkpt lat="45.99535" lon="4.88553">
        <ele>285</ele>
        <time>2018-07-03T09:54:07Z</time>
      </trkpt>
      <trkpt lat="45.99533" lon="4.88547">
        <ele>285</ele>
        <time>2018-07-03T09:54:08Z</time>
      </trkpt>
      <trkpt lat="45.9953" lon="4.8854">
        <ele>285</ele>
        <time>2018-07-03T09:54:09Z</time>
      </trkpt>
      <trkpt lat="45.99526" lon="4.88534">
        <ele>285</ele>
        <time>2018-07-03T09:54:10Z</time>
      </trkpt>
      <trkpt lat="45.99523" lon="4.88527">
        <ele>285</ele>
        <time>2018-07-03T09:54:11Z</time>
      </trkpt>
      <trkpt lat="45.9952" lon="4.88521">
        <ele>285</ele>
        <time>2018-07-03T09:54:12Z</time>
      </trkpt>
      <trkpt lat="45.99518" lon="4.88515">
        <ele>285</ele>
        <time>2018-07-03T09:54:13Z</time>
      </trkpt>
      <trkpt lat="45.99516" lon="4.88509">
        <ele>285</ele>
        <time>2018-07-03T09:54:14Z</time>
      </trkpt>
      <trkpt lat="45.99511" lon="4.88503">
        <ele>284</ele>
        <time>2018-07-03T09:54:15Z</time>
      </trkpt>
      <trkpt lat="45.99508" lon="4.88498">
        <ele>284</ele>
        <time>2018-07-03T09:54:16Z</time>
      </trkpt>
      <trkpt lat="45.99506" lon="4.88491">
        <ele>284</ele>
        <time>2018-07-03T09:54:17Z</time>
      </trkpt>
      <trkpt lat="45.99501" lon="4.88485">
        <ele>284</ele>
        <time>2018-07-03T09:54:18Z</time>
      </trkpt>
      <trkpt lat="45.99498" lon="4.88478">
        <ele>284</ele>
        <time>2018-07-03T09:54:19Z</time>
      </trkpt>
      <trkpt lat="45.99494" lon="4.88472">
        <ele>284</ele>
        <time>2018-07-03T09:54:20Z</time>
      </trkpt>
      <trkpt lat="45.9949" lon="4.88464">
        <ele>284</ele>
        <time>2018-07-03T09:54:21Z</time>
      </trkpt>
      <trkpt lat="45.99487" lon="4.88457">
        <ele>284</ele>
        <time>2018-07-03T09:54:22Z</time>
      </trkpt>
      <trkpt lat="45.99483" lon="4.88451">
        <ele>284</ele>
        <time>2018-07-03T09:54:23Z</time>
      </trkpt>
      <trkpt lat="45.99479" lon="4.88444">
        <ele>284</ele>
        <time>2018-07-03T09:54:24Z</time>
      </trkpt>
      <trkpt lat="45.99475" lon="4.88437">
        <ele>284</ele>
        <time>2018-07-03T09:54:25Z</time>
      </trkpt>
      <trkpt lat="45.9947" lon="4.88432">
        <ele>284</ele>
        <time>2018-07-03T09:54:26Z</time>
      </trkpt>
      <trkpt lat="45.99466" lon="4.88426">
        <ele>284</ele>
        <time>2018-07-03T09:54:27Z</time>
      </trkpt>
      <trkpt lat="45.9946" lon="4.88422">
        <ele>284</ele>
        <time>2018-07-03T09:54:28Z</time>
      </trkpt>
      <trkpt lat="45.99455" lon="4.88418">
        <ele>283</ele>
        <time>2018-07-03T09:54:29Z</time>
      </trkpt>
      <trkpt lat="45.99451" lon="4.88414">
        <ele>283</ele>
        <time>2018-07-03T09:54:30Z</time>
      </trkpt>
      <trkpt lat="45.99446" lon="4.8841">
        <ele>283</ele>
        <time>2018-07-03T09:54:31Z</time>
      </trkpt>
      <trkpt lat="45.99442" lon="4.88405">
        <ele>283</ele>
        <time>2018-07-03T09:54:32Z</time>
      </trkpt>
      <trkpt lat="45.99438" lon="4.88399">
        <ele>283</ele>
        <time>2018-07-03T09:54:33Z</time>
      </trkpt>
      <trkpt lat="45.99435" lon="4.88392">
        <ele>283</ele>
        <time>2018-07-03T09:54:34Z</time>
      </trkpt>
      <trkpt lat="45.99431" lon="4.88385">
        <ele>283</ele>
        <time>2018-07-03T09:54:35Z</time>
      </trkpt>
      <trkpt lat="45.99427" lon="4.88377">
        <ele>283</ele>
        <time>2018-07-03T09:54:36Z</time>
      </trkpt>
      <trkpt lat="45.99424" lon="4.88369">
        <ele>283</ele>
        <time>2018-07-03T09:54:37Z</time>
      </trkpt>
      <trkpt lat="45.99421" lon="4.88362">
        <ele>283</ele>
        <time>2018-07-03T09:54:38Z</time>
      </trkpt>
      <trkpt lat="45.99419" lon="4.88355">
        <ele>283</ele>
        <time>2018-07-03T09:54:39Z</time>
      </trkpt>
      <trkpt lat="45.99417" lon="4.88347">
        <ele>282</ele>
        <time>2018-07-03T09:54:40Z</time>
      </trkpt>
      <trkpt lat="45.99414" lon="4.8834">
        <ele>282</ele>
        <time>2018-07-03T09:54:41Z</time>
      </trkpt>
      <trkpt lat="45.99411" lon="4.88332">
        <ele>282</ele>
        <time>2018-07-03T09:54:42Z</time>
      </trkpt>
      <trkpt lat="45.99408" lon="4.88325">
        <ele>283</ele>
        <time>2018-07-03T09:54:43Z</time>
      </trkpt>
      <trkpt lat="45.99406" lon="4.88318">
        <ele>283</ele>
        <time>2018-07-03T09:54:44Z</time>
      </trkpt>
      <trkpt lat="45.99401" lon="4.8831">
        <ele>283</ele>
        <time>2018-07-03T09:54:45Z</time>
      </trkpt>
      <trkpt lat="45.99399" lon="4.88302">
        <ele>284</ele>
        <time>2018-07-03T09:54:46Z</time>
      </trkpt>
      <trkpt lat="45.99396" lon="4.88294">
        <ele>284</ele>
        <time>2018-07-03T09:54:47Z</time>
      </trkpt>
      <trkpt lat="45.99391" lon="4.88285">
        <ele>284</ele>
        <time>2018-07-03T09:54:48Z</time>
      </trkpt>
      <trkpt lat="45.99388" lon="4.88277">
        <ele>284</ele>
        <time>2018-07-03T09:54:49Z</time>
      </trkpt>
      <trkpt lat="45.99384" lon="4.88269">
        <ele>285</ele>
        <time>2018-07-03T09:54:50Z</time>
      </trkpt>
      <trkpt lat="45.99384" lon="4.88262">
        <ele>285</ele>
        <time>2018-07-03T09:54:51Z</time>
      </trkpt>
      <trkpt lat="45.9938" lon="4.88254">
        <ele>285</ele>
        <time>2018-07-03T09:54:52Z</time>
      </trkpt>
      <trkpt lat="45.99378" lon="4.88246">
        <ele>287</ele>
        <time>2018-07-03T09:54:53Z</time>
      </trkpt>
      <trkpt lat="45.99372" lon="4.8824">
        <ele>287</ele>
        <time>2018-07-03T09:54:54Z</time>
      </trkpt>
      <trkpt lat="45.99366" lon="4.88237">
        <ele>287</ele>
        <time>2018-07-03T09:54:55Z</time>
      </trkpt>
      <trkpt lat="45.9936" lon="4.88231">
        <ele>287</ele>
        <time>2018-07-03T09:54:56Z</time>
      </trkpt>
      <trkpt lat="45.99351" lon="4.88223">
        <ele>287</ele>
        <time>2018-07-03T09:54:57Z</time>
      </trkpt>
      <trkpt lat="45.99346" lon="4.88218">
        <ele>287</ele>
        <time>2018-07-03T09:54:58Z</time>
      </trkpt>
      <trkpt lat="45.9934" lon="4.88213">
        <ele>287</ele>
        <time>2018-07-03T09:54:59Z</time>
      </trkpt>
      <trkpt lat="45.99334" lon="4.88208">
        <ele>287</ele>
        <time>2018-07-03T09:55:00Z</time>
      </trkpt>
      <trkpt lat="45.99329" lon="4.88201">
        <ele>285</ele>
        <time>2018-07-03T09:55:01Z</time>
      </trkpt>
      <trkpt lat="45.99323" lon="4.88196">
        <ele>285</ele>
        <time>2018-07-03T09:55:02Z</time>
      </trkpt>
      <trkpt lat="45.99315" lon="4.8819">
        <ele>285</ele>
        <time>2018-07-03T09:55:03Z</time>
      </trkpt>
      <trkpt lat="45.9931" lon="4.88184">
        <ele>285</ele>
        <time>2018-07-03T09:55:04Z</time>
      </trkpt>
      <trkpt lat="45.99303" lon="4.88178">
        <ele>285</ele>
        <time>2018-07-03T09:55:05Z</time>
      </trkpt>
      <trkpt lat="45.99302" lon="4.88173">
        <ele>285</ele>
        <time>2018-07-03T09:55:06Z</time>
      </trkpt>
      <trkpt lat="45.99295" lon="4.88167">
        <ele>284</ele>
        <time>2018-07-03T09:55:07Z</time>
      </trkpt>
      <trkpt lat="45.99286" lon="4.88161">
        <ele>284</ele>
        <time>2018-07-03T09:55:08Z</time>
      </trkpt>
      <trkpt lat="45.99282" lon="4.88156">
        <ele>284</ele>
        <time>2018-07-03T09:55:09Z</time>
      </trkpt>
      <trkpt lat="45.99275" lon="4.8815">
        <ele>283</ele>
        <time>2018-07-03T09:55:10Z</time>
      </trkpt>
      <trkpt lat="45.99269" lon="4.88145">
        <ele>283</ele>
        <time>2018-07-03T09:55:11Z</time>
      </trkpt>
      <trkpt lat="45.9926" lon="4.8814">
        <ele>283</ele>
        <time>2018-07-03T09:55:12Z</time>
      </trkpt>
      <trkpt lat="45.99255" lon="4.88136">
        <ele>283</ele>
        <time>2018-07-03T09:55:13Z</time>
      </trkpt>
      <trkpt lat="45.99252" lon="4.88131">
        <ele>283</ele>
        <time>2018-07-03T09:55:14Z</time>
      </trkpt>
      <trkpt lat="45.99245" lon="4.88127">
        <ele>280</ele>
        <time>2018-07-03T09:55:15Z</time>
      </trkpt>
      <trkpt lat="45.9924" lon="4.88122">
        <ele>280</ele>
        <time>2018-07-03T09:55:16Z</time>
      </trkpt>
      <trkpt lat="45.99235" lon="4.88118">
        <ele>280</ele>
        <time>2018-07-03T09:55:17Z</time>
      </trkpt>
      <trkpt lat="45.9923" lon="4.88113">
        <ele>280</ele>
        <time>2018-07-03T09:55:18Z</time>
      </trkpt>
      <trkpt lat="45.99225" lon="4.88108">
        <ele>280</ele>
        <time>2018-07-03T09:55:19Z</time>
      </trkpt>
      <trkpt lat="45.99218" lon="4.88103">
        <ele>280</ele>
        <time>2018-07-03T09:55:20Z</time>
      </trkpt>
      <trkpt lat="45.99212" lon="4.88098">
        <ele>280</ele>
        <time>2018-07-03T09:55:21Z</time>
      </trkpt>
      <trkpt lat="45.99203" lon="4.88093">
        <ele>280</ele>
        <time>2018-07-03T09:55:22Z</time>
      </trkpt>
      <trkpt lat="45.99197" lon="4.88087">
        <ele>280</ele>
        <time>2018-07-03T09:55:23Z</time>
      </trkpt>
      <trkpt lat="45.99191" lon="4.88082">
        <ele>280</ele>
        <time>2018-07-03T09:55:24Z</time>
      </trkpt>
      <trkpt lat="45.99186" lon="4.88076">
        <ele>279</ele>
        <time>2018-07-03T09:55:25Z</time>
      </trkpt>
      <trkpt lat="45.99179" lon="4.8807">
        <ele>279</ele>
        <time>2018-07-03T09:55:26Z</time>
      </trkpt>
      <trkpt lat="45.99172" lon="4.88064">
        <ele>279</ele>
        <time>2018-07-03T09:55:27Z</time>
      </trkpt>
      <trkpt lat="45.99165" lon="4.88058">
        <ele>279</ele>
        <time>2018-07-03T09:55:28Z</time>
      </trkpt>
      <trkpt lat="45.99158" lon="4.88053">
        <ele>279</ele>
        <time>2018-07-03T09:55:29Z</time>
      </trkpt>
      <trkpt lat="45.99151" lon="4.88048">
        <ele>279</ele>
        <time>2018-07-03T09:55:30Z</time>
      </trkpt>
      <trkpt lat="45.99144" lon="4.88044">
        <ele>279</ele>
        <time>2018-07-03T09:55:31Z</time>
      </trkpt>
      <trkpt lat="45.99137" lon="4.88039">
        <ele>279</ele>
        <time>2018-07-03T09:55:32Z</time>
      </trkpt>
      <trkpt lat="45.99131" lon="4.88034">
        <ele>279</ele>
        <time>2018-07-03T09:55:33Z</time>
      </trkpt>
      <trkpt lat="45.99124" lon="4.8803">
        <ele>278</ele>
        <time>2018-07-03T09:55:34Z</time>
      </trkpt>
      <trkpt lat="45.99119" lon="4.88025">
        <ele>278</ele>
        <time>2018-07-03T09:55:35Z</time>
      </trkpt>
      <trkpt lat="45.99112" lon="4.88022">
        <ele>278</ele>
        <time>2018-07-03T09:55:36Z</time>
      </trkpt>
      <trkpt lat="45.99104" lon="4.88018">
        <ele>278</ele>
        <time>2018-07-03T09:55:37Z</time>
      </trkpt>
      <trkpt lat="45.99097" lon="4.88013">
        <ele>278</ele>
        <time>2018-07-03T09:55:38Z</time>
      </trkpt>
      <trkpt lat="45.99091" lon="4.88009">
        <ele>278</ele>
        <time>2018-07-03T09:55:39Z</time>
      </trkpt>
      <trkpt lat="45.99084" lon="4.88005">
        <ele>278</ele>
        <time>2018-07-03T09:55:40Z</time>
      </trkpt>
      <trkpt lat="45.99077" lon="4.88001">
        <ele>278</ele>
        <time>2018-07-03T09:55:41Z</time>
      </trkpt>
      <trkpt lat="45.99069" lon="4.87996">
        <ele>277</ele>
        <time>2018-07-03T09:55:42Z</time>
      </trkpt>
      <trkpt lat="45.99062" lon="4.87992">
        <ele>277</ele>
        <time>2018-07-03T09:55:43Z</time>
      </trkpt>
      <trkpt lat="45.99054" lon="4.87988">
        <ele>277</ele>
        <time>2018-07-03T09:55:44Z</time>
      </trkpt>
      <trkpt lat="45.99047" lon="4.87983">
        <ele>277</ele>
        <time>2018-07-03T09:55:45Z</time>
      </trkpt>
      <trkpt lat="45.99039" lon="4.8798">
        <ele>276</ele>
        <time>2018-07-03T09:55:46Z</time>
      </trkpt>
      <trkpt lat="45.99032" lon="4.87975">
        <ele>276</ele>
        <time>2018-07-03T09:55:47Z</time>
      </trkpt>
      <trkpt lat="45.99025" lon="4.8797">
        <ele>276</ele>
        <time>2018-07-03T09:55:48Z</time>
      </trkpt>
      <trkpt lat="45.99016" lon="4.87964">
        <ele>276</ele>
        <time>2018-07-03T09:55:49Z</time>
      </trkpt>
      <trkpt lat="45.9901" lon="4.8796">
        <ele>276</ele>
        <time>2018-07-03T09:55:50Z</time>
      </trkpt>
      <trkpt lat="45.99002" lon="4.87955">
        <ele>276</ele>
        <time>2018-07-03T09:55:51Z</time>
      </trkpt>
      <trkpt lat="45.98994" lon="4.87953">
        <ele>274</ele>
        <time>2018-07-03T09:55:52Z</time>
      </trkpt>
      <trkpt lat="45.98987" lon="4.8795">
        <ele>274</ele>
        <time>2018-07-03T09:55:53Z</time>
      </trkpt>
      <trkpt lat="45.98979" lon="4.87946">
        <ele>274</ele>
        <time>2018-07-03T09:55:54Z</time>
      </trkpt>
      <trkpt lat="45.98974" lon="4.87943">
        <ele>274</ele>
        <time>2018-07-03T09:55:55Z</time>
      </trkpt>
      <trkpt lat="45.98966" lon="4.87937">
        <ele>274</ele>
        <time>2018-07-03T09:55:56Z</time>
      </trkpt>
      <trkpt lat="45.98962" lon="4.87934">
        <ele>273</ele>
        <time>2018-07-03T09:55:57Z</time>
      </trkpt>
      <trkpt lat="45.98953" lon="4.87927">
        <ele>273</ele>
        <time>2018-07-03T09:55:58Z</time>
      </trkpt>
      <trkpt lat="45.98943" lon="4.87921">
        <ele>273</ele>
        <time>2018-07-03T09:55:59Z</time>
      </trkpt>
      <trkpt lat="45.98934" lon="4.87916">
        <ele>273</ele>
        <time>2018-07-03T09:56:00Z</time>
      </trkpt>
      <trkpt lat="45.98927" lon="4.87912">
        <ele>272</ele>
        <time>2018-07-03T09:56:01Z</time>
      </trkpt>
      <trkpt lat="45.9892" lon="4.87905">
        <ele>272</ele>
        <time>2018-07-03T09:56:02Z</time>
      </trkpt>
      <trkpt lat="45.98913" lon="4.87898">
        <ele>272</ele>
        <time>2018-07-03T09:56:03Z</time>
      </trkpt>
      <trkpt lat="45.98906" lon="4.87891">
        <ele>272</ele>
        <time>2018-07-03T09:56:04Z</time>
      </trkpt>
      <trkpt lat="45.98899" lon="4.87883">
        <ele>272</ele>
        <time>2018-07-03T09:56:05Z</time>
      </trkpt>
      <trkpt lat="45.98892" lon="4.87876">
        <ele>272</ele>
        <time>2018-07-03T09:56:06Z</time>
      </trkpt>
      <trkpt lat="45.98886" lon="4.87867">
        <ele>272</ele>
        <time>2018-07-03T09:56:07Z</time>
      </trkpt>
      <trkpt lat="45.9888" lon="4.87856">
        <ele>272</ele>
        <time>2018-07-03T09:56:08Z</time>
      </trkpt>
      <trkpt lat="45.98874" lon="4.87846">
        <ele>273</ele>
        <time>2018-07-03T09:56:09Z</time>
      </trkpt>
      <trkpt lat="45.9887" lon="4.87836">
        <ele>273</ele>
        <time>2018-07-03T09:56:10Z</time>
      </trkpt>
      <trkpt lat="45.98865" lon="4.87827">
        <ele>273</ele>
        <time>2018-07-03T09:56:11Z</time>
      </trkpt>
      <trkpt lat="45.98862" lon="4.87817">
        <ele>273</ele>
        <time>2018-07-03T09:56:12Z</time>
      </trkpt>
      <trkpt lat="45.98858" lon="4.87806">
        <ele>273</ele>
        <time>2018-07-03T09:56:13Z</time>
      </trkpt>
      <trkpt lat="45.98854" lon="4.87796">
        <ele>273</ele>
        <time>2018-07-03T09:56:14Z</time>
      </trkpt>
      <trkpt lat="45.98852" lon="4.87785">
        <ele>273</ele>
        <time>2018-07-03T09:56:15Z</time>
      </trkpt>
      <trkpt lat="45.98848" lon="4.87776">
        <ele>273</ele>
        <time>2018-07-03T09:56:16Z</time>
      </trkpt>
      <trkpt lat="45.98844" lon="4.87765">
        <ele>273</ele>
        <time>2018-07-03T09:56:17Z</time>
      </trkpt>
      <trkpt lat="45.9884" lon="4.87755">
        <ele>273</ele>
        <time>2018-07-03T09:56:18Z</time>
      </trkpt>
      <trkpt lat="45.98836" lon="4.87746">
        <ele>273</ele>
        <time>2018-07-03T09:56:19Z</time>
      </trkpt>
      <trkpt lat="45.98837" lon="4.87738">
        <ele>273</ele>
        <time>2018-07-03T09:56:20Z</time>
      </trkpt>
      <trkpt lat="45.98834" lon="4.87727">
        <ele>273</ele>
        <time>2018-07-03T09:56:21Z</time>
      </trkpt>
      <trkpt lat="45.98833" lon="4.87718">
        <ele>274</ele>
        <time>2018-07-03T09:56:22Z</time>
      </trkpt>
      <trkpt lat="45.98833" lon="4.87708">
        <ele>273</ele>
        <time>2018-07-03T09:56:23Z</time>
      </trkpt>
      <trkpt lat="45.98831" lon="4.87698">
        <ele>273</ele>
        <time>2018-07-03T09:56:24Z</time>
      </trkpt>
      <trkpt lat="45.98829" lon="4.8769">
        <ele>273</ele>
        <time>2018-07-03T09:56:25Z</time>
      </trkpt>
      <trkpt lat="45.98825" lon="4.8768">
        <ele>273</ele>
        <time>2018-07-03T09:56:26Z</time>
      </trkpt>
      <trkpt lat="45.98821" lon="4.8767">
        <ele>273</ele>
        <time>2018-07-03T09:56:27Z</time>
      </trkpt>
      <trkpt lat="45.98821" lon="4.87662">
        <ele>272</ele>
        <time>2018-07-03T09:56:28Z</time>
      </trkpt>
      <trkpt lat="45.98821" lon="4.87653">
        <ele>272</ele>
        <time>2018-07-03T09:56:29Z</time>
      </trkpt>
      <trkpt lat="45.98818" lon="4.87642">
        <ele>272</ele>
        <time>2018-07-03T09:56:31Z</time>
      </trkpt>
      <trkpt lat="45.98819" lon="4.87639">
        <ele>272</ele>
        <time>2018-07-03T09:56:32Z</time>
      </trkpt>
      <trkpt lat="45.98813" lon="4.8763">
        <ele>271</ele>
        <time>2018-07-03T09:56:39Z</time>
      </trkpt>
      <trkpt lat="45.98812" lon="4.87629">
        <ele>271</ele>
        <time>2018-07-03T09:56:40Z</time>
      </trkpt>
      <trkpt lat="45.98812" lon="4.87618">
        <ele>271</ele>
        <time>2018-07-03T09:57:28Z</time>
      </trkpt>
      <trkpt lat="45.98811" lon="4.87615">
        <ele>271</ele>
        <time>2018-07-03T09:57:29Z</time>
      </trkpt>
      <trkpt lat="45.98809" lon="4.8761">
        <ele>271</ele>
        <time>2018-07-03T09:57:31Z</time>
      </trkpt>
      <trkpt lat="45.98801" lon="4.87603">
        <ele>271</ele>
        <time>2018-07-03T09:57:32Z</time>
      </trkpt>
      <trkpt lat="45.98795" lon="4.87599">
        <ele>271</ele>
        <time>2018-07-03T09:57:33Z</time>
      </trkpt>
      <trkpt lat="45.98789" lon="4.87596">
        <ele>271</ele>
        <time>2018-07-03T09:57:34Z</time>
      </trkpt>
      <trkpt lat="45.98782" lon="4.87591">
        <ele>270</ele>
        <time>2018-07-03T09:57:36Z</time>
      </trkpt>
      <trkpt lat="45.98777" lon="4.87585">
        <ele>270</ele>
        <time>2018-07-03T09:57:37Z</time>
      </trkpt>
      <trkpt lat="45.98775" lon="4.87579">
        <ele>269</ele>
        <time>2018-07-03T09:57:38Z</time>
      </trkpt>
      <trkpt lat="45.98772" lon="4.87574">
        <ele>269</ele>
        <time>2018-07-03T09:57:39Z</time>
      </trkpt>
      <trkpt lat="45.98767" lon="4.87564">
        <ele>269</ele>
        <time>2018-07-03T09:57:40Z</time>
      </trkpt>
      <trkpt lat="45.98759" lon="4.87559">
        <ele>269</ele>
        <time>2018-07-03T09:57:41Z</time>
      </trkpt>
      <trkpt lat="45.98752" lon="4.87555">
        <ele>269</ele>
        <time>2018-07-03T09:57:42Z</time>
      </trkpt>
      <trkpt lat="45.98743" lon="4.87552">
        <ele>267</ele>
        <time>2018-07-03T09:57:43Z</time>
      </trkpt>
      <trkpt lat="45.98736" lon="4.87554">
        <ele>267</ele>
        <time>2018-07-03T09:57:44Z</time>
      </trkpt>
      <trkpt lat="45.9873" lon="4.87552">
        <ele>267</ele>
        <time>2018-07-03T09:57:45Z</time>
      </trkpt>
      <trkpt lat="45.98725" lon="4.87551">
        <ele>267</ele>
        <time>2018-07-03T09:57:46Z</time>
      </trkpt>
      <trkpt lat="45.98718" lon="4.87552">
        <ele>267</ele>
        <time>2018-07-03T09:57:47Z</time>
      </trkpt>
      <trkpt lat="45.98709" lon="4.87554">
        <ele>267</ele>
        <time>2018-07-03T09:57:48Z</time>
      </trkpt>
      <trkpt lat="45.98704" lon="4.87557">
        <ele>267</ele>
        <time>2018-07-03T09:57:49Z</time>
      </trkpt>
      <trkpt lat="45.98698" lon="4.87558">
        <ele>267</ele>
        <time>2018-07-03T09:57:50Z</time>
      </trkpt>
      <trkpt lat="45.98691" lon="4.87561">
        <ele>267</ele>
        <time>2018-07-03T09:57:51Z</time>
      </trkpt>
      <trkpt lat="45.98687" lon="4.87559">
        <ele>267</ele>
        <time>2018-07-03T09:57:52Z</time>
      </trkpt>
      <trkpt lat="45.98682" lon="4.87561">
        <ele>267</ele>
        <time>2018-07-03T09:57:53Z</time>
      </trkpt>
      <trkpt lat="45.98677" lon="4.87563">
        <ele>267</ele>
        <time>2018-07-03T09:57:54Z</time>
      </trkpt>
      <trkpt lat="45.98672" lon="4.87565">
        <ele>267</ele>
        <time>2018-07-03T09:57:55Z</time>
      </trkpt>
      <trkpt lat="45.98669" lon="4.87568">
        <ele>267</ele>
        <time>2018-07-03T09:57:56Z</time>
      </trkpt>
      <trkpt lat="45.98665" lon="4.8757">
        <ele>267</ele>
        <time>2018-07-03T09:57:57Z</time>
      </trkpt>
      <trkpt lat="45.9866" lon="4.87576">
        <ele>267</ele>
        <time>2018-07-03T09:57:58Z</time>
      </trkpt>
      <trkpt lat="45.98651" lon="4.87566">
        <ele>267</ele>
        <time>2018-07-03T09:57:59Z</time>
      </trkpt>
      <trkpt lat="45.98648" lon="4.87562">
        <ele>267</ele>
        <time>2018-07-03T09:58:00Z</time>
      </trkpt>
      <trkpt lat="45.98644" lon="4.87558">
        <ele>267</ele>
        <time>2018-07-03T09:58:01Z</time>
      </trkpt>
      <trkpt lat="45.98645" lon="4.87548">
        <ele>267</ele>
        <time>2018-07-03T09:58:03Z</time>
      </trkpt>
      <trkpt lat="45.98643" lon="4.87541">
        <ele>267</ele>
        <time>2018-07-03T09:58:04Z</time>
      </trkpt>
      <trkpt lat="45.98644" lon="4.87528">
        <ele>267</ele>
        <time>2018-07-03T09:58:06Z</time>
      </trkpt>
      <trkpt lat="45.98643" lon="4.87519">
        <ele>267</ele>
        <time>2018-07-03T09:58:07Z</time>
      </trkpt>
      <trkpt lat="45.98642" lon="4.87512">
        <ele>267</ele>
        <time>2018-07-03T09:58:08Z</time>
      </trkpt>
      <trkpt lat="45.9864" lon="4.87506">
        <ele>266</ele>
        <time>2018-07-03T09:58:09Z</time>
      </trkpt>
      <trkpt lat="45.98636" lon="4.87499">
        <ele>267</ele>
        <time>2018-07-03T09:58:10Z</time>
      </trkpt>
      <trkpt lat="45.98637" lon="4.87492">
        <ele>267</ele>
        <time>2018-07-03T09:58:11Z</time>
      </trkpt>
      <trkpt lat="45.98636" lon="4.87484">
        <ele>268</ele>
        <time>2018-07-03T09:58:12Z</time>
      </trkpt>
      <trkpt lat="45.98635" lon="4.87477">
        <ele>268</ele>
        <time>2018-07-03T09:58:13Z</time>
      </trkpt>
      <trkpt lat="45.98632" lon="4.8747">
        <ele>268</ele>
        <time>2018-07-03T09:58:14Z</time>
      </trkpt>
      <trkpt lat="45.98631" lon="4.87463">
        <ele>268</ele>
        <time>2018-07-03T09:58:15Z</time>
      </trkpt>
      <trkpt lat="45.9863" lon="4.87456">
        <ele>268</ele>
        <time>2018-07-03T09:58:16Z</time>
      </trkpt>
      <trkpt lat="45.98628" lon="4.87448">
        <ele>268</ele>
        <time>2018-07-03T09:58:17Z</time>
      </trkpt>
      <trkpt lat="45.98624" lon="4.87442">
        <ele>269</ele>
        <time>2018-07-03T09:58:18Z</time>
      </trkpt>
      <trkpt lat="45.98623" lon="4.87436">
        <ele>269</ele>
        <time>2018-07-03T09:58:19Z</time>
      </trkpt>
      <trkpt lat="45.98621" lon="4.87428">
        <ele>269</ele>
        <time>2018-07-03T09:58:20Z</time>
      </trkpt>
      <trkpt lat="45.98618" lon="4.87421">
        <ele>269</ele>
        <time>2018-07-03T09:58:21Z</time>
      </trkpt>
      <trkpt lat="45.98613" lon="4.87415">
        <ele>271</ele>
        <time>2018-07-03T09:58:22Z</time>
      </trkpt>
      <trkpt lat="45.98611" lon="4.87409">
        <ele>271</ele>
        <time>2018-07-03T09:58:23Z</time>
      </trkpt>
      <trkpt lat="45.9861" lon="4.87403">
        <ele>271</ele>
        <time>2018-07-03T09:58:24Z</time>
      </trkpt>
      <trkpt lat="45.98608" lon="4.87397">
        <ele>271</ele>
        <time>2018-07-03T09:58:25Z</time>
      </trkpt>
      <trkpt lat="45.98605" lon="4.87385">
        <ele>271</ele>
        <time>2018-07-03T09:58:27Z</time>
      </trkpt>
      <trkpt lat="45.98604" lon="4.87377">
        <ele>271</ele>
        <time>2018-07-03T09:58:28Z</time>
      </trkpt>
      <trkpt lat="45.98599" lon="4.87367">
        <ele>272</ele>
        <time>2018-07-03T09:58:30Z</time>
      </trkpt>
      <trkpt lat="45.98598" lon="4.87361">
        <ele>272</ele>
        <time>2018-07-03T09:58:31Z</time>
      </trkpt>
      <trkpt lat="45.98597" lon="4.87349">
        <ele>272</ele>
        <time>2018-07-03T09:58:33Z</time>
      </trkpt>
      <trkpt lat="45.98595" lon="4.87342">
        <ele>273</ele>
        <time>2018-07-03T09:58:34Z</time>
      </trkpt>
      <trkpt lat="45.98593" lon="4.87331">
        <ele>274</ele>
        <time>2018-07-03T09:58:36Z</time>
      </trkpt>
      <trkpt lat="45.9859" lon="4.87325">
        <ele>274</ele>
        <time>2018-07-03T09:58:37Z</time>
      </trkpt>
      <trkpt lat="45.98587" lon="4.87321">
        <ele>274</ele>
        <time>2018-07-03T09:58:39Z</time>
      </trkpt>
      <trkpt lat="45.98588" lon="4.87311">
        <ele>274</ele>
        <time>2018-07-03T09:58:40Z</time>
      </trkpt>
      <trkpt lat="45.98588" lon="4.87305">
        <ele>274</ele>
        <time>2018-07-03T09:58:42Z</time>
      </trkpt>
      <trkpt lat="45.98592" lon="4.87296">
        <ele>275</ele>
        <time>2018-07-03T09:58:43Z</time>
      </trkpt>
      <trkpt lat="45.98594" lon="4.87294">
        <ele>275</ele>
        <time>2018-07-03T09:58:44Z</time>
      </trkpt>
      <trkpt lat="45.98597" lon="4.87285">
        <ele>275</ele>
        <time>2018-07-03T09:58:45Z</time>
      </trkpt>
      <trkpt lat="45.98597" lon="4.87273">
        <ele>275</ele>
        <time>2018-07-03T09:58:47Z</time>
      </trkpt>
      <trkpt lat="45.98597" lon="4.87267">
        <ele>275</ele>
        <time>2018-07-03T09:58:48Z</time>
      </trkpt>
      <trkpt lat="45.98599" lon="4.87255">
        <ele>275</ele>
        <time>2018-07-03T09:58:51Z</time>
      </trkpt>
      <trkpt lat="45.98599" lon="4.87251">
        <ele>275</ele>
        <time>2018-07-03T09:58:52Z</time>
      </trkpt>
      <trkpt lat="45.98602" lon="4.8724">
        <ele>277</ele>
        <time>2018-07-03T09:58:53Z</time>
      </trkpt>
      <trkpt lat="45.98603" lon="4.87237">
        <ele>277</ele>
        <time>2018-07-03T09:58:54Z</time>
      </trkpt>
      <trkpt lat="45.98605" lon="4.87229">
        <ele>277</ele>
        <time>2018-07-03T09:58:55Z</time>
      </trkpt>
      <trkpt lat="45.98606" lon="4.87222">
        <ele>277</ele>
        <time>2018-07-03T09:58:56Z</time>
      </trkpt>
      <trkpt lat="45.98607" lon="4.87211">
        <ele>277</ele>
        <time>2018-07-03T09:58:57Z</time>
      </trkpt>
      <trkpt lat="45.98607" lon="4.87203">
        <ele>277</ele>
        <time>2018-07-03T09:58:58Z</time>
      </trkpt>
      <trkpt lat="45.98608" lon="4.87191">
        <ele>277</ele>
        <time>2018-07-03T09:59:00Z</time>
      </trkpt>
      <trkpt lat="45.9861" lon="4.87181">
        <ele>278</ele>
        <time>2018-07-03T09:59:01Z</time>
      </trkpt>
      <trkpt lat="45.98613" lon="4.87172">
        <ele>278</ele>
        <time>2018-07-03T09:59:02Z</time>
      </trkpt>
      <trkpt lat="45.98616" lon="4.87165">
        <ele>278</ele>
        <time>2018-07-03T09:59:03Z</time>
      </trkpt>
      <trkpt lat="45.98617" lon="4.87158">
        <ele>278</ele>
        <time>2018-07-03T09:59:04Z</time>
      </trkpt>
      <trkpt lat="45.98618" lon="4.87149">
        <ele>279</ele>
        <time>2018-07-03T09:59:05Z</time>
      </trkpt>
      <trkpt lat="45.98618" lon="4.87141">
        <ele>279</ele>
        <time>2018-07-03T09:59:06Z</time>
      </trkpt>
      <trkpt lat="45.98617" lon="4.87134">
        <ele>279</ele>
        <time>2018-07-03T09:59:07Z</time>
      </trkpt>
      <trkpt lat="45.98616" lon="4.87127">
        <ele>279</ele>
        <time>2018-07-03T09:59:08Z</time>
      </trkpt>
      <trkpt lat="45.9862" lon="4.87119">
        <ele>279</ele>
        <time>2018-07-03T09:59:09Z</time>
      </trkpt>
      <trkpt lat="45.98617" lon="4.87118">
        <ele>279</ele>
        <time>2018-07-03T09:59:10Z</time>
      </trkpt>
      <trkpt lat="45.98611" lon="4.87108">
        <ele>279</ele>
        <time>2018-07-03T09:59:11Z</time>
      </trkpt>
      <trkpt lat="45.98606" lon="4.87104">
        <ele>279</ele>
        <time>2018-07-03T09:59:12Z</time>
      </trkpt>
      <trkpt lat="45.98604" lon="4.87098">
        <ele>279</ele>
        <time>2018-07-03T09:59:13Z</time>
      </trkpt>
      <trkpt lat="45.98608" lon="4.87094">
        <ele>279</ele>
        <time>2018-07-03T09:59:14Z</time>
      </trkpt>
      <trkpt lat="45.98609" lon="4.87083">
        <ele>279</ele>
        <time>2018-07-03T09:59:15Z</time>
      </trkpt>
      <trkpt lat="45.98612" lon="4.87076">
        <ele>279</ele>
        <time>2018-07-03T09:59:16Z</time>
      </trkpt>
      <trkpt lat="45.9861" lon="4.8707">
        <ele>279</ele>
        <time>2018-07-03T09:59:17Z</time>
      </trkpt>
      <trkpt lat="45.98611" lon="4.87063">
        <ele>279</ele>
        <time>2018-07-03T09:59:18Z</time>
      </trkpt>
      <trkpt lat="45.98606" lon="4.87054">
        <ele>279</ele>
        <time>2018-07-03T09:59:19Z</time>
      </trkpt>
      <trkpt lat="45.98602" lon="4.87046">
        <ele>279</ele>
        <time>2018-07-03T09:59:20Z</time>
      </trkpt>
      <trkpt lat="45.98598" lon="4.8704">
        <ele>279</ele>
        <time>2018-07-03T09:59:21Z</time>
      </trkpt>
      <trkpt lat="45.98596" lon="4.87031">
        <ele>279</ele>
        <time>2018-07-03T09:59:22Z</time>
      </trkpt>
      <trkpt lat="45.98596" lon="4.87023">
        <ele>279</ele>
        <time>2018-07-03T09:59:23Z</time>
      </trkpt>
      <trkpt lat="45.98594" lon="4.87014">
        <ele>279</ele>
        <time>2018-07-03T09:59:24Z</time>
      </trkpt>
      <trkpt lat="45.98592" lon="4.87008">
        <ele>279</ele>
        <time>2018-07-03T09:59:25Z</time>
      </trkpt>
      <trkpt lat="45.9859" lon="4.87001">
        <ele>280</ele>
        <time>2018-07-03T09:59:26Z</time>
      </trkpt>
      <trkpt lat="45.98589" lon="4.86994">
        <ele>279</ele>
        <time>2018-07-03T09:59:27Z</time>
      </trkpt>
      <trkpt lat="45.98587" lon="4.86986">
        <ele>279</ele>
        <time>2018-07-03T09:59:28Z</time>
      </trkpt>
      <trkpt lat="45.98589" lon="4.86979">
        <ele>279</ele>
        <time>2018-07-03T09:59:29Z</time>
      </trkpt>
      <trkpt lat="45.98589" lon="4.86971">
        <ele>279</ele>
        <time>2018-07-03T09:59:30Z</time>
      </trkpt>
      <trkpt lat="45.98588" lon="4.86964">
        <ele>279</ele>
        <time>2018-07-03T09:59:31Z</time>
      </trkpt>
      <trkpt lat="45.98589" lon="4.86952">
        <ele>278</ele>
        <time>2018-07-03T09:59:33Z</time>
      </trkpt>
      <trkpt lat="45.98591" lon="4.86946">
        <ele>278</ele>
        <time>2018-07-03T09:59:34Z</time>
      </trkpt>
      <trkpt lat="45.98592" lon="4.86938">
        <ele>279</ele>
        <time>2018-07-03T09:59:35Z</time>
      </trkpt>
      <trkpt lat="45.9859" lon="4.86931">
        <ele>279</ele>
        <time>2018-07-03T09:59:36Z</time>
      </trkpt>
      <trkpt lat="45.9859" lon="4.86923">
        <ele>279</ele>
        <time>2018-07-03T09:59:37Z</time>
      </trkpt>
      <trkpt lat="45.98592" lon="4.86918">
        <ele>279</ele>
        <time>2018-07-03T09:59:38Z</time>
      </trkpt>
      <trkpt lat="45.98591" lon="4.86907">
        <ele>278</ele>
        <time>2018-07-03T09:59:40Z</time>
      </trkpt>
      <trkpt lat="45.98591" lon="4.86899">
        <ele>278</ele>
        <time>2018-07-03T09:59:41Z</time>
      </trkpt>
      <trkpt lat="45.9859" lon="4.86892">
        <ele>278</ele>
        <time>2018-07-03T09:59:42Z</time>
      </trkpt>
      <trkpt lat="45.98591" lon="4.86885">
        <ele>278</ele>
        <time>2018-07-03T09:59:43Z</time>
      </trkpt>
      <trkpt lat="45.98593" lon="4.86878">
        <ele>277</ele>
        <time>2018-07-03T09:59:44Z</time>
      </trkpt>
      <trkpt lat="45.98593" lon="4.8687">
        <ele>277</ele>
        <time>2018-07-03T09:59:45Z</time>
      </trkpt>
      <trkpt lat="45.98593" lon="4.86863">
        <ele>277</ele>
        <time>2018-07-03T09:59:46Z</time>
      </trkpt>
      <trkpt lat="45.98592" lon="4.86856">
        <ele>277</ele>
        <time>2018-07-03T09:59:47Z</time>
      </trkpt>
      <trkpt lat="45.9859" lon="4.86849">
        <ele>277</ele>
        <time>2018-07-03T09:59:48Z</time>
      </trkpt>
      <trkpt lat="45.98591" lon="4.86839">
        <ele>277</ele>
        <time>2018-07-03T09:59:49Z</time>
      </trkpt>
      <trkpt lat="45.98593" lon="4.86831">
        <ele>277</ele>
        <time>2018-07-03T09:59:50Z</time>
      </trkpt>
      <trkpt lat="45.98593" lon="4.86823">
        <ele>276</ele>
        <time>2018-07-03T09:59:51Z</time>
      </trkpt>
      <trkpt lat="45.98591" lon="4.86816">
        <ele>276</ele>
        <time>2018-07-03T09:59:52Z</time>
      </trkpt>
      <trkpt lat="45.98589" lon="4.86809">
        <ele>276</ele>
        <time>2018-07-03T09:59:53Z</time>
      </trkpt>
      <trkpt lat="45.98588" lon="4.868">
        <ele>276</ele>
        <time>2018-07-03T09:59:54Z</time>
      </trkpt>
      <trkpt lat="45.98587" lon="4.86792">
        <ele>276</ele>
        <time>2018-07-03T09:59:55Z</time>
      </trkpt>
      <trkpt lat="45.98586" lon="4.86785">
        <ele>276</ele>
        <time>2018-07-03T09:59:56Z</time>
      </trkpt>
      <trkpt lat="45.98582" lon="4.86778">
        <ele>277</ele>
        <time>2018-07-03T09:59:57Z</time>
      </trkpt>
      <trkpt lat="45.9858" lon="4.86771">
        <ele>277</ele>
        <time>2018-07-03T09:59:58Z</time>
      </trkpt>
      <trkpt lat="45.9858" lon="4.86764">
        <ele>277</ele>
        <time>2018-07-03T09:59:59Z</time>
      </trkpt>
      <trkpt lat="45.98579" lon="4.86755">
        <ele>276</ele>
        <time>2018-07-03T10:00:00Z</time>
      </trkpt>
      <trkpt lat="45.98578" lon="4.86747">
        <ele>276</ele>
        <time>2018-07-03T10:00:01Z</time>
      </trkpt>
      <trkpt lat="45.98576" lon="4.86739">
        <ele>277</ele>
        <time>2018-07-03T10:00:02Z</time>
      </trkpt>
      <trkpt lat="45.98576" lon="4.86731">
        <ele>277</ele>
        <time>2018-07-03T10:00:03Z</time>
      </trkpt>
      <trkpt lat="45.98576" lon="4.86723">
        <ele>277</ele>
        <time>2018-07-03T10:00:04Z</time>
      </trkpt>
      <trkpt lat="45.98573" lon="4.86715">
        <ele>277</ele>
        <time>2018-07-03T10:00:05Z</time>
      </trkpt>
      <trkpt lat="45.98572" lon="4.86707">
        <ele>277</ele>
        <time>2018-07-03T10:00:06Z</time>
      </trkpt>
      <trkpt lat="45.98572" lon="4.86698">
        <ele>277</ele>
        <time>2018-07-03T10:00:07Z</time>
      </trkpt>
      <trkpt lat="45.98571" lon="4.86688">
        <ele>277</ele>
        <time>2018-07-03T10:00:08Z</time>
      </trkpt>
      <trkpt lat="45.98568" lon="4.86681">
        <ele>276</ele>
        <time>2018-07-03T10:00:09Z</time>
      </trkpt>
      <trkpt lat="45.98566" lon="4.86673">
        <ele>276</ele>
        <time>2018-07-03T10:00:10Z</time>
      </trkpt>
      <trkpt lat="45.98566" lon="4.86666">
        <ele>277</ele>
        <time>2018-07-03T10:00:11Z</time>
      </trkpt>
      <trkpt lat="45.98563" lon="4.8666">
        <ele>277</ele>
        <time>2018-07-03T10:00:12Z</time>
      </trkpt>
      <trkpt lat="45.98561" lon="4.86653">
        <ele>277</ele>
        <time>2018-07-03T10:00:13Z</time>
      </trkpt>
      <trkpt lat="45.98562" lon="4.86645">
        <ele>277</ele>
        <time>2018-07-03T10:00:14Z</time>
      </trkpt>
      <trkpt lat="45.98562" lon="4.86637">
        <ele>277</ele>
        <time>2018-07-03T10:00:15Z</time>
      </trkpt>
      <trkpt lat="45.98558" lon="4.86631">
        <ele>278</ele>
        <time>2018-07-03T10:00:16Z</time>
      </trkpt>
      <trkpt lat="45.98559" lon="4.86622">
        <ele>278</ele>
        <time>2018-07-03T10:00:17Z</time>
      </trkpt>
      <trkpt lat="45.98559" lon="4.86615">
        <ele>278</ele>
        <time>2018-07-03T10:00:18Z</time>
      </trkpt>
      <trkpt lat="45.98558" lon="4.86607">
        <ele>278</ele>
        <time>2018-07-03T10:00:19Z</time>
      </trkpt>
      <trkpt lat="45.98555" lon="4.86601">
        <ele>278</ele>
        <time>2018-07-03T10:00:20Z</time>
      </trkpt>
      <trkpt lat="45.98553" lon="4.86591">
        <ele>278</ele>
        <time>2018-07-03T10:00:21Z</time>
      </trkpt>
      <trkpt lat="45.98554" lon="4.86583">
        <ele>278</ele>
        <time>2018-07-03T10:00:22Z</time>
      </trkpt>
      <trkpt lat="45.98552" lon="4.86575">
        <ele>278</ele>
        <time>2018-07-03T10:00:23Z</time>
      </trkpt>
      <trkpt lat="45.98548" lon="4.86569">
        <ele>278</ele>
        <time>2018-07-03T10:00:24Z</time>
      </trkpt>
      <trkpt lat="45.98543" lon="4.86561">
        <ele>278</ele>
        <time>2018-07-03T10:00:25Z</time>
      </trkpt>
      <trkpt lat="45.98541" lon="4.86555">
        <ele>278</ele>
        <time>2018-07-03T10:00:26Z</time>
      </trkpt>
      <trkpt lat="45.98536" lon="4.86548">
        <ele>279</ele>
        <time>2018-07-03T10:00:27Z</time>
      </trkpt>
      <trkpt lat="45.9853" lon="4.8654">
        <ele>279</ele>
        <time>2018-07-03T10:00:28Z</time>
      </trkpt>
      <trkpt lat="45.98528" lon="4.86534">
        <ele>279</ele>
        <time>2018-07-03T10:00:29Z</time>
      </trkpt>
      <trkpt lat="45.98526" lon="4.86528">
        <ele>279</ele>
        <time>2018-07-03T10:00:30Z</time>
      </trkpt>
      <trkpt lat="45.98523" lon="4.86522">
        <ele>279</ele>
        <time>2018-07-03T10:00:31Z</time>
      </trkpt>
      <trkpt lat="45.98518" lon="4.86515">
        <ele>279</ele>
        <time>2018-07-03T10:00:32Z</time>
      </trkpt>
      <trkpt lat="45.98516" lon="4.86509">
        <ele>279</ele>
        <time>2018-07-03T10:00:33Z</time>
      </trkpt>
      <trkpt lat="45.98515" lon="4.86501">
        <ele>279</ele>
        <time>2018-07-03T10:00:34Z</time>
      </trkpt>
      <trkpt lat="45.98511" lon="4.86495">
        <ele>279</ele>
        <time>2018-07-03T10:00:35Z</time>
      </trkpt>
      <trkpt lat="45.98509" lon="4.86489">
        <ele>279</ele>
        <time>2018-07-03T10:00:36Z</time>
      </trkpt>
      <trkpt lat="45.98508" lon="4.86482">
        <ele>278</ele>
        <time>2018-07-03T10:00:37Z</time>
      </trkpt>
      <trkpt lat="45.98504" lon="4.86475">
        <ele>278</ele>
        <time>2018-07-03T10:00:38Z</time>
      </trkpt>
      <trkpt lat="45.98502" lon="4.8647">
        <ele>278</ele>
        <time>2018-07-03T10:00:39Z</time>
      </trkpt>
      <trkpt lat="45.98499" lon="4.86464">
        <ele>278</ele>
        <time>2018-07-03T10:00:40Z</time>
      </trkpt>
      <trkpt lat="45.98497" lon="4.86457">
        <ele>278</ele>
        <time>2018-07-03T10:00:41Z</time>
      </trkpt>
      <trkpt lat="45.98494" lon="4.86451">
        <ele>278</ele>
        <time>2018-07-03T10:00:42Z</time>
      </trkpt>
      <trkpt lat="45.98493" lon="4.86444">
        <ele>278</ele>
        <time>2018-07-03T10:00:43Z</time>
      </trkpt>
      <trkpt lat="45.98489" lon="4.86437">
        <ele>278</ele>
        <time>2018-07-03T10:00:44Z</time>
      </trkpt>
      <trkpt lat="45.9848" lon="4.86431">
        <ele>278</ele>
        <time>2018-07-03T10:00:45Z</time>
      </trkpt>
      <trkpt lat="45.98478" lon="4.86422">
        <ele>278</ele>
        <time>2018-07-03T10:00:47Z</time>
      </trkpt>
      <trkpt lat="45.98473" lon="4.86413">
        <ele>277</ele>
        <time>2018-07-03T10:00:48Z</time>
      </trkpt>
      <trkpt lat="45.98469" lon="4.86406">
        <ele>277</ele>
        <time>2018-07-03T10:00:49Z</time>
      </trkpt>
      <trkpt lat="45.98465" lon="4.86397">
        <ele>277</ele>
        <time>2018-07-03T10:00:50Z</time>
      </trkpt>
      <trkpt lat="45.98462" lon="4.86391">
        <ele>277</ele>
        <time>2018-07-03T10:00:51Z</time>
      </trkpt>
      <trkpt lat="45.98459" lon="4.86384">
        <ele>277</ele>
        <time>2018-07-03T10:00:52Z</time>
      </trkpt>
      <trkpt lat="45.98455" lon="4.86372">
        <ele>277</ele>
        <time>2018-07-03T10:00:54Z</time>
      </trkpt>
      <trkpt lat="45.98451" lon="4.86364">
        <ele>277</ele>
        <time>2018-07-03T10:00:55Z</time>
      </trkpt>
      <trkpt lat="45.9845" lon="4.86352">
        <ele>277</ele>
        <time>2018-07-03T10:00:57Z</time>
      </trkpt>
      <trkpt lat="45.98449" lon="4.86345">
        <ele>277</ele>
        <time>2018-07-03T10:00:58Z</time>
      </trkpt>
      <trkpt lat="45.98448" lon="4.86338">
        <ele>277</ele>
        <time>2018-07-03T10:00:59Z</time>
      </trkpt>
      <trkpt lat="45.98447" lon="4.86331">
        <ele>276</ele>
        <time>2018-07-03T10:01:00Z</time>
      </trkpt>
      <trkpt lat="45.98444" lon="4.86323">
        <ele>276</ele>
        <time>2018-07-03T10:01:01Z</time>
      </trkpt>
      <trkpt lat="45.98444" lon="4.86317">
        <ele>276</ele>
        <time>2018-07-03T10:01:02Z</time>
      </trkpt>
      <trkpt lat="45.98446" lon="4.8631">
        <ele>276</ele>
        <time>2018-07-03T10:01:03Z</time>
      </trkpt>
      <trkpt lat="45.98443" lon="4.86302">
        <ele>276</ele>
        <time>2018-07-03T10:01:04Z</time>
      </trkpt>
      <trkpt lat="45.98443" lon="4.86295">
        <ele>276</ele>
        <time>2018-07-03T10:01:05Z</time>
      </trkpt>
      <trkpt lat="45.98441" lon="4.86288">
        <ele>276</ele>
        <time>2018-07-03T10:01:06Z</time>
      </trkpt>
      <trkpt lat="45.98439" lon="4.86277">
        <ele>276</ele>
        <time>2018-07-03T10:01:08Z</time>
      </trkpt>
      <trkpt lat="45.98436" lon="4.8627">
        <ele>275</ele>
        <time>2018-07-03T10:01:09Z</time>
      </trkpt>
      <trkpt lat="45.98435" lon="4.86259">
        <ele>275</ele>
        <time>2018-07-03T10:01:11Z</time>
      </trkpt>
      <trkpt lat="45.98435" lon="4.86256">
        <ele>275</ele>
        <time>2018-07-03T10:01:12Z</time>
      </trkpt>
      <trkpt lat="45.98437" lon="4.86244">
        <ele>275</ele>
        <time>2018-07-03T10:01:15Z</time>
      </trkpt>
      <trkpt lat="45.98437" lon="4.86236">
        <ele>275</ele>
        <time>2018-07-03T10:01:16Z</time>
      </trkpt>
      <trkpt lat="45.98435" lon="4.86228">
        <ele>275</ele>
        <time>2018-07-03T10:01:19Z</time>
      </trkpt>
      <trkpt lat="45.98432" lon="4.86218">
        <ele>275</ele>
        <time>2018-07-03T10:01:20Z</time>
      </trkpt>
      <trkpt lat="45.9843" lon="4.86206">
        <ele>275</ele>
        <time>2018-07-03T10:01:24Z</time>
      </trkpt>
      <trkpt lat="45.98427" lon="4.86195">
        <ele>275</ele>
        <time>2018-07-03T10:01:25Z</time>
      </trkpt>
      <trkpt lat="45.98426" lon="4.86184">
        <ele>275</ele>
        <time>2018-07-03T10:01:27Z</time>
      </trkpt>
      <trkpt lat="45.98426" lon="4.86179">
        <ele>275</ele>
        <time>2018-07-03T10:01:28Z</time>
      </trkpt>
      <trkpt lat="45.98424" lon="4.86168">
        <ele>276</ele>
        <time>2018-07-03T10:01:30Z</time>
      </trkpt>
      <trkpt lat="45.98423" lon="4.86163">
        <ele>276</ele>
        <time>2018-07-03T10:01:31Z</time>
      </trkpt>
      <trkpt lat="45.9842" lon="4.86151">
        <ele>276</ele>
        <time>2018-07-03T10:01:33Z</time>
      </trkpt>
      <trkpt lat="45.98419" lon="4.86145">
        <ele>276</ele>
        <time>2018-07-03T10:01:34Z</time>
      </trkpt>
      <trkpt lat="45.98417" lon="4.86134">
        <ele>276</ele>
        <time>2018-07-03T10:01:36Z</time>
      </trkpt>
      <trkpt lat="45.98414" lon="4.86127">
        <ele>276</ele>
        <time>2018-07-03T10:01:37Z</time>
      </trkpt>
      <trkpt lat="45.98414" lon="4.8612">
        <ele>277</ele>
        <time>2018-07-03T10:01:38Z</time>
      </trkpt>
      <trkpt lat="45.98412" lon="4.86113">
        <ele>277</ele>
        <time>2018-07-03T10:01:39Z</time>
      </trkpt>
      <trkpt lat="45.98411" lon="4.86105">
        <ele>277</ele>
        <time>2018-07-03T10:01:40Z</time>
      </trkpt>
      <trkpt lat="45.98409" lon="4.86097">
        <ele>277</ele>
        <time>2018-07-03T10:01:41Z</time>
      </trkpt>
      <trkpt lat="45.98407" lon="4.86088">
        <ele>277</ele>
        <time>2018-07-03T10:01:42Z</time>
      </trkpt>
      <trkpt lat="45.98405" lon="4.86078">
        <ele>277</ele>
        <time>2018-07-03T10:01:43Z</time>
      </trkpt>
      <trkpt lat="45.98403" lon="4.86069">
        <ele>277</ele>
        <time>2018-07-03T10:01:44Z</time>
      </trkpt>
      <trkpt lat="45.98398" lon="4.8606">
        <ele>277</ele>
        <time>2018-07-03T10:01:45Z</time>
      </trkpt>
      <trkpt lat="45.98396" lon="4.8605">
        <ele>277</ele>
        <time>2018-07-03T10:01:46Z</time>
      </trkpt>
      <trkpt lat="45.98392" lon="4.86041">
        <ele>277</ele>
        <time>2018-07-03T10:01:47Z</time>
      </trkpt>
      <trkpt lat="45.98388" lon="4.86031">
        <ele>277</ele>
        <time>2018-07-03T10:01:48Z</time>
      </trkpt>
      <trkpt lat="45.9839" lon="4.86023">
        <ele>277</ele>
        <time>2018-07-03T10:01:49Z</time>
      </trkpt>
      <trkpt lat="45.98386" lon="4.86015">
        <ele>277</ele>
        <time>2018-07-03T10:01:50Z</time>
      </trkpt>
      <trkpt lat="45.98381" lon="4.86006">
        <ele>277</ele>
        <time>2018-07-03T10:01:51Z</time>
      </trkpt>
      <trkpt lat="45.98381" lon="4.85996">
        <ele>277</ele>
        <time>2018-07-03T10:01:52Z</time>
      </trkpt>
      <trkpt lat="45.98375" lon="4.85988">
        <ele>276</ele>
        <time>2018-07-03T10:01:53Z</time>
      </trkpt>
      <trkpt lat="45.98373" lon="4.8598">
        <ele>276</ele>
        <time>2018-07-03T10:01:54Z</time>
      </trkpt>
      <trkpt lat="45.98371" lon="4.85973">
        <ele>276</ele>
        <time>2018-07-03T10:01:55Z</time>
      </trkpt>
      <trkpt lat="45.98368" lon="4.85965">
        <ele>276</ele>
        <time>2018-07-03T10:01:56Z</time>
      </trkpt>
      <trkpt lat="45.98366" lon="4.85957">
        <ele>276</ele>
        <time>2018-07-03T10:01:57Z</time>
      </trkpt>
      <trkpt lat="45.98362" lon="4.85948">
        <ele>276</ele>
        <time>2018-07-03T10:01:58Z</time>
      </trkpt>
      <trkpt lat="45.98359" lon="4.85942">
        <ele>276</ele>
        <time>2018-07-03T10:01:59Z</time>
      </trkpt>
      <trkpt lat="45.98356" lon="4.85932">
        <ele>276</ele>
        <time>2018-07-03T10:02:01Z</time>
      </trkpt>
      <trkpt lat="45.98352" lon="4.85925">
        <ele>276</ele>
        <time>2018-07-03T10:02:02Z</time>
      </trkpt>
      <trkpt lat="45.9835" lon="4.85916">
        <ele>276</ele>
        <time>2018-07-03T10:02:03Z</time>
      </trkpt>
      <trkpt lat="45.9835" lon="4.85908">
        <ele>276</ele>
        <time>2018-07-03T10:02:04Z</time>
      </trkpt>
      <trkpt lat="45.98348" lon="4.85898">
        <ele>276</ele>
        <time>2018-07-03T10:02:05Z</time>
      </trkpt>
      <trkpt lat="45.98347" lon="4.8589">
        <ele>276</ele>
        <time>2018-07-03T10:02:06Z</time>
      </trkpt>
      <trkpt lat="45.98341" lon="4.85883">
        <ele>276</ele>
        <time>2018-07-03T10:02:07Z</time>
      </trkpt>
      <trkpt lat="45.98339" lon="4.85874">
        <ele>276</ele>
        <time>2018-07-03T10:02:08Z</time>
      </trkpt>
      <trkpt lat="45.98334" lon="4.85866">
        <ele>276</ele>
        <time>2018-07-03T10:02:09Z</time>
      </trkpt>
      <trkpt lat="45.98329" lon="4.85858">
        <ele>276</ele>
        <time>2018-07-03T10:02:10Z</time>
      </trkpt>
      <trkpt lat="45.98329" lon="4.85852">
        <ele>276</ele>
        <time>2018-07-03T10:02:11Z</time>
      </trkpt>
      <trkpt lat="45.98322" lon="4.85843">
        <ele>276</ele>
        <time>2018-07-03T10:02:12Z</time>
      </trkpt>
      <trkpt lat="45.98317" lon="4.85836">
        <ele>276</ele>
        <time>2018-07-03T10:02:13Z</time>
      </trkpt>
      <trkpt lat="45.98316" lon="4.85829">
        <ele>276</ele>
        <time>2018-07-03T10:02:14Z</time>
      </trkpt>
      <trkpt lat="45.98314" lon="4.85822">
        <ele>275</ele>
        <time>2018-07-03T10:02:15Z</time>
      </trkpt>
      <trkpt lat="45.98311" lon="4.85814">
        <ele>275</ele>
        <time>2018-07-03T10:02:16Z</time>
      </trkpt>
      <trkpt lat="45.98309" lon="4.85807">
        <ele>275</ele>
        <time>2018-07-03T10:02:17Z</time>
      </trkpt>
      <trkpt lat="45.98304" lon="4.85802">
        <ele>275</ele>
        <time>2018-07-03T10:02:18Z</time>
      </trkpt>
      <trkpt lat="45.98301" lon="4.85795">
        <ele>275</ele>
        <time>2018-07-03T10:02:19Z</time>
      </trkpt>
      <trkpt lat="45.98299" lon="4.85789">
        <ele>275</ele>
        <time>2018-07-03T10:02:20Z</time>
      </trkpt>
      <trkpt lat="45.98296" lon="4.85783">
        <ele>275</ele>
        <time>2018-07-03T10:02:21Z</time>
      </trkpt>
      <trkpt lat="45.98293" lon="4.85777">
        <ele>275</ele>
        <time>2018-07-03T10:02:22Z</time>
      </trkpt>
      <trkpt lat="45.98291" lon="4.85771">
        <ele>275</ele>
        <time>2018-07-03T10:02:23Z</time>
      </trkpt>
      <trkpt lat="45.98288" lon="4.85764">
        <ele>275</ele>
        <time>2018-07-03T10:02:24Z</time>
      </trkpt>
      <trkpt lat="45.98285" lon="4.85757">
        <ele>275</ele>
        <time>2018-07-03T10:02:25Z</time>
      </trkpt>
      <trkpt lat="45.98281" lon="4.85749">
        <ele>274</ele>
        <time>2018-07-03T10:02:26Z</time>
      </trkpt>
      <trkpt lat="45.98278" lon="4.85742">
        <ele>274</ele>
        <time>2018-07-03T10:02:27Z</time>
      </trkpt>
      <trkpt lat="45.98276" lon="4.85735">
        <ele>274</ele>
        <time>2018-07-03T10:02:28Z</time>
      </trkpt>
      <trkpt lat="45.98273" lon="4.85727">
        <ele>274</ele>
        <time>2018-07-03T10:02:29Z</time>
      </trkpt>
      <trkpt lat="45.98271" lon="4.8572">
        <ele>275</ele>
        <time>2018-07-03T10:02:30Z</time>
      </trkpt>
      <trkpt lat="45.98267" lon="4.85712">
        <ele>275</ele>
        <time>2018-07-03T10:02:31Z</time>
      </trkpt>
      <trkpt lat="45.98264" lon="4.85705">
        <ele>275</ele>
        <time>2018-07-03T10:02:32Z</time>
      </trkpt>
      <trkpt lat="45.98262" lon="4.85698">
        <ele>275</ele>
        <time>2018-07-03T10:02:33Z</time>
      </trkpt>
      <trkpt lat="45.98258" lon="4.85691">
        <ele>275</ele>
        <time>2018-07-03T10:02:34Z</time>
      </trkpt>
      <trkpt lat="45.98256" lon="4.85685">
        <ele>275</ele>
        <time>2018-07-03T10:02:35Z</time>
      </trkpt>
      <trkpt lat="45.98251" lon="4.85677">
        <ele>275</ele>
        <time>2018-07-03T10:02:36Z</time>
      </trkpt>
      <trkpt lat="45.98248" lon="4.85669">
        <ele>276</ele>
        <time>2018-07-03T10:02:37Z</time>
      </trkpt>
      <trkpt lat="45.98244" lon="4.85661">
        <ele>276</ele>
        <time>2018-07-03T10:02:38Z</time>
      </trkpt>
      <trkpt lat="45.98241" lon="4.85653">
        <ele>276</ele>
        <time>2018-07-03T10:02:39Z</time>
      </trkpt>
      <trkpt lat="45.98238" lon="4.85645">
        <ele>277</ele>
        <time>2018-07-03T10:02:40Z</time>
      </trkpt>
      <trkpt lat="45.98234" lon="4.85636">
        <ele>277</ele>
        <time>2018-07-03T10:02:41Z</time>
      </trkpt>
      <trkpt lat="45.98231" lon="4.85627">
        <ele>277</ele>
        <time>2018-07-03T10:02:42Z</time>
      </trkpt>
      <trkpt lat="45.98228" lon="4.85618">
        <ele>277</ele>
        <time>2018-07-03T10:02:43Z</time>
      </trkpt>
      <trkpt lat="45.98225" lon="4.8561">
        <ele>277</ele>
        <time>2018-07-03T10:02:44Z</time>
      </trkpt>
      <trkpt lat="45.98222" lon="4.85604">
        <ele>277</ele>
        <time>2018-07-03T10:02:45Z</time>
      </trkpt>
      <trkpt lat="45.98219" lon="4.85597">
        <ele>277</ele>
        <time>2018-07-03T10:02:46Z</time>
      </trkpt>
      <trkpt lat="45.98215" lon="4.8559">
        <ele>277</ele>
        <time>2018-07-03T10:02:47Z</time>
      </trkpt>
      <trkpt lat="45.98212" lon="4.85583">
        <ele>276</ele>
        <time>2018-07-03T10:02:48Z</time>
      </trkpt>
      <trkpt lat="45.9821" lon="4.85576">
        <ele>276</ele>
        <time>2018-07-03T10:02:49Z</time>
      </trkpt>
      <trkpt lat="45.98207" lon="4.85568">
        <ele>276</ele>
        <time>2018-07-03T10:02:50Z</time>
      </trkpt>
      <trkpt lat="45.98204" lon="4.85561">
        <ele>276</ele>
        <time>2018-07-03T10:02:51Z</time>
      </trkpt>
      <trkpt lat="45.98202" lon="4.85555">
        <ele>276</ele>
        <time>2018-07-03T10:02:52Z</time>
      </trkpt>
      <trkpt lat="45.982" lon="4.85548">
        <ele>276</ele>
        <time>2018-07-03T10:02:53Z</time>
      </trkpt>
      <trkpt lat="45.98196" lon="4.8554">
        <ele>276</ele>
        <time>2018-07-03T10:02:54Z</time>
      </trkpt>
      <trkpt lat="45.98193" lon="4.85533">
        <ele>276</ele>
        <time>2018-07-03T10:02:55Z</time>
      </trkpt>
      <trkpt lat="45.98192" lon="4.85527">
        <ele>276</ele>
        <time>2018-07-03T10:02:56Z</time>
      </trkpt>
      <trkpt lat="45.98187" lon="4.85519">
        <ele>275</ele>
        <time>2018-07-03T10:02:57Z</time>
      </trkpt>
      <trkpt lat="45.98183" lon="4.85511">
        <ele>275</ele>
        <time>2018-07-03T10:02:58Z</time>
      </trkpt>
      <trkpt lat="45.9818" lon="4.85504">
        <ele>275</ele>
        <time>2018-07-03T10:02:59Z</time>
      </trkpt>
      <trkpt lat="45.98179" lon="4.85496">
        <ele>275</ele>
        <time>2018-07-03T10:03:00Z</time>
      </trkpt>
      <trkpt lat="45.98176" lon="4.85489">
        <ele>275</ele>
        <time>2018-07-03T10:03:01Z</time>
      </trkpt>
      <trkpt lat="45.98172" lon="4.85482">
        <ele>275</ele>
        <time>2018-07-03T10:03:02Z</time>
      </trkpt>
      <trkpt lat="45.9817" lon="4.85475">
        <ele>275</ele>
        <time>2018-07-03T10:03:03Z</time>
      </trkpt>
      <trkpt lat="45.98168" lon="4.85468">
        <ele>275</ele>
        <time>2018-07-03T10:03:04Z</time>
      </trkpt>
      <trkpt lat="45.98166" lon="4.85461">
        <ele>275</ele>
        <time>2018-07-03T10:03:05Z</time>
      </trkpt>
      <trkpt lat="45.98163" lon="4.85453">
        <ele>276</ele>
        <time>2018-07-03T10:03:06Z</time>
      </trkpt>
      <trkpt lat="45.98161" lon="4.85447">
        <ele>276</ele>
        <time>2018-07-03T10:03:07Z</time>
      </trkpt>
      <trkpt lat="45.98157" lon="4.85441">
        <ele>276</ele>
        <time>2018-07-03T10:03:08Z</time>
      </trkpt>
      <trkpt lat="45.98154" lon="4.85434">
        <ele>276</ele>
        <time>2018-07-03T10:03:09Z</time>
      </trkpt>
      <trkpt lat="45.98152" lon="4.85427">
        <ele>276</ele>
        <time>2018-07-03T10:03:10Z</time>
      </trkpt>
      <trkpt lat="45.9815" lon="4.85419">
        <ele>276</ele>
        <time>2018-07-03T10:03:11Z</time>
      </trkpt>
      <trkpt lat="45.98148" lon="4.85412">
        <ele>276</ele>
        <time>2018-07-03T10:03:12Z</time>
      </trkpt>
      <trkpt lat="45.98145" lon="4.85405">
        <ele>276</ele>
        <time>2018-07-03T10:03:13Z</time>
      </trkpt>
      <trkpt lat="45.98142" lon="4.85398">
        <ele>276</ele>
        <time>2018-07-03T10:03:14Z</time>
      </trkpt>
      <trkpt lat="45.98139" lon="4.85391">
        <ele>276</ele>
        <time>2018-07-03T10:03:15Z</time>
      </trkpt>
      <trkpt lat="45.98136" lon="4.85384">
        <ele>276</ele>
        <time>2018-07-03T10:03:16Z</time>
      </trkpt>
      <trkpt lat="45.98131" lon="4.85375">
        <ele>276</ele>
        <time>2018-07-03T10:03:17Z</time>
      </trkpt>
      <trkpt lat="45.98128" lon="4.85366">
        <ele>276</ele>
        <time>2018-07-03T10:03:18Z</time>
      </trkpt>
      <trkpt lat="45.98125" lon="4.85358">
        <ele>276</ele>
        <time>2018-07-03T10:03:19Z</time>
      </trkpt>
      <trkpt lat="45.9812" lon="4.8535">
        <ele>276</ele>
        <time>2018-07-03T10:03:20Z</time>
      </trkpt>
      <trkpt lat="45.98115" lon="4.85343">
        <ele>276</ele>
        <time>2018-07-03T10:03:21Z</time>
      </trkpt>
      <trkpt lat="45.98112" lon="4.85336">
        <ele>276</ele>
        <time>2018-07-03T10:03:22Z</time>
      </trkpt>
      <trkpt lat="45.98109" lon="4.85329">
        <ele>276</ele>
        <time>2018-07-03T10:03:23Z</time>
      </trkpt>
      <trkpt lat="45.98106" lon="4.85322">
        <ele>276</ele>
        <time>2018-07-03T10:03:24Z</time>
      </trkpt>
      <trkpt lat="45.98103" lon="4.85314">
        <ele>276</ele>
        <time>2018-07-03T10:03:25Z</time>
      </trkpt>
      <trkpt lat="45.98101" lon="4.85307">
        <ele>276</ele>
        <time>2018-07-03T10:03:26Z</time>
      </trkpt>
      <trkpt lat="45.98099" lon="4.853">
        <ele>276</ele>
        <time>2018-07-03T10:03:27Z</time>
      </trkpt>
      <trkpt lat="45.98095" lon="4.85293">
        <ele>276</ele>
        <time>2018-07-03T10:03:28Z</time>
      </trkpt>
      <trkpt lat="45.98092" lon="4.85288">
        <ele>276</ele>
        <time>2018-07-03T10:03:29Z</time>
      </trkpt>
      <trkpt lat="45.98089" lon="4.85282">
        <ele>276</ele>
        <time>2018-07-03T10:03:30Z</time>
      </trkpt>
      <trkpt lat="45.98085" lon="4.85276">
        <ele>276</ele>
        <time>2018-07-03T10:03:31Z</time>
      </trkpt>
      <trkpt lat="45.98082" lon="4.85271">
        <ele>276</ele>
        <time>2018-07-03T10:03:32Z</time>
      </trkpt>
      <trkpt lat="45.98078" lon="4.85265">
        <ele>276</ele>
        <time>2018-07-03T10:03:33Z</time>
      </trkpt>
      <trkpt lat="45.98075" lon="4.85261">
        <ele>276</ele>
        <time>2018-07-03T10:03:34Z</time>
      </trkpt>
      <trkpt lat="45.98073" lon="4.85254">
        <ele>276</ele>
        <time>2018-07-03T10:03:35Z</time>
      </trkpt>
      <trkpt lat="45.9807" lon="4.85249">
        <ele>276</ele>
        <time>2018-07-03T10:03:36Z</time>
      </trkpt>
      <trkpt lat="45.98067" lon="4.85243">
        <ele>276</ele>
        <time>2018-07-03T10:03:37Z</time>
      </trkpt>
      <trkpt lat="45.98064" lon="4.85238">
        <ele>276</ele>
        <time>2018-07-03T10:03:38Z</time>
      </trkpt>
      <trkpt lat="45.9806" lon="4.85234">
        <ele>276</ele>
        <time>2018-07-03T10:03:39Z</time>
      </trkpt>
      <trkpt lat="45.98057" lon="4.85229">
        <ele>276</ele>
        <time>2018-07-03T10:03:40Z</time>
      </trkpt>
      <trkpt lat="45.98057" lon="4.85218">
        <ele>276</ele>
        <time>2018-07-03T10:03:44Z</time>
      </trkpt>
      <trkpt lat="45.98053" lon="4.85206">
        <ele>276</ele>
        <time>2018-07-03T10:03:45Z</time>
      </trkpt>
      <trkpt lat="45.9805" lon="4.852">
        <ele>276</ele>
        <time>2018-07-03T10:03:46Z</time>
      </trkpt>
      <trkpt lat="45.98048" lon="4.85193">
        <ele>276</ele>
        <time>2018-07-03T10:03:47Z</time>
      </trkpt>
      <trkpt lat="45.98047" lon="4.85185">
        <ele>276</ele>
        <time>2018-07-03T10:03:48Z</time>
      </trkpt>
      <trkpt lat="45.98045" lon="4.8518">
        <ele>276</ele>
        <time>2018-07-03T10:03:49Z</time>
      </trkpt>
      <trkpt lat="45.98043" lon="4.85173">
        <ele>275</ele>
        <time>2018-07-03T10:03:50Z</time>
      </trkpt>
      <trkpt lat="45.9804" lon="4.85167">
        <ele>275</ele>
        <time>2018-07-03T10:03:51Z</time>
      </trkpt>
      <trkpt lat="45.98039" lon="4.85161">
        <ele>275</ele>
        <time>2018-07-03T10:03:52Z</time>
      </trkpt>
      <trkpt lat="45.98037" lon="4.85153">
        <ele>275</ele>
        <time>2018-07-03T10:03:53Z</time>
      </trkpt>
      <trkpt lat="45.98035" lon="4.85145">
        <ele>275</ele>
        <time>2018-07-03T10:03:54Z</time>
      </trkpt>
      <trkpt lat="45.98034" lon="4.85138">
        <ele>275</ele>
        <time>2018-07-03T10:03:55Z</time>
      </trkpt>
      <trkpt lat="45.98031" lon="4.8513">
        <ele>274</ele>
        <time>2018-07-03T10:03:56Z</time>
      </trkpt>
      <trkpt lat="45.98031" lon="4.85121">
        <ele>274</ele>
        <time>2018-07-03T10:03:57Z</time>
      </trkpt>
      <trkpt lat="45.98028" lon="4.85112">
        <ele>274</ele>
        <time>2018-07-03T10:03:58Z</time>
      </trkpt>
      <trkpt lat="45.98026" lon="4.85103">
        <ele>274</ele>
        <time>2018-07-03T10:03:59Z</time>
      </trkpt>
      <trkpt lat="45.98025" lon="4.85095">
        <ele>274</ele>
        <time>2018-07-03T10:04:00Z</time>
      </trkpt>
      <trkpt lat="45.98024" lon="4.85086">
        <ele>274</ele>
        <time>2018-07-03T10:04:01Z</time>
      </trkpt>
      <trkpt lat="45.98024" lon="4.85077">
        <ele>273</ele>
        <time>2018-07-03T10:04:02Z</time>
      </trkpt>
      <trkpt lat="45.98022" lon="4.85068">
        <ele>273</ele>
        <time>2018-07-03T10:04:03Z</time>
      </trkpt>
      <trkpt lat="45.98023" lon="4.8506">
        <ele>273</ele>
        <time>2018-07-03T10:04:04Z</time>
      </trkpt>
      <trkpt lat="45.98023" lon="4.85052">
        <ele>273</ele>
        <time>2018-07-03T10:04:05Z</time>
      </trkpt>
      <trkpt lat="45.98024" lon="4.85044">
        <ele>273</ele>
        <time>2018-07-03T10:04:06Z</time>
      </trkpt>
      <trkpt lat="45.98025" lon="4.85035">
        <ele>273</ele>
        <time>2018-07-03T10:04:07Z</time>
      </trkpt>
      <trkpt lat="45.98025" lon="4.85028">
        <ele>273</ele>
        <time>2018-07-03T10:04:08Z</time>
      </trkpt>
      <trkpt lat="45.98024" lon="4.8502">
        <ele>273</ele>
        <time>2018-07-03T10:04:09Z</time>
      </trkpt>
      <trkpt lat="45.98023" lon="4.85011">
        <ele>273</ele>
        <time>2018-07-03T10:04:10Z</time>
      </trkpt>
      <trkpt lat="45.98022" lon="4.85003">
        <ele>273</ele>
        <time>2018-07-03T10:04:11Z</time>
      </trkpt>
      <trkpt lat="45.98021" lon="4.84994">
        <ele>272</ele>
        <time>2018-07-03T10:04:12Z</time>
      </trkpt>
      <trkpt lat="45.98019" lon="4.84986">
        <ele>272</ele>
        <time>2018-07-03T10:04:13Z</time>
      </trkpt>
      <trkpt lat="45.98019" lon="4.84977">
        <ele>272</ele>
        <time>2018-07-03T10:04:14Z</time>
      </trkpt>
      <trkpt lat="45.98018" lon="4.84967">
        <ele>272</ele>
        <time>2018-07-03T10:04:15Z</time>
      </trkpt>
      <trkpt lat="45.98016" lon="4.84957">
        <ele>272</ele>
        <time>2018-07-03T10:04:16Z</time>
      </trkpt>
      <trkpt lat="45.98015" lon="4.84948">
        <ele>272</ele>
        <time>2018-07-03T10:04:17Z</time>
      </trkpt>
      <trkpt lat="45.98014" lon="4.8494">
        <ele>272</ele>
        <time>2018-07-03T10:04:18Z</time>
      </trkpt>
      <trkpt lat="45.98012" lon="4.8493">
        <ele>272</ele>
        <time>2018-07-03T10:04:19Z</time>
      </trkpt>
      <trkpt lat="45.98011" lon="4.84923">
        <ele>272</ele>
        <time>2018-07-03T10:04:20Z</time>
      </trkpt>
      <trkpt lat="45.98009" lon="4.84914">
        <ele>272</ele>
        <time>2018-07-03T10:04:21Z</time>
      </trkpt>
      <trkpt lat="45.98009" lon="4.84906">
        <ele>272</ele>
        <time>2018-07-03T10:04:22Z</time>
      </trkpt>
      <trkpt lat="45.98007" lon="4.84898">
        <ele>272</ele>
        <time>2018-07-03T10:04:23Z</time>
      </trkpt>
      <trkpt lat="45.98007" lon="4.84891">
        <ele>272</ele>
        <time>2018-07-03T10:04:24Z</time>
      </trkpt>
      <trkpt lat="45.98005" lon="4.84883">
        <ele>272</ele>
        <time>2018-07-03T10:04:25Z</time>
      </trkpt>
      <trkpt lat="45.98004" lon="4.84876">
        <ele>272</ele>
        <time>2018-07-03T10:04:26Z</time>
      </trkpt>
      <trkpt lat="45.98003" lon="4.84868">
        <ele>272</ele>
        <time>2018-07-03T10:04:27Z</time>
      </trkpt>
      <trkpt lat="45.98002" lon="4.8486">
        <ele>272</ele>
        <time>2018-07-03T10:04:28Z</time>
      </trkpt>
      <trkpt lat="45.98" lon="4.84854">
        <ele>272</ele>
        <time>2018-07-03T10:04:29Z</time>
      </trkpt>
      <trkpt lat="45.97999" lon="4.84847">
        <ele>272</ele>
        <time>2018-07-03T10:04:30Z</time>
      </trkpt>
      <trkpt lat="45.97997" lon="4.8484">
        <ele>272</ele>
        <time>2018-07-03T10:04:31Z</time>
      </trkpt>
      <trkpt lat="45.97997" lon="4.84832">
        <ele>272</ele>
        <time>2018-07-03T10:04:32Z</time>
      </trkpt>
      <trkpt lat="45.97997" lon="4.84824">
        <ele>273</ele>
        <time>2018-07-03T10:04:33Z</time>
      </trkpt>
      <trkpt lat="45.97996" lon="4.84817">
        <ele>273</ele>
        <time>2018-07-03T10:04:34Z</time>
      </trkpt>
      <trkpt lat="45.97997" lon="4.84809">
        <ele>273</ele>
        <time>2018-07-03T10:04:35Z</time>
      </trkpt>
      <trkpt lat="45.97996" lon="4.848">
        <ele>274</ele>
        <time>2018-07-03T10:04:36Z</time>
      </trkpt>
      <trkpt lat="45.97995" lon="4.84793">
        <ele>274</ele>
        <time>2018-07-03T10:04:37Z</time>
      </trkpt>
      <trkpt lat="45.97994" lon="4.84785">
        <ele>274</ele>
        <time>2018-07-03T10:04:38Z</time>
      </trkpt>
      <trkpt lat="45.97994" lon="4.84777">
        <ele>274</ele>
        <time>2018-07-03T10:04:39Z</time>
      </trkpt>
      <trkpt lat="45.97994" lon="4.8477">
        <ele>274</ele>
        <time>2018-07-03T10:04:40Z</time>
      </trkpt>
      <trkpt lat="45.97993" lon="4.84762">
        <ele>275</ele>
        <time>2018-07-03T10:04:41Z</time>
      </trkpt>
      <trkpt lat="45.97993" lon="4.84755">
        <ele>275</ele>
        <time>2018-07-03T10:04:42Z</time>
      </trkpt>
      <trkpt lat="45.97993" lon="4.84746">
        <ele>275</ele>
        <time>2018-07-03T10:04:43Z</time>
      </trkpt>
      <trkpt lat="45.97991" lon="4.84738">
        <ele>275</ele>
        <time>2018-07-03T10:04:44Z</time>
      </trkpt>
      <trkpt lat="45.97991" lon="4.84732">
        <ele>275</ele>
        <time>2018-07-03T10:04:45Z</time>
      </trkpt>
      <trkpt lat="45.97989" lon="4.84725">
        <ele>275</ele>
        <time>2018-07-03T10:04:46Z</time>
      </trkpt>
      <trkpt lat="45.97989" lon="4.84718">
        <ele>275</ele>
        <time>2018-07-03T10:04:47Z</time>
      </trkpt>
      <trkpt lat="45.97987" lon="4.84712">
        <ele>275</ele>
        <time>2018-07-03T10:04:48Z</time>
      </trkpt>
      <trkpt lat="45.97986" lon="4.84705">
        <ele>275</ele>
        <time>2018-07-03T10:04:49Z</time>
      </trkpt>
      <trkpt lat="45.97986" lon="4.84698">
        <ele>275</ele>
        <time>2018-07-03T10:04:50Z</time>
      </trkpt>
      <trkpt lat="45.97984" lon="4.8469">
        <ele>275</ele>
        <time>2018-07-03T10:04:51Z</time>
      </trkpt>
      <trkpt lat="45.97984" lon="4.84683">
        <ele>275</ele>
        <time>2018-07-03T10:04:52Z</time>
      </trkpt>
      <trkpt lat="45.97984" lon="4.84675">
        <ele>275</ele>
        <time>2018-07-03T10:04:53Z</time>
      </trkpt>
      <trkpt lat="45.97983" lon="4.84666">
        <ele>274</ele>
        <time>2018-07-03T10:04:54Z</time>
      </trkpt>
      <trkpt lat="45.97981" lon="4.84657">
        <ele>274</ele>
        <time>2018-07-03T10:04:55Z</time>
      </trkpt>
      <trkpt lat="45.9798" lon="4.8465">
        <ele>275</ele>
        <time>2018-07-03T10:04:56Z</time>
      </trkpt>
      <trkpt lat="45.97978" lon="4.84641">
        <ele>275</ele>
        <time>2018-07-03T10:04:57Z</time>
      </trkpt>
      <trkpt lat="45.97978" lon="4.84633">
        <ele>275</ele>
        <time>2018-07-03T10:04:58Z</time>
      </trkpt>
      <trkpt lat="45.97977" lon="4.84625">
        <ele>275</ele>
        <time>2018-07-03T10:04:59Z</time>
      </trkpt>
      <trkpt lat="45.97976" lon="4.84616">
        <ele>275</ele>
        <time>2018-07-03T10:05:00Z</time>
      </trkpt>
      <trkpt lat="45.97974" lon="4.84608">
        <ele>275</ele>
        <time>2018-07-03T10:05:01Z</time>
      </trkpt>
      <trkpt lat="45.97972" lon="4.84599">
        <ele>275</ele>
        <time>2018-07-03T10:05:02Z</time>
      </trkpt>
      <trkpt lat="45.97972" lon="4.84591">
        <ele>275</ele>
        <time>2018-07-03T10:05:03Z</time>
      </trkpt>
      <trkpt lat="45.97971" lon="4.84583">
        <ele>275</ele>
        <time>2018-07-03T10:05:04Z</time>
      </trkpt>
      <trkpt lat="45.97969" lon="4.84574">
        <ele>275</ele>
        <time>2018-07-03T10:05:05Z</time>
      </trkpt>
      <trkpt lat="45.97967" lon="4.84567">
        <ele>275</ele>
        <time>2018-07-03T10:05:06Z</time>
      </trkpt>
      <trkpt lat="45.97966" lon="4.84559">
        <ele>275</ele>
        <time>2018-07-03T10:05:07Z</time>
      </trkpt>
      <trkpt lat="45.97965" lon="4.84552">
        <ele>275</ele>
        <time>2018-07-03T10:05:08Z</time>
      </trkpt>
      <trkpt lat="45.97964" lon="4.84545">
        <ele>275</ele>
        <time>2018-07-03T10:05:09Z</time>
      </trkpt>
      <trkpt lat="45.97963" lon="4.84538">
        <ele>275</ele>
        <time>2018-07-03T10:05:10Z</time>
      </trkpt>
      <trkpt lat="45.97962" lon="4.84531">
        <ele>275</ele>
        <time>2018-07-03T10:05:11Z</time>
      </trkpt>
      <trkpt lat="45.97959" lon="4.84523">
        <ele>275</ele>
        <time>2018-07-03T10:05:12Z</time>
      </trkpt>
      <trkpt lat="45.97956" lon="4.84514">
        <ele>275</ele>
        <time>2018-07-03T10:05:13Z</time>
      </trkpt>
      <trkpt lat="45.97955" lon="4.84506">
        <ele>275</ele>
        <time>2018-07-03T10:05:14Z</time>
      </trkpt>
      <trkpt lat="45.97952" lon="4.84497">
        <ele>275</ele>
        <time>2018-07-03T10:05:15Z</time>
      </trkpt>
      <trkpt lat="45.97951" lon="4.84488">
        <ele>275</ele>
        <time>2018-07-03T10:05:16Z</time>
      </trkpt>
      <trkpt lat="45.9795" lon="4.84479">
        <ele>275</ele>
        <time>2018-07-03T10:05:17Z</time>
      </trkpt>
      <trkpt lat="45.97949" lon="4.84471">
        <ele>275</ele>
        <time>2018-07-03T10:05:18Z</time>
      </trkpt>
      <trkpt lat="45.97948" lon="4.84464">
        <ele>275</ele>
        <time>2018-07-03T10:05:19Z</time>
      </trkpt>
      <trkpt lat="45.97947" lon="4.84456">
        <ele>275</ele>
        <time>2018-07-03T10:05:20Z</time>
      </trkpt>
      <trkpt lat="45.97947" lon="4.84448">
        <ele>275</ele>
        <time>2018-07-03T10:05:21Z</time>
      </trkpt>
      <trkpt lat="45.97946" lon="4.8444">
        <ele>275</ele>
        <time>2018-07-03T10:05:22Z</time>
      </trkpt>
      <trkpt lat="45.97945" lon="4.84433">
        <ele>275</ele>
        <time>2018-07-03T10:05:23Z</time>
      </trkpt>
      <trkpt lat="45.97942" lon="4.84421">
        <ele>275</ele>
        <time>2018-07-03T10:05:25Z</time>
      </trkpt>
      <trkpt lat="45.97941" lon="4.84415">
        <ele>275</ele>
        <time>2018-07-03T10:05:26Z</time>
      </trkpt>
      <trkpt lat="45.9794" lon="4.84409">
        <ele>275</ele>
        <time>2018-07-03T10:05:27Z</time>
      </trkpt>
      <trkpt lat="45.97939" lon="4.84402">
        <ele>275</ele>
        <time>2018-07-03T10:05:28Z</time>
      </trkpt>
      <trkpt lat="45.97938" lon="4.84396">
        <ele>275</ele>
        <time>2018-07-03T10:05:29Z</time>
      </trkpt>
      <trkpt lat="45.97937" lon="4.84389">
        <ele>275</ele>
        <time>2018-07-03T10:05:30Z</time>
      </trkpt>
      <trkpt lat="45.97936" lon="4.84382">
        <ele>275</ele>
        <time>2018-07-03T10:05:31Z</time>
      </trkpt>
      <trkpt lat="45.97935" lon="4.84375">
        <ele>275</ele>
        <time>2018-07-03T10:05:32Z</time>
      </trkpt>
      <trkpt lat="45.97933" lon="4.84363">
        <ele>275</ele>
        <time>2018-07-03T10:05:34Z</time>
      </trkpt>
      <trkpt lat="45.97933" lon="4.84356">
        <ele>275</ele>
        <time>2018-07-03T10:05:35Z</time>
      </trkpt>
      <trkpt lat="45.97931" lon="4.8435">
        <ele>275</ele>
        <time>2018-07-03T10:05:36Z</time>
      </trkpt>
      <trkpt lat="45.9793" lon="4.84342">
        <ele>275</ele>
        <time>2018-07-03T10:05:37Z</time>
      </trkpt>
      <trkpt lat="45.97929" lon="4.84336">
        <ele>275</ele>
        <time>2018-07-03T10:05:38Z</time>
      </trkpt>
      <trkpt lat="45.97928" lon="4.84328">
        <ele>275</ele>
        <time>2018-07-03T10:05:39Z</time>
      </trkpt>
      <trkpt lat="45.97926" lon="4.84318">
        <ele>275</ele>
        <time>2018-07-03T10:05:41Z</time>
      </trkpt>
      <trkpt lat="45.97925" lon="4.84311">
        <ele>275</ele>
        <time>2018-07-03T10:05:42Z</time>
      </trkpt>
      <trkpt lat="45.97924" lon="4.84299">
        <ele>275</ele>
        <time>2018-07-03T10:05:44Z</time>
      </trkpt>
      <trkpt lat="45.97923" lon="4.84292">
        <ele>275</ele>
        <time>2018-07-03T10:05:45Z</time>
      </trkpt>
      <trkpt lat="45.97923" lon="4.84286">
        <ele>275</ele>
        <time>2018-07-03T10:05:46Z</time>
      </trkpt>
      <trkpt lat="45.97923" lon="4.84279">
        <ele>275</ele>
        <time>2018-07-03T10:05:47Z</time>
      </trkpt>
      <trkpt lat="45.97924" lon="4.84271">
        <ele>275</ele>
        <time>2018-07-03T10:05:48Z</time>
      </trkpt>
      <trkpt lat="45.97928" lon="4.84265">
        <ele>275</ele>
        <time>2018-07-03T10:05:49Z</time>
      </trkpt>
      <trkpt lat="45.97929" lon="4.84258">
        <ele>275</ele>
        <time>2018-07-03T10:05:50Z</time>
      </trkpt>
      <trkpt lat="45.97934" lon="4.84253">
        <ele>275</ele>
        <time>2018-07-03T10:05:51Z</time>
      </trkpt>
      <trkpt lat="45.97939" lon="4.84247">
        <ele>275</ele>
        <time>2018-07-03T10:05:52Z</time>
      </trkpt>
      <trkpt lat="45.97945" lon="4.84244">
        <ele>275</ele>
        <time>2018-07-03T10:05:53Z</time>
      </trkpt>
      <trkpt lat="45.9795" lon="4.8424">
        <ele>275</ele>
        <time>2018-07-03T10:05:54Z</time>
      </trkpt>
      <trkpt lat="45.97954" lon="4.84233">
        <ele>275</ele>
        <time>2018-07-03T10:05:55Z</time>
      </trkpt>
      <trkpt lat="45.97959" lon="4.84228">
        <ele>274</ele>
        <time>2018-07-03T10:05:56Z</time>
      </trkpt>
      <trkpt lat="45.97964" lon="4.84225">
        <ele>274</ele>
        <time>2018-07-03T10:05:57Z</time>
      </trkpt>
      <trkpt lat="45.97969" lon="4.84221">
        <ele>274</ele>
        <time>2018-07-03T10:05:58Z</time>
      </trkpt>
      <trkpt lat="45.97974" lon="4.84216">
        <ele>274</ele>
        <time>2018-07-03T10:05:59Z</time>
      </trkpt>
      <trkpt lat="45.97979" lon="4.84211">
        <ele>274</ele>
        <time>2018-07-03T10:06:00Z</time>
      </trkpt>
      <trkpt lat="45.97985" lon="4.84206">
        <ele>274</ele>
        <time>2018-07-03T10:06:01Z</time>
      </trkpt>
      <trkpt lat="45.97989" lon="4.84201">
        <ele>274</ele>
        <time>2018-07-03T10:06:02Z</time>
      </trkpt>
      <trkpt lat="45.97994" lon="4.84197">
        <ele>274</ele>
        <time>2018-07-03T10:06:03Z</time>
      </trkpt>
      <trkpt lat="45.97998" lon="4.84192">
        <ele>274</ele>
        <time>2018-07-03T10:06:04Z</time>
      </trkpt>
      <trkpt lat="45.98003" lon="4.84188">
        <ele>274</ele>
        <time>2018-07-03T10:06:05Z</time>
      </trkpt>
      <trkpt lat="45.98007" lon="4.84182">
        <ele>274</ele>
        <time>2018-07-03T10:06:06Z</time>
      </trkpt>
      <trkpt lat="45.98013" lon="4.84179">
        <ele>274</ele>
        <time>2018-07-03T10:06:07Z</time>
      </trkpt>
      <trkpt lat="45.98018" lon="4.84175">
        <ele>274</ele>
        <time>2018-07-03T10:06:08Z</time>
      </trkpt>
      <trkpt lat="45.98023" lon="4.84171">
        <ele>274</ele>
        <time>2018-07-03T10:06:09Z</time>
      </trkpt>
      <trkpt lat="45.98028" lon="4.84167">
        <ele>273</ele>
        <time>2018-07-03T10:06:10Z</time>
      </trkpt>
      <trkpt lat="45.98033" lon="4.8416">
        <ele>273</ele>
        <time>2018-07-03T10:06:11Z</time>
      </trkpt>
      <trkpt lat="45.98038" lon="4.84153">
        <ele>273</ele>
        <time>2018-07-03T10:06:12Z</time>
      </trkpt>
      <trkpt lat="45.98043" lon="4.84148">
        <ele>273</ele>
        <time>2018-07-03T10:06:13Z</time>
      </trkpt>
      <trkpt lat="45.98047" lon="4.84142">
        <ele>273</ele>
        <time>2018-07-03T10:06:14Z</time>
      </trkpt>
      <trkpt lat="45.98052" lon="4.84134">
        <ele>273</ele>
        <time>2018-07-03T10:06:15Z</time>
      </trkpt>
      <trkpt lat="45.98057" lon="4.8413">
        <ele>273</ele>
        <time>2018-07-03T10:06:16Z</time>
      </trkpt>
      <trkpt lat="45.98062" lon="4.84125">
        <ele>273</ele>
        <time>2018-07-03T10:06:17Z</time>
      </trkpt>
      <trkpt lat="45.98067" lon="4.84121">
        <ele>273</ele>
        <time>2018-07-03T10:06:18Z</time>
      </trkpt>
      <trkpt lat="45.98072" lon="4.84117">
        <ele>273</ele>
        <time>2018-07-03T10:06:19Z</time>
      </trkpt>
      <trkpt lat="45.98077" lon="4.8411">
        <ele>273</ele>
        <time>2018-07-03T10:06:20Z</time>
      </trkpt>
      <trkpt lat="45.98082" lon="4.84105">
        <ele>273</ele>
        <time>2018-07-03T10:06:21Z</time>
      </trkpt>
      <trkpt lat="45.98087" lon="4.84102">
        <ele>273</ele>
        <time>2018-07-03T10:06:22Z</time>
      </trkpt>
      <trkpt lat="45.98091" lon="4.84096">
        <ele>273</ele>
        <time>2018-07-03T10:06:23Z</time>
      </trkpt>
      <trkpt lat="45.98097" lon="4.84095">
        <ele>273</ele>
        <time>2018-07-03T10:06:24Z</time>
      </trkpt>
      <trkpt lat="45.98102" lon="4.8409">
        <ele>273</ele>
        <time>2018-07-03T10:06:25Z</time>
      </trkpt>
      <trkpt lat="45.98107" lon="4.84083">
        <ele>273</ele>
        <time>2018-07-03T10:06:26Z</time>
      </trkpt>
      <trkpt lat="45.98113" lon="4.84078">
        <ele>273</ele>
        <time>2018-07-03T10:06:27Z</time>
      </trkpt>
      <trkpt lat="45.98118" lon="4.84073">
        <ele>273</ele>
        <time>2018-07-03T10:06:28Z</time>
      </trkpt>
      <trkpt lat="45.98122" lon="4.84068">
        <ele>273</ele>
        <time>2018-07-03T10:06:29Z</time>
      </trkpt>
      <trkpt lat="45.98128" lon="4.84064">
        <ele>273</ele>
        <time>2018-07-03T10:06:30Z</time>
      </trkpt>
      <trkpt lat="45.98132" lon="4.84059">
        <ele>273</ele>
        <time>2018-07-03T10:06:31Z</time>
      </trkpt>
      <trkpt lat="45.98136" lon="4.84053">
        <ele>273</ele>
        <time>2018-07-03T10:06:32Z</time>
      </trkpt>
      <trkpt lat="45.98141" lon="4.84048">
        <ele>273</ele>
        <time>2018-07-03T10:06:33Z</time>
      </trkpt>
      <trkpt lat="45.98144" lon="4.84041">
        <ele>273</ele>
        <time>2018-07-03T10:06:34Z</time>
      </trkpt>
      <trkpt lat="45.98148" lon="4.84034">
        <ele>273</ele>
        <time>2018-07-03T10:06:35Z</time>
      </trkpt>
      <trkpt lat="45.98153" lon="4.84028">
        <ele>273</ele>
        <time>2018-07-03T10:06:36Z</time>
      </trkpt>
      <trkpt lat="45.98157" lon="4.84021">
        <ele>273</ele>
        <time>2018-07-03T10:06:37Z</time>
      </trkpt>
      <trkpt lat="45.98161" lon="4.84016">
        <ele>273</ele>
        <time>2018-07-03T10:06:38Z</time>
      </trkpt>
      <trkpt lat="45.98165" lon="4.84007">
        <ele>273</ele>
        <time>2018-07-03T10:06:39Z</time>
      </trkpt>
      <trkpt lat="45.98169" lon="4.83999">
        <ele>273</ele>
        <time>2018-07-03T10:06:40Z</time>
      </trkpt>
      <trkpt lat="45.98173" lon="4.83992">
        <ele>273</ele>
        <time>2018-07-03T10:06:41Z</time>
      </trkpt>
      <trkpt lat="45.98176" lon="4.83984">
        <ele>273</ele>
        <time>2018-07-03T10:06:42Z</time>
      </trkpt>
      <trkpt lat="45.9818" lon="4.83975">
        <ele>273</ele>
        <time>2018-07-03T10:06:43Z</time>
      </trkpt>
      <trkpt lat="45.98183" lon="4.83968">
        <ele>273</ele>
        <time>2018-07-03T10:06:44Z</time>
      </trkpt>
      <trkpt lat="45.98185" lon="4.8396">
        <ele>273</ele>
        <time>2018-07-03T10:06:45Z</time>
      </trkpt>
      <trkpt lat="45.98188" lon="4.83952">
        <ele>273</ele>
        <time>2018-07-03T10:06:46Z</time>
      </trkpt>
      <trkpt lat="45.98191" lon="4.83943">
        <ele>273</ele>
        <time>2018-07-03T10:06:47Z</time>
      </trkpt>
      <trkpt lat="45.98193" lon="4.83935">
        <ele>273</ele>
        <time>2018-07-03T10:06:48Z</time>
      </trkpt>
      <trkpt lat="45.98196" lon="4.83928">
        <ele>273</ele>
        <time>2018-07-03T10:06:49Z</time>
      </trkpt>
      <trkpt lat="45.98199" lon="4.8392">
        <ele>273</ele>
        <time>2018-07-03T10:06:50Z</time>
      </trkpt>
      <trkpt lat="45.98201" lon="4.83913">
        <ele>273</ele>
        <time>2018-07-03T10:06:51Z</time>
      </trkpt>
      <trkpt lat="45.98204" lon="4.83905">
        <ele>273</ele>
        <time>2018-07-03T10:06:52Z</time>
      </trkpt>
      <trkpt lat="45.98206" lon="4.83898">
        <ele>273</ele>
        <time>2018-07-03T10:06:53Z</time>
      </trkpt>
      <trkpt lat="45.98208" lon="4.83891">
        <ele>273</ele>
        <time>2018-07-03T10:06:54Z</time>
      </trkpt>
      <trkpt lat="45.98211" lon="4.83885">
        <ele>273</ele>
        <time>2018-07-03T10:06:55Z</time>
      </trkpt>
      <trkpt lat="45.98214" lon="4.8388">
        <ele>272</ele>
        <time>2018-07-03T10:06:56Z</time>
      </trkpt>
      <trkpt lat="45.98218" lon="4.83872">
        <ele>272</ele>
        <time>2018-07-03T10:06:57Z</time>
      </trkpt>
      <trkpt lat="45.98221" lon="4.83864">
        <ele>272</ele>
        <time>2018-07-03T10:06:58Z</time>
      </trkpt>
      <trkpt lat="45.98224" lon="4.83856">
        <ele>272</ele>
        <time>2018-07-03T10:06:59Z</time>
      </trkpt>
      <trkpt lat="45.98227" lon="4.8385">
        <ele>272</ele>
        <time>2018-07-03T10:07:00Z</time>
      </trkpt>
      <trkpt lat="45.9823" lon="4.83843">
        <ele>272</ele>
        <time>2018-07-03T10:07:01Z</time>
      </trkpt>
      <trkpt lat="45.98232" lon="4.83836">
        <ele>272</ele>
        <time>2018-07-03T10:07:02Z</time>
      </trkpt>
      <trkpt lat="45.98236" lon="4.83828">
        <ele>272</ele>
        <time>2018-07-03T10:07:03Z</time>
      </trkpt>
      <trkpt lat="45.98239" lon="4.83819">
        <ele>272</ele>
        <time>2018-07-03T10:07:04Z</time>
      </trkpt>
      <trkpt lat="45.98242" lon="4.83811">
        <ele>272</ele>
        <time>2018-07-03T10:07:05Z</time>
      </trkpt>
      <trkpt lat="45.98245" lon="4.83805">
        <ele>272</ele>
        <time>2018-07-03T10:07:06Z</time>
      </trkpt>
      <trkpt lat="45.98247" lon="4.83796">
        <ele>272</ele>
        <time>2018-07-03T10:07:07Z</time>
      </trkpt>
      <trkpt lat="45.9825" lon="4.83789">
        <ele>272</ele>
        <time>2018-07-03T10:07:08Z</time>
      </trkpt>
      <trkpt lat="45.98254" lon="4.83784">
        <ele>272</ele>
        <time>2018-07-03T10:07:09Z</time>
      </trkpt>
      <trkpt lat="45.98256" lon="4.83774">
        <ele>272</ele>
        <time>2018-07-03T10:07:10Z</time>
      </trkpt>
      <trkpt lat="45.98259" lon="4.83766">
        <ele>272</ele>
        <time>2018-07-03T10:07:11Z</time>
      </trkpt>
      <trkpt lat="45.98261" lon="4.83759">
        <ele>272</ele>
        <time>2018-07-03T10:07:12Z</time>
      </trkpt>
      <trkpt lat="45.98264" lon="4.8375">
        <ele>272</ele>
        <time>2018-07-03T10:07:13Z</time>
      </trkpt>
      <trkpt lat="45.98265" lon="4.8374">
        <ele>272</ele>
        <time>2018-07-03T10:07:14Z</time>
      </trkpt>
      <trkpt lat="45.98268" lon="4.83733">
        <ele>272</ele>
        <time>2018-07-03T10:07:15Z</time>
      </trkpt>
      <trkpt lat="45.98271" lon="4.83724">
        <ele>272</ele>
        <time>2018-07-03T10:07:16Z</time>
      </trkpt>
      <trkpt lat="45.98273" lon="4.83715">
        <ele>272</ele>
        <time>2018-07-03T10:07:17Z</time>
      </trkpt>
      <trkpt lat="45.98275" lon="4.83705">
        <ele>272</ele>
        <time>2018-07-03T10:07:18Z</time>
      </trkpt>
      <trkpt lat="45.98278" lon="4.83699">
        <ele>272</ele>
        <time>2018-07-03T10:07:19Z</time>
      </trkpt>
      <trkpt lat="45.98281" lon="4.8369">
        <ele>272</ele>
        <time>2018-07-03T10:07:20Z</time>
      </trkpt>
      <trkpt lat="45.98285" lon="4.83681">
        <ele>272</ele>
        <time>2018-07-03T10:07:21Z</time>
      </trkpt>
      <trkpt lat="45.98288" lon="4.83671">
        <ele>272</ele>
        <time>2018-07-03T10:07:22Z</time>
      </trkpt>
      <trkpt lat="45.98291" lon="4.83663">
        <ele>272</ele>
        <time>2018-07-03T10:07:23Z</time>
      </trkpt>
      <trkpt lat="45.98294" lon="4.83656">
        <ele>271</ele>
        <time>2018-07-03T10:07:24Z</time>
      </trkpt>
      <trkpt lat="45.98297" lon="4.83649">
        <ele>271</ele>
        <time>2018-07-03T10:07:25Z</time>
      </trkpt>
      <trkpt lat="45.983" lon="4.83643">
        <ele>271</ele>
        <time>2018-07-03T10:07:26Z</time>
      </trkpt>
      <trkpt lat="45.98302" lon="4.83635">
        <ele>271</ele>
        <time>2018-07-03T10:07:27Z</time>
      </trkpt>
      <trkpt lat="45.98305" lon="4.83629">
        <ele>271</ele>
        <time>2018-07-03T10:07:28Z</time>
      </trkpt>
      <trkpt lat="45.98309" lon="4.83622">
        <ele>271</ele>
        <time>2018-07-03T10:07:29Z</time>
      </trkpt>
      <trkpt lat="45.98313" lon="4.83617">
        <ele>271</ele>
        <time>2018-07-03T10:07:30Z</time>
      </trkpt>
      <trkpt lat="45.98317" lon="4.83605">
        <ele>271</ele>
        <time>2018-07-03T10:07:31Z</time>
      </trkpt>
      <trkpt lat="45.98318" lon="4.83599">
        <ele>271</ele>
        <time>2018-07-03T10:07:32Z</time>
      </trkpt>
      <trkpt lat="45.98323" lon="4.83593">
        <ele>271</ele>
        <time>2018-07-03T10:07:33Z</time>
      </trkpt>
      <trkpt lat="45.98327" lon="4.83585">
        <ele>270</ele>
        <time>2018-07-03T10:07:34Z</time>
      </trkpt>
      <trkpt lat="45.98331" lon="4.83582">
        <ele>270</ele>
        <time>2018-07-03T10:07:35Z</time>
      </trkpt>
      <trkpt lat="45.98335" lon="4.83578">
        <ele>270</ele>
        <time>2018-07-03T10:07:36Z</time>
      </trkpt>
      <trkpt lat="45.9834" lon="4.83573">
        <ele>270</ele>
        <time>2018-07-03T10:07:37Z</time>
      </trkpt>
      <trkpt lat="45.98345" lon="4.83568">
        <ele>269</ele>
        <time>2018-07-03T10:07:38Z</time>
      </trkpt>
      <trkpt lat="45.9835" lon="4.83562">
        <ele>269</ele>
        <time>2018-07-03T10:07:39Z</time>
      </trkpt>
      <trkpt lat="45.98355" lon="4.83556">
        <ele>269</ele>
        <time>2018-07-03T10:07:40Z</time>
      </trkpt>
      <trkpt lat="45.98359" lon="4.8355">
        <ele>269</ele>
        <time>2018-07-03T10:07:41Z</time>
      </trkpt>
      <trkpt lat="45.98365" lon="4.83544">
        <ele>269</ele>
        <time>2018-07-03T10:07:42Z</time>
      </trkpt>
      <trkpt lat="45.9837" lon="4.83538">
        <ele>269</ele>
        <time>2018-07-03T10:07:43Z</time>
      </trkpt>
      <trkpt lat="45.98375" lon="4.83533">
        <ele>269</ele>
        <time>2018-07-03T10:07:44Z</time>
      </trkpt>
      <trkpt lat="45.98381" lon="4.83525">
        <ele>269</ele>
        <time>2018-07-03T10:07:45Z</time>
      </trkpt>
      <trkpt lat="45.98385" lon="4.83519">
        <ele>269</ele>
        <time>2018-07-03T10:07:46Z</time>
      </trkpt>
      <trkpt lat="45.9839" lon="4.83512">
        <ele>269</ele>
        <time>2018-07-03T10:07:47Z</time>
      </trkpt>
      <trkpt lat="45.98394" lon="4.83506">
        <ele>269</ele>
        <time>2018-07-03T10:07:48Z</time>
      </trkpt>
      <trkpt lat="45.98399" lon="4.83501">
        <ele>269</ele>
        <time>2018-07-03T10:07:49Z</time>
      </trkpt>
      <trkpt lat="45.98404" lon="4.83493">
        <ele>269</ele>
        <time>2018-07-03T10:07:50Z</time>
      </trkpt>
      <trkpt lat="45.98408" lon="4.83489">
        <ele>269</ele>
        <time>2018-07-03T10:07:51Z</time>
      </trkpt>
      <trkpt lat="45.98413" lon="4.83483">
        <ele>269</ele>
        <time>2018-07-03T10:07:52Z</time>
      </trkpt>
      <trkpt lat="45.98416" lon="4.83476">
        <ele>269</ele>
        <time>2018-07-03T10:07:53Z</time>
      </trkpt>
      <trkpt lat="45.98421" lon="4.83469">
        <ele>268</ele>
        <time>2018-07-03T10:07:54Z</time>
      </trkpt>
      <trkpt lat="45.98424" lon="4.83462">
        <ele>268</ele>
        <time>2018-07-03T10:07:55Z</time>
      </trkpt>
      <trkpt lat="45.98429" lon="4.83456">
        <ele>268</ele>
        <time>2018-07-03T10:07:56Z</time>
      </trkpt>
      <trkpt lat="45.98434" lon="4.8345">
        <ele>268</ele>
        <time>2018-07-03T10:07:57Z</time>
      </trkpt>
      <trkpt lat="45.98438" lon="4.83444">
        <ele>268</ele>
        <time>2018-07-03T10:07:58Z</time>
      </trkpt>
      <trkpt lat="45.98443" lon="4.83437">
        <ele>268</ele>
        <time>2018-07-03T10:07:59Z</time>
      </trkpt>
      <trkpt lat="45.98447" lon="4.8343">
        <ele>269</ele>
        <time>2018-07-03T10:08:00Z</time>
      </trkpt>
      <trkpt lat="45.9845" lon="4.83422">
        <ele>269</ele>
        <time>2018-07-03T10:08:01Z</time>
      </trkpt>
      <trkpt lat="45.98455" lon="4.83415">
        <ele>269</ele>
        <time>2018-07-03T10:08:02Z</time>
      </trkpt>
      <trkpt lat="45.9846" lon="4.83407">
        <ele>269</ele>
        <time>2018-07-03T10:08:03Z</time>
      </trkpt>
      <trkpt lat="45.98464" lon="4.83398">
        <ele>269</ele>
        <time>2018-07-03T10:08:04Z</time>
      </trkpt>
      <trkpt lat="45.98469" lon="4.83391">
        <ele>269</ele>
        <time>2018-07-03T10:08:05Z</time>
      </trkpt>
      <trkpt lat="45.98474" lon="4.83386">
        <ele>269</ele>
        <time>2018-07-03T10:08:06Z</time>
      </trkpt>
      <trkpt lat="45.98478" lon="4.83381">
        <ele>269</ele>
        <time>2018-07-03T10:08:07Z</time>
      </trkpt>
      <trkpt lat="45.98482" lon="4.83376">
        <ele>269</ele>
        <time>2018-07-03T10:08:08Z</time>
      </trkpt>
      <trkpt lat="45.98486" lon="4.83371">
        <ele>270</ele>
        <time>2018-07-03T10:08:09Z</time>
      </trkpt>
      <trkpt lat="45.98491" lon="4.83365">
        <ele>270</ele>
        <time>2018-07-03T10:08:10Z</time>
      </trkpt>
      <trkpt lat="45.98496" lon="4.83357">
        <ele>270</ele>
        <time>2018-07-03T10:08:11Z</time>
      </trkpt>
      <trkpt lat="45.98501" lon="4.8335">
        <ele>270</ele>
        <time>2018-07-03T10:08:12Z</time>
      </trkpt>
      <trkpt lat="45.98505" lon="4.83345">
        <ele>270</ele>
        <time>2018-07-03T10:08:13Z</time>
      </trkpt>
      <trkpt lat="45.9851" lon="4.83339">
        <ele>270</ele>
        <time>2018-07-03T10:08:14Z</time>
      </trkpt>
      <trkpt lat="45.98513" lon="4.83335">
        <ele>270</ele>
        <time>2018-07-03T10:08:15Z</time>
      </trkpt>
      <trkpt lat="45.98516" lon="4.83325">
        <ele>270</ele>
        <time>2018-07-03T10:08:16Z</time>
      </trkpt>
      <trkpt lat="45.9852" lon="4.8332">
        <ele>270</ele>
        <time>2018-07-03T10:08:17Z</time>
      </trkpt>
      <trkpt lat="45.98527" lon="4.83313">
        <ele>269</ele>
        <time>2018-07-03T10:08:19Z</time>
      </trkpt>
      <trkpt lat="45.98532" lon="4.83308">
        <ele>269</ele>
        <time>2018-07-03T10:08:20Z</time>
      </trkpt>
      <trkpt lat="45.98536" lon="4.83304">
        <ele>269</ele>
        <time>2018-07-03T10:08:21Z</time>
      </trkpt>
      <trkpt lat="45.9854" lon="4.83299">
        <ele>269</ele>
        <time>2018-07-03T10:08:22Z</time>
      </trkpt>
      <trkpt lat="45.98546" lon="4.83289">
        <ele>269</ele>
        <time>2018-07-03T10:08:23Z</time>
      </trkpt>
      <trkpt lat="45.9855" lon="4.83284">
        <ele>269</ele>
        <time>2018-07-03T10:08:24Z</time>
      </trkpt>
      <trkpt lat="45.98554" lon="4.83278">
        <ele>269</ele>
        <time>2018-07-03T10:08:25Z</time>
      </trkpt>
      <trkpt lat="45.98559" lon="4.83271">
        <ele>269</ele>
        <time>2018-07-03T10:08:26Z</time>
      </trkpt>
      <trkpt lat="45.98563" lon="4.83266">
        <ele>269</ele>
        <time>2018-07-03T10:08:27Z</time>
      </trkpt>
      <trkpt lat="45.98567" lon="4.8326">
        <ele>269</ele>
        <time>2018-07-03T10:08:28Z</time>
      </trkpt>
      <trkpt lat="45.98571" lon="4.83256">
        <ele>269</ele>
        <time>2018-07-03T10:08:29Z</time>
      </trkpt>
      <trkpt lat="45.98575" lon="4.8325">
        <ele>268</ele>
        <time>2018-07-03T10:08:30Z</time>
      </trkpt>
      <trkpt lat="45.98578" lon="4.83242">
        <ele>268</ele>
        <time>2018-07-03T10:08:31Z</time>
      </trkpt>
      <trkpt lat="45.98582" lon="4.83236">
        <ele>268</ele>
        <time>2018-07-03T10:08:32Z</time>
      </trkpt>
      <trkpt lat="45.98585" lon="4.8323">
        <ele>268</ele>
        <time>2018-07-03T10:08:33Z</time>
      </trkpt>
      <trkpt lat="45.9859" lon="4.83224">
        <ele>268</ele>
        <time>2018-07-03T10:08:34Z</time>
      </trkpt>
      <trkpt lat="45.98594" lon="4.8322">
        <ele>268</ele>
        <time>2018-07-03T10:08:35Z</time>
      </trkpt>
      <trkpt lat="45.98598" lon="4.83214">
        <ele>267</ele>
        <time>2018-07-03T10:08:36Z</time>
      </trkpt>
      <trkpt lat="45.98603" lon="4.83208">
        <ele>267</ele>
        <time>2018-07-03T10:08:37Z</time>
      </trkpt>
      <trkpt lat="45.98609" lon="4.83203">
        <ele>267</ele>
        <time>2018-07-03T10:08:38Z</time>
      </trkpt>
      <trkpt lat="45.98614" lon="4.83197">
        <ele>267</ele>
        <time>2018-07-03T10:08:39Z</time>
      </trkpt>
      <trkpt lat="45.98619" lon="4.8319">
        <ele>267</ele>
        <time>2018-07-03T10:08:40Z</time>
      </trkpt>
      <trkpt lat="45.98624" lon="4.83186">
        <ele>267</ele>
        <time>2018-07-03T10:08:41Z</time>
      </trkpt>
      <trkpt lat="45.98629" lon="4.83183">
        <ele>267</ele>
        <time>2018-07-03T10:08:42Z</time>
      </trkpt>
      <trkpt lat="45.98634" lon="4.83179">
        <ele>267</ele>
        <time>2018-07-03T10:08:43Z</time>
      </trkpt>
      <trkpt lat="45.98639" lon="4.83174">
        <ele>267</ele>
        <time>2018-07-03T10:08:44Z</time>
      </trkpt>
      <trkpt lat="45.98644" lon="4.83169">
        <ele>267</ele>
        <time>2018-07-03T10:08:45Z</time>
      </trkpt>
      <trkpt lat="45.98649" lon="4.83163">
        <ele>267</ele>
        <time>2018-07-03T10:08:46Z</time>
      </trkpt>
      <trkpt lat="45.98655" lon="4.83161">
        <ele>267</ele>
        <time>2018-07-03T10:08:47Z</time>
      </trkpt>
      <trkpt lat="45.98663" lon="4.83153">
        <ele>267</ele>
        <time>2018-07-03T10:08:48Z</time>
      </trkpt>
      <trkpt lat="45.98666" lon="4.83152">
        <ele>267</ele>
        <time>2018-07-03T10:08:49Z</time>
      </trkpt>
      <trkpt lat="45.98672" lon="4.83149">
        <ele>266</ele>
        <time>2018-07-03T10:08:50Z</time>
      </trkpt>
      <trkpt lat="45.98679" lon="4.83144">
        <ele>266</ele>
        <time>2018-07-03T10:08:51Z</time>
      </trkpt>
      <trkpt lat="45.98685" lon="4.83139">
        <ele>266</ele>
        <time>2018-07-03T10:08:52Z</time>
      </trkpt>
      <trkpt lat="45.9869" lon="4.83134">
        <ele>266</ele>
        <time>2018-07-03T10:08:53Z</time>
      </trkpt>
      <trkpt lat="45.98696" lon="4.8313">
        <ele>267</ele>
        <time>2018-07-03T10:08:54Z</time>
      </trkpt>
      <trkpt lat="45.98703" lon="4.83126">
        <ele>267</ele>
        <time>2018-07-03T10:08:55Z</time>
      </trkpt>
      <trkpt lat="45.98709" lon="4.83123">
        <ele>267</ele>
        <time>2018-07-03T10:08:56Z</time>
      </trkpt>
      <trkpt lat="45.98716" lon="4.83116">
        <ele>267</ele>
        <time>2018-07-03T10:08:57Z</time>
      </trkpt>
      <trkpt lat="45.98722" lon="4.8311">
        <ele>267</ele>
        <time>2018-07-03T10:08:58Z</time>
      </trkpt>
      <trkpt lat="45.98727" lon="4.83105">
        <ele>267</ele>
        <time>2018-07-03T10:08:59Z</time>
      </trkpt>
      <trkpt lat="45.98732" lon="4.83101">
        <ele>267</ele>
        <time>2018-07-03T10:09:00Z</time>
      </trkpt>
      <trkpt lat="45.98737" lon="4.83094">
        <ele>267</ele>
        <time>2018-07-03T10:09:01Z</time>
      </trkpt>
      <trkpt lat="45.98742" lon="4.8309">
        <ele>267</ele>
        <time>2018-07-03T10:09:02Z</time>
      </trkpt>
      <trkpt lat="45.98748" lon="4.83086">
        <ele>267</ele>
        <time>2018-07-03T10:09:03Z</time>
      </trkpt>
      <trkpt lat="45.98755" lon="4.83079">
        <ele>266</ele>
        <time>2018-07-03T10:09:04Z</time>
      </trkpt>
      <trkpt lat="45.98761" lon="4.83075">
        <ele>266</ele>
        <time>2018-07-03T10:09:05Z</time>
      </trkpt>
      <trkpt lat="45.98768" lon="4.83069">
        <ele>266</ele>
        <time>2018-07-03T10:09:06Z</time>
      </trkpt>
      <trkpt lat="45.98775" lon="4.83064">
        <ele>265</ele>
        <time>2018-07-03T10:09:07Z</time>
      </trkpt>
      <trkpt lat="45.98781" lon="4.83059">
        <ele>265</ele>
        <time>2018-07-03T10:09:08Z</time>
      </trkpt>
      <trkpt lat="45.98788" lon="4.83052">
        <ele>265</ele>
        <time>2018-07-03T10:09:09Z</time>
      </trkpt>
      <trkpt lat="45.98793" lon="4.83046">
        <ele>265</ele>
        <time>2018-07-03T10:09:10Z</time>
      </trkpt>
      <trkpt lat="45.988" lon="4.83041">
        <ele>265</ele>
        <time>2018-07-03T10:09:11Z</time>
      </trkpt>
      <trkpt lat="45.98806" lon="4.83035">
        <ele>264</ele>
        <time>2018-07-03T10:09:12Z</time>
      </trkpt>
      <trkpt lat="45.98813" lon="4.83031">
        <ele>264</ele>
        <time>2018-07-03T10:09:13Z</time>
      </trkpt>
      <trkpt lat="45.9882" lon="4.83025">
        <ele>264</ele>
        <time>2018-07-03T10:09:14Z</time>
      </trkpt>
      <trkpt lat="45.98827" lon="4.8302">
        <ele>264</ele>
        <time>2018-07-03T10:09:15Z</time>
      </trkpt>
      <trkpt lat="45.98835" lon="4.83014">
        <ele>262</ele>
        <time>2018-07-03T10:09:16Z</time>
      </trkpt>
      <trkpt lat="45.98843" lon="4.83009">
        <ele>262</ele>
        <time>2018-07-03T10:09:17Z</time>
      </trkpt>
      <trkpt lat="45.98851" lon="4.83002">
        <ele>261</ele>
        <time>2018-07-03T10:09:18Z</time>
      </trkpt>
      <trkpt lat="45.9886" lon="4.82995">
        <ele>261</ele>
        <time>2018-07-03T10:09:19Z</time>
      </trkpt>
      <trkpt lat="45.98867" lon="4.8299">
        <ele>260</ele>
        <time>2018-07-03T10:09:20Z</time>
      </trkpt>
      <trkpt lat="45.98875" lon="4.82983">
        <ele>260</ele>
        <time>2018-07-03T10:09:21Z</time>
      </trkpt>
      <trkpt lat="45.98885" lon="4.82977">
        <ele>259</ele>
        <time>2018-07-03T10:09:22Z</time>
      </trkpt>
      <trkpt lat="45.98893" lon="4.82969">
        <ele>259</ele>
        <time>2018-07-03T10:09:23Z</time>
      </trkpt>
      <trkpt lat="45.98902" lon="4.82961">
        <ele>259</ele>
        <time>2018-07-03T10:09:24Z</time>
      </trkpt>
      <trkpt lat="45.9891" lon="4.82953">
        <ele>258</ele>
        <time>2018-07-03T10:09:25Z</time>
      </trkpt>
      <trkpt lat="45.98917" lon="4.8294">
        <ele>255</ele>
        <time>2018-07-03T10:09:26Z</time>
      </trkpt>
      <trkpt lat="45.98923" lon="4.82926">
        <ele>255</ele>
        <time>2018-07-03T10:09:27Z</time>
      </trkpt>
      <trkpt lat="45.98928" lon="4.8291">
        <ele>254</ele>
        <time>2018-07-03T10:09:28Z</time>
      </trkpt>
      <trkpt lat="45.98936" lon="4.82895">
        <ele>253</ele>
        <time>2018-07-03T10:09:29Z</time>
      </trkpt>
      <trkpt lat="45.98941" lon="4.8288">
        <ele>253</ele>
        <time>2018-07-03T10:09:30Z</time>
      </trkpt>
      <trkpt lat="45.98948" lon="4.82864">
        <ele>253</ele>
        <time>2018-07-03T10:09:31Z</time>
      </trkpt>
      <trkpt lat="45.98956" lon="4.8285">
        <ele>252</ele>
        <time>2018-07-03T10:09:32Z</time>
      </trkpt>
      <trkpt lat="45.98963" lon="4.82835">
        <ele>252</ele>
        <time>2018-07-03T10:09:33Z</time>
      </trkpt>
      <trkpt lat="45.98971" lon="4.8282">
        <ele>249</ele>
        <time>2018-07-03T10:09:34Z</time>
      </trkpt>
      <trkpt lat="45.98978" lon="4.82804">
        <ele>248</ele>
        <time>2018-07-03T10:09:35Z</time>
      </trkpt>
      <trkpt lat="45.98985" lon="4.82789">
        <ele>247</ele>
        <time>2018-07-03T10:09:36Z</time>
      </trkpt>
      <trkpt lat="45.98992" lon="4.82773">
        <ele>246</ele>
        <time>2018-07-03T10:09:37Z</time>
      </trkpt>
      <trkpt lat="45.98999" lon="4.82757">
        <ele>243</ele>
        <time>2018-07-03T10:09:38Z</time>
      </trkpt>
      <trkpt lat="45.99007" lon="4.82744">
        <ele>240</ele>
        <time>2018-07-03T10:09:39Z</time>
      </trkpt>
      <trkpt lat="45.99013" lon="4.82729">
        <ele>239</ele>
        <time>2018-07-03T10:09:40Z</time>
      </trkpt>
      <trkpt lat="45.9902" lon="4.82715">
        <ele>239</ele>
        <time>2018-07-03T10:09:41Z</time>
      </trkpt>
      <trkpt lat="45.99026" lon="4.82699">
        <ele>238</ele>
        <time>2018-07-03T10:09:42Z</time>
      </trkpt>
      <trkpt lat="45.99033" lon="4.82683">
        <ele>238</ele>
        <time>2018-07-03T10:09:43Z</time>
      </trkpt>
      <trkpt lat="45.99039" lon="4.82669">
        <ele>238</ele>
        <time>2018-07-03T10:09:44Z</time>
      </trkpt>
      <trkpt lat="45.99046" lon="4.82655">
        <ele>236</ele>
        <time>2018-07-03T10:09:45Z</time>
      </trkpt>
      <trkpt lat="45.99053" lon="4.8264">
        <ele>236</ele>
        <time>2018-07-03T10:09:46Z</time>
      </trkpt>
      <trkpt lat="45.99058" lon="4.82628">
        <ele>236</ele>
        <time>2018-07-03T10:09:47Z</time>
      </trkpt>
      <trkpt lat="45.99062" lon="4.82616">
        <ele>236</ele>
        <time>2018-07-03T10:09:48Z</time>
      </trkpt>
      <trkpt lat="45.99066" lon="4.82605">
        <ele>236</ele>
        <time>2018-07-03T10:09:49Z</time>
      </trkpt>
      <trkpt lat="45.99069" lon="4.82599">
        <ele>235</ele>
        <time>2018-07-03T10:09:50Z</time>
      </trkpt>
      <trkpt lat="45.99071" lon="4.82588">
        <ele>235</ele>
        <time>2018-07-03T10:09:51Z</time>
      </trkpt>
      <trkpt lat="45.99074" lon="4.82581">
        <ele>235</ele>
        <time>2018-07-03T10:09:52Z</time>
      </trkpt>
      <trkpt lat="45.99075" lon="4.8257">
        <ele>235</ele>
        <time>2018-07-03T10:09:54Z</time>
      </trkpt>
      <trkpt lat="45.99072" lon="4.82565">
        <ele>235</ele>
        <time>2018-07-03T10:09:55Z</time>
      </trkpt>
      <trkpt lat="45.99069" lon="4.8256">
        <ele>235</ele>
        <time>2018-07-03T10:09:56Z</time>
      </trkpt>
      <trkpt lat="45.99062" lon="4.82561">
        <ele>235</ele>
        <time>2018-07-03T10:09:57Z</time>
      </trkpt>
      <trkpt lat="45.99056" lon="4.8256">
        <ele>235</ele>
        <time>2018-07-03T10:09:58Z</time>
      </trkpt>
      <trkpt lat="45.9905" lon="4.8256">
        <ele>235</ele>
        <time>2018-07-03T10:09:59Z</time>
      </trkpt>
      <trkpt lat="45.99046" lon="4.82558">
        <ele>235</ele>
        <time>2018-07-03T10:10:00Z</time>
      </trkpt>
      <trkpt lat="45.99041" lon="4.82555">
        <ele>235</ele>
        <time>2018-07-03T10:10:01Z</time>
      </trkpt>
      <trkpt lat="45.99037" lon="4.82551">
        <ele>235</ele>
        <time>2018-07-03T10:10:02Z</time>
      </trkpt>
      <trkpt lat="45.99032" lon="4.82549">
        <ele>235</ele>
        <time>2018-07-03T10:10:03Z</time>
      </trkpt>
      <trkpt lat="45.99029" lon="4.82545">
        <ele>235</ele>
        <time>2018-07-03T10:10:04Z</time>
      </trkpt>
      <trkpt lat="45.99025" lon="4.8254">
        <ele>235</ele>
        <time>2018-07-03T10:10:05Z</time>
      </trkpt>
      <trkpt lat="45.99021" lon="4.82536">
        <ele>235</ele>
        <time>2018-07-03T10:10:06Z</time>
      </trkpt>
      <trkpt lat="45.99015" lon="4.82532">
        <ele>235</ele>
        <time>2018-07-03T10:10:07Z</time>
      </trkpt>
      <trkpt lat="45.99011" lon="4.82527">
        <ele>235</ele>
        <time>2018-07-03T10:10:08Z</time>
      </trkpt>
      <trkpt lat="45.99008" lon="4.82522">
        <ele>235</ele>
        <time>2018-07-03T10:10:09Z</time>
      </trkpt>
      <trkpt lat="45.99006" lon="4.82516">
        <ele>235</ele>
        <time>2018-07-03T10:10:10Z</time>
      </trkpt>
      <trkpt lat="45.99001" lon="4.8251">
        <ele>235</ele>
        <time>2018-07-03T10:10:11Z</time>
      </trkpt>
      <trkpt lat="45.98999" lon="4.82504">
        <ele>235</ele>
        <time>2018-07-03T10:10:12Z</time>
      </trkpt>
      <trkpt lat="45.98997" lon="4.82496">
        <ele>235</ele>
        <time>2018-07-03T10:10:13Z</time>
      </trkpt>
      <trkpt lat="45.98995" lon="4.8249">
        <ele>236</ele>
        <time>2018-07-03T10:10:14Z</time>
      </trkpt>
      <trkpt lat="45.98992" lon="4.82483">
        <ele>236</ele>
        <time>2018-07-03T10:10:15Z</time>
      </trkpt>
      <trkpt lat="45.98989" lon="4.82476">
        <ele>236</ele>
        <time>2018-07-03T10:10:16Z</time>
      </trkpt>
      <trkpt lat="45.98988" lon="4.82469">
        <ele>236</ele>
        <time>2018-07-03T10:10:17Z</time>
      </trkpt>
      <trkpt lat="45.98988" lon="4.82462">
        <ele>236</ele>
        <time>2018-07-03T10:10:18Z</time>
      </trkpt>
      <trkpt lat="45.98986" lon="4.82455">
        <ele>236</ele>
        <time>2018-07-03T10:10:19Z</time>
      </trkpt>
      <trkpt lat="45.98985" lon="4.82449">
        <ele>236</ele>
        <time>2018-07-03T10:10:20Z</time>
      </trkpt>
      <trkpt lat="45.98983" lon="4.82442">
        <ele>236</ele>
        <time>2018-07-03T10:10:21Z</time>
      </trkpt>
      <trkpt lat="45.98982" lon="4.82435">
        <ele>236</ele>
        <time>2018-07-03T10:10:22Z</time>
      </trkpt>
      <trkpt lat="45.98978" lon="4.82428">
        <ele>236</ele>
        <time>2018-07-03T10:10:23Z</time>
      </trkpt>
      <trkpt lat="45.98977" lon="4.82422">
        <ele>236</ele>
        <time>2018-07-03T10:10:24Z</time>
      </trkpt>
      <trkpt lat="45.98973" lon="4.82414">
        <ele>235</ele>
        <time>2018-07-03T10:10:25Z</time>
      </trkpt>
      <trkpt lat="45.98971" lon="4.82406">
        <ele>235</ele>
        <time>2018-07-03T10:10:26Z</time>
      </trkpt>
      <trkpt lat="45.98969" lon="4.82399">
        <ele>235</ele>
        <time>2018-07-03T10:10:27Z</time>
      </trkpt>
      <trkpt lat="45.98967" lon="4.82392">
        <ele>235</ele>
        <time>2018-07-03T10:10:28Z</time>
      </trkpt>
      <trkpt lat="45.98963" lon="4.82385">
        <ele>235</ele>
        <time>2018-07-03T10:10:29Z</time>
      </trkpt>
      <trkpt lat="45.98959" lon="4.82377">
        <ele>235</ele>
        <time>2018-07-03T10:10:30Z</time>
      </trkpt>
      <trkpt lat="45.98958" lon="4.8237">
        <ele>235</ele>
        <time>2018-07-03T10:10:31Z</time>
      </trkpt>
      <trkpt lat="45.98956" lon="4.82362">
        <ele>235</ele>
        <time>2018-07-03T10:10:32Z</time>
      </trkpt>
      <trkpt lat="45.98955" lon="4.82354">
        <ele>235</ele>
        <time>2018-07-03T10:10:33Z</time>
      </trkpt>
      <trkpt lat="45.98952" lon="4.82346">
        <ele>235</ele>
        <time>2018-07-03T10:10:34Z</time>
      </trkpt>
      <trkpt lat="45.9895" lon="4.82339">
        <ele>235</ele>
        <time>2018-07-03T10:10:35Z</time>
      </trkpt>
      <trkpt lat="45.98947" lon="4.82333">
        <ele>234</ele>
        <time>2018-07-03T10:10:36Z</time>
      </trkpt>
      <trkpt lat="45.98943" lon="4.82328">
        <ele>234</ele>
        <time>2018-07-03T10:10:37Z</time>
      </trkpt>
      <trkpt lat="45.98937" lon="4.82322">
        <ele>235</ele>
        <time>2018-07-03T10:10:38Z</time>
      </trkpt>
      <trkpt lat="45.98932" lon="4.82316">
        <ele>235</ele>
        <time>2018-07-03T10:10:39Z</time>
      </trkpt>
      <trkpt lat="45.98928" lon="4.82312">
        <ele>235</ele>
        <time>2018-07-03T10:10:40Z</time>
      </trkpt>
      <trkpt lat="45.98925" lon="4.82307">
        <ele>234</ele>
        <time>2018-07-03T10:10:41Z</time>
      </trkpt>
      <trkpt lat="45.98921" lon="4.82301">
        <ele>234</ele>
        <time>2018-07-03T10:10:42Z</time>
      </trkpt>
      <trkpt lat="45.98916" lon="4.82295">
        <ele>236</ele>
        <time>2018-07-03T10:10:43Z</time>
      </trkpt>
      <trkpt lat="45.98912" lon="4.8229">
        <ele>236</ele>
        <time>2018-07-03T10:10:44Z</time>
      </trkpt>
      <trkpt lat="45.98907" lon="4.82286">
        <ele>236</ele>
        <time>2018-07-03T10:10:45Z</time>
      </trkpt>
      <trkpt lat="45.98904" lon="4.82281">
        <ele>236</ele>
        <time>2018-07-03T10:10:46Z</time>
      </trkpt>
      <trkpt lat="45.98899" lon="4.82276">
        <ele>236</ele>
        <time>2018-07-03T10:10:47Z</time>
      </trkpt>
      <trkpt lat="45.98894" lon="4.82265">
        <ele>236</ele>
        <time>2018-07-03T10:10:49Z</time>
      </trkpt>
      <trkpt lat="45.98889" lon="4.82259">
        <ele>236</ele>
        <time>2018-07-03T10:10:50Z</time>
      </trkpt>
      <trkpt lat="45.98886" lon="4.82253">
        <ele>236</ele>
        <time>2018-07-03T10:10:51Z</time>
      </trkpt>
      <trkpt lat="45.98883" lon="4.82246">
        <ele>236</ele>
        <time>2018-07-03T10:10:52Z</time>
      </trkpt>
      <trkpt lat="45.98881" lon="4.82239">
        <ele>236</ele>
        <time>2018-07-03T10:10:53Z</time>
      </trkpt>
      <trkpt lat="45.98878" lon="4.82232">
        <ele>236</ele>
        <time>2018-07-03T10:10:54Z</time>
      </trkpt>
      <trkpt lat="45.98873" lon="4.82225">
        <ele>236</ele>
        <time>2018-07-03T10:10:55Z</time>
      </trkpt>
      <trkpt lat="45.98871" lon="4.82218">
        <ele>236</ele>
        <time>2018-07-03T10:10:56Z</time>
      </trkpt>
      <trkpt lat="45.98868" lon="4.82211">
        <ele>236</ele>
        <time>2018-07-03T10:10:57Z</time>
      </trkpt>
      <trkpt lat="45.98864" lon="4.82205">
        <ele>236</ele>
        <time>2018-07-03T10:10:58Z</time>
      </trkpt>
      <trkpt lat="45.98861" lon="4.82199">
        <ele>236</ele>
        <time>2018-07-03T10:10:59Z</time>
      </trkpt>
      <trkpt lat="45.98859" lon="4.82192">
        <ele>236</ele>
        <time>2018-07-03T10:11:00Z</time>
      </trkpt>
      <trkpt lat="45.98858" lon="4.82186">
        <ele>236</ele>
        <time>2018-07-03T10:11:01Z</time>
      </trkpt>
      <trkpt lat="45.98855" lon="4.82179">
        <ele>236</ele>
        <time>2018-07-03T10:11:02Z</time>
      </trkpt>
      <trkpt lat="45.9885" lon="4.82173">
        <ele>236</ele>
        <time>2018-07-03T10:11:03Z</time>
      </trkpt>
      <trkpt lat="45.98847" lon="4.82166">
        <ele>236</ele>
        <time>2018-07-03T10:11:04Z</time>
      </trkpt>
      <trkpt lat="45.98844" lon="4.82158">
        <ele>236</ele>
        <time>2018-07-03T10:11:05Z</time>
      </trkpt>
      <trkpt lat="45.98842" lon="4.8215">
        <ele>236</ele>
        <time>2018-07-03T10:11:06Z</time>
      </trkpt>
      <trkpt lat="45.98841" lon="4.82144">
        <ele>236</ele>
        <time>2018-07-03T10:11:07Z</time>
      </trkpt>
      <trkpt lat="45.98839" lon="4.82137">
        <ele>236</ele>
        <time>2018-07-03T10:11:08Z</time>
      </trkpt>
      <trkpt lat="45.98836" lon="4.82129">
        <ele>236</ele>
        <time>2018-07-03T10:11:09Z</time>
      </trkpt>
      <trkpt lat="45.98834" lon="4.82122">
        <ele>236</ele>
        <time>2018-07-03T10:11:10Z</time>
      </trkpt>
      <trkpt lat="45.98831" lon="4.82114">
        <ele>237</ele>
        <time>2018-07-03T10:11:11Z</time>
      </trkpt>
      <trkpt lat="45.9883" lon="4.82106">
        <ele>237</ele>
        <time>2018-07-03T10:11:12Z</time>
      </trkpt>
      <trkpt lat="45.98828" lon="4.82098">
        <ele>237</ele>
        <time>2018-07-03T10:11:13Z</time>
      </trkpt>
      <trkpt lat="45.98827" lon="4.8209">
        <ele>237</ele>
        <time>2018-07-03T10:11:14Z</time>
      </trkpt>
      <trkpt lat="45.98827" lon="4.82082">
        <ele>237</ele>
        <time>2018-07-03T10:11:15Z</time>
      </trkpt>
      <trkpt lat="45.98826" lon="4.82074">
        <ele>237</ele>
        <time>2018-07-03T10:11:16Z</time>
      </trkpt>
      <trkpt lat="45.98827" lon="4.82061">
        <ele>237</ele>
        <time>2018-07-03T10:11:18Z</time>
      </trkpt>
      <trkpt lat="45.98827" lon="4.82053">
        <ele>237</ele>
        <time>2018-07-03T10:11:19Z</time>
      </trkpt>
      <trkpt lat="45.98825" lon="4.82046">
        <ele>238</ele>
        <time>2018-07-03T10:11:20Z</time>
      </trkpt>
      <trkpt lat="45.98823" lon="4.82039">
        <ele>238</ele>
        <time>2018-07-03T10:11:21Z</time>
      </trkpt>
      <trkpt lat="45.98822" lon="4.82033">
        <ele>238</ele>
        <time>2018-07-03T10:11:22Z</time>
      </trkpt>
      <trkpt lat="45.9882" lon="4.82025">
        <ele>238</ele>
        <time>2018-07-03T10:11:23Z</time>
      </trkpt>
      <trkpt lat="45.98819" lon="4.82019">
        <ele>238</ele>
        <time>2018-07-03T10:11:24Z</time>
      </trkpt>
      <trkpt lat="45.98818" lon="4.82011">
        <ele>238</ele>
        <time>2018-07-03T10:11:25Z</time>
      </trkpt>
      <trkpt lat="45.98816" lon="4.82002">
        <ele>238</ele>
        <time>2018-07-03T10:11:26Z</time>
      </trkpt>
      <trkpt lat="45.98815" lon="4.81993">
        <ele>238</ele>
        <time>2018-07-03T10:11:27Z</time>
      </trkpt>
      <trkpt lat="45.98814" lon="4.81987">
        <ele>238</ele>
        <time>2018-07-03T10:11:28Z</time>
      </trkpt>
      <trkpt lat="45.98813" lon="4.8198">
        <ele>239</ele>
        <time>2018-07-03T10:11:29Z</time>
      </trkpt>
      <trkpt lat="45.98813" lon="4.81973">
        <ele>239</ele>
        <time>2018-07-03T10:11:30Z</time>
      </trkpt>
      <trkpt lat="45.98811" lon="4.81966">
        <ele>239</ele>
        <time>2018-07-03T10:11:31Z</time>
      </trkpt>
      <trkpt lat="45.9881" lon="4.81954">
        <ele>239</ele>
        <time>2018-07-03T10:11:33Z</time>
      </trkpt>
      <trkpt lat="45.98809" lon="4.81947">
        <ele>239</ele>
        <time>2018-07-03T10:11:34Z</time>
      </trkpt>
      <trkpt lat="45.98808" lon="4.81936">
        <ele>239</ele>
        <time>2018-07-03T10:11:36Z</time>
      </trkpt>
      <trkpt lat="45.98807" lon="4.81929">
        <ele>239</ele>
        <time>2018-07-03T10:11:37Z</time>
      </trkpt>
      <trkpt lat="45.98805" lon="4.81924">
        <ele>239</ele>
        <time>2018-07-03T10:11:38Z</time>
      </trkpt>
      <trkpt lat="45.98804" lon="4.81917">
        <ele>239</ele>
        <time>2018-07-03T10:11:39Z</time>
      </trkpt>
      <trkpt lat="45.98802" lon="4.81909">
        <ele>239</ele>
        <time>2018-07-03T10:11:40Z</time>
      </trkpt>
      <trkpt lat="45.98801" lon="4.81902">
        <ele>239</ele>
        <time>2018-07-03T10:11:41Z</time>
      </trkpt>
      <trkpt lat="45.98801" lon="4.81894">
        <ele>239</ele>
        <time>2018-07-03T10:11:42Z</time>
      </trkpt>
      <trkpt lat="45.98799" lon="4.81886">
        <ele>239</ele>
        <time>2018-07-03T10:11:43Z</time>
      </trkpt>
      <trkpt lat="45.98798" lon="4.81878">
        <ele>239</ele>
        <time>2018-07-03T10:11:44Z</time>
      </trkpt>
      <trkpt lat="45.98796" lon="4.8187">
        <ele>239</ele>
        <time>2018-07-03T10:11:45Z</time>
      </trkpt>
      <trkpt lat="45.98792" lon="4.81862">
        <ele>239</ele>
        <time>2018-07-03T10:11:46Z</time>
      </trkpt>
      <trkpt lat="45.9879" lon="4.81856">
        <ele>239</ele>
        <time>2018-07-03T10:11:47Z</time>
      </trkpt>
      <trkpt lat="45.98788" lon="4.81845">
        <ele>239</ele>
        <time>2018-07-03T10:11:48Z</time>
      </trkpt>
      <trkpt lat="45.98783" lon="4.81841">
        <ele>239</ele>
        <time>2018-07-03T10:11:49Z</time>
      </trkpt>
      <trkpt lat="45.98782" lon="4.81834">
        <ele>239</ele>
        <time>2018-07-03T10:11:50Z</time>
      </trkpt>
      <trkpt lat="45.9878" lon="4.81827">
        <ele>240</ele>
        <time>2018-07-03T10:11:51Z</time>
      </trkpt>
      <trkpt lat="45.98777" lon="4.8182">
        <ele>240</ele>
        <time>2018-07-03T10:11:52Z</time>
      </trkpt>
      <trkpt lat="45.98773" lon="4.81814">
        <ele>240</ele>
        <time>2018-07-03T10:11:53Z</time>
      </trkpt>
      <trkpt lat="45.98773" lon="4.81807">
        <ele>240</ele>
        <time>2018-07-03T10:11:54Z</time>
      </trkpt>
      <trkpt lat="45.9877" lon="4.81801">
        <ele>240</ele>
        <time>2018-07-03T10:11:55Z</time>
      </trkpt>
      <trkpt lat="45.98766" lon="4.81794">
        <ele>241</ele>
        <time>2018-07-03T10:11:56Z</time>
      </trkpt>
      <trkpt lat="45.98764" lon="4.81788">
        <ele>241</ele>
        <time>2018-07-03T10:11:57Z</time>
      </trkpt>
      <trkpt lat="45.9876" lon="4.81777">
        <ele>241</ele>
        <time>2018-07-03T10:11:59Z</time>
      </trkpt>
      <trkpt lat="45.98757" lon="4.81772">
        <ele>241</ele>
        <time>2018-07-03T10:12:00Z</time>
      </trkpt>
      <trkpt lat="45.98754" lon="4.81767">
        <ele>241</ele>
        <time>2018-07-03T10:12:01Z</time>
      </trkpt>
      <trkpt lat="45.98751" lon="4.81756">
        <ele>241</ele>
        <time>2018-07-03T10:12:02Z</time>
      </trkpt>
      <trkpt lat="45.98749" lon="4.81748">
        <ele>241</ele>
        <time>2018-07-03T10:12:03Z</time>
      </trkpt>
      <trkpt lat="45.98747" lon="4.81744">
        <ele>240</ele>
        <time>2018-07-03T10:12:04Z</time>
      </trkpt>
      <trkpt lat="45.98744" lon="4.81739">
        <ele>240</ele>
        <time>2018-07-03T10:12:05Z</time>
      </trkpt>
      <trkpt lat="45.98741" lon="4.81728">
        <ele>239</ele>
        <time>2018-07-03T10:12:06Z</time>
      </trkpt>
      <trkpt lat="45.98735" lon="4.81724">
        <ele>239</ele>
        <time>2018-07-03T10:12:08Z</time>
      </trkpt>
      <trkpt lat="45.98732" lon="4.81721">
        <ele>239</ele>
        <time>2018-07-03T10:12:09Z</time>
      </trkpt>
      <trkpt lat="45.98727" lon="4.81721">
        <ele>239</ele>
        <time>2018-07-03T10:12:10Z</time>
      </trkpt>
      <trkpt lat="45.9872" lon="4.8172">
        <ele>239</ele>
        <time>2018-07-03T10:12:11Z</time>
      </trkpt>
      <trkpt lat="45.98713" lon="4.81721">
        <ele>239</ele>
        <time>2018-07-03T10:12:12Z</time>
      </trkpt>
      <trkpt lat="45.98707" lon="4.81723">
        <ele>239</ele>
        <time>2018-07-03T10:12:13Z</time>
      </trkpt>
      <trkpt lat="45.98698" lon="4.81726">
        <ele>239</ele>
        <time>2018-07-03T10:12:15Z</time>
      </trkpt>
      <trkpt lat="45.9869" lon="4.81727">
        <ele>238</ele>
        <time>2018-07-03T10:12:16Z</time>
      </trkpt>
      <trkpt lat="45.98684" lon="4.81728">
        <ele>238</ele>
        <time>2018-07-03T10:12:20Z</time>
      </trkpt>
      <trkpt lat="45.98675" lon="4.81728">
        <ele>238</ele>
        <time>2018-07-03T10:12:21Z</time>
      </trkpt>
      <trkpt lat="45.98669" lon="4.81732">
        <ele>238</ele>
        <time>2018-07-03T10:12:23Z</time>
      </trkpt>
      <trkpt lat="45.98662" lon="4.81735">
        <ele>237</ele>
        <time>2018-07-03T10:12:24Z</time>
      </trkpt>
      <trkpt lat="45.98657" lon="4.81736">
        <ele>237</ele>
        <time>2018-07-03T10:12:25Z</time>
      </trkpt>
      <trkpt lat="45.98651" lon="4.81736">
        <ele>237</ele>
        <time>2018-07-03T10:12:26Z</time>
      </trkpt>
      <trkpt lat="45.98643" lon="4.81738">
        <ele>237</ele>
        <time>2018-07-03T10:12:27Z</time>
      </trkpt>
      <trkpt lat="45.98634" lon="4.81745">
        <ele>237</ele>
        <time>2018-07-03T10:12:28Z</time>
      </trkpt>
      <trkpt lat="45.98628" lon="4.81747">
        <ele>237</ele>
        <time>2018-07-03T10:12:29Z</time>
      </trkpt>
      <trkpt lat="45.98621" lon="4.81748">
        <ele>237</ele>
        <time>2018-07-03T10:12:30Z</time>
      </trkpt>
      <trkpt lat="45.98615" lon="4.81751">
        <ele>238</ele>
        <time>2018-07-03T10:12:31Z</time>
      </trkpt>
      <trkpt lat="45.9861" lon="4.81751">
        <ele>238</ele>
        <time>2018-07-03T10:12:32Z</time>
      </trkpt>
      <trkpt lat="45.98603" lon="4.81755">
        <ele>238</ele>
        <time>2018-07-03T10:12:34Z</time>
      </trkpt>
      <trkpt lat="45.98599" lon="4.81757">
        <ele>237</ele>
        <time>2018-07-03T10:12:35Z</time>
      </trkpt>
      <trkpt lat="45.98592" lon="4.81762">
        <ele>237</ele>
        <time>2018-07-03T10:12:37Z</time>
      </trkpt>
      <trkpt lat="45.98584" lon="4.81766">
        <ele>237</ele>
        <time>2018-07-03T10:12:38Z</time>
      </trkpt>
      <trkpt lat="45.9858" lon="4.81773">
        <ele>237</ele>
        <time>2018-07-03T10:12:39Z</time>
      </trkpt>
      <trkpt lat="45.98577" lon="4.81778">
        <ele>238</ele>
        <time>2018-07-03T10:12:40Z</time>
      </trkpt>
      <trkpt lat="45.98573" lon="4.81785">
        <ele>238</ele>
        <time>2018-07-03T10:12:42Z</time>
      </trkpt>
      <trkpt lat="45.98568" lon="4.8179">
        <ele>238</ele>
        <time>2018-07-03T10:12:43Z</time>
      </trkpt>
      <trkpt lat="45.98565" lon="4.81794">
        <ele>238</ele>
        <time>2018-07-03T10:12:45Z</time>
      </trkpt>
      <trkpt lat="45.98558" lon="4.81798">
        <ele>238</ele>
        <time>2018-07-03T10:12:46Z</time>
      </trkpt>
      <trkpt lat="45.98549" lon="4.81802">
        <ele>238</ele>
        <time>2018-07-03T10:12:47Z</time>
      </trkpt>
      <trkpt lat="45.98542" lon="4.81796">
        <ele>238</ele>
        <time>2018-07-03T10:12:49Z</time>
      </trkpt>
      <trkpt lat="45.98537" lon="4.81793">
        <ele>238</ele>
        <time>2018-07-03T10:12:50Z</time>
      </trkpt>
      <trkpt lat="45.98532" lon="4.81786">
        <ele>238</ele>
        <time>2018-07-03T10:12:51Z</time>
      </trkpt>
      <trkpt lat="45.98529" lon="4.81783">
        <ele>238</ele>
        <time>2018-07-03T10:12:52Z</time>
      </trkpt>
      <trkpt lat="45.98525" lon="4.81777">
        <ele>238</ele>
        <time>2018-07-03T10:12:53Z</time>
      </trkpt>
      <trkpt lat="45.9852" lon="4.81772">
        <ele>238</ele>
        <time>2018-07-03T10:12:54Z</time>
      </trkpt>
      <trkpt lat="45.98516" lon="4.81765">
        <ele>237</ele>
        <time>2018-07-03T10:12:55Z</time>
      </trkpt>
      <trkpt lat="45.98512" lon="4.81761">
        <ele>237</ele>
        <time>2018-07-03T10:12:56Z</time>
      </trkpt>
      <trkpt lat="45.98509" lon="4.81756">
        <ele>237</ele>
        <time>2018-07-03T10:12:57Z</time>
      </trkpt>
      <trkpt lat="45.98505" lon="4.81751">
        <ele>237</ele>
        <time>2018-07-03T10:12:58Z</time>
      </trkpt>
      <trkpt lat="45.98498" lon="4.81744">
        <ele>237</ele>
        <time>2018-07-03T10:13:00Z</time>
      </trkpt>
      <trkpt lat="45.98494" lon="4.81742">
        <ele>238</ele>
        <time>2018-07-03T10:13:01Z</time>
      </trkpt>
      <trkpt lat="45.98487" lon="4.81736">
        <ele>238</ele>
        <time>2018-07-03T10:13:03Z</time>
      </trkpt>
      <trkpt lat="45.98482" lon="4.81732">
        <ele>238</ele>
        <time>2018-07-03T10:13:04Z</time>
      </trkpt>
      <trkpt lat="45.98475" lon="4.81727">
        <ele>239</ele>
        <time>2018-07-03T10:13:06Z</time>
      </trkpt>
      <trkpt lat="45.98471" lon="4.81723">
        <ele>239</ele>
        <time>2018-07-03T10:13:07Z</time>
      </trkpt>
      <trkpt lat="45.98465" lon="4.81716">
        <ele>239</ele>
        <time>2018-07-03T10:13:09Z</time>
      </trkpt>
      <trkpt lat="45.98463" lon="4.81712">
        <ele>239</ele>
        <time>2018-07-03T10:13:10Z</time>
      </trkpt>
      <trkpt lat="45.98457" lon="4.81705">
        <ele>239</ele>
        <time>2018-07-03T10:13:12Z</time>
      </trkpt>
      <trkpt lat="45.98456" lon="4.81703">
        <ele>239</ele>
        <time>2018-07-03T10:13:13Z</time>
      </trkpt>
      <trkpt lat="45.98455" lon="4.817">
        <ele>239</ele>
        <time>2018-07-03T10:13:14Z</time>
      </trkpt>
      <trkpt lat="45.98451" lon="4.81692">
        <ele>239</ele>
        <time>2018-07-03T10:13:15Z</time>
      </trkpt>
      <trkpt lat="45.98446" lon="4.81683">
        <ele>239</ele>
        <time>2018-07-03T10:13:17Z</time>
      </trkpt>
      <trkpt lat="45.98444" lon="4.81679">
        <ele>239</ele>
        <time>2018-07-03T10:13:18Z</time>
      </trkpt>
      <trkpt lat="45.98437" lon="4.81671">
        <ele>240</ele>
        <time>2018-07-03T10:13:20Z</time>
      </trkpt>
      <trkpt lat="45.98433" lon="4.81668">
        <ele>240</ele>
        <time>2018-07-03T10:13:21Z</time>
      </trkpt>
      <trkpt lat="45.98429" lon="4.81666">
        <ele>239</ele>
        <time>2018-07-03T10:13:22Z</time>
      </trkpt>
      <trkpt lat="45.98424" lon="4.81664">
        <ele>240</ele>
        <time>2018-07-03T10:13:23Z</time>
      </trkpt>
      <trkpt lat="45.98419" lon="4.81663">
        <ele>240</ele>
        <time>2018-07-03T10:13:24Z</time>
      </trkpt>
      <trkpt lat="45.98413" lon="4.81662">
        <ele>241</ele>
        <time>2018-07-03T10:13:25Z</time>
      </trkpt>
      <trkpt lat="45.98408" lon="4.81663">
        <ele>241</ele>
        <time>2018-07-03T10:13:26Z</time>
      </trkpt>
      <trkpt lat="45.98403" lon="4.81663">
        <ele>241</ele>
        <time>2018-07-03T10:13:27Z</time>
      </trkpt>
      <trkpt lat="45.98394" lon="4.81666">
        <ele>242</ele>
        <time>2018-07-03T10:13:29Z</time>
      </trkpt>
      <trkpt lat="45.98391" lon="4.81667">
        <ele>243</ele>
        <time>2018-07-03T10:13:30Z</time>
      </trkpt>
      <trkpt lat="45.98386" lon="4.81671">
        <ele>243</ele>
        <time>2018-07-03T10:13:31Z</time>
      </trkpt>
      <trkpt lat="45.98381" lon="4.81672">
        <ele>244</ele>
        <time>2018-07-03T10:13:32Z</time>
      </trkpt>
      <trkpt lat="45.98375" lon="4.81674">
        <ele>244</ele>
        <time>2018-07-03T10:13:33Z</time>
      </trkpt>
      <trkpt lat="45.98371" lon="4.81674">
        <ele>244</ele>
        <time>2018-07-03T10:13:34Z</time>
      </trkpt>
      <trkpt lat="45.98365" lon="4.81675">
        <ele>244</ele>
        <time>2018-07-03T10:13:35Z</time>
      </trkpt>
      <trkpt lat="45.98359" lon="4.81675">
        <ele>244</ele>
        <time>2018-07-03T10:13:36Z</time>
      </trkpt>
      <trkpt lat="45.98355" lon="4.81676">
        <ele>245</ele>
        <time>2018-07-03T10:13:37Z</time>
      </trkpt>
      <trkpt lat="45.9835" lon="4.81675">
        <ele>245</ele>
        <time>2018-07-03T10:13:38Z</time>
      </trkpt>
      <trkpt lat="45.98345" lon="4.81674">
        <ele>245</ele>
        <time>2018-07-03T10:13:39Z</time>
      </trkpt>
      <trkpt lat="45.9834" lon="4.81672">
        <ele>245</ele>
        <time>2018-07-03T10:13:40Z</time>
      </trkpt>
      <trkpt lat="45.98335" lon="4.81669">
        <ele>246</ele>
        <time>2018-07-03T10:13:41Z</time>
      </trkpt>
      <trkpt lat="45.9833" lon="4.81666">
        <ele>246</ele>
        <time>2018-07-03T10:13:42Z</time>
      </trkpt>
      <trkpt lat="45.98325" lon="4.81664">
        <ele>246</ele>
        <time>2018-07-03T10:13:43Z</time>
      </trkpt>
      <trkpt lat="45.98321" lon="4.8166">
        <ele>246</ele>
        <time>2018-07-03T10:13:44Z</time>
      </trkpt>
      <trkpt lat="45.98316" lon="4.81655">
        <ele>246</ele>
        <time>2018-07-03T10:13:45Z</time>
      </trkpt>
      <trkpt lat="45.98311" lon="4.81651">
        <ele>246</ele>
        <time>2018-07-03T10:13:46Z</time>
      </trkpt>
      <trkpt lat="45.98306" lon="4.81647">
        <ele>246</ele>
        <time>2018-07-03T10:13:47Z</time>
      </trkpt>
      <trkpt lat="45.98303" lon="4.81643">
        <ele>246</ele>
        <time>2018-07-03T10:13:48Z</time>
      </trkpt>
      <trkpt lat="45.98296" lon="4.81636">
        <ele>247</ele>
        <time>2018-07-03T10:13:50Z</time>
      </trkpt>
      <trkpt lat="45.98292" lon="4.81632">
        <ele>247</ele>
        <time>2018-07-03T10:13:51Z</time>
      </trkpt>
      <trkpt lat="45.98287" lon="4.81624">
        <ele>247</ele>
        <time>2018-07-03T10:13:53Z</time>
      </trkpt>
      <trkpt lat="45.98285" lon="4.81619">
        <ele>247</ele>
        <time>2018-07-03T10:13:54Z</time>
      </trkpt>
      <trkpt lat="45.98281" lon="4.81608">
        <ele>247</ele>
        <time>2018-07-03T10:13:56Z</time>
      </trkpt>
      <trkpt lat="45.98278" lon="4.81601">
        <ele>247</ele>
        <time>2018-07-03T10:13:57Z</time>
      </trkpt>
      <trkpt lat="45.98276" lon="4.81595">
        <ele>247</ele>
        <time>2018-07-03T10:13:58Z</time>
      </trkpt>
      <trkpt lat="45.98273" lon="4.81589">
        <ele>247</ele>
        <time>2018-07-03T10:13:59Z</time>
      </trkpt>
      <trkpt lat="45.9827" lon="4.81582">
        <ele>247</ele>
        <time>2018-07-03T10:14:00Z</time>
      </trkpt>
      <trkpt lat="45.98268" lon="4.81577">
        <ele>247</ele>
        <time>2018-07-03T10:14:01Z</time>
      </trkpt>
      <trkpt lat="45.98266" lon="4.81571">
        <ele>247</ele>
        <time>2018-07-03T10:14:02Z</time>
      </trkpt>
      <trkpt lat="45.98264" lon="4.81565">
        <ele>247</ele>
        <time>2018-07-03T10:14:03Z</time>
      </trkpt>
      <trkpt lat="45.98262" lon="4.81559">
        <ele>247</ele>
        <time>2018-07-03T10:14:04Z</time>
      </trkpt>
      <trkpt lat="45.98259" lon="4.81553">
        <ele>247</ele>
        <time>2018-07-03T10:14:05Z</time>
      </trkpt>
      <trkpt lat="45.98256" lon="4.81541">
        <ele>247</ele>
        <time>2018-07-03T10:14:07Z</time>
      </trkpt>
      <trkpt lat="45.98252" lon="4.81536">
        <ele>247</ele>
        <time>2018-07-03T10:14:08Z</time>
      </trkpt>
      <trkpt lat="45.98249" lon="4.8153">
        <ele>249</ele>
        <time>2018-07-03T10:14:09Z</time>
      </trkpt>
      <trkpt lat="45.98247" lon="4.81524">
        <ele>249</ele>
        <time>2018-07-03T10:14:10Z</time>
      </trkpt>
      <trkpt lat="45.98244" lon="4.81513">
        <ele>249</ele>
        <time>2018-07-03T10:14:12Z</time>
      </trkpt>
      <trkpt lat="45.98243" lon="4.81507">
        <ele>249</ele>
        <time>2018-07-03T10:14:13Z</time>
      </trkpt>
      <trkpt lat="45.9824" lon="4.81502">
        <ele>249</ele>
        <time>2018-07-03T10:14:14Z</time>
      </trkpt>
      <trkpt lat="45.98236" lon="4.81496">
        <ele>249</ele>
        <time>2018-07-03T10:14:15Z</time>
      </trkpt>
      <trkpt lat="45.98234" lon="4.81488">
        <ele>249</ele>
        <time>2018-07-03T10:14:16Z</time>
      </trkpt>
      <trkpt lat="45.98232" lon="4.81482">
        <ele>249</ele>
        <time>2018-07-03T10:14:17Z</time>
      </trkpt>
      <trkpt lat="45.98229" lon="4.81475">
        <ele>249</ele>
        <time>2018-07-03T10:14:18Z</time>
      </trkpt>
      <trkpt lat="45.98228" lon="4.81469">
        <ele>249</ele>
        <time>2018-07-03T10:14:19Z</time>
      </trkpt>
      <trkpt lat="45.98228" lon="4.81457">
        <ele>249</ele>
        <time>2018-07-03T10:14:21Z</time>
      </trkpt>
      <trkpt lat="45.98226" lon="4.8145">
        <ele>249</ele>
        <time>2018-07-03T10:14:22Z</time>
      </trkpt>
      <trkpt lat="45.98222" lon="4.81445">
        <ele>249</ele>
        <time>2018-07-03T10:14:23Z</time>
      </trkpt>
      <trkpt lat="45.9822" lon="4.81438">
        <ele>249</ele>
        <time>2018-07-03T10:14:24Z</time>
      </trkpt>
      <trkpt lat="45.98216" lon="4.81432">
        <ele>249</ele>
        <time>2018-07-03T10:14:25Z</time>
      </trkpt>
      <trkpt lat="45.98214" lon="4.81426">
        <ele>249</ele>
        <time>2018-07-03T10:14:26Z</time>
      </trkpt>
      <trkpt lat="45.98212" lon="4.81415">
        <ele>248</ele>
        <time>2018-07-03T10:14:28Z</time>
      </trkpt>
      <trkpt lat="45.9821" lon="4.81409">
        <ele>248</ele>
        <time>2018-07-03T10:14:29Z</time>
      </trkpt>
      <trkpt lat="45.98206" lon="4.814">
        <ele>248</ele>
        <time>2018-07-03T10:14:31Z</time>
      </trkpt>
      <trkpt lat="45.98204" lon="4.81395">
        <ele>248</ele>
        <time>2018-07-03T10:14:32Z</time>
      </trkpt>
      <trkpt lat="45.98202" lon="4.81389">
        <ele>248</ele>
        <time>2018-07-03T10:14:33Z</time>
      </trkpt>
      <trkpt lat="45.982" lon="4.81383">
        <ele>248</ele>
        <time>2018-07-03T10:14:34Z</time>
      </trkpt>
      <trkpt lat="45.982" lon="4.81371">
        <ele>248</ele>
        <time>2018-07-03T10:14:36Z</time>
      </trkpt>
      <trkpt lat="45.98197" lon="4.81364">
        <ele>248</ele>
        <time>2018-07-03T10:14:37Z</time>
      </trkpt>
      <trkpt lat="45.98195" lon="4.81357">
        <ele>248</ele>
        <time>2018-07-03T10:14:38Z</time>
      </trkpt>
      <trkpt lat="45.98194" lon="4.8135">
        <ele>248</ele>
        <time>2018-07-03T10:14:39Z</time>
      </trkpt>
      <trkpt lat="45.98192" lon="4.81342">
        <ele>248</ele>
        <time>2018-07-03T10:14:40Z</time>
      </trkpt>
      <trkpt lat="45.9819" lon="4.81336">
        <ele>248</ele>
        <time>2018-07-03T10:14:41Z</time>
      </trkpt>
      <trkpt lat="45.98188" lon="4.81328">
        <ele>247</ele>
        <time>2018-07-03T10:14:42Z</time>
      </trkpt>
      <trkpt lat="45.98187" lon="4.81319">
        <ele>247</ele>
        <time>2018-07-03T10:14:43Z</time>
      </trkpt>
      <trkpt lat="45.98186" lon="4.81312">
        <ele>247</ele>
        <time>2018-07-03T10:14:44Z</time>
      </trkpt>
      <trkpt lat="45.98186" lon="4.81304">
        <ele>247</ele>
        <time>2018-07-03T10:14:45Z</time>
      </trkpt>
      <trkpt lat="45.98183" lon="4.81296">
        <ele>247</ele>
        <time>2018-07-03T10:14:46Z</time>
      </trkpt>
      <trkpt lat="45.98181" lon="4.81288">
        <ele>247</ele>
        <time>2018-07-03T10:14:47Z</time>
      </trkpt>
      <trkpt lat="45.9818" lon="4.81279">
        <ele>247</ele>
        <time>2018-07-03T10:14:48Z</time>
      </trkpt>
      <trkpt lat="45.98177" lon="4.81271">
        <ele>247</ele>
        <time>2018-07-03T10:14:49Z</time>
      </trkpt>
      <trkpt lat="45.98174" lon="4.81262">
        <ele>247</ele>
        <time>2018-07-03T10:14:50Z</time>
      </trkpt>
      <trkpt lat="45.98172" lon="4.81253">
        <ele>248</ele>
        <time>2018-07-03T10:14:51Z</time>
      </trkpt>
      <trkpt lat="45.98172" lon="4.81244">
        <ele>247</ele>
        <time>2018-07-03T10:14:52Z</time>
      </trkpt>
      <trkpt lat="45.98171" lon="4.81236">
        <ele>247</ele>
        <time>2018-07-03T10:14:53Z</time>
      </trkpt>
      <trkpt lat="45.98169" lon="4.81228">
        <ele>246</ele>
        <time>2018-07-03T10:14:54Z</time>
      </trkpt>
      <trkpt lat="45.98168" lon="4.81219">
        <ele>246</ele>
        <time>2018-07-03T10:14:55Z</time>
      </trkpt>
      <trkpt lat="45.98168" lon="4.81211">
        <ele>246</ele>
        <time>2018-07-03T10:14:56Z</time>
      </trkpt>
      <trkpt lat="45.98167" lon="4.81203">
        <ele>245</ele>
        <time>2018-07-03T10:14:57Z</time>
      </trkpt>
      <trkpt lat="45.98167" lon="4.81196">
        <ele>245</ele>
        <time>2018-07-03T10:14:58Z</time>
      </trkpt>
      <trkpt lat="45.98166" lon="4.81188">
        <ele>246</ele>
        <time>2018-07-03T10:14:59Z</time>
      </trkpt>
      <trkpt lat="45.98164" lon="4.8118">
        <ele>246</ele>
        <time>2018-07-03T10:15:00Z</time>
      </trkpt>
      <trkpt lat="45.98162" lon="4.81172">
        <ele>245</ele>
        <time>2018-07-03T10:15:01Z</time>
      </trkpt>
      <trkpt lat="45.98161" lon="4.81164">
        <ele>245</ele>
        <time>2018-07-03T10:15:02Z</time>
      </trkpt>
      <trkpt lat="45.98158" lon="4.81156">
        <ele>245</ele>
        <time>2018-07-03T10:15:03Z</time>
      </trkpt>
      <trkpt lat="45.98156" lon="4.81147">
        <ele>245</ele>
        <time>2018-07-03T10:15:04Z</time>
      </trkpt>
      <trkpt lat="45.98154" lon="4.81139">
        <ele>245</ele>
        <time>2018-07-03T10:15:05Z</time>
      </trkpt>
      <trkpt lat="45.98151" lon="4.81131">
        <ele>245</ele>
        <time>2018-07-03T10:15:06Z</time>
      </trkpt>
      <trkpt lat="45.98149" lon="4.81123">
        <ele>245</ele>
        <time>2018-07-03T10:15:07Z</time>
      </trkpt>
      <trkpt lat="45.98144" lon="4.81115">
        <ele>245</ele>
        <time>2018-07-03T10:15:08Z</time>
      </trkpt>
      <trkpt lat="45.98138" lon="4.81108">
        <ele>245</ele>
        <time>2018-07-03T10:15:09Z</time>
      </trkpt>
      <trkpt lat="45.98135" lon="4.811">
        <ele>245</ele>
        <time>2018-07-03T10:15:10Z</time>
      </trkpt>
      <trkpt lat="45.98132" lon="4.81093">
        <ele>245</ele>
        <time>2018-07-03T10:15:11Z</time>
      </trkpt>
      <trkpt lat="45.98128" lon="4.81086">
        <ele>245</ele>
        <time>2018-07-03T10:15:12Z</time>
      </trkpt>
      <trkpt lat="45.98127" lon="4.81079">
        <ele>243</ele>
        <time>2018-07-03T10:15:13Z</time>
      </trkpt>
      <trkpt lat="45.98124" lon="4.8107">
        <ele>243</ele>
        <time>2018-07-03T10:15:14Z</time>
      </trkpt>
      <trkpt lat="45.98122" lon="4.81063">
        <ele>243</ele>
        <time>2018-07-03T10:15:15Z</time>
      </trkpt>
      <trkpt lat="45.9812" lon="4.81054">
        <ele>243</ele>
        <time>2018-07-03T10:15:16Z</time>
      </trkpt>
      <trkpt lat="45.98116" lon="4.81047">
        <ele>243</ele>
        <time>2018-07-03T10:15:17Z</time>
      </trkpt>
      <trkpt lat="45.98114" lon="4.81038">
        <ele>242</ele>
        <time>2018-07-03T10:15:18Z</time>
      </trkpt>
      <trkpt lat="45.9811" lon="4.81031">
        <ele>242</ele>
        <time>2018-07-03T10:15:19Z</time>
      </trkpt>
      <trkpt lat="45.98107" lon="4.81025">
        <ele>242</ele>
        <time>2018-07-03T10:15:20Z</time>
      </trkpt>
      <trkpt lat="45.98102" lon="4.81017">
        <ele>242</ele>
        <time>2018-07-03T10:15:21Z</time>
      </trkpt>
      <trkpt lat="45.981" lon="4.8101">
        <ele>242</ele>
        <time>2018-07-03T10:15:22Z</time>
      </trkpt>
      <trkpt lat="45.98098" lon="4.81003">
        <ele>242</ele>
        <time>2018-07-03T10:15:23Z</time>
      </trkpt>
      <trkpt lat="45.98095" lon="4.80995">
        <ele>240</ele>
        <time>2018-07-03T10:15:24Z</time>
      </trkpt>
      <trkpt lat="45.98092" lon="4.80989">
        <ele>240</ele>
        <time>2018-07-03T10:15:25Z</time>
      </trkpt>
      <trkpt lat="45.9809" lon="4.80982">
        <ele>240</ele>
        <time>2018-07-03T10:15:26Z</time>
      </trkpt>
      <trkpt lat="45.98088" lon="4.80975">
        <ele>239</ele>
        <time>2018-07-03T10:15:27Z</time>
      </trkpt>
      <trkpt lat="45.98086" lon="4.80967">
        <ele>239</ele>
        <time>2018-07-03T10:15:28Z</time>
      </trkpt>
      <trkpt lat="45.98085" lon="4.80959">
        <ele>239</ele>
        <time>2018-07-03T10:15:29Z</time>
      </trkpt>
      <trkpt lat="45.98084" lon="4.8095">
        <ele>238</ele>
        <time>2018-07-03T10:15:30Z</time>
      </trkpt>
      <trkpt lat="45.98079" lon="4.80939">
        <ele>240</ele>
        <time>2018-07-03T10:15:31Z</time>
      </trkpt>
      <trkpt lat="45.98077" lon="4.80927">
        <ele>240</ele>
        <time>2018-07-03T10:15:32Z</time>
      </trkpt>
      <trkpt lat="45.98074" lon="4.80918">
        <ele>240</ele>
        <time>2018-07-03T10:15:33Z</time>
      </trkpt>
      <trkpt lat="45.98071" lon="4.80907">
        <ele>238</ele>
        <time>2018-07-03T10:15:34Z</time>
      </trkpt>
      <trkpt lat="45.9807" lon="4.80897">
        <ele>238</ele>
        <time>2018-07-03T10:15:35Z</time>
      </trkpt>
      <trkpt lat="45.98068" lon="4.80886">
        <ele>237</ele>
        <time>2018-07-03T10:15:36Z</time>
      </trkpt>
      <trkpt lat="45.98066" lon="4.80875">
        <ele>237</ele>
        <time>2018-07-03T10:15:37Z</time>
      </trkpt>
      <trkpt lat="45.98065" lon="4.80865">
        <ele>237</ele>
        <time>2018-07-03T10:15:38Z</time>
      </trkpt>
      <trkpt lat="45.98062" lon="4.80854">
        <ele>236</ele>
        <time>2018-07-03T10:15:39Z</time>
      </trkpt>
      <trkpt lat="45.98061" lon="4.80844">
        <ele>236</ele>
        <time>2018-07-03T10:15:40Z</time>
      </trkpt>
      <trkpt lat="45.98059" lon="4.80834">
        <ele>236</ele>
        <time>2018-07-03T10:15:41Z</time>
      </trkpt>
      <trkpt lat="45.98057" lon="4.80824">
        <ele>234</ele>
        <time>2018-07-03T10:15:42Z</time>
      </trkpt>
      <trkpt lat="45.98053" lon="4.80813">
        <ele>234</ele>
        <time>2018-07-03T10:15:43Z</time>
      </trkpt>
      <trkpt lat="45.9805" lon="4.80803">
        <ele>234</ele>
        <time>2018-07-03T10:15:44Z</time>
      </trkpt>
      <trkpt lat="45.9805" lon="4.80792">
        <ele>233</ele>
        <time>2018-07-03T10:15:45Z</time>
      </trkpt>
      <trkpt lat="45.98048" lon="4.80781">
        <ele>233</ele>
        <time>2018-07-03T10:15:46Z</time>
      </trkpt>
      <trkpt lat="45.98043" lon="4.80774">
        <ele>233</ele>
        <time>2018-07-03T10:15:47Z</time>
      </trkpt>
      <trkpt lat="45.98042" lon="4.80766">
        <ele>233</ele>
        <time>2018-07-03T10:15:48Z</time>
      </trkpt>
      <trkpt lat="45.9804" lon="4.80759">
        <ele>233</ele>
        <time>2018-07-03T10:15:49Z</time>
      </trkpt>
      <trkpt lat="45.9804" lon="4.80752">
        <ele>233</ele>
        <time>2018-07-03T10:15:50Z</time>
      </trkpt>
      <trkpt lat="45.98038" lon="4.80745">
        <ele>231</ele>
        <time>2018-07-03T10:15:51Z</time>
      </trkpt>
      <trkpt lat="45.98037" lon="4.80738">
        <ele>231</ele>
        <time>2018-07-03T10:15:52Z</time>
      </trkpt>
      <trkpt lat="45.98035" lon="4.80731">
        <ele>231</ele>
        <time>2018-07-03T10:15:53Z</time>
      </trkpt>
      <trkpt lat="45.98034" lon="4.80725">
        <ele>231</ele>
        <time>2018-07-03T10:15:54Z</time>
      </trkpt>
      <trkpt lat="45.98031" lon="4.80718">
        <ele>231</ele>
        <time>2018-07-03T10:15:55Z</time>
      </trkpt>
      <trkpt lat="45.98029" lon="4.80708">
        <ele>231</ele>
        <time>2018-07-03T10:15:57Z</time>
      </trkpt>
      <trkpt lat="45.98028" lon="4.80702">
        <ele>231</ele>
        <time>2018-07-03T10:15:58Z</time>
      </trkpt>
      <trkpt lat="45.9803" lon="4.80697">
        <ele>230</ele>
        <time>2018-07-03T10:15:59Z</time>
      </trkpt>
      <trkpt lat="45.98037" lon="4.80697">
        <ele>230</ele>
        <time>2018-07-03T10:16:00Z</time>
      </trkpt>
      <trkpt lat="45.9804" lon="4.80694">
        <ele>230</ele>
        <time>2018-07-03T10:16:01Z</time>
      </trkpt>
      <trkpt lat="45.98046" lon="4.80694">
        <ele>230</ele>
        <time>2018-07-03T10:16:02Z</time>
      </trkpt>
      <trkpt lat="45.98051" lon="4.80694">
        <ele>230</ele>
        <time>2018-07-03T10:16:03Z</time>
      </trkpt>
      <trkpt lat="45.98059" lon="4.80692">
        <ele>230</ele>
        <time>2018-07-03T10:16:04Z</time>
      </trkpt>
      <trkpt lat="45.98065" lon="4.80692">
        <ele>230</ele>
        <time>2018-07-03T10:16:05Z</time>
      </trkpt>
      <trkpt lat="45.98072" lon="4.80692">
        <ele>230</ele>
        <time>2018-07-03T10:16:06Z</time>
      </trkpt>
      <trkpt lat="45.98078" lon="4.80693">
        <ele>230</ele>
        <time>2018-07-03T10:16:07Z</time>
      </trkpt>
      <trkpt lat="45.98085" lon="4.80691">
        <ele>228</ele>
        <time>2018-07-03T10:16:08Z</time>
      </trkpt>
      <trkpt lat="45.98092" lon="4.80691">
        <ele>228</ele>
        <time>2018-07-03T10:16:09Z</time>
      </trkpt>
      <trkpt lat="45.98099" lon="4.80691">
        <ele>228</ele>
        <time>2018-07-03T10:16:10Z</time>
      </trkpt>
      <trkpt lat="45.98108" lon="4.80691">
        <ele>228</ele>
        <time>2018-07-03T10:16:11Z</time>
      </trkpt>
      <trkpt lat="45.98115" lon="4.80691">
        <ele>228</ele>
        <time>2018-07-03T10:16:12Z</time>
      </trkpt>
      <trkpt lat="45.98123" lon="4.80691">
        <ele>228</ele>
        <time>2018-07-03T10:16:13Z</time>
      </trkpt>
      <trkpt lat="45.9813" lon="4.80691">
        <ele>228</ele>
        <time>2018-07-03T10:16:14Z</time>
      </trkpt>
      <trkpt lat="45.98137" lon="4.80691">
        <ele>228</ele>
        <time>2018-07-03T10:16:15Z</time>
      </trkpt>
      <trkpt lat="45.98144" lon="4.80689">
        <ele>228</ele>
        <time>2018-07-03T10:16:16Z</time>
      </trkpt>
      <trkpt lat="45.98152" lon="4.80688">
        <ele>227</ele>
        <time>2018-07-03T10:16:17Z</time>
      </trkpt>
      <trkpt lat="45.9816" lon="4.80687">
        <ele>227</ele>
        <time>2018-07-03T10:16:18Z</time>
      </trkpt>
      <trkpt lat="45.98166" lon="4.80686">
        <ele>227</ele>
        <time>2018-07-03T10:16:19Z</time>
      </trkpt>
      <trkpt lat="45.98175" lon="4.80681">
        <ele>225</ele>
        <time>2018-07-03T10:16:20Z</time>
      </trkpt>
      <trkpt lat="45.98182" lon="4.80679">
        <ele>225</ele>
        <time>2018-07-03T10:16:21Z</time>
      </trkpt>
      <trkpt lat="45.9819" lon="4.80678">
        <ele>225</ele>
        <time>2018-07-03T10:16:22Z</time>
      </trkpt>
      <trkpt lat="45.98198" lon="4.80675">
        <ele>225</ele>
        <time>2018-07-03T10:16:23Z</time>
      </trkpt>
      <trkpt lat="45.98203" lon="4.80671">
        <ele>225</ele>
        <time>2018-07-03T10:16:24Z</time>
      </trkpt>
      <trkpt lat="45.9821" lon="4.80668">
        <ele>224</ele>
        <time>2018-07-03T10:16:25Z</time>
      </trkpt>
      <trkpt lat="45.98217" lon="4.80663">
        <ele>224</ele>
        <time>2018-07-03T10:16:26Z</time>
      </trkpt>
      <trkpt lat="45.98223" lon="4.80658">
        <ele>224</ele>
        <time>2018-07-03T10:16:27Z</time>
      </trkpt>
      <trkpt lat="45.98226" lon="4.80652">
        <ele>223</ele>
        <time>2018-07-03T10:16:28Z</time>
      </trkpt>
      <trkpt lat="45.9823" lon="4.80642">
        <ele>224</ele>
        <time>2018-07-03T10:16:29Z</time>
      </trkpt>
      <trkpt lat="45.98233" lon="4.80631">
        <ele>224</ele>
        <time>2018-07-03T10:16:30Z</time>
      </trkpt>
      <trkpt lat="45.98236" lon="4.80626">
        <ele>224</ele>
        <time>2018-07-03T10:16:31Z</time>
      </trkpt>
      <trkpt lat="45.98239" lon="4.80618">
        <ele>224</ele>
        <time>2018-07-03T10:16:32Z</time>
      </trkpt>
      <trkpt lat="45.98243" lon="4.80605">
        <ele>224</ele>
        <time>2018-07-03T10:16:33Z</time>
      </trkpt>
      <trkpt lat="45.98246" lon="4.80593">
        <ele>224</ele>
        <time>2018-07-03T10:16:34Z</time>
      </trkpt>
      <trkpt lat="45.98248" lon="4.80584">
        <ele>224</ele>
        <time>2018-07-03T10:16:35Z</time>
      </trkpt>
      <trkpt lat="45.98251" lon="4.80575">
        <ele>224</ele>
        <time>2018-07-03T10:16:36Z</time>
      </trkpt>
      <trkpt lat="45.98252" lon="4.80564">
        <ele>224</ele>
        <time>2018-07-03T10:16:37Z</time>
      </trkpt>
      <trkpt lat="45.98254" lon="4.80553">
        <ele>224</ele>
        <time>2018-07-03T10:16:38Z</time>
      </trkpt>
      <trkpt lat="45.98256" lon="4.80543">
        <ele>224</ele>
        <time>2018-07-03T10:16:39Z</time>
      </trkpt>
      <trkpt lat="45.98258" lon="4.80533">
        <ele>224</ele>
        <time>2018-07-03T10:16:40Z</time>
      </trkpt>
      <trkpt lat="45.9826" lon="4.80525">
        <ele>223</ele>
        <time>2018-07-03T10:16:41Z</time>
      </trkpt>
      <trkpt lat="45.98262" lon="4.80516">
        <ele>223</ele>
        <time>2018-07-03T10:16:42Z</time>
      </trkpt>
      <trkpt lat="45.98265" lon="4.80509">
        <ele>223</ele>
        <time>2018-07-03T10:16:43Z</time>
      </trkpt>
      <trkpt lat="45.98267" lon="4.80501">
        <ele>223</ele>
        <time>2018-07-03T10:16:44Z</time>
      </trkpt>
      <trkpt lat="45.98268" lon="4.80492">
        <ele>223</ele>
        <time>2018-07-03T10:16:45Z</time>
      </trkpt>
      <trkpt lat="45.98268" lon="4.80483">
        <ele>223</ele>
        <time>2018-07-03T10:16:46Z</time>
      </trkpt>
      <trkpt lat="45.98271" lon="4.80478">
        <ele>223</ele>
        <time>2018-07-03T10:16:47Z</time>
      </trkpt>
      <trkpt lat="45.98273" lon="4.80469">
        <ele>223</ele>
        <time>2018-07-03T10:16:48Z</time>
      </trkpt>
      <trkpt lat="45.98275" lon="4.80463">
        <ele>223</ele>
        <time>2018-07-03T10:16:49Z</time>
      </trkpt>
      <trkpt lat="45.98278" lon="4.80456">
        <ele>223</ele>
        <time>2018-07-03T10:16:50Z</time>
      </trkpt>
      <trkpt lat="45.98281" lon="4.80451">
        <ele>223</ele>
        <time>2018-07-03T10:16:51Z</time>
      </trkpt>
      <trkpt lat="45.98282" lon="4.80442">
        <ele>223</ele>
        <time>2018-07-03T10:16:52Z</time>
      </trkpt>
      <trkpt lat="45.98285" lon="4.80435">
        <ele>223</ele>
        <time>2018-07-03T10:16:53Z</time>
      </trkpt>
      <trkpt lat="45.98284" lon="4.80424">
        <ele>223</ele>
        <time>2018-07-03T10:16:54Z</time>
      </trkpt>
      <trkpt lat="45.98286" lon="4.80418">
        <ele>223</ele>
        <time>2018-07-03T10:16:55Z</time>
      </trkpt>
      <trkpt lat="45.9829" lon="4.80409">
        <ele>224</ele>
        <time>2018-07-03T10:16:56Z</time>
      </trkpt>
      <trkpt lat="45.98291" lon="4.80402">
        <ele>224</ele>
        <time>2018-07-03T10:16:57Z</time>
      </trkpt>
      <trkpt lat="45.98293" lon="4.80393">
        <ele>224</ele>
        <time>2018-07-03T10:16:58Z</time>
      </trkpt>
      <trkpt lat="45.98296" lon="4.80384">
        <ele>224</ele>
        <time>2018-07-03T10:16:59Z</time>
      </trkpt>
      <trkpt lat="45.98299" lon="4.80378">
        <ele>225</ele>
        <time>2018-07-03T10:17:01Z</time>
      </trkpt>
      <trkpt lat="45.983" lon="4.80369">
        <ele>225</ele>
        <time>2018-07-03T10:17:02Z</time>
      </trkpt>
      <trkpt lat="45.98303" lon="4.8036">
        <ele>225</ele>
        <time>2018-07-03T10:17:04Z</time>
      </trkpt>
      <trkpt lat="45.98307" lon="4.80352">
        <ele>225</ele>
        <time>2018-07-03T10:17:05Z</time>
      </trkpt>
      <trkpt lat="45.98308" lon="4.80344">
        <ele>226</ele>
        <time>2018-07-03T10:17:06Z</time>
      </trkpt>
      <trkpt lat="45.98309" lon="4.80338">
        <ele>226</ele>
        <time>2018-07-03T10:17:07Z</time>
      </trkpt>
      <trkpt lat="45.98311" lon="4.80331">
        <ele>227</ele>
        <time>2018-07-03T10:17:08Z</time>
      </trkpt>
      <trkpt lat="45.98312" lon="4.80325">
        <ele>227</ele>
        <time>2018-07-03T10:17:09Z</time>
      </trkpt>
      <trkpt lat="45.98313" lon="4.80315">
        <ele>227</ele>
        <time>2018-07-03T10:17:10Z</time>
      </trkpt>
      <trkpt lat="45.98314" lon="4.80307">
        <ele>226</ele>
        <time>2018-07-03T10:17:11Z</time>
      </trkpt>
      <trkpt lat="45.98317" lon="4.80303">
        <ele>226</ele>
        <time>2018-07-03T10:17:12Z</time>
      </trkpt>
      <trkpt lat="45.98319" lon="4.80296">
        <ele>226</ele>
        <time>2018-07-03T10:17:13Z</time>
      </trkpt>
      <trkpt lat="45.9832" lon="4.80289">
        <ele>227</ele>
        <time>2018-07-03T10:17:14Z</time>
      </trkpt>
      <trkpt lat="45.9832" lon="4.80281">
        <ele>227</ele>
        <time>2018-07-03T10:17:15Z</time>
      </trkpt>
      <trkpt lat="45.9832" lon="4.8027">
        <ele>227</ele>
        <time>2018-07-03T10:17:17Z</time>
      </trkpt>
      <trkpt lat="45.98322" lon="4.80264">
        <ele>228</ele>
        <time>2018-07-03T10:17:18Z</time>
      </trkpt>
      <trkpt lat="45.98323" lon="4.8026">
        <ele>228</ele>
        <time>2018-07-03T10:17:20Z</time>
      </trkpt>
      <trkpt lat="45.98326" lon="4.8025">
        <ele>229</ele>
        <time>2018-07-03T10:17:21Z</time>
      </trkpt>
      <trkpt lat="45.98329" lon="4.80242">
        <ele>229</ele>
        <time>2018-07-03T10:17:24Z</time>
      </trkpt>
      <trkpt lat="45.9833" lon="4.80238">
        <ele>228</ele>
        <time>2018-07-03T10:17:25Z</time>
      </trkpt>
      <trkpt lat="45.98333" lon="4.80224">
        <ele>228</ele>
        <time>2018-07-03T10:17:26Z</time>
      </trkpt>
      <trkpt lat="45.98332" lon="4.80218">
        <ele>227</ele>
        <time>2018-07-03T10:17:27Z</time>
      </trkpt>
      <trkpt lat="45.98329" lon="4.80208">
        <ele>227</ele>
        <time>2018-07-03T10:17:28Z</time>
      </trkpt>
      <trkpt lat="45.98326" lon="4.80198">
        <ele>227</ele>
        <time>2018-07-03T10:17:30Z</time>
      </trkpt>
      <trkpt lat="45.98325" lon="4.80193">
        <ele>227</ele>
        <time>2018-07-03T10:17:31Z</time>
      </trkpt>
      <trkpt lat="45.98323" lon="4.80185">
        <ele>227</ele>
        <time>2018-07-03T10:17:33Z</time>
      </trkpt>
      <trkpt lat="45.98321" lon="4.80179">
        <ele>227</ele>
        <time>2018-07-03T10:17:34Z</time>
      </trkpt>
      <trkpt lat="45.98319" lon="4.80174">
        <ele>227</ele>
        <time>2018-07-03T10:17:35Z</time>
      </trkpt>
      <trkpt lat="45.98316" lon="4.80168">
        <ele>227</ele>
        <time>2018-07-03T10:17:36Z</time>
      </trkpt>
      <trkpt lat="45.98312" lon="4.80162">
        <ele>228</ele>
        <time>2018-07-03T10:17:37Z</time>
      </trkpt>
      <trkpt lat="45.98309" lon="4.80155">
        <ele>228</ele>
        <time>2018-07-03T10:17:38Z</time>
      </trkpt>
      <trkpt lat="45.98307" lon="4.80144">
        <ele>228</ele>
        <time>2018-07-03T10:17:40Z</time>
      </trkpt>
      <trkpt lat="45.98305" lon="4.80138">
        <ele>228</ele>
        <time>2018-07-03T10:17:41Z</time>
      </trkpt>
      <trkpt lat="45.98302" lon="4.80132">
        <ele>228</ele>
        <time>2018-07-03T10:17:42Z</time>
      </trkpt>
      <trkpt lat="45.983" lon="4.80127">
        <ele>228</ele>
        <time>2018-07-03T10:17:43Z</time>
      </trkpt>
      <trkpt lat="45.98298" lon="4.80121">
        <ele>228</ele>
        <time>2018-07-03T10:17:44Z</time>
      </trkpt>
      <trkpt lat="45.98296" lon="4.80114">
        <ele>228</ele>
        <time>2018-07-03T10:17:45Z</time>
      </trkpt>
      <trkpt lat="45.98295" lon="4.80108">
        <ele>228</ele>
        <time>2018-07-03T10:17:46Z</time>
      </trkpt>
      <trkpt lat="45.98294" lon="4.80101">
        <ele>228</ele>
        <time>2018-07-03T10:17:47Z</time>
      </trkpt>
      <trkpt lat="45.98291" lon="4.8009">
        <ele>228</ele>
        <time>2018-07-03T10:17:49Z</time>
      </trkpt>
      <trkpt lat="45.9829" lon="4.80084">
        <ele>228</ele>
        <time>2018-07-03T10:17:50Z</time>
      </trkpt>
      <trkpt lat="45.98287" lon="4.80074">
        <ele>229</ele>
        <time>2018-07-03T10:17:52Z</time>
      </trkpt>
      <trkpt lat="45.98285" lon="4.80068">
        <ele>229</ele>
        <time>2018-07-03T10:17:53Z</time>
      </trkpt>
      <trkpt lat="45.9828" lon="4.80057">
        <ele>229</ele>
        <time>2018-07-03T10:17:55Z</time>
      </trkpt>
      <trkpt lat="45.98277" lon="4.80051">
        <ele>229</ele>
        <time>2018-07-03T10:17:56Z</time>
      </trkpt>
      <trkpt lat="45.98275" lon="4.80045">
        <ele>229</ele>
        <time>2018-07-03T10:17:57Z</time>
      </trkpt>
      <trkpt lat="45.98272" lon="4.80038">
        <ele>229</ele>
        <time>2018-07-03T10:17:58Z</time>
      </trkpt>
      <trkpt lat="45.98268" lon="4.80031">
        <ele>229</ele>
        <time>2018-07-03T10:17:59Z</time>
      </trkpt>
      <trkpt lat="45.98266" lon="4.80025">
        <ele>228</ele>
        <time>2018-07-03T10:18:00Z</time>
      </trkpt>
      <trkpt lat="45.98263" lon="4.80019">
        <ele>228</ele>
        <time>2018-07-03T10:18:01Z</time>
      </trkpt>
      <trkpt lat="45.98261" lon="4.80013">
        <ele>228</ele>
        <time>2018-07-03T10:18:02Z</time>
      </trkpt>
      <trkpt lat="45.98257" lon="4.80006">
        <ele>227</ele>
        <time>2018-07-03T10:18:03Z</time>
      </trkpt>
      <trkpt lat="45.98254" lon="4.80001">
        <ele>227</ele>
        <time>2018-07-03T10:18:04Z</time>
      </trkpt>
      <trkpt lat="45.98251" lon="4.79994">
        <ele>227</ele>
        <time>2018-07-03T10:18:05Z</time>
      </trkpt>
      <trkpt lat="45.98248" lon="4.79987">
        <ele>226</ele>
        <time>2018-07-03T10:18:06Z</time>
      </trkpt>
      <trkpt lat="45.98246" lon="4.79981">
        <ele>225</ele>
        <time>2018-07-03T10:18:07Z</time>
      </trkpt>
      <trkpt lat="45.98245" lon="4.79974">
        <ele>225</ele>
        <time>2018-07-03T10:18:08Z</time>
      </trkpt>
      <trkpt lat="45.98242" lon="4.79967">
        <ele>225</ele>
        <time>2018-07-03T10:18:09Z</time>
      </trkpt>
      <trkpt lat="45.9824" lon="4.79961">
        <ele>225</ele>
        <time>2018-07-03T10:18:10Z</time>
      </trkpt>
      <trkpt lat="45.98238" lon="4.79953">
        <ele>225</ele>
        <time>2018-07-03T10:18:11Z</time>
      </trkpt>
      <trkpt lat="45.98235" lon="4.79947">
        <ele>225</ele>
        <time>2018-07-03T10:18:12Z</time>
      </trkpt>
      <trkpt lat="45.98232" lon="4.79935">
        <ele>225</ele>
        <time>2018-07-03T10:18:14Z</time>
      </trkpt>
      <trkpt lat="45.9823" lon="4.79928">
        <ele>225</ele>
        <time>2018-07-03T10:18:15Z</time>
      </trkpt>
      <trkpt lat="45.98227" lon="4.79921">
        <ele>225</ele>
        <time>2018-07-03T10:18:16Z</time>
      </trkpt>
      <trkpt lat="45.98226" lon="4.79914">
        <ele>225</ele>
        <time>2018-07-03T10:18:17Z</time>
      </trkpt>
      <trkpt lat="45.98224" lon="4.79907">
        <ele>225</ele>
        <time>2018-07-03T10:18:18Z</time>
      </trkpt>
      <trkpt lat="45.98222" lon="4.79901">
        <ele>225</ele>
        <time>2018-07-03T10:18:19Z</time>
      </trkpt>
      <trkpt lat="45.98219" lon="4.79895">
        <ele>225</ele>
        <time>2018-07-03T10:18:20Z</time>
      </trkpt>
      <trkpt lat="45.98218" lon="4.79888">
        <ele>225</ele>
        <time>2018-07-03T10:18:21Z</time>
      </trkpt>
      <trkpt lat="45.98216" lon="4.79882">
        <ele>225</ele>
        <time>2018-07-03T10:18:22Z</time>
      </trkpt>
      <trkpt lat="45.98215" lon="4.79875">
        <ele>225</ele>
        <time>2018-07-03T10:18:23Z</time>
      </trkpt>
      <trkpt lat="45.98213" lon="4.79868">
        <ele>225</ele>
        <time>2018-07-03T10:18:24Z</time>
      </trkpt>
      <trkpt lat="45.9821" lon="4.79862">
        <ele>225</ele>
        <time>2018-07-03T10:18:25Z</time>
      </trkpt>
      <trkpt lat="45.98208" lon="4.79854">
        <ele>225</ele>
        <time>2018-07-03T10:18:26Z</time>
      </trkpt>
      <trkpt lat="45.98205" lon="4.79845">
        <ele>225</ele>
        <time>2018-07-03T10:18:27Z</time>
      </trkpt>
      <trkpt lat="45.98202" lon="4.79837">
        <ele>225</ele>
        <time>2018-07-03T10:18:28Z</time>
      </trkpt>
      <trkpt lat="45.98199" lon="4.79832">
        <ele>225</ele>
        <time>2018-07-03T10:18:29Z</time>
      </trkpt>
      <trkpt lat="45.98197" lon="4.79826">
        <ele>225</ele>
        <time>2018-07-03T10:18:30Z</time>
      </trkpt>
      <trkpt lat="45.98196" lon="4.7982">
        <ele>225</ele>
        <time>2018-07-03T10:18:31Z</time>
      </trkpt>
      <trkpt lat="45.98193" lon="4.79814">
        <ele>225</ele>
        <time>2018-07-03T10:18:32Z</time>
      </trkpt>
      <trkpt lat="45.9819" lon="4.79808">
        <ele>226</ele>
        <time>2018-07-03T10:18:33Z</time>
      </trkpt>
      <trkpt lat="45.98188" lon="4.79802">
        <ele>226</ele>
        <time>2018-07-03T10:18:34Z</time>
      </trkpt>
      <trkpt lat="45.98186" lon="4.79796">
        <ele>226</ele>
        <time>2018-07-03T10:18:35Z</time>
      </trkpt>
      <trkpt lat="45.98184" lon="4.79786">
        <ele>226</ele>
        <time>2018-07-03T10:18:37Z</time>
      </trkpt>
      <trkpt lat="45.98182" lon="4.79779">
        <ele>226</ele>
        <time>2018-07-03T10:18:38Z</time>
      </trkpt>
      <trkpt lat="45.98181" lon="4.79768">
        <ele>226</ele>
        <time>2018-07-03T10:18:40Z</time>
      </trkpt>
      <trkpt lat="45.98182" lon="4.79762">
        <ele>226</ele>
        <time>2018-07-03T10:18:41Z</time>
      </trkpt>
      <trkpt lat="45.98184" lon="4.79751">
        <ele>226</ele>
        <time>2018-07-03T10:18:43Z</time>
      </trkpt>
      <trkpt lat="45.98183" lon="4.79746">
        <ele>227</ele>
        <time>2018-07-03T10:18:44Z</time>
      </trkpt>
      <trkpt lat="45.98178" lon="4.79737">
        <ele>227</ele>
        <time>2018-07-03T10:18:46Z</time>
      </trkpt>
      <trkpt lat="45.98173" lon="4.79736">
        <ele>227</ele>
        <time>2018-07-03T10:18:47Z</time>
      </trkpt>
      <trkpt lat="45.98167" lon="4.79736">
        <ele>227</ele>
        <time>2018-07-03T10:18:48Z</time>
      </trkpt>
      <trkpt lat="45.98163" lon="4.7974">
        <ele>226</ele>
        <time>2018-07-03T10:18:49Z</time>
      </trkpt>
      <trkpt lat="45.98158" lon="4.79744">
        <ele>226</ele>
        <time>2018-07-03T10:18:50Z</time>
      </trkpt>
      <trkpt lat="45.98153" lon="4.79748">
        <ele>226</ele>
        <time>2018-07-03T10:18:51Z</time>
      </trkpt>
      <trkpt lat="45.98146" lon="4.79752">
        <ele>225</ele>
        <time>2018-07-03T10:18:52Z</time>
      </trkpt>
      <trkpt lat="45.98139" lon="4.79753">
        <ele>224</ele>
        <time>2018-07-03T10:18:53Z</time>
      </trkpt>
      <trkpt lat="45.98132" lon="4.79753">
        <ele>224</ele>
        <time>2018-07-03T10:18:54Z</time>
      </trkpt>
      <trkpt lat="45.98126" lon="4.79755">
        <ele>224</ele>
        <time>2018-07-03T10:18:55Z</time>
      </trkpt>
      <trkpt lat="45.98118" lon="4.79756">
        <ele>224</ele>
        <time>2018-07-03T10:18:56Z</time>
      </trkpt>
      <trkpt lat="45.98112" lon="4.79757">
        <ele>224</ele>
        <time>2018-07-03T10:18:57Z</time>
      </trkpt>
      <trkpt lat="45.98104" lon="4.79759">
        <ele>224</ele>
        <time>2018-07-03T10:18:58Z</time>
      </trkpt>
      <trkpt lat="45.98096" lon="4.7976">
        <ele>223</ele>
        <time>2018-07-03T10:18:59Z</time>
      </trkpt>
      <trkpt lat="45.98089" lon="4.79762">
        <ele>223</ele>
        <time>2018-07-03T10:19:00Z</time>
      </trkpt>
      <trkpt lat="45.98081" lon="4.79763">
        <ele>223</ele>
        <time>2018-07-03T10:19:01Z</time>
      </trkpt>
      <trkpt lat="45.98073" lon="4.79765">
        <ele>223</ele>
        <time>2018-07-03T10:19:02Z</time>
      </trkpt>
      <trkpt lat="45.98066" lon="4.79765">
        <ele>223</ele>
        <time>2018-07-03T10:19:03Z</time>
      </trkpt>
      <trkpt lat="45.98059" lon="4.79765">
        <ele>223</ele>
        <time>2018-07-03T10:19:04Z</time>
      </trkpt>
      <trkpt lat="45.98053" lon="4.79766">
        <ele>223</ele>
        <time>2018-07-03T10:19:05Z</time>
      </trkpt>
      <trkpt lat="45.98046" lon="4.79767">
        <ele>223</ele>
        <time>2018-07-03T10:19:06Z</time>
      </trkpt>
      <trkpt lat="45.98039" lon="4.79768">
        <ele>223</ele>
        <time>2018-07-03T10:19:07Z</time>
      </trkpt>
      <trkpt lat="45.98032" lon="4.79769">
        <ele>223</ele>
        <time>2018-07-03T10:19:08Z</time>
      </trkpt>
      <trkpt lat="45.98026" lon="4.7977">
        <ele>223</ele>
        <time>2018-07-03T10:19:09Z</time>
      </trkpt>
      <trkpt lat="45.98018" lon="4.79772">
        <ele>223</ele>
        <time>2018-07-03T10:19:10Z</time>
      </trkpt>
      <trkpt lat="45.98011" lon="4.79773">
        <ele>223</ele>
        <time>2018-07-03T10:19:11Z</time>
      </trkpt>
      <trkpt lat="45.98004" lon="4.79774">
        <ele>223</ele>
        <time>2018-07-03T10:19:12Z</time>
      </trkpt>
      <trkpt lat="45.97997" lon="4.79775">
        <ele>224</ele>
        <time>2018-07-03T10:19:13Z</time>
      </trkpt>
      <trkpt lat="45.9799" lon="4.79775">
        <ele>224</ele>
        <time>2018-07-03T10:19:14Z</time>
      </trkpt>
      <trkpt lat="45.97981" lon="4.79776">
        <ele>224</ele>
        <time>2018-07-03T10:19:15Z</time>
      </trkpt>
      <trkpt lat="45.97974" lon="4.79777">
        <ele>224</ele>
        <time>2018-07-03T10:19:16Z</time>
      </trkpt>
      <trkpt lat="45.97966" lon="4.79778">
        <ele>224</ele>
        <time>2018-07-03T10:19:17Z</time>
      </trkpt>
      <trkpt lat="45.97958" lon="4.7978">
        <ele>224</ele>
        <time>2018-07-03T10:19:18Z</time>
      </trkpt>
      <trkpt lat="45.97951" lon="4.7978">
        <ele>224</ele>
        <time>2018-07-03T10:19:19Z</time>
      </trkpt>
      <trkpt lat="45.97945" lon="4.79779">
        <ele>224</ele>
        <time>2018-07-03T10:19:20Z</time>
      </trkpt>
      <trkpt lat="45.97938" lon="4.79781">
        <ele>225</ele>
        <time>2018-07-03T10:19:21Z</time>
      </trkpt>
      <trkpt lat="45.97932" lon="4.79781">
        <ele>225</ele>
        <time>2018-07-03T10:19:22Z</time>
      </trkpt>
      <trkpt lat="45.97925" lon="4.79783">
        <ele>225</ele>
        <time>2018-07-03T10:19:23Z</time>
      </trkpt>
      <trkpt lat="45.97919" lon="4.79783">
        <ele>225</ele>
        <time>2018-07-03T10:19:24Z</time>
      </trkpt>
      <trkpt lat="45.97912" lon="4.79783">
        <ele>225</ele>
        <time>2018-07-03T10:19:25Z</time>
      </trkpt>
      <trkpt lat="45.97906" lon="4.79785">
        <ele>225</ele>
        <time>2018-07-03T10:19:26Z</time>
      </trkpt>
      <trkpt lat="45.97898" lon="4.79787">
        <ele>225</ele>
        <time>2018-07-03T10:19:27Z</time>
      </trkpt>
      <trkpt lat="45.97892" lon="4.79788">
        <ele>224</ele>
        <time>2018-07-03T10:19:28Z</time>
      </trkpt>
      <trkpt lat="45.97884" lon="4.7979">
        <ele>224</ele>
        <time>2018-07-03T10:19:29Z</time>
      </trkpt>
      <trkpt lat="45.97878" lon="4.79791">
        <ele>224</ele>
        <time>2018-07-03T10:19:30Z</time>
      </trkpt>
      <trkpt lat="45.97872" lon="4.79792">
        <ele>224</ele>
        <time>2018-07-03T10:19:31Z</time>
      </trkpt>
      <trkpt lat="45.97865" lon="4.79793">
        <ele>224</ele>
        <time>2018-07-03T10:19:32Z</time>
      </trkpt>
      <trkpt lat="45.97858" lon="4.79794">
        <ele>224</ele>
        <time>2018-07-03T10:19:33Z</time>
      </trkpt>
      <trkpt lat="45.97853" lon="4.79795">
        <ele>224</ele>
        <time>2018-07-03T10:19:34Z</time>
      </trkpt>
      <trkpt lat="45.97848" lon="4.79797">
        <ele>224</ele>
        <time>2018-07-03T10:19:35Z</time>
      </trkpt>
      <trkpt lat="45.97842" lon="4.79798">
        <ele>224</ele>
        <time>2018-07-03T10:19:36Z</time>
      </trkpt>
      <trkpt lat="45.97836" lon="4.798">
        <ele>224</ele>
        <time>2018-07-03T10:19:37Z</time>
      </trkpt>
      <trkpt lat="45.9783" lon="4.79802">
        <ele>223</ele>
        <time>2018-07-03T10:19:38Z</time>
      </trkpt>
      <trkpt lat="45.97824" lon="4.79805">
        <ele>223</ele>
        <time>2018-07-03T10:19:39Z</time>
      </trkpt>
      <trkpt lat="45.97817" lon="4.79808">
        <ele>223</ele>
        <time>2018-07-03T10:19:40Z</time>
      </trkpt>
      <trkpt lat="45.9781" lon="4.79813">
        <ele>223</ele>
        <time>2018-07-03T10:19:41Z</time>
      </trkpt>
      <trkpt lat="45.97803" lon="4.79814">
        <ele>223</ele>
        <time>2018-07-03T10:19:42Z</time>
      </trkpt>
      <trkpt lat="45.97796" lon="4.79815">
        <ele>223</ele>
        <time>2018-07-03T10:19:43Z</time>
      </trkpt>
      <trkpt lat="45.97789" lon="4.79816">
        <ele>223</ele>
        <time>2018-07-03T10:19:44Z</time>
      </trkpt>
      <trkpt lat="45.97782" lon="4.79817">
        <ele>223</ele>
        <time>2018-07-03T10:19:45Z</time>
      </trkpt>
      <trkpt lat="45.97774" lon="4.79818">
        <ele>223</ele>
        <time>2018-07-03T10:19:46Z</time>
      </trkpt>
      <trkpt lat="45.97767" lon="4.79819">
        <ele>223</ele>
        <time>2018-07-03T10:19:47Z</time>
      </trkpt>
      <trkpt lat="45.9776" lon="4.7982">
        <ele>223</ele>
        <time>2018-07-03T10:19:48Z</time>
      </trkpt>
      <trkpt lat="45.97753" lon="4.79819">
        <ele>223</ele>
        <time>2018-07-03T10:19:49Z</time>
      </trkpt>
      <trkpt lat="45.97748" lon="4.79818">
        <ele>223</ele>
        <time>2018-07-03T10:19:50Z</time>
      </trkpt>
      <trkpt lat="45.97739" lon="4.79819">
        <ele>223</ele>
        <time>2018-07-03T10:19:51Z</time>
      </trkpt>
      <trkpt lat="45.97732" lon="4.79818">
        <ele>223</ele>
        <time>2018-07-03T10:19:52Z</time>
      </trkpt>
      <trkpt lat="45.97725" lon="4.7982">
        <ele>223</ele>
        <time>2018-07-03T10:19:53Z</time>
      </trkpt>
      <trkpt lat="45.97718" lon="4.7982">
        <ele>223</ele>
        <time>2018-07-03T10:19:54Z</time>
      </trkpt>
      <trkpt lat="45.97712" lon="4.79823">
        <ele>223</ele>
        <time>2018-07-03T10:19:55Z</time>
      </trkpt>
      <trkpt lat="45.97706" lon="4.79824">
        <ele>223</ele>
        <time>2018-07-03T10:19:56Z</time>
      </trkpt>
      <trkpt lat="45.97699" lon="4.79825">
        <ele>223</ele>
        <time>2018-07-03T10:19:57Z</time>
      </trkpt>
      <trkpt lat="45.97691" lon="4.79825">
        <ele>223</ele>
        <time>2018-07-03T10:19:58Z</time>
      </trkpt>
      <trkpt lat="45.97685" lon="4.79827">
        <ele>223</ele>
        <time>2018-07-03T10:19:59Z</time>
      </trkpt>
      <trkpt lat="45.97678" lon="4.79828">
        <ele>223</ele>
        <time>2018-07-03T10:20:00Z</time>
      </trkpt>
      <trkpt lat="45.97671" lon="4.79831">
        <ele>222</ele>
        <time>2018-07-03T10:20:01Z</time>
      </trkpt>
      <trkpt lat="45.97665" lon="4.79833">
        <ele>222</ele>
        <time>2018-07-03T10:20:02Z</time>
      </trkpt>
      <trkpt lat="45.97658" lon="4.79835">
        <ele>221</ele>
        <time>2018-07-03T10:20:03Z</time>
      </trkpt>
      <trkpt lat="45.97651" lon="4.79837">
        <ele>221</ele>
        <time>2018-07-03T10:20:04Z</time>
      </trkpt>
      <trkpt lat="45.97645" lon="4.7984">
        <ele>221</ele>
        <time>2018-07-03T10:20:05Z</time>
      </trkpt>
      <trkpt lat="45.97639" lon="4.79843">
        <ele>221</ele>
        <time>2018-07-03T10:20:06Z</time>
      </trkpt>
      <trkpt lat="45.97634" lon="4.79846">
        <ele>221</ele>
        <time>2018-07-03T10:20:07Z</time>
      </trkpt>
      <trkpt lat="45.97627" lon="4.79847">
        <ele>221</ele>
        <time>2018-07-03T10:20:08Z</time>
      </trkpt>
      <trkpt lat="45.97621" lon="4.79849">
        <ele>221</ele>
        <time>2018-07-03T10:20:09Z</time>
      </trkpt>
      <trkpt lat="45.97616" lon="4.79851">
        <ele>221</ele>
        <time>2018-07-03T10:20:10Z</time>
      </trkpt>
      <trkpt lat="45.97611" lon="4.79852">
        <ele>221</ele>
        <time>2018-07-03T10:20:11Z</time>
      </trkpt>
      <trkpt lat="45.97604" lon="4.79855">
        <ele>221</ele>
        <time>2018-07-03T10:20:12Z</time>
      </trkpt>
      <trkpt lat="45.97598" lon="4.79858">
        <ele>221</ele>
        <time>2018-07-03T10:20:13Z</time>
      </trkpt>
      <trkpt lat="45.97592" lon="4.7986">
        <ele>221</ele>
        <time>2018-07-03T10:20:14Z</time>
      </trkpt>
      <trkpt lat="45.97586" lon="4.79864">
        <ele>221</ele>
        <time>2018-07-03T10:20:15Z</time>
      </trkpt>
      <trkpt lat="45.9758" lon="4.79866">
        <ele>222</ele>
        <time>2018-07-03T10:20:16Z</time>
      </trkpt>
      <trkpt lat="45.97574" lon="4.79868">
        <ele>222</ele>
        <time>2018-07-03T10:20:17Z</time>
      </trkpt>
      <trkpt lat="45.97567" lon="4.7987">
        <ele>222</ele>
        <time>2018-07-03T10:20:18Z</time>
      </trkpt>
      <trkpt lat="45.9756" lon="4.79872">
        <ele>222</ele>
        <time>2018-07-03T10:20:19Z</time>
      </trkpt>
      <trkpt lat="45.97554" lon="4.79874">
        <ele>222</ele>
        <time>2018-07-03T10:20:20Z</time>
      </trkpt>
      <trkpt lat="45.97548" lon="4.79876">
        <ele>222</ele>
        <time>2018-07-03T10:20:21Z</time>
      </trkpt>
      <trkpt lat="45.97541" lon="4.79879">
        <ele>222</ele>
        <time>2018-07-03T10:20:22Z</time>
      </trkpt>
      <trkpt lat="45.97534" lon="4.7988">
        <ele>222</ele>
        <time>2018-07-03T10:20:23Z</time>
      </trkpt>
      <trkpt lat="45.97525" lon="4.7988">
        <ele>222</ele>
        <time>2018-07-03T10:20:24Z</time>
      </trkpt>
      <trkpt lat="45.97517" lon="4.79882">
        <ele>222</ele>
        <time>2018-07-03T10:20:25Z</time>
      </trkpt>
      <trkpt lat="45.97507" lon="4.79881">
        <ele>222</ele>
        <time>2018-07-03T10:20:26Z</time>
      </trkpt>
      <trkpt lat="45.97498" lon="4.79882">
        <ele>221</ele>
        <time>2018-07-03T10:20:27Z</time>
      </trkpt>
      <trkpt lat="45.97489" lon="4.79883">
        <ele>221</ele>
        <time>2018-07-03T10:20:28Z</time>
      </trkpt>
      <trkpt lat="45.97477" lon="4.79883">
        <ele>221</ele>
        <time>2018-07-03T10:20:29Z</time>
      </trkpt>
      <trkpt lat="45.97466" lon="4.79882">
        <ele>221</ele>
        <time>2018-07-03T10:20:30Z</time>
      </trkpt>
      <trkpt lat="45.97457" lon="4.79882">
        <ele>221</ele>
        <time>2018-07-03T10:20:31Z</time>
      </trkpt>
      <trkpt lat="45.97447" lon="4.79882">
        <ele>221</ele>
        <time>2018-07-03T10:20:32Z</time>
      </trkpt>
      <trkpt lat="45.97439" lon="4.79882">
        <ele>221</ele>
        <time>2018-07-03T10:20:33Z</time>
      </trkpt>
      <trkpt lat="45.97429" lon="4.79882">
        <ele>220</ele>
        <time>2018-07-03T10:20:34Z</time>
      </trkpt>
      <trkpt lat="45.97418" lon="4.79882">
        <ele>220</ele>
        <time>2018-07-03T10:20:35Z</time>
      </trkpt>
      <trkpt lat="45.97408" lon="4.79885">
        <ele>218</ele>
        <time>2018-07-03T10:20:36Z</time>
      </trkpt>
      <trkpt lat="45.974" lon="4.79891">
        <ele>218</ele>
        <time>2018-07-03T10:20:37Z</time>
      </trkpt>
      <trkpt lat="45.97389" lon="4.79892">
        <ele>217</ele>
        <time>2018-07-03T10:20:38Z</time>
      </trkpt>
      <trkpt lat="45.97379" lon="4.79893">
        <ele>217</ele>
        <time>2018-07-03T10:20:39Z</time>
      </trkpt>
      <trkpt lat="45.9737" lon="4.79895">
        <ele>217</ele>
        <time>2018-07-03T10:20:40Z</time>
      </trkpt>
      <trkpt lat="45.97359" lon="4.79899">
        <ele>216</ele>
        <time>2018-07-03T10:20:41Z</time>
      </trkpt>
      <trkpt lat="45.97348" lon="4.799">
        <ele>216</ele>
        <time>2018-07-03T10:20:42Z</time>
      </trkpt>
      <trkpt lat="45.97341" lon="4.79902">
        <ele>215</ele>
        <time>2018-07-03T10:20:43Z</time>
      </trkpt>
      <trkpt lat="45.97331" lon="4.79903">
        <ele>213</ele>
        <time>2018-07-03T10:20:44Z</time>
      </trkpt>
      <trkpt lat="45.97321" lon="4.79904">
        <ele>213</ele>
        <time>2018-07-03T10:20:45Z</time>
      </trkpt>
      <trkpt lat="45.97312" lon="4.79907">
        <ele>213</ele>
        <time>2018-07-03T10:20:46Z</time>
      </trkpt>
      <trkpt lat="45.97303" lon="4.79905">
        <ele>213</ele>
        <time>2018-07-03T10:20:47Z</time>
      </trkpt>
      <trkpt lat="45.97296" lon="4.79905">
        <ele>213</ele>
        <time>2018-07-03T10:20:48Z</time>
      </trkpt>
      <trkpt lat="45.97289" lon="4.79907">
        <ele>213</ele>
        <time>2018-07-03T10:20:49Z</time>
      </trkpt>
      <trkpt lat="45.97282" lon="4.79908">
        <ele>213</ele>
        <time>2018-07-03T10:20:50Z</time>
      </trkpt>
      <trkpt lat="45.97277" lon="4.79909">
        <ele>213</ele>
        <time>2018-07-03T10:20:51Z</time>
      </trkpt>
      <trkpt lat="45.97273" lon="4.79911">
        <ele>213</ele>
        <time>2018-07-03T10:20:52Z</time>
      </trkpt>
      <trkpt lat="45.97267" lon="4.79911">
        <ele>213</ele>
        <time>2018-07-03T10:20:53Z</time>
      </trkpt>
      <trkpt lat="45.97261" lon="4.79911">
        <ele>213</ele>
        <time>2018-07-03T10:20:54Z</time>
      </trkpt>
      <trkpt lat="45.97258" lon="4.79909">
        <ele>213</ele>
        <time>2018-07-03T10:20:55Z</time>
      </trkpt>
      <trkpt lat="45.97254" lon="4.79904">
        <ele>213</ele>
        <time>2018-07-03T10:20:56Z</time>
      </trkpt>
      <trkpt lat="45.97253" lon="4.79897">
        <ele>213</ele>
        <time>2018-07-03T10:20:57Z</time>
      </trkpt>
      <trkpt lat="45.97251" lon="4.7989">
        <ele>213</ele>
        <time>2018-07-03T10:20:58Z</time>
      </trkpt>
      <trkpt lat="45.97248" lon="4.79884">
        <ele>211</ele>
        <time>2018-07-03T10:20:59Z</time>
      </trkpt>
      <trkpt lat="45.97246" lon="4.79876">
        <ele>211</ele>
        <time>2018-07-03T10:21:00Z</time>
      </trkpt>
      <trkpt lat="45.97244" lon="4.79868">
        <ele>211</ele>
        <time>2018-07-03T10:21:01Z</time>
      </trkpt>
      <trkpt lat="45.97243" lon="4.7986">
        <ele>211</ele>
        <time>2018-07-03T10:21:02Z</time>
      </trkpt>
      <trkpt lat="45.97242" lon="4.79851">
        <ele>211</ele>
        <time>2018-07-03T10:21:03Z</time>
      </trkpt>
      <trkpt lat="45.97241" lon="4.79842">
        <ele>211</ele>
        <time>2018-07-03T10:21:04Z</time>
      </trkpt>
      <trkpt lat="45.9724" lon="4.79835">
        <ele>212</ele>
        <time>2018-07-03T10:21:05Z</time>
      </trkpt>
      <trkpt lat="45.97239" lon="4.79826">
        <ele>211</ele>
        <time>2018-07-03T10:21:06Z</time>
      </trkpt>
      <trkpt lat="45.97238" lon="4.79818">
        <ele>211</ele>
        <time>2018-07-03T10:21:07Z</time>
      </trkpt>
      <trkpt lat="45.97239" lon="4.79809">
        <ele>210</ele>
        <time>2018-07-03T10:21:08Z</time>
      </trkpt>
      <trkpt lat="45.97239" lon="4.798">
        <ele>210</ele>
        <time>2018-07-03T10:21:09Z</time>
      </trkpt>
      <trkpt lat="45.9724" lon="4.79792">
        <ele>210</ele>
        <time>2018-07-03T10:21:10Z</time>
      </trkpt>
      <trkpt lat="45.97239" lon="4.79783">
        <ele>210</ele>
        <time>2018-07-03T10:21:11Z</time>
      </trkpt>
      <trkpt lat="45.9724" lon="4.79775">
        <ele>210</ele>
        <time>2018-07-03T10:21:12Z</time>
      </trkpt>
      <trkpt lat="45.9724" lon="4.79768">
        <ele>210</ele>
        <time>2018-07-03T10:21:13Z</time>
      </trkpt>
      <trkpt lat="45.97239" lon="4.79759">
        <ele>209</ele>
        <time>2018-07-03T10:21:14Z</time>
      </trkpt>
      <trkpt lat="45.97239" lon="4.79749">
        <ele>209</ele>
        <time>2018-07-03T10:21:15Z</time>
      </trkpt>
      <trkpt lat="45.97241" lon="4.79743">
        <ele>209</ele>
        <time>2018-07-03T10:21:16Z</time>
      </trkpt>
      <trkpt lat="45.97242" lon="4.79734">
        <ele>209</ele>
        <time>2018-07-03T10:21:17Z</time>
      </trkpt>
      <trkpt lat="45.97242" lon="4.79727">
        <ele>209</ele>
        <time>2018-07-03T10:21:18Z</time>
      </trkpt>
      <trkpt lat="45.97245" lon="4.79717">
        <ele>209</ele>
        <time>2018-07-03T10:21:19Z</time>
      </trkpt>
      <trkpt lat="45.97246" lon="4.79709">
        <ele>209</ele>
        <time>2018-07-03T10:21:20Z</time>
      </trkpt>
      <trkpt lat="45.97247" lon="4.797">
        <ele>208</ele>
        <time>2018-07-03T10:21:21Z</time>
      </trkpt>
      <trkpt lat="45.97247" lon="4.79691">
        <ele>208</ele>
        <time>2018-07-03T10:21:22Z</time>
      </trkpt>
      <trkpt lat="45.97248" lon="4.79683">
        <ele>208</ele>
        <time>2018-07-03T10:21:23Z</time>
      </trkpt>
      <trkpt lat="45.97251" lon="4.79675">
        <ele>210</ele>
        <time>2018-07-03T10:21:24Z</time>
      </trkpt>
      <trkpt lat="45.97253" lon="4.79667">
        <ele>209</ele>
        <time>2018-07-03T10:21:25Z</time>
      </trkpt>
      <trkpt lat="45.97254" lon="4.7966">
        <ele>210</ele>
        <time>2018-07-03T10:21:26Z</time>
      </trkpt>
      <trkpt lat="45.97255" lon="4.79653">
        <ele>211</ele>
        <time>2018-07-03T10:21:27Z</time>
      </trkpt>
      <trkpt lat="45.97255" lon="4.7964">
        <ele>212</ele>
        <time>2018-07-03T10:21:28Z</time>
      </trkpt>
      <trkpt lat="45.97255" lon="4.79633">
        <ele>213</ele>
        <time>2018-07-03T10:21:29Z</time>
      </trkpt>
      <trkpt lat="45.97255" lon="4.79625">
        <ele>213</ele>
        <time>2018-07-03T10:21:30Z</time>
      </trkpt>
      <trkpt lat="45.97255" lon="4.79618">
        <ele>213</ele>
        <time>2018-07-03T10:21:31Z</time>
      </trkpt>
      <trkpt lat="45.97252" lon="4.79612">
        <ele>213</ele>
        <time>2018-07-03T10:21:32Z</time>
      </trkpt>
      <trkpt lat="45.97252" lon="4.79603">
        <ele>212</ele>
        <time>2018-07-03T10:21:33Z</time>
      </trkpt>
      <trkpt lat="45.97252" lon="4.79595">
        <ele>212</ele>
        <time>2018-07-03T10:21:34Z</time>
      </trkpt>
      <trkpt lat="45.97251" lon="4.79588">
        <ele>211</ele>
        <time>2018-07-03T10:21:35Z</time>
      </trkpt>
      <trkpt lat="45.9725" lon="4.79581">
        <ele>210</ele>
        <time>2018-07-03T10:21:36Z</time>
      </trkpt>
      <trkpt lat="45.9725" lon="4.79573">
        <ele>210</ele>
        <time>2018-07-03T10:21:37Z</time>
      </trkpt>
      <trkpt lat="45.9725" lon="4.79561">
        <ele>210</ele>
        <time>2018-07-03T10:21:39Z</time>
      </trkpt>
      <trkpt lat="45.97249" lon="4.79555">
        <ele>210</ele>
        <time>2018-07-03T10:21:40Z</time>
      </trkpt>
      <trkpt lat="45.97249" lon="4.79543">
        <ele>210</ele>
        <time>2018-07-03T10:21:42Z</time>
      </trkpt>
      <trkpt lat="45.97248" lon="4.79536">
        <ele>210</ele>
        <time>2018-07-03T10:21:43Z</time>
      </trkpt>
      <trkpt lat="45.97246" lon="4.79527">
        <ele>210</ele>
        <time>2018-07-03T10:21:44Z</time>
      </trkpt>
      <trkpt lat="45.97244" lon="4.79519">
        <ele>210</ele>
        <time>2018-07-03T10:21:45Z</time>
      </trkpt>
      <trkpt lat="45.97244" lon="4.79512">
        <ele>210</ele>
        <time>2018-07-03T10:21:46Z</time>
      </trkpt>
      <trkpt lat="45.97242" lon="4.79504">
        <ele>210</ele>
        <time>2018-07-03T10:21:47Z</time>
      </trkpt>
      <trkpt lat="45.97239" lon="4.79497">
        <ele>210</ele>
        <time>2018-07-03T10:21:48Z</time>
      </trkpt>
      <trkpt lat="45.97238" lon="4.7949">
        <ele>210</ele>
        <time>2018-07-03T10:21:49Z</time>
      </trkpt>
      <trkpt lat="45.97234" lon="4.79483">
        <ele>209</ele>
        <time>2018-07-03T10:21:50Z</time>
      </trkpt>
      <trkpt lat="45.97233" lon="4.79475">
        <ele>209</ele>
        <time>2018-07-03T10:21:51Z</time>
      </trkpt>
      <trkpt lat="45.97232" lon="4.79468">
        <ele>209</ele>
        <time>2018-07-03T10:21:52Z</time>
      </trkpt>
      <trkpt lat="45.97231" lon="4.7946">
        <ele>209</ele>
        <time>2018-07-03T10:21:53Z</time>
      </trkpt>
      <trkpt lat="45.97228" lon="4.79451">
        <ele>209</ele>
        <time>2018-07-03T10:21:54Z</time>
      </trkpt>
      <trkpt lat="45.97225" lon="4.79444">
        <ele>209</ele>
        <time>2018-07-03T10:21:55Z</time>
      </trkpt>
      <trkpt lat="45.97222" lon="4.79436">
        <ele>209</ele>
        <time>2018-07-03T10:21:56Z</time>
      </trkpt>
      <trkpt lat="45.9722" lon="4.79429">
        <ele>208</ele>
        <time>2018-07-03T10:21:57Z</time>
      </trkpt>
      <trkpt lat="45.97216" lon="4.79421">
        <ele>208</ele>
        <time>2018-07-03T10:21:58Z</time>
      </trkpt>
      <trkpt lat="45.97215" lon="4.79413">
        <ele>208</ele>
        <time>2018-07-03T10:21:59Z</time>
      </trkpt>
      <trkpt lat="45.97211" lon="4.79405">
        <ele>208</ele>
        <time>2018-07-03T10:22:00Z</time>
      </trkpt>
      <trkpt lat="45.97208" lon="4.79399">
        <ele>208</ele>
        <time>2018-07-03T10:22:01Z</time>
      </trkpt>
      <trkpt lat="45.97204" lon="4.79391">
        <ele>208</ele>
        <time>2018-07-03T10:22:02Z</time>
      </trkpt>
      <trkpt lat="45.97201" lon="4.79385">
        <ele>207</ele>
        <time>2018-07-03T10:22:03Z</time>
      </trkpt>
      <trkpt lat="45.97198" lon="4.79377">
        <ele>207</ele>
        <time>2018-07-03T10:22:04Z</time>
      </trkpt>
      <trkpt lat="45.97196" lon="4.79369">
        <ele>207</ele>
        <time>2018-07-03T10:22:05Z</time>
      </trkpt>
      <trkpt lat="45.97195" lon="4.7936">
        <ele>207</ele>
        <time>2018-07-03T10:22:06Z</time>
      </trkpt>
      <trkpt lat="45.97192" lon="4.79352">
        <ele>207</ele>
        <time>2018-07-03T10:22:07Z</time>
      </trkpt>
      <trkpt lat="45.9719" lon="4.79347">
        <ele>207</ele>
        <time>2018-07-03T10:22:08Z</time>
      </trkpt>
      <trkpt lat="45.97185" lon="4.7934">
        <ele>207</ele>
        <time>2018-07-03T10:22:09Z</time>
      </trkpt>
      <trkpt lat="45.97183" lon="4.79333">
        <ele>207</ele>
        <time>2018-07-03T10:22:10Z</time>
      </trkpt>
      <trkpt lat="45.97179" lon="4.79325">
        <ele>207</ele>
        <time>2018-07-03T10:22:11Z</time>
      </trkpt>
      <trkpt lat="45.97176" lon="4.79317">
        <ele>207</ele>
        <time>2018-07-03T10:22:12Z</time>
      </trkpt>
      <trkpt lat="45.97173" lon="4.79309">
        <ele>207</ele>
        <time>2018-07-03T10:22:13Z</time>
      </trkpt>
      <trkpt lat="45.97169" lon="4.79301">
        <ele>207</ele>
        <time>2018-07-03T10:22:14Z</time>
      </trkpt>
      <trkpt lat="45.97166" lon="4.79293">
        <ele>204</ele>
        <time>2018-07-03T10:22:15Z</time>
      </trkpt>
      <trkpt lat="45.97161" lon="4.79286">
        <ele>204</ele>
        <time>2018-07-03T10:22:16Z</time>
      </trkpt>
      <trkpt lat="45.97159" lon="4.79278">
        <ele>204</ele>
        <time>2018-07-03T10:22:17Z</time>
      </trkpt>
      <trkpt lat="45.97156" lon="4.79269">
        <ele>204</ele>
        <time>2018-07-03T10:22:18Z</time>
      </trkpt>
      <trkpt lat="45.97152" lon="4.79261">
        <ele>204</ele>
        <time>2018-07-03T10:22:19Z</time>
      </trkpt>
      <trkpt lat="45.9715" lon="4.79254">
        <ele>204</ele>
        <time>2018-07-03T10:22:20Z</time>
      </trkpt>
      <trkpt lat="45.97147" lon="4.79247">
        <ele>205</ele>
        <time>2018-07-03T10:22:21Z</time>
      </trkpt>
      <trkpt lat="45.97144" lon="4.7924">
        <ele>205</ele>
        <time>2018-07-03T10:22:22Z</time>
      </trkpt>
      <trkpt lat="45.97141" lon="4.79234">
        <ele>205</ele>
        <time>2018-07-03T10:22:23Z</time>
      </trkpt>
      <trkpt lat="45.97137" lon="4.79226">
        <ele>205</ele>
        <time>2018-07-03T10:22:24Z</time>
      </trkpt>
      <trkpt lat="45.97134" lon="4.79218">
        <ele>206</ele>
        <time>2018-07-03T10:22:25Z</time>
      </trkpt>
      <trkpt lat="45.97131" lon="4.79211">
        <ele>206</ele>
        <time>2018-07-03T10:22:26Z</time>
      </trkpt>
      <trkpt lat="45.97128" lon="4.79204">
        <ele>206</ele>
        <time>2018-07-03T10:22:27Z</time>
      </trkpt>
      <trkpt lat="45.97125" lon="4.79196">
        <ele>206</ele>
        <time>2018-07-03T10:22:28Z</time>
      </trkpt>
      <trkpt lat="45.97122" lon="4.79189">
        <ele>206</ele>
        <time>2018-07-03T10:22:29Z</time>
      </trkpt>
      <trkpt lat="45.97118" lon="4.7918">
        <ele>206</ele>
        <time>2018-07-03T10:22:30Z</time>
      </trkpt>
      <trkpt lat="45.97114" lon="4.79172">
        <ele>206</ele>
        <time>2018-07-03T10:22:31Z</time>
      </trkpt>
      <trkpt lat="45.9711" lon="4.79165">
        <ele>206</ele>
        <time>2018-07-03T10:22:32Z</time>
      </trkpt>
      <trkpt lat="45.97108" lon="4.79158">
        <ele>206</ele>
        <time>2018-07-03T10:22:33Z</time>
      </trkpt>
      <trkpt lat="45.97105" lon="4.79152">
        <ele>206</ele>
        <time>2018-07-03T10:22:34Z</time>
      </trkpt>
      <trkpt lat="45.97101" lon="4.79145">
        <ele>206</ele>
        <time>2018-07-03T10:22:35Z</time>
      </trkpt>
      <trkpt lat="45.97096" lon="4.79139">
        <ele>206</ele>
        <time>2018-07-03T10:22:36Z</time>
      </trkpt>
      <trkpt lat="45.97092" lon="4.79133">
        <ele>206</ele>
        <time>2018-07-03T10:22:37Z</time>
      </trkpt>
      <trkpt lat="45.97088" lon="4.79127">
        <ele>206</ele>
        <time>2018-07-03T10:22:38Z</time>
      </trkpt>
      <trkpt lat="45.97084" lon="4.7912">
        <ele>206</ele>
        <time>2018-07-03T10:22:39Z</time>
      </trkpt>
      <trkpt lat="45.97082" lon="4.79113">
        <ele>204</ele>
        <time>2018-07-03T10:22:40Z</time>
      </trkpt>
      <trkpt lat="45.97079" lon="4.79104">
        <ele>204</ele>
        <time>2018-07-03T10:22:41Z</time>
      </trkpt>
      <trkpt lat="45.97077" lon="4.79097">
        <ele>204</ele>
        <time>2018-07-03T10:22:42Z</time>
      </trkpt>
      <trkpt lat="45.97075" lon="4.79089">
        <ele>204</ele>
        <time>2018-07-03T10:22:43Z</time>
      </trkpt>
      <trkpt lat="45.97074" lon="4.79079">
        <ele>204</ele>
        <time>2018-07-03T10:22:44Z</time>
      </trkpt>
      <trkpt lat="45.97071" lon="4.79072">
        <ele>204</ele>
        <time>2018-07-03T10:22:45Z</time>
      </trkpt>
      <trkpt lat="45.97069" lon="4.79064">
        <ele>203</ele>
        <time>2018-07-03T10:22:46Z</time>
      </trkpt>
      <trkpt lat="45.97065" lon="4.79056">
        <ele>203</ele>
        <time>2018-07-03T10:22:47Z</time>
      </trkpt>
      <trkpt lat="45.97064" lon="4.79047">
        <ele>203</ele>
        <time>2018-07-03T10:22:48Z</time>
      </trkpt>
      <trkpt lat="45.97062" lon="4.79038">
        <ele>203</ele>
        <time>2018-07-03T10:22:49Z</time>
      </trkpt>
      <trkpt lat="45.9706" lon="4.7903">
        <ele>203</ele>
        <time>2018-07-03T10:22:50Z</time>
      </trkpt>
      <trkpt lat="45.97057" lon="4.79021">
        <ele>203</ele>
        <time>2018-07-03T10:22:51Z</time>
      </trkpt>
      <trkpt lat="45.97055" lon="4.79013">
        <ele>203</ele>
        <time>2018-07-03T10:22:52Z</time>
      </trkpt>
      <trkpt lat="45.97052" lon="4.79005">
        <ele>203</ele>
        <time>2018-07-03T10:22:53Z</time>
      </trkpt>
      <trkpt lat="45.97051" lon="4.78997">
        <ele>205</ele>
        <time>2018-07-03T10:22:54Z</time>
      </trkpt>
      <trkpt lat="45.9705" lon="4.78991">
        <ele>205</ele>
        <time>2018-07-03T10:22:55Z</time>
      </trkpt>
      <trkpt lat="45.97045" lon="4.78984">
        <ele>205</ele>
        <time>2018-07-03T10:22:56Z</time>
      </trkpt>
      <trkpt lat="45.97042" lon="4.78977">
        <ele>205</ele>
        <time>2018-07-03T10:22:57Z</time>
      </trkpt>
      <trkpt lat="45.9704" lon="4.78971">
        <ele>205</ele>
        <time>2018-07-03T10:22:58Z</time>
      </trkpt>
      <trkpt lat="45.97038" lon="4.78965">
        <ele>205</ele>
        <time>2018-07-03T10:22:59Z</time>
      </trkpt>
      <trkpt lat="45.97035" lon="4.78959">
        <ele>205</ele>
        <time>2018-07-03T10:23:00Z</time>
      </trkpt>
      <trkpt lat="45.97031" lon="4.78952">
        <ele>205</ele>
        <time>2018-07-03T10:23:01Z</time>
      </trkpt>
      <trkpt lat="45.97028" lon="4.78946">
        <ele>205</ele>
        <time>2018-07-03T10:23:02Z</time>
      </trkpt>
      <trkpt lat="45.97023" lon="4.7894">
        <ele>205</ele>
        <time>2018-07-03T10:23:03Z</time>
      </trkpt>
      <trkpt lat="45.97019" lon="4.78935">
        <ele>205</ele>
        <time>2018-07-03T10:23:04Z</time>
      </trkpt>
      <trkpt lat="45.97015" lon="4.7893">
        <ele>205</ele>
        <time>2018-07-03T10:23:05Z</time>
      </trkpt>
      <trkpt lat="45.97012" lon="4.78925">
        <ele>205</ele>
        <time>2018-07-03T10:23:06Z</time>
      </trkpt>
      <trkpt lat="45.97008" lon="4.78918">
        <ele>204</ele>
        <time>2018-07-03T10:23:07Z</time>
      </trkpt>
      <trkpt lat="45.97004" lon="4.78912">
        <ele>205</ele>
        <time>2018-07-03T10:23:08Z</time>
      </trkpt>
      <trkpt lat="45.96999" lon="4.78906">
        <ele>204</ele>
        <time>2018-07-03T10:23:09Z</time>
      </trkpt>
      <trkpt lat="45.96993" lon="4.789">
        <ele>203</ele>
        <time>2018-07-03T10:23:10Z</time>
      </trkpt>
      <trkpt lat="45.96988" lon="4.78893">
        <ele>203</ele>
        <time>2018-07-03T10:23:11Z</time>
      </trkpt>
      <trkpt lat="45.96982" lon="4.78886">
        <ele>203</ele>
        <time>2018-07-03T10:23:12Z</time>
      </trkpt>
      <trkpt lat="45.96977" lon="4.7888">
        <ele>203</ele>
        <time>2018-07-03T10:23:13Z</time>
      </trkpt>
      <trkpt lat="45.96972" lon="4.78873">
        <ele>203</ele>
        <time>2018-07-03T10:23:14Z</time>
      </trkpt>
      <trkpt lat="45.96967" lon="4.78868">
        <ele>203</ele>
        <time>2018-07-03T10:23:15Z</time>
      </trkpt>
      <trkpt lat="45.96962" lon="4.78862">
        <ele>203</ele>
        <time>2018-07-03T10:23:16Z</time>
      </trkpt>
      <trkpt lat="45.96958" lon="4.78856">
        <ele>203</ele>
        <time>2018-07-03T10:23:17Z</time>
      </trkpt>
      <trkpt lat="45.96953" lon="4.78849">
        <ele>203</ele>
        <time>2018-07-03T10:23:18Z</time>
      </trkpt>
      <trkpt lat="45.96949" lon="4.78843">
        <ele>202</ele>
        <time>2018-07-03T10:23:19Z</time>
      </trkpt>
      <trkpt lat="45.96945" lon="4.78837">
        <ele>202</ele>
        <time>2018-07-03T10:23:20Z</time>
      </trkpt>
      <trkpt lat="45.9694" lon="4.78829">
        <ele>203</ele>
        <time>2018-07-03T10:23:21Z</time>
      </trkpt>
      <trkpt lat="45.96935" lon="4.78823">
        <ele>202</ele>
        <time>2018-07-03T10:23:22Z</time>
      </trkpt>
      <trkpt lat="45.96929" lon="4.78817">
        <ele>202</ele>
        <time>2018-07-03T10:23:23Z</time>
      </trkpt>
      <trkpt lat="45.96925" lon="4.78809">
        <ele>203</ele>
        <time>2018-07-03T10:23:24Z</time>
      </trkpt>
      <trkpt lat="45.96921" lon="4.78802">
        <ele>203</ele>
        <time>2018-07-03T10:23:25Z</time>
      </trkpt>
      <trkpt lat="45.96917" lon="4.78795">
        <ele>203</ele>
        <time>2018-07-03T10:23:26Z</time>
      </trkpt>
      <trkpt lat="45.96913" lon="4.78787">
        <ele>201</ele>
        <time>2018-07-03T10:23:27Z</time>
      </trkpt>
      <trkpt lat="45.96907" lon="4.78779">
        <ele>201</ele>
        <time>2018-07-03T10:23:28Z</time>
      </trkpt>
      <trkpt lat="45.96904" lon="4.7877">
        <ele>201</ele>
        <time>2018-07-03T10:23:29Z</time>
      </trkpt>
      <trkpt lat="45.969" lon="4.78762">
        <ele>201</ele>
        <time>2018-07-03T10:23:30Z</time>
      </trkpt>
      <trkpt lat="45.96896" lon="4.78754">
        <ele>201</ele>
        <time>2018-07-03T10:23:31Z</time>
      </trkpt>
      <trkpt lat="45.96892" lon="4.78746">
        <ele>202</ele>
        <time>2018-07-03T10:23:32Z</time>
      </trkpt>
      <trkpt lat="45.96889" lon="4.78738">
        <ele>202</ele>
        <time>2018-07-03T10:23:33Z</time>
      </trkpt>
      <trkpt lat="45.96885" lon="4.78729">
        <ele>202</ele>
        <time>2018-07-03T10:23:34Z</time>
      </trkpt>
      <trkpt lat="45.96883" lon="4.78721">
        <ele>202</ele>
        <time>2018-07-03T10:23:35Z</time>
      </trkpt>
      <trkpt lat="45.96879" lon="4.78713">
        <ele>202</ele>
        <time>2018-07-03T10:23:36Z</time>
      </trkpt>
      <trkpt lat="45.96877" lon="4.78707">
        <ele>202</ele>
        <time>2018-07-03T10:23:37Z</time>
      </trkpt>
      <trkpt lat="45.96873" lon="4.787">
        <ele>202</ele>
        <time>2018-07-03T10:23:38Z</time>
      </trkpt>
      <trkpt lat="45.96869" lon="4.78693">
        <ele>202</ele>
        <time>2018-07-03T10:23:39Z</time>
      </trkpt>
      <trkpt lat="45.96867" lon="4.78685">
        <ele>202</ele>
        <time>2018-07-03T10:23:40Z</time>
      </trkpt>
      <trkpt lat="45.96863" lon="4.78678">
        <ele>202</ele>
        <time>2018-07-03T10:23:41Z</time>
      </trkpt>
      <trkpt lat="45.96861" lon="4.78671">
        <ele>202</ele>
        <time>2018-07-03T10:23:42Z</time>
      </trkpt>
      <trkpt lat="45.96859" lon="4.78664">
        <ele>203</ele>
        <time>2018-07-03T10:23:43Z</time>
      </trkpt>
      <trkpt lat="45.96853" lon="4.78657">
        <ele>203</ele>
        <time>2018-07-03T10:23:44Z</time>
      </trkpt>
      <trkpt lat="45.96849" lon="4.78649">
        <ele>203</ele>
        <time>2018-07-03T10:23:45Z</time>
      </trkpt>
      <trkpt lat="45.96845" lon="4.78642">
        <ele>203</ele>
        <time>2018-07-03T10:23:46Z</time>
      </trkpt>
      <trkpt lat="45.96842" lon="4.78635">
        <ele>203</ele>
        <time>2018-07-03T10:23:47Z</time>
      </trkpt>
      <trkpt lat="45.96839" lon="4.78627">
        <ele>203</ele>
        <time>2018-07-03T10:23:48Z</time>
      </trkpt>
      <trkpt lat="45.96836" lon="4.78619">
        <ele>203</ele>
        <time>2018-07-03T10:23:49Z</time>
      </trkpt>
      <trkpt lat="45.96831" lon="4.78612">
        <ele>202</ele>
        <time>2018-07-03T10:23:50Z</time>
      </trkpt>
      <trkpt lat="45.96828" lon="4.78605">
        <ele>202</ele>
        <time>2018-07-03T10:23:51Z</time>
      </trkpt>
      <trkpt lat="45.96825" lon="4.78597">
        <ele>202</ele>
        <time>2018-07-03T10:23:52Z</time>
      </trkpt>
      <trkpt lat="45.96823" lon="4.7859">
        <ele>202</ele>
        <time>2018-07-03T10:23:53Z</time>
      </trkpt>
      <trkpt lat="45.9682" lon="4.78583">
        <ele>203</ele>
        <time>2018-07-03T10:23:54Z</time>
      </trkpt>
      <trkpt lat="45.96817" lon="4.78577">
        <ele>203</ele>
        <time>2018-07-03T10:23:55Z</time>
      </trkpt>
      <trkpt lat="45.96815" lon="4.78569">
        <ele>203</ele>
        <time>2018-07-03T10:23:56Z</time>
      </trkpt>
      <trkpt lat="45.96811" lon="4.78565">
        <ele>203</ele>
        <time>2018-07-03T10:23:57Z</time>
      </trkpt>
      <trkpt lat="45.96808" lon="4.78558">
        <ele>203</ele>
        <time>2018-07-03T10:23:58Z</time>
      </trkpt>
      <trkpt lat="45.96804" lon="4.78551">
        <ele>203</ele>
        <time>2018-07-03T10:23:59Z</time>
      </trkpt>
      <trkpt lat="45.96798" lon="4.78545">
        <ele>203</ele>
        <time>2018-07-03T10:24:00Z</time>
      </trkpt>
      <trkpt lat="45.96793" lon="4.78538">
        <ele>203</ele>
        <time>2018-07-03T10:24:01Z</time>
      </trkpt>
      <trkpt lat="45.9679" lon="4.78533">
        <ele>203</ele>
        <time>2018-07-03T10:24:02Z</time>
      </trkpt>
      <trkpt lat="45.96785" lon="4.78527">
        <ele>203</ele>
        <time>2018-07-03T10:24:03Z</time>
      </trkpt>
      <trkpt lat="45.96781" lon="4.78519">
        <ele>203</ele>
        <time>2018-07-03T10:24:04Z</time>
      </trkpt>
      <trkpt lat="45.96776" lon="4.78513">
        <ele>203</ele>
        <time>2018-07-03T10:24:05Z</time>
      </trkpt>
      <trkpt lat="45.96771" lon="4.78507">
        <ele>203</ele>
        <time>2018-07-03T10:24:06Z</time>
      </trkpt>
      <trkpt lat="45.96766" lon="4.785">
        <ele>203</ele>
        <time>2018-07-03T10:24:07Z</time>
      </trkpt>
      <trkpt lat="45.96762" lon="4.78496">
        <ele>204</ele>
        <time>2018-07-03T10:24:08Z</time>
      </trkpt>
      <trkpt lat="45.96756" lon="4.78489">
        <ele>204</ele>
        <time>2018-07-03T10:24:09Z</time>
      </trkpt>
      <trkpt lat="45.96752" lon="4.78482">
        <ele>205</ele>
        <time>2018-07-03T10:24:10Z</time>
      </trkpt>
      <trkpt lat="45.96746" lon="4.78476">
        <ele>203</ele>
        <time>2018-07-03T10:24:11Z</time>
      </trkpt>
      <trkpt lat="45.96741" lon="4.7847">
        <ele>203</ele>
        <time>2018-07-03T10:24:12Z</time>
      </trkpt>
      <trkpt lat="45.96736" lon="4.78465">
        <ele>203</ele>
        <time>2018-07-03T10:24:13Z</time>
      </trkpt>
      <trkpt lat="45.9673" lon="4.78464">
        <ele>203</ele>
        <time>2018-07-03T10:24:14Z</time>
      </trkpt>
      <trkpt lat="45.96725" lon="4.78458">
        <ele>203</ele>
        <time>2018-07-03T10:24:15Z</time>
      </trkpt>
      <trkpt lat="45.9672" lon="4.78454">
        <ele>203</ele>
        <time>2018-07-03T10:24:16Z</time>
      </trkpt>
      <trkpt lat="45.96714" lon="4.78449">
        <ele>203</ele>
        <time>2018-07-03T10:24:17Z</time>
      </trkpt>
      <trkpt lat="45.96709" lon="4.78444">
        <ele>203</ele>
        <time>2018-07-03T10:24:18Z</time>
      </trkpt>
      <trkpt lat="45.96703" lon="4.7844">
        <ele>203</ele>
        <time>2018-07-03T10:24:19Z</time>
      </trkpt>
      <trkpt lat="45.967" lon="4.78433">
        <ele>203</ele>
        <time>2018-07-03T10:24:20Z</time>
      </trkpt>
      <trkpt lat="45.96696" lon="4.78428">
        <ele>203</ele>
        <time>2018-07-03T10:24:21Z</time>
      </trkpt>
      <trkpt lat="45.9669" lon="4.78423">
        <ele>202</ele>
        <time>2018-07-03T10:24:22Z</time>
      </trkpt>
      <trkpt lat="45.96686" lon="4.78417">
        <ele>202</ele>
        <time>2018-07-03T10:24:23Z</time>
      </trkpt>
      <trkpt lat="45.96681" lon="4.78413">
        <ele>204</ele>
        <time>2018-07-03T10:24:24Z</time>
      </trkpt>
      <trkpt lat="45.96676" lon="4.78408">
        <ele>203</ele>
        <time>2018-07-03T10:24:25Z</time>
      </trkpt>
      <trkpt lat="45.96675" lon="4.78402">
        <ele>204</ele>
        <time>2018-07-03T10:24:26Z</time>
      </trkpt>
      <trkpt lat="45.96669" lon="4.78397">
        <ele>204</ele>
        <time>2018-07-03T10:24:27Z</time>
      </trkpt>
      <trkpt lat="45.96663" lon="4.7839">
        <ele>201</ele>
        <time>2018-07-03T10:24:28Z</time>
      </trkpt>
      <trkpt lat="45.96657" lon="4.78386">
        <ele>201</ele>
        <time>2018-07-03T10:24:29Z</time>
      </trkpt>
      <trkpt lat="45.96651" lon="4.78381">
        <ele>201</ele>
        <time>2018-07-03T10:24:30Z</time>
      </trkpt>
      <trkpt lat="45.96645" lon="4.78376">
        <ele>201</ele>
        <time>2018-07-03T10:24:31Z</time>
      </trkpt>
      <trkpt lat="45.96639" lon="4.7837">
        <ele>201</ele>
        <time>2018-07-03T10:24:32Z</time>
      </trkpt>
      <trkpt lat="45.96633" lon="4.78363">
        <ele>201</ele>
        <time>2018-07-03T10:24:33Z</time>
      </trkpt>
      <trkpt lat="45.9663" lon="4.78357">
        <ele>201</ele>
        <time>2018-07-03T10:24:34Z</time>
      </trkpt>
      <trkpt lat="45.96623" lon="4.78351">
        <ele>201</ele>
        <time>2018-07-03T10:24:35Z</time>
      </trkpt>
      <trkpt lat="45.96616" lon="4.78347">
        <ele>201</ele>
        <time>2018-07-03T10:24:36Z</time>
      </trkpt>
      <trkpt lat="45.96611" lon="4.78343">
        <ele>200</ele>
        <time>2018-07-03T10:24:37Z</time>
      </trkpt>
      <trkpt lat="45.96606" lon="4.78339">
        <ele>200</ele>
        <time>2018-07-03T10:24:38Z</time>
      </trkpt>
      <trkpt lat="45.966" lon="4.78333">
        <ele>202</ele>
        <time>2018-07-03T10:24:39Z</time>
      </trkpt>
      <trkpt lat="45.96592" lon="4.78326">
        <ele>201</ele>
        <time>2018-07-03T10:24:40Z</time>
      </trkpt>
      <trkpt lat="45.96584" lon="4.7832">
        <ele>202</ele>
        <time>2018-07-03T10:24:41Z</time>
      </trkpt>
      <trkpt lat="45.9658" lon="4.78314">
        <ele>199</ele>
        <time>2018-07-03T10:24:42Z</time>
      </trkpt>
      <trkpt lat="45.96575" lon="4.78308">
        <ele>200</ele>
        <time>2018-07-03T10:24:43Z</time>
      </trkpt>
      <trkpt lat="45.96569" lon="4.78302">
        <ele>200</ele>
        <time>2018-07-03T10:24:44Z</time>
      </trkpt>
      <trkpt lat="45.96564" lon="4.78296">
        <ele>200</ele>
        <time>2018-07-03T10:24:45Z</time>
      </trkpt>
      <trkpt lat="45.96561" lon="4.78291">
        <ele>200</ele>
        <time>2018-07-03T10:24:46Z</time>
      </trkpt>
      <trkpt lat="45.96554" lon="4.78284">
        <ele>200</ele>
        <time>2018-07-03T10:24:47Z</time>
      </trkpt>
      <trkpt lat="45.96546" lon="4.78279">
        <ele>200</ele>
        <time>2018-07-03T10:24:48Z</time>
      </trkpt>
      <trkpt lat="45.96541" lon="4.78272">
        <ele>200</ele>
        <time>2018-07-03T10:24:49Z</time>
      </trkpt>
      <trkpt lat="45.96536" lon="4.78266">
        <ele>200</ele>
        <time>2018-07-03T10:24:50Z</time>
      </trkpt>
      <trkpt lat="45.96532" lon="4.7826">
        <ele>200</ele>
        <time>2018-07-03T10:24:51Z</time>
      </trkpt>
      <trkpt lat="45.96527" lon="4.78254">
        <ele>200</ele>
        <time>2018-07-03T10:24:52Z</time>
      </trkpt>
      <trkpt lat="45.96523" lon="4.78246">
        <ele>203</ele>
        <time>2018-07-03T10:24:53Z</time>
      </trkpt>
      <trkpt lat="45.9652" lon="4.78238">
        <ele>203</ele>
        <time>2018-07-03T10:24:54Z</time>
      </trkpt>
      <trkpt lat="45.96518" lon="4.78232">
        <ele>204</ele>
        <time>2018-07-03T10:24:55Z</time>
      </trkpt>
      <trkpt lat="45.96513" lon="4.78225">
        <ele>204</ele>
        <time>2018-07-03T10:24:56Z</time>
      </trkpt>
      <trkpt lat="45.96507" lon="4.78217">
        <ele>204</ele>
        <time>2018-07-03T10:24:57Z</time>
      </trkpt>
      <trkpt lat="45.96503" lon="4.78209">
        <ele>205</ele>
        <time>2018-07-03T10:24:58Z</time>
      </trkpt>
      <trkpt lat="45.96497" lon="4.78202">
        <ele>200</ele>
        <time>2018-07-03T10:24:59Z</time>
      </trkpt>
      <trkpt lat="45.96491" lon="4.78197">
        <ele>201</ele>
        <time>2018-07-03T10:25:00Z</time>
      </trkpt>
      <trkpt lat="45.96485" lon="4.78193">
        <ele>201</ele>
        <time>2018-07-03T10:25:01Z</time>
      </trkpt>
      <trkpt lat="45.96478" lon="4.78191">
        <ele>200</ele>
        <time>2018-07-03T10:25:02Z</time>
      </trkpt>
      <trkpt lat="45.96473" lon="4.78188">
        <ele>200</ele>
        <time>2018-07-03T10:25:03Z</time>
      </trkpt>
      <trkpt lat="45.96467" lon="4.78185">
        <ele>200</ele>
        <time>2018-07-03T10:25:04Z</time>
      </trkpt>
      <trkpt lat="45.96462" lon="4.78181">
        <ele>200</ele>
        <time>2018-07-03T10:25:05Z</time>
      </trkpt>
      <trkpt lat="45.96458" lon="4.78177">
        <ele>200</ele>
        <time>2018-07-03T10:25:06Z</time>
      </trkpt>
      <trkpt lat="45.96452" lon="4.7817">
        <ele>200</ele>
        <time>2018-07-03T10:25:07Z</time>
      </trkpt>
      <trkpt lat="45.96447" lon="4.78165">
        <ele>203</ele>
        <time>2018-07-03T10:25:08Z</time>
      </trkpt>
      <trkpt lat="45.96441" lon="4.7816">
        <ele>203</ele>
        <time>2018-07-03T10:25:09Z</time>
      </trkpt>
      <trkpt lat="45.96435" lon="4.78156">
        <ele>202</ele>
        <time>2018-07-03T10:25:10Z</time>
      </trkpt>
      <trkpt lat="45.96429" lon="4.78151">
        <ele>202</ele>
        <time>2018-07-03T10:25:11Z</time>
      </trkpt>
      <trkpt lat="45.96424" lon="4.78147">
        <ele>202</ele>
        <time>2018-07-03T10:25:12Z</time>
      </trkpt>
      <trkpt lat="45.96419" lon="4.78141">
        <ele>203</ele>
        <time>2018-07-03T10:25:13Z</time>
      </trkpt>
      <trkpt lat="45.96413" lon="4.78137">
        <ele>199</ele>
        <time>2018-07-03T10:25:14Z</time>
      </trkpt>
      <trkpt lat="45.96407" lon="4.78131">
        <ele>199</ele>
        <time>2018-07-03T10:25:15Z</time>
      </trkpt>
      <trkpt lat="45.96403" lon="4.78126">
        <ele>200</ele>
        <time>2018-07-03T10:25:16Z</time>
      </trkpt>
      <trkpt lat="45.96398" lon="4.78123">
        <ele>200</ele>
        <time>2018-07-03T10:25:17Z</time>
      </trkpt>
      <trkpt lat="45.96392" lon="4.78118">
        <ele>200</ele>
        <time>2018-07-03T10:25:18Z</time>
      </trkpt>
      <trkpt lat="45.96388" lon="4.78114">
        <ele>200</ele>
        <time>2018-07-03T10:25:19Z</time>
      </trkpt>
      <trkpt lat="45.96383" lon="4.78108">
        <ele>200</ele>
        <time>2018-07-03T10:25:20Z</time>
      </trkpt>
      <trkpt lat="45.9638" lon="4.78104">
        <ele>200</ele>
        <time>2018-07-03T10:25:21Z</time>
      </trkpt>
      <trkpt lat="45.96376" lon="4.78099">
        <ele>200</ele>
        <time>2018-07-03T10:25:22Z</time>
      </trkpt>
      <trkpt lat="45.96371" lon="4.78095">
        <ele>199</ele>
        <time>2018-07-03T10:25:23Z</time>
      </trkpt>
      <trkpt lat="45.96366" lon="4.7809">
        <ele>199</ele>
        <time>2018-07-03T10:25:24Z</time>
      </trkpt>
      <trkpt lat="45.96362" lon="4.78085">
        <ele>199</ele>
        <time>2018-07-03T10:25:25Z</time>
      </trkpt>
      <trkpt lat="45.9636" lon="4.7808">
        <ele>202</ele>
        <time>2018-07-03T10:25:26Z</time>
      </trkpt>
      <trkpt lat="45.96357" lon="4.78073">
        <ele>202</ele>
        <time>2018-07-03T10:25:27Z</time>
      </trkpt>
      <trkpt lat="45.96347" lon="4.78068">
        <ele>201</ele>
        <time>2018-07-03T10:25:28Z</time>
      </trkpt>
      <trkpt lat="45.96339" lon="4.78062">
        <ele>202</ele>
        <time>2018-07-03T10:25:29Z</time>
      </trkpt>
      <trkpt lat="45.96341" lon="4.78056">
        <ele>202</ele>
        <time>2018-07-03T10:25:30Z</time>
      </trkpt>
      <trkpt lat="45.96335" lon="4.78051">
        <ele>202</ele>
        <time>2018-07-03T10:25:31Z</time>
      </trkpt>
      <trkpt lat="45.96329" lon="4.78044">
        <ele>199</ele>
        <time>2018-07-03T10:25:32Z</time>
      </trkpt>
      <trkpt lat="45.96327" lon="4.78041">
        <ele>199</ele>
        <time>2018-07-03T10:25:33Z</time>
      </trkpt>
      <trkpt lat="45.96321" lon="4.78036">
        <ele>200</ele>
        <time>2018-07-03T10:25:34Z</time>
      </trkpt>
      <trkpt lat="45.96318" lon="4.7803">
        <ele>200</ele>
        <time>2018-07-03T10:25:35Z</time>
      </trkpt>
      <trkpt lat="45.96311" lon="4.78026">
        <ele>200</ele>
        <time>2018-07-03T10:25:36Z</time>
      </trkpt>
      <trkpt lat="45.96307" lon="4.78021">
        <ele>200</ele>
        <time>2018-07-03T10:25:37Z</time>
      </trkpt>
      <trkpt lat="45.96302" lon="4.78016">
        <ele>200</ele>
        <time>2018-07-03T10:25:38Z</time>
      </trkpt>
      <trkpt lat="45.96298" lon="4.78009">
        <ele>199</ele>
        <time>2018-07-03T10:25:39Z</time>
      </trkpt>
      <trkpt lat="45.96294" lon="4.78004">
        <ele>199</ele>
        <time>2018-07-03T10:25:40Z</time>
      </trkpt>
      <trkpt lat="45.96287" lon="4.78">
        <ele>199</ele>
        <time>2018-07-03T10:25:41Z</time>
      </trkpt>
      <trkpt lat="45.96283" lon="4.77996">
        <ele>203</ele>
        <time>2018-07-03T10:25:42Z</time>
      </trkpt>
      <trkpt lat="45.96278" lon="4.77993">
        <ele>203</ele>
        <time>2018-07-03T10:25:43Z</time>
      </trkpt>
      <trkpt lat="45.96273" lon="4.77989">
        <ele>203</ele>
        <time>2018-07-03T10:25:44Z</time>
      </trkpt>
      <trkpt lat="45.96267" lon="4.77984">
        <ele>202</ele>
        <time>2018-07-03T10:25:45Z</time>
      </trkpt>
      <trkpt lat="45.96262" lon="4.7798">
        <ele>202</ele>
        <time>2018-07-03T10:25:46Z</time>
      </trkpt>
      <trkpt lat="45.96255" lon="4.77973">
        <ele>203</ele>
        <time>2018-07-03T10:25:48Z</time>
      </trkpt>
      <trkpt lat="45.96249" lon="4.77966">
        <ele>199</ele>
        <time>2018-07-03T10:25:49Z</time>
      </trkpt>
      <trkpt lat="45.96244" lon="4.77961">
        <ele>199</ele>
        <time>2018-07-03T10:25:50Z</time>
      </trkpt>
      <trkpt lat="45.96237" lon="4.77956">
        <ele>199</ele>
        <time>2018-07-03T10:25:51Z</time>
      </trkpt>
      <trkpt lat="45.96234" lon="4.77951">
        <ele>200</ele>
        <time>2018-07-03T10:25:52Z</time>
      </trkpt>
      <trkpt lat="45.96229" lon="4.77947">
        <ele>200</ele>
        <time>2018-07-03T10:25:53Z</time>
      </trkpt>
      <trkpt lat="45.96223" lon="4.77938">
        <ele>200</ele>
        <time>2018-07-03T10:25:55Z</time>
      </trkpt>
      <trkpt lat="45.96217" lon="4.77931">
        <ele>200</ele>
        <time>2018-07-03T10:25:56Z</time>
      </trkpt>
      <trkpt lat="45.96211" lon="4.77924">
        <ele>199</ele>
        <time>2018-07-03T10:25:57Z</time>
      </trkpt>
      <trkpt lat="45.96209" lon="4.77919">
        <ele>199</ele>
        <time>2018-07-03T10:25:58Z</time>
      </trkpt>
      <trkpt lat="45.96201" lon="4.7791">
        <ele>201</ele>
        <time>2018-07-03T10:25:59Z</time>
      </trkpt>
      <trkpt lat="45.96199" lon="4.77904">
        <ele>201</ele>
        <time>2018-07-03T10:26:00Z</time>
      </trkpt>
      <trkpt lat="45.96196" lon="4.77898">
        <ele>201</ele>
        <time>2018-07-03T10:26:01Z</time>
      </trkpt>
      <trkpt lat="45.96192" lon="4.77891">
        <ele>201</ele>
        <time>2018-07-03T10:26:02Z</time>
      </trkpt>
      <trkpt lat="45.96187" lon="4.77884">
        <ele>201</ele>
        <time>2018-07-03T10:26:03Z</time>
      </trkpt>
      <trkpt lat="45.96184" lon="4.77878">
        <ele>201</ele>
        <time>2018-07-03T10:26:04Z</time>
      </trkpt>
      <trkpt lat="45.96181" lon="4.77873">
        <ele>201</ele>
        <time>2018-07-03T10:26:05Z</time>
      </trkpt>
      <trkpt lat="45.96179" lon="4.77868">
        <ele>201</ele>
        <time>2018-07-03T10:26:06Z</time>
      </trkpt>
      <trkpt lat="45.96174" lon="4.77863">
        <ele>201</ele>
        <time>2018-07-03T10:26:07Z</time>
      </trkpt>
      <trkpt lat="45.96171" lon="4.77857">
        <ele>201</ele>
        <time>2018-07-03T10:26:08Z</time>
      </trkpt>
      <trkpt lat="45.96167" lon="4.7785">
        <ele>197</ele>
        <time>2018-07-03T10:26:09Z</time>
      </trkpt>
      <trkpt lat="45.96163" lon="4.77843">
        <ele>197</ele>
        <time>2018-07-03T10:26:10Z</time>
      </trkpt>
      <trkpt lat="45.96158" lon="4.77836">
        <ele>197</ele>
        <time>2018-07-03T10:26:11Z</time>
      </trkpt>
      <trkpt lat="45.96154" lon="4.77829">
        <ele>198</ele>
        <time>2018-07-03T10:26:12Z</time>
      </trkpt>
      <trkpt lat="45.96151" lon="4.77823">
        <ele>198</ele>
        <time>2018-07-03T10:26:13Z</time>
      </trkpt>
      <trkpt lat="45.96148" lon="4.77815">
        <ele>198</ele>
        <time>2018-07-03T10:26:14Z</time>
      </trkpt>
      <trkpt lat="45.96143" lon="4.77809">
        <ele>198</ele>
        <time>2018-07-03T10:26:15Z</time>
      </trkpt>
      <trkpt lat="45.96139" lon="4.77802">
        <ele>198</ele>
        <time>2018-07-03T10:26:16Z</time>
      </trkpt>
      <trkpt lat="45.96134" lon="4.77795">
        <ele>198</ele>
        <time>2018-07-03T10:26:17Z</time>
      </trkpt>
      <trkpt lat="45.96129" lon="4.77788">
        <ele>197</ele>
        <time>2018-07-03T10:26:18Z</time>
      </trkpt>
      <trkpt lat="45.96126" lon="4.77783">
        <ele>197</ele>
        <time>2018-07-03T10:26:19Z</time>
      </trkpt>
      <trkpt lat="45.96123" lon="4.77776">
        <ele>197</ele>
        <time>2018-07-03T10:26:20Z</time>
      </trkpt>
      <trkpt lat="45.96119" lon="4.77769">
        <ele>197</ele>
        <time>2018-07-03T10:26:21Z</time>
      </trkpt>
      <trkpt lat="45.96115" lon="4.77762">
        <ele>197</ele>
        <time>2018-07-03T10:26:22Z</time>
      </trkpt>
      <trkpt lat="45.96111" lon="4.77756">
        <ele>197</ele>
        <time>2018-07-03T10:26:23Z</time>
      </trkpt>
      <trkpt lat="45.96108" lon="4.7775">
        <ele>199</ele>
        <time>2018-07-03T10:26:24Z</time>
      </trkpt>
      <trkpt lat="45.96105" lon="4.77743">
        <ele>198</ele>
        <time>2018-07-03T10:26:25Z</time>
      </trkpt>
      <trkpt lat="45.96101" lon="4.77737">
        <ele>198</ele>
        <time>2018-07-03T10:26:26Z</time>
      </trkpt>
      <trkpt lat="45.96097" lon="4.7773">
        <ele>199</ele>
        <time>2018-07-03T10:26:27Z</time>
      </trkpt>
      <trkpt lat="45.96093" lon="4.77724">
        <ele>199</ele>
        <time>2018-07-03T10:26:28Z</time>
      </trkpt>
      <trkpt lat="45.96088" lon="4.77718">
        <ele>199</ele>
        <time>2018-07-03T10:26:29Z</time>
      </trkpt>
      <trkpt lat="45.96084" lon="4.77713">
        <ele>199</ele>
        <time>2018-07-03T10:26:30Z</time>
      </trkpt>
      <trkpt lat="45.96082" lon="4.77705">
        <ele>197</ele>
        <time>2018-07-03T10:26:31Z</time>
      </trkpt>
      <trkpt lat="45.96077" lon="4.77697">
        <ele>197</ele>
        <time>2018-07-03T10:26:32Z</time>
      </trkpt>
      <trkpt lat="45.96073" lon="4.7769">
        <ele>198</ele>
        <time>2018-07-03T10:26:33Z</time>
      </trkpt>
      <trkpt lat="45.96068" lon="4.7768">
        <ele>198</ele>
        <time>2018-07-03T10:26:35Z</time>
      </trkpt>
      <trkpt lat="45.96063" lon="4.77672">
        <ele>198</ele>
        <time>2018-07-03T10:26:36Z</time>
      </trkpt>
      <trkpt lat="45.96057" lon="4.77667">
        <ele>198</ele>
        <time>2018-07-03T10:26:37Z</time>
      </trkpt>
      <trkpt lat="45.96053" lon="4.77661">
        <ele>200</ele>
        <time>2018-07-03T10:26:38Z</time>
      </trkpt>
      <trkpt lat="45.96048" lon="4.77655">
        <ele>200</ele>
        <time>2018-07-03T10:26:39Z</time>
      </trkpt>
      <trkpt lat="45.96043" lon="4.77649">
        <ele>199</ele>
        <time>2018-07-03T10:26:40Z</time>
      </trkpt>
      <trkpt lat="45.9604" lon="4.77643">
        <ele>199</ele>
        <time>2018-07-03T10:26:41Z</time>
      </trkpt>
      <trkpt lat="45.96036" lon="4.77637">
        <ele>199</ele>
        <time>2018-07-03T10:26:42Z</time>
      </trkpt>
      <trkpt lat="45.96031" lon="4.7763">
        <ele>199</ele>
        <time>2018-07-03T10:26:43Z</time>
      </trkpt>
      <trkpt lat="45.96026" lon="4.77625">
        <ele>199</ele>
        <time>2018-07-03T10:26:44Z</time>
      </trkpt>
      <trkpt lat="45.96021" lon="4.77619">
        <ele>199</ele>
        <time>2018-07-03T10:26:45Z</time>
      </trkpt>
      <trkpt lat="45.96015" lon="4.77613">
        <ele>199</ele>
        <time>2018-07-03T10:26:46Z</time>
      </trkpt>
      <trkpt lat="45.9601" lon="4.77607">
        <ele>199</ele>
        <time>2018-07-03T10:26:47Z</time>
      </trkpt>
      <trkpt lat="45.96006" lon="4.77602">
        <ele>198</ele>
        <time>2018-07-03T10:26:48Z</time>
      </trkpt>
      <trkpt lat="45.96001" lon="4.77596">
        <ele>198</ele>
        <time>2018-07-03T10:26:49Z</time>
      </trkpt>
      <trkpt lat="45.95997" lon="4.77589">
        <ele>196</ele>
        <time>2018-07-03T10:26:50Z</time>
      </trkpt>
      <trkpt lat="45.95992" lon="4.77582">
        <ele>196</ele>
        <time>2018-07-03T10:26:51Z</time>
      </trkpt>
      <trkpt lat="45.95988" lon="4.77576">
        <ele>196</ele>
        <time>2018-07-03T10:26:52Z</time>
      </trkpt>
      <trkpt lat="45.95985" lon="4.77566">
        <ele>196</ele>
        <time>2018-07-03T10:26:53Z</time>
      </trkpt>
      <trkpt lat="45.95982" lon="4.7756">
        <ele>196</ele>
        <time>2018-07-03T10:26:54Z</time>
      </trkpt>
      <trkpt lat="45.9598" lon="4.77552">
        <ele>196</ele>
        <time>2018-07-03T10:26:55Z</time>
      </trkpt>
      <trkpt lat="45.95976" lon="4.77546">
        <ele>195</ele>
        <time>2018-07-03T10:26:56Z</time>
      </trkpt>
      <trkpt lat="45.95974" lon="4.77541">
        <ele>195</ele>
        <time>2018-07-03T10:26:57Z</time>
      </trkpt>
      <trkpt lat="45.95972" lon="4.77534">
        <ele>195</ele>
        <time>2018-07-03T10:26:58Z</time>
      </trkpt>
      <trkpt lat="45.95968" lon="4.77528">
        <ele>195</ele>
        <time>2018-07-03T10:26:59Z</time>
      </trkpt>
      <trkpt lat="45.95965" lon="4.77521">
        <ele>195</ele>
        <time>2018-07-03T10:27:00Z</time>
      </trkpt>
      <trkpt lat="45.95962" lon="4.77513">
        <ele>195</ele>
        <time>2018-07-03T10:27:01Z</time>
      </trkpt>
      <trkpt lat="45.9596" lon="4.77506">
        <ele>195</ele>
        <time>2018-07-03T10:27:02Z</time>
      </trkpt>
      <trkpt lat="45.95957" lon="4.77498">
        <ele>196</ele>
        <time>2018-07-03T10:27:03Z</time>
      </trkpt>
      <trkpt lat="45.95954" lon="4.77489">
        <ele>196</ele>
        <time>2018-07-03T10:27:04Z</time>
      </trkpt>
      <trkpt lat="45.95951" lon="4.77481">
        <ele>196</ele>
        <time>2018-07-03T10:27:05Z</time>
      </trkpt>
      <trkpt lat="45.95944" lon="4.77471">
        <ele>195</ele>
        <time>2018-07-03T10:27:06Z</time>
      </trkpt>
      <trkpt lat="45.95942" lon="4.77461">
        <ele>195</ele>
        <time>2018-07-03T10:27:07Z</time>
      </trkpt>
      <trkpt lat="45.95938" lon="4.77453">
        <ele>195</ele>
        <time>2018-07-03T10:27:08Z</time>
      </trkpt>
      <trkpt lat="45.95936" lon="4.77443">
        <ele>195</ele>
        <time>2018-07-03T10:27:09Z</time>
      </trkpt>
      <trkpt lat="45.95934" lon="4.77435">
        <ele>195</ele>
        <time>2018-07-03T10:27:10Z</time>
      </trkpt>
      <trkpt lat="45.95929" lon="4.77426">
        <ele>195</ele>
        <time>2018-07-03T10:27:11Z</time>
      </trkpt>
      <trkpt lat="45.95927" lon="4.77416">
        <ele>195</ele>
        <time>2018-07-03T10:27:12Z</time>
      </trkpt>
      <trkpt lat="45.95924" lon="4.77408">
        <ele>195</ele>
        <time>2018-07-03T10:27:13Z</time>
      </trkpt>
      <trkpt lat="45.95922" lon="4.77399">
        <ele>196</ele>
        <time>2018-07-03T10:27:14Z</time>
      </trkpt>
      <trkpt lat="45.95919" lon="4.77389">
        <ele>196</ele>
        <time>2018-07-03T10:27:15Z</time>
      </trkpt>
      <trkpt lat="45.95917" lon="4.7738">
        <ele>193</ele>
        <time>2018-07-03T10:27:16Z</time>
      </trkpt>
      <trkpt lat="45.95913" lon="4.77372">
        <ele>193</ele>
        <time>2018-07-03T10:27:17Z</time>
      </trkpt>
      <trkpt lat="45.95911" lon="4.77362">
        <ele>193</ele>
        <time>2018-07-03T10:27:18Z</time>
      </trkpt>
      <trkpt lat="45.95908" lon="4.77353">
        <ele>193</ele>
        <time>2018-07-03T10:27:19Z</time>
      </trkpt>
      <trkpt lat="45.95905" lon="4.77344">
        <ele>193</ele>
        <time>2018-07-03T10:27:20Z</time>
      </trkpt>
      <trkpt lat="45.95904" lon="4.77335">
        <ele>194</ele>
        <time>2018-07-03T10:27:21Z</time>
      </trkpt>
      <trkpt lat="45.95901" lon="4.77326">
        <ele>194</ele>
        <time>2018-07-03T10:27:22Z</time>
      </trkpt>
      <trkpt lat="45.95897" lon="4.77317">
        <ele>193</ele>
        <time>2018-07-03T10:27:23Z</time>
      </trkpt>
      <trkpt lat="45.95895" lon="4.77308">
        <ele>193</ele>
        <time>2018-07-03T10:27:24Z</time>
      </trkpt>
      <trkpt lat="45.95894" lon="4.77298">
        <ele>193</ele>
        <time>2018-07-03T10:27:25Z</time>
      </trkpt>
      <trkpt lat="45.9589" lon="4.77288">
        <ele>193</ele>
        <time>2018-07-03T10:27:26Z</time>
      </trkpt>
      <trkpt lat="45.95889" lon="4.77277">
        <ele>193</ele>
        <time>2018-07-03T10:27:27Z</time>
      </trkpt>
      <trkpt lat="45.95885" lon="4.77265">
        <ele>193</ele>
        <time>2018-07-03T10:27:28Z</time>
      </trkpt>
      <trkpt lat="45.95883" lon="4.77255">
        <ele>193</ele>
        <time>2018-07-03T10:27:29Z</time>
      </trkpt>
      <trkpt lat="45.95881" lon="4.77245">
        <ele>193</ele>
        <time>2018-07-03T10:27:30Z</time>
      </trkpt>
      <trkpt lat="45.95878" lon="4.77235">
        <ele>193</ele>
        <time>2018-07-03T10:27:31Z</time>
      </trkpt>
      <trkpt lat="45.95876" lon="4.77224">
        <ele>193</ele>
        <time>2018-07-03T10:27:32Z</time>
      </trkpt>
      <trkpt lat="45.95873" lon="4.77215">
        <ele>193</ele>
        <time>2018-07-03T10:27:33Z</time>
      </trkpt>
      <trkpt lat="45.9587" lon="4.77206">
        <ele>193</ele>
        <time>2018-07-03T10:27:34Z</time>
      </trkpt>
      <trkpt lat="45.95868" lon="4.77197">
        <ele>193</ele>
        <time>2018-07-03T10:27:35Z</time>
      </trkpt>
      <trkpt lat="45.95864" lon="4.77186">
        <ele>192</ele>
        <time>2018-07-03T10:27:36Z</time>
      </trkpt>
      <trkpt lat="45.95861" lon="4.77177">
        <ele>192</ele>
        <time>2018-07-03T10:27:37Z</time>
      </trkpt>
      <trkpt lat="45.95858" lon="4.77167">
        <ele>192</ele>
        <time>2018-07-03T10:27:38Z</time>
      </trkpt>
      <trkpt lat="45.95856" lon="4.77158">
        <ele>192</ele>
        <time>2018-07-03T10:27:39Z</time>
      </trkpt>
      <trkpt lat="45.95853" lon="4.77148">
        <ele>193</ele>
        <time>2018-07-03T10:27:40Z</time>
      </trkpt>
      <trkpt lat="45.95851" lon="4.77138">
        <ele>193</ele>
        <time>2018-07-03T10:27:41Z</time>
      </trkpt>
      <trkpt lat="45.95847" lon="4.77127">
        <ele>193</ele>
        <time>2018-07-03T10:27:42Z</time>
      </trkpt>
      <trkpt lat="45.95845" lon="4.77117">
        <ele>193</ele>
        <time>2018-07-03T10:27:43Z</time>
      </trkpt>
      <trkpt lat="45.95842" lon="4.77108">
        <ele>193</ele>
        <time>2018-07-03T10:27:44Z</time>
      </trkpt>
      <trkpt lat="45.95839" lon="4.77099">
        <ele>193</ele>
        <time>2018-07-03T10:27:45Z</time>
      </trkpt>
      <trkpt lat="45.95837" lon="4.77089">
        <ele>192</ele>
        <time>2018-07-03T10:27:46Z</time>
      </trkpt>
      <trkpt lat="45.95833" lon="4.7708">
        <ele>192</ele>
        <time>2018-07-03T10:27:47Z</time>
      </trkpt>
      <trkpt lat="45.95829" lon="4.77071">
        <ele>191</ele>
        <time>2018-07-03T10:27:48Z</time>
      </trkpt>
      <trkpt lat="45.95827" lon="4.77062">
        <ele>191</ele>
        <time>2018-07-03T10:27:49Z</time>
      </trkpt>
      <trkpt lat="45.95823" lon="4.77053">
        <ele>190</ele>
        <time>2018-07-03T10:27:50Z</time>
      </trkpt>
      <trkpt lat="45.95819" lon="4.77045">
        <ele>190</ele>
        <time>2018-07-03T10:27:51Z</time>
      </trkpt>
      <trkpt lat="45.95816" lon="4.77036">
        <ele>190</ele>
        <time>2018-07-03T10:27:52Z</time>
      </trkpt>
      <trkpt lat="45.9581" lon="4.77027">
        <ele>190</ele>
        <time>2018-07-03T10:27:53Z</time>
      </trkpt>
      <trkpt lat="45.95808" lon="4.7702">
        <ele>190</ele>
        <time>2018-07-03T10:27:54Z</time>
      </trkpt>
      <trkpt lat="45.95805" lon="4.7701">
        <ele>190</ele>
        <time>2018-07-03T10:27:55Z</time>
      </trkpt>
      <trkpt lat="45.95804" lon="4.77001">
        <ele>190</ele>
        <time>2018-07-03T10:27:56Z</time>
      </trkpt>
      <trkpt lat="45.95803" lon="4.7699">
        <ele>189</ele>
        <time>2018-07-03T10:27:57Z</time>
      </trkpt>
      <trkpt lat="45.95802" lon="4.76981">
        <ele>189</ele>
        <time>2018-07-03T10:27:58Z</time>
      </trkpt>
      <trkpt lat="45.95804" lon="4.76972">
        <ele>189</ele>
        <time>2018-07-03T10:27:59Z</time>
      </trkpt>
      <trkpt lat="45.95801" lon="4.7696">
        <ele>189</ele>
        <time>2018-07-03T10:28:00Z</time>
      </trkpt>
      <trkpt lat="45.95803" lon="4.76951">
        <ele>189</ele>
        <time>2018-07-03T10:28:01Z</time>
      </trkpt>
      <trkpt lat="45.95804" lon="4.76943">
        <ele>189</ele>
        <time>2018-07-03T10:28:02Z</time>
      </trkpt>
      <trkpt lat="45.95807" lon="4.76934">
        <ele>189</ele>
        <time>2018-07-03T10:28:03Z</time>
      </trkpt>
      <trkpt lat="45.9581" lon="4.76926">
        <ele>189</ele>
        <time>2018-07-03T10:28:04Z</time>
      </trkpt>
      <trkpt lat="45.9581" lon="4.7692">
        <ele>189</ele>
        <time>2018-07-03T10:28:05Z</time>
      </trkpt>
      <trkpt lat="45.95812" lon="4.76911">
        <ele>189</ele>
        <time>2018-07-03T10:28:06Z</time>
      </trkpt>
      <trkpt lat="45.95815" lon="4.76905">
        <ele>189</ele>
        <time>2018-07-03T10:28:07Z</time>
      </trkpt>
      <trkpt lat="45.95817" lon="4.76896">
        <ele>189</ele>
        <time>2018-07-03T10:28:08Z</time>
      </trkpt>
      <trkpt lat="45.95819" lon="4.76888">
        <ele>189</ele>
        <time>2018-07-03T10:28:09Z</time>
      </trkpt>
      <trkpt lat="45.95821" lon="4.76879">
        <ele>189</ele>
        <time>2018-07-03T10:28:10Z</time>
      </trkpt>
      <trkpt lat="45.95823" lon="4.7687">
        <ele>189</ele>
        <time>2018-07-03T10:28:11Z</time>
      </trkpt>
      <trkpt lat="45.95825" lon="4.76861">
        <ele>189</ele>
        <time>2018-07-03T10:28:12Z</time>
      </trkpt>
      <trkpt lat="45.95826" lon="4.76852">
        <ele>190</ele>
        <time>2018-07-03T10:28:13Z</time>
      </trkpt>
      <trkpt lat="45.95827" lon="4.76843">
        <ele>190</ele>
        <time>2018-07-03T10:28:14Z</time>
      </trkpt>
      <trkpt lat="45.95828" lon="4.76836">
        <ele>190</ele>
        <time>2018-07-03T10:28:15Z</time>
      </trkpt>
      <trkpt lat="45.95829" lon="4.76828">
        <ele>190</ele>
        <time>2018-07-03T10:28:16Z</time>
      </trkpt>
      <trkpt lat="45.95831" lon="4.76818">
        <ele>190</ele>
        <time>2018-07-03T10:28:17Z</time>
      </trkpt>
      <trkpt lat="45.95832" lon="4.7681">
        <ele>190</ele>
        <time>2018-07-03T10:28:18Z</time>
      </trkpt>
      <trkpt lat="45.95834" lon="4.76803">
        <ele>191</ele>
        <time>2018-07-03T10:28:19Z</time>
      </trkpt>
      <trkpt lat="45.95835" lon="4.76796">
        <ele>191</ele>
        <time>2018-07-03T10:28:20Z</time>
      </trkpt>
      <trkpt lat="45.95836" lon="4.76789">
        <ele>191</ele>
        <time>2018-07-03T10:28:21Z</time>
      </trkpt>
      <trkpt lat="45.95835" lon="4.76782">
        <ele>191</ele>
        <time>2018-07-03T10:28:22Z</time>
      </trkpt>
      <trkpt lat="45.95833" lon="4.76774">
        <ele>190</ele>
        <time>2018-07-03T10:28:23Z</time>
      </trkpt>
      <trkpt lat="45.95831" lon="4.76767">
        <ele>190</ele>
        <time>2018-07-03T10:28:24Z</time>
      </trkpt>
      <trkpt lat="45.95829" lon="4.76759">
        <ele>191</ele>
        <time>2018-07-03T10:28:25Z</time>
      </trkpt>
      <trkpt lat="45.95827" lon="4.76749">
        <ele>191</ele>
        <time>2018-07-03T10:28:26Z</time>
      </trkpt>
      <trkpt lat="45.95825" lon="4.76741">
        <ele>190</ele>
        <time>2018-07-03T10:28:27Z</time>
      </trkpt>
      <trkpt lat="45.95822" lon="4.76731">
        <ele>190</ele>
        <time>2018-07-03T10:28:28Z</time>
      </trkpt>
      <trkpt lat="45.95821" lon="4.76722">
        <ele>189</ele>
        <time>2018-07-03T10:28:29Z</time>
      </trkpt>
      <trkpt lat="45.9582" lon="4.76713">
        <ele>189</ele>
        <time>2018-07-03T10:28:30Z</time>
      </trkpt>
      <trkpt lat="45.95819" lon="4.76703">
        <ele>189</ele>
        <time>2018-07-03T10:28:31Z</time>
      </trkpt>
      <trkpt lat="45.95817" lon="4.76694">
        <ele>189</ele>
        <time>2018-07-03T10:28:32Z</time>
      </trkpt>
      <trkpt lat="45.95816" lon="4.76685">
        <ele>189</ele>
        <time>2018-07-03T10:28:33Z</time>
      </trkpt>
      <trkpt lat="45.95816" lon="4.76676">
        <ele>189</ele>
        <time>2018-07-03T10:28:34Z</time>
      </trkpt>
      <trkpt lat="45.95814" lon="4.76668">
        <ele>189</ele>
        <time>2018-07-03T10:28:35Z</time>
      </trkpt>
      <trkpt lat="45.95811" lon="4.7666">
        <ele>188</ele>
        <time>2018-07-03T10:28:36Z</time>
      </trkpt>
      <trkpt lat="45.9581" lon="4.76653">
        <ele>188</ele>
        <time>2018-07-03T10:28:37Z</time>
      </trkpt>
      <trkpt lat="45.9581" lon="4.76645">
        <ele>188</ele>
        <time>2018-07-03T10:28:38Z</time>
      </trkpt>
      <trkpt lat="45.95807" lon="4.76636">
        <ele>188</ele>
        <time>2018-07-03T10:28:39Z</time>
      </trkpt>
      <trkpt lat="45.95805" lon="4.76626">
        <ele>188</ele>
        <time>2018-07-03T10:28:40Z</time>
      </trkpt>
      <trkpt lat="45.95806" lon="4.76618">
        <ele>188</ele>
        <time>2018-07-03T10:28:41Z</time>
      </trkpt>
      <trkpt lat="45.95805" lon="4.76609">
        <ele>188</ele>
        <time>2018-07-03T10:28:42Z</time>
      </trkpt>
      <trkpt lat="45.95803" lon="4.76598">
        <ele>187</ele>
        <time>2018-07-03T10:28:43Z</time>
      </trkpt>
      <trkpt lat="45.958" lon="4.76588">
        <ele>187</ele>
        <time>2018-07-03T10:28:44Z</time>
      </trkpt>
      <trkpt lat="45.95798" lon="4.76578">
        <ele>187</ele>
        <time>2018-07-03T10:28:45Z</time>
      </trkpt>
      <trkpt lat="45.95798" lon="4.76568">
        <ele>187</ele>
        <time>2018-07-03T10:28:46Z</time>
      </trkpt>
      <trkpt lat="45.95796" lon="4.76559">
        <ele>187</ele>
        <time>2018-07-03T10:28:47Z</time>
      </trkpt>
      <trkpt lat="45.95796" lon="4.76551">
        <ele>187</ele>
        <time>2018-07-03T10:28:48Z</time>
      </trkpt>
      <trkpt lat="45.95794" lon="4.76541">
        <ele>187</ele>
        <time>2018-07-03T10:28:49Z</time>
      </trkpt>
      <trkpt lat="45.95792" lon="4.76532">
        <ele>187</ele>
        <time>2018-07-03T10:28:50Z</time>
      </trkpt>
      <trkpt lat="45.95791" lon="4.76524">
        <ele>187</ele>
        <time>2018-07-03T10:28:51Z</time>
      </trkpt>
      <trkpt lat="45.9579" lon="4.76515">
        <ele>187</ele>
        <time>2018-07-03T10:28:52Z</time>
      </trkpt>
      <trkpt lat="45.95787" lon="4.76507">
        <ele>187</ele>
        <time>2018-07-03T10:28:53Z</time>
      </trkpt>
      <trkpt lat="45.95786" lon="4.76499">
        <ele>186</ele>
        <time>2018-07-03T10:28:54Z</time>
      </trkpt>
      <trkpt lat="45.95785" lon="4.76492">
        <ele>186</ele>
        <time>2018-07-03T10:28:55Z</time>
      </trkpt>
      <trkpt lat="45.95784" lon="4.76484">
        <ele>186</ele>
        <time>2018-07-03T10:28:56Z</time>
      </trkpt>
      <trkpt lat="45.95783" lon="4.76477">
        <ele>186</ele>
        <time>2018-07-03T10:28:57Z</time>
      </trkpt>
      <trkpt lat="45.95783" lon="4.76469">
        <ele>186</ele>
        <time>2018-07-03T10:28:58Z</time>
      </trkpt>
      <trkpt lat="45.95782" lon="4.76461">
        <ele>186</ele>
        <time>2018-07-03T10:28:59Z</time>
      </trkpt>
      <trkpt lat="45.95781" lon="4.76453">
        <ele>186</ele>
        <time>2018-07-03T10:29:00Z</time>
      </trkpt>
      <trkpt lat="45.95779" lon="4.76444">
        <ele>186</ele>
        <time>2018-07-03T10:29:01Z</time>
      </trkpt>
      <trkpt lat="45.95778" lon="4.76435">
        <ele>186</ele>
        <time>2018-07-03T10:29:02Z</time>
      </trkpt>
      <trkpt lat="45.95777" lon="4.76427">
        <ele>186</ele>
        <time>2018-07-03T10:29:03Z</time>
      </trkpt>
      <trkpt lat="45.95776" lon="4.76418">
        <ele>186</ele>
        <time>2018-07-03T10:29:04Z</time>
      </trkpt>
      <trkpt lat="45.95777" lon="4.76408">
        <ele>186</ele>
        <time>2018-07-03T10:29:05Z</time>
      </trkpt>
      <trkpt lat="45.95776" lon="4.76399">
        <ele>186</ele>
        <time>2018-07-03T10:29:06Z</time>
      </trkpt>
      <trkpt lat="45.95773" lon="4.76389">
        <ele>186</ele>
        <time>2018-07-03T10:29:07Z</time>
      </trkpt>
      <trkpt lat="45.95773" lon="4.76379">
        <ele>186</ele>
        <time>2018-07-03T10:29:08Z</time>
      </trkpt>
      <trkpt lat="45.95774" lon="4.76372">
        <ele>186</ele>
        <time>2018-07-03T10:29:09Z</time>
      </trkpt>
      <trkpt lat="45.95774" lon="4.76363">
        <ele>186</ele>
        <time>2018-07-03T10:29:10Z</time>
      </trkpt>
      <trkpt lat="45.95774" lon="4.76355">
        <ele>186</ele>
        <time>2018-07-03T10:29:11Z</time>
      </trkpt>
      <trkpt lat="45.95774" lon="4.76346">
        <ele>186</ele>
        <time>2018-07-03T10:29:12Z</time>
      </trkpt>
      <trkpt lat="45.95773" lon="4.76337">
        <ele>186</ele>
        <time>2018-07-03T10:29:13Z</time>
      </trkpt>
      <trkpt lat="45.95773" lon="4.76329">
        <ele>185</ele>
        <time>2018-07-03T10:29:14Z</time>
      </trkpt>
      <trkpt lat="45.95773" lon="4.76319">
        <ele>185</ele>
        <time>2018-07-03T10:29:15Z</time>
      </trkpt>
      <trkpt lat="45.95773" lon="4.7631">
        <ele>186</ele>
        <time>2018-07-03T10:29:16Z</time>
      </trkpt>
      <trkpt lat="45.95774" lon="4.76301">
        <ele>186</ele>
        <time>2018-07-03T10:29:17Z</time>
      </trkpt>
      <trkpt lat="45.95774" lon="4.76291">
        <ele>186</ele>
        <time>2018-07-03T10:29:18Z</time>
      </trkpt>
      <trkpt lat="45.95773" lon="4.76281">
        <ele>186</ele>
        <time>2018-07-03T10:29:19Z</time>
      </trkpt>
      <trkpt lat="45.95772" lon="4.76271">
        <ele>186</ele>
        <time>2018-07-03T10:29:20Z</time>
      </trkpt>
      <trkpt lat="45.95771" lon="4.7626">
        <ele>186</ele>
        <time>2018-07-03T10:29:21Z</time>
      </trkpt>
      <trkpt lat="45.9577" lon="4.76251">
        <ele>185</ele>
        <time>2018-07-03T10:29:22Z</time>
      </trkpt>
      <trkpt lat="45.95769" lon="4.76241">
        <ele>186</ele>
        <time>2018-07-03T10:29:23Z</time>
      </trkpt>
      <trkpt lat="45.95766" lon="4.76232">
        <ele>186</ele>
        <time>2018-07-03T10:29:24Z</time>
      </trkpt>
      <trkpt lat="45.95764" lon="4.76224">
        <ele>186</ele>
        <time>2018-07-03T10:29:25Z</time>
      </trkpt>
      <trkpt lat="45.95764" lon="4.76214">
        <ele>186</ele>
        <time>2018-07-03T10:29:26Z</time>
      </trkpt>
      <trkpt lat="45.95764" lon="4.76205">
        <ele>186</ele>
        <time>2018-07-03T10:29:27Z</time>
      </trkpt>
      <trkpt lat="45.95762" lon="4.76195">
        <ele>186</ele>
        <time>2018-07-03T10:29:28Z</time>
      </trkpt>
      <trkpt lat="45.95761" lon="4.76186">
        <ele>186</ele>
        <time>2018-07-03T10:29:29Z</time>
      </trkpt>
      <trkpt lat="45.95762" lon="4.76177">
        <ele>185</ele>
        <time>2018-07-03T10:29:30Z</time>
      </trkpt>
      <trkpt lat="45.95762" lon="4.76168">
        <ele>185</ele>
        <time>2018-07-03T10:29:31Z</time>
      </trkpt>
      <trkpt lat="45.95758" lon="4.7616">
        <ele>185</ele>
        <time>2018-07-03T10:29:32Z</time>
      </trkpt>
      <trkpt lat="45.95756" lon="4.76151">
        <ele>186</ele>
        <time>2018-07-03T10:29:33Z</time>
      </trkpt>
      <trkpt lat="45.95757" lon="4.76143">
        <ele>186</ele>
        <time>2018-07-03T10:29:34Z</time>
      </trkpt>
      <trkpt lat="45.95756" lon="4.76133">
        <ele>186</ele>
        <time>2018-07-03T10:29:35Z</time>
      </trkpt>
      <trkpt lat="45.95757" lon="4.76124">
        <ele>186</ele>
        <time>2018-07-03T10:29:36Z</time>
      </trkpt>
      <trkpt lat="45.95755" lon="4.76113">
        <ele>186</ele>
        <time>2018-07-03T10:29:37Z</time>
      </trkpt>
      <trkpt lat="45.95754" lon="4.76105">
        <ele>186</ele>
        <time>2018-07-03T10:29:38Z</time>
      </trkpt>
      <trkpt lat="45.95752" lon="4.76096">
        <ele>186</ele>
        <time>2018-07-03T10:29:39Z</time>
      </trkpt>
      <trkpt lat="45.95753" lon="4.76087">
        <ele>185</ele>
        <time>2018-07-03T10:29:40Z</time>
      </trkpt>
      <trkpt lat="45.95749" lon="4.7608">
        <ele>185</ele>
        <time>2018-07-03T10:29:41Z</time>
      </trkpt>
      <trkpt lat="45.95745" lon="4.76071">
        <ele>185</ele>
        <time>2018-07-03T10:29:42Z</time>
      </trkpt>
      <trkpt lat="45.95741" lon="4.76061">
        <ele>184</ele>
        <time>2018-07-03T10:29:43Z</time>
      </trkpt>
      <trkpt lat="45.95737" lon="4.76051">
        <ele>184</ele>
        <time>2018-07-03T10:29:44Z</time>
      </trkpt>
      <trkpt lat="45.95733" lon="4.76043">
        <ele>184</ele>
        <time>2018-07-03T10:29:45Z</time>
      </trkpt>
      <trkpt lat="45.95729" lon="4.76033">
        <ele>184</ele>
        <time>2018-07-03T10:29:46Z</time>
      </trkpt>
      <trkpt lat="45.95725" lon="4.76024">
        <ele>184</ele>
        <time>2018-07-03T10:29:47Z</time>
      </trkpt>
      <trkpt lat="45.95721" lon="4.76016">
        <ele>184</ele>
        <time>2018-07-03T10:29:48Z</time>
      </trkpt>
      <trkpt lat="45.95717" lon="4.76007">
        <ele>184</ele>
        <time>2018-07-03T10:29:49Z</time>
      </trkpt>
      <trkpt lat="45.95712" lon="4.75999">
        <ele>185</ele>
        <time>2018-07-03T10:29:50Z</time>
      </trkpt>
      <trkpt lat="45.95709" lon="4.7599">
        <ele>185</ele>
        <time>2018-07-03T10:29:51Z</time>
      </trkpt>
      <trkpt lat="45.95705" lon="4.75982">
        <ele>185</ele>
        <time>2018-07-03T10:29:52Z</time>
      </trkpt>
      <trkpt lat="45.95702" lon="4.75974">
        <ele>185</ele>
        <time>2018-07-03T10:29:53Z</time>
      </trkpt>
      <trkpt lat="45.95698" lon="4.75965">
        <ele>185</ele>
        <time>2018-07-03T10:29:54Z</time>
      </trkpt>
      <trkpt lat="45.95696" lon="4.75958">
        <ele>185</ele>
        <time>2018-07-03T10:29:55Z</time>
      </trkpt>
      <trkpt lat="45.95693" lon="4.7595">
        <ele>185</ele>
        <time>2018-07-03T10:29:56Z</time>
      </trkpt>
      <trkpt lat="45.9569" lon="4.75942">
        <ele>185</ele>
        <time>2018-07-03T10:29:57Z</time>
      </trkpt>
      <trkpt lat="45.95687" lon="4.75933">
        <ele>185</ele>
        <time>2018-07-03T10:29:58Z</time>
      </trkpt>
      <trkpt lat="45.95683" lon="4.75926">
        <ele>185</ele>
        <time>2018-07-03T10:29:59Z</time>
      </trkpt>
      <trkpt lat="45.9568" lon="4.75918">
        <ele>185</ele>
        <time>2018-07-03T10:30:00Z</time>
      </trkpt>
      <trkpt lat="45.95677" lon="4.7591">
        <ele>185</ele>
        <time>2018-07-03T10:30:01Z</time>
      </trkpt>
      <trkpt lat="45.95676" lon="4.75904">
        <ele>185</ele>
        <time>2018-07-03T10:30:02Z</time>
      </trkpt>
      <trkpt lat="45.95673" lon="4.75896">
        <ele>186</ele>
        <time>2018-07-03T10:30:03Z</time>
      </trkpt>
      <trkpt lat="45.95669" lon="4.75888">
        <ele>186</ele>
        <time>2018-07-03T10:30:04Z</time>
      </trkpt>
      <trkpt lat="45.95665" lon="4.75881">
        <ele>184</ele>
        <time>2018-07-03T10:30:05Z</time>
      </trkpt>
      <trkpt lat="45.95662" lon="4.75873">
        <ele>184</ele>
        <time>2018-07-03T10:30:06Z</time>
      </trkpt>
      <trkpt lat="45.9566" lon="4.75865">
        <ele>184</ele>
        <time>2018-07-03T10:30:07Z</time>
      </trkpt>
      <trkpt lat="45.95659" lon="4.75857">
        <ele>184</ele>
        <time>2018-07-03T10:30:08Z</time>
      </trkpt>
      <trkpt lat="45.95657" lon="4.7585">
        <ele>185</ele>
        <time>2018-07-03T10:30:09Z</time>
      </trkpt>
      <trkpt lat="45.95654" lon="4.75843">
        <ele>185</ele>
        <time>2018-07-03T10:30:10Z</time>
      </trkpt>
      <trkpt lat="45.95651" lon="4.75835">
        <ele>185</ele>
        <time>2018-07-03T10:30:11Z</time>
      </trkpt>
      <trkpt lat="45.95649" lon="4.75828">
        <ele>185</ele>
        <time>2018-07-03T10:30:12Z</time>
      </trkpt>
      <trkpt lat="45.95648" lon="4.75821">
        <ele>185</ele>
        <time>2018-07-03T10:30:13Z</time>
      </trkpt>
      <trkpt lat="45.95646" lon="4.75814">
        <ele>185</ele>
        <time>2018-07-03T10:30:14Z</time>
      </trkpt>
      <trkpt lat="45.95645" lon="4.75808">
        <ele>185</ele>
        <time>2018-07-03T10:30:15Z</time>
      </trkpt>
      <trkpt lat="45.95644" lon="4.75801">
        <ele>185</ele>
        <time>2018-07-03T10:30:16Z</time>
      </trkpt>
      <trkpt lat="45.95643" lon="4.75794">
        <ele>185</ele>
        <time>2018-07-03T10:30:17Z</time>
      </trkpt>
      <trkpt lat="45.95642" lon="4.75787">
        <ele>185</ele>
        <time>2018-07-03T10:30:18Z</time>
      </trkpt>
      <trkpt lat="45.95641" lon="4.7578">
        <ele>186</ele>
        <time>2018-07-03T10:30:19Z</time>
      </trkpt>
      <trkpt lat="45.95641" lon="4.75773">
        <ele>186</ele>
        <time>2018-07-03T10:30:20Z</time>
      </trkpt>
      <trkpt lat="45.95643" lon="4.75766">
        <ele>186</ele>
        <time>2018-07-03T10:30:21Z</time>
      </trkpt>
      <trkpt lat="45.9564" lon="4.75759">
        <ele>186</ele>
        <time>2018-07-03T10:30:22Z</time>
      </trkpt>
      <trkpt lat="45.95638" lon="4.75747">
        <ele>187</ele>
        <time>2018-07-03T10:30:24Z</time>
      </trkpt>
      <trkpt lat="45.95637" lon="4.75741">
        <ele>187</ele>
        <time>2018-07-03T10:30:25Z</time>
      </trkpt>
      <trkpt lat="45.95636" lon="4.75733">
        <ele>187</ele>
        <time>2018-07-03T10:30:26Z</time>
      </trkpt>
      <trkpt lat="45.95636" lon="4.75726">
        <ele>187</ele>
        <time>2018-07-03T10:30:27Z</time>
      </trkpt>
      <trkpt lat="45.95635" lon="4.75719">
        <ele>187</ele>
        <time>2018-07-03T10:30:28Z</time>
      </trkpt>
      <trkpt lat="45.95635" lon="4.75711">
        <ele>187</ele>
        <time>2018-07-03T10:30:29Z</time>
      </trkpt>
      <trkpt lat="45.95634" lon="4.75702">
        <ele>187</ele>
        <time>2018-07-03T10:30:30Z</time>
      </trkpt>
      <trkpt lat="45.95632" lon="4.75694">
        <ele>187</ele>
        <time>2018-07-03T10:30:31Z</time>
      </trkpt>
      <trkpt lat="45.9563" lon="4.75685">
        <ele>187</ele>
        <time>2018-07-03T10:30:32Z</time>
      </trkpt>
      <trkpt lat="45.95629" lon="4.75678">
        <ele>187</ele>
        <time>2018-07-03T10:30:33Z</time>
      </trkpt>
      <trkpt lat="45.95628" lon="4.75669">
        <ele>187</ele>
        <time>2018-07-03T10:30:34Z</time>
      </trkpt>
      <trkpt lat="45.95626" lon="4.7566">
        <ele>188</ele>
        <time>2018-07-03T10:30:35Z</time>
      </trkpt>
      <trkpt lat="45.95623" lon="4.75651">
        <ele>188</ele>
        <time>2018-07-03T10:30:36Z</time>
      </trkpt>
      <trkpt lat="45.95622" lon="4.75644">
        <ele>188</ele>
        <time>2018-07-03T10:30:37Z</time>
      </trkpt>
      <trkpt lat="45.9562" lon="4.75635">
        <ele>188</ele>
        <time>2018-07-03T10:30:38Z</time>
      </trkpt>
      <trkpt lat="45.95617" lon="4.75626">
        <ele>188</ele>
        <time>2018-07-03T10:30:39Z</time>
      </trkpt>
      <trkpt lat="45.95614" lon="4.75619">
        <ele>188</ele>
        <time>2018-07-03T10:30:40Z</time>
      </trkpt>
      <trkpt lat="45.95612" lon="4.75611">
        <ele>188</ele>
        <time>2018-07-03T10:30:41Z</time>
      </trkpt>
      <trkpt lat="45.95609" lon="4.75603">
        <ele>188</ele>
        <time>2018-07-03T10:30:42Z</time>
      </trkpt>
      <trkpt lat="45.95606" lon="4.75596">
        <ele>187</ele>
        <time>2018-07-03T10:30:43Z</time>
      </trkpt>
      <trkpt lat="45.95603" lon="4.75588">
        <ele>187</ele>
        <time>2018-07-03T10:30:44Z</time>
      </trkpt>
      <trkpt lat="45.95599" lon="4.75581">
        <ele>188</ele>
        <time>2018-07-03T10:30:45Z</time>
      </trkpt>
      <trkpt lat="45.95595" lon="4.75573">
        <ele>188</ele>
        <time>2018-07-03T10:30:46Z</time>
      </trkpt>
      <trkpt lat="45.95591" lon="4.75567">
        <ele>188</ele>
        <time>2018-07-03T10:30:47Z</time>
      </trkpt>
      <trkpt lat="45.95588" lon="4.75561">
        <ele>188</ele>
        <time>2018-07-03T10:30:48Z</time>
      </trkpt>
      <trkpt lat="45.95584" lon="4.75555">
        <ele>188</ele>
        <time>2018-07-03T10:30:49Z</time>
      </trkpt>
      <trkpt lat="45.95579" lon="4.75549">
        <ele>186</ele>
        <time>2018-07-03T10:30:50Z</time>
      </trkpt>
      <trkpt lat="45.95574" lon="4.75544">
        <ele>186</ele>
        <time>2018-07-03T10:30:51Z</time>
      </trkpt>
      <trkpt lat="45.95569" lon="4.75538">
        <ele>186</ele>
        <time>2018-07-03T10:30:52Z</time>
      </trkpt>
      <trkpt lat="45.95564" lon="4.75532">
        <ele>186</ele>
        <time>2018-07-03T10:30:53Z</time>
      </trkpt>
      <trkpt lat="45.95559" lon="4.75527">
        <ele>186</ele>
        <time>2018-07-03T10:30:54Z</time>
      </trkpt>
      <trkpt lat="45.95555" lon="4.75522">
        <ele>186</ele>
        <time>2018-07-03T10:30:55Z</time>
      </trkpt>
      <trkpt lat="45.9555" lon="4.75517">
        <ele>186</ele>
        <time>2018-07-03T10:30:56Z</time>
      </trkpt>
      <trkpt lat="45.95547" lon="4.7551">
        <ele>186</ele>
        <time>2018-07-03T10:30:57Z</time>
      </trkpt>
      <trkpt lat="45.95543" lon="4.75503">
        <ele>186</ele>
        <time>2018-07-03T10:30:58Z</time>
      </trkpt>
      <trkpt lat="45.9554" lon="4.75495">
        <ele>187</ele>
        <time>2018-07-03T10:30:59Z</time>
      </trkpt>
      <trkpt lat="45.95539" lon="4.75487">
        <ele>187</ele>
        <time>2018-07-03T10:31:00Z</time>
      </trkpt>
      <trkpt lat="45.95536" lon="4.7548">
        <ele>187</ele>
        <time>2018-07-03T10:31:01Z</time>
      </trkpt>
      <trkpt lat="45.95537" lon="4.75473">
        <ele>187</ele>
        <time>2018-07-03T10:31:02Z</time>
      </trkpt>
      <trkpt lat="45.95536" lon="4.75464">
        <ele>187</ele>
        <time>2018-07-03T10:31:03Z</time>
      </trkpt>
      <trkpt lat="45.95534" lon="4.75459">
        <ele>187</ele>
        <time>2018-07-03T10:31:04Z</time>
      </trkpt>
      <trkpt lat="45.95529" lon="4.75452">
        <ele>187</ele>
        <time>2018-07-03T10:31:05Z</time>
      </trkpt>
      <trkpt lat="45.95526" lon="4.75446">
        <ele>187</ele>
        <time>2018-07-03T10:31:06Z</time>
      </trkpt>
      <trkpt lat="45.95523" lon="4.75439">
        <ele>187</ele>
        <time>2018-07-03T10:31:07Z</time>
      </trkpt>
      <trkpt lat="45.95519" lon="4.75431">
        <ele>187</ele>
        <time>2018-07-03T10:31:08Z</time>
      </trkpt>
      <trkpt lat="45.95517" lon="4.75423">
        <ele>186</ele>
        <time>2018-07-03T10:31:09Z</time>
      </trkpt>
      <trkpt lat="45.95513" lon="4.75415">
        <ele>187</ele>
        <time>2018-07-03T10:31:10Z</time>
      </trkpt>
      <trkpt lat="45.95511" lon="4.75407">
        <ele>187</ele>
        <time>2018-07-03T10:31:11Z</time>
      </trkpt>
      <trkpt lat="45.95508" lon="4.75399">
        <ele>187</ele>
        <time>2018-07-03T10:31:12Z</time>
      </trkpt>
      <trkpt lat="45.95506" lon="4.75391">
        <ele>188</ele>
        <time>2018-07-03T10:31:13Z</time>
      </trkpt>
      <trkpt lat="45.95503" lon="4.75384">
        <ele>188</ele>
        <time>2018-07-03T10:31:14Z</time>
      </trkpt>
      <trkpt lat="45.95499" lon="4.75376">
        <ele>185</ele>
        <time>2018-07-03T10:31:15Z</time>
      </trkpt>
      <trkpt lat="45.95495" lon="4.75368">
        <ele>186</ele>
        <time>2018-07-03T10:31:16Z</time>
      </trkpt>
      <trkpt lat="45.95491" lon="4.7536">
        <ele>186</ele>
        <time>2018-07-03T10:31:17Z</time>
      </trkpt>
      <trkpt lat="45.95485" lon="4.75353">
        <ele>186</ele>
        <time>2018-07-03T10:31:18Z</time>
      </trkpt>
      <trkpt lat="45.95482" lon="4.75346">
        <ele>186</ele>
        <time>2018-07-03T10:31:19Z</time>
      </trkpt>
      <trkpt lat="45.95477" lon="4.75336">
        <ele>186</ele>
        <time>2018-07-03T10:31:20Z</time>
      </trkpt>
      <trkpt lat="45.95474" lon="4.7533">
        <ele>188</ele>
        <time>2018-07-03T10:31:21Z</time>
      </trkpt>
      <trkpt lat="45.9547" lon="4.75324">
        <ele>188</ele>
        <time>2018-07-03T10:31:22Z</time>
      </trkpt>
      <trkpt lat="45.95468" lon="4.75315">
        <ele>188</ele>
        <time>2018-07-03T10:31:23Z</time>
      </trkpt>
      <trkpt lat="45.95464" lon="4.75309">
        <ele>188</ele>
        <time>2018-07-03T10:31:24Z</time>
      </trkpt>
      <trkpt lat="45.9546" lon="4.75304">
        <ele>188</ele>
        <time>2018-07-03T10:31:25Z</time>
      </trkpt>
      <trkpt lat="45.95456" lon="4.75298">
        <ele>188</ele>
        <time>2018-07-03T10:31:26Z</time>
      </trkpt>
      <trkpt lat="45.95453" lon="4.75291">
        <ele>188</ele>
        <time>2018-07-03T10:31:27Z</time>
      </trkpt>
      <trkpt lat="45.95449" lon="4.75285">
        <ele>188</ele>
        <time>2018-07-03T10:31:28Z</time>
      </trkpt>
      <trkpt lat="45.95447" lon="4.75279">
        <ele>189</ele>
        <time>2018-07-03T10:31:29Z</time>
      </trkpt>
      <trkpt lat="45.95444" lon="4.75274">
        <ele>189</ele>
        <time>2018-07-03T10:31:30Z</time>
      </trkpt>
      <trkpt lat="45.95441" lon="4.75268">
        <ele>189</ele>
        <time>2018-07-03T10:31:31Z</time>
      </trkpt>
      <trkpt lat="45.95439" lon="4.75263">
        <ele>189</ele>
        <time>2018-07-03T10:31:32Z</time>
      </trkpt>
      <trkpt lat="45.95436" lon="4.75257">
        <ele>189</ele>
        <time>2018-07-03T10:31:33Z</time>
      </trkpt>
      <trkpt lat="45.95432" lon="4.7525">
        <ele>189</ele>
        <time>2018-07-03T10:31:34Z</time>
      </trkpt>
      <trkpt lat="45.95427" lon="4.75243">
        <ele>190</ele>
        <time>2018-07-03T10:31:35Z</time>
      </trkpt>
      <trkpt lat="45.95423" lon="4.75238">
        <ele>190</ele>
        <time>2018-07-03T10:31:36Z</time>
      </trkpt>
      <trkpt lat="45.95419" lon="4.7523">
        <ele>190</ele>
        <time>2018-07-03T10:31:37Z</time>
      </trkpt>
      <trkpt lat="45.95413" lon="4.75222">
        <ele>189</ele>
        <time>2018-07-03T10:31:38Z</time>
      </trkpt>
      <trkpt lat="45.95409" lon="4.75216">
        <ele>189</ele>
        <time>2018-07-03T10:31:39Z</time>
      </trkpt>
      <trkpt lat="45.95405" lon="4.7521">
        <ele>189</ele>
        <time>2018-07-03T10:31:40Z</time>
      </trkpt>
      <trkpt lat="45.954" lon="4.75203">
        <ele>189</ele>
        <time>2018-07-03T10:31:41Z</time>
      </trkpt>
      <trkpt lat="45.95397" lon="4.75196">
        <ele>189</ele>
        <time>2018-07-03T10:31:42Z</time>
      </trkpt>
      <trkpt lat="45.95392" lon="4.75191">
        <ele>189</ele>
        <time>2018-07-03T10:31:43Z</time>
      </trkpt>
      <trkpt lat="45.95388" lon="4.75186">
        <ele>189</ele>
        <time>2018-07-03T10:31:44Z</time>
      </trkpt>
      <trkpt lat="45.95387" lon="4.75179">
        <ele>189</ele>
        <time>2018-07-03T10:31:45Z</time>
      </trkpt>
      <trkpt lat="45.95385" lon="4.75173">
        <ele>189</ele>
        <time>2018-07-03T10:31:46Z</time>
      </trkpt>
      <trkpt lat="45.95382" lon="4.75167">
        <ele>189</ele>
        <time>2018-07-03T10:31:47Z</time>
      </trkpt>
      <trkpt lat="45.95378" lon="4.7516">
        <ele>191</ele>
        <time>2018-07-03T10:31:48Z</time>
      </trkpt>
      <trkpt lat="45.95374" lon="4.75154">
        <ele>191</ele>
        <time>2018-07-03T10:31:49Z</time>
      </trkpt>
      <trkpt lat="45.9537" lon="4.75144">
        <ele>191</ele>
        <time>2018-07-03T10:31:51Z</time>
      </trkpt>
      <trkpt lat="45.95367" lon="4.75137">
        <ele>191</ele>
        <time>2018-07-03T10:31:52Z</time>
      </trkpt>
      <trkpt lat="45.95362" lon="4.75131">
        <ele>191</ele>
        <time>2018-07-03T10:31:53Z</time>
      </trkpt>
      <trkpt lat="45.95358" lon="4.75125">
        <ele>191</ele>
        <time>2018-07-03T10:31:54Z</time>
      </trkpt>
      <trkpt lat="45.95355" lon="4.75121">
        <ele>191</ele>
        <time>2018-07-03T10:31:55Z</time>
      </trkpt>
      <trkpt lat="45.95351" lon="4.75116">
        <ele>192</ele>
        <time>2018-07-03T10:31:56Z</time>
      </trkpt>
      <trkpt lat="45.95349" lon="4.75111">
        <ele>192</ele>
        <time>2018-07-03T10:31:57Z</time>
      </trkpt>
      <trkpt lat="45.95346" lon="4.75105">
        <ele>192</ele>
        <time>2018-07-03T10:31:58Z</time>
      </trkpt>
      <trkpt lat="45.95343" lon="4.75101">
        <ele>192</ele>
        <time>2018-07-03T10:31:59Z</time>
      </trkpt>
      <trkpt lat="45.95339" lon="4.75096">
        <ele>192</ele>
        <time>2018-07-03T10:32:00Z</time>
      </trkpt>
      <trkpt lat="45.95334" lon="4.75086">
        <ele>193</ele>
        <time>2018-07-03T10:32:02Z</time>
      </trkpt>
      <trkpt lat="45.95332" lon="4.75081">
        <ele>193</ele>
        <time>2018-07-03T10:32:03Z</time>
      </trkpt>
      <trkpt lat="45.95329" lon="4.75075">
        <ele>192</ele>
        <time>2018-07-03T10:32:04Z</time>
      </trkpt>
      <trkpt lat="45.95325" lon="4.7507">
        <ele>192</ele>
        <time>2018-07-03T10:32:05Z</time>
      </trkpt>
      <trkpt lat="45.95321" lon="4.75065">
        <ele>192</ele>
        <time>2018-07-03T10:32:06Z</time>
      </trkpt>
      <trkpt lat="45.95318" lon="4.75057">
        <ele>192</ele>
        <time>2018-07-03T10:32:07Z</time>
      </trkpt>
      <trkpt lat="45.95312" lon="4.75048">
        <ele>192</ele>
        <time>2018-07-03T10:32:09Z</time>
      </trkpt>
      <trkpt lat="45.9531" lon="4.75043">
        <ele>192</ele>
        <time>2018-07-03T10:32:10Z</time>
      </trkpt>
      <trkpt lat="45.95307" lon="4.75038">
        <ele>192</ele>
        <time>2018-07-03T10:32:11Z</time>
      </trkpt>
      <trkpt lat="45.95305" lon="4.75031">
        <ele>192</ele>
        <time>2018-07-03T10:32:12Z</time>
      </trkpt>
      <trkpt lat="45.95302" lon="4.75029">
        <ele>192</ele>
        <time>2018-07-03T10:32:13Z</time>
      </trkpt>
      <trkpt lat="45.95297" lon="4.75023">
        <ele>192</ele>
        <time>2018-07-03T10:32:14Z</time>
      </trkpt>
      <trkpt lat="45.9529" lon="4.75016">
        <ele>191</ele>
        <time>2018-07-03T10:32:16Z</time>
      </trkpt>
      <trkpt lat="45.95286" lon="4.7501">
        <ele>191</ele>
        <time>2018-07-03T10:32:17Z</time>
      </trkpt>
      <trkpt lat="45.95283" lon="4.75004">
        <ele>191</ele>
        <time>2018-07-03T10:32:18Z</time>
      </trkpt>
      <trkpt lat="45.9528" lon="4.74998">
        <ele>192</ele>
        <time>2018-07-03T10:32:19Z</time>
      </trkpt>
      <trkpt lat="45.95278" lon="4.74992">
        <ele>192</ele>
        <time>2018-07-03T10:32:20Z</time>
      </trkpt>
      <trkpt lat="45.95272" lon="4.74988">
        <ele>192</ele>
        <time>2018-07-03T10:32:21Z</time>
      </trkpt>
      <trkpt lat="45.9527" lon="4.74982">
        <ele>192</ele>
        <time>2018-07-03T10:32:22Z</time>
      </trkpt>
      <trkpt lat="45.95266" lon="4.74976">
        <ele>192</ele>
        <time>2018-07-03T10:32:23Z</time>
      </trkpt>
      <trkpt lat="45.95262" lon="4.74968">
        <ele>192</ele>
        <time>2018-07-03T10:32:24Z</time>
      </trkpt>
      <trkpt lat="45.95258" lon="4.74962">
        <ele>192</ele>
        <time>2018-07-03T10:32:25Z</time>
      </trkpt>
      <trkpt lat="45.95254" lon="4.74957">
        <ele>192</ele>
        <time>2018-07-03T10:32:26Z</time>
      </trkpt>
      <trkpt lat="45.95251" lon="4.74951">
        <ele>192</ele>
        <time>2018-07-03T10:32:27Z</time>
      </trkpt>
      <trkpt lat="45.95248" lon="4.74946">
        <ele>192</ele>
        <time>2018-07-03T10:32:28Z</time>
      </trkpt>
      <trkpt lat="45.95241" lon="4.74941">
        <ele>192</ele>
        <time>2018-07-03T10:32:29Z</time>
      </trkpt>
      <trkpt lat="45.95238" lon="4.74936">
        <ele>192</ele>
        <time>2018-07-03T10:32:30Z</time>
      </trkpt>
      <trkpt lat="45.95234" lon="4.74929">
        <ele>192</ele>
        <time>2018-07-03T10:32:31Z</time>
      </trkpt>
      <trkpt lat="45.95231" lon="4.74922">
        <ele>192</ele>
        <time>2018-07-03T10:32:32Z</time>
      </trkpt>
      <trkpt lat="45.95227" lon="4.74916">
        <ele>193</ele>
        <time>2018-07-03T10:32:33Z</time>
      </trkpt>
      <trkpt lat="45.95222" lon="4.7491">
        <ele>193</ele>
        <time>2018-07-03T10:32:34Z</time>
      </trkpt>
      <trkpt lat="45.95218" lon="4.74904">
        <ele>193</ele>
        <time>2018-07-03T10:32:35Z</time>
      </trkpt>
      <trkpt lat="45.95214" lon="4.74898">
        <ele>193</ele>
        <time>2018-07-03T10:32:36Z</time>
      </trkpt>
      <trkpt lat="45.9521" lon="4.74892">
        <ele>193</ele>
        <time>2018-07-03T10:32:37Z</time>
      </trkpt>
      <trkpt lat="45.95206" lon="4.74886">
        <ele>194</ele>
        <time>2018-07-03T10:32:38Z</time>
      </trkpt>
      <trkpt lat="45.95201" lon="4.74882">
        <ele>194</ele>
        <time>2018-07-03T10:32:39Z</time>
      </trkpt>
      <trkpt lat="45.95198" lon="4.74876">
        <ele>194</ele>
        <time>2018-07-03T10:32:40Z</time>
      </trkpt>
      <trkpt lat="45.95193" lon="4.74869">
        <ele>194</ele>
        <time>2018-07-03T10:32:41Z</time>
      </trkpt>
      <trkpt lat="45.95191" lon="4.74863">
        <ele>194</ele>
        <time>2018-07-03T10:32:42Z</time>
      </trkpt>
      <trkpt lat="45.95187" lon="4.74856">
        <ele>194</ele>
        <time>2018-07-03T10:32:43Z</time>
      </trkpt>
      <trkpt lat="45.95184" lon="4.74851">
        <ele>194</ele>
        <time>2018-07-03T10:32:44Z</time>
      </trkpt>
      <trkpt lat="45.95181" lon="4.74844">
        <ele>194</ele>
        <time>2018-07-03T10:32:45Z</time>
      </trkpt>
      <trkpt lat="45.95176" lon="4.74838">
        <ele>194</ele>
        <time>2018-07-03T10:32:46Z</time>
      </trkpt>
      <trkpt lat="45.95173" lon="4.74832">
        <ele>194</ele>
        <time>2018-07-03T10:32:47Z</time>
      </trkpt>
      <trkpt lat="45.95169" lon="4.74826">
        <ele>194</ele>
        <time>2018-07-03T10:32:48Z</time>
      </trkpt>
      <trkpt lat="45.95165" lon="4.7482">
        <ele>194</ele>
        <time>2018-07-03T10:32:49Z</time>
      </trkpt>
      <trkpt lat="45.95162" lon="4.74815">
        <ele>194</ele>
        <time>2018-07-03T10:32:50Z</time>
      </trkpt>
      <trkpt lat="45.95158" lon="4.7481">
        <ele>194</ele>
        <time>2018-07-03T10:32:51Z</time>
      </trkpt>
      <trkpt lat="45.95154" lon="4.74803">
        <ele>194</ele>
        <time>2018-07-03T10:32:52Z</time>
      </trkpt>
      <trkpt lat="45.95149" lon="4.74796">
        <ele>194</ele>
        <time>2018-07-03T10:32:53Z</time>
      </trkpt>
      <trkpt lat="45.95145" lon="4.74789">
        <ele>194</ele>
        <time>2018-07-03T10:32:54Z</time>
      </trkpt>
      <trkpt lat="45.9514" lon="4.74782">
        <ele>194</ele>
        <time>2018-07-03T10:32:55Z</time>
      </trkpt>
      <trkpt lat="45.95135" lon="4.74776">
        <ele>194</ele>
        <time>2018-07-03T10:32:56Z</time>
      </trkpt>
      <trkpt lat="45.95131" lon="4.74771">
        <ele>194</ele>
        <time>2018-07-03T10:32:57Z</time>
      </trkpt>
      <trkpt lat="45.95127" lon="4.74764">
        <ele>194</ele>
        <time>2018-07-03T10:32:58Z</time>
      </trkpt>
      <trkpt lat="45.95122" lon="4.74757">
        <ele>194</ele>
        <time>2018-07-03T10:32:59Z</time>
      </trkpt>
      <trkpt lat="45.95118" lon="4.74752">
        <ele>194</ele>
        <time>2018-07-03T10:33:00Z</time>
      </trkpt>
      <trkpt lat="45.95114" lon="4.74746">
        <ele>194</ele>
        <time>2018-07-03T10:33:01Z</time>
      </trkpt>
      <trkpt lat="45.95112" lon="4.7474">
        <ele>194</ele>
        <time>2018-07-03T10:33:02Z</time>
      </trkpt>
      <trkpt lat="45.9511" lon="4.74731">
        <ele>194</ele>
        <time>2018-07-03T10:33:03Z</time>
      </trkpt>
      <trkpt lat="45.95107" lon="4.74726">
        <ele>194</ele>
        <time>2018-07-03T10:33:04Z</time>
      </trkpt>
      <trkpt lat="45.95104" lon="4.74719">
        <ele>194</ele>
        <time>2018-07-03T10:33:05Z</time>
      </trkpt>
      <trkpt lat="45.951" lon="4.74712">
        <ele>194</ele>
        <time>2018-07-03T10:33:06Z</time>
      </trkpt>
      <trkpt lat="45.95096" lon="4.74705">
        <ele>194</ele>
        <time>2018-07-03T10:33:07Z</time>
      </trkpt>
      <trkpt lat="45.95093" lon="4.74699">
        <ele>194</ele>
        <time>2018-07-03T10:33:08Z</time>
      </trkpt>
      <trkpt lat="45.95089" lon="4.74694">
        <ele>194</ele>
        <time>2018-07-03T10:33:09Z</time>
      </trkpt>
      <trkpt lat="45.95087" lon="4.74688">
        <ele>195</ele>
        <time>2018-07-03T10:33:10Z</time>
      </trkpt>
      <trkpt lat="45.95084" lon="4.74682">
        <ele>195</ele>
        <time>2018-07-03T10:33:11Z</time>
      </trkpt>
      <trkpt lat="45.9508" lon="4.74676">
        <ele>195</ele>
        <time>2018-07-03T10:33:12Z</time>
      </trkpt>
      <trkpt lat="45.95077" lon="4.7467">
        <ele>195</ele>
        <time>2018-07-03T10:33:13Z</time>
      </trkpt>
      <trkpt lat="45.95073" lon="4.74665">
        <ele>195</ele>
        <time>2018-07-03T10:33:14Z</time>
      </trkpt>
      <trkpt lat="45.95071" lon="4.74657">
        <ele>195</ele>
        <time>2018-07-03T10:33:15Z</time>
      </trkpt>
      <trkpt lat="45.95069" lon="4.74651">
        <ele>195</ele>
        <time>2018-07-03T10:33:16Z</time>
      </trkpt>
      <trkpt lat="45.95064" lon="4.74644">
        <ele>195</ele>
        <time>2018-07-03T10:33:17Z</time>
      </trkpt>
      <trkpt lat="45.95057" lon="4.74637">
        <ele>194</ele>
        <time>2018-07-03T10:33:18Z</time>
      </trkpt>
      <trkpt lat="45.95053" lon="4.74631">
        <ele>194</ele>
        <time>2018-07-03T10:33:19Z</time>
      </trkpt>
      <trkpt lat="45.95049" lon="4.74624">
        <ele>194</ele>
        <time>2018-07-03T10:33:20Z</time>
      </trkpt>
      <trkpt lat="45.95046" lon="4.74619">
        <ele>194</ele>
        <time>2018-07-03T10:33:21Z</time>
      </trkpt>
      <trkpt lat="45.95042" lon="4.74612">
        <ele>194</ele>
        <time>2018-07-03T10:33:22Z</time>
      </trkpt>
      <trkpt lat="45.95038" lon="4.74606">
        <ele>194</ele>
        <time>2018-07-03T10:33:23Z</time>
      </trkpt>
      <trkpt lat="45.95034" lon="4.74599">
        <ele>194</ele>
        <time>2018-07-03T10:33:24Z</time>
      </trkpt>
      <trkpt lat="45.95031" lon="4.74592">
        <ele>194</ele>
        <time>2018-07-03T10:33:25Z</time>
      </trkpt>
      <trkpt lat="45.95025" lon="4.74584">
        <ele>194</ele>
        <time>2018-07-03T10:33:26Z</time>
      </trkpt>
      <trkpt lat="45.95022" lon="4.74577">
        <ele>194</ele>
        <time>2018-07-03T10:33:27Z</time>
      </trkpt>
      <trkpt lat="45.95019" lon="4.74569">
        <ele>194</ele>
        <time>2018-07-03T10:33:28Z</time>
      </trkpt>
      <trkpt lat="45.95015" lon="4.74561">
        <ele>194</ele>
        <time>2018-07-03T10:33:29Z</time>
      </trkpt>
      <trkpt lat="45.95012" lon="4.74555">
        <ele>194</ele>
        <time>2018-07-03T10:33:30Z</time>
      </trkpt>
      <trkpt lat="45.95009" lon="4.74548">
        <ele>194</ele>
        <time>2018-07-03T10:33:31Z</time>
      </trkpt>
      <trkpt lat="45.95005" lon="4.74542">
        <ele>194</ele>
        <time>2018-07-03T10:33:32Z</time>
      </trkpt>
      <trkpt lat="45.95" lon="4.74534">
        <ele>193</ele>
        <time>2018-07-03T10:33:33Z</time>
      </trkpt>
      <trkpt lat="45.94996" lon="4.74526">
        <ele>193</ele>
        <time>2018-07-03T10:33:34Z</time>
      </trkpt>
      <trkpt lat="45.94992" lon="4.74518">
        <ele>193</ele>
        <time>2018-07-03T10:33:35Z</time>
      </trkpt>
      <trkpt lat="45.94987" lon="4.74509">
        <ele>193</ele>
        <time>2018-07-03T10:33:36Z</time>
      </trkpt>
      <trkpt lat="45.94983" lon="4.74501">
        <ele>193</ele>
        <time>2018-07-03T10:33:37Z</time>
      </trkpt>
      <trkpt lat="45.94978" lon="4.74492">
        <ele>193</ele>
        <time>2018-07-03T10:33:38Z</time>
      </trkpt>
      <trkpt lat="45.94973" lon="4.74483">
        <ele>193</ele>
        <time>2018-07-03T10:33:39Z</time>
      </trkpt>
      <trkpt lat="45.94968" lon="4.74475">
        <ele>193</ele>
        <time>2018-07-03T10:33:40Z</time>
      </trkpt>
      <trkpt lat="45.94965" lon="4.74466">
        <ele>193</ele>
        <time>2018-07-03T10:33:41Z</time>
      </trkpt>
      <trkpt lat="45.94961" lon="4.74458">
        <ele>192</ele>
        <time>2018-07-03T10:33:42Z</time>
      </trkpt>
      <trkpt lat="45.94957" lon="4.7445">
        <ele>192</ele>
        <time>2018-07-03T10:33:43Z</time>
      </trkpt>
      <trkpt lat="45.94953" lon="4.7444">
        <ele>192</ele>
        <time>2018-07-03T10:33:44Z</time>
      </trkpt>
      <trkpt lat="45.94949" lon="4.74431">
        <ele>192</ele>
        <time>2018-07-03T10:33:45Z</time>
      </trkpt>
      <trkpt lat="45.94943" lon="4.74422">
        <ele>192</ele>
        <time>2018-07-03T10:33:46Z</time>
      </trkpt>
      <trkpt lat="45.94938" lon="4.74412">
        <ele>192</ele>
        <time>2018-07-03T10:33:47Z</time>
      </trkpt>
      <trkpt lat="45.94933" lon="4.74403">
        <ele>192</ele>
        <time>2018-07-03T10:33:48Z</time>
      </trkpt>
      <trkpt lat="45.94929" lon="4.74394">
        <ele>192</ele>
        <time>2018-07-03T10:33:49Z</time>
      </trkpt>
      <trkpt lat="45.94926" lon="4.74387">
        <ele>192</ele>
        <time>2018-07-03T10:33:50Z</time>
      </trkpt>
      <trkpt lat="45.94922" lon="4.74377">
        <ele>192</ele>
        <time>2018-07-03T10:33:51Z</time>
      </trkpt>
      <trkpt lat="45.94917" lon="4.74369">
        <ele>192</ele>
        <time>2018-07-03T10:33:52Z</time>
      </trkpt>
      <trkpt lat="45.94912" lon="4.7436">
        <ele>191</ele>
        <time>2018-07-03T10:33:53Z</time>
      </trkpt>
      <trkpt lat="45.94909" lon="4.74351">
        <ele>191</ele>
        <time>2018-07-03T10:33:54Z</time>
      </trkpt>
      <trkpt lat="45.94905" lon="4.74342">
        <ele>191</ele>
        <time>2018-07-03T10:33:55Z</time>
      </trkpt>
      <trkpt lat="45.949" lon="4.74332">
        <ele>191</ele>
        <time>2018-07-03T10:33:56Z</time>
      </trkpt>
      <trkpt lat="45.94895" lon="4.74324">
        <ele>191</ele>
        <time>2018-07-03T10:33:57Z</time>
      </trkpt>
      <trkpt lat="45.94891" lon="4.74316">
        <ele>191</ele>
        <time>2018-07-03T10:33:58Z</time>
      </trkpt>
      <trkpt lat="45.94886" lon="4.74308">
        <ele>191</ele>
        <time>2018-07-03T10:33:59Z</time>
      </trkpt>
      <trkpt lat="45.94882" lon="4.74301">
        <ele>191</ele>
        <time>2018-07-03T10:34:00Z</time>
      </trkpt>
      <trkpt lat="45.94879" lon="4.74292">
        <ele>191</ele>
        <time>2018-07-03T10:34:01Z</time>
      </trkpt>
      <trkpt lat="45.94874" lon="4.74284">
        <ele>191</ele>
        <time>2018-07-03T10:34:02Z</time>
      </trkpt>
      <trkpt lat="45.94869" lon="4.74276">
        <ele>191</ele>
        <time>2018-07-03T10:34:03Z</time>
      </trkpt>
      <trkpt lat="45.94866" lon="4.74268">
        <ele>190</ele>
        <time>2018-07-03T10:34:04Z</time>
      </trkpt>
      <trkpt lat="45.94863" lon="4.7426">
        <ele>190</ele>
        <time>2018-07-03T10:34:05Z</time>
      </trkpt>
      <trkpt lat="45.94858" lon="4.74251">
        <ele>190</ele>
        <time>2018-07-03T10:34:06Z</time>
      </trkpt>
      <trkpt lat="45.94855" lon="4.74243">
        <ele>190</ele>
        <time>2018-07-03T10:34:07Z</time>
      </trkpt>
      <trkpt lat="45.9485" lon="4.74236">
        <ele>190</ele>
        <time>2018-07-03T10:34:08Z</time>
      </trkpt>
      <trkpt lat="45.94846" lon="4.74228">
        <ele>190</ele>
        <time>2018-07-03T10:34:09Z</time>
      </trkpt>
      <trkpt lat="45.94842" lon="4.7422">
        <ele>190</ele>
        <time>2018-07-03T10:34:10Z</time>
      </trkpt>
      <trkpt lat="45.94837" lon="4.74213">
        <ele>190</ele>
        <time>2018-07-03T10:34:11Z</time>
      </trkpt>
      <trkpt lat="45.94832" lon="4.74206">
        <ele>189</ele>
        <time>2018-07-03T10:34:12Z</time>
      </trkpt>
      <trkpt lat="45.94829" lon="4.742">
        <ele>189</ele>
        <time>2018-07-03T10:34:13Z</time>
      </trkpt>
      <trkpt lat="45.94824" lon="4.74192">
        <ele>189</ele>
        <time>2018-07-03T10:34:14Z</time>
      </trkpt>
      <trkpt lat="45.94819" lon="4.74185">
        <ele>189</ele>
        <time>2018-07-03T10:34:15Z</time>
      </trkpt>
      <trkpt lat="45.9482" lon="4.74179">
        <ele>189</ele>
        <time>2018-07-03T10:34:16Z</time>
      </trkpt>
      <trkpt lat="45.94816" lon="4.74171">
        <ele>189</ele>
        <time>2018-07-03T10:34:17Z</time>
      </trkpt>
      <trkpt lat="45.94812" lon="4.74163">
        <ele>189</ele>
        <time>2018-07-03T10:34:18Z</time>
      </trkpt>
      <trkpt lat="45.94808" lon="4.74157">
        <ele>189</ele>
        <time>2018-07-03T10:34:19Z</time>
      </trkpt>
      <trkpt lat="45.94806" lon="4.74152">
        <ele>189</ele>
        <time>2018-07-03T10:34:20Z</time>
      </trkpt>
      <trkpt lat="45.948" lon="4.74145">
        <ele>189</ele>
        <time>2018-07-03T10:34:21Z</time>
      </trkpt>
      <trkpt lat="45.94796" lon="4.74138">
        <ele>189</ele>
        <time>2018-07-03T10:34:22Z</time>
      </trkpt>
      <trkpt lat="45.94791" lon="4.74133">
        <ele>189</ele>
        <time>2018-07-03T10:34:23Z</time>
      </trkpt>
      <trkpt lat="45.94786" lon="4.74127">
        <ele>189</ele>
        <time>2018-07-03T10:34:24Z</time>
      </trkpt>
      <trkpt lat="45.94782" lon="4.7412">
        <ele>189</ele>
        <time>2018-07-03T10:34:25Z</time>
      </trkpt>
      <trkpt lat="45.94777" lon="4.74114">
        <ele>189</ele>
        <time>2018-07-03T10:34:26Z</time>
      </trkpt>
      <trkpt lat="45.94772" lon="4.74107">
        <ele>189</ele>
        <time>2018-07-03T10:34:27Z</time>
      </trkpt>
      <trkpt lat="45.94767" lon="4.741">
        <ele>189</ele>
        <time>2018-07-03T10:34:28Z</time>
      </trkpt>
      <trkpt lat="45.94762" lon="4.74094">
        <ele>189</ele>
        <time>2018-07-03T10:34:29Z</time>
      </trkpt>
      <trkpt lat="45.94758" lon="4.74088">
        <ele>189</ele>
        <time>2018-07-03T10:34:30Z</time>
      </trkpt>
      <trkpt lat="45.94752" lon="4.74082">
        <ele>189</ele>
        <time>2018-07-03T10:34:31Z</time>
      </trkpt>
      <trkpt lat="45.94748" lon="4.74076">
        <ele>189</ele>
        <time>2018-07-03T10:34:32Z</time>
      </trkpt>
      <trkpt lat="45.94742" lon="4.74069">
        <ele>188</ele>
        <time>2018-07-03T10:34:33Z</time>
      </trkpt>
      <trkpt lat="45.94735" lon="4.74062">
        <ele>188</ele>
        <time>2018-07-03T10:34:34Z</time>
      </trkpt>
      <trkpt lat="45.9473" lon="4.74056">
        <ele>188</ele>
        <time>2018-07-03T10:34:35Z</time>
      </trkpt>
      <trkpt lat="45.94727" lon="4.7405">
        <ele>188</ele>
        <time>2018-07-03T10:34:36Z</time>
      </trkpt>
      <trkpt lat="45.94723" lon="4.74044">
        <ele>187</ele>
        <time>2018-07-03T10:34:37Z</time>
      </trkpt>
      <trkpt lat="45.94718" lon="4.74039">
        <ele>187</ele>
        <time>2018-07-03T10:34:38Z</time>
      </trkpt>
      <trkpt lat="45.94716" lon="4.74033">
        <ele>187</ele>
        <time>2018-07-03T10:34:39Z</time>
      </trkpt>
      <trkpt lat="45.94712" lon="4.74027">
        <ele>187</ele>
        <time>2018-07-03T10:34:40Z</time>
      </trkpt>
      <trkpt lat="45.94707" lon="4.74022">
        <ele>187</ele>
        <time>2018-07-03T10:34:41Z</time>
      </trkpt>
      <trkpt lat="45.94702" lon="4.74017">
        <ele>187</ele>
        <time>2018-07-03T10:34:42Z</time>
      </trkpt>
      <trkpt lat="45.94699" lon="4.74011">
        <ele>187</ele>
        <time>2018-07-03T10:34:43Z</time>
      </trkpt>
      <trkpt lat="45.94695" lon="4.74006">
        <ele>187</ele>
        <time>2018-07-03T10:34:44Z</time>
      </trkpt>
      <trkpt lat="45.9469" lon="4.74001">
        <ele>187</ele>
        <time>2018-07-03T10:34:45Z</time>
      </trkpt>
      <trkpt lat="45.94685" lon="4.73993">
        <ele>187</ele>
        <time>2018-07-03T10:34:46Z</time>
      </trkpt>
      <trkpt lat="45.9468" lon="4.73986">
        <ele>187</ele>
        <time>2018-07-03T10:34:47Z</time>
      </trkpt>
      <trkpt lat="45.94675" lon="4.7398">
        <ele>187</ele>
        <time>2018-07-03T10:34:48Z</time>
      </trkpt>
      <trkpt lat="45.9467" lon="4.73974">
        <ele>187</ele>
        <time>2018-07-03T10:34:49Z</time>
      </trkpt>
      <trkpt lat="45.94666" lon="4.73968">
        <ele>187</ele>
        <time>2018-07-03T10:34:50Z</time>
      </trkpt>
      <trkpt lat="45.94661" lon="4.73961">
        <ele>187</ele>
        <time>2018-07-03T10:34:51Z</time>
      </trkpt>
      <trkpt lat="45.94657" lon="4.73955">
        <ele>187</ele>
        <time>2018-07-03T10:34:52Z</time>
      </trkpt>
      <trkpt lat="45.94652" lon="4.73949">
        <ele>187</ele>
        <time>2018-07-03T10:34:53Z</time>
      </trkpt>
      <trkpt lat="45.94647" lon="4.7394">
        <ele>187</ele>
        <time>2018-07-03T10:34:54Z</time>
      </trkpt>
      <trkpt lat="45.94642" lon="4.73935">
        <ele>187</ele>
        <time>2018-07-03T10:34:55Z</time>
      </trkpt>
      <trkpt lat="45.94638" lon="4.7393">
        <ele>187</ele>
        <time>2018-07-03T10:34:56Z</time>
      </trkpt>
      <trkpt lat="45.94633" lon="4.73924">
        <ele>187</ele>
        <time>2018-07-03T10:34:57Z</time>
      </trkpt>
      <trkpt lat="45.94628" lon="4.73918">
        <ele>187</ele>
        <time>2018-07-03T10:34:58Z</time>
      </trkpt>
      <trkpt lat="45.94623" lon="4.73912">
        <ele>187</ele>
        <time>2018-07-03T10:34:59Z</time>
      </trkpt>
      <trkpt lat="45.9462" lon="4.73905">
        <ele>187</ele>
        <time>2018-07-03T10:35:00Z</time>
      </trkpt>
      <trkpt lat="45.94615" lon="4.739">
        <ele>187</ele>
        <time>2018-07-03T10:35:01Z</time>
      </trkpt>
      <trkpt lat="45.94609" lon="4.73895">
        <ele>187</ele>
        <time>2018-07-03T10:35:02Z</time>
      </trkpt>
      <trkpt lat="45.94605" lon="4.73889">
        <ele>187</ele>
        <time>2018-07-03T10:35:03Z</time>
      </trkpt>
      <trkpt lat="45.946" lon="4.73883">
        <ele>187</ele>
        <time>2018-07-03T10:35:04Z</time>
      </trkpt>
      <trkpt lat="45.94596" lon="4.73878">
        <ele>187</ele>
        <time>2018-07-03T10:35:05Z</time>
      </trkpt>
      <trkpt lat="45.94591" lon="4.73873">
        <ele>187</ele>
        <time>2018-07-03T10:35:06Z</time>
      </trkpt>
      <trkpt lat="45.94586" lon="4.73867">
        <ele>187</ele>
        <time>2018-07-03T10:35:07Z</time>
      </trkpt>
      <trkpt lat="45.94582" lon="4.73861">
        <ele>186</ele>
        <time>2018-07-03T10:35:08Z</time>
      </trkpt>
      <trkpt lat="45.94577" lon="4.73855">
        <ele>186</ele>
        <time>2018-07-03T10:35:09Z</time>
      </trkpt>
      <trkpt lat="45.94573" lon="4.7385">
        <ele>186</ele>
        <time>2018-07-03T10:35:10Z</time>
      </trkpt>
      <trkpt lat="45.94569" lon="4.73846">
        <ele>186</ele>
        <time>2018-07-03T10:35:11Z</time>
      </trkpt>
      <trkpt lat="45.94562" lon="4.73837">
        <ele>186</ele>
        <time>2018-07-03T10:35:13Z</time>
      </trkpt>
      <trkpt lat="45.94557" lon="4.73832">
        <ele>186</ele>
        <time>2018-07-03T10:35:14Z</time>
      </trkpt>
      <trkpt lat="45.94552" lon="4.73826">
        <ele>186</ele>
        <time>2018-07-03T10:35:15Z</time>
      </trkpt>
      <trkpt lat="45.94545" lon="4.7382">
        <ele>186</ele>
        <time>2018-07-03T10:35:16Z</time>
      </trkpt>
      <trkpt lat="45.94541" lon="4.73815">
        <ele>186</ele>
        <time>2018-07-03T10:35:17Z</time>
      </trkpt>
      <trkpt lat="45.94535" lon="4.7381">
        <ele>186</ele>
        <time>2018-07-03T10:35:18Z</time>
      </trkpt>
      <trkpt lat="45.9453" lon="4.73805">
        <ele>186</ele>
        <time>2018-07-03T10:35:19Z</time>
      </trkpt>
      <trkpt lat="45.94525" lon="4.738">
        <ele>186</ele>
        <time>2018-07-03T10:35:20Z</time>
      </trkpt>
      <trkpt lat="45.9452" lon="4.73796">
        <ele>186</ele>
        <time>2018-07-03T10:35:21Z</time>
      </trkpt>
      <trkpt lat="45.94515" lon="4.7379">
        <ele>186</ele>
        <time>2018-07-03T10:35:22Z</time>
      </trkpt>
      <trkpt lat="45.9451" lon="4.73786">
        <ele>186</ele>
        <time>2018-07-03T10:35:23Z</time>
      </trkpt>
      <trkpt lat="45.94507" lon="4.73781">
        <ele>186</ele>
        <time>2018-07-03T10:35:24Z</time>
      </trkpt>
      <trkpt lat="45.94502" lon="4.73776">
        <ele>186</ele>
        <time>2018-07-03T10:35:25Z</time>
      </trkpt>
      <trkpt lat="45.94498" lon="4.73771">
        <ele>186</ele>
        <time>2018-07-03T10:35:26Z</time>
      </trkpt>
      <trkpt lat="45.94494" lon="4.73766">
        <ele>186</ele>
        <time>2018-07-03T10:35:27Z</time>
      </trkpt>
      <trkpt lat="45.94491" lon="4.73759">
        <ele>186</ele>
        <time>2018-07-03T10:35:28Z</time>
      </trkpt>
      <trkpt lat="45.94487" lon="4.73752">
        <ele>186</ele>
        <time>2018-07-03T10:35:29Z</time>
      </trkpt>
      <trkpt lat="45.94488" lon="4.73744">
        <ele>186</ele>
        <time>2018-07-03T10:35:30Z</time>
      </trkpt>
      <trkpt lat="45.94487" lon="4.73738">
        <ele>186</ele>
        <time>2018-07-03T10:35:31Z</time>
      </trkpt>
      <trkpt lat="45.94489" lon="4.7373">
        <ele>186</ele>
        <time>2018-07-03T10:35:32Z</time>
      </trkpt>
      <trkpt lat="45.94491" lon="4.73721">
        <ele>186</ele>
        <time>2018-07-03T10:35:33Z</time>
      </trkpt>
      <trkpt lat="45.94493" lon="4.73712">
        <ele>186</ele>
        <time>2018-07-03T10:35:34Z</time>
      </trkpt>
      <trkpt lat="45.94495" lon="4.73705">
        <ele>186</ele>
        <time>2018-07-03T10:35:35Z</time>
      </trkpt>
      <trkpt lat="45.94496" lon="4.73696">
        <ele>186</ele>
        <time>2018-07-03T10:35:36Z</time>
      </trkpt>
      <trkpt lat="45.94496" lon="4.73686">
        <ele>186</ele>
        <time>2018-07-03T10:35:37Z</time>
      </trkpt>
      <trkpt lat="45.94498" lon="4.73676">
        <ele>185</ele>
        <time>2018-07-03T10:35:38Z</time>
      </trkpt>
      <trkpt lat="45.94499" lon="4.73666">
        <ele>185</ele>
        <time>2018-07-03T10:35:39Z</time>
      </trkpt>
      <trkpt lat="45.94499" lon="4.73656">
        <ele>185</ele>
        <time>2018-07-03T10:35:40Z</time>
      </trkpt>
      <trkpt lat="45.94499" lon="4.73646">
        <ele>185</ele>
        <time>2018-07-03T10:35:41Z</time>
      </trkpt>
      <trkpt lat="45.945" lon="4.73637">
        <ele>184</ele>
        <time>2018-07-03T10:35:42Z</time>
      </trkpt>
      <trkpt lat="45.94502" lon="4.73628">
        <ele>184</ele>
        <time>2018-07-03T10:35:43Z</time>
      </trkpt>
      <trkpt lat="45.94504" lon="4.7362">
        <ele>184</ele>
        <time>2018-07-03T10:35:44Z</time>
      </trkpt>
      <trkpt lat="45.94504" lon="4.73611">
        <ele>184</ele>
        <time>2018-07-03T10:35:45Z</time>
      </trkpt>
      <trkpt lat="45.94505" lon="4.73602">
        <ele>184</ele>
        <time>2018-07-03T10:35:46Z</time>
      </trkpt>
      <trkpt lat="45.94504" lon="4.73592">
        <ele>184</ele>
        <time>2018-07-03T10:35:47Z</time>
      </trkpt>
      <trkpt lat="45.94506" lon="4.73583">
        <ele>185</ele>
        <time>2018-07-03T10:35:48Z</time>
      </trkpt>
      <trkpt lat="45.94506" lon="4.73575">
        <ele>184</ele>
        <time>2018-07-03T10:35:49Z</time>
      </trkpt>
      <trkpt lat="45.94506" lon="4.73565">
        <ele>184</ele>
        <time>2018-07-03T10:35:50Z</time>
      </trkpt>
      <trkpt lat="45.94507" lon="4.73556">
        <ele>183</ele>
        <time>2018-07-03T10:35:51Z</time>
      </trkpt>
      <trkpt lat="45.94507" lon="4.73547">
        <ele>183</ele>
        <time>2018-07-03T10:35:52Z</time>
      </trkpt>
      <trkpt lat="45.94508" lon="4.73537">
        <ele>183</ele>
        <time>2018-07-03T10:35:53Z</time>
      </trkpt>
      <trkpt lat="45.94508" lon="4.73528">
        <ele>183</ele>
        <time>2018-07-03T10:35:54Z</time>
      </trkpt>
      <trkpt lat="45.94507" lon="4.73517">
        <ele>183</ele>
        <time>2018-07-03T10:35:55Z</time>
      </trkpt>
      <trkpt lat="45.94502" lon="4.73505">
        <ele>183</ele>
        <time>2018-07-03T10:35:56Z</time>
      </trkpt>
      <trkpt lat="45.94504" lon="4.73495">
        <ele>183</ele>
        <time>2018-07-03T10:35:57Z</time>
      </trkpt>
      <trkpt lat="45.94504" lon="4.73488">
        <ele>182</ele>
        <time>2018-07-03T10:35:58Z</time>
      </trkpt>
      <trkpt lat="45.94506" lon="4.73478">
        <ele>182</ele>
        <time>2018-07-03T10:35:59Z</time>
      </trkpt>
      <trkpt lat="45.94502" lon="4.73465">
        <ele>181</ele>
        <time>2018-07-03T10:36:00Z</time>
      </trkpt>
      <trkpt lat="45.94501" lon="4.73451">
        <ele>181</ele>
        <time>2018-07-03T10:36:01Z</time>
      </trkpt>
      <trkpt lat="45.945" lon="4.73439">
        <ele>181</ele>
        <time>2018-07-03T10:36:02Z</time>
      </trkpt>
      <trkpt lat="45.945" lon="4.73428">
        <ele>181</ele>
        <time>2018-07-03T10:36:03Z</time>
      </trkpt>
      <trkpt lat="45.945" lon="4.73417">
        <ele>180</ele>
        <time>2018-07-03T10:36:04Z</time>
      </trkpt>
      <trkpt lat="45.94499" lon="4.73406">
        <ele>180</ele>
        <time>2018-07-03T10:36:05Z</time>
      </trkpt>
      <trkpt lat="45.94499" lon="4.73395">
        <ele>179</ele>
        <time>2018-07-03T10:36:06Z</time>
      </trkpt>
      <trkpt lat="45.94497" lon="4.73382">
        <ele>179</ele>
        <time>2018-07-03T10:36:07Z</time>
      </trkpt>
      <trkpt lat="45.94495" lon="4.73369">
        <ele>179</ele>
        <time>2018-07-03T10:36:08Z</time>
      </trkpt>
      <trkpt lat="45.94494" lon="4.73357">
        <ele>178</ele>
        <time>2018-07-03T10:36:09Z</time>
      </trkpt>
      <trkpt lat="45.94492" lon="4.73345">
        <ele>178</ele>
        <time>2018-07-03T10:36:10Z</time>
      </trkpt>
      <trkpt lat="45.94491" lon="4.73333">
        <ele>177</ele>
        <time>2018-07-03T10:36:11Z</time>
      </trkpt>
      <trkpt lat="45.94489" lon="4.73321">
        <ele>177</ele>
        <time>2018-07-03T10:36:12Z</time>
      </trkpt>
      <trkpt lat="45.94489" lon="4.73309">
        <ele>177</ele>
        <time>2018-07-03T10:36:13Z</time>
      </trkpt>
      <trkpt lat="45.94488" lon="4.73299">
        <ele>177</ele>
        <time>2018-07-03T10:36:14Z</time>
      </trkpt>
      <trkpt lat="45.94488" lon="4.73287">
        <ele>177</ele>
        <time>2018-07-03T10:36:15Z</time>
      </trkpt>
      <trkpt lat="45.94486" lon="4.73274">
        <ele>177</ele>
        <time>2018-07-03T10:36:16Z</time>
      </trkpt>
      <trkpt lat="45.94485" lon="4.73261">
        <ele>176</ele>
        <time>2018-07-03T10:36:17Z</time>
      </trkpt>
      <trkpt lat="45.94482" lon="4.73248">
        <ele>175</ele>
        <time>2018-07-03T10:36:18Z</time>
      </trkpt>
      <trkpt lat="45.9448" lon="4.73235">
        <ele>175</ele>
        <time>2018-07-03T10:36:19Z</time>
      </trkpt>
      <trkpt lat="45.94478" lon="4.73222">
        <ele>175</ele>
        <time>2018-07-03T10:36:20Z</time>
      </trkpt>
      <trkpt lat="45.94477" lon="4.73209">
        <ele>175</ele>
        <time>2018-07-03T10:36:21Z</time>
      </trkpt>
      <trkpt lat="45.94476" lon="4.73197">
        <ele>174</ele>
        <time>2018-07-03T10:36:22Z</time>
      </trkpt>
      <trkpt lat="45.94474" lon="4.73184">
        <ele>174</ele>
        <time>2018-07-03T10:36:23Z</time>
      </trkpt>
      <trkpt lat="45.94473" lon="4.73172">
        <ele>174</ele>
        <time>2018-07-03T10:36:24Z</time>
      </trkpt>
      <trkpt lat="45.94471" lon="4.7316">
        <ele>172</ele>
        <time>2018-07-03T10:36:25Z</time>
      </trkpt>
      <trkpt lat="45.94469" lon="4.73146">
        <ele>172</ele>
        <time>2018-07-03T10:36:26Z</time>
      </trkpt>
      <trkpt lat="45.94469" lon="4.73135">
        <ele>172</ele>
        <time>2018-07-03T10:36:27Z</time>
      </trkpt>
      <trkpt lat="45.94467" lon="4.73123">
        <ele>172</ele>
        <time>2018-07-03T10:36:28Z</time>
      </trkpt>
      <trkpt lat="45.94465" lon="4.73112">
        <ele>172</ele>
        <time>2018-07-03T10:36:29Z</time>
      </trkpt>
      <trkpt lat="45.94464" lon="4.73101">
        <ele>172</ele>
        <time>2018-07-03T10:36:30Z</time>
      </trkpt>
      <trkpt lat="45.94461" lon="4.7309">
        <ele>171</ele>
        <time>2018-07-03T10:36:31Z</time>
      </trkpt>
      <trkpt lat="45.94461" lon="4.7308">
        <ele>170</ele>
        <time>2018-07-03T10:36:32Z</time>
      </trkpt>
      <trkpt lat="45.94459" lon="4.7307">
        <ele>170</ele>
        <time>2018-07-03T10:36:33Z</time>
      </trkpt>
      <trkpt lat="45.94457" lon="4.73061">
        <ele>170</ele>
        <time>2018-07-03T10:36:34Z</time>
      </trkpt>
      <trkpt lat="45.94455" lon="4.73052">
        <ele>170</ele>
        <time>2018-07-03T10:36:35Z</time>
      </trkpt>
      <trkpt lat="45.94454" lon="4.73044">
        <ele>169</ele>
        <time>2018-07-03T10:36:36Z</time>
      </trkpt>
      <trkpt lat="45.94451" lon="4.73033">
        <ele>169</ele>
        <time>2018-07-03T10:36:37Z</time>
      </trkpt>
      <trkpt lat="45.9445" lon="4.73025">
        <ele>169</ele>
        <time>2018-07-03T10:36:38Z</time>
      </trkpt>
      <trkpt lat="45.94449" lon="4.73016">
        <ele>169</ele>
        <time>2018-07-03T10:36:39Z</time>
      </trkpt>
      <trkpt lat="45.94448" lon="4.73007">
        <ele>169</ele>
        <time>2018-07-03T10:36:40Z</time>
      </trkpt>
      <trkpt lat="45.94448" lon="4.73">
        <ele>167</ele>
        <time>2018-07-03T10:36:41Z</time>
      </trkpt>
      <trkpt lat="45.94447" lon="4.72992">
        <ele>167</ele>
        <time>2018-07-03T10:36:42Z</time>
      </trkpt>
      <trkpt lat="45.94447" lon="4.72985">
        <ele>167</ele>
        <time>2018-07-03T10:36:43Z</time>
      </trkpt>
      <trkpt lat="45.94447" lon="4.72977">
        <ele>167</ele>
        <time>2018-07-03T10:36:44Z</time>
      </trkpt>
      <trkpt lat="45.94446" lon="4.72969">
        <ele>167</ele>
        <time>2018-07-03T10:36:45Z</time>
      </trkpt>
      <trkpt lat="45.94444" lon="4.72962">
        <ele>167</ele>
        <time>2018-07-03T10:36:46Z</time>
      </trkpt>
      <trkpt lat="45.94444" lon="4.72955">
        <ele>167</ele>
        <time>2018-07-03T10:36:47Z</time>
      </trkpt>
      <trkpt lat="45.94443" lon="4.72947">
        <ele>167</ele>
        <time>2018-07-03T10:36:48Z</time>
      </trkpt>
      <trkpt lat="45.94442" lon="4.7294">
        <ele>167</ele>
        <time>2018-07-03T10:36:49Z</time>
      </trkpt>
      <trkpt lat="45.94442" lon="4.72933">
        <ele>167</ele>
        <time>2018-07-03T10:36:50Z</time>
      </trkpt>
      <trkpt lat="45.9444" lon="4.72926">
        <ele>167</ele>
        <time>2018-07-03T10:36:51Z</time>
      </trkpt>
      <trkpt lat="45.94439" lon="4.72919">
        <ele>167</ele>
        <time>2018-07-03T10:36:52Z</time>
      </trkpt>
      <trkpt lat="45.94439" lon="4.72911">
        <ele>166</ele>
        <time>2018-07-03T10:36:53Z</time>
      </trkpt>
      <trkpt lat="45.94438" lon="4.72904">
        <ele>166</ele>
        <time>2018-07-03T10:36:54Z</time>
      </trkpt>
      <trkpt lat="45.94436" lon="4.72895">
        <ele>166</ele>
        <time>2018-07-03T10:36:55Z</time>
      </trkpt>
      <trkpt lat="45.94435" lon="4.72886">
        <ele>166</ele>
        <time>2018-07-03T10:36:56Z</time>
      </trkpt>
      <trkpt lat="45.94434" lon="4.72878">
        <ele>166</ele>
        <time>2018-07-03T10:36:57Z</time>
      </trkpt>
      <trkpt lat="45.94433" lon="4.72869">
        <ele>166</ele>
        <time>2018-07-03T10:36:58Z</time>
      </trkpt>
      <trkpt lat="45.94432" lon="4.7286">
        <ele>166</ele>
        <time>2018-07-03T10:36:59Z</time>
      </trkpt>
      <trkpt lat="45.94431" lon="4.72851">
        <ele>166</ele>
        <time>2018-07-03T10:37:00Z</time>
      </trkpt>
      <trkpt lat="45.94429" lon="4.72842">
        <ele>166</ele>
        <time>2018-07-03T10:37:01Z</time>
      </trkpt>
      <trkpt lat="45.94428" lon="4.72833">
        <ele>166</ele>
        <time>2018-07-03T10:37:02Z</time>
      </trkpt>
      <trkpt lat="45.94426" lon="4.72823">
        <ele>167</ele>
        <time>2018-07-03T10:37:03Z</time>
      </trkpt>
      <trkpt lat="45.94425" lon="4.72813">
        <ele>167</ele>
        <time>2018-07-03T10:37:04Z</time>
      </trkpt>
      <trkpt lat="45.94423" lon="4.72802">
        <ele>167</ele>
        <time>2018-07-03T10:37:05Z</time>
      </trkpt>
      <trkpt lat="45.94423" lon="4.72792">
        <ele>168</ele>
        <time>2018-07-03T10:37:06Z</time>
      </trkpt>
      <trkpt lat="45.94421" lon="4.72781">
        <ele>168</ele>
        <time>2018-07-03T10:37:07Z</time>
      </trkpt>
      <trkpt lat="45.9442" lon="4.7277">
        <ele>169</ele>
        <time>2018-07-03T10:37:08Z</time>
      </trkpt>
      <trkpt lat="45.94419" lon="4.72759">
        <ele>170</ele>
        <time>2018-07-03T10:37:09Z</time>
      </trkpt>
      <trkpt lat="45.94418" lon="4.72748">
        <ele>171</ele>
        <time>2018-07-03T10:37:10Z</time>
      </trkpt>
      <trkpt lat="45.94416" lon="4.72738">
        <ele>171</ele>
        <time>2018-07-03T10:37:11Z</time>
      </trkpt>
      <trkpt lat="45.94416" lon="4.72727">
        <ele>172</ele>
        <time>2018-07-03T10:37:12Z</time>
      </trkpt>
      <trkpt lat="45.94414" lon="4.72717">
        <ele>172</ele>
        <time>2018-07-03T10:37:13Z</time>
      </trkpt>
      <trkpt lat="45.94413" lon="4.72706">
        <ele>172</ele>
        <time>2018-07-03T10:37:14Z</time>
      </trkpt>
      <trkpt lat="45.94412" lon="4.72695">
        <ele>173</ele>
        <time>2018-07-03T10:37:15Z</time>
      </trkpt>
      <trkpt lat="45.94411" lon="4.72684">
        <ele>173</ele>
        <time>2018-07-03T10:37:16Z</time>
      </trkpt>
      <trkpt lat="45.94409" lon="4.72673">
        <ele>173</ele>
        <time>2018-07-03T10:37:17Z</time>
      </trkpt>
      <trkpt lat="45.94407" lon="4.72663">
        <ele>174</ele>
        <time>2018-07-03T10:37:18Z</time>
      </trkpt>
      <trkpt lat="45.94405" lon="4.72652">
        <ele>174</ele>
        <time>2018-07-03T10:37:19Z</time>
      </trkpt>
      <trkpt lat="45.94403" lon="4.72642">
        <ele>174</ele>
        <time>2018-07-03T10:37:20Z</time>
      </trkpt>
      <trkpt lat="45.94404" lon="4.72633">
        <ele>174</ele>
        <time>2018-07-03T10:37:21Z</time>
      </trkpt>
      <trkpt lat="45.94402" lon="4.72624">
        <ele>173</ele>
        <time>2018-07-03T10:37:22Z</time>
      </trkpt>
      <trkpt lat="45.94401" lon="4.72614">
        <ele>173</ele>
        <time>2018-07-03T10:37:23Z</time>
      </trkpt>
      <trkpt lat="45.94401" lon="4.72606">
        <ele>173</ele>
        <time>2018-07-03T10:37:24Z</time>
      </trkpt>
      <trkpt lat="45.94397" lon="4.72596">
        <ele>173</ele>
        <time>2018-07-03T10:37:25Z</time>
      </trkpt>
      <trkpt lat="45.94395" lon="4.72587">
        <ele>173</ele>
        <time>2018-07-03T10:37:26Z</time>
      </trkpt>
      <trkpt lat="45.94392" lon="4.72577">
        <ele>173</ele>
        <time>2018-07-03T10:37:27Z</time>
      </trkpt>
      <trkpt lat="45.9439" lon="4.72568">
        <ele>173</ele>
        <time>2018-07-03T10:37:28Z</time>
      </trkpt>
      <trkpt lat="45.94388" lon="4.7256">
        <ele>173</ele>
        <time>2018-07-03T10:37:29Z</time>
      </trkpt>
      <trkpt lat="45.94389" lon="4.72553">
        <ele>173</ele>
        <time>2018-07-03T10:37:30Z</time>
      </trkpt>
      <trkpt lat="45.94387" lon="4.72544">
        <ele>173</ele>
        <time>2018-07-03T10:37:31Z</time>
      </trkpt>
      <trkpt lat="45.94384" lon="4.72534">
        <ele>174</ele>
        <time>2018-07-03T10:37:32Z</time>
      </trkpt>
      <trkpt lat="45.94382" lon="4.72526">
        <ele>174</ele>
        <time>2018-07-03T10:37:33Z</time>
      </trkpt>
      <trkpt lat="45.94379" lon="4.72518">
        <ele>174</ele>
        <time>2018-07-03T10:37:34Z</time>
      </trkpt>
      <trkpt lat="45.94379" lon="4.72509">
        <ele>174</ele>
        <time>2018-07-03T10:37:35Z</time>
      </trkpt>
      <trkpt lat="45.94376" lon="4.725">
        <ele>174</ele>
        <time>2018-07-03T10:37:36Z</time>
      </trkpt>
      <trkpt lat="45.94374" lon="4.72492">
        <ele>173</ele>
        <time>2018-07-03T10:37:37Z</time>
      </trkpt>
      <trkpt lat="45.94373" lon="4.72483">
        <ele>173</ele>
        <time>2018-07-03T10:37:38Z</time>
      </trkpt>
      <trkpt lat="45.94372" lon="4.72477">
        <ele>173</ele>
        <time>2018-07-03T10:37:39Z</time>
      </trkpt>
      <trkpt lat="45.9437" lon="4.7247">
        <ele>173</ele>
        <time>2018-07-03T10:37:40Z</time>
      </trkpt>
      <trkpt lat="45.94368" lon="4.72462">
        <ele>173</ele>
        <time>2018-07-03T10:37:41Z</time>
      </trkpt>
      <trkpt lat="45.94365" lon="4.72454">
        <ele>173</ele>
        <time>2018-07-03T10:37:42Z</time>
      </trkpt>
      <trkpt lat="45.9436" lon="4.72447">
        <ele>173</ele>
        <time>2018-07-03T10:37:43Z</time>
      </trkpt>
      <trkpt lat="45.94357" lon="4.7244">
        <ele>173</ele>
        <time>2018-07-03T10:37:44Z</time>
      </trkpt>
      <trkpt lat="45.94353" lon="4.72433">
        <ele>173</ele>
        <time>2018-07-03T10:37:45Z</time>
      </trkpt>
      <trkpt lat="45.9435" lon="4.72425">
        <ele>173</ele>
        <time>2018-07-03T10:37:46Z</time>
      </trkpt>
      <trkpt lat="45.94347" lon="4.72417">
        <ele>173</ele>
        <time>2018-07-03T10:37:47Z</time>
      </trkpt>
      <trkpt lat="45.94343" lon="4.72408">
        <ele>173</ele>
        <time>2018-07-03T10:37:48Z</time>
      </trkpt>
      <trkpt lat="45.94338" lon="4.724">
        <ele>173</ele>
        <time>2018-07-03T10:37:49Z</time>
      </trkpt>
      <trkpt lat="45.94334" lon="4.72391">
        <ele>172</ele>
        <time>2018-07-03T10:37:50Z</time>
      </trkpt>
      <trkpt lat="45.9433" lon="4.72382">
        <ele>172</ele>
        <time>2018-07-03T10:37:51Z</time>
      </trkpt>
      <trkpt lat="45.94326" lon="4.72372">
        <ele>172</ele>
        <time>2018-07-03T10:37:52Z</time>
      </trkpt>
      <trkpt lat="45.94323" lon="4.72364">
        <ele>172</ele>
        <time>2018-07-03T10:37:53Z</time>
      </trkpt>
      <trkpt lat="45.94319" lon="4.72354">
        <ele>172</ele>
        <time>2018-07-03T10:37:54Z</time>
      </trkpt>
      <trkpt lat="45.94314" lon="4.72345">
        <ele>172</ele>
        <time>2018-07-03T10:37:56.276Z</time>
      </trkpt>
      <trkpt lat="45.94311" lon="4.72336">
        <ele>172</ele>
        <time>2018-07-03T10:37:56Z</time>
      </trkpt>
      <trkpt lat="45.94309" lon="4.72329">
        <ele>172</ele>
        <time>2018-07-03T10:37:57Z</time>
      </trkpt>
      <trkpt lat="45.94305" lon="4.72321">
        <ele>171</ele>
        <time>2018-07-03T10:37:58Z</time>
      </trkpt>
      <trkpt lat="45.94301" lon="4.72313">
        <ele>171</ele>
        <time>2018-07-03T10:37:59Z</time>
      </trkpt>
      <trkpt lat="45.94297" lon="4.72305">
        <ele>171</ele>
        <time>2018-07-03T10:38:00Z</time>
      </trkpt>
      <trkpt lat="45.94294" lon="4.72298">
        <ele>171</ele>
        <time>2018-07-03T10:38:01Z</time>
      </trkpt>
      <trkpt lat="45.94289" lon="4.7229">
        <ele>171</ele>
        <time>2018-07-03T10:38:02Z</time>
      </trkpt>
      <trkpt lat="45.94286" lon="4.72281">
        <ele>171</ele>
        <time>2018-07-03T10:38:03Z</time>
      </trkpt>
      <trkpt lat="45.94283" lon="4.72274">
        <ele>171</ele>
        <time>2018-07-03T10:38:04Z</time>
      </trkpt>
      <trkpt lat="45.9428" lon="4.72269">
        <ele>171</ele>
        <time>2018-07-03T10:38:05Z</time>
      </trkpt>
      <trkpt lat="45.94276" lon="4.72265">
        <ele>171</ele>
        <time>2018-07-03T10:38:06Z</time>
      </trkpt>
      <trkpt lat="45.94271" lon="4.72268">
        <ele>171</ele>
        <time>2018-07-03T10:38:07Z</time>
      </trkpt>
      <trkpt lat="45.94266" lon="4.72269">
        <ele>171</ele>
        <time>2018-07-03T10:38:08Z</time>
      </trkpt>
      <trkpt lat="45.9426" lon="4.72272">
        <ele>171</ele>
        <time>2018-07-03T10:38:09Z</time>
      </trkpt>
      <trkpt lat="45.94254" lon="4.72275">
        <ele>171</ele>
        <time>2018-07-03T10:38:10Z</time>
      </trkpt>
      <trkpt lat="45.94249" lon="4.72278">
        <ele>171</ele>
        <time>2018-07-03T10:38:11Z</time>
      </trkpt>
      <trkpt lat="45.94243" lon="4.72279">
        <ele>171</ele>
        <time>2018-07-03T10:38:12Z</time>
      </trkpt>
      <trkpt lat="45.94237" lon="4.72281">
        <ele>171</ele>
        <time>2018-07-03T10:38:13Z</time>
      </trkpt>
      <trkpt lat="45.94231" lon="4.72284">
        <ele>171</ele>
        <time>2018-07-03T10:38:14Z</time>
      </trkpt>
      <trkpt lat="45.94225" lon="4.72285">
        <ele>171</ele>
        <time>2018-07-03T10:38:15Z</time>
      </trkpt>
      <trkpt lat="45.94218" lon="4.72286">
        <ele>171</ele>
        <time>2018-07-03T10:38:16Z</time>
      </trkpt>
      <trkpt lat="45.94212" lon="4.72286">
        <ele>171</ele>
        <time>2018-07-03T10:38:17Z</time>
      </trkpt>
      <trkpt lat="45.94205" lon="4.72286">
        <ele>171</ele>
        <time>2018-07-03T10:38:18Z</time>
      </trkpt>
      <trkpt lat="45.94198" lon="4.72287">
        <ele>171</ele>
        <time>2018-07-03T10:38:19Z</time>
      </trkpt>
      <trkpt lat="45.94192" lon="4.72287">
        <ele>171</ele>
        <time>2018-07-03T10:38:20Z</time>
      </trkpt>
      <trkpt lat="45.94187" lon="4.72286">
        <ele>171</ele>
        <time>2018-07-03T10:38:21Z</time>
      </trkpt>
      <trkpt lat="45.94181" lon="4.72288">
        <ele>171</ele>
        <time>2018-07-03T10:38:22Z</time>
      </trkpt>
      <trkpt lat="45.94176" lon="4.72286">
        <ele>171</ele>
        <time>2018-07-03T10:38:23Z</time>
      </trkpt>
      <trkpt lat="45.94169" lon="4.72286">
        <ele>171</ele>
        <time>2018-07-03T10:38:24Z</time>
      </trkpt>
      <trkpt lat="45.94162" lon="4.72285">
        <ele>171</ele>
        <time>2018-07-03T10:38:25Z</time>
      </trkpt>
      <trkpt lat="45.94156" lon="4.72285">
        <ele>171</ele>
        <time>2018-07-03T10:38:26Z</time>
      </trkpt>
      <trkpt lat="45.94149" lon="4.72282">
        <ele>171</ele>
        <time>2018-07-03T10:38:27Z</time>
      </trkpt>
      <trkpt lat="45.94143" lon="4.7228">
        <ele>171</ele>
        <time>2018-07-03T10:38:28Z</time>
      </trkpt>
      <trkpt lat="45.94137" lon="4.72276">
        <ele>171</ele>
        <time>2018-07-03T10:38:29Z</time>
      </trkpt>
      <trkpt lat="45.94131" lon="4.72273">
        <ele>171</ele>
        <time>2018-07-03T10:38:30Z</time>
      </trkpt>
      <trkpt lat="45.94126" lon="4.7227">
        <ele>171</ele>
        <time>2018-07-03T10:38:31Z</time>
      </trkpt>
      <trkpt lat="45.94121" lon="4.72267">
        <ele>171</ele>
        <time>2018-07-03T10:38:32Z</time>
      </trkpt>
      <trkpt lat="45.94116" lon="4.72265">
        <ele>171</ele>
        <time>2018-07-03T10:38:33Z</time>
      </trkpt>
      <trkpt lat="45.94111" lon="4.72263">
        <ele>171</ele>
        <time>2018-07-03T10:38:34Z</time>
      </trkpt>
      <trkpt lat="45.94105" lon="4.72262">
        <ele>171</ele>
        <time>2018-07-03T10:38:35Z</time>
      </trkpt>
      <trkpt lat="45.94098" lon="4.72262">
        <ele>171</ele>
        <time>2018-07-03T10:38:36Z</time>
      </trkpt>
      <trkpt lat="45.94092" lon="4.72262">
        <ele>171</ele>
        <time>2018-07-03T10:38:37Z</time>
      </trkpt>
      <trkpt lat="45.94086" lon="4.72264">
        <ele>171</ele>
        <time>2018-07-03T10:38:38Z</time>
      </trkpt>
      <trkpt lat="45.94079" lon="4.72267">
        <ele>171</ele>
        <time>2018-07-03T10:38:39Z</time>
      </trkpt>
      <trkpt lat="45.94074" lon="4.72273">
        <ele>171</ele>
        <time>2018-07-03T10:38:40Z</time>
      </trkpt>
      <trkpt lat="45.94068" lon="4.72278">
        <ele>171</ele>
        <time>2018-07-03T10:38:41Z</time>
      </trkpt>
      <trkpt lat="45.94062" lon="4.72284">
        <ele>171</ele>
        <time>2018-07-03T10:38:42Z</time>
      </trkpt>
      <trkpt lat="45.94058" lon="4.7229">
        <ele>171</ele>
        <time>2018-07-03T10:38:43Z</time>
      </trkpt>
      <trkpt lat="45.94053" lon="4.72297">
        <ele>171</ele>
        <time>2018-07-03T10:38:44Z</time>
      </trkpt>
      <trkpt lat="45.94048" lon="4.72303">
        <ele>171</ele>
        <time>2018-07-03T10:38:45Z</time>
      </trkpt>
      <trkpt lat="45.94043" lon="4.7231">
        <ele>171</ele>
        <time>2018-07-03T10:38:46Z</time>
      </trkpt>
      <trkpt lat="45.94037" lon="4.72317">
        <ele>171</ele>
        <time>2018-07-03T10:38:47Z</time>
      </trkpt>
      <trkpt lat="45.94033" lon="4.72324">
        <ele>171</ele>
        <time>2018-07-03T10:38:48Z</time>
      </trkpt>
      <trkpt lat="45.94028" lon="4.7233">
        <ele>171</ele>
        <time>2018-07-03T10:38:49Z</time>
      </trkpt>
      <trkpt lat="45.94023" lon="4.72336">
        <ele>171</ele>
        <time>2018-07-03T10:38:50Z</time>
      </trkpt>
      <trkpt lat="45.94018" lon="4.72342">
        <ele>171</ele>
        <time>2018-07-03T10:38:51Z</time>
      </trkpt>
      <trkpt lat="45.94014" lon="4.72348">
        <ele>171</ele>
        <time>2018-07-03T10:38:52Z</time>
      </trkpt>
      <trkpt lat="45.9401" lon="4.72355">
        <ele>171</ele>
        <time>2018-07-03T10:38:53Z</time>
      </trkpt>
      <trkpt lat="45.94004" lon="4.72359">
        <ele>171</ele>
        <time>2018-07-03T10:38:54Z</time>
      </trkpt>
      <trkpt lat="45.94001" lon="4.72364">
        <ele>171</ele>
        <time>2018-07-03T10:38:55Z</time>
      </trkpt>
      <trkpt lat="45.93996" lon="4.72372">
        <ele>171</ele>
        <time>2018-07-03T10:38:56Z</time>
      </trkpt>
      <trkpt lat="45.93991" lon="4.72376">
        <ele>171</ele>
        <time>2018-07-03T10:38:57Z</time>
      </trkpt>
      <trkpt lat="45.93988" lon="4.72384">
        <ele>171</ele>
        <time>2018-07-03T10:38:58Z</time>
      </trkpt>
      <trkpt lat="45.93984" lon="4.72388">
        <ele>171</ele>
        <time>2018-07-03T10:38:59Z</time>
      </trkpt>
      <trkpt lat="45.93981" lon="4.72393">
        <ele>171</ele>
        <time>2018-07-03T10:39:00Z</time>
      </trkpt>
      <trkpt lat="45.93977" lon="4.72398">
        <ele>171</ele>
        <time>2018-07-03T10:39:01Z</time>
      </trkpt>
      <trkpt lat="45.93973" lon="4.72404">
        <ele>171</ele>
        <time>2018-07-03T10:39:02Z</time>
      </trkpt>
      <trkpt lat="45.93968" lon="4.72408">
        <ele>171</ele>
        <time>2018-07-03T10:39:03Z</time>
      </trkpt>
      <trkpt lat="45.93964" lon="4.72412">
        <ele>171</ele>
        <time>2018-07-03T10:39:04Z</time>
      </trkpt>
      <trkpt lat="45.93959" lon="4.72418">
        <ele>171</ele>
        <time>2018-07-03T10:39:05Z</time>
      </trkpt>
      <trkpt lat="45.93954" lon="4.72422">
        <ele>171</ele>
        <time>2018-07-03T10:39:06Z</time>
      </trkpt>
      <trkpt lat="45.9395" lon="4.72427">
        <ele>171</ele>
        <time>2018-07-03T10:39:07Z</time>
      </trkpt>
      <trkpt lat="45.93946" lon="4.72431">
        <ele>171</ele>
        <time>2018-07-03T10:39:08Z</time>
      </trkpt>
      <trkpt lat="45.93942" lon="4.72437">
        <ele>171</ele>
        <time>2018-07-03T10:39:09Z</time>
      </trkpt>
      <trkpt lat="45.93937" lon="4.72441">
        <ele>171</ele>
        <time>2018-07-03T10:39:10Z</time>
      </trkpt>
      <trkpt lat="45.93933" lon="4.72447">
        <ele>171</ele>
        <time>2018-07-03T10:39:11Z</time>
      </trkpt>
      <trkpt lat="45.93929" lon="4.72453">
        <ele>171</ele>
        <time>2018-07-03T10:39:12Z</time>
      </trkpt>
      <trkpt lat="45.93924" lon="4.72459">
        <ele>171</ele>
        <time>2018-07-03T10:39:13Z</time>
      </trkpt>
      <trkpt lat="45.9392" lon="4.72463">
        <ele>171</ele>
        <time>2018-07-03T10:39:14Z</time>
      </trkpt>
      <trkpt lat="45.93913" lon="4.72468">
        <ele>172</ele>
        <time>2018-07-03T10:39:15Z</time>
      </trkpt>
      <trkpt lat="45.93909" lon="4.72474">
        <ele>172</ele>
        <time>2018-07-03T10:39:16Z</time>
      </trkpt>
      <trkpt lat="45.93905" lon="4.7248">
        <ele>172</ele>
        <time>2018-07-03T10:39:17Z</time>
      </trkpt>
      <trkpt lat="45.93901" lon="4.72483">
        <ele>172</ele>
        <time>2018-07-03T10:39:18Z</time>
      </trkpt>
      <trkpt lat="45.93896" lon="4.72487">
        <ele>172</ele>
        <time>2018-07-03T10:39:19Z</time>
      </trkpt>
      <trkpt lat="45.93893" lon="4.72493">
        <ele>172</ele>
        <time>2018-07-03T10:39:20Z</time>
      </trkpt>
      <trkpt lat="45.93888" lon="4.725">
        <ele>172</ele>
        <time>2018-07-03T10:39:21Z</time>
      </trkpt>
      <trkpt lat="45.93882" lon="4.72505">
        <ele>173</ele>
        <time>2018-07-03T10:39:22Z</time>
      </trkpt>
      <trkpt lat="45.93878" lon="4.7251">
        <ele>173</ele>
        <time>2018-07-03T10:39:23Z</time>
      </trkpt>
      <trkpt lat="45.93871" lon="4.72516">
        <ele>173</ele>
        <time>2018-07-03T10:39:24Z</time>
      </trkpt>
      <trkpt lat="45.93865" lon="4.72512">
        <ele>173</ele>
        <time>2018-07-03T10:39:25Z</time>
      </trkpt>
      <trkpt lat="45.9386" lon="4.7251">
        <ele>173</ele>
        <time>2018-07-03T10:39:26Z</time>
      </trkpt>
      <trkpt lat="45.93856" lon="4.72505">
        <ele>173</ele>
        <time>2018-07-03T10:39:27Z</time>
      </trkpt>
      <trkpt lat="45.93851" lon="4.72502">
        <ele>174</ele>
        <time>2018-07-03T10:39:28Z</time>
      </trkpt>
      <trkpt lat="45.9382" lon="4.72476">
        <ele>172</ele>
        <time>2018-07-03T10:39:35Z</time>
      </trkpt>
      <trkpt lat="45.93815" lon="4.7247">
        <ele>172</ele>
        <time>2018-07-03T10:39:36Z</time>
      </trkpt>
      <trkpt lat="45.93809" lon="4.72462">
        <ele>172</ele>
        <time>2018-07-03T10:39:37Z</time>
      </trkpt>
      <trkpt lat="45.93805" lon="4.72457">
        <ele>172</ele>
        <time>2018-07-03T10:39:38Z</time>
      </trkpt>
      <trkpt lat="45.93801" lon="4.72453">
        <ele>172</ele>
        <time>2018-07-03T10:39:39Z</time>
      </trkpt>
      <trkpt lat="45.93799" lon="4.72446">
        <ele>172</ele>
        <time>2018-07-03T10:39:40Z</time>
      </trkpt>
      <trkpt lat="45.9379" lon="4.72441">
        <ele>172</ele>
        <time>2018-07-03T10:39:41Z</time>
      </trkpt>
      <trkpt lat="45.93784" lon="4.72438">
        <ele>172</ele>
        <time>2018-07-03T10:39:42Z</time>
      </trkpt>
      <trkpt lat="45.9378" lon="4.72433">
        <ele>172</ele>
        <time>2018-07-03T10:39:43Z</time>
      </trkpt>
      <trkpt lat="45.93775" lon="4.72432">
        <ele>171</ele>
        <time>2018-07-03T10:39:44Z</time>
      </trkpt>
      <trkpt lat="45.9377" lon="4.72428">
        <ele>171</ele>
        <time>2018-07-03T10:39:45Z</time>
      </trkpt>
      <trkpt lat="45.93765" lon="4.72424">
        <ele>171</ele>
        <time>2018-07-03T10:39:46Z</time>
      </trkpt>
      <trkpt lat="45.93761" lon="4.72418">
        <ele>171</ele>
        <time>2018-07-03T10:39:47Z</time>
      </trkpt>
      <trkpt lat="45.93758" lon="4.72413">
        <ele>171</ele>
        <time>2018-07-03T10:39:48Z</time>
      </trkpt>
      <trkpt lat="45.93753" lon="4.72408">
        <ele>171</ele>
        <time>2018-07-03T10:39:49Z</time>
      </trkpt>
      <trkpt lat="45.93748" lon="4.72404">
        <ele>171</ele>
        <time>2018-07-03T10:39:50Z</time>
      </trkpt>
      <trkpt lat="45.93744" lon="4.72399">
        <ele>171</ele>
        <time>2018-07-03T10:39:51Z</time>
      </trkpt>
      <trkpt lat="45.9374" lon="4.72394">
        <ele>171</ele>
        <time>2018-07-03T10:39:52Z</time>
      </trkpt>
      <trkpt lat="45.93737" lon="4.72391">
        <ele>171</ele>
        <time>2018-07-03T10:39:53Z</time>
      </trkpt>
      <trkpt lat="45.93733" lon="4.72385">
        <ele>171</ele>
        <time>2018-07-03T10:39:54Z</time>
      </trkpt>
      <trkpt lat="45.93729" lon="4.72382">
        <ele>171</ele>
        <time>2018-07-03T10:39:55Z</time>
      </trkpt>
      <trkpt lat="45.93722" lon="4.72376">
        <ele>171</ele>
        <time>2018-07-03T10:39:56Z</time>
      </trkpt>
      <trkpt lat="45.93716" lon="4.72371">
        <ele>172</ele>
        <time>2018-07-03T10:39:57Z</time>
      </trkpt>
      <trkpt lat="45.93712" lon="4.72365">
        <ele>172</ele>
        <time>2018-07-03T10:39:58Z</time>
      </trkpt>
      <trkpt lat="45.93705" lon="4.72359">
        <ele>171</ele>
        <time>2018-07-03T10:39:59Z</time>
      </trkpt>
      <trkpt lat="45.937" lon="4.72353">
        <ele>171</ele>
        <time>2018-07-03T10:40:00Z</time>
      </trkpt>
      <trkpt lat="45.93696" lon="4.72352">
        <ele>171</ele>
        <time>2018-07-03T10:40:01Z</time>
      </trkpt>
      <trkpt lat="45.9369" lon="4.72347">
        <ele>171</ele>
        <time>2018-07-03T10:40:02Z</time>
      </trkpt>
      <trkpt lat="45.93687" lon="4.72343">
        <ele>171</ele>
        <time>2018-07-03T10:40:03Z</time>
      </trkpt>
      <trkpt lat="45.93679" lon="4.72337">
        <ele>171</ele>
        <time>2018-07-03T10:40:04Z</time>
      </trkpt>
      <trkpt lat="45.93675" lon="4.72334">
        <ele>171</ele>
        <time>2018-07-03T10:40:05Z</time>
      </trkpt>
      <trkpt lat="45.93667" lon="4.72328">
        <ele>171</ele>
        <time>2018-07-03T10:40:06Z</time>
      </trkpt>
      <trkpt lat="45.93664" lon="4.72322">
        <ele>171</ele>
        <time>2018-07-03T10:40:07Z</time>
      </trkpt>
      <trkpt lat="45.9366" lon="4.72317">
        <ele>172</ele>
        <time>2018-07-03T10:40:08Z</time>
      </trkpt>
      <trkpt lat="45.93656" lon="4.72313">
        <ele>172</ele>
        <time>2018-07-03T10:40:09Z</time>
      </trkpt>
      <trkpt lat="45.93651" lon="4.72309">
        <ele>172</ele>
        <time>2018-07-03T10:40:10Z</time>
      </trkpt>
      <trkpt lat="45.93647" lon="4.72308">
        <ele>172</ele>
        <time>2018-07-03T10:40:11Z</time>
      </trkpt>
      <trkpt lat="45.93642" lon="4.72303">
        <ele>172</ele>
        <time>2018-07-03T10:40:12Z</time>
      </trkpt>
      <trkpt lat="45.93638" lon="4.72299">
        <ele>172</ele>
        <time>2018-07-03T10:40:13Z</time>
      </trkpt>
      <trkpt lat="45.93633" lon="4.72294">
        <ele>172</ele>
        <time>2018-07-03T10:40:14Z</time>
      </trkpt>
      <trkpt lat="45.93631" lon="4.72288">
        <ele>172</ele>
        <time>2018-07-03T10:40:15Z</time>
      </trkpt>
      <trkpt lat="45.93625" lon="4.72285">
        <ele>172</ele>
        <time>2018-07-03T10:40:16Z</time>
      </trkpt>
      <trkpt lat="45.93621" lon="4.7228">
        <ele>172</ele>
        <time>2018-07-03T10:40:17Z</time>
      </trkpt>
      <trkpt lat="45.93617" lon="4.72274">
        <ele>172</ele>
        <time>2018-07-03T10:40:18Z</time>
      </trkpt>
      <trkpt lat="45.93613" lon="4.72269">
        <ele>172</ele>
        <time>2018-07-03T10:40:19Z</time>
      </trkpt>
      <trkpt lat="45.93609" lon="4.72265">
        <ele>172</ele>
        <time>2018-07-03T10:40:20Z</time>
      </trkpt>
      <trkpt lat="45.93605" lon="4.72261">
        <ele>173</ele>
        <time>2018-07-03T10:40:21Z</time>
      </trkpt>
      <trkpt lat="45.93602" lon="4.72256">
        <ele>173</ele>
        <time>2018-07-03T10:40:22Z</time>
      </trkpt>
      <trkpt lat="45.93598" lon="4.72251">
        <ele>173</ele>
        <time>2018-07-03T10:40:23Z</time>
      </trkpt>
      <trkpt lat="45.93594" lon="4.72246">
        <ele>173</ele>
        <time>2018-07-03T10:40:24Z</time>
      </trkpt>
      <trkpt lat="45.93588" lon="4.72242">
        <ele>173</ele>
        <time>2018-07-03T10:40:25Z</time>
      </trkpt>
      <trkpt lat="45.93582" lon="4.72237">
        <ele>173</ele>
        <time>2018-07-03T10:40:27Z</time>
      </trkpt>
      <trkpt lat="45.93577" lon="4.72234">
        <ele>173</ele>
        <time>2018-07-03T10:40:28Z</time>
      </trkpt>
      <trkpt lat="45.93572" lon="4.72231">
        <ele>173</ele>
        <time>2018-07-03T10:40:29Z</time>
      </trkpt>
      <trkpt lat="45.93569" lon="4.72227">
        <ele>173</ele>
        <time>2018-07-03T10:40:30Z</time>
      </trkpt>
      <trkpt lat="45.93562" lon="4.72222">
        <ele>173</ele>
        <time>2018-07-03T10:40:38Z</time>
      </trkpt>
      <trkpt lat="45.9356" lon="4.72221">
        <ele>173</ele>
        <time>2018-07-03T10:40:39Z</time>
      </trkpt>
      <trkpt lat="45.93553" lon="4.72215">
        <ele>173</ele>
        <time>2018-07-03T10:40:44Z</time>
      </trkpt>
      <trkpt lat="45.93547" lon="4.72217">
        <ele>172</ele>
        <time>2018-07-03T10:40:45Z</time>
      </trkpt>
      <trkpt lat="45.93543" lon="4.72227">
        <ele>172</ele>
        <time>2018-07-03T10:40:49Z</time>
      </trkpt>
      <trkpt lat="45.9354" lon="4.72237">
        <ele>172</ele>
        <time>2018-07-03T10:40:50Z</time>
      </trkpt>
      <trkpt lat="45.93536" lon="4.72248">
        <ele>172</ele>
        <time>2018-07-03T10:40:54Z</time>
      </trkpt>
      <trkpt lat="45.93535" lon="4.72251">
        <ele>172</ele>
        <time>2018-07-03T10:40:55Z</time>
      </trkpt>
      <trkpt lat="45.93534" lon="4.72255">
        <ele>172</ele>
        <time>2018-07-03T10:40:56Z</time>
      </trkpt>
      <trkpt lat="45.9353" lon="4.72266">
        <ele>172</ele>
        <time>2018-07-03T10:40:57Z</time>
      </trkpt>
      <trkpt lat="45.93528" lon="4.72271">
        <ele>172</ele>
        <time>2018-07-03T10:40:58Z</time>
      </trkpt>
      <trkpt lat="45.93526" lon="4.72277">
        <ele>172</ele>
        <time>2018-07-03T10:40:59Z</time>
      </trkpt>
      <trkpt lat="45.93523" lon="4.72283">
        <ele>172</ele>
        <time>2018-07-03T10:41:00Z</time>
      </trkpt>
      <trkpt lat="45.9352" lon="4.7229">
        <ele>172</ele>
        <time>2018-07-03T10:41:01Z</time>
      </trkpt>
      <trkpt lat="45.93517" lon="4.72296">
        <ele>172</ele>
        <time>2018-07-03T10:41:02Z</time>
      </trkpt>
      <trkpt lat="45.93512" lon="4.72299">
        <ele>172</ele>
        <time>2018-07-03T10:41:03Z</time>
      </trkpt>
      <trkpt lat="45.93508" lon="4.72303">
        <ele>172</ele>
        <time>2018-07-03T10:41:04Z</time>
      </trkpt>
      <trkpt lat="45.93504" lon="4.72309">
        <ele>173</ele>
        <time>2018-07-03T10:41:05Z</time>
      </trkpt>
      <trkpt lat="45.93499" lon="4.72313">
        <ele>173</ele>
        <time>2018-07-03T10:41:06Z</time>
      </trkpt>
      <trkpt lat="45.93494" lon="4.72319">
        <ele>173</ele>
        <time>2018-07-03T10:41:07Z</time>
      </trkpt>
      <trkpt lat="45.9349" lon="4.72325">
        <ele>173</ele>
        <time>2018-07-03T10:41:08Z</time>
      </trkpt>
      <trkpt lat="45.93486" lon="4.72331">
        <ele>173</ele>
        <time>2018-07-03T10:41:09Z</time>
      </trkpt>
      <trkpt lat="45.93481" lon="4.72337">
        <ele>173</ele>
        <time>2018-07-03T10:41:10Z</time>
      </trkpt>
      <trkpt lat="45.93476" lon="4.72344">
        <ele>173</ele>
        <time>2018-07-03T10:41:11Z</time>
      </trkpt>
      <trkpt lat="45.93473" lon="4.7235">
        <ele>173</ele>
        <time>2018-07-03T10:41:12Z</time>
      </trkpt>
      <trkpt lat="45.9347" lon="4.72355">
        <ele>173</ele>
        <time>2018-07-03T10:41:13Z</time>
      </trkpt>
      <trkpt lat="45.93465" lon="4.72361">
        <ele>173</ele>
        <time>2018-07-03T10:41:14Z</time>
      </trkpt>
      <trkpt lat="45.93461" lon="4.72366">
        <ele>173</ele>
        <time>2018-07-03T10:41:15Z</time>
      </trkpt>
      <trkpt lat="45.93457" lon="4.72371">
        <ele>173</ele>
        <time>2018-07-03T10:41:16Z</time>
      </trkpt>
      <trkpt lat="45.93453" lon="4.72376">
        <ele>173</ele>
        <time>2018-07-03T10:41:17Z</time>
      </trkpt>
      <trkpt lat="45.93449" lon="4.72382">
        <ele>173</ele>
        <time>2018-07-03T10:41:18Z</time>
      </trkpt>
      <trkpt lat="45.93445" lon="4.72384">
        <ele>173</ele>
        <time>2018-07-03T10:41:19Z</time>
      </trkpt>
      <trkpt lat="45.9344" lon="4.72389">
        <ele>173</ele>
        <time>2018-07-03T10:41:20Z</time>
      </trkpt>
      <trkpt lat="45.93435" lon="4.72394">
        <ele>173</ele>
        <time>2018-07-03T10:41:21Z</time>
      </trkpt>
      <trkpt lat="45.93431" lon="4.72398">
        <ele>174</ele>
        <time>2018-07-03T10:41:22Z</time>
      </trkpt>
      <trkpt lat="45.93425" lon="4.724">
        <ele>174</ele>
        <time>2018-07-03T10:41:23Z</time>
      </trkpt>
      <trkpt lat="45.9342" lon="4.72402">
        <ele>174</ele>
        <time>2018-07-03T10:41:24Z</time>
      </trkpt>
      <trkpt lat="45.93416" lon="4.72403">
        <ele>174</ele>
        <time>2018-07-03T10:41:25Z</time>
      </trkpt>
      <trkpt lat="45.93411" lon="4.72404">
        <ele>174</ele>
        <time>2018-07-03T10:41:26Z</time>
      </trkpt>
      <trkpt lat="45.93405" lon="4.72407">
        <ele>174</ele>
        <time>2018-07-03T10:41:27Z</time>
      </trkpt>
      <trkpt lat="45.934" lon="4.72406">
        <ele>174</ele>
        <time>2018-07-03T10:41:28Z</time>
      </trkpt>
      <trkpt lat="45.93394" lon="4.72405">
        <ele>174</ele>
        <time>2018-07-03T10:41:29Z</time>
      </trkpt>
      <trkpt lat="45.93389" lon="4.72405">
        <ele>174</ele>
        <time>2018-07-03T10:41:30Z</time>
      </trkpt>
      <trkpt lat="45.93386" lon="4.72411">
        <ele>174</ele>
        <time>2018-07-03T10:41:31Z</time>
      </trkpt>
      <trkpt lat="45.93384" lon="4.72423">
        <ele>173</ele>
        <time>2018-07-03T10:41:33Z</time>
      </trkpt>
      <trkpt lat="45.93386" lon="4.72428">
        <ele>173</ele>
        <time>2018-07-03T10:41:34Z</time>
      </trkpt>
      <trkpt lat="45.93389" lon="4.72434">
        <ele>173</ele>
        <time>2018-07-03T10:41:35Z</time>
      </trkpt>
      <trkpt lat="45.93393" lon="4.7244">
        <ele>173</ele>
        <time>2018-07-03T10:41:36Z</time>
      </trkpt>
      <trkpt lat="45.93393" lon="4.72447">
        <ele>173</ele>
        <time>2018-07-03T10:41:37Z</time>
      </trkpt>
      <trkpt lat="45.93394" lon="4.72455">
        <ele>173</ele>
        <time>2018-07-03T10:41:38Z</time>
      </trkpt>
      <trkpt lat="45.93387" lon="4.72458">
        <ele>173</ele>
        <time>2018-07-03T10:41:39Z</time>
      </trkpt>
      <trkpt lat="45.93386" lon="4.72465">
        <ele>173</ele>
        <time>2018-07-03T10:41:40Z</time>
      </trkpt>
      <trkpt lat="45.9338" lon="4.72471">
        <ele>173</ele>
        <time>2018-07-03T10:41:41Z</time>
      </trkpt>
      <trkpt lat="45.93374" lon="4.72474">
        <ele>173</ele>
        <time>2018-07-03T10:41:42Z</time>
      </trkpt>
      <trkpt lat="45.9337" lon="4.72478">
        <ele>173</ele>
        <time>2018-07-03T10:41:43Z</time>
      </trkpt>
      <trkpt lat="45.93365" lon="4.72483">
        <ele>173</ele>
        <time>2018-07-03T10:41:44Z</time>
      </trkpt>
      <trkpt lat="45.93361" lon="4.72486">
        <ele>173</ele>
        <time>2018-07-03T10:41:45Z</time>
      </trkpt>
      <trkpt lat="45.93358" lon="4.7249">
        <ele>173</ele>
        <time>2018-07-03T10:41:46Z</time>
      </trkpt>
      <trkpt lat="45.93355" lon="4.72494">
        <ele>173</ele>
        <time>2018-07-03T10:41:47Z</time>
      </trkpt>
      <trkpt lat="45.9335" lon="4.72501">
        <ele>172</ele>
        <time>2018-07-03T10:41:48Z</time>
      </trkpt>
      <trkpt lat="45.93346" lon="4.72511">
        <ele>172</ele>
        <time>2018-07-03T10:41:49Z</time>
      </trkpt>
      <trkpt lat="45.9334" lon="4.72518">
        <ele>172</ele>
        <time>2018-07-03T10:41:50Z</time>
      </trkpt>
      <trkpt lat="45.93335" lon="4.72523">
        <ele>172</ele>
        <time>2018-07-03T10:41:51Z</time>
      </trkpt>
      <trkpt lat="45.9333" lon="4.72529">
        <ele>172</ele>
        <time>2018-07-03T10:41:52Z</time>
      </trkpt>
      <trkpt lat="45.93326" lon="4.72535">
        <ele>172</ele>
        <time>2018-07-03T10:41:53Z</time>
      </trkpt>
      <trkpt lat="45.93322" lon="4.72538">
        <ele>172</ele>
        <time>2018-07-03T10:41:54Z</time>
      </trkpt>
      <trkpt lat="45.93318" lon="4.72544">
        <ele>172</ele>
        <time>2018-07-03T10:41:55Z</time>
      </trkpt>
      <trkpt lat="45.93314" lon="4.72548">
        <ele>172</ele>
        <time>2018-07-03T10:41:56Z</time>
      </trkpt>
      <trkpt lat="45.93309" lon="4.72553">
        <ele>172</ele>
        <time>2018-07-03T10:41:57Z</time>
      </trkpt>
      <trkpt lat="45.93305" lon="4.72556">
        <ele>172</ele>
        <time>2018-07-03T10:41:58Z</time>
      </trkpt>
      <trkpt lat="45.933" lon="4.72563">
        <ele>172</ele>
        <time>2018-07-03T10:41:59Z</time>
      </trkpt>
      <trkpt lat="45.93296" lon="4.72568">
        <ele>172</ele>
        <time>2018-07-03T10:42:00Z</time>
      </trkpt>
      <trkpt lat="45.93292" lon="4.72574">
        <ele>172</ele>
        <time>2018-07-03T10:42:01Z</time>
      </trkpt>
      <trkpt lat="45.93289" lon="4.72579">
        <ele>171</ele>
        <time>2018-07-03T10:42:02Z</time>
      </trkpt>
      <trkpt lat="45.93282" lon="4.72586">
        <ele>170</ele>
        <time>2018-07-03T10:42:04Z</time>
      </trkpt>
      <trkpt lat="45.93278" lon="4.72593">
        <ele>170</ele>
        <time>2018-07-03T10:42:05Z</time>
      </trkpt>
      <trkpt lat="45.93274" lon="4.72599">
        <ele>170</ele>
        <time>2018-07-03T10:42:06Z</time>
      </trkpt>
      <trkpt lat="45.9327" lon="4.72604">
        <ele>170</ele>
        <time>2018-07-03T10:42:07Z</time>
      </trkpt>
      <trkpt lat="45.93266" lon="4.7261">
        <ele>170</ele>
        <time>2018-07-03T10:42:08Z</time>
      </trkpt>
      <trkpt lat="45.93262" lon="4.72615">
        <ele>170</ele>
        <time>2018-07-03T10:42:09Z</time>
      </trkpt>
      <trkpt lat="45.93257" lon="4.72617">
        <ele>170</ele>
        <time>2018-07-03T10:42:10Z</time>
      </trkpt>
      <trkpt lat="45.93251" lon="4.72622">
        <ele>170</ele>
        <time>2018-07-03T10:42:11Z</time>
      </trkpt>
      <trkpt lat="45.93246" lon="4.72624">
        <ele>170</ele>
        <time>2018-07-03T10:42:12Z</time>
      </trkpt>
      <trkpt lat="45.9324" lon="4.72628">
        <ele>170</ele>
        <time>2018-07-03T10:42:13Z</time>
      </trkpt>
      <trkpt lat="45.93233" lon="4.72634">
        <ele>170</ele>
        <time>2018-07-03T10:42:15Z</time>
      </trkpt>
      <trkpt lat="45.93229" lon="4.72638">
        <ele>170</ele>
        <time>2018-07-03T10:42:16Z</time>
      </trkpt>
      <trkpt lat="45.93222" lon="4.72646">
        <ele>170</ele>
        <time>2018-07-03T10:42:17Z</time>
      </trkpt>
      <trkpt lat="45.93217" lon="4.72652">
        <ele>170</ele>
        <time>2018-07-03T10:42:18Z</time>
      </trkpt>
      <trkpt lat="45.93214" lon="4.72657">
        <ele>170</ele>
        <time>2018-07-03T10:42:19Z</time>
      </trkpt>
      <trkpt lat="45.93211" lon="4.72664">
        <ele>170</ele>
        <time>2018-07-03T10:42:20Z</time>
      </trkpt>
      <trkpt lat="45.93207" lon="4.72674">
        <ele>169</ele>
        <time>2018-07-03T10:42:21Z</time>
      </trkpt>
      <trkpt lat="45.93203" lon="4.7268">
        <ele>169</ele>
        <time>2018-07-03T10:42:22Z</time>
      </trkpt>
      <trkpt lat="45.93195" lon="4.72687">
        <ele>169</ele>
        <time>2018-07-03T10:42:23Z</time>
      </trkpt>
      <trkpt lat="45.93189" lon="4.72694">
        <ele>169</ele>
        <time>2018-07-03T10:42:24Z</time>
      </trkpt>
      <trkpt lat="45.93184" lon="4.727">
        <ele>169</ele>
        <time>2018-07-03T10:42:25Z</time>
      </trkpt>
      <trkpt lat="45.93179" lon="4.72706">
        <ele>169</ele>
        <time>2018-07-03T10:42:26Z</time>
      </trkpt>
      <trkpt lat="45.93177" lon="4.72715">
        <ele>169</ele>
        <time>2018-07-03T10:42:27Z</time>
      </trkpt>
      <trkpt lat="45.93171" lon="4.72722">
        <ele>170</ele>
        <time>2018-07-03T10:42:28Z</time>
      </trkpt>
      <trkpt lat="45.93166" lon="4.72727">
        <ele>170</ele>
        <time>2018-07-03T10:42:29Z</time>
      </trkpt>
      <trkpt lat="45.93161" lon="4.72733">
        <ele>170</ele>
        <time>2018-07-03T10:42:30Z</time>
      </trkpt>
      <trkpt lat="45.93155" lon="4.72738">
        <ele>170</ele>
        <time>2018-07-03T10:42:31Z</time>
      </trkpt>
      <trkpt lat="45.93151" lon="4.72744">
        <ele>170</ele>
        <time>2018-07-03T10:42:32Z</time>
      </trkpt>
      <trkpt lat="45.93146" lon="4.7275">
        <ele>170</ele>
        <time>2018-07-03T10:42:33Z</time>
      </trkpt>
      <trkpt lat="45.93141" lon="4.72756">
        <ele>171</ele>
        <time>2018-07-03T10:42:34Z</time>
      </trkpt>
      <trkpt lat="45.93136" lon="4.7276">
        <ele>171</ele>
        <time>2018-07-03T10:42:35Z</time>
      </trkpt>
      <trkpt lat="45.93131" lon="4.72767">
        <ele>171</ele>
        <time>2018-07-03T10:42:36Z</time>
      </trkpt>
      <trkpt lat="45.93127" lon="4.72771">
        <ele>171</ele>
        <time>2018-07-03T10:42:37Z</time>
      </trkpt>
      <trkpt lat="45.93122" lon="4.72778">
        <ele>171</ele>
        <time>2018-07-03T10:42:38Z</time>
      </trkpt>
      <trkpt lat="45.93119" lon="4.72785">
        <ele>171</ele>
        <time>2018-07-03T10:42:39Z</time>
      </trkpt>
      <trkpt lat="45.93115" lon="4.72792">
        <ele>171</ele>
        <time>2018-07-03T10:42:40Z</time>
      </trkpt>
      <trkpt lat="45.93111" lon="4.72799">
        <ele>171</ele>
        <time>2018-07-03T10:42:41Z</time>
      </trkpt>
      <trkpt lat="45.93107" lon="4.72804">
        <ele>171</ele>
        <time>2018-07-03T10:42:42Z</time>
      </trkpt>
      <trkpt lat="45.93102" lon="4.72808">
        <ele>171</ele>
        <time>2018-07-03T10:42:43Z</time>
      </trkpt>
      <trkpt lat="45.93098" lon="4.72812">
        <ele>172</ele>
        <time>2018-07-03T10:42:44Z</time>
      </trkpt>
      <trkpt lat="45.93093" lon="4.72816">
        <ele>172</ele>
        <time>2018-07-03T10:42:45Z</time>
      </trkpt>
      <trkpt lat="45.93089" lon="4.72822">
        <ele>172</ele>
        <time>2018-07-03T10:42:46Z</time>
      </trkpt>
      <trkpt lat="45.93086" lon="4.72827">
        <ele>172</ele>
        <time>2018-07-03T10:42:47Z</time>
      </trkpt>
      <trkpt lat="45.93082" lon="4.72831">
        <ele>173</ele>
        <time>2018-07-03T10:42:48Z</time>
      </trkpt>
      <trkpt lat="45.93078" lon="4.72836">
        <ele>173</ele>
        <time>2018-07-03T10:42:49Z</time>
      </trkpt>
      <trkpt lat="45.93074" lon="4.7284">
        <ele>173</ele>
        <time>2018-07-03T10:42:50Z</time>
      </trkpt>
      <trkpt lat="45.9307" lon="4.72845">
        <ele>173</ele>
        <time>2018-07-03T10:42:51Z</time>
      </trkpt>
      <trkpt lat="45.93066" lon="4.72849">
        <ele>172</ele>
        <time>2018-07-03T10:42:52Z</time>
      </trkpt>
      <trkpt lat="45.93061" lon="4.72848">
        <ele>172</ele>
        <time>2018-07-03T10:42:53Z</time>
      </trkpt>
      <trkpt lat="45.93052" lon="4.72854">
        <ele>172</ele>
        <time>2018-07-03T10:42:54Z</time>
      </trkpt>
      <trkpt lat="45.93048" lon="4.72859">
        <ele>172</ele>
        <time>2018-07-03T10:42:55Z</time>
      </trkpt>
      <trkpt lat="45.93041" lon="4.72861">
        <ele>172</ele>
        <time>2018-07-03T10:42:56Z</time>
      </trkpt>
      <trkpt lat="45.93035" lon="4.72862">
        <ele>172</ele>
        <time>2018-07-03T10:42:57Z</time>
      </trkpt>
      <trkpt lat="45.9303" lon="4.72871">
        <ele>172</ele>
        <time>2018-07-03T10:42:58Z</time>
      </trkpt>
      <trkpt lat="45.93028" lon="4.72879">
        <ele>172</ele>
        <time>2018-07-03T10:42:59Z</time>
      </trkpt>
      <trkpt lat="45.93023" lon="4.72884">
        <ele>172</ele>
        <time>2018-07-03T10:43:00Z</time>
      </trkpt>
      <trkpt lat="45.9302" lon="4.72892">
        <ele>172</ele>
        <time>2018-07-03T10:43:01Z</time>
      </trkpt>
      <trkpt lat="45.93014" lon="4.72901">
        <ele>172</ele>
        <time>2018-07-03T10:43:02Z</time>
      </trkpt>
      <trkpt lat="45.93009" lon="4.72906">
        <ele>171</ele>
        <time>2018-07-03T10:43:03Z</time>
      </trkpt>
      <trkpt lat="45.93005" lon="4.72911">
        <ele>171</ele>
        <time>2018-07-03T10:43:04Z</time>
      </trkpt>
      <trkpt lat="45.93001" lon="4.72916">
        <ele>171</ele>
        <time>2018-07-03T10:43:05Z</time>
      </trkpt>
      <trkpt lat="45.92998" lon="4.72921">
        <ele>171</ele>
        <time>2018-07-03T10:43:06Z</time>
      </trkpt>
      <trkpt lat="45.92993" lon="4.72925">
        <ele>171</ele>
        <time>2018-07-03T10:43:07Z</time>
      </trkpt>
      <trkpt lat="45.9299" lon="4.72931">
        <ele>171</ele>
        <time>2018-07-03T10:43:08Z</time>
      </trkpt>
      <trkpt lat="45.92985" lon="4.72934">
        <ele>171</ele>
        <time>2018-07-03T10:43:09Z</time>
      </trkpt>
      <trkpt lat="45.9298" lon="4.72939">
        <ele>171</ele>
        <time>2018-07-03T10:43:10Z</time>
      </trkpt>
      <trkpt lat="45.92975" lon="4.72945">
        <ele>171</ele>
        <time>2018-07-03T10:43:11Z</time>
      </trkpt>
      <trkpt lat="45.92969" lon="4.72947">
        <ele>171</ele>
        <time>2018-07-03T10:43:12Z</time>
      </trkpt>
      <trkpt lat="45.92965" lon="4.72955">
        <ele>171</ele>
        <time>2018-07-03T10:43:13Z</time>
      </trkpt>
      <trkpt lat="45.9296" lon="4.72961">
        <ele>171</ele>
        <time>2018-07-03T10:43:14Z</time>
      </trkpt>
      <trkpt lat="45.92956" lon="4.72966">
        <ele>171</ele>
        <time>2018-07-03T10:43:15Z</time>
      </trkpt>
      <trkpt lat="45.92952" lon="4.72972">
        <ele>171</ele>
        <time>2018-07-03T10:43:16Z</time>
      </trkpt>
      <trkpt lat="45.92946" lon="4.72975">
        <ele>171</ele>
        <time>2018-07-03T10:43:17Z</time>
      </trkpt>
      <trkpt lat="45.92941" lon="4.72979">
        <ele>171</ele>
        <time>2018-07-03T10:43:18Z</time>
      </trkpt>
      <trkpt lat="45.9294" lon="4.72987">
        <ele>171</ele>
        <time>2018-07-03T10:43:19Z</time>
      </trkpt>
      <trkpt lat="45.92936" lon="4.72992">
        <ele>171</ele>
        <time>2018-07-03T10:43:20Z</time>
      </trkpt>
      <trkpt lat="45.92933" lon="4.73001">
        <ele>171</ele>
        <time>2018-07-03T10:43:21Z</time>
      </trkpt>
      <trkpt lat="45.92929" lon="4.73005">
        <ele>172</ele>
        <time>2018-07-03T10:43:22Z</time>
      </trkpt>
      <trkpt lat="45.92925" lon="4.73011">
        <ele>172</ele>
        <time>2018-07-03T10:43:23Z</time>
      </trkpt>
      <trkpt lat="45.92921" lon="4.73016">
        <ele>172</ele>
        <time>2018-07-03T10:43:24Z</time>
      </trkpt>
      <trkpt lat="45.92917" lon="4.73022">
        <ele>172</ele>
        <time>2018-07-03T10:43:25Z</time>
      </trkpt>
      <trkpt lat="45.92913" lon="4.73027">
        <ele>172</ele>
        <time>2018-07-03T10:43:26Z</time>
      </trkpt>
      <trkpt lat="45.9291" lon="4.73032">
        <ele>172</ele>
        <time>2018-07-03T10:43:27Z</time>
      </trkpt>
      <trkpt lat="45.92906" lon="4.73037">
        <ele>172</ele>
        <time>2018-07-03T10:43:28Z</time>
      </trkpt>
      <trkpt lat="45.929" lon="4.73046">
        <ele>172</ele>
        <time>2018-07-03T10:43:30Z</time>
      </trkpt>
      <trkpt lat="45.92896" lon="4.73051">
        <ele>172</ele>
        <time>2018-07-03T10:43:31Z</time>
      </trkpt>
      <trkpt lat="45.92895" lon="4.7306">
        <ele>172</ele>
        <time>2018-07-03T10:43:32Z</time>
      </trkpt>
      <trkpt lat="45.92891" lon="4.73066">
        <ele>172</ele>
        <time>2018-07-03T10:43:33Z</time>
      </trkpt>
      <trkpt lat="45.92888" lon="4.7307">
        <ele>172</ele>
        <time>2018-07-03T10:43:34Z</time>
      </trkpt>
      <trkpt lat="45.92884" lon="4.73077">
        <ele>172</ele>
        <time>2018-07-03T10:43:35Z</time>
      </trkpt>
      <trkpt lat="45.92881" lon="4.73081">
        <ele>172</ele>
        <time>2018-07-03T10:43:36Z</time>
      </trkpt>
      <trkpt lat="45.92878" lon="4.73086">
        <ele>172</ele>
        <time>2018-07-03T10:43:37Z</time>
      </trkpt>
      <trkpt lat="45.92874" lon="4.73091">
        <ele>172</ele>
        <time>2018-07-03T10:43:38Z</time>
      </trkpt>
      <trkpt lat="45.9287" lon="4.73095">
        <ele>172</ele>
        <time>2018-07-03T10:43:39Z</time>
      </trkpt>
      <trkpt lat="45.92866" lon="4.73098">
        <ele>172</ele>
        <time>2018-07-03T10:43:40Z</time>
      </trkpt>
      <trkpt lat="45.92862" lon="4.73102">
        <ele>171</ele>
        <time>2018-07-03T10:43:41Z</time>
      </trkpt>
      <trkpt lat="45.92858" lon="4.73105">
        <ele>171</ele>
        <time>2018-07-03T10:43:42Z</time>
      </trkpt>
      <trkpt lat="45.92853" lon="4.73104">
        <ele>171</ele>
        <time>2018-07-03T10:43:43Z</time>
      </trkpt>
      <trkpt lat="45.92848" lon="4.73096">
        <ele>171</ele>
        <time>2018-07-03T10:43:45Z</time>
      </trkpt>
      <trkpt lat="45.92847" lon="4.7309">
        <ele>171</ele>
        <time>2018-07-03T10:43:46Z</time>
      </trkpt>
      <trkpt lat="45.92846" lon="4.73082">
        <ele>171</ele>
        <time>2018-07-03T10:43:47Z</time>
      </trkpt>
      <trkpt lat="45.92846" lon="4.73075">
        <ele>171</ele>
        <time>2018-07-03T10:43:48Z</time>
      </trkpt>
      <trkpt lat="45.92845" lon="4.73068">
        <ele>171</ele>
        <time>2018-07-03T10:43:49Z</time>
      </trkpt>
      <trkpt lat="45.92843" lon="4.7306">
        <ele>171</ele>
        <time>2018-07-03T10:43:50Z</time>
      </trkpt>
      <trkpt lat="45.9284" lon="4.73052">
        <ele>171</ele>
        <time>2018-07-03T10:43:51Z</time>
      </trkpt>
      <trkpt lat="45.92839" lon="4.73044">
        <ele>171</ele>
        <time>2018-07-03T10:43:52Z</time>
      </trkpt>
      <trkpt lat="45.92837" lon="4.73037">
        <ele>171</ele>
        <time>2018-07-03T10:43:53Z</time>
      </trkpt>
      <trkpt lat="45.92837" lon="4.73029">
        <ele>171</ele>
        <time>2018-07-03T10:43:54Z</time>
      </trkpt>
      <trkpt lat="45.92836" lon="4.73022">
        <ele>171</ele>
        <time>2018-07-03T10:43:55Z</time>
      </trkpt>
      <trkpt lat="45.92833" lon="4.73014">
        <ele>170</ele>
        <time>2018-07-03T10:43:56Z</time>
      </trkpt>
      <trkpt lat="45.92833" lon="4.73008">
        <ele>170</ele>
        <time>2018-07-03T10:43:57Z</time>
      </trkpt>
      <trkpt lat="45.92832" lon="4.73001">
        <ele>170</ele>
        <time>2018-07-03T10:43:58Z</time>
      </trkpt>
      <trkpt lat="45.9283" lon="4.72993">
        <ele>170</ele>
        <time>2018-07-03T10:43:59Z</time>
      </trkpt>
      <trkpt lat="45.9283" lon="4.72986">
        <ele>170</ele>
        <time>2018-07-03T10:44:00Z</time>
      </trkpt>
      <trkpt lat="45.92829" lon="4.72978">
        <ele>170</ele>
        <time>2018-07-03T10:44:01Z</time>
      </trkpt>
      <trkpt lat="45.92829" lon="4.7297">
        <ele>170</ele>
        <time>2018-07-03T10:44:02Z</time>
      </trkpt>
      <trkpt lat="45.92828" lon="4.72963">
        <ele>170</ele>
        <time>2018-07-03T10:44:03Z</time>
      </trkpt>
      <trkpt lat="45.92826" lon="4.72955">
        <ele>170</ele>
        <time>2018-07-03T10:44:04Z</time>
      </trkpt>
      <trkpt lat="45.92826" lon="4.72942">
        <ele>170</ele>
        <time>2018-07-03T10:44:06Z</time>
      </trkpt>
      <trkpt lat="45.92825" lon="4.72935">
        <ele>170</ele>
        <time>2018-07-03T10:44:07Z</time>
      </trkpt>
      <trkpt lat="45.92827" lon="4.72924">
        <ele>170</ele>
        <time>2018-07-03T10:44:09Z</time>
      </trkpt>
      <trkpt lat="45.92827" lon="4.72916">
        <ele>170</ele>
        <time>2018-07-03T10:44:10Z</time>
      </trkpt>
      <trkpt lat="45.92825" lon="4.72905">
        <ele>170</ele>
        <time>2018-07-03T10:44:12Z</time>
      </trkpt>
      <trkpt lat="45.92824" lon="4.72899">
        <ele>170</ele>
        <time>2018-07-03T10:44:13Z</time>
      </trkpt>
      <trkpt lat="45.92823" lon="4.72893">
        <ele>170</ele>
        <time>2018-07-03T10:44:14Z</time>
      </trkpt>
      <trkpt lat="45.92822" lon="4.72886">
        <ele>170</ele>
        <time>2018-07-03T10:44:15Z</time>
      </trkpt>
      <trkpt lat="45.92821" lon="4.72879">
        <ele>170</ele>
        <time>2018-07-03T10:44:16Z</time>
      </trkpt>
      <trkpt lat="45.92819" lon="4.72872">
        <ele>170</ele>
        <time>2018-07-03T10:44:17Z</time>
      </trkpt>
      <trkpt lat="45.92817" lon="4.72865">
        <ele>170</ele>
        <time>2018-07-03T10:44:18Z</time>
      </trkpt>
      <trkpt lat="45.92814" lon="4.72859">
        <ele>170</ele>
        <time>2018-07-03T10:44:19Z</time>
      </trkpt>
      <trkpt lat="45.92812" lon="4.72852">
        <ele>170</ele>
        <time>2018-07-03T10:44:20Z</time>
      </trkpt>
      <trkpt lat="45.92811" lon="4.72845">
        <ele>170</ele>
        <time>2018-07-03T10:44:21Z</time>
      </trkpt>
      <trkpt lat="45.92811" lon="4.72838">
        <ele>170</ele>
        <time>2018-07-03T10:44:22Z</time>
      </trkpt>
      <trkpt lat="45.9281" lon="4.72832">
        <ele>171</ele>
        <time>2018-07-03T10:44:23Z</time>
      </trkpt>
      <trkpt lat="45.92808" lon="4.7282">
        <ele>171</ele>
        <time>2018-07-03T10:44:25Z</time>
      </trkpt>
      <trkpt lat="45.92807" lon="4.72813">
        <ele>171</ele>
        <time>2018-07-03T10:44:26Z</time>
      </trkpt>
      <trkpt lat="45.92806" lon="4.72801">
        <ele>171</ele>
        <time>2018-07-03T10:44:28Z</time>
      </trkpt>
      <trkpt lat="45.92805" lon="4.72796">
        <ele>171</ele>
        <time>2018-07-03T10:44:29Z</time>
      </trkpt>
      <trkpt lat="45.928" lon="4.72786">
        <ele>171</ele>
        <time>2018-07-03T10:44:31Z</time>
      </trkpt>
      <trkpt lat="45.92798" lon="4.72785">
        <ele>171</ele>
        <time>2018-07-03T10:44:32Z</time>
      </trkpt>
      <trkpt lat="45.92788" lon="4.7279">
        <ele>170</ele>
        <time>2018-07-03T10:44:33Z</time>
      </trkpt>
      <trkpt lat="45.92782" lon="4.72794">
        <ele>170</ele>
        <time>2018-07-03T10:44:35Z</time>
      </trkpt>
      <trkpt lat="45.92777" lon="4.72798">
        <ele>170</ele>
        <time>2018-07-03T10:44:36Z</time>
      </trkpt>
      <trkpt lat="45.92774" lon="4.72802">
        <ele>170</ele>
        <time>2018-07-03T10:44:37Z</time>
      </trkpt>
      <trkpt lat="45.92767" lon="4.72805">
        <ele>170</ele>
        <time>2018-07-03T10:44:38Z</time>
      </trkpt>
      <trkpt lat="45.92763" lon="4.72808">
        <ele>170</ele>
        <time>2018-07-03T10:44:39Z</time>
      </trkpt>
      <trkpt lat="45.92758" lon="4.7281">
        <ele>170</ele>
        <time>2018-07-03T10:44:40Z</time>
      </trkpt>
      <trkpt lat="45.92754" lon="4.72815">
        <ele>170</ele>
        <time>2018-07-03T10:44:41Z</time>
      </trkpt>
      <trkpt lat="45.92749" lon="4.72817">
        <ele>169</ele>
        <time>2018-07-03T10:44:42Z</time>
      </trkpt>
      <trkpt lat="45.92745" lon="4.72821">
        <ele>169</ele>
        <time>2018-07-03T10:44:43Z</time>
      </trkpt>
      <trkpt lat="45.9274" lon="4.72824">
        <ele>169</ele>
        <time>2018-07-03T10:44:44Z</time>
      </trkpt>
      <trkpt lat="45.92735" lon="4.72827">
        <ele>169</ele>
        <time>2018-07-03T10:44:45Z</time>
      </trkpt>
      <trkpt lat="45.9273" lon="4.7283">
        <ele>170</ele>
        <time>2018-07-03T10:44:46Z</time>
      </trkpt>
      <trkpt lat="45.92725" lon="4.72834">
        <ele>169</ele>
        <time>2018-07-03T10:44:47Z</time>
      </trkpt>
      <trkpt lat="45.92721" lon="4.72838">
        <ele>169</ele>
        <time>2018-07-03T10:44:48Z</time>
      </trkpt>
      <trkpt lat="45.92715" lon="4.72842">
        <ele>169</ele>
        <time>2018-07-03T10:44:49Z</time>
      </trkpt>
      <trkpt lat="45.92709" lon="4.72846">
        <ele>169</ele>
        <time>2018-07-03T10:44:50Z</time>
      </trkpt>
      <trkpt lat="45.92703" lon="4.72851">
        <ele>169</ele>
        <time>2018-07-03T10:44:51Z</time>
      </trkpt>
      <trkpt lat="45.92698" lon="4.72855">
        <ele>169</ele>
        <time>2018-07-03T10:44:52Z</time>
      </trkpt>
      <trkpt lat="45.92694" lon="4.72859">
        <ele>169</ele>
        <time>2018-07-03T10:44:53Z</time>
      </trkpt>
      <trkpt lat="45.92689" lon="4.72862">
        <ele>169</ele>
        <time>2018-07-03T10:44:54Z</time>
      </trkpt>
      <trkpt lat="45.92685" lon="4.72867">
        <ele>169</ele>
        <time>2018-07-03T10:44:55Z</time>
      </trkpt>
      <trkpt lat="45.9268" lon="4.7287">
        <ele>169</ele>
        <time>2018-07-03T10:44:56Z</time>
      </trkpt>
      <trkpt lat="45.92677" lon="4.72873">
        <ele>169</ele>
        <time>2018-07-03T10:44:57Z</time>
      </trkpt>
      <trkpt lat="45.92671" lon="4.72877">
        <ele>170</ele>
        <time>2018-07-03T10:44:58Z</time>
      </trkpt>
      <trkpt lat="45.92665" lon="4.72881">
        <ele>169</ele>
        <time>2018-07-03T10:44:59Z</time>
      </trkpt>
      <trkpt lat="45.92661" lon="4.72886">
        <ele>169</ele>
        <time>2018-07-03T10:45:00Z</time>
      </trkpt>
      <trkpt lat="45.92656" lon="4.72889">
        <ele>169</ele>
        <time>2018-07-03T10:45:01Z</time>
      </trkpt>
      <trkpt lat="45.92651" lon="4.72893">
        <ele>169</ele>
        <time>2018-07-03T10:45:02Z</time>
      </trkpt>
      <trkpt lat="45.92645" lon="4.72898">
        <ele>169</ele>
        <time>2018-07-03T10:45:03Z</time>
      </trkpt>
      <trkpt lat="45.9264" lon="4.72901">
        <ele>169</ele>
        <time>2018-07-03T10:45:04Z</time>
      </trkpt>
      <trkpt lat="45.92635" lon="4.72905">
        <ele>169</ele>
        <time>2018-07-03T10:45:05Z</time>
      </trkpt>
      <trkpt lat="45.9263" lon="4.72909">
        <ele>169</ele>
        <time>2018-07-03T10:45:06Z</time>
      </trkpt>
      <trkpt lat="45.92625" lon="4.72913">
        <ele>169</ele>
        <time>2018-07-03T10:45:07Z</time>
      </trkpt>
      <trkpt lat="45.92621" lon="4.72919">
        <ele>169</ele>
        <time>2018-07-03T10:45:08Z</time>
      </trkpt>
      <trkpt lat="45.92617" lon="4.72924">
        <ele>169</ele>
        <time>2018-07-03T10:45:09Z</time>
      </trkpt>
      <trkpt lat="45.92612" lon="4.72928">
        <ele>169</ele>
        <time>2018-07-03T10:45:10Z</time>
      </trkpt>
      <trkpt lat="45.92608" lon="4.72933">
        <ele>169</ele>
        <time>2018-07-03T10:45:11Z</time>
      </trkpt>
      <trkpt lat="45.92604" lon="4.7294">
        <ele>169</ele>
        <time>2018-07-03T10:45:12Z</time>
      </trkpt>
      <trkpt lat="45.92599" lon="4.72944">
        <ele>169</ele>
        <time>2018-07-03T10:45:13Z</time>
      </trkpt>
      <trkpt lat="45.92593" lon="4.72949">
        <ele>169</ele>
        <time>2018-07-03T10:45:14Z</time>
      </trkpt>
      <trkpt lat="45.92588" lon="4.72955">
        <ele>169</ele>
        <time>2018-07-03T10:45:15Z</time>
      </trkpt>
      <trkpt lat="45.92583" lon="4.7296">
        <ele>169</ele>
        <time>2018-07-03T10:45:16Z</time>
      </trkpt>
      <trkpt lat="45.92578" lon="4.72965">
        <ele>169</ele>
        <time>2018-07-03T10:45:17Z</time>
      </trkpt>
      <trkpt lat="45.92573" lon="4.72971">
        <ele>169</ele>
        <time>2018-07-03T10:45:18Z</time>
      </trkpt>
      <trkpt lat="45.92568" lon="4.72975">
        <ele>169</ele>
        <time>2018-07-03T10:45:19Z</time>
      </trkpt>
      <trkpt lat="45.92563" lon="4.72979">
        <ele>169</ele>
        <time>2018-07-03T10:45:20Z</time>
      </trkpt>
      <trkpt lat="45.92558" lon="4.72984">
        <ele>169</ele>
        <time>2018-07-03T10:45:21Z</time>
      </trkpt>
      <trkpt lat="45.92553" lon="4.72989">
        <ele>169</ele>
        <time>2018-07-03T10:45:22Z</time>
      </trkpt>
      <trkpt lat="45.92549" lon="4.72993">
        <ele>169</ele>
        <time>2018-07-03T10:45:23Z</time>
      </trkpt>
      <trkpt lat="45.92544" lon="4.72998">
        <ele>169</ele>
        <time>2018-07-03T10:45:24Z</time>
      </trkpt>
      <trkpt lat="45.92539" lon="4.73002">
        <ele>169</ele>
        <time>2018-07-03T10:45:25Z</time>
      </trkpt>
      <trkpt lat="45.92534" lon="4.73008">
        <ele>169</ele>
        <time>2018-07-03T10:45:26Z</time>
      </trkpt>
      <trkpt lat="45.9253" lon="4.73012">
        <ele>169</ele>
        <time>2018-07-03T10:45:27Z</time>
      </trkpt>
      <trkpt lat="45.92526" lon="4.73017">
        <ele>169</ele>
        <time>2018-07-03T10:45:28Z</time>
      </trkpt>
      <trkpt lat="45.92522" lon="4.73022">
        <ele>169</ele>
        <time>2018-07-03T10:45:29Z</time>
      </trkpt>
      <trkpt lat="45.92517" lon="4.73026">
        <ele>169</ele>
        <time>2018-07-03T10:45:30Z</time>
      </trkpt>
      <trkpt lat="45.92513" lon="4.73029">
        <ele>169</ele>
        <time>2018-07-03T10:45:31Z</time>
      </trkpt>
      <trkpt lat="45.92507" lon="4.73034">
        <ele>169</ele>
        <time>2018-07-03T10:45:32Z</time>
      </trkpt>
      <trkpt lat="45.92503" lon="4.73037">
        <ele>169</ele>
        <time>2018-07-03T10:45:33Z</time>
      </trkpt>
      <trkpt lat="45.92498" lon="4.7304">
        <ele>170</ele>
        <time>2018-07-03T10:45:34Z</time>
      </trkpt>
      <trkpt lat="45.92493" lon="4.73045">
        <ele>170</ele>
        <time>2018-07-03T10:45:35Z</time>
      </trkpt>
      <trkpt lat="45.92488" lon="4.7305">
        <ele>170</ele>
        <time>2018-07-03T10:45:36Z</time>
      </trkpt>
      <trkpt lat="45.92483" lon="4.73053">
        <ele>170</ele>
        <time>2018-07-03T10:45:37Z</time>
      </trkpt>
      <trkpt lat="45.92479" lon="4.73056">
        <ele>170</ele>
        <time>2018-07-03T10:45:38Z</time>
      </trkpt>
      <trkpt lat="45.92475" lon="4.73062">
        <ele>170</ele>
        <time>2018-07-03T10:45:39Z</time>
      </trkpt>
      <trkpt lat="45.9247" lon="4.73066">
        <ele>170</ele>
        <time>2018-07-03T10:45:40Z</time>
      </trkpt>
      <trkpt lat="45.92465" lon="4.7307">
        <ele>170</ele>
        <time>2018-07-03T10:45:41Z</time>
      </trkpt>
      <trkpt lat="45.9246" lon="4.73074">
        <ele>170</ele>
        <time>2018-07-03T10:45:42Z</time>
      </trkpt>
      <trkpt lat="45.92456" lon="4.7308">
        <ele>170</ele>
        <time>2018-07-03T10:45:43Z</time>
      </trkpt>
      <trkpt lat="45.92453" lon="4.73082">
        <ele>170</ele>
        <time>2018-07-03T10:45:44Z</time>
      </trkpt>
      <trkpt lat="45.92448" lon="4.73085">
        <ele>170</ele>
        <time>2018-07-03T10:45:45Z</time>
      </trkpt>
      <trkpt lat="45.92444" lon="4.73088">
        <ele>170</ele>
        <time>2018-07-03T10:45:46Z</time>
      </trkpt>
      <trkpt lat="45.9244" lon="4.73092">
        <ele>171</ele>
        <time>2018-07-03T10:45:47Z</time>
      </trkpt>
      <trkpt lat="45.92436" lon="4.73096">
        <ele>171</ele>
        <time>2018-07-03T10:45:48Z</time>
      </trkpt>
      <trkpt lat="45.92431" lon="4.73099">
        <ele>171</ele>
        <time>2018-07-03T10:45:49Z</time>
      </trkpt>
      <trkpt lat="45.92427" lon="4.73102">
        <ele>171</ele>
        <time>2018-07-03T10:45:50Z</time>
      </trkpt>
      <trkpt lat="45.92423" lon="4.73107">
        <ele>171</ele>
        <time>2018-07-03T10:45:51Z</time>
      </trkpt>
      <trkpt lat="45.9242" lon="4.73111">
        <ele>170</ele>
        <time>2018-07-03T10:45:52Z</time>
      </trkpt>
      <trkpt lat="45.92416" lon="4.73115">
        <ele>171</ele>
        <time>2018-07-03T10:45:53Z</time>
      </trkpt>
      <trkpt lat="45.92412" lon="4.73118">
        <ele>171</ele>
        <time>2018-07-03T10:45:54Z</time>
      </trkpt>
      <trkpt lat="45.92409" lon="4.73124">
        <ele>171</ele>
        <time>2018-07-03T10:45:55Z</time>
      </trkpt>
      <trkpt lat="45.92408" lon="4.73131">
        <ele>171</ele>
        <time>2018-07-03T10:45:56Z</time>
      </trkpt>
      <trkpt lat="45.92408" lon="4.73137">
        <ele>171</ele>
        <time>2018-07-03T10:45:57Z</time>
      </trkpt>
      <trkpt lat="45.92407" lon="4.73145">
        <ele>171</ele>
        <time>2018-07-03T10:45:58Z</time>
      </trkpt>
      <trkpt lat="45.92407" lon="4.73154">
        <ele>171</ele>
        <time>2018-07-03T10:45:59Z</time>
      </trkpt>
      <trkpt lat="45.92406" lon="4.7316">
        <ele>170</ele>
        <time>2018-07-03T10:46:00Z</time>
      </trkpt>
      <trkpt lat="45.92407" lon="4.73168">
        <ele>170</ele>
        <time>2018-07-03T10:46:01Z</time>
      </trkpt>
      <trkpt lat="45.92407" lon="4.73175">
        <ele>171</ele>
        <time>2018-07-03T10:46:02Z</time>
      </trkpt>
      <trkpt lat="45.92408" lon="4.73184">
        <ele>171</ele>
        <time>2018-07-03T10:46:03Z</time>
      </trkpt>
      <trkpt lat="45.92408" lon="4.73192">
        <ele>171</ele>
        <time>2018-07-03T10:46:04Z</time>
      </trkpt>
      <trkpt lat="45.92408" lon="4.73199">
        <ele>171</ele>
        <time>2018-07-03T10:46:05Z</time>
      </trkpt>
      <trkpt lat="45.92408" lon="4.73207">
        <ele>171</ele>
        <time>2018-07-03T10:46:06Z</time>
      </trkpt>
      <trkpt lat="45.92409" lon="4.73215">
        <ele>171</ele>
        <time>2018-07-03T10:46:07Z</time>
      </trkpt>
      <trkpt lat="45.92409" lon="4.73222">
        <ele>171</ele>
        <time>2018-07-03T10:46:08Z</time>
      </trkpt>
      <trkpt lat="45.92409" lon="4.7323">
        <ele>171</ele>
        <time>2018-07-03T10:46:09Z</time>
      </trkpt>
      <trkpt lat="45.9241" lon="4.73239">
        <ele>171</ele>
        <time>2018-07-03T10:46:10Z</time>
      </trkpt>
      <trkpt lat="45.9241" lon="4.73247">
        <ele>171</ele>
        <time>2018-07-03T10:46:11Z</time>
      </trkpt>
      <trkpt lat="45.92411" lon="4.73255">
        <ele>171</ele>
        <time>2018-07-03T10:46:12Z</time>
      </trkpt>
      <trkpt lat="45.92411" lon="4.73263">
        <ele>171</ele>
        <time>2018-07-03T10:46:13Z</time>
      </trkpt>
      <trkpt lat="45.92412" lon="4.7327">
        <ele>171</ele>
        <time>2018-07-03T10:46:14Z</time>
      </trkpt>
      <trkpt lat="45.92412" lon="4.73278">
        <ele>171</ele>
        <time>2018-07-03T10:46:15Z</time>
      </trkpt>
      <trkpt lat="45.92412" lon="4.73286">
        <ele>171</ele>
        <time>2018-07-03T10:46:16Z</time>
      </trkpt>
      <trkpt lat="45.92412" lon="4.73293">
        <ele>171</ele>
        <time>2018-07-03T10:46:17Z</time>
      </trkpt>
      <trkpt lat="45.92414" lon="4.73301">
        <ele>171</ele>
        <time>2018-07-03T10:46:18Z</time>
      </trkpt>
      <trkpt lat="45.92415" lon="4.73308">
        <ele>171</ele>
        <time>2018-07-03T10:46:19Z</time>
      </trkpt>
      <trkpt lat="45.92415" lon="4.73315">
        <ele>171</ele>
        <time>2018-07-03T10:46:20Z</time>
      </trkpt>
      <trkpt lat="45.92416" lon="4.73324">
        <ele>171</ele>
        <time>2018-07-03T10:46:21Z</time>
      </trkpt>
      <trkpt lat="45.92416" lon="4.73332">
        <ele>171</ele>
        <time>2018-07-03T10:46:22Z</time>
      </trkpt>
      <trkpt lat="45.92417" lon="4.73339">
        <ele>171</ele>
        <time>2018-07-03T10:46:23Z</time>
      </trkpt>
      <trkpt lat="45.92418" lon="4.73347">
        <ele>171</ele>
        <time>2018-07-03T10:46:24Z</time>
      </trkpt>
      <trkpt lat="45.9242" lon="4.73356">
        <ele>171</ele>
        <time>2018-07-03T10:46:25Z</time>
      </trkpt>
      <trkpt lat="45.9242" lon="4.73364">
        <ele>172</ele>
        <time>2018-07-03T10:46:26Z</time>
      </trkpt>
      <trkpt lat="45.92421" lon="4.73372">
        <ele>172</ele>
        <time>2018-07-03T10:46:27Z</time>
      </trkpt>
      <trkpt lat="45.92422" lon="4.73379">
        <ele>172</ele>
        <time>2018-07-03T10:46:28Z</time>
      </trkpt>
      <trkpt lat="45.92424" lon="4.73387">
        <ele>172</ele>
        <time>2018-07-03T10:46:29Z</time>
      </trkpt>
      <trkpt lat="45.92427" lon="4.73395">
        <ele>172</ele>
        <time>2018-07-03T10:46:30Z</time>
      </trkpt>
      <trkpt lat="45.9243" lon="4.73402">
        <ele>172</ele>
        <time>2018-07-03T10:46:31Z</time>
      </trkpt>
      <trkpt lat="45.92434" lon="4.73408">
        <ele>172</ele>
        <time>2018-07-03T10:46:32Z</time>
      </trkpt>
      <trkpt lat="45.92438" lon="4.73413">
        <ele>172</ele>
        <time>2018-07-03T10:46:33Z</time>
      </trkpt>
      <trkpt lat="45.92442" lon="4.73417">
        <ele>173</ele>
        <time>2018-07-03T10:46:34Z</time>
      </trkpt>
      <trkpt lat="45.92448" lon="4.73419">
        <ele>173</ele>
        <time>2018-07-03T10:46:35Z</time>
      </trkpt>
      <trkpt lat="45.92451" lon="4.73423">
        <ele>173</ele>
        <time>2018-07-03T10:46:36Z</time>
      </trkpt>
      <trkpt lat="45.92455" lon="4.73428">
        <ele>173</ele>
        <time>2018-07-03T10:46:37Z</time>
      </trkpt>
      <trkpt lat="45.92459" lon="4.73432">
        <ele>173</ele>
        <time>2018-07-03T10:46:38Z</time>
      </trkpt>
      <trkpt lat="45.92462" lon="4.73439">
        <ele>173</ele>
        <time>2018-07-03T10:46:39Z</time>
      </trkpt>
      <trkpt lat="45.92465" lon="4.73447">
        <ele>173</ele>
        <time>2018-07-03T10:46:40Z</time>
      </trkpt>
      <trkpt lat="45.92466" lon="4.73453">
        <ele>173</ele>
        <time>2018-07-03T10:46:41Z</time>
      </trkpt>
      <trkpt lat="45.92467" lon="4.73461">
        <ele>173</ele>
        <time>2018-07-03T10:46:42Z</time>
      </trkpt>
      <trkpt lat="45.92468" lon="4.73468">
        <ele>173</ele>
        <time>2018-07-03T10:46:43Z</time>
      </trkpt>
      <trkpt lat="45.92468" lon="4.73475">
        <ele>173</ele>
        <time>2018-07-03T10:46:44Z</time>
      </trkpt>
      <trkpt lat="45.92469" lon="4.73487">
        <ele>173</ele>
        <time>2018-07-03T10:46:46Z</time>
      </trkpt>
      <trkpt lat="45.92468" lon="4.73494">
        <ele>173</ele>
        <time>2018-07-03T10:46:47Z</time>
      </trkpt>
      <trkpt lat="45.92468" lon="4.735">
        <ele>174</ele>
        <time>2018-07-03T10:46:48Z</time>
      </trkpt>
      <trkpt lat="45.92467" lon="4.73507">
        <ele>174</ele>
        <time>2018-07-03T10:46:49Z</time>
      </trkpt>
      <trkpt lat="45.92467" lon="4.73515">
        <ele>174</ele>
        <time>2018-07-03T10:46:50Z</time>
      </trkpt>
      <trkpt lat="45.92467" lon="4.73521">
        <ele>174</ele>
        <time>2018-07-03T10:46:51Z</time>
      </trkpt>
      <trkpt lat="45.92466" lon="4.73533">
        <ele>174</ele>
        <time>2018-07-03T10:46:53Z</time>
      </trkpt>
      <trkpt lat="45.92466" lon="4.73538">
        <ele>174</ele>
        <time>2018-07-03T10:46:54Z</time>
      </trkpt>
      <trkpt lat="45.92465" lon="4.73544">
        <ele>173</ele>
        <time>2018-07-03T10:46:56Z</time>
      </trkpt>
      <trkpt lat="45.92464" lon="4.73554">
        <ele>173</ele>
        <time>2018-07-03T10:46:57Z</time>
      </trkpt>
      <trkpt lat="45.92466" lon="4.73565">
        <ele>173</ele>
        <time>2018-07-03T10:46:59Z</time>
      </trkpt>
      <trkpt lat="45.92466" lon="4.73571">
        <ele>173</ele>
        <time>2018-07-03T10:47:00Z</time>
      </trkpt>
      <trkpt lat="45.92467" lon="4.73577">
        <ele>173</ele>
        <time>2018-07-03T10:47:01Z</time>
      </trkpt>
      <trkpt lat="45.92467" lon="4.73584">
        <ele>174</ele>
        <time>2018-07-03T10:47:02Z</time>
      </trkpt>
      <trkpt lat="45.92469" lon="4.73592">
        <ele>174</ele>
        <time>2018-07-03T10:47:03Z</time>
      </trkpt>
      <trkpt lat="45.9247" lon="4.73597">
        <ele>174</ele>
        <time>2018-07-03T10:47:04Z</time>
      </trkpt>
      <trkpt lat="45.92468" lon="4.73603">
        <ele>174</ele>
        <time>2018-07-03T10:47:05Z</time>
      </trkpt>
      <trkpt lat="45.92469" lon="4.73611">
        <ele>174</ele>
        <time>2018-07-03T10:47:06Z</time>
      </trkpt>
      <trkpt lat="45.92468" lon="4.73619">
        <ele>174</ele>
        <time>2018-07-03T10:47:07Z</time>
      </trkpt>
      <trkpt lat="45.92468" lon="4.73624">
        <ele>174</ele>
        <time>2018-07-03T10:47:08Z</time>
      </trkpt>
      <trkpt lat="45.92468" lon="4.7363">
        <ele>174</ele>
        <time>2018-07-03T10:47:09Z</time>
      </trkpt>
      <trkpt lat="45.9247" lon="4.73639">
        <ele>174</ele>
        <time>2018-07-03T10:47:10Z</time>
      </trkpt>
      <trkpt lat="45.9247" lon="4.73646">
        <ele>174</ele>
        <time>2018-07-03T10:47:11Z</time>
      </trkpt>
      <trkpt lat="45.92469" lon="4.73653">
        <ele>174</ele>
        <time>2018-07-03T10:47:12Z</time>
      </trkpt>
      <trkpt lat="45.92467" lon="4.73662">
        <ele>174</ele>
        <time>2018-07-03T10:47:14Z</time>
      </trkpt>
      <trkpt lat="45.92465" lon="4.7367">
        <ele>174</ele>
        <time>2018-07-03T10:47:15Z</time>
      </trkpt>
      <trkpt lat="45.92465" lon="4.73683">
        <ele>174</ele>
        <time>2018-07-03T10:47:17Z</time>
      </trkpt>
      <trkpt lat="45.92464" lon="4.73685">
        <ele>174</ele>
        <time>2018-07-03T10:47:18Z</time>
      </trkpt>
      <trkpt lat="45.92463" lon="4.73693">
        <ele>174</ele>
        <time>2018-07-03T10:47:19Z</time>
      </trkpt>
      <trkpt lat="45.92462" lon="4.73699">
        <ele>174</ele>
        <time>2018-07-03T10:47:20Z</time>
      </trkpt>
      <trkpt lat="45.92458" lon="4.7371">
        <ele>174</ele>
        <time>2018-07-03T10:47:35Z</time>
      </trkpt>
      <trkpt lat="45.92458" lon="4.73711">
        <ele>174</ele>
        <time>2018-07-03T10:47:36Z</time>
      </trkpt>
      <trkpt lat="45.92458" lon="4.7371">
        <ele>174</ele>
        <time>2018-07-03T10:48:04.866Z</time>
      </trkpt>
    </trkseg>
  </trk>
</gpx>